<?xml version="1.0" encoding="UTF-8" standalone="no" ?>
<gpx xmlns="http://www.topografix.com/GPX/1/1" xmlns:xsi="http://www.w3.org/2001/XMLSchema-instance" xsi:schemaLocation="http://www.topografix.com/GPX/1/1 http://www.topografix.com/GPX/1/1/gpx.xsd" version="1.1" creator="VisuGPX - https://www.visugpx.com">
  <metadata>
    <name>2018-07-19 Bike ride-Le Saule d'Oingt-Oingt</name>
    <desc><![CDATA[2018-07-19 Bike ride-Le Saule d'Oingt-Oingt]]></desc>
  </metadata>
  <wpt lat="45.92465" lon="4.73719">
    <ele>174</ele>
    <name><![CDATA[2018-07-19 10:13 (Start)]]></name>
  </wpt>
  <wpt lat="45.92455" lon="4.73714">
    <ele>174</ele>
    <name><![CDATA[2018-07-19 10:13 (End)]]></name>
  </wpt>
  <trk>
    <name><![CDATA[2018-07-19 10:13]]></name>
    <trkseg>
      <trkpt lat="45.92465" lon="4.73719">
        <ele>174</ele>
        <time>2018-07-19T08:13:12.258Z</time>
      </trkpt>
      <trkpt lat="45.92465" lon="4.73718">
        <ele>174</ele>
        <time>2018-07-19T08:13:17.249Z</time>
      </trkpt>
      <trkpt lat="45.92466" lon="4.73715">
        <ele>174</ele>
        <time>2018-07-19T08:13:18.25Z</time>
      </trkpt>
      <trkpt lat="45.9246" lon="4.73712">
        <ele>174</ele>
        <time>2018-07-19T08:13:22.337Z</time>
      </trkpt>
      <trkpt lat="45.92457" lon="4.73711">
        <ele>174</ele>
        <time>2018-07-19T08:13:22Z</time>
      </trkpt>
      <trkpt lat="45.92449" lon="4.7371">
        <ele>174</ele>
        <time>2018-07-19T08:13:26Z</time>
      </trkpt>
      <trkpt lat="45.92449" lon="4.7371">
        <ele>174</ele>
        <time>2018-07-19T08:13:27Z</time>
      </trkpt>
      <trkpt lat="45.92449" lon="4.7371">
        <ele>174</ele>
        <time>2018-07-19T08:13:32Z</time>
      </trkpt>
      <trkpt lat="45.92449" lon="4.7371">
        <ele>174</ele>
        <time>2018-07-19T08:13:33Z</time>
      </trkpt>
      <trkpt lat="45.92458" lon="4.73709">
        <ele>174</ele>
        <time>2018-07-19T08:13:44Z</time>
      </trkpt>
      <trkpt lat="45.92459" lon="4.73707">
        <ele>174</ele>
        <time>2018-07-19T08:13:45Z</time>
      </trkpt>
      <trkpt lat="45.92461" lon="4.73695">
        <ele>174</ele>
        <time>2018-07-19T08:13:49Z</time>
      </trkpt>
      <trkpt lat="45.92462" lon="4.73691">
        <ele>174</ele>
        <time>2018-07-19T08:13:50Z</time>
      </trkpt>
      <trkpt lat="45.92463" lon="4.73683">
        <ele>174</ele>
        <time>2018-07-19T08:13:52Z</time>
      </trkpt>
      <trkpt lat="45.92463" lon="4.73678">
        <ele>174</ele>
        <time>2018-07-19T08:13:53Z</time>
      </trkpt>
      <trkpt lat="45.92464" lon="4.73673">
        <ele>174</ele>
        <time>2018-07-19T08:13:54Z</time>
      </trkpt>
      <trkpt lat="45.92465" lon="4.73659">
        <ele>174</ele>
        <time>2018-07-19T08:13:55Z</time>
      </trkpt>
      <trkpt lat="45.92467" lon="4.73649">
        <ele>174</ele>
        <time>2018-07-19T08:13:57Z</time>
      </trkpt>
      <trkpt lat="45.92467" lon="4.73643">
        <ele>174</ele>
        <time>2018-07-19T08:13:58Z</time>
      </trkpt>
      <trkpt lat="45.92467" lon="4.73631">
        <ele>174</ele>
        <time>2018-07-19T08:14:00Z</time>
      </trkpt>
      <trkpt lat="45.92467" lon="4.73624">
        <ele>174</ele>
        <time>2018-07-19T08:14:01Z</time>
      </trkpt>
      <trkpt lat="45.92468" lon="4.73618">
        <ele>174</ele>
        <time>2018-07-19T08:14:02Z</time>
      </trkpt>
      <trkpt lat="45.92467" lon="4.73611">
        <ele>174</ele>
        <time>2018-07-19T08:14:03Z</time>
      </trkpt>
      <trkpt lat="45.92467" lon="4.73604">
        <ele>174</ele>
        <time>2018-07-19T08:14:04Z</time>
      </trkpt>
      <trkpt lat="45.92466" lon="4.73596">
        <ele>174</ele>
        <time>2018-07-19T08:14:05Z</time>
      </trkpt>
      <trkpt lat="45.92465" lon="4.73584">
        <ele>174</ele>
        <time>2018-07-19T08:14:07Z</time>
      </trkpt>
      <trkpt lat="45.92465" lon="4.73578">
        <ele>173</ele>
        <time>2018-07-19T08:14:08Z</time>
      </trkpt>
      <trkpt lat="45.92465" lon="4.73565">
        <ele>173</ele>
        <time>2018-07-19T08:14:10Z</time>
      </trkpt>
      <trkpt lat="45.92465" lon="4.73559">
        <ele>173</ele>
        <time>2018-07-19T08:14:11Z</time>
      </trkpt>
      <trkpt lat="45.92465" lon="4.73547">
        <ele>173</ele>
        <time>2018-07-19T08:14:14Z</time>
      </trkpt>
      <trkpt lat="45.92465" lon="4.73544">
        <ele>173</ele>
        <time>2018-07-19T08:14:15Z</time>
      </trkpt>
      <trkpt lat="45.92467" lon="4.73532">
        <ele>174</ele>
        <time>2018-07-19T08:14:16Z</time>
      </trkpt>
      <trkpt lat="45.92466" lon="4.73526">
        <ele>174</ele>
        <time>2018-07-19T08:14:17Z</time>
      </trkpt>
      <trkpt lat="45.92466" lon="4.73519">
        <ele>174</ele>
        <time>2018-07-19T08:14:18Z</time>
      </trkpt>
      <trkpt lat="45.92466" lon="4.73512">
        <ele>174</ele>
        <time>2018-07-19T08:14:19Z</time>
      </trkpt>
      <trkpt lat="45.92463" lon="4.73504">
        <ele>174</ele>
        <time>2018-07-19T08:14:20Z</time>
      </trkpt>
      <trkpt lat="45.92463" lon="4.73497">
        <ele>173</ele>
        <time>2018-07-19T08:14:21Z</time>
      </trkpt>
      <trkpt lat="45.92463" lon="4.73489">
        <ele>173</ele>
        <time>2018-07-19T08:14:22Z</time>
      </trkpt>
      <trkpt lat="45.92463" lon="4.73482">
        <ele>173</ele>
        <time>2018-07-19T08:14:23Z</time>
      </trkpt>
      <trkpt lat="45.92461" lon="4.73474">
        <ele>173</ele>
        <time>2018-07-19T08:14:24Z</time>
      </trkpt>
      <trkpt lat="45.92461" lon="4.73468">
        <ele>173</ele>
        <time>2018-07-19T08:14:25Z</time>
      </trkpt>
      <trkpt lat="45.92463" lon="4.73461">
        <ele>173</ele>
        <time>2018-07-19T08:14:26Z</time>
      </trkpt>
      <trkpt lat="45.92462" lon="4.73453">
        <ele>173</ele>
        <time>2018-07-19T08:14:27Z</time>
      </trkpt>
      <trkpt lat="45.9246" lon="4.73446">
        <ele>173</ele>
        <time>2018-07-19T08:14:28Z</time>
      </trkpt>
      <trkpt lat="45.92459" lon="4.7344">
        <ele>173</ele>
        <time>2018-07-19T08:14:29Z</time>
      </trkpt>
      <trkpt lat="45.92458" lon="4.7343">
        <ele>173</ele>
        <time>2018-07-19T08:14:31Z</time>
      </trkpt>
      <trkpt lat="45.92453" lon="4.73425">
        <ele>173</ele>
        <time>2018-07-19T08:14:32Z</time>
      </trkpt>
      <trkpt lat="45.92446" lon="4.73419">
        <ele>173</ele>
        <time>2018-07-19T08:14:34Z</time>
      </trkpt>
      <trkpt lat="45.92443" lon="4.73416">
        <ele>172</ele>
        <time>2018-07-19T08:14:35Z</time>
      </trkpt>
      <trkpt lat="45.92438" lon="4.73415">
        <ele>172</ele>
        <time>2018-07-19T08:14:36Z</time>
      </trkpt>
      <trkpt lat="45.92434" lon="4.73412">
        <ele>172</ele>
        <time>2018-07-19T08:14:37Z</time>
      </trkpt>
      <trkpt lat="45.92431" lon="4.73408">
        <ele>172</ele>
        <time>2018-07-19T08:14:38Z</time>
      </trkpt>
      <trkpt lat="45.92427" lon="4.73403">
        <ele>172</ele>
        <time>2018-07-19T08:14:39Z</time>
      </trkpt>
      <trkpt lat="45.92426" lon="4.73392">
        <ele>172</ele>
        <time>2018-07-19T08:14:41Z</time>
      </trkpt>
      <trkpt lat="45.92423" lon="4.73387">
        <ele>172</ele>
        <time>2018-07-19T08:14:42Z</time>
      </trkpt>
      <trkpt lat="45.92421" lon="4.7338">
        <ele>172</ele>
        <time>2018-07-19T08:14:43Z</time>
      </trkpt>
      <trkpt lat="45.92419" lon="4.73374">
        <ele>172</ele>
        <time>2018-07-19T08:14:44Z</time>
      </trkpt>
      <trkpt lat="45.92418" lon="4.73367">
        <ele>172</ele>
        <time>2018-07-19T08:14:45Z</time>
      </trkpt>
      <trkpt lat="45.92418" lon="4.73359">
        <ele>171</ele>
        <time>2018-07-19T08:14:46Z</time>
      </trkpt>
      <trkpt lat="45.92416" lon="4.73351">
        <ele>171</ele>
        <time>2018-07-19T08:14:47Z</time>
      </trkpt>
      <trkpt lat="45.92415" lon="4.73343">
        <ele>171</ele>
        <time>2018-07-19T08:14:48Z</time>
      </trkpt>
      <trkpt lat="45.92414" lon="4.73336">
        <ele>171</ele>
        <time>2018-07-19T08:14:49Z</time>
      </trkpt>
      <trkpt lat="45.92413" lon="4.73328">
        <ele>171</ele>
        <time>2018-07-19T08:14:50Z</time>
      </trkpt>
      <trkpt lat="45.92414" lon="4.73322">
        <ele>171</ele>
        <time>2018-07-19T08:14:51Z</time>
      </trkpt>
      <trkpt lat="45.92415" lon="4.73314">
        <ele>171</ele>
        <time>2018-07-19T08:14:52Z</time>
      </trkpt>
      <trkpt lat="45.92414" lon="4.73305">
        <ele>171</ele>
        <time>2018-07-19T08:14:53Z</time>
      </trkpt>
      <trkpt lat="45.92414" lon="4.73298">
        <ele>171</ele>
        <time>2018-07-19T08:14:54Z</time>
      </trkpt>
      <trkpt lat="45.92413" lon="4.73289">
        <ele>171</ele>
        <time>2018-07-19T08:14:55Z</time>
      </trkpt>
      <trkpt lat="45.92412" lon="4.73282">
        <ele>171</ele>
        <time>2018-07-19T08:14:56Z</time>
      </trkpt>
      <trkpt lat="45.92412" lon="4.73274">
        <ele>171</ele>
        <time>2018-07-19T08:14:57Z</time>
      </trkpt>
      <trkpt lat="45.92409" lon="4.73266">
        <ele>171</ele>
        <time>2018-07-19T08:14:58Z</time>
      </trkpt>
      <trkpt lat="45.92409" lon="4.73258">
        <ele>171</ele>
        <time>2018-07-19T08:14:59Z</time>
      </trkpt>
      <trkpt lat="45.9241" lon="4.73249">
        <ele>171</ele>
        <time>2018-07-19T08:15:00Z</time>
      </trkpt>
      <trkpt lat="45.92409" lon="4.7324">
        <ele>171</ele>
        <time>2018-07-19T08:15:01Z</time>
      </trkpt>
      <trkpt lat="45.92409" lon="4.73232">
        <ele>171</ele>
        <time>2018-07-19T08:15:02Z</time>
      </trkpt>
      <trkpt lat="45.92408" lon="4.73223">
        <ele>171</ele>
        <time>2018-07-19T08:15:03Z</time>
      </trkpt>
      <trkpt lat="45.92407" lon="4.73217">
        <ele>171</ele>
        <time>2018-07-19T08:15:04Z</time>
      </trkpt>
      <trkpt lat="45.92407" lon="4.73208">
        <ele>171</ele>
        <time>2018-07-19T08:15:05Z</time>
      </trkpt>
      <trkpt lat="45.92407" lon="4.732">
        <ele>171</ele>
        <time>2018-07-19T08:15:06Z</time>
      </trkpt>
      <trkpt lat="45.92407" lon="4.73192">
        <ele>171</ele>
        <time>2018-07-19T08:15:07Z</time>
      </trkpt>
      <trkpt lat="45.92406" lon="4.73184">
        <ele>171</ele>
        <time>2018-07-19T08:15:08Z</time>
      </trkpt>
      <trkpt lat="45.92406" lon="4.73172">
        <ele>170</ele>
        <time>2018-07-19T08:15:10Z</time>
      </trkpt>
      <trkpt lat="45.92405" lon="4.73165">
        <ele>170</ele>
        <time>2018-07-19T08:15:11Z</time>
      </trkpt>
      <trkpt lat="45.92405" lon="4.73156">
        <ele>171</ele>
        <time>2018-07-19T08:15:12Z</time>
      </trkpt>
      <trkpt lat="45.92405" lon="4.73149">
        <ele>171</ele>
        <time>2018-07-19T08:15:13Z</time>
      </trkpt>
      <trkpt lat="45.92406" lon="4.7314">
        <ele>171</ele>
        <time>2018-07-19T08:15:14Z</time>
      </trkpt>
      <trkpt lat="45.92407" lon="4.73132">
        <ele>171</ele>
        <time>2018-07-19T08:15:15Z</time>
      </trkpt>
      <trkpt lat="45.92408" lon="4.73126">
        <ele>171</ele>
        <time>2018-07-19T08:15:16Z</time>
      </trkpt>
      <trkpt lat="45.92412" lon="4.7312">
        <ele>171</ele>
        <time>2018-07-19T08:15:17Z</time>
      </trkpt>
      <trkpt lat="45.92416" lon="4.73116">
        <ele>171</ele>
        <time>2018-07-19T08:15:18Z</time>
      </trkpt>
      <trkpt lat="45.9242" lon="4.73112">
        <ele>170</ele>
        <time>2018-07-19T08:15:19Z</time>
      </trkpt>
      <trkpt lat="45.92423" lon="4.73106">
        <ele>171</ele>
        <time>2018-07-19T08:15:20Z</time>
      </trkpt>
      <trkpt lat="45.92428" lon="4.73102">
        <ele>171</ele>
        <time>2018-07-19T08:15:21Z</time>
      </trkpt>
      <trkpt lat="45.92432" lon="4.73095">
        <ele>171</ele>
        <time>2018-07-19T08:15:22Z</time>
      </trkpt>
      <trkpt lat="45.92436" lon="4.73091">
        <ele>171</ele>
        <time>2018-07-19T08:15:23Z</time>
      </trkpt>
      <trkpt lat="45.92444" lon="4.73087">
        <ele>170</ele>
        <time>2018-07-19T08:15:24Z</time>
      </trkpt>
      <trkpt lat="45.92449" lon="4.73084">
        <ele>170</ele>
        <time>2018-07-19T08:15:25Z</time>
      </trkpt>
      <trkpt lat="45.92453" lon="4.73078">
        <ele>170</ele>
        <time>2018-07-19T08:15:26Z</time>
      </trkpt>
      <trkpt lat="45.92458" lon="4.73073">
        <ele>170</ele>
        <time>2018-07-19T08:15:27Z</time>
      </trkpt>
      <trkpt lat="45.92463" lon="4.73068">
        <ele>170</ele>
        <time>2018-07-19T08:15:28Z</time>
      </trkpt>
      <trkpt lat="45.92468" lon="4.73064">
        <ele>170</ele>
        <time>2018-07-19T08:15:29Z</time>
      </trkpt>
      <trkpt lat="45.92473" lon="4.7306">
        <ele>170</ele>
        <time>2018-07-19T08:15:30Z</time>
      </trkpt>
      <trkpt lat="45.92479" lon="4.73055">
        <ele>170</ele>
        <time>2018-07-19T08:15:31Z</time>
      </trkpt>
      <trkpt lat="45.92485" lon="4.73052">
        <ele>170</ele>
        <time>2018-07-19T08:15:32Z</time>
      </trkpt>
      <trkpt lat="45.92488" lon="4.73046">
        <ele>170</ele>
        <time>2018-07-19T08:15:33Z</time>
      </trkpt>
      <trkpt lat="45.92494" lon="4.73042">
        <ele>170</ele>
        <time>2018-07-19T08:15:34Z</time>
      </trkpt>
      <trkpt lat="45.92499" lon="4.73037">
        <ele>170</ele>
        <time>2018-07-19T08:15:35Z</time>
      </trkpt>
      <trkpt lat="45.92504" lon="4.73033">
        <ele>169</ele>
        <time>2018-07-19T08:15:36Z</time>
      </trkpt>
      <trkpt lat="45.92509" lon="4.73028">
        <ele>169</ele>
        <time>2018-07-19T08:15:37Z</time>
      </trkpt>
      <trkpt lat="45.92513" lon="4.73023">
        <ele>169</ele>
        <time>2018-07-19T08:15:38Z</time>
      </trkpt>
      <trkpt lat="45.92518" lon="4.73018">
        <ele>169</ele>
        <time>2018-07-19T08:15:39Z</time>
      </trkpt>
      <trkpt lat="45.92523" lon="4.73012">
        <ele>169</ele>
        <time>2018-07-19T08:15:40Z</time>
      </trkpt>
      <trkpt lat="45.92527" lon="4.73007">
        <ele>169</ele>
        <time>2018-07-19T08:15:41Z</time>
      </trkpt>
      <trkpt lat="45.92533" lon="4.73005">
        <ele>169</ele>
        <time>2018-07-19T08:15:42Z</time>
      </trkpt>
      <trkpt lat="45.92536" lon="4.72999">
        <ele>169</ele>
        <time>2018-07-19T08:15:43Z</time>
      </trkpt>
      <trkpt lat="45.92542" lon="4.72992">
        <ele>169</ele>
        <time>2018-07-19T08:15:44Z</time>
      </trkpt>
      <trkpt lat="45.92546" lon="4.72988">
        <ele>169</ele>
        <time>2018-07-19T08:15:45Z</time>
      </trkpt>
      <trkpt lat="45.92552" lon="4.72983">
        <ele>169</ele>
        <time>2018-07-19T08:15:46Z</time>
      </trkpt>
      <trkpt lat="45.92557" lon="4.72979">
        <ele>169</ele>
        <time>2018-07-19T08:15:47Z</time>
      </trkpt>
      <trkpt lat="45.92561" lon="4.72975">
        <ele>169</ele>
        <time>2018-07-19T08:15:48Z</time>
      </trkpt>
      <trkpt lat="45.92567" lon="4.7297">
        <ele>169</ele>
        <time>2018-07-19T08:15:49Z</time>
      </trkpt>
      <trkpt lat="45.92572" lon="4.72965">
        <ele>169</ele>
        <time>2018-07-19T08:15:50Z</time>
      </trkpt>
      <trkpt lat="45.92577" lon="4.72961">
        <ele>169</ele>
        <time>2018-07-19T08:15:51Z</time>
      </trkpt>
      <trkpt lat="45.9258" lon="4.72957">
        <ele>169</ele>
        <time>2018-07-19T08:15:52Z</time>
      </trkpt>
      <trkpt lat="45.92583" lon="4.7295">
        <ele>169</ele>
        <time>2018-07-19T08:15:53Z</time>
      </trkpt>
      <trkpt lat="45.92588" lon="4.72945">
        <ele>169</ele>
        <time>2018-07-19T08:15:54Z</time>
      </trkpt>
      <trkpt lat="45.92591" lon="4.72941">
        <ele>169</ele>
        <time>2018-07-19T08:15:55Z</time>
      </trkpt>
      <trkpt lat="45.92596" lon="4.72936">
        <ele>169</ele>
        <time>2018-07-19T08:15:56Z</time>
      </trkpt>
      <trkpt lat="45.92601" lon="4.7293">
        <ele>169</ele>
        <time>2018-07-19T08:15:57Z</time>
      </trkpt>
      <trkpt lat="45.92604" lon="4.72923">
        <ele>169</ele>
        <time>2018-07-19T08:15:58Z</time>
      </trkpt>
      <trkpt lat="45.9261" lon="4.7292">
        <ele>169</ele>
        <time>2018-07-19T08:15:59Z</time>
      </trkpt>
      <trkpt lat="45.92614" lon="4.72916">
        <ele>169</ele>
        <time>2018-07-19T08:16:00Z</time>
      </trkpt>
      <trkpt lat="45.92619" lon="4.72913">
        <ele>169</ele>
        <time>2018-07-19T08:16:01Z</time>
      </trkpt>
      <trkpt lat="45.92625" lon="4.72909">
        <ele>169</ele>
        <time>2018-07-19T08:16:02Z</time>
      </trkpt>
      <trkpt lat="45.92631" lon="4.72905">
        <ele>169</ele>
        <time>2018-07-19T08:16:03Z</time>
      </trkpt>
      <trkpt lat="45.92636" lon="4.72902">
        <ele>169</ele>
        <time>2018-07-19T08:16:04Z</time>
      </trkpt>
      <trkpt lat="45.92641" lon="4.72895">
        <ele>169</ele>
        <time>2018-07-19T08:16:05Z</time>
      </trkpt>
      <trkpt lat="45.92646" lon="4.72891">
        <ele>169</ele>
        <time>2018-07-19T08:16:06Z</time>
      </trkpt>
      <trkpt lat="45.92652" lon="4.72889">
        <ele>169</ele>
        <time>2018-07-19T08:16:07Z</time>
      </trkpt>
      <trkpt lat="45.92658" lon="4.72883">
        <ele>169</ele>
        <time>2018-07-19T08:16:08Z</time>
      </trkpt>
      <trkpt lat="45.92664" lon="4.7288">
        <ele>169</ele>
        <time>2018-07-19T08:16:09Z</time>
      </trkpt>
      <trkpt lat="45.92669" lon="4.72876">
        <ele>170</ele>
        <time>2018-07-19T08:16:10Z</time>
      </trkpt>
      <trkpt lat="45.92673" lon="4.72873">
        <ele>169</ele>
        <time>2018-07-19T08:16:11Z</time>
      </trkpt>
      <trkpt lat="45.92678" lon="4.72869">
        <ele>169</ele>
        <time>2018-07-19T08:16:12Z</time>
      </trkpt>
      <trkpt lat="45.92683" lon="4.72865">
        <ele>169</ele>
        <time>2018-07-19T08:16:13Z</time>
      </trkpt>
      <trkpt lat="45.92688" lon="4.7286">
        <ele>169</ele>
        <time>2018-07-19T08:16:14Z</time>
      </trkpt>
      <trkpt lat="45.92693" lon="4.72856">
        <ele>169</ele>
        <time>2018-07-19T08:16:15Z</time>
      </trkpt>
      <trkpt lat="45.92698" lon="4.72852">
        <ele>169</ele>
        <time>2018-07-19T08:16:16Z</time>
      </trkpt>
      <trkpt lat="45.92703" lon="4.72849">
        <ele>169</ele>
        <time>2018-07-19T08:16:17Z</time>
      </trkpt>
      <trkpt lat="45.92708" lon="4.72845">
        <ele>169</ele>
        <time>2018-07-19T08:16:18Z</time>
      </trkpt>
      <trkpt lat="45.92713" lon="4.72841">
        <ele>169</ele>
        <time>2018-07-19T08:16:19Z</time>
      </trkpt>
      <trkpt lat="45.92718" lon="4.72838">
        <ele>169</ele>
        <time>2018-07-19T08:16:20Z</time>
      </trkpt>
      <trkpt lat="45.92723" lon="4.72834">
        <ele>169</ele>
        <time>2018-07-19T08:16:21Z</time>
      </trkpt>
      <trkpt lat="45.92728" lon="4.72831">
        <ele>170</ele>
        <time>2018-07-19T08:16:22Z</time>
      </trkpt>
      <trkpt lat="45.92732" lon="4.72827">
        <ele>170</ele>
        <time>2018-07-19T08:16:23Z</time>
      </trkpt>
      <trkpt lat="45.92736" lon="4.72823">
        <ele>169</ele>
        <time>2018-07-19T08:16:24Z</time>
      </trkpt>
      <trkpt lat="45.92739" lon="4.72817">
        <ele>170</ele>
        <time>2018-07-19T08:16:25Z</time>
      </trkpt>
      <trkpt lat="45.92745" lon="4.72813">
        <ele>170</ele>
        <time>2018-07-19T08:16:26Z</time>
      </trkpt>
      <trkpt lat="45.9275" lon="4.72808">
        <ele>170</ele>
        <time>2018-07-19T08:16:27Z</time>
      </trkpt>
      <trkpt lat="45.92755" lon="4.72805">
        <ele>170</ele>
        <time>2018-07-19T08:16:28Z</time>
      </trkpt>
      <trkpt lat="45.9276" lon="4.72801">
        <ele>170</ele>
        <time>2018-07-19T08:16:29Z</time>
      </trkpt>
      <trkpt lat="45.92765" lon="4.72798">
        <ele>170</ele>
        <time>2018-07-19T08:16:30Z</time>
      </trkpt>
      <trkpt lat="45.92769" lon="4.72795">
        <ele>170</ele>
        <time>2018-07-19T08:16:31Z</time>
      </trkpt>
      <trkpt lat="45.92774" lon="4.72792">
        <ele>170</ele>
        <time>2018-07-19T08:16:32Z</time>
      </trkpt>
      <trkpt lat="45.9278" lon="4.72789">
        <ele>170</ele>
        <time>2018-07-19T08:16:33Z</time>
      </trkpt>
      <trkpt lat="45.92786" lon="4.72786">
        <ele>171</ele>
        <time>2018-07-19T08:16:34Z</time>
      </trkpt>
      <trkpt lat="45.92791" lon="4.72783">
        <ele>171</ele>
        <time>2018-07-19T08:16:35Z</time>
      </trkpt>
      <trkpt lat="45.92798" lon="4.72787">
        <ele>171</ele>
        <time>2018-07-19T08:16:37Z</time>
      </trkpt>
      <trkpt lat="45.928" lon="4.72792">
        <ele>171</ele>
        <time>2018-07-19T08:16:38Z</time>
      </trkpt>
      <trkpt lat="45.92803" lon="4.72803">
        <ele>171</ele>
        <time>2018-07-19T08:16:40Z</time>
      </trkpt>
      <trkpt lat="45.92803" lon="4.72809">
        <ele>171</ele>
        <time>2018-07-19T08:16:41Z</time>
      </trkpt>
      <trkpt lat="45.92804" lon="4.72816">
        <ele>171</ele>
        <time>2018-07-19T08:16:42Z</time>
      </trkpt>
      <trkpt lat="45.92806" lon="4.72823">
        <ele>171</ele>
        <time>2018-07-19T08:16:43Z</time>
      </trkpt>
      <trkpt lat="45.92804" lon="4.72835">
        <ele>170</ele>
        <time>2018-07-19T08:16:44Z</time>
      </trkpt>
      <trkpt lat="45.92805" lon="4.72842">
        <ele>170</ele>
        <time>2018-07-19T08:16:45Z</time>
      </trkpt>
      <trkpt lat="45.92805" lon="4.72849">
        <ele>170</ele>
        <time>2018-07-19T08:16:46Z</time>
      </trkpt>
      <trkpt lat="45.92807" lon="4.72856">
        <ele>170</ele>
        <time>2018-07-19T08:16:47Z</time>
      </trkpt>
      <trkpt lat="45.92811" lon="4.72863">
        <ele>170</ele>
        <time>2018-07-19T08:16:48Z</time>
      </trkpt>
      <trkpt lat="45.92813" lon="4.72871">
        <ele>170</ele>
        <time>2018-07-19T08:16:49Z</time>
      </trkpt>
      <trkpt lat="45.92814" lon="4.72879">
        <ele>170</ele>
        <time>2018-07-19T08:16:50Z</time>
      </trkpt>
      <trkpt lat="45.92816" lon="4.72887">
        <ele>170</ele>
        <time>2018-07-19T08:16:51Z</time>
      </trkpt>
      <trkpt lat="45.92818" lon="4.72894">
        <ele>170</ele>
        <time>2018-07-19T08:16:52Z</time>
      </trkpt>
      <trkpt lat="45.92819" lon="4.72903">
        <ele>170</ele>
        <time>2018-07-19T08:16:53Z</time>
      </trkpt>
      <trkpt lat="45.92819" lon="4.72913">
        <ele>170</ele>
        <time>2018-07-19T08:16:54Z</time>
      </trkpt>
      <trkpt lat="45.9282" lon="4.72922">
        <ele>170</ele>
        <time>2018-07-19T08:16:55Z</time>
      </trkpt>
      <trkpt lat="45.92821" lon="4.72931">
        <ele>170</ele>
        <time>2018-07-19T08:16:56Z</time>
      </trkpt>
      <trkpt lat="45.92822" lon="4.7294">
        <ele>170</ele>
        <time>2018-07-19T08:16:57Z</time>
      </trkpt>
      <trkpt lat="45.92823" lon="4.72949">
        <ele>170</ele>
        <time>2018-07-19T08:16:58Z</time>
      </trkpt>
      <trkpt lat="45.92824" lon="4.72957">
        <ele>170</ele>
        <time>2018-07-19T08:16:59Z</time>
      </trkpt>
      <trkpt lat="45.92824" lon="4.72966">
        <ele>170</ele>
        <time>2018-07-19T08:17:00Z</time>
      </trkpt>
      <trkpt lat="45.92824" lon="4.72976">
        <ele>170</ele>
        <time>2018-07-19T08:17:01Z</time>
      </trkpt>
      <trkpt lat="45.92825" lon="4.72985">
        <ele>170</ele>
        <time>2018-07-19T08:17:02Z</time>
      </trkpt>
      <trkpt lat="45.92827" lon="4.72993">
        <ele>170</ele>
        <time>2018-07-19T08:17:03Z</time>
      </trkpt>
      <trkpt lat="45.92827" lon="4.73002">
        <ele>170</ele>
        <time>2018-07-19T08:17:04Z</time>
      </trkpt>
      <trkpt lat="45.92828" lon="4.73011">
        <ele>170</ele>
        <time>2018-07-19T08:17:05Z</time>
      </trkpt>
      <trkpt lat="45.92832" lon="4.73021">
        <ele>170</ele>
        <time>2018-07-19T08:17:06Z</time>
      </trkpt>
      <trkpt lat="45.92834" lon="4.7303">
        <ele>171</ele>
        <time>2018-07-19T08:17:07Z</time>
      </trkpt>
      <trkpt lat="45.92835" lon="4.7304">
        <ele>171</ele>
        <time>2018-07-19T08:17:08Z</time>
      </trkpt>
      <trkpt lat="45.92839" lon="4.73049">
        <ele>171</ele>
        <time>2018-07-19T08:17:09Z</time>
      </trkpt>
      <trkpt lat="45.92841" lon="4.7306">
        <ele>171</ele>
        <time>2018-07-19T08:17:10Z</time>
      </trkpt>
      <trkpt lat="45.92843" lon="4.73069">
        <ele>171</ele>
        <time>2018-07-19T08:17:11Z</time>
      </trkpt>
      <trkpt lat="45.92845" lon="4.73078">
        <ele>171</ele>
        <time>2018-07-19T08:17:12Z</time>
      </trkpt>
      <trkpt lat="45.92848" lon="4.73086">
        <ele>171</ele>
        <time>2018-07-19T08:17:13Z</time>
      </trkpt>
      <trkpt lat="45.9285" lon="4.73094">
        <ele>171</ele>
        <time>2018-07-19T08:17:14Z</time>
      </trkpt>
      <trkpt lat="45.92853" lon="4.73106">
        <ele>171</ele>
        <time>2018-07-19T08:17:16Z</time>
      </trkpt>
      <trkpt lat="45.92855" lon="4.73108">
        <ele>171</ele>
        <time>2018-07-19T08:17:17Z</time>
      </trkpt>
      <trkpt lat="45.92862" lon="4.73104">
        <ele>171</ele>
        <time>2018-07-19T08:17:20Z</time>
      </trkpt>
      <trkpt lat="45.92866" lon="4.731">
        <ele>172</ele>
        <time>2018-07-19T08:17:21Z</time>
      </trkpt>
      <trkpt lat="45.92873" lon="4.73091">
        <ele>172</ele>
        <time>2018-07-19T08:17:24Z</time>
      </trkpt>
      <trkpt lat="45.92874" lon="4.73089">
        <ele>172</ele>
        <time>2018-07-19T08:17:25Z</time>
      </trkpt>
      <trkpt lat="45.92876" lon="4.73086">
        <ele>172</ele>
        <time>2018-07-19T08:17:26Z</time>
      </trkpt>
      <trkpt lat="45.92882" lon="4.73081">
        <ele>172</ele>
        <time>2018-07-19T08:17:27Z</time>
      </trkpt>
      <trkpt lat="45.92889" lon="4.73074">
        <ele>172</ele>
        <time>2018-07-19T08:17:29Z</time>
      </trkpt>
      <trkpt lat="45.92893" lon="4.73068">
        <ele>172</ele>
        <time>2018-07-19T08:17:30Z</time>
      </trkpt>
      <trkpt lat="45.92896" lon="4.73062">
        <ele>172</ele>
        <time>2018-07-19T08:17:31Z</time>
      </trkpt>
      <trkpt lat="45.92899" lon="4.73056">
        <ele>172</ele>
        <time>2018-07-19T08:17:32Z</time>
      </trkpt>
      <trkpt lat="45.92904" lon="4.73048">
        <ele>172</ele>
        <time>2018-07-19T08:17:33Z</time>
      </trkpt>
      <trkpt lat="45.92908" lon="4.73043">
        <ele>172</ele>
        <time>2018-07-19T08:17:34Z</time>
      </trkpt>
      <trkpt lat="45.92913" lon="4.73035">
        <ele>172</ele>
        <time>2018-07-19T08:17:35Z</time>
      </trkpt>
      <trkpt lat="45.92917" lon="4.7303">
        <ele>172</ele>
        <time>2018-07-19T08:17:36Z</time>
      </trkpt>
      <trkpt lat="45.92921" lon="4.73024">
        <ele>172</ele>
        <time>2018-07-19T08:17:37Z</time>
      </trkpt>
      <trkpt lat="45.92925" lon="4.73019">
        <ele>172</ele>
        <time>2018-07-19T08:17:38Z</time>
      </trkpt>
      <trkpt lat="45.92929" lon="4.73014">
        <ele>171</ele>
        <time>2018-07-19T08:17:39Z</time>
      </trkpt>
      <trkpt lat="45.92935" lon="4.73006">
        <ele>171</ele>
        <time>2018-07-19T08:17:40Z</time>
      </trkpt>
      <trkpt lat="45.9294" lon="4.72999">
        <ele>171</ele>
        <time>2018-07-19T08:17:41Z</time>
      </trkpt>
      <trkpt lat="45.92944" lon="4.72993">
        <ele>171</ele>
        <time>2018-07-19T08:17:42Z</time>
      </trkpt>
      <trkpt lat="45.92949" lon="4.72987">
        <ele>171</ele>
        <time>2018-07-19T08:17:43Z</time>
      </trkpt>
      <trkpt lat="45.92952" lon="4.72983">
        <ele>171</ele>
        <time>2018-07-19T08:17:44Z</time>
      </trkpt>
      <trkpt lat="45.92955" lon="4.72978">
        <ele>171</ele>
        <time>2018-07-19T08:17:45Z</time>
      </trkpt>
      <trkpt lat="45.92959" lon="4.72969">
        <ele>171</ele>
        <time>2018-07-19T08:17:46Z</time>
      </trkpt>
      <trkpt lat="45.92965" lon="4.72963">
        <ele>171</ele>
        <time>2018-07-19T08:17:47Z</time>
      </trkpt>
      <trkpt lat="45.92969" lon="4.72959">
        <ele>171</ele>
        <time>2018-07-19T08:17:48Z</time>
      </trkpt>
      <trkpt lat="45.92975" lon="4.72952">
        <ele>171</ele>
        <time>2018-07-19T08:17:49Z</time>
      </trkpt>
      <trkpt lat="45.92978" lon="4.72947">
        <ele>171</ele>
        <time>2018-07-19T08:17:50Z</time>
      </trkpt>
      <trkpt lat="45.92983" lon="4.72941">
        <ele>171</ele>
        <time>2018-07-19T08:17:51Z</time>
      </trkpt>
      <trkpt lat="45.92991" lon="4.72933">
        <ele>171</ele>
        <time>2018-07-19T08:17:52Z</time>
      </trkpt>
      <trkpt lat="45.92996" lon="4.72928">
        <ele>171</ele>
        <time>2018-07-19T08:17:53Z</time>
      </trkpt>
      <trkpt lat="45.93" lon="4.7292">
        <ele>171</ele>
        <time>2018-07-19T08:17:54Z</time>
      </trkpt>
      <trkpt lat="45.93004" lon="4.72914">
        <ele>171</ele>
        <time>2018-07-19T08:17:55Z</time>
      </trkpt>
      <trkpt lat="45.93009" lon="4.72909">
        <ele>171</ele>
        <time>2018-07-19T08:17:56Z</time>
      </trkpt>
      <trkpt lat="45.93012" lon="4.72904">
        <ele>172</ele>
        <time>2018-07-19T08:17:57Z</time>
      </trkpt>
      <trkpt lat="45.93019" lon="4.72897">
        <ele>172</ele>
        <time>2018-07-19T08:17:58Z</time>
      </trkpt>
      <trkpt lat="45.93024" lon="4.72892">
        <ele>172</ele>
        <time>2018-07-19T08:17:59Z</time>
      </trkpt>
      <trkpt lat="45.9303" lon="4.72886">
        <ele>172</ele>
        <time>2018-07-19T08:18:00Z</time>
      </trkpt>
      <trkpt lat="45.93035" lon="4.7288">
        <ele>172</ele>
        <time>2018-07-19T08:18:01Z</time>
      </trkpt>
      <trkpt lat="45.9304" lon="4.72875">
        <ele>172</ele>
        <time>2018-07-19T08:18:02Z</time>
      </trkpt>
      <trkpt lat="45.93045" lon="4.7287">
        <ele>172</ele>
        <time>2018-07-19T08:18:03Z</time>
      </trkpt>
      <trkpt lat="45.9305" lon="4.72866">
        <ele>172</ele>
        <time>2018-07-19T08:18:04Z</time>
      </trkpt>
      <trkpt lat="45.93055" lon="4.7286">
        <ele>172</ele>
        <time>2018-07-19T08:18:05Z</time>
      </trkpt>
      <trkpt lat="45.93059" lon="4.72854">
        <ele>172</ele>
        <time>2018-07-19T08:18:06Z</time>
      </trkpt>
      <trkpt lat="45.93064" lon="4.72851">
        <ele>172</ele>
        <time>2018-07-19T08:18:07Z</time>
      </trkpt>
      <trkpt lat="45.93067" lon="4.72846">
        <ele>172</ele>
        <time>2018-07-19T08:18:08Z</time>
      </trkpt>
      <trkpt lat="45.93073" lon="4.72838">
        <ele>173</ele>
        <time>2018-07-19T08:18:10Z</time>
      </trkpt>
      <trkpt lat="45.93077" lon="4.72834">
        <ele>173</ele>
        <time>2018-07-19T08:18:11Z</time>
      </trkpt>
      <trkpt lat="45.9308" lon="4.72829">
        <ele>173</ele>
        <time>2018-07-19T08:18:12Z</time>
      </trkpt>
      <trkpt lat="45.93093" lon="4.7282">
        <ele>172</ele>
        <time>2018-07-19T08:18:15Z</time>
      </trkpt>
      <trkpt lat="45.93099" lon="4.72808">
        <ele>172</ele>
        <time>2018-07-19T08:18:16Z</time>
      </trkpt>
      <trkpt lat="45.93103" lon="4.72804">
        <ele>171</ele>
        <time>2018-07-19T08:18:17Z</time>
      </trkpt>
      <trkpt lat="45.93108" lon="4.728">
        <ele>171</ele>
        <time>2018-07-19T08:18:18Z</time>
      </trkpt>
      <trkpt lat="45.93115" lon="4.72795">
        <ele>171</ele>
        <time>2018-07-19T08:18:19Z</time>
      </trkpt>
      <trkpt lat="45.9312" lon="4.72788">
        <ele>171</ele>
        <time>2018-07-19T08:18:20Z</time>
      </trkpt>
      <trkpt lat="45.93125" lon="4.72783">
        <ele>171</ele>
        <time>2018-07-19T08:18:21Z</time>
      </trkpt>
      <trkpt lat="45.93131" lon="4.72776">
        <ele>171</ele>
        <time>2018-07-19T08:18:22Z</time>
      </trkpt>
      <trkpt lat="45.93136" lon="4.7277">
        <ele>171</ele>
        <time>2018-07-19T08:18:23Z</time>
      </trkpt>
      <trkpt lat="45.93142" lon="4.72763">
        <ele>171</ele>
        <time>2018-07-19T08:18:24Z</time>
      </trkpt>
      <trkpt lat="45.93148" lon="4.72757">
        <ele>170</ele>
        <time>2018-07-19T08:18:25Z</time>
      </trkpt>
      <trkpt lat="45.93151" lon="4.72753">
        <ele>170</ele>
        <time>2018-07-19T08:18:26Z</time>
      </trkpt>
      <trkpt lat="45.93156" lon="4.72748">
        <ele>170</ele>
        <time>2018-07-19T08:18:27Z</time>
      </trkpt>
      <trkpt lat="45.93159" lon="4.72742">
        <ele>170</ele>
        <time>2018-07-19T08:18:28Z</time>
      </trkpt>
      <trkpt lat="45.93164" lon="4.72737">
        <ele>170</ele>
        <time>2018-07-19T08:18:29Z</time>
      </trkpt>
      <trkpt lat="45.93168" lon="4.7273">
        <ele>170</ele>
        <time>2018-07-19T08:18:30Z</time>
      </trkpt>
      <trkpt lat="45.93173" lon="4.72723">
        <ele>170</ele>
        <time>2018-07-19T08:18:31Z</time>
      </trkpt>
      <trkpt lat="45.93177" lon="4.72716">
        <ele>169</ele>
        <time>2018-07-19T08:18:32Z</time>
      </trkpt>
      <trkpt lat="45.93182" lon="4.72711">
        <ele>169</ele>
        <time>2018-07-19T08:18:33Z</time>
      </trkpt>
      <trkpt lat="45.93187" lon="4.72707">
        <ele>169</ele>
        <time>2018-07-19T08:18:34Z</time>
      </trkpt>
      <trkpt lat="45.93192" lon="4.72701">
        <ele>169</ele>
        <time>2018-07-19T08:18:35Z</time>
      </trkpt>
      <trkpt lat="45.93197" lon="4.72694">
        <ele>169</ele>
        <time>2018-07-19T08:18:36Z</time>
      </trkpt>
      <trkpt lat="45.93202" lon="4.72688">
        <ele>169</ele>
        <time>2018-07-19T08:18:37Z</time>
      </trkpt>
      <trkpt lat="45.93205" lon="4.72683">
        <ele>169</ele>
        <time>2018-07-19T08:18:38Z</time>
      </trkpt>
      <trkpt lat="45.93209" lon="4.72678">
        <ele>169</ele>
        <time>2018-07-19T08:18:39Z</time>
      </trkpt>
      <trkpt lat="45.93214" lon="4.72676">
        <ele>169</ele>
        <time>2018-07-19T08:18:40Z</time>
      </trkpt>
      <trkpt lat="45.93218" lon="4.72672">
        <ele>169</ele>
        <time>2018-07-19T08:18:41Z</time>
      </trkpt>
      <trkpt lat="45.93222" lon="4.72666">
        <ele>170</ele>
        <time>2018-07-19T08:18:42Z</time>
      </trkpt>
      <trkpt lat="45.9323" lon="4.72658">
        <ele>169</ele>
        <time>2018-07-19T08:18:43Z</time>
      </trkpt>
      <trkpt lat="45.93235" lon="4.72653">
        <ele>169</ele>
        <time>2018-07-19T08:18:44Z</time>
      </trkpt>
      <trkpt lat="45.93238" lon="4.72648">
        <ele>170</ele>
        <time>2018-07-19T08:18:45Z</time>
      </trkpt>
      <trkpt lat="45.93244" lon="4.72641">
        <ele>170</ele>
        <time>2018-07-19T08:18:46Z</time>
      </trkpt>
      <trkpt lat="45.93249" lon="4.72636">
        <ele>170</ele>
        <time>2018-07-19T08:18:47Z</time>
      </trkpt>
      <trkpt lat="45.93255" lon="4.72629">
        <ele>170</ele>
        <time>2018-07-19T08:18:48Z</time>
      </trkpt>
      <trkpt lat="45.93261" lon="4.72624">
        <ele>170</ele>
        <time>2018-07-19T08:18:49Z</time>
      </trkpt>
      <trkpt lat="45.93264" lon="4.72615">
        <ele>170</ele>
        <time>2018-07-19T08:18:50Z</time>
      </trkpt>
      <trkpt lat="45.9327" lon="4.7261">
        <ele>170</ele>
        <time>2018-07-19T08:18:51Z</time>
      </trkpt>
      <trkpt lat="45.93276" lon="4.72603">
        <ele>170</ele>
        <time>2018-07-19T08:18:52Z</time>
      </trkpt>
      <trkpt lat="45.93281" lon="4.72596">
        <ele>170</ele>
        <time>2018-07-19T08:18:53Z</time>
      </trkpt>
      <trkpt lat="45.93288" lon="4.72591">
        <ele>170</ele>
        <time>2018-07-19T08:18:54Z</time>
      </trkpt>
      <trkpt lat="45.93294" lon="4.72585">
        <ele>170</ele>
        <time>2018-07-19T08:18:55Z</time>
      </trkpt>
      <trkpt lat="45.93298" lon="4.72579">
        <ele>171</ele>
        <time>2018-07-19T08:18:56Z</time>
      </trkpt>
      <trkpt lat="45.93305" lon="4.72571">
        <ele>171</ele>
        <time>2018-07-19T08:18:57Z</time>
      </trkpt>
      <trkpt lat="45.93311" lon="4.72563">
        <ele>171</ele>
        <time>2018-07-19T08:18:58Z</time>
      </trkpt>
      <trkpt lat="45.93315" lon="4.72557">
        <ele>172</ele>
        <time>2018-07-19T08:18:59Z</time>
      </trkpt>
      <trkpt lat="45.9332" lon="4.72551">
        <ele>172</ele>
        <time>2018-07-19T08:19:00Z</time>
      </trkpt>
      <trkpt lat="45.93324" lon="4.72546">
        <ele>172</ele>
        <time>2018-07-19T08:19:01Z</time>
      </trkpt>
      <trkpt lat="45.93329" lon="4.72541">
        <ele>172</ele>
        <time>2018-07-19T08:19:02Z</time>
      </trkpt>
      <trkpt lat="45.93333" lon="4.72536">
        <ele>172</ele>
        <time>2018-07-19T08:19:03Z</time>
      </trkpt>
      <trkpt lat="45.9334" lon="4.7253">
        <ele>172</ele>
        <time>2018-07-19T08:19:05Z</time>
      </trkpt>
      <trkpt lat="45.93345" lon="4.72525">
        <ele>172</ele>
        <time>2018-07-19T08:19:06Z</time>
      </trkpt>
      <trkpt lat="45.93348" lon="4.72518">
        <ele>172</ele>
        <time>2018-07-19T08:19:07Z</time>
      </trkpt>
      <trkpt lat="45.93354" lon="4.72512">
        <ele>172</ele>
        <time>2018-07-19T08:19:08Z</time>
      </trkpt>
      <trkpt lat="45.93358" lon="4.72507">
        <ele>172</ele>
        <time>2018-07-19T08:19:09Z</time>
      </trkpt>
      <trkpt lat="45.93363" lon="4.72502">
        <ele>172</ele>
        <time>2018-07-19T08:19:10Z</time>
      </trkpt>
      <trkpt lat="45.93369" lon="4.72496">
        <ele>173</ele>
        <time>2018-07-19T08:19:11Z</time>
      </trkpt>
      <trkpt lat="45.93374" lon="4.72491">
        <ele>173</ele>
        <time>2018-07-19T08:19:12Z</time>
      </trkpt>
      <trkpt lat="45.93377" lon="4.72487">
        <ele>173</ele>
        <time>2018-07-19T08:19:13Z</time>
      </trkpt>
      <trkpt lat="45.93382" lon="4.72482">
        <ele>173</ele>
        <time>2018-07-19T08:19:14Z</time>
      </trkpt>
      <trkpt lat="45.93385" lon="4.72473">
        <ele>173</ele>
        <time>2018-07-19T08:19:16Z</time>
      </trkpt>
      <trkpt lat="45.93387" lon="4.7247">
        <ele>173</ele>
        <time>2018-07-19T08:19:17Z</time>
      </trkpt>
      <trkpt lat="45.93389" lon="4.72461">
        <ele>173</ele>
        <time>2018-07-19T08:19:20Z</time>
      </trkpt>
      <trkpt lat="45.9339" lon="4.72457">
        <ele>173</ele>
        <time>2018-07-19T08:19:21Z</time>
      </trkpt>
      <trkpt lat="45.93393" lon="4.72446">
        <ele>173</ele>
        <time>2018-07-19T08:19:24Z</time>
      </trkpt>
      <trkpt lat="45.93395" lon="4.72434">
        <ele>173</ele>
        <time>2018-07-19T08:19:25Z</time>
      </trkpt>
      <trkpt lat="45.934" lon="4.72424">
        <ele>173</ele>
        <time>2018-07-19T08:19:27Z</time>
      </trkpt>
      <trkpt lat="45.93403" lon="4.7242">
        <ele>174</ele>
        <time>2018-07-19T08:19:28Z</time>
      </trkpt>
      <trkpt lat="45.9341" lon="4.72411">
        <ele>174</ele>
        <time>2018-07-19T08:19:30Z</time>
      </trkpt>
      <trkpt lat="45.93416" lon="4.72409">
        <ele>174</ele>
        <time>2018-07-19T08:19:31Z</time>
      </trkpt>
      <trkpt lat="45.93421" lon="4.72406">
        <ele>174</ele>
        <time>2018-07-19T08:19:32Z</time>
      </trkpt>
      <trkpt lat="45.93425" lon="4.72403">
        <ele>174</ele>
        <time>2018-07-19T08:19:33Z</time>
      </trkpt>
      <trkpt lat="45.9343" lon="4.72401">
        <ele>174</ele>
        <time>2018-07-19T08:19:34Z</time>
      </trkpt>
      <trkpt lat="45.93435" lon="4.72399">
        <ele>173</ele>
        <time>2018-07-19T08:19:35Z</time>
      </trkpt>
      <trkpt lat="45.93441" lon="4.72396">
        <ele>173</ele>
        <time>2018-07-19T08:19:36Z</time>
      </trkpt>
      <trkpt lat="45.93447" lon="4.72393">
        <ele>173</ele>
        <time>2018-07-19T08:19:37Z</time>
      </trkpt>
      <trkpt lat="45.93453" lon="4.72389">
        <ele>173</ele>
        <time>2018-07-19T08:19:38Z</time>
      </trkpt>
      <trkpt lat="45.93457" lon="4.72382">
        <ele>173</ele>
        <time>2018-07-19T08:19:39Z</time>
      </trkpt>
      <trkpt lat="45.93463" lon="4.72377">
        <ele>173</ele>
        <time>2018-07-19T08:19:40Z</time>
      </trkpt>
      <trkpt lat="45.93467" lon="4.72371">
        <ele>173</ele>
        <time>2018-07-19T08:19:41Z</time>
      </trkpt>
      <trkpt lat="45.93472" lon="4.72366">
        <ele>173</ele>
        <time>2018-07-19T08:19:42Z</time>
      </trkpt>
      <trkpt lat="45.93476" lon="4.72361">
        <ele>173</ele>
        <time>2018-07-19T08:19:43Z</time>
      </trkpt>
      <trkpt lat="45.93482" lon="4.72353">
        <ele>173</ele>
        <time>2018-07-19T08:19:45Z</time>
      </trkpt>
      <trkpt lat="45.93487" lon="4.72346">
        <ele>173</ele>
        <time>2018-07-19T08:19:46Z</time>
      </trkpt>
      <trkpt lat="45.93491" lon="4.72339">
        <ele>173</ele>
        <time>2018-07-19T08:19:47Z</time>
      </trkpt>
      <trkpt lat="45.93497" lon="4.7233">
        <ele>173</ele>
        <time>2018-07-19T08:19:48Z</time>
      </trkpt>
      <trkpt lat="45.93502" lon="4.72324">
        <ele>173</ele>
        <time>2018-07-19T08:19:49Z</time>
      </trkpt>
      <trkpt lat="45.93505" lon="4.7232">
        <ele>173</ele>
        <time>2018-07-19T08:19:50Z</time>
      </trkpt>
      <trkpt lat="45.9351" lon="4.72314">
        <ele>173</ele>
        <time>2018-07-19T08:19:51Z</time>
      </trkpt>
      <trkpt lat="45.93514" lon="4.7231">
        <ele>173</ele>
        <time>2018-07-19T08:19:52Z</time>
      </trkpt>
      <trkpt lat="45.93519" lon="4.72304">
        <ele>173</ele>
        <time>2018-07-19T08:19:53Z</time>
      </trkpt>
      <trkpt lat="45.93522" lon="4.723">
        <ele>172</ele>
        <time>2018-07-19T08:19:54Z</time>
      </trkpt>
      <trkpt lat="45.93523" lon="4.72294">
        <ele>172</ele>
        <time>2018-07-19T08:19:55Z</time>
      </trkpt>
      <trkpt lat="45.93527" lon="4.72284">
        <ele>172</ele>
        <time>2018-07-19T08:19:56Z</time>
      </trkpt>
      <trkpt lat="45.9353" lon="4.72277">
        <ele>172</ele>
        <time>2018-07-19T08:19:57Z</time>
      </trkpt>
      <trkpt lat="45.93532" lon="4.72272">
        <ele>172</ele>
        <time>2018-07-19T08:19:58Z</time>
      </trkpt>
      <trkpt lat="45.93535" lon="4.72266">
        <ele>172</ele>
        <time>2018-07-19T08:19:59Z</time>
      </trkpt>
      <trkpt lat="45.93537" lon="4.72258">
        <ele>172</ele>
        <time>2018-07-19T08:20:00Z</time>
      </trkpt>
      <trkpt lat="45.93541" lon="4.72251">
        <ele>172</ele>
        <time>2018-07-19T08:20:01Z</time>
      </trkpt>
      <trkpt lat="45.93544" lon="4.72244">
        <ele>172</ele>
        <time>2018-07-19T08:20:02Z</time>
      </trkpt>
      <trkpt lat="45.93548" lon="4.72233">
        <ele>172</ele>
        <time>2018-07-19T08:20:04Z</time>
      </trkpt>
      <trkpt lat="45.93552" lon="4.72226">
        <ele>173</ele>
        <time>2018-07-19T08:20:05Z</time>
      </trkpt>
      <trkpt lat="45.93556" lon="4.72218">
        <ele>173</ele>
        <time>2018-07-19T08:20:06Z</time>
      </trkpt>
      <trkpt lat="45.93561" lon="4.72213">
        <ele>173</ele>
        <time>2018-07-19T08:20:07Z</time>
      </trkpt>
      <trkpt lat="45.93566" lon="4.72207">
        <ele>173</ele>
        <time>2018-07-19T08:20:08Z</time>
      </trkpt>
      <trkpt lat="45.93571" lon="4.72201">
        <ele>173</ele>
        <time>2018-07-19T08:20:09Z</time>
      </trkpt>
      <trkpt lat="45.93577" lon="4.72195">
        <ele>173</ele>
        <time>2018-07-19T08:20:10Z</time>
      </trkpt>
      <trkpt lat="45.93583" lon="4.7219">
        <ele>173</ele>
        <time>2018-07-19T08:20:11Z</time>
      </trkpt>
      <trkpt lat="45.93587" lon="4.72186">
        <ele>173</ele>
        <time>2018-07-19T08:20:12Z</time>
      </trkpt>
      <trkpt lat="45.93593" lon="4.72179">
        <ele>173</ele>
        <time>2018-07-19T08:20:13Z</time>
      </trkpt>
      <trkpt lat="45.93596" lon="4.72175">
        <ele>173</ele>
        <time>2018-07-19T08:20:14Z</time>
      </trkpt>
      <trkpt lat="45.93602" lon="4.7217">
        <ele>173</ele>
        <time>2018-07-19T08:20:15Z</time>
      </trkpt>
      <trkpt lat="45.93609" lon="4.72165">
        <ele>173</ele>
        <time>2018-07-19T08:20:16Z</time>
      </trkpt>
      <trkpt lat="45.93615" lon="4.72159">
        <ele>173</ele>
        <time>2018-07-19T08:20:17Z</time>
      </trkpt>
      <trkpt lat="45.9362" lon="4.72154">
        <ele>173</ele>
        <time>2018-07-19T08:20:18Z</time>
      </trkpt>
      <trkpt lat="45.93625" lon="4.72148">
        <ele>173</ele>
        <time>2018-07-19T08:20:19Z</time>
      </trkpt>
      <trkpt lat="45.9363" lon="4.72141">
        <ele>173</ele>
        <time>2018-07-19T08:20:20Z</time>
      </trkpt>
      <trkpt lat="45.93634" lon="4.72136">
        <ele>173</ele>
        <time>2018-07-19T08:20:21Z</time>
      </trkpt>
      <trkpt lat="45.93639" lon="4.72129">
        <ele>173</ele>
        <time>2018-07-19T08:20:22Z</time>
      </trkpt>
      <trkpt lat="45.93642" lon="4.72122">
        <ele>173</ele>
        <time>2018-07-19T08:20:23Z</time>
      </trkpt>
      <trkpt lat="45.93647" lon="4.72115">
        <ele>173</ele>
        <time>2018-07-19T08:20:24Z</time>
      </trkpt>
      <trkpt lat="45.93653" lon="4.7211">
        <ele>173</ele>
        <time>2018-07-19T08:20:25Z</time>
      </trkpt>
      <trkpt lat="45.93656" lon="4.72103">
        <ele>173</ele>
        <time>2018-07-19T08:20:26Z</time>
      </trkpt>
      <trkpt lat="45.9366" lon="4.72095">
        <ele>173</ele>
        <time>2018-07-19T08:20:27Z</time>
      </trkpt>
      <trkpt lat="45.93666" lon="4.72088">
        <ele>172</ele>
        <time>2018-07-19T08:20:28Z</time>
      </trkpt>
      <trkpt lat="45.9367" lon="4.72081">
        <ele>172</ele>
        <time>2018-07-19T08:20:29Z</time>
      </trkpt>
      <trkpt lat="45.93672" lon="4.72076">
        <ele>172</ele>
        <time>2018-07-19T08:20:30Z</time>
      </trkpt>
      <trkpt lat="45.93676" lon="4.72069">
        <ele>172</ele>
        <time>2018-07-19T08:20:31Z</time>
      </trkpt>
      <trkpt lat="45.93681" lon="4.72061">
        <ele>172</ele>
        <time>2018-07-19T08:20:32Z</time>
      </trkpt>
      <trkpt lat="45.9369" lon="4.72049">
        <ele>172</ele>
        <time>2018-07-19T08:20:33Z</time>
      </trkpt>
      <trkpt lat="45.93693" lon="4.72041">
        <ele>172</ele>
        <time>2018-07-19T08:20:34Z</time>
      </trkpt>
      <trkpt lat="45.93695" lon="4.72036">
        <ele>172</ele>
        <time>2018-07-19T08:20:35Z</time>
      </trkpt>
      <trkpt lat="45.93698" lon="4.7203">
        <ele>172</ele>
        <time>2018-07-19T08:20:36Z</time>
      </trkpt>
      <trkpt lat="45.93701" lon="4.72025">
        <ele>172</ele>
        <time>2018-07-19T08:20:37Z</time>
      </trkpt>
      <trkpt lat="45.93703" lon="4.72016">
        <ele>172</ele>
        <time>2018-07-19T08:20:39Z</time>
      </trkpt>
      <trkpt lat="45.93708" lon="4.72011">
        <ele>172</ele>
        <time>2018-07-19T08:20:40Z</time>
      </trkpt>
      <trkpt lat="45.93712" lon="4.72006">
        <ele>172</ele>
        <time>2018-07-19T08:20:41Z</time>
      </trkpt>
      <trkpt lat="45.93716" lon="4.71999">
        <ele>172</ele>
        <time>2018-07-19T08:20:42Z</time>
      </trkpt>
      <trkpt lat="45.93721" lon="4.71994">
        <ele>172</ele>
        <time>2018-07-19T08:20:43Z</time>
      </trkpt>
      <trkpt lat="45.93725" lon="4.71986">
        <ele>172</ele>
        <time>2018-07-19T08:20:44Z</time>
      </trkpt>
      <trkpt lat="45.9373" lon="4.7198">
        <ele>172</ele>
        <time>2018-07-19T08:20:45Z</time>
      </trkpt>
      <trkpt lat="45.93734" lon="4.71972">
        <ele>172</ele>
        <time>2018-07-19T08:20:46Z</time>
      </trkpt>
      <trkpt lat="45.9374" lon="4.71964">
        <ele>172</ele>
        <time>2018-07-19T08:20:47Z</time>
      </trkpt>
      <trkpt lat="45.93745" lon="4.7196">
        <ele>172</ele>
        <time>2018-07-19T08:20:48Z</time>
      </trkpt>
      <trkpt lat="45.93751" lon="4.71958">
        <ele>171</ele>
        <time>2018-07-19T08:20:49Z</time>
      </trkpt>
      <trkpt lat="45.93756" lon="4.71952">
        <ele>171</ele>
        <time>2018-07-19T08:20:50Z</time>
      </trkpt>
      <trkpt lat="45.9376" lon="4.71947">
        <ele>171</ele>
        <time>2018-07-19T08:20:51Z</time>
      </trkpt>
      <trkpt lat="45.93763" lon="4.71941">
        <ele>171</ele>
        <time>2018-07-19T08:20:52Z</time>
      </trkpt>
      <trkpt lat="45.93769" lon="4.71934">
        <ele>171</ele>
        <time>2018-07-19T08:20:53Z</time>
      </trkpt>
      <trkpt lat="45.93772" lon="4.71927">
        <ele>171</ele>
        <time>2018-07-19T08:20:54Z</time>
      </trkpt>
      <trkpt lat="45.93776" lon="4.7192">
        <ele>171</ele>
        <time>2018-07-19T08:20:55Z</time>
      </trkpt>
      <trkpt lat="45.93777" lon="4.71912">
        <ele>172</ele>
        <time>2018-07-19T08:20:56Z</time>
      </trkpt>
      <trkpt lat="45.9378" lon="4.71905">
        <ele>172</ele>
        <time>2018-07-19T08:20:57Z</time>
      </trkpt>
      <trkpt lat="45.93781" lon="4.71899">
        <ele>172</ele>
        <time>2018-07-19T08:20:58Z</time>
      </trkpt>
      <trkpt lat="45.93784" lon="4.7189">
        <ele>172</ele>
        <time>2018-07-19T08:20:59Z</time>
      </trkpt>
      <trkpt lat="45.93785" lon="4.71882">
        <ele>172</ele>
        <time>2018-07-19T08:21:00Z</time>
      </trkpt>
      <trkpt lat="45.93788" lon="4.71876">
        <ele>172</ele>
        <time>2018-07-19T08:21:01Z</time>
      </trkpt>
      <trkpt lat="45.9379" lon="4.71867">
        <ele>172</ele>
        <time>2018-07-19T08:21:02Z</time>
      </trkpt>
      <trkpt lat="45.93795" lon="4.71862">
        <ele>172</ele>
        <time>2018-07-19T08:21:03Z</time>
      </trkpt>
      <trkpt lat="45.938" lon="4.71855">
        <ele>172</ele>
        <time>2018-07-19T08:21:04Z</time>
      </trkpt>
      <trkpt lat="45.93804" lon="4.71849">
        <ele>172</ele>
        <time>2018-07-19T08:21:05Z</time>
      </trkpt>
      <trkpt lat="45.93807" lon="4.7184">
        <ele>172</ele>
        <time>2018-07-19T08:21:06Z</time>
      </trkpt>
      <trkpt lat="45.93811" lon="4.71834">
        <ele>172</ele>
        <time>2018-07-19T08:21:07Z</time>
      </trkpt>
      <trkpt lat="45.93818" lon="4.71827">
        <ele>173</ele>
        <time>2018-07-19T08:21:08Z</time>
      </trkpt>
      <trkpt lat="45.93822" lon="4.71819">
        <ele>173</ele>
        <time>2018-07-19T08:21:09Z</time>
      </trkpt>
      <trkpt lat="45.93826" lon="4.71812">
        <ele>173</ele>
        <time>2018-07-19T08:21:10Z</time>
      </trkpt>
      <trkpt lat="45.93831" lon="4.71805">
        <ele>173</ele>
        <time>2018-07-19T08:21:11Z</time>
      </trkpt>
      <trkpt lat="45.93835" lon="4.71799">
        <ele>173</ele>
        <time>2018-07-19T08:21:12Z</time>
      </trkpt>
      <trkpt lat="45.93838" lon="4.71787">
        <ele>173</ele>
        <time>2018-07-19T08:21:14Z</time>
      </trkpt>
      <trkpt lat="45.9384" lon="4.71781">
        <ele>173</ele>
        <time>2018-07-19T08:21:15Z</time>
      </trkpt>
      <trkpt lat="45.93845" lon="4.71776">
        <ele>173</ele>
        <time>2018-07-19T08:21:16Z</time>
      </trkpt>
      <trkpt lat="45.93849" lon="4.71771">
        <ele>173</ele>
        <time>2018-07-19T08:21:17Z</time>
      </trkpt>
      <trkpt lat="45.93852" lon="4.71763">
        <ele>173</ele>
        <time>2018-07-19T08:21:18Z</time>
      </trkpt>
      <trkpt lat="45.93857" lon="4.71755">
        <ele>173</ele>
        <time>2018-07-19T08:21:19Z</time>
      </trkpt>
      <trkpt lat="45.9386" lon="4.71751">
        <ele>173</ele>
        <time>2018-07-19T08:21:20Z</time>
      </trkpt>
      <trkpt lat="45.93865" lon="4.71746">
        <ele>174</ele>
        <time>2018-07-19T08:21:21Z</time>
      </trkpt>
      <trkpt lat="45.93869" lon="4.71741">
        <ele>174</ele>
        <time>2018-07-19T08:21:22Z</time>
      </trkpt>
      <trkpt lat="45.93875" lon="4.71735">
        <ele>174</ele>
        <time>2018-07-19T08:21:23Z</time>
      </trkpt>
      <trkpt lat="45.93879" lon="4.7173">
        <ele>174</ele>
        <time>2018-07-19T08:21:24Z</time>
      </trkpt>
      <trkpt lat="45.93884" lon="4.71724">
        <ele>174</ele>
        <time>2018-07-19T08:21:25Z</time>
      </trkpt>
      <trkpt lat="45.93889" lon="4.7172">
        <ele>174</ele>
        <time>2018-07-19T08:21:26Z</time>
      </trkpt>
      <trkpt lat="45.93893" lon="4.71714">
        <ele>174</ele>
        <time>2018-07-19T08:21:27Z</time>
      </trkpt>
      <trkpt lat="45.93896" lon="4.71709">
        <ele>174</ele>
        <time>2018-07-19T08:21:28Z</time>
      </trkpt>
      <trkpt lat="45.93901" lon="4.71706">
        <ele>174</ele>
        <time>2018-07-19T08:21:29Z</time>
      </trkpt>
      <trkpt lat="45.93906" lon="4.71702">
        <ele>174</ele>
        <time>2018-07-19T08:21:30Z</time>
      </trkpt>
      <trkpt lat="45.93911" lon="4.71698">
        <ele>174</ele>
        <time>2018-07-19T08:21:31Z</time>
      </trkpt>
      <trkpt lat="45.93916" lon="4.71697">
        <ele>174</ele>
        <time>2018-07-19T08:21:32Z</time>
      </trkpt>
      <trkpt lat="45.93922" lon="4.71695">
        <ele>174</ele>
        <time>2018-07-19T08:21:33Z</time>
      </trkpt>
      <trkpt lat="45.93928" lon="4.71695">
        <ele>174</ele>
        <time>2018-07-19T08:21:34Z</time>
      </trkpt>
      <trkpt lat="45.93933" lon="4.71691">
        <ele>175</ele>
        <time>2018-07-19T08:21:35Z</time>
      </trkpt>
      <trkpt lat="45.93938" lon="4.7169">
        <ele>175</ele>
        <time>2018-07-19T08:21:36Z</time>
      </trkpt>
      <trkpt lat="45.93944" lon="4.71689">
        <ele>175</ele>
        <time>2018-07-19T08:21:37Z</time>
      </trkpt>
      <trkpt lat="45.93948" lon="4.71686">
        <ele>175</ele>
        <time>2018-07-19T08:21:38Z</time>
      </trkpt>
      <trkpt lat="45.93954" lon="4.71682">
        <ele>175</ele>
        <time>2018-07-19T08:21:39Z</time>
      </trkpt>
      <trkpt lat="45.93959" lon="4.71679">
        <ele>175</ele>
        <time>2018-07-19T08:21:40Z</time>
      </trkpt>
      <trkpt lat="45.93965" lon="4.71676">
        <ele>175</ele>
        <time>2018-07-19T08:21:41Z</time>
      </trkpt>
      <trkpt lat="45.93971" lon="4.71673">
        <ele>175</ele>
        <time>2018-07-19T08:21:42Z</time>
      </trkpt>
      <trkpt lat="45.93978" lon="4.71671">
        <ele>176</ele>
        <time>2018-07-19T08:21:43Z</time>
      </trkpt>
      <trkpt lat="45.93983" lon="4.71672">
        <ele>176</ele>
        <time>2018-07-19T08:21:44Z</time>
      </trkpt>
      <trkpt lat="45.93989" lon="4.71674">
        <ele>176</ele>
        <time>2018-07-19T08:21:45Z</time>
      </trkpt>
      <trkpt lat="45.93994" lon="4.71677">
        <ele>176</ele>
        <time>2018-07-19T08:21:46Z</time>
      </trkpt>
      <trkpt lat="45.93998" lon="4.71683">
        <ele>176</ele>
        <time>2018-07-19T08:21:47Z</time>
      </trkpt>
      <trkpt lat="45.94004" lon="4.71685">
        <ele>176</ele>
        <time>2018-07-19T08:21:48Z</time>
      </trkpt>
      <trkpt lat="45.94009" lon="4.71684">
        <ele>175</ele>
        <time>2018-07-19T08:21:49Z</time>
      </trkpt>
      <trkpt lat="45.94014" lon="4.7168">
        <ele>175</ele>
        <time>2018-07-19T08:21:50Z</time>
      </trkpt>
      <trkpt lat="45.94017" lon="4.71672">
        <ele>176</ele>
        <time>2018-07-19T08:21:51Z</time>
      </trkpt>
      <trkpt lat="45.94021" lon="4.71662">
        <ele>176</ele>
        <time>2018-07-19T08:21:53Z</time>
      </trkpt>
      <trkpt lat="45.94025" lon="4.71657">
        <ele>175</ele>
        <time>2018-07-19T08:21:54Z</time>
      </trkpt>
      <trkpt lat="45.9403" lon="4.71654">
        <ele>175</ele>
        <time>2018-07-19T08:21:55Z</time>
      </trkpt>
      <trkpt lat="45.94035" lon="4.71652">
        <ele>175</ele>
        <time>2018-07-19T08:21:56Z</time>
      </trkpt>
      <trkpt lat="45.94039" lon="4.71649">
        <ele>175</ele>
        <time>2018-07-19T08:21:57Z</time>
      </trkpt>
      <trkpt lat="45.94045" lon="4.71646">
        <ele>175</ele>
        <time>2018-07-19T08:21:58Z</time>
      </trkpt>
      <trkpt lat="45.94049" lon="4.71642">
        <ele>175</ele>
        <time>2018-07-19T08:21:59Z</time>
      </trkpt>
      <trkpt lat="45.94054" lon="4.7164">
        <ele>174</ele>
        <time>2018-07-19T08:22:00Z</time>
      </trkpt>
      <trkpt lat="45.94061" lon="4.71637">
        <ele>174</ele>
        <time>2018-07-19T08:22:01Z</time>
      </trkpt>
      <trkpt lat="45.94067" lon="4.71635">
        <ele>174</ele>
        <time>2018-07-19T08:22:02Z</time>
      </trkpt>
      <trkpt lat="45.94073" lon="4.71635">
        <ele>174</ele>
        <time>2018-07-19T08:22:03Z</time>
      </trkpt>
      <trkpt lat="45.94079" lon="4.71633">
        <ele>174</ele>
        <time>2018-07-19T08:22:04Z</time>
      </trkpt>
      <trkpt lat="45.94085" lon="4.71631">
        <ele>173</ele>
        <time>2018-07-19T08:22:05Z</time>
      </trkpt>
      <trkpt lat="45.94091" lon="4.71628">
        <ele>173</ele>
        <time>2018-07-19T08:22:06Z</time>
      </trkpt>
      <trkpt lat="45.94097" lon="4.71626">
        <ele>173</ele>
        <time>2018-07-19T08:22:07Z</time>
      </trkpt>
      <trkpt lat="45.94103" lon="4.71625">
        <ele>173</ele>
        <time>2018-07-19T08:22:08Z</time>
      </trkpt>
      <trkpt lat="45.94108" lon="4.71625">
        <ele>173</ele>
        <time>2018-07-19T08:22:09Z</time>
      </trkpt>
      <trkpt lat="45.94112" lon="4.71621">
        <ele>173</ele>
        <time>2018-07-19T08:22:10Z</time>
      </trkpt>
      <trkpt lat="45.94118" lon="4.7162">
        <ele>173</ele>
        <time>2018-07-19T08:22:11Z</time>
      </trkpt>
      <trkpt lat="45.94123" lon="4.71617">
        <ele>173</ele>
        <time>2018-07-19T08:22:12Z</time>
      </trkpt>
      <trkpt lat="45.94127" lon="4.71615">
        <ele>173</ele>
        <time>2018-07-19T08:22:13Z</time>
      </trkpt>
      <trkpt lat="45.94132" lon="4.71612">
        <ele>173</ele>
        <time>2018-07-19T08:22:14Z</time>
      </trkpt>
      <trkpt lat="45.94136" lon="4.7161">
        <ele>173</ele>
        <time>2018-07-19T08:22:15Z</time>
      </trkpt>
      <trkpt lat="45.94143" lon="4.71608">
        <ele>173</ele>
        <time>2018-07-19T08:22:16Z</time>
      </trkpt>
      <trkpt lat="45.94148" lon="4.71606">
        <ele>173</ele>
        <time>2018-07-19T08:22:17Z</time>
      </trkpt>
      <trkpt lat="45.94153" lon="4.71605">
        <ele>173</ele>
        <time>2018-07-19T08:22:18Z</time>
      </trkpt>
      <trkpt lat="45.94158" lon="4.71603">
        <ele>173</ele>
        <time>2018-07-19T08:22:19Z</time>
      </trkpt>
      <trkpt lat="45.94165" lon="4.716">
        <ele>173</ele>
        <time>2018-07-19T08:22:20Z</time>
      </trkpt>
      <trkpt lat="45.94171" lon="4.71598">
        <ele>173</ele>
        <time>2018-07-19T08:22:21Z</time>
      </trkpt>
      <trkpt lat="45.94177" lon="4.71594">
        <ele>173</ele>
        <time>2018-07-19T08:22:22Z</time>
      </trkpt>
      <trkpt lat="45.94184" lon="4.71592">
        <ele>173</ele>
        <time>2018-07-19T08:22:23Z</time>
      </trkpt>
      <trkpt lat="45.94189" lon="4.71589">
        <ele>173</ele>
        <time>2018-07-19T08:22:24Z</time>
      </trkpt>
      <trkpt lat="45.94195" lon="4.71587">
        <ele>173</ele>
        <time>2018-07-19T08:22:25Z</time>
      </trkpt>
      <trkpt lat="45.94201" lon="4.71585">
        <ele>173</ele>
        <time>2018-07-19T08:22:26Z</time>
      </trkpt>
      <trkpt lat="45.94207" lon="4.71583">
        <ele>174</ele>
        <time>2018-07-19T08:22:27Z</time>
      </trkpt>
      <trkpt lat="45.94213" lon="4.7158">
        <ele>174</ele>
        <time>2018-07-19T08:22:28Z</time>
      </trkpt>
      <trkpt lat="45.94218" lon="4.71578">
        <ele>174</ele>
        <time>2018-07-19T08:22:29Z</time>
      </trkpt>
      <trkpt lat="45.94223" lon="4.71576">
        <ele>174</ele>
        <time>2018-07-19T08:22:30Z</time>
      </trkpt>
      <trkpt lat="45.94229" lon="4.71574">
        <ele>174</ele>
        <time>2018-07-19T08:22:31Z</time>
      </trkpt>
      <trkpt lat="45.94235" lon="4.71571">
        <ele>174</ele>
        <time>2018-07-19T08:22:32Z</time>
      </trkpt>
      <trkpt lat="45.94239" lon="4.71569">
        <ele>174</ele>
        <time>2018-07-19T08:22:33Z</time>
      </trkpt>
      <trkpt lat="45.94243" lon="4.71567">
        <ele>174</ele>
        <time>2018-07-19T08:22:34Z</time>
      </trkpt>
      <trkpt lat="45.94249" lon="4.71565">
        <ele>174</ele>
        <time>2018-07-19T08:22:35Z</time>
      </trkpt>
      <trkpt lat="45.94255" lon="4.71562">
        <ele>175</ele>
        <time>2018-07-19T08:22:36Z</time>
      </trkpt>
      <trkpt lat="45.9426" lon="4.71561">
        <ele>175</ele>
        <time>2018-07-19T08:22:37Z</time>
      </trkpt>
      <trkpt lat="45.94266" lon="4.71559">
        <ele>175</ele>
        <time>2018-07-19T08:22:38Z</time>
      </trkpt>
      <trkpt lat="45.94271" lon="4.71557">
        <ele>175</ele>
        <time>2018-07-19T08:22:39Z</time>
      </trkpt>
      <trkpt lat="45.94276" lon="4.71556">
        <ele>175</ele>
        <time>2018-07-19T08:22:40Z</time>
      </trkpt>
      <trkpt lat="45.94282" lon="4.71553">
        <ele>175</ele>
        <time>2018-07-19T08:22:41Z</time>
      </trkpt>
      <trkpt lat="45.94288" lon="4.7155">
        <ele>175</ele>
        <time>2018-07-19T08:22:42Z</time>
      </trkpt>
      <trkpt lat="45.94294" lon="4.71549">
        <ele>175</ele>
        <time>2018-07-19T08:22:43Z</time>
      </trkpt>
      <trkpt lat="45.943" lon="4.71546">
        <ele>175</ele>
        <time>2018-07-19T08:22:44Z</time>
      </trkpt>
      <trkpt lat="45.94306" lon="4.71543">
        <ele>175</ele>
        <time>2018-07-19T08:22:45Z</time>
      </trkpt>
      <trkpt lat="45.94313" lon="4.71541">
        <ele>175</ele>
        <time>2018-07-19T08:22:46Z</time>
      </trkpt>
      <trkpt lat="45.94318" lon="4.7154">
        <ele>175</ele>
        <time>2018-07-19T08:22:47Z</time>
      </trkpt>
      <trkpt lat="45.94324" lon="4.71537">
        <ele>176</ele>
        <time>2018-07-19T08:22:48Z</time>
      </trkpt>
      <trkpt lat="45.9433" lon="4.71535">
        <ele>176</ele>
        <time>2018-07-19T08:22:49Z</time>
      </trkpt>
      <trkpt lat="45.94336" lon="4.71532">
        <ele>176</ele>
        <time>2018-07-19T08:22:50Z</time>
      </trkpt>
      <trkpt lat="45.94342" lon="4.7153">
        <ele>176</ele>
        <time>2018-07-19T08:22:51Z</time>
      </trkpt>
      <trkpt lat="45.94346" lon="4.71529">
        <ele>176</ele>
        <time>2018-07-19T08:22:52Z</time>
      </trkpt>
      <trkpt lat="45.94353" lon="4.71526">
        <ele>176</ele>
        <time>2018-07-19T08:22:53Z</time>
      </trkpt>
      <trkpt lat="45.94356" lon="4.71527">
        <ele>176</ele>
        <time>2018-07-19T08:22:54Z</time>
      </trkpt>
      <trkpt lat="45.94361" lon="4.71523">
        <ele>176</ele>
        <time>2018-07-19T08:22:55Z</time>
      </trkpt>
      <trkpt lat="45.94365" lon="4.71519">
        <ele>176</ele>
        <time>2018-07-19T08:22:56Z</time>
      </trkpt>
      <trkpt lat="45.9437" lon="4.71517">
        <ele>176</ele>
        <time>2018-07-19T08:22:57Z</time>
      </trkpt>
      <trkpt lat="45.94376" lon="4.71516">
        <ele>176</ele>
        <time>2018-07-19T08:22:58Z</time>
      </trkpt>
      <trkpt lat="45.94384" lon="4.71513">
        <ele>177</ele>
        <time>2018-07-19T08:22:59Z</time>
      </trkpt>
      <trkpt lat="45.94389" lon="4.71512">
        <ele>177</ele>
        <time>2018-07-19T08:23:00Z</time>
      </trkpt>
      <trkpt lat="45.94394" lon="4.71511">
        <ele>177</ele>
        <time>2018-07-19T08:23:01Z</time>
      </trkpt>
      <trkpt lat="45.94399" lon="4.7151">
        <ele>177</ele>
        <time>2018-07-19T08:23:02Z</time>
      </trkpt>
      <trkpt lat="45.94407" lon="4.71506">
        <ele>177</ele>
        <time>2018-07-19T08:23:04Z</time>
      </trkpt>
      <trkpt lat="45.94412" lon="4.71504">
        <ele>178</ele>
        <time>2018-07-19T08:23:05Z</time>
      </trkpt>
      <trkpt lat="45.9442" lon="4.715">
        <ele>178</ele>
        <time>2018-07-19T08:23:07Z</time>
      </trkpt>
      <trkpt lat="45.94424" lon="4.71498">
        <ele>178</ele>
        <time>2018-07-19T08:23:08Z</time>
      </trkpt>
      <trkpt lat="45.9443" lon="4.71496">
        <ele>178</ele>
        <time>2018-07-19T08:23:09Z</time>
      </trkpt>
      <trkpt lat="45.94436" lon="4.71492">
        <ele>178</ele>
        <time>2018-07-19T08:23:10Z</time>
      </trkpt>
      <trkpt lat="45.94443" lon="4.71488">
        <ele>179</ele>
        <time>2018-07-19T08:23:11Z</time>
      </trkpt>
      <trkpt lat="45.94448" lon="4.71487">
        <ele>179</ele>
        <time>2018-07-19T08:23:12Z</time>
      </trkpt>
      <trkpt lat="45.94452" lon="4.71483">
        <ele>179</ele>
        <time>2018-07-19T08:23:13Z</time>
      </trkpt>
      <trkpt lat="45.94457" lon="4.71483">
        <ele>179</ele>
        <time>2018-07-19T08:23:14Z</time>
      </trkpt>
      <trkpt lat="45.94466" lon="4.71479">
        <ele>179</ele>
        <time>2018-07-19T08:23:16Z</time>
      </trkpt>
      <trkpt lat="45.94471" lon="4.71477">
        <ele>179</ele>
        <time>2018-07-19T08:23:17Z</time>
      </trkpt>
      <trkpt lat="45.94474" lon="4.71475">
        <ele>179</ele>
        <time>2018-07-19T08:23:18Z</time>
      </trkpt>
      <trkpt lat="45.9448" lon="4.71473">
        <ele>179</ele>
        <time>2018-07-19T08:23:19Z</time>
      </trkpt>
      <trkpt lat="45.94485" lon="4.71471">
        <ele>179</ele>
        <time>2018-07-19T08:23:20Z</time>
      </trkpt>
      <trkpt lat="45.94489" lon="4.71469">
        <ele>179</ele>
        <time>2018-07-19T08:23:21Z</time>
      </trkpt>
      <trkpt lat="45.94494" lon="4.71468">
        <ele>179</ele>
        <time>2018-07-19T08:23:22Z</time>
      </trkpt>
      <trkpt lat="45.94499" lon="4.71466">
        <ele>179</ele>
        <time>2018-07-19T08:23:23Z</time>
      </trkpt>
      <trkpt lat="45.94508" lon="4.71462">
        <ele>180</ele>
        <time>2018-07-19T08:23:25Z</time>
      </trkpt>
      <trkpt lat="45.94511" lon="4.71462">
        <ele>180</ele>
        <time>2018-07-19T08:23:26Z</time>
      </trkpt>
      <trkpt lat="45.94519" lon="4.71458">
        <ele>180</ele>
        <time>2018-07-19T08:23:28Z</time>
      </trkpt>
      <trkpt lat="45.94522" lon="4.71456">
        <ele>180</ele>
        <time>2018-07-19T08:23:29Z</time>
      </trkpt>
      <trkpt lat="45.94531" lon="4.71452">
        <ele>180</ele>
        <time>2018-07-19T08:23:31Z</time>
      </trkpt>
      <trkpt lat="45.94535" lon="4.71452">
        <ele>180</ele>
        <time>2018-07-19T08:23:32Z</time>
      </trkpt>
      <trkpt lat="45.94541" lon="4.71451">
        <ele>180</ele>
        <time>2018-07-19T08:23:33Z</time>
      </trkpt>
      <trkpt lat="45.94545" lon="4.7145">
        <ele>180</ele>
        <time>2018-07-19T08:23:34Z</time>
      </trkpt>
      <trkpt lat="45.9455" lon="4.7145">
        <ele>180</ele>
        <time>2018-07-19T08:23:35Z</time>
      </trkpt>
      <trkpt lat="45.94555" lon="4.7145">
        <ele>181</ele>
        <time>2018-07-19T08:23:36Z</time>
      </trkpt>
      <trkpt lat="45.94561" lon="4.71448">
        <ele>181</ele>
        <time>2018-07-19T08:23:37Z</time>
      </trkpt>
      <trkpt lat="45.94566" lon="4.71446">
        <ele>181</ele>
        <time>2018-07-19T08:23:38Z</time>
      </trkpt>
      <trkpt lat="45.94571" lon="4.71446">
        <ele>181</ele>
        <time>2018-07-19T08:23:39Z</time>
      </trkpt>
      <trkpt lat="45.94576" lon="4.71445">
        <ele>181</ele>
        <time>2018-07-19T08:23:40Z</time>
      </trkpt>
      <trkpt lat="45.94581" lon="4.71446">
        <ele>181</ele>
        <time>2018-07-19T08:23:41Z</time>
      </trkpt>
      <trkpt lat="45.94586" lon="4.71447">
        <ele>181</ele>
        <time>2018-07-19T08:23:42Z</time>
      </trkpt>
      <trkpt lat="45.94591" lon="4.71446">
        <ele>181</ele>
        <time>2018-07-19T08:23:43Z</time>
      </trkpt>
      <trkpt lat="45.94595" lon="4.71447">
        <ele>181</ele>
        <time>2018-07-19T08:23:44Z</time>
      </trkpt>
      <trkpt lat="45.946" lon="4.71447">
        <ele>181</ele>
        <time>2018-07-19T08:23:45Z</time>
      </trkpt>
      <trkpt lat="45.94605" lon="4.71447">
        <ele>181</ele>
        <time>2018-07-19T08:23:46Z</time>
      </trkpt>
      <trkpt lat="45.9461" lon="4.71449">
        <ele>181</ele>
        <time>2018-07-19T08:23:47Z</time>
      </trkpt>
      <trkpt lat="45.94614" lon="4.7145">
        <ele>181</ele>
        <time>2018-07-19T08:23:48Z</time>
      </trkpt>
      <trkpt lat="45.94619" lon="4.71449">
        <ele>181</ele>
        <time>2018-07-19T08:23:49Z</time>
      </trkpt>
      <trkpt lat="45.94624" lon="4.7145">
        <ele>181</ele>
        <time>2018-07-19T08:23:50Z</time>
      </trkpt>
      <trkpt lat="45.94629" lon="4.71449">
        <ele>181</ele>
        <time>2018-07-19T08:23:51Z</time>
      </trkpt>
      <trkpt lat="45.94635" lon="4.71449">
        <ele>181</ele>
        <time>2018-07-19T08:23:52Z</time>
      </trkpt>
      <trkpt lat="45.9464" lon="4.71449">
        <ele>181</ele>
        <time>2018-07-19T08:23:53Z</time>
      </trkpt>
      <trkpt lat="45.94645" lon="4.71448">
        <ele>181</ele>
        <time>2018-07-19T08:23:54Z</time>
      </trkpt>
      <trkpt lat="45.9465" lon="4.71449">
        <ele>181</ele>
        <time>2018-07-19T08:23:55Z</time>
      </trkpt>
      <trkpt lat="45.94655" lon="4.71451">
        <ele>181</ele>
        <time>2018-07-19T08:23:56Z</time>
      </trkpt>
      <trkpt lat="45.94661" lon="4.71451">
        <ele>181</ele>
        <time>2018-07-19T08:23:57Z</time>
      </trkpt>
      <trkpt lat="45.94666" lon="4.71452">
        <ele>181</ele>
        <time>2018-07-19T08:23:58Z</time>
      </trkpt>
      <trkpt lat="45.94673" lon="4.71452">
        <ele>182</ele>
        <time>2018-07-19T08:23:59Z</time>
      </trkpt>
      <trkpt lat="45.94679" lon="4.71452">
        <ele>182</ele>
        <time>2018-07-19T08:24:00Z</time>
      </trkpt>
      <trkpt lat="45.94684" lon="4.71452">
        <ele>182</ele>
        <time>2018-07-19T08:24:01Z</time>
      </trkpt>
      <trkpt lat="45.9469" lon="4.71453">
        <ele>182</ele>
        <time>2018-07-19T08:24:02Z</time>
      </trkpt>
      <trkpt lat="45.94696" lon="4.71455">
        <ele>182</ele>
        <time>2018-07-19T08:24:03Z</time>
      </trkpt>
      <trkpt lat="45.94701" lon="4.71455">
        <ele>182</ele>
        <time>2018-07-19T08:24:04Z</time>
      </trkpt>
      <trkpt lat="45.94706" lon="4.71455">
        <ele>182</ele>
        <time>2018-07-19T08:24:05Z</time>
      </trkpt>
      <trkpt lat="45.94711" lon="4.71456">
        <ele>182</ele>
        <time>2018-07-19T08:24:06Z</time>
      </trkpt>
      <trkpt lat="45.94717" lon="4.71455">
        <ele>182</ele>
        <time>2018-07-19T08:24:07Z</time>
      </trkpt>
      <trkpt lat="45.94722" lon="4.71457">
        <ele>182</ele>
        <time>2018-07-19T08:24:08Z</time>
      </trkpt>
      <trkpt lat="45.94728" lon="4.71458">
        <ele>182</ele>
        <time>2018-07-19T08:24:09Z</time>
      </trkpt>
      <trkpt lat="45.94733" lon="4.71458">
        <ele>182</ele>
        <time>2018-07-19T08:24:10Z</time>
      </trkpt>
      <trkpt lat="45.94738" lon="4.7146">
        <ele>182</ele>
        <time>2018-07-19T08:24:11Z</time>
      </trkpt>
      <trkpt lat="45.94743" lon="4.71461">
        <ele>182</ele>
        <time>2018-07-19T08:24:12Z</time>
      </trkpt>
      <trkpt lat="45.94748" lon="4.71462">
        <ele>182</ele>
        <time>2018-07-19T08:24:13Z</time>
      </trkpt>
      <trkpt lat="45.94753" lon="4.71461">
        <ele>183</ele>
        <time>2018-07-19T08:24:14Z</time>
      </trkpt>
      <trkpt lat="45.9476" lon="4.7146">
        <ele>183</ele>
        <time>2018-07-19T08:24:15Z</time>
      </trkpt>
      <trkpt lat="45.94766" lon="4.71461">
        <ele>183</ele>
        <time>2018-07-19T08:24:16Z</time>
      </trkpt>
      <trkpt lat="45.94772" lon="4.71461">
        <ele>183</ele>
        <time>2018-07-19T08:24:17Z</time>
      </trkpt>
      <trkpt lat="45.94777" lon="4.7146">
        <ele>183</ele>
        <time>2018-07-19T08:24:18Z</time>
      </trkpt>
      <trkpt lat="45.94782" lon="4.71462">
        <ele>183</ele>
        <time>2018-07-19T08:24:19Z</time>
      </trkpt>
      <trkpt lat="45.94786" lon="4.71463">
        <ele>183</ele>
        <time>2018-07-19T08:24:20Z</time>
      </trkpt>
      <trkpt lat="45.94792" lon="4.71463">
        <ele>183</ele>
        <time>2018-07-19T08:24:21Z</time>
      </trkpt>
      <trkpt lat="45.94797" lon="4.71466">
        <ele>183</ele>
        <time>2018-07-19T08:24:22Z</time>
      </trkpt>
      <trkpt lat="45.94803" lon="4.71466">
        <ele>183</ele>
        <time>2018-07-19T08:24:23Z</time>
      </trkpt>
      <trkpt lat="45.9481" lon="4.71467">
        <ele>183</ele>
        <time>2018-07-19T08:24:24Z</time>
      </trkpt>
      <trkpt lat="45.94815" lon="4.71467">
        <ele>183</ele>
        <time>2018-07-19T08:24:25Z</time>
      </trkpt>
      <trkpt lat="45.9482" lon="4.71467">
        <ele>183</ele>
        <time>2018-07-19T08:24:26Z</time>
      </trkpt>
      <trkpt lat="45.94827" lon="4.71468">
        <ele>183</ele>
        <time>2018-07-19T08:24:27Z</time>
      </trkpt>
      <trkpt lat="45.94834" lon="4.71468">
        <ele>183</ele>
        <time>2018-07-19T08:24:28Z</time>
      </trkpt>
      <trkpt lat="45.9484" lon="4.71469">
        <ele>183</ele>
        <time>2018-07-19T08:24:29Z</time>
      </trkpt>
      <trkpt lat="45.94844" lon="4.7147">
        <ele>183</ele>
        <time>2018-07-19T08:24:30Z</time>
      </trkpt>
      <trkpt lat="45.94852" lon="4.71469">
        <ele>183</ele>
        <time>2018-07-19T08:24:31Z</time>
      </trkpt>
      <trkpt lat="45.94857" lon="4.7147">
        <ele>183</ele>
        <time>2018-07-19T08:24:32Z</time>
      </trkpt>
      <trkpt lat="45.94862" lon="4.7147">
        <ele>183</ele>
        <time>2018-07-19T08:24:33Z</time>
      </trkpt>
      <trkpt lat="45.94868" lon="4.7147">
        <ele>183</ele>
        <time>2018-07-19T08:24:34Z</time>
      </trkpt>
      <trkpt lat="45.94873" lon="4.71471">
        <ele>183</ele>
        <time>2018-07-19T08:24:35Z</time>
      </trkpt>
      <trkpt lat="45.94881" lon="4.71472">
        <ele>183</ele>
        <time>2018-07-19T08:24:36Z</time>
      </trkpt>
      <trkpt lat="45.94886" lon="4.71474">
        <ele>183</ele>
        <time>2018-07-19T08:24:37Z</time>
      </trkpt>
      <trkpt lat="45.94892" lon="4.71473">
        <ele>183</ele>
        <time>2018-07-19T08:24:38Z</time>
      </trkpt>
      <trkpt lat="45.94897" lon="4.71473">
        <ele>183</ele>
        <time>2018-07-19T08:24:39Z</time>
      </trkpt>
      <trkpt lat="45.94903" lon="4.71476">
        <ele>183</ele>
        <time>2018-07-19T08:24:40Z</time>
      </trkpt>
      <trkpt lat="45.94909" lon="4.71475">
        <ele>182</ele>
        <time>2018-07-19T08:24:41Z</time>
      </trkpt>
      <trkpt lat="45.94914" lon="4.71475">
        <ele>182</ele>
        <time>2018-07-19T08:24:42Z</time>
      </trkpt>
      <trkpt lat="45.9492" lon="4.71475">
        <ele>182</ele>
        <time>2018-07-19T08:24:43Z</time>
      </trkpt>
      <trkpt lat="45.94923" lon="4.71475">
        <ele>182</ele>
        <time>2018-07-19T08:24:44Z</time>
      </trkpt>
      <trkpt lat="45.9493" lon="4.71477">
        <ele>182</ele>
        <time>2018-07-19T08:24:46Z</time>
      </trkpt>
      <trkpt lat="45.94935" lon="4.71478">
        <ele>182</ele>
        <time>2018-07-19T08:24:47Z</time>
      </trkpt>
      <trkpt lat="45.94942" lon="4.71479">
        <ele>183</ele>
        <time>2018-07-19T08:24:48Z</time>
      </trkpt>
      <trkpt lat="45.94945" lon="4.71485">
        <ele>182</ele>
        <time>2018-07-19T08:24:49Z</time>
      </trkpt>
      <trkpt lat="45.9495" lon="4.71488">
        <ele>182</ele>
        <time>2018-07-19T08:24:50Z</time>
      </trkpt>
      <trkpt lat="45.94956" lon="4.7149">
        <ele>182</ele>
        <time>2018-07-19T08:24:51Z</time>
      </trkpt>
      <trkpt lat="45.94962" lon="4.7149">
        <ele>182</ele>
        <time>2018-07-19T08:24:52Z</time>
      </trkpt>
      <trkpt lat="45.94969" lon="4.71489">
        <ele>182</ele>
        <time>2018-07-19T08:24:53Z</time>
      </trkpt>
      <trkpt lat="45.94974" lon="4.71486">
        <ele>182</ele>
        <time>2018-07-19T08:24:54Z</time>
      </trkpt>
      <trkpt lat="45.94979" lon="4.71482">
        <ele>182</ele>
        <time>2018-07-19T08:24:55Z</time>
      </trkpt>
      <trkpt lat="45.94986" lon="4.71479">
        <ele>182</ele>
        <time>2018-07-19T08:24:56Z</time>
      </trkpt>
      <trkpt lat="45.9499" lon="4.71479">
        <ele>182</ele>
        <time>2018-07-19T08:24:57Z</time>
      </trkpt>
      <trkpt lat="45.94996" lon="4.71479">
        <ele>182</ele>
        <time>2018-07-19T08:24:58Z</time>
      </trkpt>
      <trkpt lat="45.95002" lon="4.7148">
        <ele>181</ele>
        <time>2018-07-19T08:24:59Z</time>
      </trkpt>
      <trkpt lat="45.95009" lon="4.71479">
        <ele>181</ele>
        <time>2018-07-19T08:25:00Z</time>
      </trkpt>
      <trkpt lat="45.95015" lon="4.7148">
        <ele>181</ele>
        <time>2018-07-19T08:25:01Z</time>
      </trkpt>
      <trkpt lat="45.9502" lon="4.71481">
        <ele>181</ele>
        <time>2018-07-19T08:25:02Z</time>
      </trkpt>
      <trkpt lat="45.95028" lon="4.7148">
        <ele>181</ele>
        <time>2018-07-19T08:25:03Z</time>
      </trkpt>
      <trkpt lat="45.95035" lon="4.71482">
        <ele>181</ele>
        <time>2018-07-19T08:25:04Z</time>
      </trkpt>
      <trkpt lat="45.95042" lon="4.71481">
        <ele>181</ele>
        <time>2018-07-19T08:25:05Z</time>
      </trkpt>
      <trkpt lat="45.9505" lon="4.71479">
        <ele>181</ele>
        <time>2018-07-19T08:25:06Z</time>
      </trkpt>
      <trkpt lat="45.95057" lon="4.71481">
        <ele>181</ele>
        <time>2018-07-19T08:25:07Z</time>
      </trkpt>
      <trkpt lat="45.95065" lon="4.7148">
        <ele>181</ele>
        <time>2018-07-19T08:25:08Z</time>
      </trkpt>
      <trkpt lat="45.95072" lon="4.7148">
        <ele>181</ele>
        <time>2018-07-19T08:25:09Z</time>
      </trkpt>
      <trkpt lat="45.95079" lon="4.71484">
        <ele>180</ele>
        <time>2018-07-19T08:25:10Z</time>
      </trkpt>
      <trkpt lat="45.95088" lon="4.71484">
        <ele>179</ele>
        <time>2018-07-19T08:25:11Z</time>
      </trkpt>
      <trkpt lat="45.95098" lon="4.71483">
        <ele>179</ele>
        <time>2018-07-19T08:25:12Z</time>
      </trkpt>
      <trkpt lat="45.95108" lon="4.71481">
        <ele>179</ele>
        <time>2018-07-19T08:25:13Z</time>
      </trkpt>
      <trkpt lat="45.95114" lon="4.71483">
        <ele>179</ele>
        <time>2018-07-19T08:25:14Z</time>
      </trkpt>
      <trkpt lat="45.95123" lon="4.71482">
        <ele>178</ele>
        <time>2018-07-19T08:25:15Z</time>
      </trkpt>
      <trkpt lat="45.95131" lon="4.71481">
        <ele>178</ele>
        <time>2018-07-19T08:25:16Z</time>
      </trkpt>
      <trkpt lat="45.95138" lon="4.71482">
        <ele>178</ele>
        <time>2018-07-19T08:25:17Z</time>
      </trkpt>
      <trkpt lat="45.95149" lon="4.71483">
        <ele>178</ele>
        <time>2018-07-19T08:25:18Z</time>
      </trkpt>
      <trkpt lat="45.95157" lon="4.71486">
        <ele>178</ele>
        <time>2018-07-19T08:25:19Z</time>
      </trkpt>
      <trkpt lat="45.95165" lon="4.71487">
        <ele>178</ele>
        <time>2018-07-19T08:25:20Z</time>
      </trkpt>
      <trkpt lat="45.95173" lon="4.71488">
        <ele>177</ele>
        <time>2018-07-19T08:25:21Z</time>
      </trkpt>
      <trkpt lat="45.95182" lon="4.71489">
        <ele>177</ele>
        <time>2018-07-19T08:25:22Z</time>
      </trkpt>
      <trkpt lat="45.95189" lon="4.7149">
        <ele>177</ele>
        <time>2018-07-19T08:25:23Z</time>
      </trkpt>
      <trkpt lat="45.95198" lon="4.71491">
        <ele>177</ele>
        <time>2018-07-19T08:25:24Z</time>
      </trkpt>
      <trkpt lat="45.95206" lon="4.71492">
        <ele>177</ele>
        <time>2018-07-19T08:25:25Z</time>
      </trkpt>
      <trkpt lat="45.95215" lon="4.71492">
        <ele>177</ele>
        <time>2018-07-19T08:25:26Z</time>
      </trkpt>
      <trkpt lat="45.95223" lon="4.71493">
        <ele>177</ele>
        <time>2018-07-19T08:25:27Z</time>
      </trkpt>
      <trkpt lat="45.95231" lon="4.71494">
        <ele>177</ele>
        <time>2018-07-19T08:25:28Z</time>
      </trkpt>
      <trkpt lat="45.95239" lon="4.71493">
        <ele>177</ele>
        <time>2018-07-19T08:25:29Z</time>
      </trkpt>
      <trkpt lat="45.95248" lon="4.71494">
        <ele>177</ele>
        <time>2018-07-19T08:25:30Z</time>
      </trkpt>
      <trkpt lat="45.95257" lon="4.71493">
        <ele>177</ele>
        <time>2018-07-19T08:25:31Z</time>
      </trkpt>
      <trkpt lat="45.95264" lon="4.71494">
        <ele>176</ele>
        <time>2018-07-19T08:25:32Z</time>
      </trkpt>
      <trkpt lat="45.95271" lon="4.71493">
        <ele>176</ele>
        <time>2018-07-19T08:25:33Z</time>
      </trkpt>
      <trkpt lat="45.95281" lon="4.71496">
        <ele>176</ele>
        <time>2018-07-19T08:25:34Z</time>
      </trkpt>
      <trkpt lat="45.95288" lon="4.71496">
        <ele>176</ele>
        <time>2018-07-19T08:25:35Z</time>
      </trkpt>
      <trkpt lat="45.95294" lon="4.71497">
        <ele>176</ele>
        <time>2018-07-19T08:25:36Z</time>
      </trkpt>
      <trkpt lat="45.95302" lon="4.71497">
        <ele>175</ele>
        <time>2018-07-19T08:25:37Z</time>
      </trkpt>
      <trkpt lat="45.95308" lon="4.71499">
        <ele>175</ele>
        <time>2018-07-19T08:25:38Z</time>
      </trkpt>
      <trkpt lat="45.95314" lon="4.71497">
        <ele>175</ele>
        <time>2018-07-19T08:25:39Z</time>
      </trkpt>
      <trkpt lat="45.95321" lon="4.71498">
        <ele>175</ele>
        <time>2018-07-19T08:25:40Z</time>
      </trkpt>
      <trkpt lat="45.95327" lon="4.71499">
        <ele>174</ele>
        <time>2018-07-19T08:25:41Z</time>
      </trkpt>
      <trkpt lat="45.95332" lon="4.715">
        <ele>174</ele>
        <time>2018-07-19T08:25:42Z</time>
      </trkpt>
      <trkpt lat="45.9534" lon="4.71499">
        <ele>174</ele>
        <time>2018-07-19T08:25:43Z</time>
      </trkpt>
      <trkpt lat="45.95344" lon="4.71502">
        <ele>174</ele>
        <time>2018-07-19T08:25:44Z</time>
      </trkpt>
      <trkpt lat="45.9535" lon="4.71502">
        <ele>174</ele>
        <time>2018-07-19T08:25:45Z</time>
      </trkpt>
      <trkpt lat="45.95356" lon="4.71501">
        <ele>174</ele>
        <time>2018-07-19T08:25:46Z</time>
      </trkpt>
      <trkpt lat="45.95362" lon="4.71501">
        <ele>174</ele>
        <time>2018-07-19T08:25:47Z</time>
      </trkpt>
      <trkpt lat="45.95368" lon="4.71502">
        <ele>174</ele>
        <time>2018-07-19T08:25:48Z</time>
      </trkpt>
      <trkpt lat="45.95373" lon="4.71502">
        <ele>174</ele>
        <time>2018-07-19T08:25:49Z</time>
      </trkpt>
      <trkpt lat="45.95379" lon="4.71503">
        <ele>174</ele>
        <time>2018-07-19T08:25:50Z</time>
      </trkpt>
      <trkpt lat="45.95385" lon="4.71504">
        <ele>174</ele>
        <time>2018-07-19T08:25:51Z</time>
      </trkpt>
      <trkpt lat="45.95391" lon="4.71503">
        <ele>174</ele>
        <time>2018-07-19T08:25:52Z</time>
      </trkpt>
      <trkpt lat="45.95399" lon="4.71504">
        <ele>174</ele>
        <time>2018-07-19T08:25:53Z</time>
      </trkpt>
      <trkpt lat="45.95405" lon="4.71504">
        <ele>174</ele>
        <time>2018-07-19T08:25:54Z</time>
      </trkpt>
      <trkpt lat="45.95411" lon="4.71505">
        <ele>174</ele>
        <time>2018-07-19T08:25:55Z</time>
      </trkpt>
      <trkpt lat="45.95417" lon="4.71505">
        <ele>174</ele>
        <time>2018-07-19T08:25:56Z</time>
      </trkpt>
      <trkpt lat="45.95424" lon="4.71506">
        <ele>174</ele>
        <time>2018-07-19T08:25:57Z</time>
      </trkpt>
      <trkpt lat="45.95429" lon="4.71508">
        <ele>174</ele>
        <time>2018-07-19T08:25:58Z</time>
      </trkpt>
      <trkpt lat="45.95434" lon="4.71509">
        <ele>175</ele>
        <time>2018-07-19T08:25:59Z</time>
      </trkpt>
      <trkpt lat="45.95441" lon="4.71509">
        <ele>175</ele>
        <time>2018-07-19T08:26:00Z</time>
      </trkpt>
      <trkpt lat="45.95449" lon="4.71512">
        <ele>175</ele>
        <time>2018-07-19T08:26:01Z</time>
      </trkpt>
      <trkpt lat="45.95456" lon="4.71512">
        <ele>175</ele>
        <time>2018-07-19T08:26:02Z</time>
      </trkpt>
      <trkpt lat="45.95463" lon="4.71511">
        <ele>175</ele>
        <time>2018-07-19T08:26:03Z</time>
      </trkpt>
      <trkpt lat="45.95469" lon="4.71512">
        <ele>175</ele>
        <time>2018-07-19T08:26:04Z</time>
      </trkpt>
      <trkpt lat="45.95477" lon="4.71511">
        <ele>176</ele>
        <time>2018-07-19T08:26:05Z</time>
      </trkpt>
      <trkpt lat="45.95484" lon="4.7151">
        <ele>176</ele>
        <time>2018-07-19T08:26:06Z</time>
      </trkpt>
      <trkpt lat="45.95492" lon="4.7151">
        <ele>176</ele>
        <time>2018-07-19T08:26:07Z</time>
      </trkpt>
      <trkpt lat="45.95498" lon="4.7151">
        <ele>176</ele>
        <time>2018-07-19T08:26:08Z</time>
      </trkpt>
      <trkpt lat="45.95504" lon="4.71509">
        <ele>177</ele>
        <time>2018-07-19T08:26:09Z</time>
      </trkpt>
      <trkpt lat="45.95511" lon="4.71509">
        <ele>177</ele>
        <time>2018-07-19T08:26:10Z</time>
      </trkpt>
      <trkpt lat="45.95517" lon="4.71508">
        <ele>177</ele>
        <time>2018-07-19T08:26:11Z</time>
      </trkpt>
      <trkpt lat="45.95522" lon="4.71508">
        <ele>177</ele>
        <time>2018-07-19T08:26:12Z</time>
      </trkpt>
      <trkpt lat="45.95529" lon="4.71509">
        <ele>177</ele>
        <time>2018-07-19T08:26:13Z</time>
      </trkpt>
      <trkpt lat="45.95535" lon="4.7151">
        <ele>177</ele>
        <time>2018-07-19T08:26:14Z</time>
      </trkpt>
      <trkpt lat="45.95541" lon="4.7151">
        <ele>177</ele>
        <time>2018-07-19T08:26:15Z</time>
      </trkpt>
      <trkpt lat="45.95547" lon="4.71514">
        <ele>178</ele>
        <time>2018-07-19T08:26:16Z</time>
      </trkpt>
      <trkpt lat="45.95553" lon="4.71515">
        <ele>178</ele>
        <time>2018-07-19T08:26:17Z</time>
      </trkpt>
      <trkpt lat="45.9556" lon="4.71515">
        <ele>178</ele>
        <time>2018-07-19T08:26:18Z</time>
      </trkpt>
      <trkpt lat="45.95567" lon="4.71516">
        <ele>178</ele>
        <time>2018-07-19T08:26:19Z</time>
      </trkpt>
      <trkpt lat="45.95572" lon="4.71517">
        <ele>178</ele>
        <time>2018-07-19T08:26:20Z</time>
      </trkpt>
      <trkpt lat="45.95578" lon="4.7152">
        <ele>178</ele>
        <time>2018-07-19T08:26:21Z</time>
      </trkpt>
      <trkpt lat="45.95585" lon="4.71522">
        <ele>179</ele>
        <time>2018-07-19T08:26:22Z</time>
      </trkpt>
      <trkpt lat="45.9559" lon="4.71522">
        <ele>179</ele>
        <time>2018-07-19T08:26:23Z</time>
      </trkpt>
      <trkpt lat="45.95596" lon="4.71523">
        <ele>179</ele>
        <time>2018-07-19T08:26:24Z</time>
      </trkpt>
      <trkpt lat="45.95601" lon="4.71522">
        <ele>179</ele>
        <time>2018-07-19T08:26:25Z</time>
      </trkpt>
      <trkpt lat="45.95607" lon="4.71522">
        <ele>179</ele>
        <time>2018-07-19T08:26:26Z</time>
      </trkpt>
      <trkpt lat="45.95614" lon="4.71521">
        <ele>179</ele>
        <time>2018-07-19T08:26:27Z</time>
      </trkpt>
      <trkpt lat="45.95619" lon="4.71521">
        <ele>179</ele>
        <time>2018-07-19T08:26:28Z</time>
      </trkpt>
      <trkpt lat="45.95625" lon="4.71521">
        <ele>179</ele>
        <time>2018-07-19T08:26:29Z</time>
      </trkpt>
      <trkpt lat="45.9563" lon="4.71523">
        <ele>179</ele>
        <time>2018-07-19T08:26:30Z</time>
      </trkpt>
      <trkpt lat="45.95635" lon="4.71524">
        <ele>179</ele>
        <time>2018-07-19T08:26:31Z</time>
      </trkpt>
      <trkpt lat="45.9564" lon="4.71525">
        <ele>179</ele>
        <time>2018-07-19T08:26:32Z</time>
      </trkpt>
      <trkpt lat="45.95645" lon="4.71525">
        <ele>180</ele>
        <time>2018-07-19T08:26:33Z</time>
      </trkpt>
      <trkpt lat="45.95651" lon="4.71524">
        <ele>180</ele>
        <time>2018-07-19T08:26:34Z</time>
      </trkpt>
      <trkpt lat="45.95656" lon="4.71525">
        <ele>180</ele>
        <time>2018-07-19T08:26:35Z</time>
      </trkpt>
      <trkpt lat="45.95661" lon="4.71524">
        <ele>180</ele>
        <time>2018-07-19T08:26:36Z</time>
      </trkpt>
      <trkpt lat="45.95666" lon="4.71525">
        <ele>180</ele>
        <time>2018-07-19T08:26:37Z</time>
      </trkpt>
      <trkpt lat="45.95673" lon="4.71526">
        <ele>180</ele>
        <time>2018-07-19T08:26:38Z</time>
      </trkpt>
      <trkpt lat="45.95679" lon="4.71527">
        <ele>180</ele>
        <time>2018-07-19T08:26:39Z</time>
      </trkpt>
      <trkpt lat="45.95685" lon="4.71527">
        <ele>180</ele>
        <time>2018-07-19T08:26:40Z</time>
      </trkpt>
      <trkpt lat="45.9569" lon="4.71525">
        <ele>180</ele>
        <time>2018-07-19T08:26:41Z</time>
      </trkpt>
      <trkpt lat="45.95696" lon="4.71525">
        <ele>180</ele>
        <time>2018-07-19T08:26:42Z</time>
      </trkpt>
      <trkpt lat="45.95702" lon="4.71525">
        <ele>180</ele>
        <time>2018-07-19T08:26:43Z</time>
      </trkpt>
      <trkpt lat="45.95707" lon="4.71526">
        <ele>180</ele>
        <time>2018-07-19T08:26:44Z</time>
      </trkpt>
      <trkpt lat="45.95712" lon="4.71526">
        <ele>180</ele>
        <time>2018-07-19T08:26:45Z</time>
      </trkpt>
      <trkpt lat="45.95715" lon="4.7153">
        <ele>180</ele>
        <time>2018-07-19T08:26:46Z</time>
      </trkpt>
      <trkpt lat="45.95721" lon="4.7153">
        <ele>180</ele>
        <time>2018-07-19T08:26:47Z</time>
      </trkpt>
      <trkpt lat="45.95728" lon="4.71531">
        <ele>180</ele>
        <time>2018-07-19T08:26:48Z</time>
      </trkpt>
      <trkpt lat="45.95734" lon="4.7153">
        <ele>180</ele>
        <time>2018-07-19T08:26:49Z</time>
      </trkpt>
      <trkpt lat="45.95739" lon="4.7153">
        <ele>180</ele>
        <time>2018-07-19T08:26:50Z</time>
      </trkpt>
      <trkpt lat="45.95745" lon="4.7153">
        <ele>180</ele>
        <time>2018-07-19T08:26:51Z</time>
      </trkpt>
      <trkpt lat="45.95749" lon="4.7153">
        <ele>180</ele>
        <time>2018-07-19T08:26:52Z</time>
      </trkpt>
      <trkpt lat="45.95755" lon="4.71532">
        <ele>180</ele>
        <time>2018-07-19T08:26:53Z</time>
      </trkpt>
      <trkpt lat="45.95761" lon="4.71533">
        <ele>180</ele>
        <time>2018-07-19T08:26:54Z</time>
      </trkpt>
      <trkpt lat="45.95765" lon="4.71533">
        <ele>180</ele>
        <time>2018-07-19T08:26:55Z</time>
      </trkpt>
      <trkpt lat="45.95771" lon="4.71533">
        <ele>180</ele>
        <time>2018-07-19T08:26:56Z</time>
      </trkpt>
      <trkpt lat="45.95776" lon="4.71532">
        <ele>180</ele>
        <time>2018-07-19T08:26:57Z</time>
      </trkpt>
      <trkpt lat="45.95781" lon="4.71533">
        <ele>180</ele>
        <time>2018-07-19T08:26:58Z</time>
      </trkpt>
      <trkpt lat="45.95788" lon="4.71532">
        <ele>181</ele>
        <time>2018-07-19T08:26:59Z</time>
      </trkpt>
      <trkpt lat="45.95795" lon="4.71532">
        <ele>181</ele>
        <time>2018-07-19T08:27:00Z</time>
      </trkpt>
      <trkpt lat="45.958" lon="4.71532">
        <ele>181</ele>
        <time>2018-07-19T08:27:01Z</time>
      </trkpt>
      <trkpt lat="45.95806" lon="4.71532">
        <ele>181</ele>
        <time>2018-07-19T08:27:02Z</time>
      </trkpt>
      <trkpt lat="45.95813" lon="4.71533">
        <ele>181</ele>
        <time>2018-07-19T08:27:03Z</time>
      </trkpt>
      <trkpt lat="45.95819" lon="4.71531">
        <ele>181</ele>
        <time>2018-07-19T08:27:04Z</time>
      </trkpt>
      <trkpt lat="45.95825" lon="4.71532">
        <ele>181</ele>
        <time>2018-07-19T08:27:05Z</time>
      </trkpt>
      <trkpt lat="45.95831" lon="4.71534">
        <ele>181</ele>
        <time>2018-07-19T08:27:06Z</time>
      </trkpt>
      <trkpt lat="45.95836" lon="4.71535">
        <ele>181</ele>
        <time>2018-07-19T08:27:07Z</time>
      </trkpt>
      <trkpt lat="45.95841" lon="4.71536">
        <ele>181</ele>
        <time>2018-07-19T08:27:08Z</time>
      </trkpt>
      <trkpt lat="45.95847" lon="4.71536">
        <ele>181</ele>
        <time>2018-07-19T08:27:09Z</time>
      </trkpt>
      <trkpt lat="45.95853" lon="4.71537">
        <ele>181</ele>
        <time>2018-07-19T08:27:10Z</time>
      </trkpt>
      <trkpt lat="45.95859" lon="4.71538">
        <ele>181</ele>
        <time>2018-07-19T08:27:11Z</time>
      </trkpt>
      <trkpt lat="45.95864" lon="4.71538">
        <ele>181</ele>
        <time>2018-07-19T08:27:12Z</time>
      </trkpt>
      <trkpt lat="45.9587" lon="4.71538">
        <ele>181</ele>
        <time>2018-07-19T08:27:13Z</time>
      </trkpt>
      <trkpt lat="45.95875" lon="4.71539">
        <ele>181</ele>
        <time>2018-07-19T08:27:14Z</time>
      </trkpt>
      <trkpt lat="45.95884" lon="4.71541">
        <ele>181</ele>
        <time>2018-07-19T08:27:16Z</time>
      </trkpt>
      <trkpt lat="45.9589" lon="4.71541">
        <ele>181</ele>
        <time>2018-07-19T08:27:17Z</time>
      </trkpt>
      <trkpt lat="45.95897" lon="4.71542">
        <ele>181</ele>
        <time>2018-07-19T08:27:18Z</time>
      </trkpt>
      <trkpt lat="45.95902" lon="4.71542">
        <ele>181</ele>
        <time>2018-07-19T08:27:19Z</time>
      </trkpt>
      <trkpt lat="45.95908" lon="4.71543">
        <ele>181</ele>
        <time>2018-07-19T08:27:20Z</time>
      </trkpt>
      <trkpt lat="45.95913" lon="4.71544">
        <ele>181</ele>
        <time>2018-07-19T08:27:21Z</time>
      </trkpt>
      <trkpt lat="45.95918" lon="4.71544">
        <ele>182</ele>
        <time>2018-07-19T08:27:22Z</time>
      </trkpt>
      <trkpt lat="45.95923" lon="4.71545">
        <ele>182</ele>
        <time>2018-07-19T08:27:23Z</time>
      </trkpt>
      <trkpt lat="45.95929" lon="4.71545">
        <ele>182</ele>
        <time>2018-07-19T08:27:24Z</time>
      </trkpt>
      <trkpt lat="45.95933" lon="4.71546">
        <ele>183</ele>
        <time>2018-07-19T08:27:25Z</time>
      </trkpt>
      <trkpt lat="45.9594" lon="4.71545">
        <ele>183</ele>
        <time>2018-07-19T08:27:26Z</time>
      </trkpt>
      <trkpt lat="45.95944" lon="4.71547">
        <ele>183</ele>
        <time>2018-07-19T08:27:27Z</time>
      </trkpt>
      <trkpt lat="45.95949" lon="4.71547">
        <ele>183</ele>
        <time>2018-07-19T08:27:28Z</time>
      </trkpt>
      <trkpt lat="45.95953" lon="4.7155">
        <ele>183</ele>
        <time>2018-07-19T08:27:29Z</time>
      </trkpt>
      <trkpt lat="45.95957" lon="4.71552">
        <ele>183</ele>
        <time>2018-07-19T08:27:30Z</time>
      </trkpt>
      <trkpt lat="45.95962" lon="4.71553">
        <ele>183</ele>
        <time>2018-07-19T08:27:31Z</time>
      </trkpt>
      <trkpt lat="45.95967" lon="4.71553">
        <ele>183</ele>
        <time>2018-07-19T08:27:32Z</time>
      </trkpt>
      <trkpt lat="45.95972" lon="4.71553">
        <ele>183</ele>
        <time>2018-07-19T08:27:33Z</time>
      </trkpt>
      <trkpt lat="45.95975" lon="4.71553">
        <ele>183</ele>
        <time>2018-07-19T08:27:34Z</time>
      </trkpt>
      <trkpt lat="45.95981" lon="4.71552">
        <ele>183</ele>
        <time>2018-07-19T08:27:35Z</time>
      </trkpt>
      <trkpt lat="45.95985" lon="4.71551">
        <ele>183</ele>
        <time>2018-07-19T08:27:36Z</time>
      </trkpt>
      <trkpt lat="45.95992" lon="4.71548">
        <ele>184</ele>
        <time>2018-07-19T08:27:37Z</time>
      </trkpt>
      <trkpt lat="45.95996" lon="4.71547">
        <ele>184</ele>
        <time>2018-07-19T08:27:38Z</time>
      </trkpt>
      <trkpt lat="45.96001" lon="4.71546">
        <ele>185</ele>
        <time>2018-07-19T08:27:39Z</time>
      </trkpt>
      <trkpt lat="45.96005" lon="4.71547">
        <ele>185</ele>
        <time>2018-07-19T08:27:40Z</time>
      </trkpt>
      <trkpt lat="45.9601" lon="4.71548">
        <ele>185</ele>
        <time>2018-07-19T08:27:41Z</time>
      </trkpt>
      <trkpt lat="45.96016" lon="4.71547">
        <ele>185</ele>
        <time>2018-07-19T08:27:42Z</time>
      </trkpt>
      <trkpt lat="45.96023" lon="4.71546">
        <ele>185</ele>
        <time>2018-07-19T08:27:43Z</time>
      </trkpt>
      <trkpt lat="45.96028" lon="4.71547">
        <ele>185</ele>
        <time>2018-07-19T08:27:44Z</time>
      </trkpt>
      <trkpt lat="45.96034" lon="4.71548">
        <ele>185</ele>
        <time>2018-07-19T08:27:45Z</time>
      </trkpt>
      <trkpt lat="45.96039" lon="4.71549">
        <ele>185</ele>
        <time>2018-07-19T08:27:46Z</time>
      </trkpt>
      <trkpt lat="45.96044" lon="4.71549">
        <ele>185</ele>
        <time>2018-07-19T08:27:47Z</time>
      </trkpt>
      <trkpt lat="45.96052" lon="4.71548">
        <ele>185</ele>
        <time>2018-07-19T08:27:48Z</time>
      </trkpt>
      <trkpt lat="45.96058" lon="4.71548">
        <ele>185</ele>
        <time>2018-07-19T08:27:49Z</time>
      </trkpt>
      <trkpt lat="45.96064" lon="4.71554">
        <ele>185</ele>
        <time>2018-07-19T08:27:50Z</time>
      </trkpt>
      <trkpt lat="45.9607" lon="4.71555">
        <ele>185</ele>
        <time>2018-07-19T08:27:51Z</time>
      </trkpt>
      <trkpt lat="45.96075" lon="4.71555">
        <ele>185</ele>
        <time>2018-07-19T08:27:52Z</time>
      </trkpt>
      <trkpt lat="45.96082" lon="4.71555">
        <ele>185</ele>
        <time>2018-07-19T08:27:53Z</time>
      </trkpt>
      <trkpt lat="45.96087" lon="4.71555">
        <ele>184</ele>
        <time>2018-07-19T08:27:54Z</time>
      </trkpt>
      <trkpt lat="45.96093" lon="4.71556">
        <ele>184</ele>
        <time>2018-07-19T08:27:55Z</time>
      </trkpt>
      <trkpt lat="45.96098" lon="4.71557">
        <ele>184</ele>
        <time>2018-07-19T08:27:56Z</time>
      </trkpt>
      <trkpt lat="45.96103" lon="4.71558">
        <ele>184</ele>
        <time>2018-07-19T08:27:57Z</time>
      </trkpt>
      <trkpt lat="45.96108" lon="4.71559">
        <ele>184</ele>
        <time>2018-07-19T08:27:58Z</time>
      </trkpt>
      <trkpt lat="45.96113" lon="4.7156">
        <ele>184</ele>
        <time>2018-07-19T08:27:59Z</time>
      </trkpt>
      <trkpt lat="45.96119" lon="4.71561">
        <ele>184</ele>
        <time>2018-07-19T08:28:00Z</time>
      </trkpt>
      <trkpt lat="45.96123" lon="4.71561">
        <ele>184</ele>
        <time>2018-07-19T08:28:01Z</time>
      </trkpt>
      <trkpt lat="45.96129" lon="4.71561">
        <ele>184</ele>
        <time>2018-07-19T08:28:02Z</time>
      </trkpt>
      <trkpt lat="45.96135" lon="4.71562">
        <ele>184</ele>
        <time>2018-07-19T08:28:03Z</time>
      </trkpt>
      <trkpt lat="45.96141" lon="4.71562">
        <ele>184</ele>
        <time>2018-07-19T08:28:04Z</time>
      </trkpt>
      <trkpt lat="45.96147" lon="4.71563">
        <ele>183</ele>
        <time>2018-07-19T08:28:05Z</time>
      </trkpt>
      <trkpt lat="45.96152" lon="4.71564">
        <ele>183</ele>
        <time>2018-07-19T08:28:06Z</time>
      </trkpt>
      <trkpt lat="45.96158" lon="4.71565">
        <ele>183</ele>
        <time>2018-07-19T08:28:07Z</time>
      </trkpt>
      <trkpt lat="45.96165" lon="4.71566">
        <ele>182</ele>
        <time>2018-07-19T08:28:08Z</time>
      </trkpt>
      <trkpt lat="45.96171" lon="4.71566">
        <ele>182</ele>
        <time>2018-07-19T08:28:09Z</time>
      </trkpt>
      <trkpt lat="45.96178" lon="4.71567">
        <ele>182</ele>
        <time>2018-07-19T08:28:10Z</time>
      </trkpt>
      <trkpt lat="45.96184" lon="4.71569">
        <ele>183</ele>
        <time>2018-07-19T08:28:11Z</time>
      </trkpt>
      <trkpt lat="45.9619" lon="4.7157">
        <ele>183</ele>
        <time>2018-07-19T08:28:12Z</time>
      </trkpt>
      <trkpt lat="45.96195" lon="4.71571">
        <ele>183</ele>
        <time>2018-07-19T08:28:13Z</time>
      </trkpt>
      <trkpt lat="45.96202" lon="4.71572">
        <ele>183</ele>
        <time>2018-07-19T08:28:14Z</time>
      </trkpt>
      <trkpt lat="45.96208" lon="4.71573">
        <ele>183</ele>
        <time>2018-07-19T08:28:15Z</time>
      </trkpt>
      <trkpt lat="45.96215" lon="4.71573">
        <ele>183</ele>
        <time>2018-07-19T08:28:16Z</time>
      </trkpt>
      <trkpt lat="45.96221" lon="4.71575">
        <ele>183</ele>
        <time>2018-07-19T08:28:17Z</time>
      </trkpt>
      <trkpt lat="45.96226" lon="4.71576">
        <ele>183</ele>
        <time>2018-07-19T08:28:18Z</time>
      </trkpt>
      <trkpt lat="45.96233" lon="4.71575">
        <ele>183</ele>
        <time>2018-07-19T08:28:19Z</time>
      </trkpt>
      <trkpt lat="45.9624" lon="4.71576">
        <ele>182</ele>
        <time>2018-07-19T08:28:20Z</time>
      </trkpt>
      <trkpt lat="45.96246" lon="4.71578">
        <ele>182</ele>
        <time>2018-07-19T08:28:21Z</time>
      </trkpt>
      <trkpt lat="45.96251" lon="4.71579">
        <ele>182</ele>
        <time>2018-07-19T08:28:22Z</time>
      </trkpt>
      <trkpt lat="45.96257" lon="4.7158">
        <ele>182</ele>
        <time>2018-07-19T08:28:23Z</time>
      </trkpt>
      <trkpt lat="45.96263" lon="4.71579">
        <ele>183</ele>
        <time>2018-07-19T08:28:24Z</time>
      </trkpt>
      <trkpt lat="45.9627" lon="4.7158">
        <ele>183</ele>
        <time>2018-07-19T08:28:25Z</time>
      </trkpt>
      <trkpt lat="45.96277" lon="4.7158">
        <ele>184</ele>
        <time>2018-07-19T08:28:26Z</time>
      </trkpt>
      <trkpt lat="45.96283" lon="4.71582">
        <ele>184</ele>
        <time>2018-07-19T08:28:27Z</time>
      </trkpt>
      <trkpt lat="45.96289" lon="4.71584">
        <ele>181</ele>
        <time>2018-07-19T08:28:28Z</time>
      </trkpt>
      <trkpt lat="45.96294" lon="4.71585">
        <ele>181</ele>
        <time>2018-07-19T08:28:29Z</time>
      </trkpt>
      <trkpt lat="45.96301" lon="4.71585">
        <ele>181</ele>
        <time>2018-07-19T08:28:30Z</time>
      </trkpt>
      <trkpt lat="45.96307" lon="4.71584">
        <ele>181</ele>
        <time>2018-07-19T08:28:31Z</time>
      </trkpt>
      <trkpt lat="45.96314" lon="4.71585">
        <ele>181</ele>
        <time>2018-07-19T08:28:32Z</time>
      </trkpt>
      <trkpt lat="45.96321" lon="4.71586">
        <ele>182</ele>
        <time>2018-07-19T08:28:33Z</time>
      </trkpt>
      <trkpt lat="45.96326" lon="4.71586">
        <ele>182</ele>
        <time>2018-07-19T08:28:34Z</time>
      </trkpt>
      <trkpt lat="45.96334" lon="4.71588">
        <ele>183</ele>
        <time>2018-07-19T08:28:35Z</time>
      </trkpt>
      <trkpt lat="45.96341" lon="4.71589">
        <ele>183</ele>
        <time>2018-07-19T08:28:36Z</time>
      </trkpt>
      <trkpt lat="45.96348" lon="4.71588">
        <ele>182</ele>
        <time>2018-07-19T08:28:37Z</time>
      </trkpt>
      <trkpt lat="45.96354" lon="4.7159">
        <ele>182</ele>
        <time>2018-07-19T08:28:38Z</time>
      </trkpt>
      <trkpt lat="45.9636" lon="4.71594">
        <ele>182</ele>
        <time>2018-07-19T08:28:39Z</time>
      </trkpt>
      <trkpt lat="45.96366" lon="4.71596">
        <ele>182</ele>
        <time>2018-07-19T08:28:40Z</time>
      </trkpt>
      <trkpt lat="45.96369" lon="4.71597">
        <ele>182</ele>
        <time>2018-07-19T08:28:41Z</time>
      </trkpt>
      <trkpt lat="45.96376" lon="4.71598">
        <ele>182</ele>
        <time>2018-07-19T08:28:42Z</time>
      </trkpt>
      <trkpt lat="45.96383" lon="4.71599">
        <ele>182</ele>
        <time>2018-07-19T08:28:43Z</time>
      </trkpt>
      <trkpt lat="45.96389" lon="4.71601">
        <ele>182</ele>
        <time>2018-07-19T08:28:44Z</time>
      </trkpt>
      <trkpt lat="45.96395" lon="4.71603">
        <ele>183</ele>
        <time>2018-07-19T08:28:45Z</time>
      </trkpt>
      <trkpt lat="45.964" lon="4.71603">
        <ele>183</ele>
        <time>2018-07-19T08:28:46Z</time>
      </trkpt>
      <trkpt lat="45.96406" lon="4.71604">
        <ele>183</ele>
        <time>2018-07-19T08:28:47Z</time>
      </trkpt>
      <trkpt lat="45.96411" lon="4.71605">
        <ele>183</ele>
        <time>2018-07-19T08:28:48Z</time>
      </trkpt>
      <trkpt lat="45.96418" lon="4.71606">
        <ele>183</ele>
        <time>2018-07-19T08:28:49Z</time>
      </trkpt>
      <trkpt lat="45.96424" lon="4.71607">
        <ele>183</ele>
        <time>2018-07-19T08:28:50Z</time>
      </trkpt>
      <trkpt lat="45.96429" lon="4.71608">
        <ele>183</ele>
        <time>2018-07-19T08:28:51Z</time>
      </trkpt>
      <trkpt lat="45.96435" lon="4.7161">
        <ele>183</ele>
        <time>2018-07-19T08:28:52Z</time>
      </trkpt>
      <trkpt lat="45.96441" lon="4.71611">
        <ele>183</ele>
        <time>2018-07-19T08:28:53Z</time>
      </trkpt>
      <trkpt lat="45.96447" lon="4.71612">
        <ele>183</ele>
        <time>2018-07-19T08:28:54Z</time>
      </trkpt>
      <trkpt lat="45.96454" lon="4.71613">
        <ele>183</ele>
        <time>2018-07-19T08:28:55Z</time>
      </trkpt>
      <trkpt lat="45.9646" lon="4.71614">
        <ele>183</ele>
        <time>2018-07-19T08:28:56Z</time>
      </trkpt>
      <trkpt lat="45.96466" lon="4.71616">
        <ele>183</ele>
        <time>2018-07-19T08:28:57Z</time>
      </trkpt>
      <trkpt lat="45.96472" lon="4.71617">
        <ele>183</ele>
        <time>2018-07-19T08:28:58Z</time>
      </trkpt>
      <trkpt lat="45.96479" lon="4.71618">
        <ele>183</ele>
        <time>2018-07-19T08:28:59Z</time>
      </trkpt>
      <trkpt lat="45.96484" lon="4.71619">
        <ele>183</ele>
        <time>2018-07-19T08:29:00Z</time>
      </trkpt>
      <trkpt lat="45.9649" lon="4.7162">
        <ele>183</ele>
        <time>2018-07-19T08:29:01Z</time>
      </trkpt>
      <trkpt lat="45.96495" lon="4.71621">
        <ele>183</ele>
        <time>2018-07-19T08:29:02Z</time>
      </trkpt>
      <trkpt lat="45.965" lon="4.71623">
        <ele>184</ele>
        <time>2018-07-19T08:29:03Z</time>
      </trkpt>
      <trkpt lat="45.96505" lon="4.71629">
        <ele>183</ele>
        <time>2018-07-19T08:29:04Z</time>
      </trkpt>
      <trkpt lat="45.96508" lon="4.71634">
        <ele>183</ele>
        <time>2018-07-19T08:29:05Z</time>
      </trkpt>
      <trkpt lat="45.96515" lon="4.71638">
        <ele>183</ele>
        <time>2018-07-19T08:29:06Z</time>
      </trkpt>
      <trkpt lat="45.96519" lon="4.71642">
        <ele>183</ele>
        <time>2018-07-19T08:29:07Z</time>
      </trkpt>
      <trkpt lat="45.96525" lon="4.71645">
        <ele>183</ele>
        <time>2018-07-19T08:29:08Z</time>
      </trkpt>
      <trkpt lat="45.96532" lon="4.71642">
        <ele>183</ele>
        <time>2018-07-19T08:29:09Z</time>
      </trkpt>
      <trkpt lat="45.96538" lon="4.71638">
        <ele>184</ele>
        <time>2018-07-19T08:29:10Z</time>
      </trkpt>
      <trkpt lat="45.96543" lon="4.71633">
        <ele>184</ele>
        <time>2018-07-19T08:29:11Z</time>
      </trkpt>
      <trkpt lat="45.96549" lon="4.71631">
        <ele>184</ele>
        <time>2018-07-19T08:29:12Z</time>
      </trkpt>
      <trkpt lat="45.96554" lon="4.71628">
        <ele>184</ele>
        <time>2018-07-19T08:29:13Z</time>
      </trkpt>
      <trkpt lat="45.96559" lon="4.71627">
        <ele>184</ele>
        <time>2018-07-19T08:29:14Z</time>
      </trkpt>
      <trkpt lat="45.96564" lon="4.71629">
        <ele>185</ele>
        <time>2018-07-19T08:29:15Z</time>
      </trkpt>
      <trkpt lat="45.96569" lon="4.7163">
        <ele>185</ele>
        <time>2018-07-19T08:29:16Z</time>
      </trkpt>
      <trkpt lat="45.96574" lon="4.71631">
        <ele>185</ele>
        <time>2018-07-19T08:29:17Z</time>
      </trkpt>
      <trkpt lat="45.96579" lon="4.71633">
        <ele>185</ele>
        <time>2018-07-19T08:29:18Z</time>
      </trkpt>
      <trkpt lat="45.96584" lon="4.71634">
        <ele>187</ele>
        <time>2018-07-19T08:29:19Z</time>
      </trkpt>
      <trkpt lat="45.96591" lon="4.71634">
        <ele>187</ele>
        <time>2018-07-19T08:29:20Z</time>
      </trkpt>
      <trkpt lat="45.96597" lon="4.71635">
        <ele>187</ele>
        <time>2018-07-19T08:29:21Z</time>
      </trkpt>
      <trkpt lat="45.96602" lon="4.71636">
        <ele>187</ele>
        <time>2018-07-19T08:29:22Z</time>
      </trkpt>
      <trkpt lat="45.96609" lon="4.71636">
        <ele>187</ele>
        <time>2018-07-19T08:29:23Z</time>
      </trkpt>
      <trkpt lat="45.96614" lon="4.71637">
        <ele>187</ele>
        <time>2018-07-19T08:29:24Z</time>
      </trkpt>
      <trkpt lat="45.96619" lon="4.71636">
        <ele>187</ele>
        <time>2018-07-19T08:29:25Z</time>
      </trkpt>
      <trkpt lat="45.96627" lon="4.71638">
        <ele>187</ele>
        <time>2018-07-19T08:29:27Z</time>
      </trkpt>
      <trkpt lat="45.96632" lon="4.71639">
        <ele>187</ele>
        <time>2018-07-19T08:29:28Z</time>
      </trkpt>
      <trkpt lat="45.96639" lon="4.7164">
        <ele>188</ele>
        <time>2018-07-19T08:29:29Z</time>
      </trkpt>
      <trkpt lat="45.96644" lon="4.71641">
        <ele>188</ele>
        <time>2018-07-19T08:29:30Z</time>
      </trkpt>
      <trkpt lat="45.96649" lon="4.71642">
        <ele>188</ele>
        <time>2018-07-19T08:29:31Z</time>
      </trkpt>
      <trkpt lat="45.96655" lon="4.71643">
        <ele>188</ele>
        <time>2018-07-19T08:29:32Z</time>
      </trkpt>
      <trkpt lat="45.96659" lon="4.71646">
        <ele>188</ele>
        <time>2018-07-19T08:29:33Z</time>
      </trkpt>
      <trkpt lat="45.96667" lon="4.71646">
        <ele>189</ele>
        <time>2018-07-19T08:29:34Z</time>
      </trkpt>
      <trkpt lat="45.96673" lon="4.71647">
        <ele>189</ele>
        <time>2018-07-19T08:29:35Z</time>
      </trkpt>
      <trkpt lat="45.96678" lon="4.71648">
        <ele>189</ele>
        <time>2018-07-19T08:29:36Z</time>
      </trkpt>
      <trkpt lat="45.96682" lon="4.71649">
        <ele>189</ele>
        <time>2018-07-19T08:29:37Z</time>
      </trkpt>
      <trkpt lat="45.96688" lon="4.7165">
        <ele>189</ele>
        <time>2018-07-19T08:29:38Z</time>
      </trkpt>
      <trkpt lat="45.96693" lon="4.71651">
        <ele>189</ele>
        <time>2018-07-19T08:29:39Z</time>
      </trkpt>
      <trkpt lat="45.96699" lon="4.71651">
        <ele>190</ele>
        <time>2018-07-19T08:29:40Z</time>
      </trkpt>
      <trkpt lat="45.96703" lon="4.71652">
        <ele>190</ele>
        <time>2018-07-19T08:29:41Z</time>
      </trkpt>
      <trkpt lat="45.96708" lon="4.71653">
        <ele>190</ele>
        <time>2018-07-19T08:29:42Z</time>
      </trkpt>
      <trkpt lat="45.96714" lon="4.71653">
        <ele>190</ele>
        <time>2018-07-19T08:29:43Z</time>
      </trkpt>
      <trkpt lat="45.96719" lon="4.71654">
        <ele>190</ele>
        <time>2018-07-19T08:29:44Z</time>
      </trkpt>
      <trkpt lat="45.96724" lon="4.71654">
        <ele>190</ele>
        <time>2018-07-19T08:29:45Z</time>
      </trkpt>
      <trkpt lat="45.96729" lon="4.71655">
        <ele>190</ele>
        <time>2018-07-19T08:29:46Z</time>
      </trkpt>
      <trkpt lat="45.96737" lon="4.71658">
        <ele>190</ele>
        <time>2018-07-19T08:29:48Z</time>
      </trkpt>
      <trkpt lat="45.96743" lon="4.71658">
        <ele>190</ele>
        <time>2018-07-19T08:29:49Z</time>
      </trkpt>
      <trkpt lat="45.96748" lon="4.71659">
        <ele>189</ele>
        <time>2018-07-19T08:29:50Z</time>
      </trkpt>
      <trkpt lat="45.96755" lon="4.71662">
        <ele>190</ele>
        <time>2018-07-19T08:29:51Z</time>
      </trkpt>
      <trkpt lat="45.96761" lon="4.71662">
        <ele>191</ele>
        <time>2018-07-19T08:29:52Z</time>
      </trkpt>
      <trkpt lat="45.96766" lon="4.71663">
        <ele>191</ele>
        <time>2018-07-19T08:29:53Z</time>
      </trkpt>
      <trkpt lat="45.96771" lon="4.71663">
        <ele>191</ele>
        <time>2018-07-19T08:29:54Z</time>
      </trkpt>
      <trkpt lat="45.96776" lon="4.71664">
        <ele>192</ele>
        <time>2018-07-19T08:29:55Z</time>
      </trkpt>
      <trkpt lat="45.96782" lon="4.71665">
        <ele>192</ele>
        <time>2018-07-19T08:29:56Z</time>
      </trkpt>
      <trkpt lat="45.96786" lon="4.71666">
        <ele>192</ele>
        <time>2018-07-19T08:29:57Z</time>
      </trkpt>
      <trkpt lat="45.96792" lon="4.7167">
        <ele>188</ele>
        <time>2018-07-19T08:29:59Z</time>
      </trkpt>
      <trkpt lat="45.96797" lon="4.71671">
        <ele>188</ele>
        <time>2018-07-19T08:30:00Z</time>
      </trkpt>
      <trkpt lat="45.96802" lon="4.71672">
        <ele>188</ele>
        <time>2018-07-19T08:30:01Z</time>
      </trkpt>
      <trkpt lat="45.96808" lon="4.71672">
        <ele>189</ele>
        <time>2018-07-19T08:30:02Z</time>
      </trkpt>
      <trkpt lat="45.96814" lon="4.71672">
        <ele>189</ele>
        <time>2018-07-19T08:30:03Z</time>
      </trkpt>
      <trkpt lat="45.9682" lon="4.71672">
        <ele>190</ele>
        <time>2018-07-19T08:30:04Z</time>
      </trkpt>
      <trkpt lat="45.96825" lon="4.71674">
        <ele>190</ele>
        <time>2018-07-19T08:30:05Z</time>
      </trkpt>
      <trkpt lat="45.96831" lon="4.71675">
        <ele>190</ele>
        <time>2018-07-19T08:30:06Z</time>
      </trkpt>
      <trkpt lat="45.96836" lon="4.71675">
        <ele>191</ele>
        <time>2018-07-19T08:30:08Z</time>
      </trkpt>
      <trkpt lat="45.96844" lon="4.71676">
        <ele>191</ele>
        <time>2018-07-19T08:30:09Z</time>
      </trkpt>
      <trkpt lat="45.96852" lon="4.71676">
        <ele>190</ele>
        <time>2018-07-19T08:30:11Z</time>
      </trkpt>
      <trkpt lat="45.96857" lon="4.71677">
        <ele>190</ele>
        <time>2018-07-19T08:30:12Z</time>
      </trkpt>
      <trkpt lat="45.96862" lon="4.71678">
        <ele>190</ele>
        <time>2018-07-19T08:30:13Z</time>
      </trkpt>
      <trkpt lat="45.96867" lon="4.71679">
        <ele>190</ele>
        <time>2018-07-19T08:30:14Z</time>
      </trkpt>
      <trkpt lat="45.96873" lon="4.71677">
        <ele>190</ele>
        <time>2018-07-19T08:30:15Z</time>
      </trkpt>
      <trkpt lat="45.96877" lon="4.71678">
        <ele>190</ele>
        <time>2018-07-19T08:30:16Z</time>
      </trkpt>
      <trkpt lat="45.96883" lon="4.71678">
        <ele>190</ele>
        <time>2018-07-19T08:30:17Z</time>
      </trkpt>
      <trkpt lat="45.96888" lon="4.71679">
        <ele>191</ele>
        <time>2018-07-19T08:30:18Z</time>
      </trkpt>
      <trkpt lat="45.96892" lon="4.71681">
        <ele>191</ele>
        <time>2018-07-19T08:30:19Z</time>
      </trkpt>
      <trkpt lat="45.96897" lon="4.7168">
        <ele>191</ele>
        <time>2018-07-19T08:30:20Z</time>
      </trkpt>
      <trkpt lat="45.96902" lon="4.71679">
        <ele>192</ele>
        <time>2018-07-19T08:30:21Z</time>
      </trkpt>
      <trkpt lat="45.96907" lon="4.71679">
        <ele>192</ele>
        <time>2018-07-19T08:30:22Z</time>
      </trkpt>
      <trkpt lat="45.96912" lon="4.7168">
        <ele>192</ele>
        <time>2018-07-19T08:30:23Z</time>
      </trkpt>
      <trkpt lat="45.96917" lon="4.71681">
        <ele>193</ele>
        <time>2018-07-19T08:30:24Z</time>
      </trkpt>
      <trkpt lat="45.96925" lon="4.7168">
        <ele>193</ele>
        <time>2018-07-19T08:30:25Z</time>
      </trkpt>
      <trkpt lat="45.96931" lon="4.71681">
        <ele>192</ele>
        <time>2018-07-19T08:30:26Z</time>
      </trkpt>
      <trkpt lat="45.96936" lon="4.71682">
        <ele>192</ele>
        <time>2018-07-19T08:30:27Z</time>
      </trkpt>
      <trkpt lat="45.96942" lon="4.71682">
        <ele>192</ele>
        <time>2018-07-19T08:30:28Z</time>
      </trkpt>
      <trkpt lat="45.96948" lon="4.71683">
        <ele>192</ele>
        <time>2018-07-19T08:30:29Z</time>
      </trkpt>
      <trkpt lat="45.96954" lon="4.71681">
        <ele>192</ele>
        <time>2018-07-19T08:30:30Z</time>
      </trkpt>
      <trkpt lat="45.96958" lon="4.71681">
        <ele>192</ele>
        <time>2018-07-19T08:30:31Z</time>
      </trkpt>
      <trkpt lat="45.96964" lon="4.71682">
        <ele>192</ele>
        <time>2018-07-19T08:30:32Z</time>
      </trkpt>
      <trkpt lat="45.96969" lon="4.71683">
        <ele>192</ele>
        <time>2018-07-19T08:30:33Z</time>
      </trkpt>
      <trkpt lat="45.96975" lon="4.71682">
        <ele>192</ele>
        <time>2018-07-19T08:30:34Z</time>
      </trkpt>
      <trkpt lat="45.96981" lon="4.71682">
        <ele>192</ele>
        <time>2018-07-19T08:30:35Z</time>
      </trkpt>
      <trkpt lat="45.96987" lon="4.71682">
        <ele>192</ele>
        <time>2018-07-19T08:30:36Z</time>
      </trkpt>
      <trkpt lat="45.96993" lon="4.71682">
        <ele>192</ele>
        <time>2018-07-19T08:30:37Z</time>
      </trkpt>
      <trkpt lat="45.96998" lon="4.71683">
        <ele>192</ele>
        <time>2018-07-19T08:30:38Z</time>
      </trkpt>
      <trkpt lat="45.97006" lon="4.71688">
        <ele>193</ele>
        <time>2018-07-19T08:30:40Z</time>
      </trkpt>
      <trkpt lat="45.9701" lon="4.71686">
        <ele>193</ele>
        <time>2018-07-19T08:30:41Z</time>
      </trkpt>
      <trkpt lat="45.97017" lon="4.71692">
        <ele>192</ele>
        <time>2018-07-19T08:30:42Z</time>
      </trkpt>
      <trkpt lat="45.97022" lon="4.71692">
        <ele>192</ele>
        <time>2018-07-19T08:30:43Z</time>
      </trkpt>
      <trkpt lat="45.97027" lon="4.71694">
        <ele>192</ele>
        <time>2018-07-19T08:30:44Z</time>
      </trkpt>
      <trkpt lat="45.97031" lon="4.71695">
        <ele>192</ele>
        <time>2018-07-19T08:30:45Z</time>
      </trkpt>
      <trkpt lat="45.97036" lon="4.71694">
        <ele>192</ele>
        <time>2018-07-19T08:30:46Z</time>
      </trkpt>
      <trkpt lat="45.97041" lon="4.71695">
        <ele>192</ele>
        <time>2018-07-19T08:30:47Z</time>
      </trkpt>
      <trkpt lat="45.97047" lon="4.71695">
        <ele>192</ele>
        <time>2018-07-19T08:30:48Z</time>
      </trkpt>
      <trkpt lat="45.97052" lon="4.71694">
        <ele>193</ele>
        <time>2018-07-19T08:30:49Z</time>
      </trkpt>
      <trkpt lat="45.97057" lon="4.71695">
        <ele>193</ele>
        <time>2018-07-19T08:30:50Z</time>
      </trkpt>
      <trkpt lat="45.97062" lon="4.71696">
        <ele>193</ele>
        <time>2018-07-19T08:30:51Z</time>
      </trkpt>
      <trkpt lat="45.97067" lon="4.71697">
        <ele>193</ele>
        <time>2018-07-19T08:30:52Z</time>
      </trkpt>
      <trkpt lat="45.97072" lon="4.71698">
        <ele>193</ele>
        <time>2018-07-19T08:30:53Z</time>
      </trkpt>
      <trkpt lat="45.97079" lon="4.71699">
        <ele>193</ele>
        <time>2018-07-19T08:30:55Z</time>
      </trkpt>
      <trkpt lat="45.97084" lon="4.717">
        <ele>194</ele>
        <time>2018-07-19T08:30:56Z</time>
      </trkpt>
      <trkpt lat="45.97089" lon="4.717">
        <ele>194</ele>
        <time>2018-07-19T08:30:57Z</time>
      </trkpt>
      <trkpt lat="45.97095" lon="4.71698">
        <ele>194</ele>
        <time>2018-07-19T08:30:58Z</time>
      </trkpt>
      <trkpt lat="45.97103" lon="4.71699">
        <ele>194</ele>
        <time>2018-07-19T08:31:00Z</time>
      </trkpt>
      <trkpt lat="45.97108" lon="4.71699">
        <ele>194</ele>
        <time>2018-07-19T08:31:01Z</time>
      </trkpt>
      <trkpt lat="45.97115" lon="4.71699">
        <ele>194</ele>
        <time>2018-07-19T08:31:02Z</time>
      </trkpt>
      <trkpt lat="45.9712" lon="4.71699">
        <ele>194</ele>
        <time>2018-07-19T08:31:03Z</time>
      </trkpt>
      <trkpt lat="45.97125" lon="4.717">
        <ele>194</ele>
        <time>2018-07-19T08:31:04Z</time>
      </trkpt>
      <trkpt lat="45.9713" lon="4.717">
        <ele>194</ele>
        <time>2018-07-19T08:31:05Z</time>
      </trkpt>
      <trkpt lat="45.97135" lon="4.71701">
        <ele>194</ele>
        <time>2018-07-19T08:31:06Z</time>
      </trkpt>
      <trkpt lat="45.9714" lon="4.71701">
        <ele>195</ele>
        <time>2018-07-19T08:31:07Z</time>
      </trkpt>
      <trkpt lat="45.97148" lon="4.717">
        <ele>195</ele>
        <time>2018-07-19T08:31:08Z</time>
      </trkpt>
      <trkpt lat="45.97152" lon="4.71701">
        <ele>195</ele>
        <time>2018-07-19T08:31:09Z</time>
      </trkpt>
      <trkpt lat="45.97157" lon="4.71701">
        <ele>195</ele>
        <time>2018-07-19T08:31:10Z</time>
      </trkpt>
      <trkpt lat="45.97163" lon="4.71702">
        <ele>195</ele>
        <time>2018-07-19T08:31:11Z</time>
      </trkpt>
      <trkpt lat="45.97168" lon="4.71703">
        <ele>196</ele>
        <time>2018-07-19T08:31:12Z</time>
      </trkpt>
      <trkpt lat="45.97174" lon="4.71703">
        <ele>196</ele>
        <time>2018-07-19T08:31:13Z</time>
      </trkpt>
      <trkpt lat="45.9718" lon="4.71705">
        <ele>196</ele>
        <time>2018-07-19T08:31:14Z</time>
      </trkpt>
      <trkpt lat="45.97185" lon="4.71705">
        <ele>196</ele>
        <time>2018-07-19T08:31:15Z</time>
      </trkpt>
      <trkpt lat="45.97191" lon="4.71706">
        <ele>196</ele>
        <time>2018-07-19T08:31:16Z</time>
      </trkpt>
      <trkpt lat="45.97196" lon="4.71706">
        <ele>196</ele>
        <time>2018-07-19T08:31:17Z</time>
      </trkpt>
      <trkpt lat="45.97201" lon="4.71707">
        <ele>196</ele>
        <time>2018-07-19T08:31:18Z</time>
      </trkpt>
      <trkpt lat="45.97206" lon="4.71708">
        <ele>196</ele>
        <time>2018-07-19T08:31:19Z</time>
      </trkpt>
      <trkpt lat="45.97212" lon="4.71708">
        <ele>196</ele>
        <time>2018-07-19T08:31:20Z</time>
      </trkpt>
      <trkpt lat="45.97217" lon="4.71707">
        <ele>196</ele>
        <time>2018-07-19T08:31:21Z</time>
      </trkpt>
      <trkpt lat="45.97222" lon="4.71709">
        <ele>196</ele>
        <time>2018-07-19T08:31:22Z</time>
      </trkpt>
      <trkpt lat="45.97227" lon="4.7171">
        <ele>196</ele>
        <time>2018-07-19T08:31:23Z</time>
      </trkpt>
      <trkpt lat="45.97232" lon="4.71711">
        <ele>196</ele>
        <time>2018-07-19T08:31:24Z</time>
      </trkpt>
      <trkpt lat="45.97236" lon="4.71711">
        <ele>196</ele>
        <time>2018-07-19T08:31:25Z</time>
      </trkpt>
      <trkpt lat="45.97241" lon="4.71714">
        <ele>196</ele>
        <time>2018-07-19T08:31:26Z</time>
      </trkpt>
      <trkpt lat="45.97245" lon="4.71716">
        <ele>196</ele>
        <time>2018-07-19T08:31:27Z</time>
      </trkpt>
      <trkpt lat="45.9725" lon="4.71717">
        <ele>196</ele>
        <time>2018-07-19T08:31:28Z</time>
      </trkpt>
      <trkpt lat="45.97255" lon="4.7172">
        <ele>196</ele>
        <time>2018-07-19T08:31:29Z</time>
      </trkpt>
      <trkpt lat="45.97262" lon="4.7172">
        <ele>196</ele>
        <time>2018-07-19T08:31:30Z</time>
      </trkpt>
      <trkpt lat="45.97267" lon="4.7172">
        <ele>196</ele>
        <time>2018-07-19T08:31:31Z</time>
      </trkpt>
      <trkpt lat="45.97273" lon="4.71722">
        <ele>196</ele>
        <time>2018-07-19T08:31:32Z</time>
      </trkpt>
      <trkpt lat="45.97278" lon="4.71724">
        <ele>196</ele>
        <time>2018-07-19T08:31:33Z</time>
      </trkpt>
      <trkpt lat="45.97282" lon="4.71728">
        <ele>196</ele>
        <time>2018-07-19T08:31:34Z</time>
      </trkpt>
      <trkpt lat="45.97287" lon="4.71732">
        <ele>196</ele>
        <time>2018-07-19T08:31:35Z</time>
      </trkpt>
      <trkpt lat="45.97293" lon="4.7174">
        <ele>196</ele>
        <time>2018-07-19T08:31:37Z</time>
      </trkpt>
      <trkpt lat="45.973" lon="4.7174">
        <ele>196</ele>
        <time>2018-07-19T08:31:38Z</time>
      </trkpt>
      <trkpt lat="45.97304" lon="4.71739">
        <ele>196</ele>
        <time>2018-07-19T08:31:39Z</time>
      </trkpt>
      <trkpt lat="45.97311" lon="4.71735">
        <ele>195</ele>
        <time>2018-07-19T08:31:40Z</time>
      </trkpt>
      <trkpt lat="45.97315" lon="4.71731">
        <ele>195</ele>
        <time>2018-07-19T08:31:41Z</time>
      </trkpt>
      <trkpt lat="45.9732" lon="4.71725">
        <ele>196</ele>
        <time>2018-07-19T08:31:42Z</time>
      </trkpt>
      <trkpt lat="45.97327" lon="4.71723">
        <ele>196</ele>
        <time>2018-07-19T08:31:43Z</time>
      </trkpt>
      <trkpt lat="45.97331" lon="4.7172">
        <ele>196</ele>
        <time>2018-07-19T08:31:44Z</time>
      </trkpt>
      <trkpt lat="45.97336" lon="4.71721">
        <ele>195</ele>
        <time>2018-07-19T08:31:45Z</time>
      </trkpt>
      <trkpt lat="45.9734" lon="4.71721">
        <ele>195</ele>
        <time>2018-07-19T08:31:46Z</time>
      </trkpt>
      <trkpt lat="45.97346" lon="4.71721">
        <ele>195</ele>
        <time>2018-07-19T08:31:47Z</time>
      </trkpt>
      <trkpt lat="45.97349" lon="4.71721">
        <ele>195</ele>
        <time>2018-07-19T08:31:48Z</time>
      </trkpt>
      <trkpt lat="45.97356" lon="4.71721">
        <ele>195</ele>
        <time>2018-07-19T08:31:49Z</time>
      </trkpt>
      <trkpt lat="45.97362" lon="4.71722">
        <ele>195</ele>
        <time>2018-07-19T08:31:50Z</time>
      </trkpt>
      <trkpt lat="45.97366" lon="4.71724">
        <ele>195</ele>
        <time>2018-07-19T08:31:51Z</time>
      </trkpt>
      <trkpt lat="45.97373" lon="4.71723">
        <ele>195</ele>
        <time>2018-07-19T08:31:52Z</time>
      </trkpt>
      <trkpt lat="45.97378" lon="4.71722">
        <ele>195</ele>
        <time>2018-07-19T08:31:53Z</time>
      </trkpt>
      <trkpt lat="45.97384" lon="4.71724">
        <ele>195</ele>
        <time>2018-07-19T08:31:54Z</time>
      </trkpt>
      <trkpt lat="45.97389" lon="4.71725">
        <ele>195</ele>
        <time>2018-07-19T08:31:55Z</time>
      </trkpt>
      <trkpt lat="45.97395" lon="4.71724">
        <ele>195</ele>
        <time>2018-07-19T08:31:56Z</time>
      </trkpt>
      <trkpt lat="45.97401" lon="4.71725">
        <ele>195</ele>
        <time>2018-07-19T08:31:57Z</time>
      </trkpt>
      <trkpt lat="45.97407" lon="4.71726">
        <ele>195</ele>
        <time>2018-07-19T08:31:58Z</time>
      </trkpt>
      <trkpt lat="45.97412" lon="4.71727">
        <ele>194</ele>
        <time>2018-07-19T08:31:59Z</time>
      </trkpt>
      <trkpt lat="45.97417" lon="4.71729">
        <ele>195</ele>
        <time>2018-07-19T08:32:00Z</time>
      </trkpt>
      <trkpt lat="45.97423" lon="4.71729">
        <ele>195</ele>
        <time>2018-07-19T08:32:01Z</time>
      </trkpt>
      <trkpt lat="45.97429" lon="4.7173">
        <ele>196</ele>
        <time>2018-07-19T08:32:02Z</time>
      </trkpt>
      <trkpt lat="45.97435" lon="4.7173">
        <ele>196</ele>
        <time>2018-07-19T08:32:03Z</time>
      </trkpt>
      <trkpt lat="45.97441" lon="4.71728">
        <ele>196</ele>
        <time>2018-07-19T08:32:04Z</time>
      </trkpt>
      <trkpt lat="45.97446" lon="4.71728">
        <ele>196</ele>
        <time>2018-07-19T08:32:05Z</time>
      </trkpt>
      <trkpt lat="45.97451" lon="4.71728">
        <ele>196</ele>
        <time>2018-07-19T08:32:06Z</time>
      </trkpt>
      <trkpt lat="45.97456" lon="4.71729">
        <ele>197</ele>
        <time>2018-07-19T08:32:07Z</time>
      </trkpt>
      <trkpt lat="45.97461" lon="4.71731">
        <ele>197</ele>
        <time>2018-07-19T08:32:08Z</time>
      </trkpt>
      <trkpt lat="45.97466" lon="4.71731">
        <ele>197</ele>
        <time>2018-07-19T08:32:09Z</time>
      </trkpt>
      <trkpt lat="45.97471" lon="4.71729">
        <ele>197</ele>
        <time>2018-07-19T08:32:10Z</time>
      </trkpt>
      <trkpt lat="45.97477" lon="4.71729">
        <ele>197</ele>
        <time>2018-07-19T08:32:11Z</time>
      </trkpt>
      <trkpt lat="45.97486" lon="4.71728">
        <ele>197</ele>
        <time>2018-07-19T08:32:12Z</time>
      </trkpt>
      <trkpt lat="45.97493" lon="4.71729">
        <ele>197</ele>
        <time>2018-07-19T08:32:13Z</time>
      </trkpt>
      <trkpt lat="45.975" lon="4.71729">
        <ele>197</ele>
        <time>2018-07-19T08:32:14Z</time>
      </trkpt>
      <trkpt lat="45.97504" lon="4.7173">
        <ele>198</ele>
        <time>2018-07-19T08:32:15Z</time>
      </trkpt>
      <trkpt lat="45.97511" lon="4.71731">
        <ele>198</ele>
        <time>2018-07-19T08:32:16Z</time>
      </trkpt>
      <trkpt lat="45.97516" lon="4.71731">
        <ele>198</ele>
        <time>2018-07-19T08:32:17Z</time>
      </trkpt>
      <trkpt lat="45.97523" lon="4.71732">
        <ele>198</ele>
        <time>2018-07-19T08:32:18Z</time>
      </trkpt>
      <trkpt lat="45.97528" lon="4.71732">
        <ele>198</ele>
        <time>2018-07-19T08:32:19Z</time>
      </trkpt>
      <trkpt lat="45.97534" lon="4.71732">
        <ele>198</ele>
        <time>2018-07-19T08:32:20Z</time>
      </trkpt>
      <trkpt lat="45.97541" lon="4.71733">
        <ele>198</ele>
        <time>2018-07-19T08:32:21Z</time>
      </trkpt>
      <trkpt lat="45.97548" lon="4.71731">
        <ele>198</ele>
        <time>2018-07-19T08:32:22Z</time>
      </trkpt>
      <trkpt lat="45.97554" lon="4.71732">
        <ele>198</ele>
        <time>2018-07-19T08:32:23Z</time>
      </trkpt>
      <trkpt lat="45.9756" lon="4.71733">
        <ele>197</ele>
        <time>2018-07-19T08:32:24Z</time>
      </trkpt>
      <trkpt lat="45.97568" lon="4.71736">
        <ele>197</ele>
        <time>2018-07-19T08:32:26Z</time>
      </trkpt>
      <trkpt lat="45.97574" lon="4.71736">
        <ele>197</ele>
        <time>2018-07-19T08:32:27Z</time>
      </trkpt>
      <trkpt lat="45.9758" lon="4.71737">
        <ele>196</ele>
        <time>2018-07-19T08:32:28Z</time>
      </trkpt>
      <trkpt lat="45.97585" lon="4.71738">
        <ele>196</ele>
        <time>2018-07-19T08:32:29Z</time>
      </trkpt>
      <trkpt lat="45.97589" lon="4.71744">
        <ele>196</ele>
        <time>2018-07-19T08:32:30Z</time>
      </trkpt>
      <trkpt lat="45.97592" lon="4.71751">
        <ele>195</ele>
        <time>2018-07-19T08:32:31Z</time>
      </trkpt>
      <trkpt lat="45.97595" lon="4.71756">
        <ele>194</ele>
        <time>2018-07-19T08:32:32Z</time>
      </trkpt>
      <trkpt lat="45.97604" lon="4.71757">
        <ele>194</ele>
        <time>2018-07-19T08:32:33Z</time>
      </trkpt>
      <trkpt lat="45.97609" lon="4.7176">
        <ele>194</ele>
        <time>2018-07-19T08:32:34Z</time>
      </trkpt>
      <trkpt lat="45.97616" lon="4.71758">
        <ele>194</ele>
        <time>2018-07-19T08:32:35Z</time>
      </trkpt>
      <trkpt lat="45.97622" lon="4.71755">
        <ele>194</ele>
        <time>2018-07-19T08:32:36Z</time>
      </trkpt>
      <trkpt lat="45.97627" lon="4.71752">
        <ele>194</ele>
        <time>2018-07-19T08:32:37Z</time>
      </trkpt>
      <trkpt lat="45.97632" lon="4.71749">
        <ele>196</ele>
        <time>2018-07-19T08:32:38Z</time>
      </trkpt>
      <trkpt lat="45.9764" lon="4.71749">
        <ele>196</ele>
        <time>2018-07-19T08:32:39Z</time>
      </trkpt>
      <trkpt lat="45.97644" lon="4.7175">
        <ele>194</ele>
        <time>2018-07-19T08:32:40Z</time>
      </trkpt>
      <trkpt lat="45.97651" lon="4.71752">
        <ele>194</ele>
        <time>2018-07-19T08:32:41Z</time>
      </trkpt>
      <trkpt lat="45.97658" lon="4.71754">
        <ele>194</ele>
        <time>2018-07-19T08:32:42Z</time>
      </trkpt>
      <trkpt lat="45.97665" lon="4.71755">
        <ele>194</ele>
        <time>2018-07-19T08:32:43Z</time>
      </trkpt>
      <trkpt lat="45.97671" lon="4.71755">
        <ele>194</ele>
        <time>2018-07-19T08:32:44Z</time>
      </trkpt>
      <trkpt lat="45.9768" lon="4.71752">
        <ele>194</ele>
        <time>2018-07-19T08:32:45Z</time>
      </trkpt>
      <trkpt lat="45.97686" lon="4.71753">
        <ele>194</ele>
        <time>2018-07-19T08:32:46Z</time>
      </trkpt>
      <trkpt lat="45.97693" lon="4.71754">
        <ele>195</ele>
        <time>2018-07-19T08:32:47Z</time>
      </trkpt>
      <trkpt lat="45.977" lon="4.71754">
        <ele>195</ele>
        <time>2018-07-19T08:32:48Z</time>
      </trkpt>
      <trkpt lat="45.97705" lon="4.71755">
        <ele>195</ele>
        <time>2018-07-19T08:32:49Z</time>
      </trkpt>
      <trkpt lat="45.9771" lon="4.71756">
        <ele>195</ele>
        <time>2018-07-19T08:32:50Z</time>
      </trkpt>
      <trkpt lat="45.97716" lon="4.71756">
        <ele>195</ele>
        <time>2018-07-19T08:32:51Z</time>
      </trkpt>
      <trkpt lat="45.97722" lon="4.71758">
        <ele>195</ele>
        <time>2018-07-19T08:32:52Z</time>
      </trkpt>
      <trkpt lat="45.9773" lon="4.71758">
        <ele>195</ele>
        <time>2018-07-19T08:32:53Z</time>
      </trkpt>
      <trkpt lat="45.97737" lon="4.71758">
        <ele>195</ele>
        <time>2018-07-19T08:32:54Z</time>
      </trkpt>
      <trkpt lat="45.97743" lon="4.71761">
        <ele>195</ele>
        <time>2018-07-19T08:32:55Z</time>
      </trkpt>
      <trkpt lat="45.97749" lon="4.71762">
        <ele>196</ele>
        <time>2018-07-19T08:32:56Z</time>
      </trkpt>
      <trkpt lat="45.97756" lon="4.71761">
        <ele>196</ele>
        <time>2018-07-19T08:32:57Z</time>
      </trkpt>
      <trkpt lat="45.97762" lon="4.71762">
        <ele>196</ele>
        <time>2018-07-19T08:32:58Z</time>
      </trkpt>
      <trkpt lat="45.97768" lon="4.71763">
        <ele>195</ele>
        <time>2018-07-19T08:32:59Z</time>
      </trkpt>
      <trkpt lat="45.97775" lon="4.71762">
        <ele>195</ele>
        <time>2018-07-19T08:33:00Z</time>
      </trkpt>
      <trkpt lat="45.9778" lon="4.71761">
        <ele>195</ele>
        <time>2018-07-19T08:33:01Z</time>
      </trkpt>
      <trkpt lat="45.97785" lon="4.71763">
        <ele>195</ele>
        <time>2018-07-19T08:33:02Z</time>
      </trkpt>
      <trkpt lat="45.97792" lon="4.71762">
        <ele>195</ele>
        <time>2018-07-19T08:33:03Z</time>
      </trkpt>
      <trkpt lat="45.97797" lon="4.71763">
        <ele>195</ele>
        <time>2018-07-19T08:33:04Z</time>
      </trkpt>
      <trkpt lat="45.97803" lon="4.71764">
        <ele>195</ele>
        <time>2018-07-19T08:33:05Z</time>
      </trkpt>
      <trkpt lat="45.97814" lon="4.71761">
        <ele>195</ele>
        <time>2018-07-19T08:33:06Z</time>
      </trkpt>
      <trkpt lat="45.97819" lon="4.71761">
        <ele>195</ele>
        <time>2018-07-19T08:33:07Z</time>
      </trkpt>
      <trkpt lat="45.97824" lon="4.71761">
        <ele>195</ele>
        <time>2018-07-19T08:33:08Z</time>
      </trkpt>
      <trkpt lat="45.97831" lon="4.71761">
        <ele>195</ele>
        <time>2018-07-19T08:33:09Z</time>
      </trkpt>
      <trkpt lat="45.97837" lon="4.71761">
        <ele>195</ele>
        <time>2018-07-19T08:33:10Z</time>
      </trkpt>
      <trkpt lat="45.97845" lon="4.71762">
        <ele>195</ele>
        <time>2018-07-19T08:33:11Z</time>
      </trkpt>
      <trkpt lat="45.97849" lon="4.71766">
        <ele>195</ele>
        <time>2018-07-19T08:33:12Z</time>
      </trkpt>
      <trkpt lat="45.97853" lon="4.71771">
        <ele>195</ele>
        <time>2018-07-19T08:33:13Z</time>
      </trkpt>
      <trkpt lat="45.97858" lon="4.71774">
        <ele>194</ele>
        <time>2018-07-19T08:33:14Z</time>
      </trkpt>
      <trkpt lat="45.97864" lon="4.7178">
        <ele>194</ele>
        <time>2018-07-19T08:33:15Z</time>
      </trkpt>
      <trkpt lat="45.97868" lon="4.71781">
        <ele>194</ele>
        <time>2018-07-19T08:33:16Z</time>
      </trkpt>
      <trkpt lat="45.97874" lon="4.71783">
        <ele>194</ele>
        <time>2018-07-19T08:33:17Z</time>
      </trkpt>
      <trkpt lat="45.9788" lon="4.71781">
        <ele>194</ele>
        <time>2018-07-19T08:33:18Z</time>
      </trkpt>
      <trkpt lat="45.97884" lon="4.71777">
        <ele>194</ele>
        <time>2018-07-19T08:33:19Z</time>
      </trkpt>
      <trkpt lat="45.97889" lon="4.71772">
        <ele>194</ele>
        <time>2018-07-19T08:33:20Z</time>
      </trkpt>
      <trkpt lat="45.97892" lon="4.71765">
        <ele>194</ele>
        <time>2018-07-19T08:33:21Z</time>
      </trkpt>
      <trkpt lat="45.97894" lon="4.71757">
        <ele>195</ele>
        <time>2018-07-19T08:33:22Z</time>
      </trkpt>
      <trkpt lat="45.97894" lon="4.71748">
        <ele>196</ele>
        <time>2018-07-19T08:33:23Z</time>
      </trkpt>
      <trkpt lat="45.97894" lon="4.7174">
        <ele>196</ele>
        <time>2018-07-19T08:33:24Z</time>
      </trkpt>
      <trkpt lat="45.97892" lon="4.71733">
        <ele>196</ele>
        <time>2018-07-19T08:33:25Z</time>
      </trkpt>
      <trkpt lat="45.9789" lon="4.71725">
        <ele>196</ele>
        <time>2018-07-19T08:33:26Z</time>
      </trkpt>
      <trkpt lat="45.97887" lon="4.71719">
        <ele>196</ele>
        <time>2018-07-19T08:33:27Z</time>
      </trkpt>
      <trkpt lat="45.97883" lon="4.71713">
        <ele>196</ele>
        <time>2018-07-19T08:33:28Z</time>
      </trkpt>
      <trkpt lat="45.97879" lon="4.71708">
        <ele>196</ele>
        <time>2018-07-19T08:33:29Z</time>
      </trkpt>
      <trkpt lat="45.97876" lon="4.71701">
        <ele>196</ele>
        <time>2018-07-19T08:33:30Z</time>
      </trkpt>
      <trkpt lat="45.97874" lon="4.71693">
        <ele>196</ele>
        <time>2018-07-19T08:33:31Z</time>
      </trkpt>
      <trkpt lat="45.97872" lon="4.71685">
        <ele>196</ele>
        <time>2018-07-19T08:33:32Z</time>
      </trkpt>
      <trkpt lat="45.97873" lon="4.71677">
        <ele>196</ele>
        <time>2018-07-19T08:33:33Z</time>
      </trkpt>
      <trkpt lat="45.97878" lon="4.7167">
        <ele>196</ele>
        <time>2018-07-19T08:33:34Z</time>
      </trkpt>
      <trkpt lat="45.97881" lon="4.71664">
        <ele>197</ele>
        <time>2018-07-19T08:33:35Z</time>
      </trkpt>
      <trkpt lat="45.97881" lon="4.71655">
        <ele>197</ele>
        <time>2018-07-19T08:33:36Z</time>
      </trkpt>
      <trkpt lat="45.97879" lon="4.71648">
        <ele>197</ele>
        <time>2018-07-19T08:33:37Z</time>
      </trkpt>
      <trkpt lat="45.9788" lon="4.71641">
        <ele>197</ele>
        <time>2018-07-19T08:33:38Z</time>
      </trkpt>
      <trkpt lat="45.9788" lon="4.71633">
        <ele>197</ele>
        <time>2018-07-19T08:33:39Z</time>
      </trkpt>
      <trkpt lat="45.97882" lon="4.71625">
        <ele>197</ele>
        <time>2018-07-19T08:33:40Z</time>
      </trkpt>
      <trkpt lat="45.97881" lon="4.71617">
        <ele>197</ele>
        <time>2018-07-19T08:33:41Z</time>
      </trkpt>
      <trkpt lat="45.97881" lon="4.71609">
        <ele>197</ele>
        <time>2018-07-19T08:33:42Z</time>
      </trkpt>
      <trkpt lat="45.97881" lon="4.71602">
        <ele>197</ele>
        <time>2018-07-19T08:33:43Z</time>
      </trkpt>
      <trkpt lat="45.97882" lon="4.71593">
        <ele>197</ele>
        <time>2018-07-19T08:33:44Z</time>
      </trkpt>
      <trkpt lat="45.97881" lon="4.71586">
        <ele>197</ele>
        <time>2018-07-19T08:33:45Z</time>
      </trkpt>
      <trkpt lat="45.97881" lon="4.71579">
        <ele>198</ele>
        <time>2018-07-19T08:33:46Z</time>
      </trkpt>
      <trkpt lat="45.97881" lon="4.71572">
        <ele>198</ele>
        <time>2018-07-19T08:33:47Z</time>
      </trkpt>
      <trkpt lat="45.9788" lon="4.71565">
        <ele>198</ele>
        <time>2018-07-19T08:33:48Z</time>
      </trkpt>
      <trkpt lat="45.97878" lon="4.71557">
        <ele>198</ele>
        <time>2018-07-19T08:33:49Z</time>
      </trkpt>
      <trkpt lat="45.97876" lon="4.7155">
        <ele>199</ele>
        <time>2018-07-19T08:33:50Z</time>
      </trkpt>
      <trkpt lat="45.97875" lon="4.71542">
        <ele>199</ele>
        <time>2018-07-19T08:33:51Z</time>
      </trkpt>
      <trkpt lat="45.97875" lon="4.71535">
        <ele>199</ele>
        <time>2018-07-19T08:33:52Z</time>
      </trkpt>
      <trkpt lat="45.97874" lon="4.71528">
        <ele>199</ele>
        <time>2018-07-19T08:33:53Z</time>
      </trkpt>
      <trkpt lat="45.9787" lon="4.71522">
        <ele>199</ele>
        <time>2018-07-19T08:33:54Z</time>
      </trkpt>
      <trkpt lat="45.97869" lon="4.71516">
        <ele>199</ele>
        <time>2018-07-19T08:33:55Z</time>
      </trkpt>
      <trkpt lat="45.97868" lon="4.71509">
        <ele>199</ele>
        <time>2018-07-19T08:33:56Z</time>
      </trkpt>
      <trkpt lat="45.97865" lon="4.71502">
        <ele>200</ele>
        <time>2018-07-19T08:33:57Z</time>
      </trkpt>
      <trkpt lat="45.97865" lon="4.71495">
        <ele>201</ele>
        <time>2018-07-19T08:33:58Z</time>
      </trkpt>
      <trkpt lat="45.97863" lon="4.71488">
        <ele>201</ele>
        <time>2018-07-19T08:33:59Z</time>
      </trkpt>
      <trkpt lat="45.97863" lon="4.71481">
        <ele>201</ele>
        <time>2018-07-19T08:34:00Z</time>
      </trkpt>
      <trkpt lat="45.97863" lon="4.71475">
        <ele>201</ele>
        <time>2018-07-19T08:34:01Z</time>
      </trkpt>
      <trkpt lat="45.97859" lon="4.71466">
        <ele>201</ele>
        <time>2018-07-19T08:34:02Z</time>
      </trkpt>
      <trkpt lat="45.97857" lon="4.71459">
        <ele>201</ele>
        <time>2018-07-19T08:34:03Z</time>
      </trkpt>
      <trkpt lat="45.97857" lon="4.71452">
        <ele>201</ele>
        <time>2018-07-19T08:34:04Z</time>
      </trkpt>
      <trkpt lat="45.97857" lon="4.71446">
        <ele>201</ele>
        <time>2018-07-19T08:34:05Z</time>
      </trkpt>
      <trkpt lat="45.97856" lon="4.71439">
        <ele>201</ele>
        <time>2018-07-19T08:34:06Z</time>
      </trkpt>
      <trkpt lat="45.97855" lon="4.71426">
        <ele>201</ele>
        <time>2018-07-19T08:34:08Z</time>
      </trkpt>
      <trkpt lat="45.97853" lon="4.7142">
        <ele>202</ele>
        <time>2018-07-19T08:34:09Z</time>
      </trkpt>
      <trkpt lat="45.97853" lon="4.71407">
        <ele>203</ele>
        <time>2018-07-19T08:34:11Z</time>
      </trkpt>
      <trkpt lat="45.97852" lon="4.71401">
        <ele>203</ele>
        <time>2018-07-19T08:34:12Z</time>
      </trkpt>
      <trkpt lat="45.97851" lon="4.7139">
        <ele>203</ele>
        <time>2018-07-19T08:34:14Z</time>
      </trkpt>
      <trkpt lat="45.97851" lon="4.71384">
        <ele>203</ele>
        <time>2018-07-19T08:34:15Z</time>
      </trkpt>
      <trkpt lat="45.9785" lon="4.71376">
        <ele>203</ele>
        <time>2018-07-19T08:34:17Z</time>
      </trkpt>
      <trkpt lat="45.9785" lon="4.71366">
        <ele>204</ele>
        <time>2018-07-19T08:34:18Z</time>
      </trkpt>
      <trkpt lat="45.97851" lon="4.71354">
        <ele>204</ele>
        <time>2018-07-19T08:34:20Z</time>
      </trkpt>
      <trkpt lat="45.97849" lon="4.71348">
        <ele>204</ele>
        <time>2018-07-19T08:34:21Z</time>
      </trkpt>
      <trkpt lat="45.97847" lon="4.71336">
        <ele>204</ele>
        <time>2018-07-19T08:34:23Z</time>
      </trkpt>
      <trkpt lat="45.97847" lon="4.7133">
        <ele>205</ele>
        <time>2018-07-19T08:34:24Z</time>
      </trkpt>
      <trkpt lat="45.97849" lon="4.71318">
        <ele>205</ele>
        <time>2018-07-19T08:34:26Z</time>
      </trkpt>
      <trkpt lat="45.97849" lon="4.71315">
        <ele>205</ele>
        <time>2018-07-19T08:34:27Z</time>
      </trkpt>
      <trkpt lat="45.9785" lon="4.71305">
        <ele>206</ele>
        <time>2018-07-19T08:34:30Z</time>
      </trkpt>
      <trkpt lat="45.9785" lon="4.71301">
        <ele>206</ele>
        <time>2018-07-19T08:34:31Z</time>
      </trkpt>
      <trkpt lat="45.97852" lon="4.7129">
        <ele>206</ele>
        <time>2018-07-19T08:34:34Z</time>
      </trkpt>
      <trkpt lat="45.97852" lon="4.71286">
        <ele>206</ele>
        <time>2018-07-19T08:34:35Z</time>
      </trkpt>
      <trkpt lat="45.97853" lon="4.71277">
        <ele>206</ele>
        <time>2018-07-19T08:34:37Z</time>
      </trkpt>
      <trkpt lat="45.97853" lon="4.71272">
        <ele>206</ele>
        <time>2018-07-19T08:34:38Z</time>
      </trkpt>
      <trkpt lat="45.97853" lon="4.71262">
        <ele>206</ele>
        <time>2018-07-19T08:34:41Z</time>
      </trkpt>
      <trkpt lat="45.97854" lon="4.71257">
        <ele>207</ele>
        <time>2018-07-19T08:34:42Z</time>
      </trkpt>
      <trkpt lat="45.97854" lon="4.71248">
        <ele>208</ele>
        <time>2018-07-19T08:34:44Z</time>
      </trkpt>
      <trkpt lat="45.97854" lon="4.71243">
        <ele>208</ele>
        <time>2018-07-19T08:34:45Z</time>
      </trkpt>
      <trkpt lat="45.97855" lon="4.71231">
        <ele>208</ele>
        <time>2018-07-19T08:34:48Z</time>
      </trkpt>
      <trkpt lat="45.97855" lon="4.71226">
        <ele>208</ele>
        <time>2018-07-19T08:34:49Z</time>
      </trkpt>
      <trkpt lat="45.97854" lon="4.71214">
        <ele>208</ele>
        <time>2018-07-19T08:34:52Z</time>
      </trkpt>
      <trkpt lat="45.97854" lon="4.7121">
        <ele>209</ele>
        <time>2018-07-19T08:34:53Z</time>
      </trkpt>
      <trkpt lat="45.97854" lon="4.71197">
        <ele>209</ele>
        <time>2018-07-19T08:34:56Z</time>
      </trkpt>
      <trkpt lat="45.97854" lon="4.71193">
        <ele>209</ele>
        <time>2018-07-19T08:34:57Z</time>
      </trkpt>
      <trkpt lat="45.97854" lon="4.71183">
        <ele>209</ele>
        <time>2018-07-19T08:34:59Z</time>
      </trkpt>
      <trkpt lat="45.97854" lon="4.71179">
        <ele>209</ele>
        <time>2018-07-19T08:35:00Z</time>
      </trkpt>
      <trkpt lat="45.97855" lon="4.71171">
        <ele>209</ele>
        <time>2018-07-19T08:35:02Z</time>
      </trkpt>
      <trkpt lat="45.97856" lon="4.71166">
        <ele>212</ele>
        <time>2018-07-19T08:35:03Z</time>
      </trkpt>
      <trkpt lat="45.97856" lon="4.71161">
        <ele>212</ele>
        <time>2018-07-19T08:35:04Z</time>
      </trkpt>
      <trkpt lat="45.97854" lon="4.71145">
        <ele>212</ele>
        <time>2018-07-19T08:35:05Z</time>
      </trkpt>
      <trkpt lat="45.97852" lon="4.71134">
        <ele>212</ele>
        <time>2018-07-19T08:35:07Z</time>
      </trkpt>
      <trkpt lat="45.97852" lon="4.71131">
        <ele>212</ele>
        <time>2018-07-19T08:35:08Z</time>
      </trkpt>
      <trkpt lat="45.97851" lon="4.7112">
        <ele>213</ele>
        <time>2018-07-19T08:35:10Z</time>
      </trkpt>
      <trkpt lat="45.97851" lon="4.71117">
        <ele>213</ele>
        <time>2018-07-19T08:35:11Z</time>
      </trkpt>
      <trkpt lat="45.97849" lon="4.71106">
        <ele>213</ele>
        <time>2018-07-19T08:35:14Z</time>
      </trkpt>
      <trkpt lat="45.97848" lon="4.71102">
        <ele>213</ele>
        <time>2018-07-19T08:35:15Z</time>
      </trkpt>
      <trkpt lat="45.97846" lon="4.71088">
        <ele>213</ele>
        <time>2018-07-19T08:35:16Z</time>
      </trkpt>
      <trkpt lat="45.97844" lon="4.71078">
        <ele>215</ele>
        <time>2018-07-19T08:35:19Z</time>
      </trkpt>
      <trkpt lat="45.97843" lon="4.71075">
        <ele>215</ele>
        <time>2018-07-19T08:35:20Z</time>
      </trkpt>
      <trkpt lat="45.97841" lon="4.71063">
        <ele>215</ele>
        <time>2018-07-19T08:35:24Z</time>
      </trkpt>
      <trkpt lat="45.97841" lon="4.71059">
        <ele>215</ele>
        <time>2018-07-19T08:35:25Z</time>
      </trkpt>
      <trkpt lat="45.9784" lon="4.71047">
        <ele>215</ele>
        <time>2018-07-19T08:35:28Z</time>
      </trkpt>
      <trkpt lat="45.9784" lon="4.71042">
        <ele>215</ele>
        <time>2018-07-19T08:35:29Z</time>
      </trkpt>
      <trkpt lat="45.9784" lon="4.71033">
        <ele>216</ele>
        <time>2018-07-19T08:35:31Z</time>
      </trkpt>
      <trkpt lat="45.97839" lon="4.71028">
        <ele>216</ele>
        <time>2018-07-19T08:35:32Z</time>
      </trkpt>
      <trkpt lat="45.97837" lon="4.71012">
        <ele>216</ele>
        <time>2018-07-19T08:35:33Z</time>
      </trkpt>
      <trkpt lat="45.97835" lon="4.71001">
        <ele>216</ele>
        <time>2018-07-19T08:35:36Z</time>
      </trkpt>
      <trkpt lat="45.97835" lon="4.70998">
        <ele>216</ele>
        <time>2018-07-19T08:35:37Z</time>
      </trkpt>
      <trkpt lat="45.97834" lon="4.70987">
        <ele>217</ele>
        <time>2018-07-19T08:35:38Z</time>
      </trkpt>
      <trkpt lat="45.97833" lon="4.70984">
        <ele>217</ele>
        <time>2018-07-19T08:35:39Z</time>
      </trkpt>
      <trkpt lat="45.97833" lon="4.70972">
        <ele>218</ele>
        <time>2018-07-19T08:35:43Z</time>
      </trkpt>
      <trkpt lat="45.97833" lon="4.70968">
        <ele>218</ele>
        <time>2018-07-19T08:35:44Z</time>
      </trkpt>
      <trkpt lat="45.97832" lon="4.70956">
        <ele>218</ele>
        <time>2018-07-19T08:35:47Z</time>
      </trkpt>
      <trkpt lat="45.97832" lon="4.70952">
        <ele>218</ele>
        <time>2018-07-19T08:35:48Z</time>
      </trkpt>
      <trkpt lat="45.97833" lon="4.70939">
        <ele>218</ele>
        <time>2018-07-19T08:35:51Z</time>
      </trkpt>
      <trkpt lat="45.97833" lon="4.70935">
        <ele>218</ele>
        <time>2018-07-19T08:35:52Z</time>
      </trkpt>
      <trkpt lat="45.97834" lon="4.70926">
        <ele>219</ele>
        <time>2018-07-19T08:35:54Z</time>
      </trkpt>
      <trkpt lat="45.97834" lon="4.70922">
        <ele>219</ele>
        <time>2018-07-19T08:35:55Z</time>
      </trkpt>
      <trkpt lat="45.97833" lon="4.70914">
        <ele>219</ele>
        <time>2018-07-19T08:35:57Z</time>
      </trkpt>
      <trkpt lat="45.97831" lon="4.70909">
        <ele>219</ele>
        <time>2018-07-19T08:35:58Z</time>
      </trkpt>
      <trkpt lat="45.9783" lon="4.70905">
        <ele>219</ele>
        <time>2018-07-19T08:35:59Z</time>
      </trkpt>
      <trkpt lat="45.97825" lon="4.7089">
        <ele>220</ele>
        <time>2018-07-19T08:36:00Z</time>
      </trkpt>
      <trkpt lat="45.97823" lon="4.70883">
        <ele>220</ele>
        <time>2018-07-19T08:36:03Z</time>
      </trkpt>
      <trkpt lat="45.97821" lon="4.70873">
        <ele>220</ele>
        <time>2018-07-19T08:36:04Z</time>
      </trkpt>
      <trkpt lat="45.97819" lon="4.70862">
        <ele>220</ele>
        <time>2018-07-19T08:36:06Z</time>
      </trkpt>
      <trkpt lat="45.97817" lon="4.70857">
        <ele>220</ele>
        <time>2018-07-19T08:36:07Z</time>
      </trkpt>
      <trkpt lat="45.97813" lon="4.70846">
        <ele>220</ele>
        <time>2018-07-19T08:36:09Z</time>
      </trkpt>
      <trkpt lat="45.97811" lon="4.70841">
        <ele>220</ele>
        <time>2018-07-19T08:36:10Z</time>
      </trkpt>
      <trkpt lat="45.97807" lon="4.70829">
        <ele>221</ele>
        <time>2018-07-19T08:36:13Z</time>
      </trkpt>
      <trkpt lat="45.97806" lon="4.70826">
        <ele>221</ele>
        <time>2018-07-19T08:36:14Z</time>
      </trkpt>
      <trkpt lat="45.97804" lon="4.70816">
        <ele>221</ele>
        <time>2018-07-19T08:36:17Z</time>
      </trkpt>
      <trkpt lat="45.97803" lon="4.70812">
        <ele>221</ele>
        <time>2018-07-19T08:36:18Z</time>
      </trkpt>
      <trkpt lat="45.978" lon="4.70799">
        <ele>221</ele>
        <time>2018-07-19T08:36:19Z</time>
      </trkpt>
      <trkpt lat="45.978" lon="4.70788">
        <ele>221</ele>
        <time>2018-07-19T08:36:21Z</time>
      </trkpt>
      <trkpt lat="45.97802" lon="4.70783">
        <ele>221</ele>
        <time>2018-07-19T08:36:22Z</time>
      </trkpt>
      <trkpt lat="45.97804" lon="4.70773">
        <ele>221</ele>
        <time>2018-07-19T08:36:24Z</time>
      </trkpt>
      <trkpt lat="45.97805" lon="4.70767">
        <ele>221</ele>
        <time>2018-07-19T08:36:25Z</time>
      </trkpt>
      <trkpt lat="45.97804" lon="4.70757">
        <ele>221</ele>
        <time>2018-07-19T08:36:27Z</time>
      </trkpt>
      <trkpt lat="45.97802" lon="4.70752">
        <ele>221</ele>
        <time>2018-07-19T08:36:28Z</time>
      </trkpt>
      <trkpt lat="45.97798" lon="4.70746">
        <ele>222</ele>
        <time>2018-07-19T08:36:30Z</time>
      </trkpt>
      <trkpt lat="45.97794" lon="4.70741">
        <ele>222</ele>
        <time>2018-07-19T08:36:31Z</time>
      </trkpt>
      <trkpt lat="45.97791" lon="4.70733">
        <ele>222</ele>
        <time>2018-07-19T08:36:33Z</time>
      </trkpt>
      <trkpt lat="45.9779" lon="4.70729">
        <ele>222</ele>
        <time>2018-07-19T08:36:34Z</time>
      </trkpt>
      <trkpt lat="45.9779" lon="4.70718">
        <ele>222</ele>
        <time>2018-07-19T08:36:36Z</time>
      </trkpt>
      <trkpt lat="45.97792" lon="4.70711">
        <ele>222</ele>
        <time>2018-07-19T08:36:37Z</time>
      </trkpt>
      <trkpt lat="45.97792" lon="4.707">
        <ele>222</ele>
        <time>2018-07-19T08:36:39Z</time>
      </trkpt>
      <trkpt lat="45.97792" lon="4.70695">
        <ele>222</ele>
        <time>2018-07-19T08:36:40Z</time>
      </trkpt>
      <trkpt lat="45.97791" lon="4.70684">
        <ele>222</ele>
        <time>2018-07-19T08:36:42Z</time>
      </trkpt>
      <trkpt lat="45.97793" lon="4.70678">
        <ele>222</ele>
        <time>2018-07-19T08:36:43Z</time>
      </trkpt>
      <trkpt lat="45.97794" lon="4.70665">
        <ele>222</ele>
        <time>2018-07-19T08:36:47Z</time>
      </trkpt>
      <trkpt lat="45.97795" lon="4.70654">
        <ele>222</ele>
        <time>2018-07-19T08:36:48Z</time>
      </trkpt>
      <trkpt lat="45.97795" lon="4.70643">
        <ele>222</ele>
        <time>2018-07-19T08:36:50Z</time>
      </trkpt>
      <trkpt lat="45.97795" lon="4.70637">
        <ele>222</ele>
        <time>2018-07-19T08:36:51Z</time>
      </trkpt>
      <trkpt lat="45.97795" lon="4.70626">
        <ele>222</ele>
        <time>2018-07-19T08:36:53Z</time>
      </trkpt>
      <trkpt lat="45.97796" lon="4.7062">
        <ele>222</ele>
        <time>2018-07-19T08:36:54Z</time>
      </trkpt>
      <trkpt lat="45.97797" lon="4.70609">
        <ele>223</ele>
        <time>2018-07-19T08:36:56Z</time>
      </trkpt>
      <trkpt lat="45.97798" lon="4.70604">
        <ele>223</ele>
        <time>2018-07-19T08:36:57Z</time>
      </trkpt>
      <trkpt lat="45.97801" lon="4.70593">
        <ele>223</ele>
        <time>2018-07-19T08:36:59Z</time>
      </trkpt>
      <trkpt lat="45.97801" lon="4.70587">
        <ele>223</ele>
        <time>2018-07-19T08:37:00Z</time>
      </trkpt>
      <trkpt lat="45.97801" lon="4.70574">
        <ele>222</ele>
        <time>2018-07-19T08:37:02Z</time>
      </trkpt>
      <trkpt lat="45.97801" lon="4.70569">
        <ele>222</ele>
        <time>2018-07-19T08:37:03Z</time>
      </trkpt>
      <trkpt lat="45.978" lon="4.70558">
        <ele>222</ele>
        <time>2018-07-19T08:37:05Z</time>
      </trkpt>
      <trkpt lat="45.978" lon="4.70555">
        <ele>222</ele>
        <time>2018-07-19T08:37:06Z</time>
      </trkpt>
      <trkpt lat="45.97799" lon="4.70545">
        <ele>222</ele>
        <time>2018-07-19T08:37:08Z</time>
      </trkpt>
      <trkpt lat="45.97799" lon="4.70538">
        <ele>222</ele>
        <time>2018-07-19T08:37:09Z</time>
      </trkpt>
      <trkpt lat="45.978" lon="4.70525">
        <ele>222</ele>
        <time>2018-07-19T08:37:13Z</time>
      </trkpt>
      <trkpt lat="45.978" lon="4.70515">
        <ele>222</ele>
        <time>2018-07-19T08:37:14Z</time>
      </trkpt>
      <trkpt lat="45.978" lon="4.70503">
        <ele>222</ele>
        <time>2018-07-19T08:37:16Z</time>
      </trkpt>
      <trkpt lat="45.978" lon="4.70497">
        <ele>221</ele>
        <time>2018-07-19T08:37:17Z</time>
      </trkpt>
      <trkpt lat="45.978" lon="4.70485">
        <ele>221</ele>
        <time>2018-07-19T08:37:19Z</time>
      </trkpt>
      <trkpt lat="45.978" lon="4.70479">
        <ele>221</ele>
        <time>2018-07-19T08:37:20Z</time>
      </trkpt>
      <trkpt lat="45.978" lon="4.70473">
        <ele>221</ele>
        <time>2018-07-19T08:37:21Z</time>
      </trkpt>
      <trkpt lat="45.978" lon="4.70465">
        <ele>221</ele>
        <time>2018-07-19T08:37:22Z</time>
      </trkpt>
      <trkpt lat="45.978" lon="4.70458">
        <ele>221</ele>
        <time>2018-07-19T08:37:23Z</time>
      </trkpt>
      <trkpt lat="45.97801" lon="4.70451">
        <ele>221</ele>
        <time>2018-07-19T08:37:24Z</time>
      </trkpt>
      <trkpt lat="45.97803" lon="4.70445">
        <ele>221</ele>
        <time>2018-07-19T08:37:25Z</time>
      </trkpt>
      <trkpt lat="45.97805" lon="4.70437">
        <ele>221</ele>
        <time>2018-07-19T08:37:26Z</time>
      </trkpt>
      <trkpt lat="45.97807" lon="4.7043">
        <ele>221</ele>
        <time>2018-07-19T08:37:27Z</time>
      </trkpt>
      <trkpt lat="45.97808" lon="4.70423">
        <ele>221</ele>
        <time>2018-07-19T08:37:28Z</time>
      </trkpt>
      <trkpt lat="45.97809" lon="4.70416">
        <ele>221</ele>
        <time>2018-07-19T08:37:30Z</time>
      </trkpt>
      <trkpt lat="45.9781" lon="4.70406">
        <ele>221</ele>
        <time>2018-07-19T08:37:31Z</time>
      </trkpt>
      <trkpt lat="45.9781" lon="4.70398">
        <ele>222</ele>
        <time>2018-07-19T08:37:32Z</time>
      </trkpt>
      <trkpt lat="45.97811" lon="4.7039">
        <ele>222</ele>
        <time>2018-07-19T08:37:33Z</time>
      </trkpt>
      <trkpt lat="45.97812" lon="4.70379">
        <ele>222</ele>
        <time>2018-07-19T08:37:35Z</time>
      </trkpt>
      <trkpt lat="45.97813" lon="4.70373">
        <ele>222</ele>
        <time>2018-07-19T08:37:36Z</time>
      </trkpt>
      <trkpt lat="45.97813" lon="4.70365">
        <ele>222</ele>
        <time>2018-07-19T08:37:37Z</time>
      </trkpt>
      <trkpt lat="45.97814" lon="4.70358">
        <ele>222</ele>
        <time>2018-07-19T08:37:38Z</time>
      </trkpt>
      <trkpt lat="45.97815" lon="4.7035">
        <ele>222</ele>
        <time>2018-07-19T08:37:39Z</time>
      </trkpt>
      <trkpt lat="45.97816" lon="4.70344">
        <ele>222</ele>
        <time>2018-07-19T08:37:40Z</time>
      </trkpt>
      <trkpt lat="45.97817" lon="4.70338">
        <ele>222</ele>
        <time>2018-07-19T08:37:41Z</time>
      </trkpt>
      <trkpt lat="45.97819" lon="4.70331">
        <ele>222</ele>
        <time>2018-07-19T08:37:42Z</time>
      </trkpt>
      <trkpt lat="45.97819" lon="4.70318">
        <ele>222</ele>
        <time>2018-07-19T08:37:44Z</time>
      </trkpt>
      <trkpt lat="45.97818" lon="4.70312">
        <ele>223</ele>
        <time>2018-07-19T08:37:45Z</time>
      </trkpt>
      <trkpt lat="45.97817" lon="4.70305">
        <ele>223</ele>
        <time>2018-07-19T08:37:46Z</time>
      </trkpt>
      <trkpt lat="45.97819" lon="4.70299">
        <ele>223</ele>
        <time>2018-07-19T08:37:47Z</time>
      </trkpt>
      <trkpt lat="45.9782" lon="4.70287">
        <ele>223</ele>
        <time>2018-07-19T08:37:49Z</time>
      </trkpt>
      <trkpt lat="45.9782" lon="4.70281">
        <ele>223</ele>
        <time>2018-07-19T08:37:50Z</time>
      </trkpt>
      <trkpt lat="45.97821" lon="4.70268">
        <ele>223</ele>
        <time>2018-07-19T08:37:52Z</time>
      </trkpt>
      <trkpt lat="45.9782" lon="4.70261">
        <ele>223</ele>
        <time>2018-07-19T08:37:53Z</time>
      </trkpt>
      <trkpt lat="45.97819" lon="4.70252">
        <ele>223</ele>
        <time>2018-07-19T08:37:55Z</time>
      </trkpt>
      <trkpt lat="45.9782" lon="4.70244">
        <ele>223</ele>
        <time>2018-07-19T08:37:56Z</time>
      </trkpt>
      <trkpt lat="45.9782" lon="4.70231">
        <ele>223</ele>
        <time>2018-07-19T08:37:58Z</time>
      </trkpt>
      <trkpt lat="45.97822" lon="4.70225">
        <ele>223</ele>
        <time>2018-07-19T08:37:59Z</time>
      </trkpt>
      <trkpt lat="45.97824" lon="4.70219">
        <ele>223</ele>
        <time>2018-07-19T08:38:00Z</time>
      </trkpt>
      <trkpt lat="45.97826" lon="4.70213">
        <ele>223</ele>
        <time>2018-07-19T08:38:01Z</time>
      </trkpt>
      <trkpt lat="45.97826" lon="4.70206">
        <ele>223</ele>
        <time>2018-07-19T08:38:02Z</time>
      </trkpt>
      <trkpt lat="45.97824" lon="4.70199">
        <ele>223</ele>
        <time>2018-07-19T08:38:03Z</time>
      </trkpt>
      <trkpt lat="45.97825" lon="4.70193">
        <ele>222</ele>
        <time>2018-07-19T08:38:04Z</time>
      </trkpt>
      <trkpt lat="45.97825" lon="4.70186">
        <ele>222</ele>
        <time>2018-07-19T08:38:05Z</time>
      </trkpt>
      <trkpt lat="45.97825" lon="4.70179">
        <ele>222</ele>
        <time>2018-07-19T08:38:06Z</time>
      </trkpt>
      <trkpt lat="45.97825" lon="4.70172">
        <ele>222</ele>
        <time>2018-07-19T08:38:07Z</time>
      </trkpt>
      <trkpt lat="45.97825" lon="4.70165">
        <ele>221</ele>
        <time>2018-07-19T08:38:08Z</time>
      </trkpt>
      <trkpt lat="45.97825" lon="4.70157">
        <ele>221</ele>
        <time>2018-07-19T08:38:09Z</time>
      </trkpt>
      <trkpt lat="45.97825" lon="4.7015">
        <ele>221</ele>
        <time>2018-07-19T08:38:10Z</time>
      </trkpt>
      <trkpt lat="45.97824" lon="4.70142">
        <ele>221</ele>
        <time>2018-07-19T08:38:11Z</time>
      </trkpt>
      <trkpt lat="45.97824" lon="4.70134">
        <ele>221</ele>
        <time>2018-07-19T08:38:12Z</time>
      </trkpt>
      <trkpt lat="45.97823" lon="4.70126">
        <ele>221</ele>
        <time>2018-07-19T08:38:13Z</time>
      </trkpt>
      <trkpt lat="45.97823" lon="4.70119">
        <ele>221</ele>
        <time>2018-07-19T08:38:14Z</time>
      </trkpt>
      <trkpt lat="45.97822" lon="4.70111">
        <ele>221</ele>
        <time>2018-07-19T08:38:15Z</time>
      </trkpt>
      <trkpt lat="45.97823" lon="4.70103">
        <ele>220</ele>
        <time>2018-07-19T08:38:16Z</time>
      </trkpt>
      <trkpt lat="45.97823" lon="4.70094">
        <ele>220</ele>
        <time>2018-07-19T08:38:17Z</time>
      </trkpt>
      <trkpt lat="45.97822" lon="4.70086">
        <ele>220</ele>
        <time>2018-07-19T08:38:18Z</time>
      </trkpt>
      <trkpt lat="45.97823" lon="4.70078">
        <ele>219</ele>
        <time>2018-07-19T08:38:19Z</time>
      </trkpt>
      <trkpt lat="45.97824" lon="4.70069">
        <ele>219</ele>
        <time>2018-07-19T08:38:20Z</time>
      </trkpt>
      <trkpt lat="45.97824" lon="4.7006">
        <ele>219</ele>
        <time>2018-07-19T08:38:21Z</time>
      </trkpt>
      <trkpt lat="45.97826" lon="4.70051">
        <ele>219</ele>
        <time>2018-07-19T08:38:22Z</time>
      </trkpt>
      <trkpt lat="45.97828" lon="4.70043">
        <ele>219</ele>
        <time>2018-07-19T08:38:23Z</time>
      </trkpt>
      <trkpt lat="45.97831" lon="4.70035">
        <ele>218</ele>
        <time>2018-07-19T08:38:24Z</time>
      </trkpt>
      <trkpt lat="45.97836" lon="4.70028">
        <ele>218</ele>
        <time>2018-07-19T08:38:25Z</time>
      </trkpt>
      <trkpt lat="45.97841" lon="4.70021">
        <ele>218</ele>
        <time>2018-07-19T08:38:26Z</time>
      </trkpt>
      <trkpt lat="45.97845" lon="4.70014">
        <ele>218</ele>
        <time>2018-07-19T08:38:27Z</time>
      </trkpt>
      <trkpt lat="45.9785" lon="4.70009">
        <ele>218</ele>
        <time>2018-07-19T08:38:28Z</time>
      </trkpt>
      <trkpt lat="45.97855" lon="4.70003">
        <ele>218</ele>
        <time>2018-07-19T08:38:29Z</time>
      </trkpt>
      <trkpt lat="45.97861" lon="4.69996">
        <ele>215</ele>
        <time>2018-07-19T08:38:30Z</time>
      </trkpt>
      <trkpt lat="45.97867" lon="4.6999">
        <ele>215</ele>
        <time>2018-07-19T08:38:31Z</time>
      </trkpt>
      <trkpt lat="45.97872" lon="4.69985">
        <ele>215</ele>
        <time>2018-07-19T08:38:32Z</time>
      </trkpt>
      <trkpt lat="45.97879" lon="4.69978">
        <ele>215</ele>
        <time>2018-07-19T08:38:33Z</time>
      </trkpt>
      <trkpt lat="45.97885" lon="4.69971">
        <ele>215</ele>
        <time>2018-07-19T08:38:34Z</time>
      </trkpt>
      <trkpt lat="45.9789" lon="4.69963">
        <ele>214</ele>
        <time>2018-07-19T08:38:35Z</time>
      </trkpt>
      <trkpt lat="45.97896" lon="4.69958">
        <ele>214</ele>
        <time>2018-07-19T08:38:36Z</time>
      </trkpt>
      <trkpt lat="45.97902" lon="4.69952">
        <ele>214</ele>
        <time>2018-07-19T08:38:37Z</time>
      </trkpt>
      <trkpt lat="45.97908" lon="4.69945">
        <ele>213</ele>
        <time>2018-07-19T08:38:38Z</time>
      </trkpt>
      <trkpt lat="45.97915" lon="4.69939">
        <ele>213</ele>
        <time>2018-07-19T08:38:39Z</time>
      </trkpt>
      <trkpt lat="45.97921" lon="4.6993">
        <ele>213</ele>
        <time>2018-07-19T08:38:40Z</time>
      </trkpt>
      <trkpt lat="45.97926" lon="4.69924">
        <ele>212</ele>
        <time>2018-07-19T08:38:41Z</time>
      </trkpt>
      <trkpt lat="45.97932" lon="4.69917">
        <ele>213</ele>
        <time>2018-07-19T08:38:42Z</time>
      </trkpt>
      <trkpt lat="45.97937" lon="4.69911">
        <ele>210</ele>
        <time>2018-07-19T08:38:43Z</time>
      </trkpt>
      <trkpt lat="45.97943" lon="4.69903">
        <ele>210</ele>
        <time>2018-07-19T08:38:44Z</time>
      </trkpt>
      <trkpt lat="45.97947" lon="4.69895">
        <ele>210</ele>
        <time>2018-07-19T08:38:45Z</time>
      </trkpt>
      <trkpt lat="45.97952" lon="4.69888">
        <ele>210</ele>
        <time>2018-07-19T08:38:46Z</time>
      </trkpt>
      <trkpt lat="45.97957" lon="4.6988">
        <ele>209</ele>
        <time>2018-07-19T08:38:47Z</time>
      </trkpt>
      <trkpt lat="45.97961" lon="4.69874">
        <ele>209</ele>
        <time>2018-07-19T08:38:48Z</time>
      </trkpt>
      <trkpt lat="45.97965" lon="4.69867">
        <ele>209</ele>
        <time>2018-07-19T08:38:49Z</time>
      </trkpt>
      <trkpt lat="45.97969" lon="4.69861">
        <ele>209</ele>
        <time>2018-07-19T08:38:50Z</time>
      </trkpt>
      <trkpt lat="45.97973" lon="4.69856">
        <ele>209</ele>
        <time>2018-07-19T08:38:51Z</time>
      </trkpt>
      <trkpt lat="45.97977" lon="4.69851">
        <ele>209</ele>
        <time>2018-07-19T08:38:52Z</time>
      </trkpt>
      <trkpt lat="45.9798" lon="4.69844">
        <ele>209</ele>
        <time>2018-07-19T08:38:53Z</time>
      </trkpt>
      <trkpt lat="45.97983" lon="4.69841">
        <ele>209</ele>
        <time>2018-07-19T08:38:54Z</time>
      </trkpt>
      <trkpt lat="45.9799" lon="4.69838">
        <ele>208</ele>
        <time>2018-07-19T08:38:55Z</time>
      </trkpt>
      <trkpt lat="45.97992" lon="4.69837">
        <ele>208</ele>
        <time>2018-07-19T08:38:56Z</time>
      </trkpt>
      <trkpt lat="45.97999" lon="4.69836">
        <ele>208</ele>
        <time>2018-07-19T08:38:58Z</time>
      </trkpt>
      <trkpt lat="45.98003" lon="4.69834">
        <ele>208</ele>
        <time>2018-07-19T08:38:59Z</time>
      </trkpt>
      <trkpt lat="45.9801" lon="4.69833">
        <ele>207</ele>
        <time>2018-07-19T08:39:00Z</time>
      </trkpt>
      <trkpt lat="45.98012" lon="4.69834">
        <ele>209</ele>
        <time>2018-07-19T08:39:01Z</time>
      </trkpt>
      <trkpt lat="45.98019" lon="4.69834">
        <ele>209</ele>
        <time>2018-07-19T08:39:03Z</time>
      </trkpt>
      <trkpt lat="45.98024" lon="4.6983">
        <ele>207</ele>
        <time>2018-07-19T08:39:04Z</time>
      </trkpt>
      <trkpt lat="45.98028" lon="4.69825">
        <ele>207</ele>
        <time>2018-07-19T08:39:05Z</time>
      </trkpt>
      <trkpt lat="45.98032" lon="4.69819">
        <ele>207</ele>
        <time>2018-07-19T08:39:06Z</time>
      </trkpt>
      <trkpt lat="45.98033" lon="4.69812">
        <ele>207</ele>
        <time>2018-07-19T08:39:07Z</time>
      </trkpt>
      <trkpt lat="45.98037" lon="4.69802">
        <ele>206</ele>
        <time>2018-07-19T08:39:08Z</time>
      </trkpt>
      <trkpt lat="45.98039" lon="4.69794">
        <ele>206</ele>
        <time>2018-07-19T08:39:09Z</time>
      </trkpt>
      <trkpt lat="45.98043" lon="4.69786">
        <ele>206</ele>
        <time>2018-07-19T08:39:10Z</time>
      </trkpt>
      <trkpt lat="45.98047" lon="4.69779">
        <ele>206</ele>
        <time>2018-07-19T08:39:11Z</time>
      </trkpt>
      <trkpt lat="45.98052" lon="4.6977">
        <ele>205</ele>
        <time>2018-07-19T08:39:12Z</time>
      </trkpt>
      <trkpt lat="45.98054" lon="4.69762">
        <ele>205</ele>
        <time>2018-07-19T08:39:13Z</time>
      </trkpt>
      <trkpt lat="45.98062" lon="4.69756">
        <ele>205</ele>
        <time>2018-07-19T08:39:14Z</time>
      </trkpt>
      <trkpt lat="45.98066" lon="4.6975">
        <ele>203</ele>
        <time>2018-07-19T08:39:15Z</time>
      </trkpt>
      <trkpt lat="45.98073" lon="4.69739">
        <ele>203</ele>
        <time>2018-07-19T08:39:16Z</time>
      </trkpt>
      <trkpt lat="45.98078" lon="4.69733">
        <ele>202</ele>
        <time>2018-07-19T08:39:17Z</time>
      </trkpt>
      <trkpt lat="45.98083" lon="4.69722">
        <ele>202</ele>
        <time>2018-07-19T08:39:18Z</time>
      </trkpt>
      <trkpt lat="45.98087" lon="4.69712">
        <ele>201</ele>
        <time>2018-07-19T08:39:19Z</time>
      </trkpt>
      <trkpt lat="45.98092" lon="4.69701">
        <ele>201</ele>
        <time>2018-07-19T08:39:20Z</time>
      </trkpt>
      <trkpt lat="45.98099" lon="4.69692">
        <ele>200</ele>
        <time>2018-07-19T08:39:21Z</time>
      </trkpt>
      <trkpt lat="45.98104" lon="4.69683">
        <ele>200</ele>
        <time>2018-07-19T08:39:22Z</time>
      </trkpt>
      <trkpt lat="45.98109" lon="4.69673">
        <ele>200</ele>
        <time>2018-07-19T08:39:23Z</time>
      </trkpt>
      <trkpt lat="45.98113" lon="4.69664">
        <ele>199</ele>
        <time>2018-07-19T08:39:24Z</time>
      </trkpt>
      <trkpt lat="45.98119" lon="4.6965">
        <ele>199</ele>
        <time>2018-07-19T08:39:25Z</time>
      </trkpt>
      <trkpt lat="45.98121" lon="4.69639">
        <ele>199</ele>
        <time>2018-07-19T08:39:26Z</time>
      </trkpt>
      <trkpt lat="45.98125" lon="4.69627">
        <ele>199</ele>
        <time>2018-07-19T08:39:27Z</time>
      </trkpt>
      <trkpt lat="45.9813" lon="4.69614">
        <ele>198</ele>
        <time>2018-07-19T08:39:28Z</time>
      </trkpt>
      <trkpt lat="45.98133" lon="4.69603">
        <ele>198</ele>
        <time>2018-07-19T08:39:29Z</time>
      </trkpt>
      <trkpt lat="45.98136" lon="4.69593">
        <ele>198</ele>
        <time>2018-07-19T08:39:30Z</time>
      </trkpt>
      <trkpt lat="45.98139" lon="4.69582">
        <ele>197</ele>
        <time>2018-07-19T08:39:31Z</time>
      </trkpt>
      <trkpt lat="45.98142" lon="4.69574">
        <ele>197</ele>
        <time>2018-07-19T08:39:32Z</time>
      </trkpt>
      <trkpt lat="45.98144" lon="4.69565">
        <ele>197</ele>
        <time>2018-07-19T08:39:33Z</time>
      </trkpt>
      <trkpt lat="45.98146" lon="4.69558">
        <ele>197</ele>
        <time>2018-07-19T08:39:34Z</time>
      </trkpt>
      <trkpt lat="45.9815" lon="4.69547">
        <ele>197</ele>
        <time>2018-07-19T08:39:36Z</time>
      </trkpt>
      <trkpt lat="45.98151" lon="4.69543">
        <ele>197</ele>
        <time>2018-07-19T08:39:37Z</time>
      </trkpt>
      <trkpt lat="45.98156" lon="4.69534">
        <ele>196</ele>
        <time>2018-07-19T08:39:40Z</time>
      </trkpt>
      <trkpt lat="45.98157" lon="4.69532">
        <ele>196</ele>
        <time>2018-07-19T08:39:41Z</time>
      </trkpt>
      <trkpt lat="45.9816" lon="4.69528">
        <ele>196</ele>
        <time>2018-07-19T08:39:43Z</time>
      </trkpt>
      <trkpt lat="45.98168" lon="4.6952">
        <ele>195</ele>
        <time>2018-07-19T08:39:44Z</time>
      </trkpt>
      <trkpt lat="45.98173" lon="4.69517">
        <ele>195</ele>
        <time>2018-07-19T08:39:46Z</time>
      </trkpt>
      <trkpt lat="45.98178" lon="4.69511">
        <ele>195</ele>
        <time>2018-07-19T08:39:47Z</time>
      </trkpt>
      <trkpt lat="45.98182" lon="4.69503">
        <ele>195</ele>
        <time>2018-07-19T08:39:48Z</time>
      </trkpt>
      <trkpt lat="45.98184" lon="4.69496">
        <ele>194</ele>
        <time>2018-07-19T08:39:49Z</time>
      </trkpt>
      <trkpt lat="45.98185" lon="4.69489">
        <ele>194</ele>
        <time>2018-07-19T08:39:50Z</time>
      </trkpt>
      <trkpt lat="45.98185" lon="4.69483">
        <ele>194</ele>
        <time>2018-07-19T08:39:51Z</time>
      </trkpt>
      <trkpt lat="45.98184" lon="4.69477">
        <ele>194</ele>
        <time>2018-07-19T08:39:52Z</time>
      </trkpt>
      <trkpt lat="45.98181" lon="4.6947">
        <ele>194</ele>
        <time>2018-07-19T08:39:53Z</time>
      </trkpt>
      <trkpt lat="45.98177" lon="4.69463">
        <ele>194</ele>
        <time>2018-07-19T08:39:54Z</time>
      </trkpt>
      <trkpt lat="45.98181" lon="4.69455">
        <ele>194</ele>
        <time>2018-07-19T08:39:55Z</time>
      </trkpt>
      <trkpt lat="45.98182" lon="4.69449">
        <ele>194</ele>
        <time>2018-07-19T08:39:56Z</time>
      </trkpt>
      <trkpt lat="45.98179" lon="4.6944">
        <ele>194</ele>
        <time>2018-07-19T08:39:57Z</time>
      </trkpt>
      <trkpt lat="45.98182" lon="4.69433">
        <ele>194</ele>
        <time>2018-07-19T08:39:58Z</time>
      </trkpt>
      <trkpt lat="45.98183" lon="4.69425">
        <ele>194</ele>
        <time>2018-07-19T08:39:59Z</time>
      </trkpt>
      <trkpt lat="45.98185" lon="4.69419">
        <ele>194</ele>
        <time>2018-07-19T08:40:00Z</time>
      </trkpt>
      <trkpt lat="45.98187" lon="4.69412">
        <ele>194</ele>
        <time>2018-07-19T08:40:01Z</time>
      </trkpt>
      <trkpt lat="45.98189" lon="4.69404">
        <ele>194</ele>
        <time>2018-07-19T08:40:02Z</time>
      </trkpt>
      <trkpt lat="45.98191" lon="4.69397">
        <ele>194</ele>
        <time>2018-07-19T08:40:03Z</time>
      </trkpt>
      <trkpt lat="45.98193" lon="4.69388">
        <ele>194</ele>
        <time>2018-07-19T08:40:04Z</time>
      </trkpt>
      <trkpt lat="45.98195" lon="4.69381">
        <ele>194</ele>
        <time>2018-07-19T08:40:05Z</time>
      </trkpt>
      <trkpt lat="45.98197" lon="4.69374">
        <ele>193</ele>
        <time>2018-07-19T08:40:06Z</time>
      </trkpt>
      <trkpt lat="45.98196" lon="4.69367">
        <ele>193</ele>
        <time>2018-07-19T08:40:07Z</time>
      </trkpt>
      <trkpt lat="45.98199" lon="4.69359">
        <ele>193</ele>
        <time>2018-07-19T08:40:08Z</time>
      </trkpt>
      <trkpt lat="45.98201" lon="4.69353">
        <ele>193</ele>
        <time>2018-07-19T08:40:09Z</time>
      </trkpt>
      <trkpt lat="45.98202" lon="4.69347">
        <ele>193</ele>
        <time>2018-07-19T08:40:10Z</time>
      </trkpt>
      <trkpt lat="45.98204" lon="4.69339">
        <ele>193</ele>
        <time>2018-07-19T08:40:11Z</time>
      </trkpt>
      <trkpt lat="45.98206" lon="4.69332">
        <ele>194</ele>
        <time>2018-07-19T08:40:12Z</time>
      </trkpt>
      <trkpt lat="45.98208" lon="4.69324">
        <ele>194</ele>
        <time>2018-07-19T08:40:13Z</time>
      </trkpt>
      <trkpt lat="45.98209" lon="4.69317">
        <ele>194</ele>
        <time>2018-07-19T08:40:14Z</time>
      </trkpt>
      <trkpt lat="45.98209" lon="4.6931">
        <ele>194</ele>
        <time>2018-07-19T08:40:15Z</time>
      </trkpt>
      <trkpt lat="45.9821" lon="4.69302">
        <ele>194</ele>
        <time>2018-07-19T08:40:16Z</time>
      </trkpt>
      <trkpt lat="45.98212" lon="4.69294">
        <ele>194</ele>
        <time>2018-07-19T08:40:17Z</time>
      </trkpt>
      <trkpt lat="45.98212" lon="4.69286">
        <ele>194</ele>
        <time>2018-07-19T08:40:18Z</time>
      </trkpt>
      <trkpt lat="45.98213" lon="4.6928">
        <ele>194</ele>
        <time>2018-07-19T08:40:19Z</time>
      </trkpt>
      <trkpt lat="45.98215" lon="4.69273">
        <ele>194</ele>
        <time>2018-07-19T08:40:20Z</time>
      </trkpt>
      <trkpt lat="45.98217" lon="4.69268">
        <ele>194</ele>
        <time>2018-07-19T08:40:21Z</time>
      </trkpt>
      <trkpt lat="45.98217" lon="4.69261">
        <ele>194</ele>
        <time>2018-07-19T08:40:22Z</time>
      </trkpt>
      <trkpt lat="45.98218" lon="4.69254">
        <ele>194</ele>
        <time>2018-07-19T08:40:23Z</time>
      </trkpt>
      <trkpt lat="45.9822" lon="4.69247">
        <ele>195</ele>
        <time>2018-07-19T08:40:24Z</time>
      </trkpt>
      <trkpt lat="45.98221" lon="4.69241">
        <ele>195</ele>
        <time>2018-07-19T08:40:25Z</time>
      </trkpt>
      <trkpt lat="45.9822" lon="4.69232">
        <ele>196</ele>
        <time>2018-07-19T08:40:26Z</time>
      </trkpt>
      <trkpt lat="45.98218" lon="4.69227">
        <ele>196</ele>
        <time>2018-07-19T08:40:27Z</time>
      </trkpt>
      <trkpt lat="45.9822" lon="4.69215">
        <ele>196</ele>
        <time>2018-07-19T08:40:29Z</time>
      </trkpt>
      <trkpt lat="45.9822" lon="4.69209">
        <ele>196</ele>
        <time>2018-07-19T08:40:30Z</time>
      </trkpt>
      <trkpt lat="45.98221" lon="4.69199">
        <ele>196</ele>
        <time>2018-07-19T08:40:32Z</time>
      </trkpt>
      <trkpt lat="45.98221" lon="4.69196">
        <ele>196</ele>
        <time>2018-07-19T08:40:33Z</time>
      </trkpt>
      <trkpt lat="45.98221" lon="4.69192">
        <ele>196</ele>
        <time>2018-07-19T08:40:37Z</time>
      </trkpt>
      <trkpt lat="45.98222" lon="4.69179">
        <ele>197</ele>
        <time>2018-07-19T08:40:38Z</time>
      </trkpt>
      <trkpt lat="45.98222" lon="4.69169">
        <ele>197</ele>
        <time>2018-07-19T08:40:40Z</time>
      </trkpt>
      <trkpt lat="45.98223" lon="4.69165">
        <ele>199</ele>
        <time>2018-07-19T08:40:41Z</time>
      </trkpt>
      <trkpt lat="45.98224" lon="4.69157">
        <ele>199</ele>
        <time>2018-07-19T08:40:43Z</time>
      </trkpt>
      <trkpt lat="45.98224" lon="4.69146">
        <ele>199</ele>
        <time>2018-07-19T08:40:44Z</time>
      </trkpt>
      <trkpt lat="45.98225" lon="4.6914">
        <ele>199</ele>
        <time>2018-07-19T08:40:46Z</time>
      </trkpt>
      <trkpt lat="45.98226" lon="4.69131">
        <ele>199</ele>
        <time>2018-07-19T08:40:47Z</time>
      </trkpt>
      <trkpt lat="45.98224" lon="4.69121">
        <ele>199</ele>
        <time>2018-07-19T08:40:49Z</time>
      </trkpt>
      <trkpt lat="45.98223" lon="4.69118">
        <ele>199</ele>
        <time>2018-07-19T08:40:50Z</time>
      </trkpt>
      <trkpt lat="45.98219" lon="4.69107">
        <ele>200</ele>
        <time>2018-07-19T08:40:52Z</time>
      </trkpt>
      <trkpt lat="45.98216" lon="4.69103">
        <ele>200</ele>
        <time>2018-07-19T08:40:53Z</time>
      </trkpt>
      <trkpt lat="45.98211" lon="4.69093">
        <ele>200</ele>
        <time>2018-07-19T08:40:56Z</time>
      </trkpt>
      <trkpt lat="45.9821" lon="4.6909">
        <ele>200</ele>
        <time>2018-07-19T08:40:57Z</time>
      </trkpt>
      <trkpt lat="45.98207" lon="4.6908">
        <ele>201</ele>
        <time>2018-07-19T08:40:58Z</time>
      </trkpt>
      <trkpt lat="45.98206" lon="4.69078">
        <ele>201</ele>
        <time>2018-07-19T08:40:59Z</time>
      </trkpt>
      <trkpt lat="45.98202" lon="4.69068">
        <ele>201</ele>
        <time>2018-07-19T08:41:01Z</time>
      </trkpt>
      <trkpt lat="45.982" lon="4.69064">
        <ele>201</ele>
        <time>2018-07-19T08:41:02Z</time>
      </trkpt>
      <trkpt lat="45.98196" lon="4.69053">
        <ele>201</ele>
        <time>2018-07-19T08:41:05Z</time>
      </trkpt>
      <trkpt lat="45.98193" lon="4.69046">
        <ele>201</ele>
        <time>2018-07-19T08:41:06Z</time>
      </trkpt>
      <trkpt lat="45.98191" lon="4.69037">
        <ele>201</ele>
        <time>2018-07-19T08:41:08Z</time>
      </trkpt>
      <trkpt lat="45.9819" lon="4.69031">
        <ele>201</ele>
        <time>2018-07-19T08:41:09Z</time>
      </trkpt>
      <trkpt lat="45.98189" lon="4.6902">
        <ele>201</ele>
        <time>2018-07-19T08:41:11Z</time>
      </trkpt>
      <trkpt lat="45.98188" lon="4.69014">
        <ele>201</ele>
        <time>2018-07-19T08:41:12Z</time>
      </trkpt>
      <trkpt lat="45.98186" lon="4.69005">
        <ele>201</ele>
        <time>2018-07-19T08:41:13Z</time>
      </trkpt>
      <trkpt lat="45.98188" lon="4.69">
        <ele>201</ele>
        <time>2018-07-19T08:41:14Z</time>
      </trkpt>
      <trkpt lat="45.9819" lon="4.68989">
        <ele>202</ele>
        <time>2018-07-19T08:41:16Z</time>
      </trkpt>
      <trkpt lat="45.98191" lon="4.68983">
        <ele>202</ele>
        <time>2018-07-19T08:41:17Z</time>
      </trkpt>
      <trkpt lat="45.9819" lon="4.68971">
        <ele>202</ele>
        <time>2018-07-19T08:41:19Z</time>
      </trkpt>
      <trkpt lat="45.9819" lon="4.68965">
        <ele>202</ele>
        <time>2018-07-19T08:41:20Z</time>
      </trkpt>
      <trkpt lat="45.98191" lon="4.68959">
        <ele>202</ele>
        <time>2018-07-19T08:41:21Z</time>
      </trkpt>
      <trkpt lat="45.98192" lon="4.68952">
        <ele>202</ele>
        <time>2018-07-19T08:41:22Z</time>
      </trkpt>
      <trkpt lat="45.98193" lon="4.68939">
        <ele>202</ele>
        <time>2018-07-19T08:41:24Z</time>
      </trkpt>
      <trkpt lat="45.98194" lon="4.68934">
        <ele>202</ele>
        <time>2018-07-19T08:41:25Z</time>
      </trkpt>
      <trkpt lat="45.98195" lon="4.68922">
        <ele>202</ele>
        <time>2018-07-19T08:41:27Z</time>
      </trkpt>
      <trkpt lat="45.98196" lon="4.68916">
        <ele>202</ele>
        <time>2018-07-19T08:41:28Z</time>
      </trkpt>
      <trkpt lat="45.98196" lon="4.68905">
        <ele>202</ele>
        <time>2018-07-19T08:41:30Z</time>
      </trkpt>
      <trkpt lat="45.98195" lon="4.689">
        <ele>202</ele>
        <time>2018-07-19T08:41:31Z</time>
      </trkpt>
      <trkpt lat="45.98198" lon="4.68888">
        <ele>202</ele>
        <time>2018-07-19T08:41:33Z</time>
      </trkpt>
      <trkpt lat="45.98199" lon="4.6888">
        <ele>202</ele>
        <time>2018-07-19T08:41:34Z</time>
      </trkpt>
      <trkpt lat="45.98201" lon="4.68868">
        <ele>203</ele>
        <time>2018-07-19T08:41:36Z</time>
      </trkpt>
      <trkpt lat="45.98201" lon="4.68861">
        <ele>203</ele>
        <time>2018-07-19T08:41:37Z</time>
      </trkpt>
      <trkpt lat="45.98202" lon="4.68855">
        <ele>203</ele>
        <time>2018-07-19T08:41:38Z</time>
      </trkpt>
      <trkpt lat="45.98204" lon="4.68848">
        <ele>203</ele>
        <time>2018-07-19T08:41:39Z</time>
      </trkpt>
      <trkpt lat="45.98205" lon="4.68836">
        <ele>203</ele>
        <time>2018-07-19T08:41:41Z</time>
      </trkpt>
      <trkpt lat="45.98205" lon="4.68829">
        <ele>203</ele>
        <time>2018-07-19T08:41:42Z</time>
      </trkpt>
      <trkpt lat="45.98206" lon="4.68822">
        <ele>204</ele>
        <time>2018-07-19T08:41:43Z</time>
      </trkpt>
      <trkpt lat="45.98207" lon="4.68815">
        <ele>204</ele>
        <time>2018-07-19T08:41:44Z</time>
      </trkpt>
      <trkpt lat="45.98208" lon="4.68808">
        <ele>204</ele>
        <time>2018-07-19T08:41:45Z</time>
      </trkpt>
      <trkpt lat="45.98209" lon="4.68801">
        <ele>204</ele>
        <time>2018-07-19T08:41:46Z</time>
      </trkpt>
      <trkpt lat="45.9821" lon="4.68795">
        <ele>204</ele>
        <time>2018-07-19T08:41:47Z</time>
      </trkpt>
      <trkpt lat="45.9821" lon="4.68788">
        <ele>204</ele>
        <time>2018-07-19T08:41:48Z</time>
      </trkpt>
      <trkpt lat="45.9821" lon="4.68777">
        <ele>204</ele>
        <time>2018-07-19T08:41:50Z</time>
      </trkpt>
      <trkpt lat="45.9821" lon="4.6877">
        <ele>204</ele>
        <time>2018-07-19T08:41:51Z</time>
      </trkpt>
      <trkpt lat="45.98211" lon="4.68757">
        <ele>205</ele>
        <time>2018-07-19T08:41:53Z</time>
      </trkpt>
      <trkpt lat="45.98212" lon="4.68751">
        <ele>205</ele>
        <time>2018-07-19T08:41:54Z</time>
      </trkpt>
      <trkpt lat="45.98213" lon="4.68739">
        <ele>206</ele>
        <time>2018-07-19T08:41:56Z</time>
      </trkpt>
      <trkpt lat="45.98215" lon="4.68732">
        <ele>206</ele>
        <time>2018-07-19T08:41:57Z</time>
      </trkpt>
      <trkpt lat="45.98218" lon="4.6872">
        <ele>206</ele>
        <time>2018-07-19T08:41:59Z</time>
      </trkpt>
      <trkpt lat="45.9822" lon="4.68714">
        <ele>206</ele>
        <time>2018-07-19T08:42:00Z</time>
      </trkpt>
      <trkpt lat="45.9822" lon="4.68709">
        <ele>206</ele>
        <time>2018-07-19T08:42:01Z</time>
      </trkpt>
      <trkpt lat="45.98221" lon="4.68701">
        <ele>207</ele>
        <time>2018-07-19T08:42:02Z</time>
      </trkpt>
      <trkpt lat="45.98223" lon="4.68689">
        <ele>207</ele>
        <time>2018-07-19T08:42:04Z</time>
      </trkpt>
      <trkpt lat="45.98224" lon="4.68686">
        <ele>207</ele>
        <time>2018-07-19T08:42:05Z</time>
      </trkpt>
      <trkpt lat="45.98225" lon="4.68677">
        <ele>207</ele>
        <time>2018-07-19T08:42:08Z</time>
      </trkpt>
      <trkpt lat="45.98226" lon="4.68672">
        <ele>207</ele>
        <time>2018-07-19T08:42:09Z</time>
      </trkpt>
      <trkpt lat="45.98227" lon="4.68664">
        <ele>208</ele>
        <time>2018-07-19T08:42:11Z</time>
      </trkpt>
      <trkpt lat="45.98228" lon="4.6866">
        <ele>208</ele>
        <time>2018-07-19T08:42:12Z</time>
      </trkpt>
      <trkpt lat="45.98232" lon="4.68648">
        <ele>208</ele>
        <time>2018-07-19T08:42:15Z</time>
      </trkpt>
      <trkpt lat="45.98233" lon="4.68644">
        <ele>208</ele>
        <time>2018-07-19T08:42:16Z</time>
      </trkpt>
      <trkpt lat="45.98235" lon="4.68632">
        <ele>208</ele>
        <time>2018-07-19T08:42:19Z</time>
      </trkpt>
      <trkpt lat="45.98236" lon="4.68627">
        <ele>208</ele>
        <time>2018-07-19T08:42:20Z</time>
      </trkpt>
      <trkpt lat="45.98237" lon="4.68615">
        <ele>209</ele>
        <time>2018-07-19T08:42:23Z</time>
      </trkpt>
      <trkpt lat="45.98237" lon="4.6861">
        <ele>209</ele>
        <time>2018-07-19T08:42:24Z</time>
      </trkpt>
      <trkpt lat="45.98237" lon="4.68594">
        <ele>209</ele>
        <time>2018-07-19T08:42:25Z</time>
      </trkpt>
      <trkpt lat="45.98236" lon="4.68589">
        <ele>209</ele>
        <time>2018-07-19T08:42:27Z</time>
      </trkpt>
      <trkpt lat="45.98234" lon="4.6858">
        <ele>210</ele>
        <time>2018-07-19T08:42:28Z</time>
      </trkpt>
      <trkpt lat="45.98232" lon="4.68567">
        <ele>210</ele>
        <time>2018-07-19T08:42:32Z</time>
      </trkpt>
      <trkpt lat="45.98231" lon="4.68564">
        <ele>210</ele>
        <time>2018-07-19T08:42:33Z</time>
      </trkpt>
      <trkpt lat="45.9823" lon="4.68555">
        <ele>210</ele>
        <time>2018-07-19T08:42:35Z</time>
      </trkpt>
      <trkpt lat="45.98229" lon="4.6855">
        <ele>210</ele>
        <time>2018-07-19T08:42:36Z</time>
      </trkpt>
      <trkpt lat="45.98228" lon="4.68539">
        <ele>210</ele>
        <time>2018-07-19T08:42:39Z</time>
      </trkpt>
      <trkpt lat="45.98228" lon="4.68536">
        <ele>210</ele>
        <time>2018-07-19T08:42:40Z</time>
      </trkpt>
      <trkpt lat="45.98228" lon="4.68526">
        <ele>210</ele>
        <time>2018-07-19T08:42:43Z</time>
      </trkpt>
      <trkpt lat="45.98228" lon="4.68522">
        <ele>210</ele>
        <time>2018-07-19T08:42:44Z</time>
      </trkpt>
      <trkpt lat="45.98228" lon="4.68512">
        <ele>211</ele>
        <time>2018-07-19T08:42:47Z</time>
      </trkpt>
      <trkpt lat="45.98228" lon="4.68509">
        <ele>211</ele>
        <time>2018-07-19T08:42:48Z</time>
      </trkpt>
      <trkpt lat="45.98228" lon="4.68499">
        <ele>213</ele>
        <time>2018-07-19T08:42:51Z</time>
      </trkpt>
      <trkpt lat="45.98228" lon="4.68496">
        <ele>213</ele>
        <time>2018-07-19T08:42:52Z</time>
      </trkpt>
      <trkpt lat="45.98227" lon="4.68486">
        <ele>213</ele>
        <time>2018-07-19T08:42:55Z</time>
      </trkpt>
      <trkpt lat="45.98227" lon="4.68482">
        <ele>213</ele>
        <time>2018-07-19T08:42:56Z</time>
      </trkpt>
      <trkpt lat="45.98227" lon="4.6847">
        <ele>213</ele>
        <time>2018-07-19T08:43:00Z</time>
      </trkpt>
      <trkpt lat="45.98227" lon="4.68467">
        <ele>213</ele>
        <time>2018-07-19T08:43:01Z</time>
      </trkpt>
      <trkpt lat="45.98228" lon="4.68455">
        <ele>213</ele>
        <time>2018-07-19T08:43:05Z</time>
      </trkpt>
      <trkpt lat="45.98228" lon="4.68452">
        <ele>213</ele>
        <time>2018-07-19T08:43:06Z</time>
      </trkpt>
      <trkpt lat="45.98228" lon="4.68442">
        <ele>214</ele>
        <time>2018-07-19T08:43:09Z</time>
      </trkpt>
      <trkpt lat="45.98228" lon="4.68438">
        <ele>214</ele>
        <time>2018-07-19T08:43:10Z</time>
      </trkpt>
      <trkpt lat="45.98227" lon="4.68428">
        <ele>214</ele>
        <time>2018-07-19T08:43:13Z</time>
      </trkpt>
      <trkpt lat="45.98227" lon="4.68424">
        <ele>214</ele>
        <time>2018-07-19T08:43:14Z</time>
      </trkpt>
      <trkpt lat="45.98227" lon="4.68414">
        <ele>217</ele>
        <time>2018-07-19T08:43:17Z</time>
      </trkpt>
      <trkpt lat="45.98228" lon="4.68411">
        <ele>217</ele>
        <time>2018-07-19T08:43:18Z</time>
      </trkpt>
      <trkpt lat="45.98229" lon="4.68401">
        <ele>217</ele>
        <time>2018-07-19T08:43:21Z</time>
      </trkpt>
      <trkpt lat="45.9823" lon="4.68398">
        <ele>217</ele>
        <time>2018-07-19T08:43:22Z</time>
      </trkpt>
      <trkpt lat="45.9823" lon="4.68387">
        <ele>217</ele>
        <time>2018-07-19T08:43:25Z</time>
      </trkpt>
      <trkpt lat="45.98231" lon="4.68384">
        <ele>217</ele>
        <time>2018-07-19T08:43:26Z</time>
      </trkpt>
      <trkpt lat="45.98231" lon="4.68373">
        <ele>217</ele>
        <time>2018-07-19T08:43:29Z</time>
      </trkpt>
      <trkpt lat="45.98231" lon="4.6837">
        <ele>218</ele>
        <time>2018-07-19T08:43:30Z</time>
      </trkpt>
      <trkpt lat="45.98232" lon="4.6836">
        <ele>218</ele>
        <time>2018-07-19T08:43:33Z</time>
      </trkpt>
      <trkpt lat="45.98232" lon="4.68356">
        <ele>218</ele>
        <time>2018-07-19T08:43:34Z</time>
      </trkpt>
      <trkpt lat="45.98234" lon="4.68344">
        <ele>218</ele>
        <time>2018-07-19T08:43:38Z</time>
      </trkpt>
      <trkpt lat="45.98235" lon="4.6834">
        <ele>219</ele>
        <time>2018-07-19T08:43:39Z</time>
      </trkpt>
      <trkpt lat="45.98234" lon="4.68331">
        <ele>221</ele>
        <time>2018-07-19T08:43:42Z</time>
      </trkpt>
      <trkpt lat="45.98233" lon="4.68327">
        <ele>221</ele>
        <time>2018-07-19T08:43:43Z</time>
      </trkpt>
      <trkpt lat="45.98233" lon="4.68317">
        <ele>221</ele>
        <time>2018-07-19T08:43:46Z</time>
      </trkpt>
      <trkpt lat="45.98232" lon="4.68314">
        <ele>221</ele>
        <time>2018-07-19T08:43:47Z</time>
      </trkpt>
      <trkpt lat="45.98233" lon="4.68301">
        <ele>221</ele>
        <time>2018-07-19T08:43:51Z</time>
      </trkpt>
      <trkpt lat="45.98233" lon="4.68298">
        <ele>222</ele>
        <time>2018-07-19T08:43:52Z</time>
      </trkpt>
      <trkpt lat="45.98231" lon="4.68286">
        <ele>222</ele>
        <time>2018-07-19T08:43:55Z</time>
      </trkpt>
      <trkpt lat="45.9823" lon="4.68283">
        <ele>222</ele>
        <time>2018-07-19T08:43:56Z</time>
      </trkpt>
      <trkpt lat="45.98226" lon="4.68272">
        <ele>222</ele>
        <time>2018-07-19T08:43:59Z</time>
      </trkpt>
      <trkpt lat="45.98225" lon="4.68268">
        <ele>223</ele>
        <time>2018-07-19T08:44:00Z</time>
      </trkpt>
      <trkpt lat="45.98223" lon="4.68258">
        <ele>223</ele>
        <time>2018-07-19T08:44:03Z</time>
      </trkpt>
      <trkpt lat="45.98222" lon="4.68254">
        <ele>223</ele>
        <time>2018-07-19T08:44:04Z</time>
      </trkpt>
      <trkpt lat="45.9822" lon="4.68244">
        <ele>225</ele>
        <time>2018-07-19T08:44:07Z</time>
      </trkpt>
      <trkpt lat="45.9822" lon="4.68241">
        <ele>225</ele>
        <time>2018-07-19T08:44:08Z</time>
      </trkpt>
      <trkpt lat="45.9822" lon="4.68229">
        <ele>226</ele>
        <time>2018-07-19T08:44:12Z</time>
      </trkpt>
      <trkpt lat="45.98221" lon="4.68226">
        <ele>226</ele>
        <time>2018-07-19T08:44:13Z</time>
      </trkpt>
      <trkpt lat="45.98225" lon="4.68217">
        <ele>226</ele>
        <time>2018-07-19T08:44:16Z</time>
      </trkpt>
      <trkpt lat="45.98226" lon="4.68213">
        <ele>226</ele>
        <time>2018-07-19T08:44:17Z</time>
      </trkpt>
      <trkpt lat="45.98227" lon="4.68201">
        <ele>226</ele>
        <time>2018-07-19T08:44:20Z</time>
      </trkpt>
      <trkpt lat="45.98228" lon="4.68197">
        <ele>227</ele>
        <time>2018-07-19T08:44:21Z</time>
      </trkpt>
      <trkpt lat="45.98229" lon="4.68185">
        <ele>227</ele>
        <time>2018-07-19T08:44:24Z</time>
      </trkpt>
      <trkpt lat="45.98229" lon="4.68182">
        <ele>227</ele>
        <time>2018-07-19T08:44:25Z</time>
      </trkpt>
      <trkpt lat="45.98229" lon="4.6817">
        <ele>228</ele>
        <time>2018-07-19T08:44:28Z</time>
      </trkpt>
      <trkpt lat="45.98229" lon="4.68167">
        <ele>228</ele>
        <time>2018-07-19T08:44:29Z</time>
      </trkpt>
      <trkpt lat="45.98226" lon="4.68155">
        <ele>228</ele>
        <time>2018-07-19T08:44:32Z</time>
      </trkpt>
      <trkpt lat="45.98225" lon="4.68151">
        <ele>228</ele>
        <time>2018-07-19T08:44:33Z</time>
      </trkpt>
      <trkpt lat="45.98224" lon="4.68143">
        <ele>228</ele>
        <time>2018-07-19T08:44:35Z</time>
      </trkpt>
      <trkpt lat="45.98223" lon="4.68138">
        <ele>228</ele>
        <time>2018-07-19T08:44:36Z</time>
      </trkpt>
      <trkpt lat="45.9822" lon="4.68128">
        <ele>228</ele>
        <time>2018-07-19T08:44:38Z</time>
      </trkpt>
      <trkpt lat="45.98219" lon="4.68123">
        <ele>228</ele>
        <time>2018-07-19T08:44:39Z</time>
      </trkpt>
      <trkpt lat="45.98217" lon="4.68114">
        <ele>228</ele>
        <time>2018-07-19T08:44:41Z</time>
      </trkpt>
      <trkpt lat="45.98217" lon="4.6811">
        <ele>228</ele>
        <time>2018-07-19T08:44:42Z</time>
      </trkpt>
      <trkpt lat="45.98216" lon="4.68101">
        <ele>228</ele>
        <time>2018-07-19T08:44:44Z</time>
      </trkpt>
      <trkpt lat="45.98216" lon="4.68096">
        <ele>228</ele>
        <time>2018-07-19T08:44:45Z</time>
      </trkpt>
      <trkpt lat="45.98216" lon="4.68086">
        <ele>228</ele>
        <time>2018-07-19T08:44:47Z</time>
      </trkpt>
      <trkpt lat="45.98216" lon="4.68082">
        <ele>228</ele>
        <time>2018-07-19T08:44:48Z</time>
      </trkpt>
      <trkpt lat="45.98217" lon="4.68073">
        <ele>228</ele>
        <time>2018-07-19T08:44:50Z</time>
      </trkpt>
      <trkpt lat="45.98217" lon="4.68068">
        <ele>228</ele>
        <time>2018-07-19T08:44:51Z</time>
      </trkpt>
      <trkpt lat="45.98217" lon="4.68058">
        <ele>228</ele>
        <time>2018-07-19T08:44:53Z</time>
      </trkpt>
      <trkpt lat="45.98217" lon="4.68054">
        <ele>228</ele>
        <time>2018-07-19T08:44:54Z</time>
      </trkpt>
      <trkpt lat="45.98217" lon="4.68045">
        <ele>228</ele>
        <time>2018-07-19T08:44:56Z</time>
      </trkpt>
      <trkpt lat="45.98216" lon="4.6804">
        <ele>228</ele>
        <time>2018-07-19T08:44:57Z</time>
      </trkpt>
      <trkpt lat="45.98216" lon="4.68031">
        <ele>228</ele>
        <time>2018-07-19T08:44:59Z</time>
      </trkpt>
      <trkpt lat="45.98216" lon="4.68026">
        <ele>228</ele>
        <time>2018-07-19T08:45:00Z</time>
      </trkpt>
      <trkpt lat="45.98216" lon="4.68022">
        <ele>228</ele>
        <time>2018-07-19T08:45:01Z</time>
      </trkpt>
      <trkpt lat="45.98215" lon="4.68007">
        <ele>228</ele>
        <time>2018-07-19T08:45:02Z</time>
      </trkpt>
      <trkpt lat="45.98217" lon="4.67995">
        <ele>229</ele>
        <time>2018-07-19T08:45:06Z</time>
      </trkpt>
      <trkpt lat="45.98217" lon="4.67992">
        <ele>229</ele>
        <time>2018-07-19T08:45:07Z</time>
      </trkpt>
      <trkpt lat="45.98217" lon="4.67981">
        <ele>229</ele>
        <time>2018-07-19T08:45:10Z</time>
      </trkpt>
      <trkpt lat="45.98217" lon="4.67978">
        <ele>229</ele>
        <time>2018-07-19T08:45:11Z</time>
      </trkpt>
      <trkpt lat="45.98217" lon="4.67966">
        <ele>229</ele>
        <time>2018-07-19T08:45:14Z</time>
      </trkpt>
      <trkpt lat="45.98217" lon="4.67962">
        <ele>229</ele>
        <time>2018-07-19T08:45:15Z</time>
      </trkpt>
      <trkpt lat="45.98217" lon="4.6795">
        <ele>229</ele>
        <time>2018-07-19T08:45:18Z</time>
      </trkpt>
      <trkpt lat="45.98217" lon="4.67946">
        <ele>229</ele>
        <time>2018-07-19T08:45:19Z</time>
      </trkpt>
      <trkpt lat="45.98217" lon="4.67934">
        <ele>229</ele>
        <time>2018-07-19T08:45:22Z</time>
      </trkpt>
      <trkpt lat="45.98217" lon="4.6793">
        <ele>230</ele>
        <time>2018-07-19T08:45:23Z</time>
      </trkpt>
      <trkpt lat="45.98216" lon="4.67918">
        <ele>230</ele>
        <time>2018-07-19T08:45:26Z</time>
      </trkpt>
      <trkpt lat="45.98216" lon="4.67915">
        <ele>232</ele>
        <time>2018-07-19T08:45:27Z</time>
      </trkpt>
      <trkpt lat="45.98215" lon="4.67903">
        <ele>232</ele>
        <time>2018-07-19T08:45:30Z</time>
      </trkpt>
      <trkpt lat="45.98214" lon="4.67899">
        <ele>232</ele>
        <time>2018-07-19T08:45:31Z</time>
      </trkpt>
      <trkpt lat="45.98213" lon="4.67889">
        <ele>232</ele>
        <time>2018-07-19T08:45:34Z</time>
      </trkpt>
      <trkpt lat="45.98213" lon="4.67885">
        <ele>232</ele>
        <time>2018-07-19T08:45:35Z</time>
      </trkpt>
      <trkpt lat="45.98212" lon="4.67874">
        <ele>233</ele>
        <time>2018-07-19T08:45:38Z</time>
      </trkpt>
      <trkpt lat="45.98211" lon="4.67871">
        <ele>233</ele>
        <time>2018-07-19T08:45:39Z</time>
      </trkpt>
      <trkpt lat="45.98209" lon="4.6786">
        <ele>233</ele>
        <time>2018-07-19T08:45:42Z</time>
      </trkpt>
      <trkpt lat="45.98209" lon="4.67857">
        <ele>233</ele>
        <time>2018-07-19T08:45:43Z</time>
      </trkpt>
      <trkpt lat="45.98209" lon="4.67847">
        <ele>233</ele>
        <time>2018-07-19T08:45:46Z</time>
      </trkpt>
      <trkpt lat="45.98209" lon="4.67844">
        <ele>233</ele>
        <time>2018-07-19T08:45:47Z</time>
      </trkpt>
      <trkpt lat="45.9821" lon="4.67831">
        <ele>237</ele>
        <time>2018-07-19T08:45:51Z</time>
      </trkpt>
      <trkpt lat="45.9821" lon="4.67828">
        <ele>237</ele>
        <time>2018-07-19T08:45:52Z</time>
      </trkpt>
      <trkpt lat="45.98213" lon="4.67816">
        <ele>237</ele>
        <time>2018-07-19T08:45:56Z</time>
      </trkpt>
      <trkpt lat="45.98213" lon="4.67813">
        <ele>237</ele>
        <time>2018-07-19T08:45:57Z</time>
      </trkpt>
      <trkpt lat="45.98215" lon="4.67802">
        <ele>238</ele>
        <time>2018-07-19T08:46:01Z</time>
      </trkpt>
      <trkpt lat="45.98216" lon="4.67799">
        <ele>238</ele>
        <time>2018-07-19T08:46:02Z</time>
      </trkpt>
      <trkpt lat="45.98218" lon="4.67786">
        <ele>238</ele>
        <time>2018-07-19T08:46:07Z</time>
      </trkpt>
      <trkpt lat="45.98218" lon="4.67785">
        <ele>238</ele>
        <time>2018-07-19T08:46:08Z</time>
      </trkpt>
      <trkpt lat="45.98221" lon="4.67774">
        <ele>239</ele>
        <time>2018-07-19T08:46:13Z</time>
      </trkpt>
      <trkpt lat="45.98222" lon="4.67771">
        <ele>239</ele>
        <time>2018-07-19T08:46:14Z</time>
      </trkpt>
      <trkpt lat="45.98224" lon="4.6776">
        <ele>239</ele>
        <time>2018-07-19T08:46:18Z</time>
      </trkpt>
      <trkpt lat="45.98225" lon="4.67757">
        <ele>239</ele>
        <time>2018-07-19T08:46:19Z</time>
      </trkpt>
      <trkpt lat="45.98227" lon="4.67748">
        <ele>242</ele>
        <time>2018-07-19T08:46:22Z</time>
      </trkpt>
      <trkpt lat="45.98228" lon="4.67744">
        <ele>242</ele>
        <time>2018-07-19T08:46:23Z</time>
      </trkpt>
      <trkpt lat="45.98229" lon="4.67734">
        <ele>242</ele>
        <time>2018-07-19T08:46:26Z</time>
      </trkpt>
      <trkpt lat="45.98229" lon="4.6773">
        <ele>242</ele>
        <time>2018-07-19T08:46:27Z</time>
      </trkpt>
      <trkpt lat="45.9823" lon="4.6772">
        <ele>243</ele>
        <time>2018-07-19T08:46:30Z</time>
      </trkpt>
      <trkpt lat="45.9823" lon="4.67717">
        <ele>243</ele>
        <time>2018-07-19T08:46:31Z</time>
      </trkpt>
      <trkpt lat="45.9823" lon="4.67707">
        <ele>243</ele>
        <time>2018-07-19T08:46:34Z</time>
      </trkpt>
      <trkpt lat="45.98229" lon="4.67704">
        <ele>243</ele>
        <time>2018-07-19T08:46:35Z</time>
      </trkpt>
      <trkpt lat="45.98228" lon="4.67692">
        <ele>244</ele>
        <time>2018-07-19T08:46:39Z</time>
      </trkpt>
      <trkpt lat="45.98228" lon="4.67689">
        <ele>244</ele>
        <time>2018-07-19T08:46:40Z</time>
      </trkpt>
      <trkpt lat="45.98226" lon="4.67677">
        <ele>244</ele>
        <time>2018-07-19T08:46:44Z</time>
      </trkpt>
      <trkpt lat="45.98226" lon="4.67674">
        <ele>244</ele>
        <time>2018-07-19T08:46:45Z</time>
      </trkpt>
      <trkpt lat="45.98223" lon="4.67663">
        <ele>246</ele>
        <time>2018-07-19T08:46:49Z</time>
      </trkpt>
      <trkpt lat="45.98222" lon="4.67659">
        <ele>246</ele>
        <time>2018-07-19T08:46:50Z</time>
      </trkpt>
      <trkpt lat="45.9822" lon="4.6765">
        <ele>246</ele>
        <time>2018-07-19T08:46:53Z</time>
      </trkpt>
      <trkpt lat="45.98219" lon="4.67647">
        <ele>246</ele>
        <time>2018-07-19T08:46:54Z</time>
      </trkpt>
      <trkpt lat="45.98218" lon="4.67637">
        <ele>246</ele>
        <time>2018-07-19T08:46:57Z</time>
      </trkpt>
      <trkpt lat="45.98217" lon="4.67634">
        <ele>246</ele>
        <time>2018-07-19T08:46:58Z</time>
      </trkpt>
      <trkpt lat="45.98216" lon="4.67623">
        <ele>246</ele>
        <time>2018-07-19T08:47:01Z</time>
      </trkpt>
      <trkpt lat="45.98215" lon="4.6762">
        <ele>246</ele>
        <time>2018-07-19T08:47:02Z</time>
      </trkpt>
      <trkpt lat="45.98215" lon="4.6761">
        <ele>246</ele>
        <time>2018-07-19T08:47:05Z</time>
      </trkpt>
      <trkpt lat="45.98215" lon="4.67606">
        <ele>246</ele>
        <time>2018-07-19T08:47:06Z</time>
      </trkpt>
      <trkpt lat="45.98215" lon="4.67593">
        <ele>246</ele>
        <time>2018-07-19T08:47:09Z</time>
      </trkpt>
      <trkpt lat="45.98214" lon="4.6759">
        <ele>246</ele>
        <time>2018-07-19T08:47:10Z</time>
      </trkpt>
      <trkpt lat="45.98214" lon="4.67579">
        <ele>247</ele>
        <time>2018-07-19T08:47:13Z</time>
      </trkpt>
      <trkpt lat="45.98214" lon="4.67575">
        <ele>247</ele>
        <time>2018-07-19T08:47:14Z</time>
      </trkpt>
      <trkpt lat="45.98213" lon="4.67564">
        <ele>247</ele>
        <time>2018-07-19T08:47:17Z</time>
      </trkpt>
      <trkpt lat="45.98212" lon="4.6756">
        <ele>247</ele>
        <time>2018-07-19T08:47:18Z</time>
      </trkpt>
      <trkpt lat="45.98211" lon="4.67549">
        <ele>247</ele>
        <time>2018-07-19T08:47:21Z</time>
      </trkpt>
      <trkpt lat="45.9821" lon="4.67545">
        <ele>247</ele>
        <time>2018-07-19T08:47:22Z</time>
      </trkpt>
      <trkpt lat="45.98209" lon="4.67534">
        <ele>247</ele>
        <time>2018-07-19T08:47:25Z</time>
      </trkpt>
      <trkpt lat="45.98208" lon="4.6753">
        <ele>247</ele>
        <time>2018-07-19T08:47:26Z</time>
      </trkpt>
      <trkpt lat="45.98207" lon="4.67518">
        <ele>247</ele>
        <time>2018-07-19T08:47:29Z</time>
      </trkpt>
      <trkpt lat="45.98207" lon="4.67514">
        <ele>247</ele>
        <time>2018-07-19T08:47:30Z</time>
      </trkpt>
      <trkpt lat="45.98206" lon="4.67505">
        <ele>247</ele>
        <time>2018-07-19T08:47:32Z</time>
      </trkpt>
      <trkpt lat="45.98206" lon="4.67501">
        <ele>247</ele>
        <time>2018-07-19T08:47:33Z</time>
      </trkpt>
      <trkpt lat="45.98205" lon="4.67488">
        <ele>247</ele>
        <time>2018-07-19T08:47:36Z</time>
      </trkpt>
      <trkpt lat="45.98204" lon="4.67483">
        <ele>247</ele>
        <time>2018-07-19T08:47:37Z</time>
      </trkpt>
      <trkpt lat="45.98204" lon="4.67479">
        <ele>247</ele>
        <time>2018-07-19T08:47:38Z</time>
      </trkpt>
      <trkpt lat="45.98203" lon="4.67465">
        <ele>247</ele>
        <time>2018-07-19T08:47:39Z</time>
      </trkpt>
      <trkpt lat="45.98202" lon="4.67454">
        <ele>247</ele>
        <time>2018-07-19T08:47:41Z</time>
      </trkpt>
      <trkpt lat="45.98201" lon="4.67448">
        <ele>247</ele>
        <time>2018-07-19T08:47:42Z</time>
      </trkpt>
      <trkpt lat="45.982" lon="4.67436">
        <ele>247</ele>
        <time>2018-07-19T08:47:46Z</time>
      </trkpt>
      <trkpt lat="45.982" lon="4.67432">
        <ele>247</ele>
        <time>2018-07-19T08:47:47Z</time>
      </trkpt>
      <trkpt lat="45.982" lon="4.6742">
        <ele>247</ele>
        <time>2018-07-19T08:47:48Z</time>
      </trkpt>
      <trkpt lat="45.982" lon="4.67415">
        <ele>248</ele>
        <time>2018-07-19T08:47:49Z</time>
      </trkpt>
      <trkpt lat="45.98199" lon="4.67404">
        <ele>248</ele>
        <time>2018-07-19T08:47:51Z</time>
      </trkpt>
      <trkpt lat="45.98199" lon="4.67401">
        <ele>248</ele>
        <time>2018-07-19T08:47:52Z</time>
      </trkpt>
      <trkpt lat="45.98199" lon="4.67395">
        <ele>248</ele>
        <time>2018-07-19T08:47:54Z</time>
      </trkpt>
      <trkpt lat="45.98198" lon="4.67385">
        <ele>248</ele>
        <time>2018-07-19T08:47:55Z</time>
      </trkpt>
      <trkpt lat="45.98199" lon="4.67373">
        <ele>248</ele>
        <time>2018-07-19T08:47:57Z</time>
      </trkpt>
      <trkpt lat="45.982" lon="4.67367">
        <ele>248</ele>
        <time>2018-07-19T08:47:58Z</time>
      </trkpt>
      <trkpt lat="45.982" lon="4.67355">
        <ele>248</ele>
        <time>2018-07-19T08:48:00Z</time>
      </trkpt>
      <trkpt lat="45.982" lon="4.67349">
        <ele>248</ele>
        <time>2018-07-19T08:48:01Z</time>
      </trkpt>
      <trkpt lat="45.98199" lon="4.67337">
        <ele>248</ele>
        <time>2018-07-19T08:48:04Z</time>
      </trkpt>
      <trkpt lat="45.98198" lon="4.67334">
        <ele>248</ele>
        <time>2018-07-19T08:48:05Z</time>
      </trkpt>
      <trkpt lat="45.98197" lon="4.67322">
        <ele>249</ele>
        <time>2018-07-19T08:48:08Z</time>
      </trkpt>
      <trkpt lat="45.98197" lon="4.67318">
        <ele>249</ele>
        <time>2018-07-19T08:48:09Z</time>
      </trkpt>
      <trkpt lat="45.98196" lon="4.67303">
        <ele>249</ele>
        <time>2018-07-19T08:48:10Z</time>
      </trkpt>
      <trkpt lat="45.98195" lon="4.67292">
        <ele>249</ele>
        <time>2018-07-19T08:48:12Z</time>
      </trkpt>
      <trkpt lat="45.98194" lon="4.67287">
        <ele>249</ele>
        <time>2018-07-19T08:48:13Z</time>
      </trkpt>
      <trkpt lat="45.98194" lon="4.67275">
        <ele>250</ele>
        <time>2018-07-19T08:48:15Z</time>
      </trkpt>
      <trkpt lat="45.98194" lon="4.67272">
        <ele>250</ele>
        <time>2018-07-19T08:48:16Z</time>
      </trkpt>
      <trkpt lat="45.98193" lon="4.67266">
        <ele>250</ele>
        <time>2018-07-19T08:48:18Z</time>
      </trkpt>
      <trkpt lat="45.98193" lon="4.67255">
        <ele>250</ele>
        <time>2018-07-19T08:48:19Z</time>
      </trkpt>
      <trkpt lat="45.98191" lon="4.67244">
        <ele>250</ele>
        <time>2018-07-19T08:48:21Z</time>
      </trkpt>
      <trkpt lat="45.98192" lon="4.67238">
        <ele>250</ele>
        <time>2018-07-19T08:48:22Z</time>
      </trkpt>
      <trkpt lat="45.98189" lon="4.6723">
        <ele>250</ele>
        <time>2018-07-19T08:48:24Z</time>
      </trkpt>
      <trkpt lat="45.98189" lon="4.67224">
        <ele>250</ele>
        <time>2018-07-19T08:48:25Z</time>
      </trkpt>
      <trkpt lat="45.98188" lon="4.67215">
        <ele>250</ele>
        <time>2018-07-19T08:48:27Z</time>
      </trkpt>
      <trkpt lat="45.98186" lon="4.6721">
        <ele>250</ele>
        <time>2018-07-19T08:48:28Z</time>
      </trkpt>
      <trkpt lat="45.98185" lon="4.67201">
        <ele>250</ele>
        <time>2018-07-19T08:48:30Z</time>
      </trkpt>
      <trkpt lat="45.98184" lon="4.67196">
        <ele>250</ele>
        <time>2018-07-19T08:48:31Z</time>
      </trkpt>
      <trkpt lat="45.98181" lon="4.67185">
        <ele>250</ele>
        <time>2018-07-19T08:48:33Z</time>
      </trkpt>
      <trkpt lat="45.98178" lon="4.67178">
        <ele>250</ele>
        <time>2018-07-19T08:48:34Z</time>
      </trkpt>
      <trkpt lat="45.98175" lon="4.67166">
        <ele>251</ele>
        <time>2018-07-19T08:48:36Z</time>
      </trkpt>
      <trkpt lat="45.98173" lon="4.6716">
        <ele>251</ele>
        <time>2018-07-19T08:48:37Z</time>
      </trkpt>
      <trkpt lat="45.98171" lon="4.67149">
        <ele>250</ele>
        <time>2018-07-19T08:48:39Z</time>
      </trkpt>
      <trkpt lat="45.98171" lon="4.67144">
        <ele>249</ele>
        <time>2018-07-19T08:48:40Z</time>
      </trkpt>
      <trkpt lat="45.98167" lon="4.67133">
        <ele>249</ele>
        <time>2018-07-19T08:48:42Z</time>
      </trkpt>
      <trkpt lat="45.98166" lon="4.67127">
        <ele>251</ele>
        <time>2018-07-19T08:48:43Z</time>
      </trkpt>
      <trkpt lat="45.98162" lon="4.67116">
        <ele>251</ele>
        <time>2018-07-19T08:48:45Z</time>
      </trkpt>
      <trkpt lat="45.98161" lon="4.6711">
        <ele>251</ele>
        <time>2018-07-19T08:48:46Z</time>
      </trkpt>
      <trkpt lat="45.98158" lon="4.67099">
        <ele>251</ele>
        <time>2018-07-19T08:48:48Z</time>
      </trkpt>
      <trkpt lat="45.98156" lon="4.67093">
        <ele>251</ele>
        <time>2018-07-19T08:48:49Z</time>
      </trkpt>
      <trkpt lat="45.98156" lon="4.67082">
        <ele>251</ele>
        <time>2018-07-19T08:48:52Z</time>
      </trkpt>
      <trkpt lat="45.98151" lon="4.67073">
        <ele>251</ele>
        <time>2018-07-19T08:48:53Z</time>
      </trkpt>
      <trkpt lat="45.98149" lon="4.67066">
        <ele>251</ele>
        <time>2018-07-19T08:48:54Z</time>
      </trkpt>
      <trkpt lat="45.98144" lon="4.6706">
        <ele>251</ele>
        <time>2018-07-19T08:48:55Z</time>
      </trkpt>
      <trkpt lat="45.98141" lon="4.67049">
        <ele>251</ele>
        <time>2018-07-19T08:48:57Z</time>
      </trkpt>
      <trkpt lat="45.9814" lon="4.67042">
        <ele>251</ele>
        <time>2018-07-19T08:48:58Z</time>
      </trkpt>
      <trkpt lat="45.98138" lon="4.67037">
        <ele>251</ele>
        <time>2018-07-19T08:48:59Z</time>
      </trkpt>
      <trkpt lat="45.98139" lon="4.67029">
        <ele>251</ele>
        <time>2018-07-19T08:49:00Z</time>
      </trkpt>
      <trkpt lat="45.98141" lon="4.67021">
        <ele>251</ele>
        <time>2018-07-19T08:49:01Z</time>
      </trkpt>
      <trkpt lat="45.9814" lon="4.67015">
        <ele>251</ele>
        <time>2018-07-19T08:49:02Z</time>
      </trkpt>
      <trkpt lat="45.9814" lon="4.67006">
        <ele>251</ele>
        <time>2018-07-19T08:49:03Z</time>
      </trkpt>
      <trkpt lat="45.98139" lon="4.67002">
        <ele>251</ele>
        <time>2018-07-19T08:49:04Z</time>
      </trkpt>
      <trkpt lat="45.9814" lon="4.66991">
        <ele>253</ele>
        <time>2018-07-19T08:49:06Z</time>
      </trkpt>
      <trkpt lat="45.9814" lon="4.66984">
        <ele>253</ele>
        <time>2018-07-19T08:49:07Z</time>
      </trkpt>
      <trkpt lat="45.98139" lon="4.66973">
        <ele>253</ele>
        <time>2018-07-19T08:49:09Z</time>
      </trkpt>
      <trkpt lat="45.98139" lon="4.66968">
        <ele>253</ele>
        <time>2018-07-19T08:49:10Z</time>
      </trkpt>
      <trkpt lat="45.98138" lon="4.66957">
        <ele>253</ele>
        <time>2018-07-19T08:49:12Z</time>
      </trkpt>
      <trkpt lat="45.98137" lon="4.66951">
        <ele>253</ele>
        <time>2018-07-19T08:49:13Z</time>
      </trkpt>
      <trkpt lat="45.98137" lon="4.66939">
        <ele>253</ele>
        <time>2018-07-19T08:49:15Z</time>
      </trkpt>
      <trkpt lat="45.98136" lon="4.66933">
        <ele>253</ele>
        <time>2018-07-19T08:49:16Z</time>
      </trkpt>
      <trkpt lat="45.98135" lon="4.66921">
        <ele>253</ele>
        <time>2018-07-19T08:49:18Z</time>
      </trkpt>
      <trkpt lat="45.98135" lon="4.66915">
        <ele>254</ele>
        <time>2018-07-19T08:49:19Z</time>
      </trkpt>
      <trkpt lat="45.98134" lon="4.66903">
        <ele>254</ele>
        <time>2018-07-19T08:49:21Z</time>
      </trkpt>
      <trkpt lat="45.98133" lon="4.66897">
        <ele>254</ele>
        <time>2018-07-19T08:49:22Z</time>
      </trkpt>
      <trkpt lat="45.98132" lon="4.66884">
        <ele>254</ele>
        <time>2018-07-19T08:49:24Z</time>
      </trkpt>
      <trkpt lat="45.98131" lon="4.66878">
        <ele>254</ele>
        <time>2018-07-19T08:49:25Z</time>
      </trkpt>
      <trkpt lat="45.9813" lon="4.66866">
        <ele>254</ele>
        <time>2018-07-19T08:49:27Z</time>
      </trkpt>
      <trkpt lat="45.98129" lon="4.66859">
        <ele>254</ele>
        <time>2018-07-19T08:49:28Z</time>
      </trkpt>
      <trkpt lat="45.98127" lon="4.66847">
        <ele>254</ele>
        <time>2018-07-19T08:49:30Z</time>
      </trkpt>
      <trkpt lat="45.98125" lon="4.6684">
        <ele>254</ele>
        <time>2018-07-19T08:49:31Z</time>
      </trkpt>
      <trkpt lat="45.98123" lon="4.6683">
        <ele>254</ele>
        <time>2018-07-19T08:49:33Z</time>
      </trkpt>
      <trkpt lat="45.98122" lon="4.66824">
        <ele>254</ele>
        <time>2018-07-19T08:49:34Z</time>
      </trkpt>
      <trkpt lat="45.9812" lon="4.66812">
        <ele>255</ele>
        <time>2018-07-19T08:49:36Z</time>
      </trkpt>
      <trkpt lat="45.98121" lon="4.66807">
        <ele>255</ele>
        <time>2018-07-19T08:49:37Z</time>
      </trkpt>
      <trkpt lat="45.98117" lon="4.66796">
        <ele>255</ele>
        <time>2018-07-19T08:49:39Z</time>
      </trkpt>
      <trkpt lat="45.98115" lon="4.6679">
        <ele>255</ele>
        <time>2018-07-19T08:49:40Z</time>
      </trkpt>
      <trkpt lat="45.98112" lon="4.66778">
        <ele>255</ele>
        <time>2018-07-19T08:49:42Z</time>
      </trkpt>
      <trkpt lat="45.9811" lon="4.66773">
        <ele>255</ele>
        <time>2018-07-19T08:49:43Z</time>
      </trkpt>
      <trkpt lat="45.98107" lon="4.66762">
        <ele>256</ele>
        <time>2018-07-19T08:49:45Z</time>
      </trkpt>
      <trkpt lat="45.98105" lon="4.66756">
        <ele>256</ele>
        <time>2018-07-19T08:49:46Z</time>
      </trkpt>
      <trkpt lat="45.98103" lon="4.66745">
        <ele>257</ele>
        <time>2018-07-19T08:49:48Z</time>
      </trkpt>
      <trkpt lat="45.98102" lon="4.66739">
        <ele>257</ele>
        <time>2018-07-19T08:49:49Z</time>
      </trkpt>
      <trkpt lat="45.98101" lon="4.66729">
        <ele>257</ele>
        <time>2018-07-19T08:49:51Z</time>
      </trkpt>
      <trkpt lat="45.981" lon="4.66723">
        <ele>257</ele>
        <time>2018-07-19T08:49:52Z</time>
      </trkpt>
      <trkpt lat="45.98098" lon="4.66713">
        <ele>257</ele>
        <time>2018-07-19T08:49:54.621Z</time>
      </trkpt>
      <trkpt lat="45.98097" lon="4.66708">
        <ele>257</ele>
        <time>2018-07-19T08:49:55Z</time>
      </trkpt>
      <trkpt lat="45.98096" lon="4.66699">
        <ele>257</ele>
        <time>2018-07-19T08:49:58Z</time>
      </trkpt>
      <trkpt lat="45.98095" lon="4.66695">
        <ele>257</ele>
        <time>2018-07-19T08:49:59Z</time>
      </trkpt>
      <trkpt lat="45.98094" lon="4.66684">
        <ele>258</ele>
        <time>2018-07-19T08:50:02Z</time>
      </trkpt>
      <trkpt lat="45.98093" lon="4.66679">
        <ele>258</ele>
        <time>2018-07-19T08:50:03Z</time>
      </trkpt>
      <trkpt lat="45.98091" lon="4.66668">
        <ele>259</ele>
        <time>2018-07-19T08:50:06Z</time>
      </trkpt>
      <trkpt lat="45.9809" lon="4.66663">
        <ele>260</ele>
        <time>2018-07-19T08:50:07Z</time>
      </trkpt>
      <trkpt lat="45.98088" lon="4.66653">
        <ele>259</ele>
        <time>2018-07-19T08:50:10Z</time>
      </trkpt>
      <trkpt lat="45.98087" lon="4.66649">
        <ele>259</ele>
        <time>2018-07-19T08:50:11Z</time>
      </trkpt>
      <trkpt lat="45.98085" lon="4.6664">
        <ele>259</ele>
        <time>2018-07-19T08:50:13Z</time>
      </trkpt>
      <trkpt lat="45.98085" lon="4.66635">
        <ele>259</ele>
        <time>2018-07-19T08:50:14Z</time>
      </trkpt>
      <trkpt lat="45.98083" lon="4.66626">
        <ele>262</ele>
        <time>2018-07-19T08:50:16Z</time>
      </trkpt>
      <trkpt lat="45.98082" lon="4.66621">
        <ele>262</ele>
        <time>2018-07-19T08:50:17Z</time>
      </trkpt>
      <trkpt lat="45.98081" lon="4.66608">
        <ele>262</ele>
        <time>2018-07-19T08:50:20Z</time>
      </trkpt>
      <trkpt lat="45.98081" lon="4.66603">
        <ele>262</ele>
        <time>2018-07-19T08:50:21Z</time>
      </trkpt>
      <trkpt lat="45.98079" lon="4.66595">
        <ele>262</ele>
        <time>2018-07-19T08:50:23Z</time>
      </trkpt>
      <trkpt lat="45.98078" lon="4.6659">
        <ele>262</ele>
        <time>2018-07-19T08:50:24Z</time>
      </trkpt>
      <trkpt lat="45.98076" lon="4.66578">
        <ele>263</ele>
        <time>2018-07-19T08:50:27Z</time>
      </trkpt>
      <trkpt lat="45.98076" lon="4.66574">
        <ele>263</ele>
        <time>2018-07-19T08:50:28Z</time>
      </trkpt>
      <trkpt lat="45.98075" lon="4.66561">
        <ele>263</ele>
        <time>2018-07-19T08:50:31Z</time>
      </trkpt>
      <trkpt lat="45.98075" lon="4.66557">
        <ele>264</ele>
        <time>2018-07-19T08:50:32Z</time>
      </trkpt>
      <trkpt lat="45.98075" lon="4.66552">
        <ele>264</ele>
        <time>2018-07-19T08:50:33Z</time>
      </trkpt>
      <trkpt lat="45.98074" lon="4.66536">
        <ele>264</ele>
        <time>2018-07-19T08:50:34Z</time>
      </trkpt>
      <trkpt lat="45.98074" lon="4.66524">
        <ele>264</ele>
        <time>2018-07-19T08:50:38Z</time>
      </trkpt>
      <trkpt lat="45.98073" lon="4.66512">
        <ele>265</ele>
        <time>2018-07-19T08:50:39Z</time>
      </trkpt>
      <trkpt lat="45.98072" lon="4.665">
        <ele>265</ele>
        <time>2018-07-19T08:50:43Z</time>
      </trkpt>
      <trkpt lat="45.98072" lon="4.66496">
        <ele>265</ele>
        <time>2018-07-19T08:50:44Z</time>
      </trkpt>
      <trkpt lat="45.9807" lon="4.66483">
        <ele>266</ele>
        <time>2018-07-19T08:50:47Z</time>
      </trkpt>
      <trkpt lat="45.9807" lon="4.66479">
        <ele>266</ele>
        <time>2018-07-19T08:50:48Z</time>
      </trkpt>
      <trkpt lat="45.98069" lon="4.66471">
        <ele>266</ele>
        <time>2018-07-19T08:50:50Z</time>
      </trkpt>
      <trkpt lat="45.98068" lon="4.66466">
        <ele>266</ele>
        <time>2018-07-19T08:50:51Z</time>
      </trkpt>
      <trkpt lat="45.98067" lon="4.66457">
        <ele>266</ele>
        <time>2018-07-19T08:50:53Z</time>
      </trkpt>
      <trkpt lat="45.98066" lon="4.66453">
        <ele>266</ele>
        <time>2018-07-19T08:50:54Z</time>
      </trkpt>
      <trkpt lat="45.98066" lon="4.66449">
        <ele>266</ele>
        <time>2018-07-19T08:50:55Z</time>
      </trkpt>
      <trkpt lat="45.98062" lon="4.66434">
        <ele>266</ele>
        <time>2018-07-19T08:50:56Z</time>
      </trkpt>
      <trkpt lat="45.98058" lon="4.66422">
        <ele>266</ele>
        <time>2018-07-19T08:51:00Z</time>
      </trkpt>
      <trkpt lat="45.98055" lon="4.66411">
        <ele>266</ele>
        <time>2018-07-19T08:51:01Z</time>
      </trkpt>
      <trkpt lat="45.98052" lon="4.66404">
        <ele>267</ele>
        <time>2018-07-19T08:51:03Z</time>
      </trkpt>
      <trkpt lat="45.9805" lon="4.66397">
        <ele>267</ele>
        <time>2018-07-19T08:51:04Z</time>
      </trkpt>
      <trkpt lat="45.98047" lon="4.66387">
        <ele>267</ele>
        <time>2018-07-19T08:51:06Z</time>
      </trkpt>
      <trkpt lat="45.98046" lon="4.66382">
        <ele>267</ele>
        <time>2018-07-19T08:51:07Z</time>
      </trkpt>
      <trkpt lat="45.98042" lon="4.66372">
        <ele>267</ele>
        <time>2018-07-19T08:51:10Z</time>
      </trkpt>
      <trkpt lat="45.98041" lon="4.66369">
        <ele>267</ele>
        <time>2018-07-19T08:51:11Z</time>
      </trkpt>
      <trkpt lat="45.9804" lon="4.66366">
        <ele>267</ele>
        <time>2018-07-19T08:51:12Z</time>
      </trkpt>
      <trkpt lat="45.98037" lon="4.66357">
        <ele>267</ele>
        <time>2018-07-19T08:51:13Z</time>
      </trkpt>
      <trkpt lat="45.98034" lon="4.66345">
        <ele>267</ele>
        <time>2018-07-19T08:51:17Z</time>
      </trkpt>
      <trkpt lat="45.98033" lon="4.66342">
        <ele>267</ele>
        <time>2018-07-19T08:51:18Z</time>
      </trkpt>
      <trkpt lat="45.98029" lon="4.66331">
        <ele>268</ele>
        <time>2018-07-19T08:51:21Z</time>
      </trkpt>
      <trkpt lat="45.98028" lon="4.66327">
        <ele>268</ele>
        <time>2018-07-19T08:51:22Z</time>
      </trkpt>
      <trkpt lat="45.98022" lon="4.66317">
        <ele>268</ele>
        <time>2018-07-19T08:51:25Z</time>
      </trkpt>
      <trkpt lat="45.9802" lon="4.66314">
        <ele>268</ele>
        <time>2018-07-19T08:51:26Z</time>
      </trkpt>
      <trkpt lat="45.98014" lon="4.66305">
        <ele>268</ele>
        <time>2018-07-19T08:51:29Z</time>
      </trkpt>
      <trkpt lat="45.98012" lon="4.66302">
        <ele>268</ele>
        <time>2018-07-19T08:51:30Z</time>
      </trkpt>
      <trkpt lat="45.98007" lon="4.66296">
        <ele>268</ele>
        <time>2018-07-19T08:51:32Z</time>
      </trkpt>
      <trkpt lat="45.98004" lon="4.66293">
        <ele>268</ele>
        <time>2018-07-19T08:51:33Z</time>
      </trkpt>
      <trkpt lat="45.97999" lon="4.66288">
        <ele>270</ele>
        <time>2018-07-19T08:51:35Z</time>
      </trkpt>
      <trkpt lat="45.9799" lon="4.66279">
        <ele>270</ele>
        <time>2018-07-19T08:51:36Z</time>
      </trkpt>
      <trkpt lat="45.97986" lon="4.66275">
        <ele>270</ele>
        <time>2018-07-19T08:51:38Z</time>
      </trkpt>
      <trkpt lat="45.97981" lon="4.6627">
        <ele>270</ele>
        <time>2018-07-19T08:51:39Z</time>
      </trkpt>
      <trkpt lat="45.97975" lon="4.66265">
        <ele>270</ele>
        <time>2018-07-19T08:51:41Z</time>
      </trkpt>
      <trkpt lat="45.97972" lon="4.66262">
        <ele>270</ele>
        <time>2018-07-19T08:51:42Z</time>
      </trkpt>
      <trkpt lat="45.97967" lon="4.66255">
        <ele>270</ele>
        <time>2018-07-19T08:51:44Z</time>
      </trkpt>
      <trkpt lat="45.97964" lon="4.66251">
        <ele>270</ele>
        <time>2018-07-19T08:51:45Z</time>
      </trkpt>
      <trkpt lat="45.97959" lon="4.66242">
        <ele>270</ele>
        <time>2018-07-19T08:51:47Z</time>
      </trkpt>
      <trkpt lat="45.97956" lon="4.66238">
        <ele>270</ele>
        <time>2018-07-19T08:51:48Z</time>
      </trkpt>
      <trkpt lat="45.97952" lon="4.66229">
        <ele>270</ele>
        <time>2018-07-19T08:51:50Z</time>
      </trkpt>
      <trkpt lat="45.9795" lon="4.66223">
        <ele>270</ele>
        <time>2018-07-19T08:51:51Z</time>
      </trkpt>
      <trkpt lat="45.97947" lon="4.66215">
        <ele>270</ele>
        <time>2018-07-19T08:51:52Z</time>
      </trkpt>
      <trkpt lat="45.97946" lon="4.66209">
        <ele>270</ele>
        <time>2018-07-19T08:51:53Z</time>
      </trkpt>
      <trkpt lat="45.97944" lon="4.66197">
        <ele>270</ele>
        <time>2018-07-19T08:51:55Z</time>
      </trkpt>
      <trkpt lat="45.97943" lon="4.66193">
        <ele>270</ele>
        <time>2018-07-19T08:51:56Z</time>
      </trkpt>
      <trkpt lat="45.97941" lon="4.6618">
        <ele>270</ele>
        <time>2018-07-19T08:51:59Z</time>
      </trkpt>
      <trkpt lat="45.97942" lon="4.66177">
        <ele>270</ele>
        <time>2018-07-19T08:52:00Z</time>
      </trkpt>
      <trkpt lat="45.97939" lon="4.66165">
        <ele>269</ele>
        <time>2018-07-19T08:52:03Z</time>
      </trkpt>
      <trkpt lat="45.97938" lon="4.66161">
        <ele>269</ele>
        <time>2018-07-19T08:52:04Z</time>
      </trkpt>
      <trkpt lat="45.97938" lon="4.66156">
        <ele>269</ele>
        <time>2018-07-19T08:52:05Z</time>
      </trkpt>
      <trkpt lat="45.97936" lon="4.66142">
        <ele>269</ele>
        <time>2018-07-19T08:52:06Z</time>
      </trkpt>
      <trkpt lat="45.97935" lon="4.66132">
        <ele>269</ele>
        <time>2018-07-19T08:52:08Z</time>
      </trkpt>
      <trkpt lat="45.97934" lon="4.66126">
        <ele>269</ele>
        <time>2018-07-19T08:52:09Z</time>
      </trkpt>
      <trkpt lat="45.97933" lon="4.66115">
        <ele>269</ele>
        <time>2018-07-19T08:52:11Z</time>
      </trkpt>
      <trkpt lat="45.97933" lon="4.66108">
        <ele>269</ele>
        <time>2018-07-19T08:52:12Z</time>
      </trkpt>
      <trkpt lat="45.97931" lon="4.66096">
        <ele>270</ele>
        <time>2018-07-19T08:52:14Z</time>
      </trkpt>
      <trkpt lat="45.9793" lon="4.66089">
        <ele>270</ele>
        <time>2018-07-19T08:52:15Z</time>
      </trkpt>
      <trkpt lat="45.97929" lon="4.66077">
        <ele>270</ele>
        <time>2018-07-19T08:52:17Z</time>
      </trkpt>
      <trkpt lat="45.97928" lon="4.66071">
        <ele>270</ele>
        <time>2018-07-19T08:52:18Z</time>
      </trkpt>
      <trkpt lat="45.97929" lon="4.66059">
        <ele>270</ele>
        <time>2018-07-19T08:52:20Z</time>
      </trkpt>
      <trkpt lat="45.97929" lon="4.66053">
        <ele>270</ele>
        <time>2018-07-19T08:52:21Z</time>
      </trkpt>
      <trkpt lat="45.97928" lon="4.66041">
        <ele>270</ele>
        <time>2018-07-19T08:52:23Z</time>
      </trkpt>
      <trkpt lat="45.97928" lon="4.66035">
        <ele>270</ele>
        <time>2018-07-19T08:52:24Z</time>
      </trkpt>
      <trkpt lat="45.97929" lon="4.66023">
        <ele>270</ele>
        <time>2018-07-19T08:52:26Z</time>
      </trkpt>
      <trkpt lat="45.97929" lon="4.66017">
        <ele>270</ele>
        <time>2018-07-19T08:52:27Z</time>
      </trkpt>
      <trkpt lat="45.97928" lon="4.66007">
        <ele>271</ele>
        <time>2018-07-19T08:52:30Z</time>
      </trkpt>
      <trkpt lat="45.97928" lon="4.66003">
        <ele>271</ele>
        <time>2018-07-19T08:52:31Z</time>
      </trkpt>
      <trkpt lat="45.97929" lon="4.65992">
        <ele>272</ele>
        <time>2018-07-19T08:52:32Z</time>
      </trkpt>
      <trkpt lat="45.9793" lon="4.65987">
        <ele>272</ele>
        <time>2018-07-19T08:52:33Z</time>
      </trkpt>
      <trkpt lat="45.9793" lon="4.65978">
        <ele>272</ele>
        <time>2018-07-19T08:52:35Z</time>
      </trkpt>
      <trkpt lat="45.9793" lon="4.6597">
        <ele>272</ele>
        <time>2018-07-19T08:52:36Z</time>
      </trkpt>
      <trkpt lat="45.97929" lon="4.65958">
        <ele>272</ele>
        <time>2018-07-19T08:52:38Z</time>
      </trkpt>
      <trkpt lat="45.97929" lon="4.65956">
        <ele>273</ele>
        <time>2018-07-19T08:52:39Z</time>
      </trkpt>
      <trkpt lat="45.97929" lon="4.65948">
        <ele>273</ele>
        <time>2018-07-19T08:52:40Z</time>
      </trkpt>
      <trkpt lat="45.97929" lon="4.65942">
        <ele>273</ele>
        <time>2018-07-19T08:52:41Z</time>
      </trkpt>
      <trkpt lat="45.97929" lon="4.65931">
        <ele>274</ele>
        <time>2018-07-19T08:52:43Z</time>
      </trkpt>
      <trkpt lat="45.97928" lon="4.65926">
        <ele>275</ele>
        <time>2018-07-19T08:52:44Z</time>
      </trkpt>
      <trkpt lat="45.97926" lon="4.65915">
        <ele>276</ele>
        <time>2018-07-19T08:52:46Z</time>
      </trkpt>
      <trkpt lat="45.97925" lon="4.65909">
        <ele>276</ele>
        <time>2018-07-19T08:52:47Z</time>
      </trkpt>
      <trkpt lat="45.97925" lon="4.659">
        <ele>276</ele>
        <time>2018-07-19T08:52:50Z</time>
      </trkpt>
      <trkpt lat="45.97924" lon="4.65891">
        <ele>276</ele>
        <time>2018-07-19T08:52:51Z</time>
      </trkpt>
      <trkpt lat="45.97923" lon="4.65882">
        <ele>276</ele>
        <time>2018-07-19T08:52:53Z</time>
      </trkpt>
      <trkpt lat="45.97921" lon="4.65875">
        <ele>276</ele>
        <time>2018-07-19T08:52:54Z</time>
      </trkpt>
      <trkpt lat="45.97917" lon="4.65863">
        <ele>276</ele>
        <time>2018-07-19T08:52:57Z</time>
      </trkpt>
      <trkpt lat="45.97915" lon="4.65857">
        <ele>277</ele>
        <time>2018-07-19T08:52:58Z</time>
      </trkpt>
      <trkpt lat="45.97912" lon="4.65846">
        <ele>277</ele>
        <time>2018-07-19T08:53:01Z</time>
      </trkpt>
      <trkpt lat="45.97909" lon="4.65838">
        <ele>277</ele>
        <time>2018-07-19T08:53:02Z</time>
      </trkpt>
      <trkpt lat="45.97906" lon="4.65828">
        <ele>278</ele>
        <time>2018-07-19T08:53:05Z</time>
      </trkpt>
      <trkpt lat="45.97905" lon="4.65825">
        <ele>277</ele>
        <time>2018-07-19T08:53:06Z</time>
      </trkpt>
      <trkpt lat="45.97902" lon="4.65815">
        <ele>277</ele>
        <time>2018-07-19T08:53:07Z</time>
      </trkpt>
      <trkpt lat="45.979" lon="4.65811">
        <ele>277</ele>
        <time>2018-07-19T08:53:08Z</time>
      </trkpt>
      <trkpt lat="45.97898" lon="4.65801">
        <ele>277</ele>
        <time>2018-07-19T08:53:10Z</time>
      </trkpt>
      <trkpt lat="45.97896" lon="4.65796">
        <ele>277</ele>
        <time>2018-07-19T08:53:11Z</time>
      </trkpt>
      <trkpt lat="45.97894" lon="4.65787">
        <ele>277</ele>
        <time>2018-07-19T08:53:13Z</time>
      </trkpt>
      <trkpt lat="45.97893" lon="4.65782">
        <ele>277</ele>
        <time>2018-07-19T08:53:14Z</time>
      </trkpt>
      <trkpt lat="45.9789" lon="4.65772">
        <ele>277</ele>
        <time>2018-07-19T08:53:16Z</time>
      </trkpt>
      <trkpt lat="45.97888" lon="4.65767">
        <ele>277</ele>
        <time>2018-07-19T08:53:17Z</time>
      </trkpt>
      <trkpt lat="45.97884" lon="4.65757">
        <ele>277</ele>
        <time>2018-07-19T08:53:19Z</time>
      </trkpt>
      <trkpt lat="45.97881" lon="4.65752">
        <ele>277</ele>
        <time>2018-07-19T08:53:20Z</time>
      </trkpt>
      <trkpt lat="45.97879" lon="4.65746">
        <ele>278</ele>
        <time>2018-07-19T08:53:21Z</time>
      </trkpt>
      <trkpt lat="45.97878" lon="4.6574">
        <ele>278</ele>
        <time>2018-07-19T08:53:22Z</time>
      </trkpt>
      <trkpt lat="45.97873" lon="4.65728">
        <ele>278</ele>
        <time>2018-07-19T08:53:24Z</time>
      </trkpt>
      <trkpt lat="45.97872" lon="4.65726">
        <ele>278</ele>
        <time>2018-07-19T08:53:25Z</time>
      </trkpt>
      <trkpt lat="45.97868" lon="4.65717">
        <ele>278</ele>
        <time>2018-07-19T08:53:27Z</time>
      </trkpt>
      <trkpt lat="45.97866" lon="4.65709">
        <ele>278</ele>
        <time>2018-07-19T08:53:28Z</time>
      </trkpt>
      <trkpt lat="45.97863" lon="4.65699">
        <ele>278</ele>
        <time>2018-07-19T08:53:30Z</time>
      </trkpt>
      <trkpt lat="45.97859" lon="4.65692">
        <ele>278</ele>
        <time>2018-07-19T08:53:31Z</time>
      </trkpt>
      <trkpt lat="45.97856" lon="4.65687">
        <ele>278</ele>
        <time>2018-07-19T08:53:32Z</time>
      </trkpt>
      <trkpt lat="45.9785" lon="4.65681">
        <ele>278</ele>
        <time>2018-07-19T08:53:33Z</time>
      </trkpt>
      <trkpt lat="45.97849" lon="4.65672">
        <ele>279</ele>
        <time>2018-07-19T08:53:35Z</time>
      </trkpt>
      <trkpt lat="45.97848" lon="4.65667">
        <ele>279</ele>
        <time>2018-07-19T08:53:36Z</time>
      </trkpt>
      <trkpt lat="45.97849" lon="4.65657">
        <ele>279</ele>
        <time>2018-07-19T08:53:38Z</time>
      </trkpt>
      <trkpt lat="45.97847" lon="4.65652">
        <ele>279</ele>
        <time>2018-07-19T08:53:39Z</time>
      </trkpt>
      <trkpt lat="45.97844" lon="4.65643">
        <ele>279</ele>
        <time>2018-07-19T08:53:41Z</time>
      </trkpt>
      <trkpt lat="45.97843" lon="4.65638">
        <ele>279</ele>
        <time>2018-07-19T08:53:42Z</time>
      </trkpt>
      <trkpt lat="45.9784" lon="4.65628">
        <ele>279</ele>
        <time>2018-07-19T08:53:44Z</time>
      </trkpt>
      <trkpt lat="45.97839" lon="4.65623">
        <ele>279</ele>
        <time>2018-07-19T08:53:45Z</time>
      </trkpt>
      <trkpt lat="45.97836" lon="4.65613">
        <ele>279</ele>
        <time>2018-07-19T08:53:47Z</time>
      </trkpt>
      <trkpt lat="45.97834" lon="4.65608">
        <ele>280</ele>
        <time>2018-07-19T08:53:48Z</time>
      </trkpt>
      <trkpt lat="45.97833" lon="4.656">
        <ele>280</ele>
        <time>2018-07-19T08:53:50Z</time>
      </trkpt>
      <trkpt lat="45.97833" lon="4.65592">
        <ele>280</ele>
        <time>2018-07-19T08:53:51Z</time>
      </trkpt>
      <trkpt lat="45.97832" lon="4.65582">
        <ele>280</ele>
        <time>2018-07-19T08:53:53Z</time>
      </trkpt>
      <trkpt lat="45.97832" lon="4.65577">
        <ele>280</ele>
        <time>2018-07-19T08:53:54Z</time>
      </trkpt>
      <trkpt lat="45.9783" lon="4.65565">
        <ele>280</ele>
        <time>2018-07-19T08:53:56Z</time>
      </trkpt>
      <trkpt lat="45.9783" lon="4.65559">
        <ele>280</ele>
        <time>2018-07-19T08:53:57Z</time>
      </trkpt>
      <trkpt lat="45.97827" lon="4.65548">
        <ele>280</ele>
        <time>2018-07-19T08:53:59Z</time>
      </trkpt>
      <trkpt lat="45.97825" lon="4.65542">
        <ele>280</ele>
        <time>2018-07-19T08:54:00Z</time>
      </trkpt>
      <trkpt lat="45.97823" lon="4.65531">
        <ele>280</ele>
        <time>2018-07-19T08:54:02Z</time>
      </trkpt>
      <trkpt lat="45.97822" lon="4.65525">
        <ele>280</ele>
        <time>2018-07-19T08:54:03Z</time>
      </trkpt>
      <trkpt lat="45.9782" lon="4.65514">
        <ele>280</ele>
        <time>2018-07-19T08:54:05Z</time>
      </trkpt>
      <trkpt lat="45.97819" lon="4.65509">
        <ele>280</ele>
        <time>2018-07-19T08:54:06Z</time>
      </trkpt>
      <trkpt lat="45.97815" lon="4.65498">
        <ele>280</ele>
        <time>2018-07-19T08:54:08Z</time>
      </trkpt>
      <trkpt lat="45.97813" lon="4.65493">
        <ele>280</ele>
        <time>2018-07-19T08:54:09Z</time>
      </trkpt>
      <trkpt lat="45.97809" lon="4.65482">
        <ele>281</ele>
        <time>2018-07-19T08:54:11Z</time>
      </trkpt>
      <trkpt lat="45.97808" lon="4.65477">
        <ele>281</ele>
        <time>2018-07-19T08:54:12Z</time>
      </trkpt>
      <trkpt lat="45.97804" lon="4.6547">
        <ele>281</ele>
        <time>2018-07-19T08:54:13Z</time>
      </trkpt>
      <trkpt lat="45.97802" lon="4.65464">
        <ele>281</ele>
        <time>2018-07-19T08:54:14Z</time>
      </trkpt>
      <trkpt lat="45.97797" lon="4.65458">
        <ele>281</ele>
        <time>2018-07-19T08:54:15Z</time>
      </trkpt>
      <trkpt lat="45.97794" lon="4.65452">
        <ele>281</ele>
        <time>2018-07-19T08:54:16Z</time>
      </trkpt>
      <trkpt lat="45.97791" lon="4.65445">
        <ele>281</ele>
        <time>2018-07-19T08:54:17Z</time>
      </trkpt>
      <trkpt lat="45.97789" lon="4.65438">
        <ele>281</ele>
        <time>2018-07-19T08:54:18Z</time>
      </trkpt>
      <trkpt lat="45.97783" lon="4.65432">
        <ele>281</ele>
        <time>2018-07-19T08:54:19Z</time>
      </trkpt>
      <trkpt lat="45.97782" lon="4.65426">
        <ele>281</ele>
        <time>2018-07-19T08:54:20Z</time>
      </trkpt>
      <trkpt lat="45.97776" lon="4.65416">
        <ele>282</ele>
        <time>2018-07-19T08:54:22Z</time>
      </trkpt>
      <trkpt lat="45.97774" lon="4.65411">
        <ele>282</ele>
        <time>2018-07-19T08:54:23Z</time>
      </trkpt>
      <trkpt lat="45.9777" lon="4.654">
        <ele>282</ele>
        <time>2018-07-19T08:54:25Z</time>
      </trkpt>
      <trkpt lat="45.97768" lon="4.65394">
        <ele>282</ele>
        <time>2018-07-19T08:54:26Z</time>
      </trkpt>
      <trkpt lat="45.97765" lon="4.65383">
        <ele>282</ele>
        <time>2018-07-19T08:54:28Z</time>
      </trkpt>
      <trkpt lat="45.97761" lon="4.65377">
        <ele>282</ele>
        <time>2018-07-19T08:54:29Z</time>
      </trkpt>
      <trkpt lat="45.97759" lon="4.65366">
        <ele>282</ele>
        <time>2018-07-19T08:54:31Z</time>
      </trkpt>
      <trkpt lat="45.97756" lon="4.6536">
        <ele>282</ele>
        <time>2018-07-19T08:54:32Z</time>
      </trkpt>
      <trkpt lat="45.97754" lon="4.65354">
        <ele>282</ele>
        <time>2018-07-19T08:54:33Z</time>
      </trkpt>
      <trkpt lat="45.97752" lon="4.65348">
        <ele>282</ele>
        <time>2018-07-19T08:54:34Z</time>
      </trkpt>
      <trkpt lat="45.97749" lon="4.65341">
        <ele>282</ele>
        <time>2018-07-19T08:54:35Z</time>
      </trkpt>
      <trkpt lat="45.97746" lon="4.65335">
        <ele>282</ele>
        <time>2018-07-19T08:54:36Z</time>
      </trkpt>
      <trkpt lat="45.97742" lon="4.65324">
        <ele>282</ele>
        <time>2018-07-19T08:54:38Z</time>
      </trkpt>
      <trkpt lat="45.9774" lon="4.65319">
        <ele>282</ele>
        <time>2018-07-19T08:54:39Z</time>
      </trkpt>
      <trkpt lat="45.9774" lon="4.65306">
        <ele>282</ele>
        <time>2018-07-19T08:54:41Z</time>
      </trkpt>
      <trkpt lat="45.97739" lon="4.653">
        <ele>282</ele>
        <time>2018-07-19T08:54:42Z</time>
      </trkpt>
      <trkpt lat="45.97739" lon="4.65288">
        <ele>283</ele>
        <time>2018-07-19T08:54:44Z</time>
      </trkpt>
      <trkpt lat="45.97736" lon="4.65282">
        <ele>283</ele>
        <time>2018-07-19T08:54:45Z</time>
      </trkpt>
      <trkpt lat="45.97737" lon="4.65277">
        <ele>283</ele>
        <time>2018-07-19T08:54:46Z</time>
      </trkpt>
      <trkpt lat="45.97733" lon="4.6527">
        <ele>283</ele>
        <time>2018-07-19T08:54:47Z</time>
      </trkpt>
      <trkpt lat="45.97732" lon="4.65258">
        <ele>283</ele>
        <time>2018-07-19T08:54:49Z</time>
      </trkpt>
      <trkpt lat="45.97732" lon="4.65251">
        <ele>283</ele>
        <time>2018-07-19T08:54:50Z</time>
      </trkpt>
      <trkpt lat="45.97731" lon="4.65239">
        <ele>284</ele>
        <time>2018-07-19T08:54:52Z</time>
      </trkpt>
      <trkpt lat="45.9773" lon="4.65232">
        <ele>284</ele>
        <time>2018-07-19T08:54:53Z</time>
      </trkpt>
      <trkpt lat="45.97729" lon="4.6522">
        <ele>284</ele>
        <time>2018-07-19T08:54:55Z</time>
      </trkpt>
      <trkpt lat="45.97728" lon="4.65213">
        <ele>284</ele>
        <time>2018-07-19T08:54:56Z</time>
      </trkpt>
      <trkpt lat="45.97728" lon="4.65207">
        <ele>284</ele>
        <time>2018-07-19T08:54:57Z</time>
      </trkpt>
      <trkpt lat="45.97727" lon="4.65199">
        <ele>284</ele>
        <time>2018-07-19T08:54:58Z</time>
      </trkpt>
      <trkpt lat="45.97727" lon="4.65193">
        <ele>284</ele>
        <time>2018-07-19T08:54:59Z</time>
      </trkpt>
      <trkpt lat="45.97727" lon="4.65186">
        <ele>284</ele>
        <time>2018-07-19T08:55:00Z</time>
      </trkpt>
      <trkpt lat="45.97725" lon="4.65179">
        <ele>284</ele>
        <time>2018-07-19T08:55:01Z</time>
      </trkpt>
      <trkpt lat="45.97725" lon="4.65172">
        <ele>284</ele>
        <time>2018-07-19T08:55:02Z</time>
      </trkpt>
      <trkpt lat="45.97724" lon="4.6516">
        <ele>285</ele>
        <time>2018-07-19T08:55:04Z</time>
      </trkpt>
      <trkpt lat="45.97725" lon="4.65154">
        <ele>285</ele>
        <time>2018-07-19T08:55:05Z</time>
      </trkpt>
      <trkpt lat="45.97727" lon="4.65142">
        <ele>285</ele>
        <time>2018-07-19T08:55:07Z</time>
      </trkpt>
      <trkpt lat="45.97728" lon="4.65137">
        <ele>285</ele>
        <time>2018-07-19T08:55:08Z</time>
      </trkpt>
      <trkpt lat="45.97729" lon="4.65126">
        <ele>285</ele>
        <time>2018-07-19T08:55:10Z</time>
      </trkpt>
      <trkpt lat="45.97725" lon="4.6512">
        <ele>285</ele>
        <time>2018-07-19T08:55:11Z</time>
      </trkpt>
      <trkpt lat="45.97724" lon="4.65108">
        <ele>285</ele>
        <time>2018-07-19T08:55:13Z</time>
      </trkpt>
      <trkpt lat="45.97726" lon="4.65102">
        <ele>285</ele>
        <time>2018-07-19T08:55:14Z</time>
      </trkpt>
      <trkpt lat="45.97723" lon="4.65095">
        <ele>285</ele>
        <time>2018-07-19T08:55:15Z</time>
      </trkpt>
      <trkpt lat="45.97722" lon="4.65088">
        <ele>285</ele>
        <time>2018-07-19T08:55:16Z</time>
      </trkpt>
      <trkpt lat="45.97724" lon="4.65081">
        <ele>285</ele>
        <time>2018-07-19T08:55:17Z</time>
      </trkpt>
      <trkpt lat="45.97722" lon="4.65073">
        <ele>285</ele>
        <time>2018-07-19T08:55:18Z</time>
      </trkpt>
      <trkpt lat="45.9772" lon="4.65065">
        <ele>285</ele>
        <time>2018-07-19T08:55:19Z</time>
      </trkpt>
      <trkpt lat="45.97718" lon="4.65058">
        <ele>285</ele>
        <time>2018-07-19T08:55:20Z</time>
      </trkpt>
      <trkpt lat="45.97718" lon="4.65051">
        <ele>286</ele>
        <time>2018-07-19T08:55:21Z</time>
      </trkpt>
      <trkpt lat="45.97719" lon="4.65044">
        <ele>286</ele>
        <time>2018-07-19T08:55:22Z</time>
      </trkpt>
      <trkpt lat="45.97718" lon="4.65033">
        <ele>286</ele>
        <time>2018-07-19T08:55:24Z</time>
      </trkpt>
      <trkpt lat="45.97715" lon="4.65027">
        <ele>286</ele>
        <time>2018-07-19T08:55:25Z</time>
      </trkpt>
      <trkpt lat="45.97713" lon="4.6502">
        <ele>286</ele>
        <time>2018-07-19T08:55:26Z</time>
      </trkpt>
      <trkpt lat="45.97711" lon="4.65012">
        <ele>286</ele>
        <time>2018-07-19T08:55:27Z</time>
      </trkpt>
      <trkpt lat="45.9771" lon="4.65005">
        <ele>286</ele>
        <time>2018-07-19T08:55:28Z</time>
      </trkpt>
      <trkpt lat="45.9771" lon="4.64997">
        <ele>287</ele>
        <time>2018-07-19T08:55:29Z</time>
      </trkpt>
      <trkpt lat="45.97711" lon="4.6499">
        <ele>287</ele>
        <time>2018-07-19T08:55:30Z</time>
      </trkpt>
      <trkpt lat="45.9771" lon="4.64984">
        <ele>287</ele>
        <time>2018-07-19T08:55:31Z</time>
      </trkpt>
      <trkpt lat="45.97707" lon="4.64975">
        <ele>287</ele>
        <time>2018-07-19T08:55:32Z</time>
      </trkpt>
      <trkpt lat="45.97706" lon="4.64968">
        <ele>287</ele>
        <time>2018-07-19T08:55:33Z</time>
      </trkpt>
      <trkpt lat="45.97708" lon="4.64961">
        <ele>287</ele>
        <time>2018-07-19T08:55:34Z</time>
      </trkpt>
      <trkpt lat="45.97705" lon="4.64954">
        <ele>287</ele>
        <time>2018-07-19T08:55:35Z</time>
      </trkpt>
      <trkpt lat="45.97705" lon="4.64942">
        <ele>287</ele>
        <time>2018-07-19T08:55:37Z</time>
      </trkpt>
      <trkpt lat="45.97704" lon="4.64936">
        <ele>287</ele>
        <time>2018-07-19T08:55:38Z</time>
      </trkpt>
      <trkpt lat="45.97703" lon="4.64924">
        <ele>288</ele>
        <time>2018-07-19T08:55:40Z</time>
      </trkpt>
      <trkpt lat="45.97702" lon="4.64919">
        <ele>288</ele>
        <time>2018-07-19T08:55:41Z</time>
      </trkpt>
      <trkpt lat="45.977" lon="4.64908">
        <ele>288</ele>
        <time>2018-07-19T08:55:43Z</time>
      </trkpt>
      <trkpt lat="45.97699" lon="4.64902">
        <ele>288</ele>
        <time>2018-07-19T08:55:44Z</time>
      </trkpt>
      <trkpt lat="45.97698" lon="4.64891">
        <ele>288</ele>
        <time>2018-07-19T08:55:47Z</time>
      </trkpt>
      <trkpt lat="45.97698" lon="4.64887">
        <ele>288</ele>
        <time>2018-07-19T08:55:48Z</time>
      </trkpt>
      <trkpt lat="45.97697" lon="4.64876">
        <ele>288</ele>
        <time>2018-07-19T08:55:51Z</time>
      </trkpt>
      <trkpt lat="45.97696" lon="4.64872">
        <ele>289</ele>
        <time>2018-07-19T08:55:52Z</time>
      </trkpt>
      <trkpt lat="45.97695" lon="4.64859">
        <ele>289</ele>
        <time>2018-07-19T08:55:55Z</time>
      </trkpt>
      <trkpt lat="45.97694" lon="4.64855">
        <ele>289</ele>
        <time>2018-07-19T08:55:56Z</time>
      </trkpt>
      <trkpt lat="45.97691" lon="4.6484">
        <ele>289</ele>
        <time>2018-07-19T08:55:57Z</time>
      </trkpt>
      <trkpt lat="45.97688" lon="4.64828">
        <ele>289</ele>
        <time>2018-07-19T08:56:01Z</time>
      </trkpt>
      <trkpt lat="45.97687" lon="4.64825">
        <ele>289</ele>
        <time>2018-07-19T08:56:02Z</time>
      </trkpt>
      <trkpt lat="45.97686" lon="4.64816">
        <ele>290</ele>
        <time>2018-07-19T08:56:04Z</time>
      </trkpt>
      <trkpt lat="45.97685" lon="4.64812">
        <ele>290</ele>
        <time>2018-07-19T08:56:05Z</time>
      </trkpt>
      <trkpt lat="45.97684" lon="4.64803">
        <ele>290</ele>
        <time>2018-07-19T08:56:07Z</time>
      </trkpt>
      <trkpt lat="45.97683" lon="4.64799">
        <ele>290</ele>
        <time>2018-07-19T08:56:08Z</time>
      </trkpt>
      <trkpt lat="45.97683" lon="4.6479">
        <ele>290</ele>
        <time>2018-07-19T08:56:10Z</time>
      </trkpt>
      <trkpt lat="45.97682" lon="4.64785">
        <ele>290</ele>
        <time>2018-07-19T08:56:11Z</time>
      </trkpt>
      <trkpt lat="45.97681" lon="4.64773">
        <ele>290</ele>
        <time>2018-07-19T08:56:14Z</time>
      </trkpt>
      <trkpt lat="45.97681" lon="4.64768">
        <ele>290</ele>
        <time>2018-07-19T08:56:15Z</time>
      </trkpt>
      <trkpt lat="45.9768" lon="4.64759">
        <ele>290</ele>
        <time>2018-07-19T08:56:17Z</time>
      </trkpt>
      <trkpt lat="45.97679" lon="4.64754">
        <ele>290</ele>
        <time>2018-07-19T08:56:18Z</time>
      </trkpt>
      <trkpt lat="45.97678" lon="4.64742">
        <ele>291</ele>
        <time>2018-07-19T08:56:21Z</time>
      </trkpt>
      <trkpt lat="45.97677" lon="4.64738">
        <ele>291</ele>
        <time>2018-07-19T08:56:22Z</time>
      </trkpt>
      <trkpt lat="45.97676" lon="4.64726">
        <ele>291</ele>
        <time>2018-07-19T08:56:25Z</time>
      </trkpt>
      <trkpt lat="45.97676" lon="4.64721">
        <ele>291</ele>
        <time>2018-07-19T08:56:26Z</time>
      </trkpt>
      <trkpt lat="45.97675" lon="4.64708">
        <ele>291</ele>
        <time>2018-07-19T08:56:29Z</time>
      </trkpt>
      <trkpt lat="45.97675" lon="4.64704">
        <ele>291</ele>
        <time>2018-07-19T08:56:30Z</time>
      </trkpt>
      <trkpt lat="45.97674" lon="4.64692">
        <ele>291</ele>
        <time>2018-07-19T08:56:33Z</time>
      </trkpt>
      <trkpt lat="45.97674" lon="4.64687">
        <ele>291</ele>
        <time>2018-07-19T08:56:34Z</time>
      </trkpt>
      <trkpt lat="45.97672" lon="4.64675">
        <ele>292</ele>
        <time>2018-07-19T08:56:37Z</time>
      </trkpt>
      <trkpt lat="45.97672" lon="4.6467">
        <ele>292</ele>
        <time>2018-07-19T08:56:38Z</time>
      </trkpt>
      <trkpt lat="45.9767" lon="4.64658">
        <ele>293</ele>
        <time>2018-07-19T08:56:41Z</time>
      </trkpt>
      <trkpt lat="45.9767" lon="4.64654">
        <ele>293</ele>
        <time>2018-07-19T08:56:42Z</time>
      </trkpt>
      <trkpt lat="45.97668" lon="4.64641">
        <ele>293</ele>
        <time>2018-07-19T08:56:45Z</time>
      </trkpt>
      <trkpt lat="45.97668" lon="4.64637">
        <ele>293</ele>
        <time>2018-07-19T08:56:46Z</time>
      </trkpt>
      <trkpt lat="45.97666" lon="4.64625">
        <ele>295</ele>
        <time>2018-07-19T08:56:49Z</time>
      </trkpt>
      <trkpt lat="45.97666" lon="4.6462">
        <ele>295</ele>
        <time>2018-07-19T08:56:50Z</time>
      </trkpt>
      <trkpt lat="45.97665" lon="4.64612">
        <ele>295</ele>
        <time>2018-07-19T08:56:52Z</time>
      </trkpt>
      <trkpt lat="45.97664" lon="4.64608">
        <ele>296</ele>
        <time>2018-07-19T08:56:53Z</time>
      </trkpt>
      <trkpt lat="45.97662" lon="4.64595">
        <ele>296</ele>
        <time>2018-07-19T08:56:56Z</time>
      </trkpt>
      <trkpt lat="45.97662" lon="4.64592">
        <ele>296</ele>
        <time>2018-07-19T08:56:57Z</time>
      </trkpt>
      <trkpt lat="45.9766" lon="4.64582">
        <ele>297</ele>
        <time>2018-07-19T08:56:59Z</time>
      </trkpt>
      <trkpt lat="45.97657" lon="4.64567">
        <ele>298</ele>
        <time>2018-07-19T08:57:00Z</time>
      </trkpt>
      <trkpt lat="45.97655" lon="4.64555">
        <ele>299</ele>
        <time>2018-07-19T08:57:04Z</time>
      </trkpt>
      <trkpt lat="45.97655" lon="4.64552">
        <ele>299</ele>
        <time>2018-07-19T08:57:05Z</time>
      </trkpt>
      <trkpt lat="45.97653" lon="4.64542">
        <ele>299</ele>
        <time>2018-07-19T08:57:08Z</time>
      </trkpt>
      <trkpt lat="45.97653" lon="4.64538">
        <ele>299</ele>
        <time>2018-07-19T08:57:09Z</time>
      </trkpt>
      <trkpt lat="45.97652" lon="4.64527">
        <ele>300</ele>
        <time>2018-07-19T08:57:12Z</time>
      </trkpt>
      <trkpt lat="45.97651" lon="4.64522">
        <ele>300</ele>
        <time>2018-07-19T08:57:13Z</time>
      </trkpt>
      <trkpt lat="45.9765" lon="4.6451">
        <ele>300</ele>
        <time>2018-07-19T08:57:16Z</time>
      </trkpt>
      <trkpt lat="45.97649" lon="4.64506">
        <ele>300</ele>
        <time>2018-07-19T08:57:17Z</time>
      </trkpt>
      <trkpt lat="45.97648" lon="4.64494">
        <ele>302</ele>
        <time>2018-07-19T08:57:20Z</time>
      </trkpt>
      <trkpt lat="45.97648" lon="4.64491">
        <ele>302</ele>
        <time>2018-07-19T08:57:21Z</time>
      </trkpt>
      <trkpt lat="45.97647" lon="4.64482">
        <ele>302</ele>
        <time>2018-07-19T08:57:23Z</time>
      </trkpt>
      <trkpt lat="45.97646" lon="4.64478">
        <ele>302</ele>
        <time>2018-07-19T08:57:24Z</time>
      </trkpt>
      <trkpt lat="45.97645" lon="4.64465">
        <ele>302</ele>
        <time>2018-07-19T08:57:27Z</time>
      </trkpt>
      <trkpt lat="45.97645" lon="4.64461">
        <ele>302</ele>
        <time>2018-07-19T08:57:28Z</time>
      </trkpt>
      <trkpt lat="45.97645" lon="4.64452">
        <ele>302</ele>
        <time>2018-07-19T08:57:30Z</time>
      </trkpt>
      <trkpt lat="45.97645" lon="4.64447">
        <ele>302</ele>
        <time>2018-07-19T08:57:31Z</time>
      </trkpt>
      <trkpt lat="45.97644" lon="4.64438">
        <ele>302</ele>
        <time>2018-07-19T08:57:33Z</time>
      </trkpt>
      <trkpt lat="45.97644" lon="4.64434">
        <ele>302</ele>
        <time>2018-07-19T08:57:34Z</time>
      </trkpt>
      <trkpt lat="45.97643" lon="4.64424">
        <ele>302</ele>
        <time>2018-07-19T08:57:36Z</time>
      </trkpt>
      <trkpt lat="45.97643" lon="4.64419">
        <ele>302</ele>
        <time>2018-07-19T08:57:37Z</time>
      </trkpt>
      <trkpt lat="45.97642" lon="4.6441">
        <ele>302</ele>
        <time>2018-07-19T08:57:39Z</time>
      </trkpt>
      <trkpt lat="45.97641" lon="4.64406">
        <ele>302</ele>
        <time>2018-07-19T08:57:40Z</time>
      </trkpt>
      <trkpt lat="45.97639" lon="4.64394">
        <ele>303</ele>
        <time>2018-07-19T08:57:43Z</time>
      </trkpt>
      <trkpt lat="45.97639" lon="4.6439">
        <ele>303</ele>
        <time>2018-07-19T08:57:44Z</time>
      </trkpt>
      <trkpt lat="45.97638" lon="4.64377">
        <ele>303</ele>
        <time>2018-07-19T08:57:47Z</time>
      </trkpt>
      <trkpt lat="45.97637" lon="4.64373">
        <ele>303</ele>
        <time>2018-07-19T08:57:48Z</time>
      </trkpt>
      <trkpt lat="45.97636" lon="4.64361">
        <ele>303</ele>
        <time>2018-07-19T08:57:51Z</time>
      </trkpt>
      <trkpt lat="45.97636" lon="4.64358">
        <ele>303</ele>
        <time>2018-07-19T08:57:52Z</time>
      </trkpt>
      <trkpt lat="45.97634" lon="4.64346">
        <ele>303</ele>
        <time>2018-07-19T08:57:55Z</time>
      </trkpt>
      <trkpt lat="45.97634" lon="4.64342">
        <ele>303</ele>
        <time>2018-07-19T08:57:56Z</time>
      </trkpt>
      <trkpt lat="45.97633" lon="4.6433">
        <ele>304</ele>
        <time>2018-07-19T08:57:59Z</time>
      </trkpt>
      <trkpt lat="45.97632" lon="4.64326">
        <ele>304</ele>
        <time>2018-07-19T08:58:00Z</time>
      </trkpt>
      <trkpt lat="45.97631" lon="4.64314">
        <ele>304</ele>
        <time>2018-07-19T08:58:03Z</time>
      </trkpt>
      <trkpt lat="45.9763" lon="4.6431">
        <ele>304</ele>
        <time>2018-07-19T08:58:04Z</time>
      </trkpt>
      <trkpt lat="45.97629" lon="4.64298">
        <ele>304</ele>
        <time>2018-07-19T08:58:07Z</time>
      </trkpt>
      <trkpt lat="45.97628" lon="4.64294">
        <ele>304</ele>
        <time>2018-07-19T08:58:08Z</time>
      </trkpt>
      <trkpt lat="45.97627" lon="4.64285">
        <ele>305</ele>
        <time>2018-07-19T08:58:10Z</time>
      </trkpt>
      <trkpt lat="45.97627" lon="4.6428">
        <ele>305</ele>
        <time>2018-07-19T08:58:11Z</time>
      </trkpt>
      <trkpt lat="45.97626" lon="4.64271">
        <ele>305</ele>
        <time>2018-07-19T08:58:13Z</time>
      </trkpt>
      <trkpt lat="45.97626" lon="4.64266">
        <ele>305</ele>
        <time>2018-07-19T08:58:14Z</time>
      </trkpt>
      <trkpt lat="45.97625" lon="4.64257">
        <ele>305</ele>
        <time>2018-07-19T08:58:16Z</time>
      </trkpt>
      <trkpt lat="45.97624" lon="4.64253">
        <ele>305</ele>
        <time>2018-07-19T08:58:17Z</time>
      </trkpt>
      <trkpt lat="45.97623" lon="4.64244">
        <ele>306</ele>
        <time>2018-07-19T08:58:19Z</time>
      </trkpt>
      <trkpt lat="45.97622" lon="4.6424">
        <ele>306</ele>
        <time>2018-07-19T08:58:20Z</time>
      </trkpt>
      <trkpt lat="45.97621" lon="4.64228">
        <ele>306</ele>
        <time>2018-07-19T08:58:23Z</time>
      </trkpt>
      <trkpt lat="45.9762" lon="4.64221">
        <ele>306</ele>
        <time>2018-07-19T08:58:24Z</time>
      </trkpt>
      <trkpt lat="45.97618" lon="4.64212">
        <ele>306</ele>
        <time>2018-07-19T08:58:26Z</time>
      </trkpt>
      <trkpt lat="45.97618" lon="4.64208">
        <ele>306</ele>
        <time>2018-07-19T08:58:27Z</time>
      </trkpt>
      <trkpt lat="45.97616" lon="4.64196">
        <ele>306</ele>
        <time>2018-07-19T08:58:30Z</time>
      </trkpt>
      <trkpt lat="45.97616" lon="4.64192">
        <ele>306</ele>
        <time>2018-07-19T08:58:31Z</time>
      </trkpt>
      <trkpt lat="45.97615" lon="4.64179">
        <ele>306</ele>
        <time>2018-07-19T08:58:34Z</time>
      </trkpt>
      <trkpt lat="45.97614" lon="4.64175">
        <ele>306</ele>
        <time>2018-07-19T08:58:35Z</time>
      </trkpt>
      <trkpt lat="45.97613" lon="4.64167">
        <ele>306</ele>
        <time>2018-07-19T08:58:37Z</time>
      </trkpt>
      <trkpt lat="45.97612" lon="4.64162">
        <ele>307</ele>
        <time>2018-07-19T08:58:38Z</time>
      </trkpt>
      <trkpt lat="45.97611" lon="4.64153">
        <ele>307</ele>
        <time>2018-07-19T08:58:40Z</time>
      </trkpt>
      <trkpt lat="45.97611" lon="4.64148">
        <ele>307</ele>
        <time>2018-07-19T08:58:41Z</time>
      </trkpt>
      <trkpt lat="45.9761" lon="4.64139">
        <ele>307</ele>
        <time>2018-07-19T08:58:43Z</time>
      </trkpt>
      <trkpt lat="45.9761" lon="4.64134">
        <ele>307</ele>
        <time>2018-07-19T08:58:44Z</time>
      </trkpt>
      <trkpt lat="45.97608" lon="4.64125">
        <ele>307</ele>
        <time>2018-07-19T08:58:46Z</time>
      </trkpt>
      <trkpt lat="45.97608" lon="4.6412">
        <ele>307</ele>
        <time>2018-07-19T08:58:47Z</time>
      </trkpt>
      <trkpt lat="45.97607" lon="4.64111">
        <ele>308</ele>
        <time>2018-07-19T08:58:49Z</time>
      </trkpt>
      <trkpt lat="45.97606" lon="4.64107">
        <ele>308</ele>
        <time>2018-07-19T08:58:50Z</time>
      </trkpt>
      <trkpt lat="45.97606" lon="4.64098">
        <ele>308</ele>
        <time>2018-07-19T08:58:52Z</time>
      </trkpt>
      <trkpt lat="45.97605" lon="4.64093">
        <ele>308</ele>
        <time>2018-07-19T08:58:53Z</time>
      </trkpt>
      <trkpt lat="45.97605" lon="4.64084">
        <ele>308</ele>
        <time>2018-07-19T08:58:55Z</time>
      </trkpt>
      <trkpt lat="45.97605" lon="4.64079">
        <ele>310</ele>
        <time>2018-07-19T08:58:56Z</time>
      </trkpt>
      <trkpt lat="45.97604" lon="4.64068">
        <ele>310</ele>
        <time>2018-07-19T08:58:59Z</time>
      </trkpt>
      <trkpt lat="45.97603" lon="4.64064">
        <ele>310</ele>
        <time>2018-07-19T08:59:00Z</time>
      </trkpt>
      <trkpt lat="45.97602" lon="4.64051">
        <ele>310</ele>
        <time>2018-07-19T08:59:03Z</time>
      </trkpt>
      <trkpt lat="45.97601" lon="4.64047">
        <ele>310</ele>
        <time>2018-07-19T08:59:04Z</time>
      </trkpt>
      <trkpt lat="45.976" lon="4.64038">
        <ele>310</ele>
        <time>2018-07-19T08:59:06Z</time>
      </trkpt>
      <trkpt lat="45.976" lon="4.64034">
        <ele>310</ele>
        <time>2018-07-19T08:59:07Z</time>
      </trkpt>
      <trkpt lat="45.97599" lon="4.64025">
        <ele>310</ele>
        <time>2018-07-19T08:59:09Z</time>
      </trkpt>
      <trkpt lat="45.97599" lon="4.64021">
        <ele>310</ele>
        <time>2018-07-19T08:59:10Z</time>
      </trkpt>
      <trkpt lat="45.97598" lon="4.64011">
        <ele>311</ele>
        <time>2018-07-19T08:59:12Z</time>
      </trkpt>
      <trkpt lat="45.97598" lon="4.64007">
        <ele>311</ele>
        <time>2018-07-19T08:59:13Z</time>
      </trkpt>
      <trkpt lat="45.97597" lon="4.63998">
        <ele>312</ele>
        <time>2018-07-19T08:59:15Z</time>
      </trkpt>
      <trkpt lat="45.97597" lon="4.63994">
        <ele>312</ele>
        <time>2018-07-19T08:59:16Z</time>
      </trkpt>
      <trkpt lat="45.97596" lon="4.63981">
        <ele>312</ele>
        <time>2018-07-19T08:59:19Z</time>
      </trkpt>
      <trkpt lat="45.97595" lon="4.63976">
        <ele>312</ele>
        <time>2018-07-19T08:59:20Z</time>
      </trkpt>
      <trkpt lat="45.97594" lon="4.63964">
        <ele>312</ele>
        <time>2018-07-19T08:59:23Z</time>
      </trkpt>
      <trkpt lat="45.97594" lon="4.6396">
        <ele>312</ele>
        <time>2018-07-19T08:59:24Z</time>
      </trkpt>
      <trkpt lat="45.97593" lon="4.6395">
        <ele>312</ele>
        <time>2018-07-19T08:59:27Z</time>
      </trkpt>
      <trkpt lat="45.97593" lon="4.63945">
        <ele>313</ele>
        <time>2018-07-19T08:59:28Z</time>
      </trkpt>
      <trkpt lat="45.97592" lon="4.63937">
        <ele>313</ele>
        <time>2018-07-19T08:59:30Z</time>
      </trkpt>
      <trkpt lat="45.97592" lon="4.63931">
        <ele>314</ele>
        <time>2018-07-19T08:59:31Z</time>
      </trkpt>
      <trkpt lat="45.97591" lon="4.63921">
        <ele>314</ele>
        <time>2018-07-19T08:59:33Z</time>
      </trkpt>
      <trkpt lat="45.9759" lon="4.63917">
        <ele>315</ele>
        <time>2018-07-19T08:59:34Z</time>
      </trkpt>
      <trkpt lat="45.9759" lon="4.63908">
        <ele>315</ele>
        <time>2018-07-19T08:59:36Z</time>
      </trkpt>
      <trkpt lat="45.97589" lon="4.63903">
        <ele>315</ele>
        <time>2018-07-19T08:59:37Z</time>
      </trkpt>
      <trkpt lat="45.97588" lon="4.63891">
        <ele>314</ele>
        <time>2018-07-19T08:59:40Z</time>
      </trkpt>
      <trkpt lat="45.97587" lon="4.63887">
        <ele>314</ele>
        <time>2018-07-19T08:59:41Z</time>
      </trkpt>
      <trkpt lat="45.97585" lon="4.63875">
        <ele>315</ele>
        <time>2018-07-19T08:59:44Z</time>
      </trkpt>
      <trkpt lat="45.97584" lon="4.63871">
        <ele>315</ele>
        <time>2018-07-19T08:59:45Z</time>
      </trkpt>
      <trkpt lat="45.97582" lon="4.6386">
        <ele>318</ele>
        <time>2018-07-19T08:59:48Z</time>
      </trkpt>
      <trkpt lat="45.97582" lon="4.63856">
        <ele>318</ele>
        <time>2018-07-19T08:59:49Z</time>
      </trkpt>
      <trkpt lat="45.9758" lon="4.63845">
        <ele>318</ele>
        <time>2018-07-19T08:59:52Z</time>
      </trkpt>
      <trkpt lat="45.9758" lon="4.63841">
        <ele>318</ele>
        <time>2018-07-19T08:59:53Z</time>
      </trkpt>
      <trkpt lat="45.97578" lon="4.6383">
        <ele>319</ele>
        <time>2018-07-19T08:59:56Z</time>
      </trkpt>
      <trkpt lat="45.97578" lon="4.63827">
        <ele>319</ele>
        <time>2018-07-19T08:59:57Z</time>
      </trkpt>
      <trkpt lat="45.97576" lon="4.63815">
        <ele>320</ele>
        <time>2018-07-19T09:00:00Z</time>
      </trkpt>
      <trkpt lat="45.97576" lon="4.6381">
        <ele>321</ele>
        <time>2018-07-19T09:00:02Z</time>
      </trkpt>
      <trkpt lat="45.97575" lon="4.63798">
        <ele>321</ele>
        <time>2018-07-19T09:00:05Z</time>
      </trkpt>
      <trkpt lat="45.97575" lon="4.63794">
        <ele>321</ele>
        <time>2018-07-19T09:00:06Z</time>
      </trkpt>
      <trkpt lat="45.97575" lon="4.63785">
        <ele>322</ele>
        <time>2018-07-19T09:00:08Z</time>
      </trkpt>
      <trkpt lat="45.97574" lon="4.63781">
        <ele>322</ele>
        <time>2018-07-19T09:00:09Z</time>
      </trkpt>
      <trkpt lat="45.97574" lon="4.63772">
        <ele>322</ele>
        <time>2018-07-19T09:00:11Z</time>
      </trkpt>
      <trkpt lat="45.97574" lon="4.63768">
        <ele>322</ele>
        <time>2018-07-19T09:00:12Z</time>
      </trkpt>
      <trkpt lat="45.97573" lon="4.63756">
        <ele>322</ele>
        <time>2018-07-19T09:00:15Z</time>
      </trkpt>
      <trkpt lat="45.97573" lon="4.63752">
        <ele>322</ele>
        <time>2018-07-19T09:00:16Z</time>
      </trkpt>
      <trkpt lat="45.97572" lon="4.63741">
        <ele>323</ele>
        <time>2018-07-19T09:00:19Z</time>
      </trkpt>
      <trkpt lat="45.97572" lon="4.63737">
        <ele>323</ele>
        <time>2018-07-19T09:00:20Z</time>
      </trkpt>
      <trkpt lat="45.9757" lon="4.63727">
        <ele>324</ele>
        <time>2018-07-19T09:00:23Z</time>
      </trkpt>
      <trkpt lat="45.9757" lon="4.63724">
        <ele>324</ele>
        <time>2018-07-19T09:00:24Z</time>
      </trkpt>
      <trkpt lat="45.97568" lon="4.63711">
        <ele>325</ele>
        <time>2018-07-19T09:00:28Z</time>
      </trkpt>
      <trkpt lat="45.97567" lon="4.63708">
        <ele>325</ele>
        <time>2018-07-19T09:00:29Z</time>
      </trkpt>
      <trkpt lat="45.97566" lon="4.63698">
        <ele>325</ele>
        <time>2018-07-19T09:00:32Z</time>
      </trkpt>
      <trkpt lat="45.97566" lon="4.63695">
        <ele>325</ele>
        <time>2018-07-19T09:00:33Z</time>
      </trkpt>
      <trkpt lat="45.97563" lon="4.63684">
        <ele>325</ele>
        <time>2018-07-19T09:00:36Z</time>
      </trkpt>
      <trkpt lat="45.97562" lon="4.6368">
        <ele>325</ele>
        <time>2018-07-19T09:00:37Z</time>
      </trkpt>
      <trkpt lat="45.97559" lon="4.63672">
        <ele>325</ele>
        <time>2018-07-19T09:00:39Z</time>
      </trkpt>
      <trkpt lat="45.97558" lon="4.63668">
        <ele>325</ele>
        <time>2018-07-19T09:00:40Z</time>
      </trkpt>
      <trkpt lat="45.97556" lon="4.63656">
        <ele>326</ele>
        <time>2018-07-19T09:00:43Z</time>
      </trkpt>
      <trkpt lat="45.97556" lon="4.63653">
        <ele>326</ele>
        <time>2018-07-19T09:00:44Z</time>
      </trkpt>
      <trkpt lat="45.97556" lon="4.63642">
        <ele>327</ele>
        <time>2018-07-19T09:00:47Z</time>
      </trkpt>
      <trkpt lat="45.97556" lon="4.63638">
        <ele>327</ele>
        <time>2018-07-19T09:00:48Z</time>
      </trkpt>
      <trkpt lat="45.97557" lon="4.63627">
        <ele>327</ele>
        <time>2018-07-19T09:00:51Z</time>
      </trkpt>
      <trkpt lat="45.97557" lon="4.63623">
        <ele>327</ele>
        <time>2018-07-19T09:00:52Z</time>
      </trkpt>
      <trkpt lat="45.97557" lon="4.63611">
        <ele>327</ele>
        <time>2018-07-19T09:00:55Z</time>
      </trkpt>
      <trkpt lat="45.97556" lon="4.63607">
        <ele>327</ele>
        <time>2018-07-19T09:00:56Z</time>
      </trkpt>
      <trkpt lat="45.97554" lon="4.63596">
        <ele>327</ele>
        <time>2018-07-19T09:00:59Z</time>
      </trkpt>
      <trkpt lat="45.97553" lon="4.63592">
        <ele>327</ele>
        <time>2018-07-19T09:01:00Z</time>
      </trkpt>
      <trkpt lat="45.97551" lon="4.63581">
        <ele>328</ele>
        <time>2018-07-19T09:01:03Z</time>
      </trkpt>
      <trkpt lat="45.9755" lon="4.63577">
        <ele>328</ele>
        <time>2018-07-19T09:01:04Z</time>
      </trkpt>
      <trkpt lat="45.97547" lon="4.63567">
        <ele>329</ele>
        <time>2018-07-19T09:01:07Z</time>
      </trkpt>
      <trkpt lat="45.97546" lon="4.63563">
        <ele>329</ele>
        <time>2018-07-19T09:01:08Z</time>
      </trkpt>
      <trkpt lat="45.97546" lon="4.63551">
        <ele>329</ele>
        <time>2018-07-19T09:01:12Z</time>
      </trkpt>
      <trkpt lat="45.97546" lon="4.63548">
        <ele>329</ele>
        <time>2018-07-19T09:01:13Z</time>
      </trkpt>
      <trkpt lat="45.97547" lon="4.63536">
        <ele>329</ele>
        <time>2018-07-19T09:01:16Z</time>
      </trkpt>
      <trkpt lat="45.97546" lon="4.63532">
        <ele>329</ele>
        <time>2018-07-19T09:01:17Z</time>
      </trkpt>
      <trkpt lat="45.97546" lon="4.63521">
        <ele>329</ele>
        <time>2018-07-19T09:01:20Z</time>
      </trkpt>
      <trkpt lat="45.97545" lon="4.63517">
        <ele>329</ele>
        <time>2018-07-19T09:01:21Z</time>
      </trkpt>
      <trkpt lat="45.97543" lon="4.63507">
        <ele>329</ele>
        <time>2018-07-19T09:01:24Z</time>
      </trkpt>
      <trkpt lat="45.97542" lon="4.63504">
        <ele>329</ele>
        <time>2018-07-19T09:01:25Z</time>
      </trkpt>
      <trkpt lat="45.97541" lon="4.63494">
        <ele>331</ele>
        <time>2018-07-19T09:01:28Z</time>
      </trkpt>
      <trkpt lat="45.9754" lon="4.63491">
        <ele>331</ele>
        <time>2018-07-19T09:01:29Z</time>
      </trkpt>
      <trkpt lat="45.97538" lon="4.6348">
        <ele>331</ele>
        <time>2018-07-19T09:01:32Z</time>
      </trkpt>
      <trkpt lat="45.97538" lon="4.63477">
        <ele>331</ele>
        <time>2018-07-19T09:01:33Z</time>
      </trkpt>
      <trkpt lat="45.97536" lon="4.63466">
        <ele>331</ele>
        <time>2018-07-19T09:01:36Z</time>
      </trkpt>
      <trkpt lat="45.97535" lon="4.63463">
        <ele>331</ele>
        <time>2018-07-19T09:01:37Z</time>
      </trkpt>
      <trkpt lat="45.97534" lon="4.63452">
        <ele>331</ele>
        <time>2018-07-19T09:01:40Z</time>
      </trkpt>
      <trkpt lat="45.97534" lon="4.63448">
        <ele>331</ele>
        <time>2018-07-19T09:01:41Z</time>
      </trkpt>
      <trkpt lat="45.97533" lon="4.63437">
        <ele>332</ele>
        <time>2018-07-19T09:01:44Z</time>
      </trkpt>
      <trkpt lat="45.97532" lon="4.63434">
        <ele>332</ele>
        <time>2018-07-19T09:01:45Z</time>
      </trkpt>
      <trkpt lat="45.97531" lon="4.63424">
        <ele>332</ele>
        <time>2018-07-19T09:01:48Z</time>
      </trkpt>
      <trkpt lat="45.97531" lon="4.6342">
        <ele>332</ele>
        <time>2018-07-19T09:01:49Z</time>
      </trkpt>
      <trkpt lat="45.97529" lon="4.63409">
        <ele>333</ele>
        <time>2018-07-19T09:01:52Z</time>
      </trkpt>
      <trkpt lat="45.97529" lon="4.63406">
        <ele>333</ele>
        <time>2018-07-19T09:01:53Z</time>
      </trkpt>
      <trkpt lat="45.97529" lon="4.63395">
        <ele>333</ele>
        <time>2018-07-19T09:01:56Z</time>
      </trkpt>
      <trkpt lat="45.97528" lon="4.63392">
        <ele>333</ele>
        <time>2018-07-19T09:01:57Z</time>
      </trkpt>
      <trkpt lat="45.97528" lon="4.63381">
        <ele>333</ele>
        <time>2018-07-19T09:02:00Z</time>
      </trkpt>
      <trkpt lat="45.97527" lon="4.63378">
        <ele>333</ele>
        <time>2018-07-19T09:02:01Z</time>
      </trkpt>
      <trkpt lat="45.97526" lon="4.63368">
        <ele>333</ele>
        <time>2018-07-19T09:02:04Z</time>
      </trkpt>
      <trkpt lat="45.97526" lon="4.63364">
        <ele>333</ele>
        <time>2018-07-19T09:02:05Z</time>
      </trkpt>
      <trkpt lat="45.97524" lon="4.63354">
        <ele>334</ele>
        <time>2018-07-19T09:02:08Z</time>
      </trkpt>
      <trkpt lat="45.97523" lon="4.63351">
        <ele>334</ele>
        <time>2018-07-19T09:02:09Z</time>
      </trkpt>
      <trkpt lat="45.97521" lon="4.63341">
        <ele>334</ele>
        <time>2018-07-19T09:02:12Z</time>
      </trkpt>
      <trkpt lat="45.9752" lon="4.63337">
        <ele>335</ele>
        <time>2018-07-19T09:02:13Z</time>
      </trkpt>
      <trkpt lat="45.97519" lon="4.63325">
        <ele>335</ele>
        <time>2018-07-19T09:02:14Z</time>
      </trkpt>
      <trkpt lat="45.97519" lon="4.63323">
        <ele>335</ele>
        <time>2018-07-19T09:02:15Z</time>
      </trkpt>
      <trkpt lat="45.97518" lon="4.63311">
        <ele>335</ele>
        <time>2018-07-19T09:02:19Z</time>
      </trkpt>
      <trkpt lat="45.97518" lon="4.63308">
        <ele>335</ele>
        <time>2018-07-19T09:02:20Z</time>
      </trkpt>
      <trkpt lat="45.97517" lon="4.63298">
        <ele>335</ele>
        <time>2018-07-19T09:02:23Z</time>
      </trkpt>
      <trkpt lat="45.97516" lon="4.63294">
        <ele>335</ele>
        <time>2018-07-19T09:02:24Z</time>
      </trkpt>
      <trkpt lat="45.97515" lon="4.63282">
        <ele>335</ele>
        <time>2018-07-19T09:02:27Z</time>
      </trkpt>
      <trkpt lat="45.97514" lon="4.63278">
        <ele>335</ele>
        <time>2018-07-19T09:02:28Z</time>
      </trkpt>
      <trkpt lat="45.97513" lon="4.63266">
        <ele>336</ele>
        <time>2018-07-19T09:02:31Z</time>
      </trkpt>
      <trkpt lat="45.97512" lon="4.63262">
        <ele>336</ele>
        <time>2018-07-19T09:02:32Z</time>
      </trkpt>
      <trkpt lat="45.97511" lon="4.6325">
        <ele>337</ele>
        <time>2018-07-19T09:02:35Z</time>
      </trkpt>
      <trkpt lat="45.97511" lon="4.63246">
        <ele>337</ele>
        <time>2018-07-19T09:02:36Z</time>
      </trkpt>
      <trkpt lat="45.9751" lon="4.63236">
        <ele>337</ele>
        <time>2018-07-19T09:02:39Z</time>
      </trkpt>
      <trkpt lat="45.9751" lon="4.63233">
        <ele>337</ele>
        <time>2018-07-19T09:02:40Z</time>
      </trkpt>
      <trkpt lat="45.97509" lon="4.63223">
        <ele>336</ele>
        <time>2018-07-19T09:02:43Z</time>
      </trkpt>
      <trkpt lat="45.97509" lon="4.63219">
        <ele>336</ele>
        <time>2018-07-19T09:02:44Z</time>
      </trkpt>
      <trkpt lat="45.97509" lon="4.63209">
        <ele>336</ele>
        <time>2018-07-19T09:02:47Z</time>
      </trkpt>
      <trkpt lat="45.97509" lon="4.63206">
        <ele>336</ele>
        <time>2018-07-19T09:02:48Z</time>
      </trkpt>
      <trkpt lat="45.97508" lon="4.63196">
        <ele>336</ele>
        <time>2018-07-19T09:02:51Z</time>
      </trkpt>
      <trkpt lat="45.97507" lon="4.63192">
        <ele>337</ele>
        <time>2018-07-19T09:02:52Z</time>
      </trkpt>
      <trkpt lat="45.97506" lon="4.63182">
        <ele>337</ele>
        <time>2018-07-19T09:02:55Z</time>
      </trkpt>
      <trkpt lat="45.97505" lon="4.63179">
        <ele>337</ele>
        <time>2018-07-19T09:02:56Z</time>
      </trkpt>
      <trkpt lat="45.97504" lon="4.63168">
        <ele>338</ele>
        <time>2018-07-19T09:02:59Z</time>
      </trkpt>
      <trkpt lat="45.97503" lon="4.63164">
        <ele>339</ele>
        <time>2018-07-19T09:03:00Z</time>
      </trkpt>
      <trkpt lat="45.97501" lon="4.63154">
        <ele>338</ele>
        <time>2018-07-19T09:03:03Z</time>
      </trkpt>
      <trkpt lat="45.97501" lon="4.6315">
        <ele>338</ele>
        <time>2018-07-19T09:03:04Z</time>
      </trkpt>
      <trkpt lat="45.97499" lon="4.63139">
        <ele>342</ele>
        <time>2018-07-19T09:03:07Z</time>
      </trkpt>
      <trkpt lat="45.97499" lon="4.63134">
        <ele>342</ele>
        <time>2018-07-19T09:03:08Z</time>
      </trkpt>
      <trkpt lat="45.97498" lon="4.63121">
        <ele>342</ele>
        <time>2018-07-19T09:03:11Z</time>
      </trkpt>
      <trkpt lat="45.97498" lon="4.63116">
        <ele>342</ele>
        <time>2018-07-19T09:03:12Z</time>
      </trkpt>
      <trkpt lat="45.97497" lon="4.63107">
        <ele>342</ele>
        <time>2018-07-19T09:03:14Z</time>
      </trkpt>
      <trkpt lat="45.97496" lon="4.63102">
        <ele>342</ele>
        <time>2018-07-19T09:03:15Z</time>
      </trkpt>
      <trkpt lat="45.97494" lon="4.6309">
        <ele>341</ele>
        <time>2018-07-19T09:03:18Z</time>
      </trkpt>
      <trkpt lat="45.97493" lon="4.63085">
        <ele>341</ele>
        <time>2018-07-19T09:03:19Z</time>
      </trkpt>
      <trkpt lat="45.97492" lon="4.63073">
        <ele>342</ele>
        <time>2018-07-19T09:03:22Z</time>
      </trkpt>
      <trkpt lat="45.97491" lon="4.63068">
        <ele>343</ele>
        <time>2018-07-19T09:03:23Z</time>
      </trkpt>
      <trkpt lat="45.9749" lon="4.6306">
        <ele>343</ele>
        <time>2018-07-19T09:03:25Z</time>
      </trkpt>
      <trkpt lat="45.97489" lon="4.63055">
        <ele>344</ele>
        <time>2018-07-19T09:03:26Z</time>
      </trkpt>
      <trkpt lat="45.97488" lon="4.63042">
        <ele>344</ele>
        <time>2018-07-19T09:03:29Z</time>
      </trkpt>
      <trkpt lat="45.97487" lon="4.63038">
        <ele>344</ele>
        <time>2018-07-19T09:03:30Z</time>
      </trkpt>
      <trkpt lat="45.97485" lon="4.6303">
        <ele>344</ele>
        <time>2018-07-19T09:03:32Z</time>
      </trkpt>
      <trkpt lat="45.97482" lon="4.63017">
        <ele>345</ele>
        <time>2018-07-19T09:03:33Z</time>
      </trkpt>
      <trkpt lat="45.97479" lon="4.63007">
        <ele>345</ele>
        <time>2018-07-19T09:03:35Z</time>
      </trkpt>
      <trkpt lat="45.97478" lon="4.63002">
        <ele>345</ele>
        <time>2018-07-19T09:03:36Z</time>
      </trkpt>
      <trkpt lat="45.97476" lon="4.6299">
        <ele>345</ele>
        <time>2018-07-19T09:03:40Z</time>
      </trkpt>
      <trkpt lat="45.97474" lon="4.62979">
        <ele>345</ele>
        <time>2018-07-19T09:03:41Z</time>
      </trkpt>
      <trkpt lat="45.97471" lon="4.62969">
        <ele>345</ele>
        <time>2018-07-19T09:03:43Z</time>
      </trkpt>
      <trkpt lat="45.97471" lon="4.62966">
        <ele>345</ele>
        <time>2018-07-19T09:03:44Z</time>
      </trkpt>
      <trkpt lat="45.97469" lon="4.62956">
        <ele>345</ele>
        <time>2018-07-19T09:03:47Z</time>
      </trkpt>
      <trkpt lat="45.97469" lon="4.62952">
        <ele>345</ele>
        <time>2018-07-19T09:03:48Z</time>
      </trkpt>
      <trkpt lat="45.97466" lon="4.6294">
        <ele>345</ele>
        <time>2018-07-19T09:03:51Z</time>
      </trkpt>
      <trkpt lat="45.97465" lon="4.62936">
        <ele>345</ele>
        <time>2018-07-19T09:03:52Z</time>
      </trkpt>
      <trkpt lat="45.97462" lon="4.62927">
        <ele>345</ele>
        <time>2018-07-19T09:03:54Z</time>
      </trkpt>
      <trkpt lat="45.97461" lon="4.62923">
        <ele>345</ele>
        <time>2018-07-19T09:03:55Z</time>
      </trkpt>
      <trkpt lat="45.97458" lon="4.62915">
        <ele>345</ele>
        <time>2018-07-19T09:03:57Z</time>
      </trkpt>
      <trkpt lat="45.97457" lon="4.6291">
        <ele>345</ele>
        <time>2018-07-19T09:03:58Z</time>
      </trkpt>
      <trkpt lat="45.97455" lon="4.62901">
        <ele>345</ele>
        <time>2018-07-19T09:04:00Z</time>
      </trkpt>
      <trkpt lat="45.97455" lon="4.62897">
        <ele>345</ele>
        <time>2018-07-19T09:04:01Z</time>
      </trkpt>
      <trkpt lat="45.97453" lon="4.62888">
        <ele>346</ele>
        <time>2018-07-19T09:04:03Z</time>
      </trkpt>
      <trkpt lat="45.97453" lon="4.62884">
        <ele>346</ele>
        <time>2018-07-19T09:04:04Z</time>
      </trkpt>
      <trkpt lat="45.97451" lon="4.62875">
        <ele>346</ele>
        <time>2018-07-19T09:04:06Z</time>
      </trkpt>
      <trkpt lat="45.9745" lon="4.62871">
        <ele>346</ele>
        <time>2018-07-19T09:04:07Z</time>
      </trkpt>
      <trkpt lat="45.97449" lon="4.62862">
        <ele>346</ele>
        <time>2018-07-19T09:04:09Z</time>
      </trkpt>
      <trkpt lat="45.97448" lon="4.62858">
        <ele>346</ele>
        <time>2018-07-19T09:04:10Z</time>
      </trkpt>
      <trkpt lat="45.97446" lon="4.62846">
        <ele>346</ele>
        <time>2018-07-19T09:04:13Z</time>
      </trkpt>
      <trkpt lat="45.97446" lon="4.62842">
        <ele>346</ele>
        <time>2018-07-19T09:04:14Z</time>
      </trkpt>
      <trkpt lat="45.97445" lon="4.62829">
        <ele>347</ele>
        <time>2018-07-19T09:04:17Z</time>
      </trkpt>
      <trkpt lat="45.97444" lon="4.62824">
        <ele>347</ele>
        <time>2018-07-19T09:04:18Z</time>
      </trkpt>
      <trkpt lat="45.97443" lon="4.62815">
        <ele>347</ele>
        <time>2018-07-19T09:04:20Z</time>
      </trkpt>
      <trkpt lat="45.97442" lon="4.62811">
        <ele>347</ele>
        <time>2018-07-19T09:04:21Z</time>
      </trkpt>
      <trkpt lat="45.97439" lon="4.62799">
        <ele>347</ele>
        <time>2018-07-19T09:04:24Z</time>
      </trkpt>
      <trkpt lat="45.97437" lon="4.62796">
        <ele>348</ele>
        <time>2018-07-19T09:04:25Z</time>
      </trkpt>
      <trkpt lat="45.97434" lon="4.62784">
        <ele>348</ele>
        <time>2018-07-19T09:04:28Z</time>
      </trkpt>
      <trkpt lat="45.97432" lon="4.62779">
        <ele>348</ele>
        <time>2018-07-19T09:04:29Z</time>
      </trkpt>
      <trkpt lat="45.97431" lon="4.6277">
        <ele>349</ele>
        <time>2018-07-19T09:04:31Z</time>
      </trkpt>
      <trkpt lat="45.9743" lon="4.62765">
        <ele>349</ele>
        <time>2018-07-19T09:04:32Z</time>
      </trkpt>
      <trkpt lat="45.97429" lon="4.62753">
        <ele>350</ele>
        <time>2018-07-19T09:04:35Z</time>
      </trkpt>
      <trkpt lat="45.97429" lon="4.6275">
        <ele>350</ele>
        <time>2018-07-19T09:04:36Z</time>
      </trkpt>
      <trkpt lat="45.97428" lon="4.62738">
        <ele>350</ele>
        <time>2018-07-19T09:04:39Z</time>
      </trkpt>
      <trkpt lat="45.97427" lon="4.62735">
        <ele>350</ele>
        <time>2018-07-19T09:04:40Z</time>
      </trkpt>
      <trkpt lat="45.97425" lon="4.62724">
        <ele>350</ele>
        <time>2018-07-19T09:04:43Z</time>
      </trkpt>
      <trkpt lat="45.97425" lon="4.62721">
        <ele>349</ele>
        <time>2018-07-19T09:04:44Z</time>
      </trkpt>
      <trkpt lat="45.97423" lon="4.62711">
        <ele>349</ele>
        <time>2018-07-19T09:04:47Z</time>
      </trkpt>
      <trkpt lat="45.97422" lon="4.62707">
        <ele>349</ele>
        <time>2018-07-19T09:04:48Z</time>
      </trkpt>
      <trkpt lat="45.9742" lon="4.62696">
        <ele>350</ele>
        <time>2018-07-19T09:04:51Z</time>
      </trkpt>
      <trkpt lat="45.97419" lon="4.62692">
        <ele>350</ele>
        <time>2018-07-19T09:04:52Z</time>
      </trkpt>
      <trkpt lat="45.97417" lon="4.62682">
        <ele>351</ele>
        <time>2018-07-19T09:04:55Z</time>
      </trkpt>
      <trkpt lat="45.97416" lon="4.62679">
        <ele>354</ele>
        <time>2018-07-19T09:04:56Z</time>
      </trkpt>
      <trkpt lat="45.97414" lon="4.62668">
        <ele>353</ele>
        <time>2018-07-19T09:04:59Z</time>
      </trkpt>
      <trkpt lat="45.97413" lon="4.62665">
        <ele>354</ele>
        <time>2018-07-19T09:05:00Z</time>
      </trkpt>
      <trkpt lat="45.97411" lon="4.62655">
        <ele>355</ele>
        <time>2018-07-19T09:05:03Z</time>
      </trkpt>
      <trkpt lat="45.9741" lon="4.62652">
        <ele>355</ele>
        <time>2018-07-19T09:05:04Z</time>
      </trkpt>
      <trkpt lat="45.97408" lon="4.62642">
        <ele>356</ele>
        <time>2018-07-19T09:05:07Z</time>
      </trkpt>
      <trkpt lat="45.97407" lon="4.62639">
        <ele>356</ele>
        <time>2018-07-19T09:05:08Z</time>
      </trkpt>
      <trkpt lat="45.97404" lon="4.62629">
        <ele>356</ele>
        <time>2018-07-19T09:05:11Z</time>
      </trkpt>
      <trkpt lat="45.97404" lon="4.62626">
        <ele>356</ele>
        <time>2018-07-19T09:05:12Z</time>
      </trkpt>
      <trkpt lat="45.97401" lon="4.62615">
        <ele>357</ele>
        <time>2018-07-19T09:05:15Z</time>
      </trkpt>
      <trkpt lat="45.974" lon="4.62612">
        <ele>357</ele>
        <time>2018-07-19T09:05:16Z</time>
      </trkpt>
      <trkpt lat="45.97398" lon="4.62601">
        <ele>357</ele>
        <time>2018-07-19T09:05:20Z</time>
      </trkpt>
      <trkpt lat="45.97397" lon="4.62598">
        <ele>357</ele>
        <time>2018-07-19T09:05:21Z</time>
      </trkpt>
      <trkpt lat="45.97395" lon="4.62586">
        <ele>357</ele>
        <time>2018-07-19T09:05:24Z</time>
      </trkpt>
      <trkpt lat="45.97395" lon="4.62582">
        <ele>359</ele>
        <time>2018-07-19T09:05:25Z</time>
      </trkpt>
      <trkpt lat="45.97394" lon="4.62571">
        <ele>359</ele>
        <time>2018-07-19T09:05:28Z</time>
      </trkpt>
      <trkpt lat="45.97394" lon="4.62568">
        <ele>360</ele>
        <time>2018-07-19T09:05:29Z</time>
      </trkpt>
      <trkpt lat="45.97393" lon="4.62557">
        <ele>360</ele>
        <time>2018-07-19T09:05:32Z</time>
      </trkpt>
      <trkpt lat="45.97392" lon="4.62554">
        <ele>360</ele>
        <time>2018-07-19T09:05:33Z</time>
      </trkpt>
      <trkpt lat="45.97392" lon="4.62543">
        <ele>360</ele>
        <time>2018-07-19T09:05:36Z</time>
      </trkpt>
      <trkpt lat="45.97392" lon="4.62539">
        <ele>361</ele>
        <time>2018-07-19T09:05:37Z</time>
      </trkpt>
      <trkpt lat="45.97392" lon="4.62528">
        <ele>361</ele>
        <time>2018-07-19T09:05:40Z</time>
      </trkpt>
      <trkpt lat="45.97393" lon="4.62524">
        <ele>361</ele>
        <time>2018-07-19T09:05:41Z</time>
      </trkpt>
      <trkpt lat="45.97393" lon="4.62512">
        <ele>361</ele>
        <time>2018-07-19T09:05:44Z</time>
      </trkpt>
      <trkpt lat="45.97394" lon="4.62508">
        <ele>361</ele>
        <time>2018-07-19T09:05:45Z</time>
      </trkpt>
      <trkpt lat="45.97395" lon="4.62496">
        <ele>363</ele>
        <time>2018-07-19T09:05:48Z</time>
      </trkpt>
      <trkpt lat="45.97395" lon="4.62493">
        <ele>363</ele>
        <time>2018-07-19T09:05:49Z</time>
      </trkpt>
      <trkpt lat="45.97397" lon="4.62483">
        <ele>363</ele>
        <time>2018-07-19T09:05:52Z</time>
      </trkpt>
      <trkpt lat="45.97397" lon="4.6248">
        <ele>364</ele>
        <time>2018-07-19T09:05:53Z</time>
      </trkpt>
      <trkpt lat="45.974" lon="4.62468">
        <ele>364</ele>
        <time>2018-07-19T09:05:57Z</time>
      </trkpt>
      <trkpt lat="45.97401" lon="4.62465">
        <ele>364</ele>
        <time>2018-07-19T09:05:58Z</time>
      </trkpt>
      <trkpt lat="45.97403" lon="4.62455">
        <ele>364</ele>
        <time>2018-07-19T09:06:01Z</time>
      </trkpt>
      <trkpt lat="45.97404" lon="4.62452">
        <ele>364</ele>
        <time>2018-07-19T09:06:02Z</time>
      </trkpt>
      <trkpt lat="45.97407" lon="4.6244">
        <ele>364</ele>
        <time>2018-07-19T09:06:05Z</time>
      </trkpt>
      <trkpt lat="45.97407" lon="4.62437">
        <ele>364</ele>
        <time>2018-07-19T09:06:06Z</time>
      </trkpt>
      <trkpt lat="45.97409" lon="4.62426">
        <ele>364</ele>
        <time>2018-07-19T09:06:09Z</time>
      </trkpt>
      <trkpt lat="45.9741" lon="4.62422">
        <ele>364</ele>
        <time>2018-07-19T09:06:10Z</time>
      </trkpt>
      <trkpt lat="45.97412" lon="4.62409">
        <ele>365</ele>
        <time>2018-07-19T09:06:13Z</time>
      </trkpt>
      <trkpt lat="45.97412" lon="4.62405">
        <ele>366</ele>
        <time>2018-07-19T09:06:14Z</time>
      </trkpt>
      <trkpt lat="45.97414" lon="4.62396">
        <ele>367</ele>
        <time>2018-07-19T09:06:17Z</time>
      </trkpt>
      <trkpt lat="45.97415" lon="4.62393">
        <ele>367</ele>
        <time>2018-07-19T09:06:18Z</time>
      </trkpt>
      <trkpt lat="45.97418" lon="4.62383">
        <ele>362</ele>
        <time>2018-07-19T09:06:21Z</time>
      </trkpt>
      <trkpt lat="45.97419" lon="4.62379">
        <ele>362</ele>
        <time>2018-07-19T09:06:22Z</time>
      </trkpt>
      <trkpt lat="45.97421" lon="4.6237">
        <ele>363</ele>
        <time>2018-07-19T09:06:25Z</time>
      </trkpt>
      <trkpt lat="45.97422" lon="4.62367">
        <ele>363</ele>
        <time>2018-07-19T09:06:26Z</time>
      </trkpt>
      <trkpt lat="45.97423" lon="4.62355">
        <ele>364</ele>
        <time>2018-07-19T09:06:30Z</time>
      </trkpt>
      <trkpt lat="45.97424" lon="4.62351">
        <ele>364</ele>
        <time>2018-07-19T09:06:31Z</time>
      </trkpt>
      <trkpt lat="45.97424" lon="4.6234">
        <ele>366</ele>
        <time>2018-07-19T09:06:34Z</time>
      </trkpt>
      <trkpt lat="45.97424" lon="4.62337">
        <ele>366</ele>
        <time>2018-07-19T09:06:35Z</time>
      </trkpt>
      <trkpt lat="45.97424" lon="4.62326">
        <ele>367</ele>
        <time>2018-07-19T09:06:38Z</time>
      </trkpt>
      <trkpt lat="45.97424" lon="4.62323">
        <ele>367</ele>
        <time>2018-07-19T09:06:39Z</time>
      </trkpt>
      <trkpt lat="45.97425" lon="4.6231">
        <ele>367</ele>
        <time>2018-07-19T09:06:43Z</time>
      </trkpt>
      <trkpt lat="45.97425" lon="4.62307">
        <ele>367</ele>
        <time>2018-07-19T09:06:44Z</time>
      </trkpt>
      <trkpt lat="45.97427" lon="4.62296">
        <ele>367</ele>
        <time>2018-07-19T09:06:48Z</time>
      </trkpt>
      <trkpt lat="45.97427" lon="4.62292">
        <ele>367</ele>
        <time>2018-07-19T09:06:49Z</time>
      </trkpt>
      <trkpt lat="45.97427" lon="4.62282">
        <ele>367</ele>
        <time>2018-07-19T09:06:52Z</time>
      </trkpt>
      <trkpt lat="45.97427" lon="4.62278">
        <ele>367</ele>
        <time>2018-07-19T09:06:53Z</time>
      </trkpt>
      <trkpt lat="45.97428" lon="4.62267">
        <ele>368</ele>
        <time>2018-07-19T09:06:56Z</time>
      </trkpt>
      <trkpt lat="45.97428" lon="4.62264">
        <ele>368</ele>
        <time>2018-07-19T09:06:57Z</time>
      </trkpt>
      <trkpt lat="45.97431" lon="4.62252">
        <ele>369</ele>
        <time>2018-07-19T09:07:00Z</time>
      </trkpt>
      <trkpt lat="45.97432" lon="4.62248">
        <ele>370</ele>
        <time>2018-07-19T09:07:01Z</time>
      </trkpt>
      <trkpt lat="45.97434" lon="4.62236">
        <ele>370</ele>
        <time>2018-07-19T09:07:04Z</time>
      </trkpt>
      <trkpt lat="45.97435" lon="4.62233">
        <ele>370</ele>
        <time>2018-07-19T09:07:05Z</time>
      </trkpt>
      <trkpt lat="45.97435" lon="4.62224">
        <ele>370</ele>
        <time>2018-07-19T09:07:08Z</time>
      </trkpt>
      <trkpt lat="45.97435" lon="4.62219">
        <ele>370</ele>
        <time>2018-07-19T09:07:09Z</time>
      </trkpt>
      <trkpt lat="45.97434" lon="4.62208">
        <ele>371</ele>
        <time>2018-07-19T09:07:12Z</time>
      </trkpt>
      <trkpt lat="45.97434" lon="4.62204">
        <ele>371</ele>
        <time>2018-07-19T09:07:13Z</time>
      </trkpt>
      <trkpt lat="45.97434" lon="4.62194">
        <ele>371</ele>
        <time>2018-07-19T09:07:16Z</time>
      </trkpt>
      <trkpt lat="45.97434" lon="4.62191">
        <ele>371</ele>
        <time>2018-07-19T09:07:17Z</time>
      </trkpt>
      <trkpt lat="45.97434" lon="4.62178">
        <ele>372</ele>
        <time>2018-07-19T09:07:21Z</time>
      </trkpt>
      <trkpt lat="45.97434" lon="4.62175">
        <ele>372</ele>
        <time>2018-07-19T09:07:22Z</time>
      </trkpt>
      <trkpt lat="45.97436" lon="4.62164">
        <ele>375</ele>
        <time>2018-07-19T09:07:26Z</time>
      </trkpt>
      <trkpt lat="45.97436" lon="4.62161">
        <ele>375</ele>
        <time>2018-07-19T09:07:27Z</time>
      </trkpt>
      <trkpt lat="45.97435" lon="4.62151">
        <ele>375</ele>
        <time>2018-07-19T09:07:31Z</time>
      </trkpt>
      <trkpt lat="45.97435" lon="4.62148">
        <ele>375</ele>
        <time>2018-07-19T09:07:32Z</time>
      </trkpt>
      <trkpt lat="45.97436" lon="4.62138">
        <ele>376</ele>
        <time>2018-07-19T09:07:35Z</time>
      </trkpt>
      <trkpt lat="45.97436" lon="4.62134">
        <ele>376</ele>
        <time>2018-07-19T09:07:36Z</time>
      </trkpt>
      <trkpt lat="45.97436" lon="4.62123">
        <ele>376</ele>
        <time>2018-07-19T09:07:39Z</time>
      </trkpt>
      <trkpt lat="45.97437" lon="4.6212">
        <ele>376</ele>
        <time>2018-07-19T09:07:40Z</time>
      </trkpt>
      <trkpt lat="45.97437" lon="4.62108">
        <ele>377</ele>
        <time>2018-07-19T09:07:43Z</time>
      </trkpt>
      <trkpt lat="45.97437" lon="4.62105">
        <ele>377</ele>
        <time>2018-07-19T09:07:44Z</time>
      </trkpt>
      <trkpt lat="45.97438" lon="4.62093">
        <ele>377</ele>
        <time>2018-07-19T09:07:48Z</time>
      </trkpt>
      <trkpt lat="45.97438" lon="4.62089">
        <ele>378</ele>
        <time>2018-07-19T09:07:49Z</time>
      </trkpt>
      <trkpt lat="45.97438" lon="4.62078">
        <ele>379</ele>
        <time>2018-07-19T09:07:53Z</time>
      </trkpt>
      <trkpt lat="45.97438" lon="4.62075">
        <ele>379</ele>
        <time>2018-07-19T09:07:54Z</time>
      </trkpt>
      <trkpt lat="45.9744" lon="4.62064">
        <ele>379</ele>
        <time>2018-07-19T09:07:57Z</time>
      </trkpt>
      <trkpt lat="45.9744" lon="4.62061">
        <ele>379</ele>
        <time>2018-07-19T09:07:58Z</time>
      </trkpt>
      <trkpt lat="45.97442" lon="4.62051">
        <ele>379</ele>
        <time>2018-07-19T09:08:01Z</time>
      </trkpt>
      <trkpt lat="45.97442" lon="4.62048">
        <ele>379</ele>
        <time>2018-07-19T09:08:02Z</time>
      </trkpt>
      <trkpt lat="45.9744" lon="4.62037">
        <ele>379</ele>
        <time>2018-07-19T09:08:05Z</time>
      </trkpt>
      <trkpt lat="45.97439" lon="4.62034">
        <ele>379</ele>
        <time>2018-07-19T09:08:06Z</time>
      </trkpt>
      <trkpt lat="45.97439" lon="4.62022">
        <ele>379</ele>
        <time>2018-07-19T09:08:10Z</time>
      </trkpt>
      <trkpt lat="45.9744" lon="4.62019">
        <ele>379</ele>
        <time>2018-07-19T09:08:11Z</time>
      </trkpt>
      <trkpt lat="45.9744" lon="4.62009">
        <ele>379</ele>
        <time>2018-07-19T09:08:14Z</time>
      </trkpt>
      <trkpt lat="45.97441" lon="4.62004">
        <ele>379</ele>
        <time>2018-07-19T09:08:15Z</time>
      </trkpt>
      <trkpt lat="45.97442" lon="4.61996">
        <ele>380</ele>
        <time>2018-07-19T09:08:17Z</time>
      </trkpt>
      <trkpt lat="45.97443" lon="4.61991">
        <ele>380</ele>
        <time>2018-07-19T09:08:18Z</time>
      </trkpt>
      <trkpt lat="45.97442" lon="4.6198">
        <ele>380</ele>
        <time>2018-07-19T09:08:21Z</time>
      </trkpt>
      <trkpt lat="45.97441" lon="4.61977">
        <ele>380</ele>
        <time>2018-07-19T09:08:22Z</time>
      </trkpt>
      <trkpt lat="45.97438" lon="4.61967">
        <ele>380</ele>
        <time>2018-07-19T09:08:25Z</time>
      </trkpt>
      <trkpt lat="45.97437" lon="4.61964">
        <ele>380</ele>
        <time>2018-07-19T09:08:26Z</time>
      </trkpt>
      <trkpt lat="45.97437" lon="4.61952">
        <ele>381</ele>
        <time>2018-07-19T09:08:30Z</time>
      </trkpt>
      <trkpt lat="45.97437" lon="4.61949">
        <ele>381</ele>
        <time>2018-07-19T09:08:31Z</time>
      </trkpt>
      <trkpt lat="45.97438" lon="4.61936">
        <ele>381</ele>
        <time>2018-07-19T09:08:35Z</time>
      </trkpt>
      <trkpt lat="45.97438" lon="4.61932">
        <ele>381</ele>
        <time>2018-07-19T09:08:36Z</time>
      </trkpt>
      <trkpt lat="45.97436" lon="4.61922">
        <ele>382</ele>
        <time>2018-07-19T09:08:39Z</time>
      </trkpt>
      <trkpt lat="45.97436" lon="4.61918">
        <ele>382</ele>
        <time>2018-07-19T09:08:40Z</time>
      </trkpt>
      <trkpt lat="45.97435" lon="4.61908">
        <ele>383</ele>
        <time>2018-07-19T09:08:43Z</time>
      </trkpt>
      <trkpt lat="45.97434" lon="4.61904">
        <ele>383</ele>
        <time>2018-07-19T09:08:44Z</time>
      </trkpt>
      <trkpt lat="45.97433" lon="4.61894">
        <ele>383</ele>
        <time>2018-07-19T09:08:47Z</time>
      </trkpt>
      <trkpt lat="45.97433" lon="4.61891">
        <ele>383</ele>
        <time>2018-07-19T09:08:48Z</time>
      </trkpt>
      <trkpt lat="45.97432" lon="4.61881">
        <ele>383</ele>
        <time>2018-07-19T09:08:51Z</time>
      </trkpt>
      <trkpt lat="45.97432" lon="4.61878">
        <ele>383</ele>
        <time>2018-07-19T09:08:52Z</time>
      </trkpt>
      <trkpt lat="45.97432" lon="4.61867">
        <ele>384</ele>
        <time>2018-07-19T09:08:55Z</time>
      </trkpt>
      <trkpt lat="45.97431" lon="4.61864">
        <ele>384</ele>
        <time>2018-07-19T09:08:56Z</time>
      </trkpt>
      <trkpt lat="45.9743" lon="4.61851">
        <ele>384</ele>
        <time>2018-07-19T09:09:00Z</time>
      </trkpt>
      <trkpt lat="45.9743" lon="4.61848">
        <ele>385</ele>
        <time>2018-07-19T09:09:01Z</time>
      </trkpt>
      <trkpt lat="45.9743" lon="4.61838">
        <ele>385</ele>
        <time>2018-07-19T09:09:04Z</time>
      </trkpt>
      <trkpt lat="45.9743" lon="4.61835">
        <ele>385</ele>
        <time>2018-07-19T09:09:05Z</time>
      </trkpt>
      <trkpt lat="45.97429" lon="4.61824">
        <ele>387</ele>
        <time>2018-07-19T09:09:08Z</time>
      </trkpt>
      <trkpt lat="45.97429" lon="4.6182">
        <ele>387</ele>
        <time>2018-07-19T09:09:09Z</time>
      </trkpt>
      <trkpt lat="45.97431" lon="4.61809">
        <ele>387</ele>
        <time>2018-07-19T09:09:12Z</time>
      </trkpt>
      <trkpt lat="45.97432" lon="4.61805">
        <ele>387</ele>
        <time>2018-07-19T09:09:13Z</time>
      </trkpt>
      <trkpt lat="45.97436" lon="4.61795">
        <ele>387</ele>
        <time>2018-07-19T09:09:16Z</time>
      </trkpt>
      <trkpt lat="45.97437" lon="4.61791">
        <ele>387</ele>
        <time>2018-07-19T09:09:17Z</time>
      </trkpt>
      <trkpt lat="45.9744" lon="4.61782">
        <ele>387</ele>
        <time>2018-07-19T09:09:20Z</time>
      </trkpt>
      <trkpt lat="45.97441" lon="4.61778">
        <ele>387</ele>
        <time>2018-07-19T09:09:21Z</time>
      </trkpt>
      <trkpt lat="45.97444" lon="4.61768">
        <ele>388</ele>
        <time>2018-07-19T09:09:24Z</time>
      </trkpt>
      <trkpt lat="45.97445" lon="4.61764">
        <ele>388</ele>
        <time>2018-07-19T09:09:25Z</time>
      </trkpt>
      <trkpt lat="45.97449" lon="4.61754">
        <ele>388</ele>
        <time>2018-07-19T09:09:28Z</time>
      </trkpt>
      <trkpt lat="45.9745" lon="4.6175">
        <ele>390</ele>
        <time>2018-07-19T09:09:29Z</time>
      </trkpt>
      <trkpt lat="45.97453" lon="4.61738">
        <ele>390</ele>
        <time>2018-07-19T09:09:33Z</time>
      </trkpt>
      <trkpt lat="45.97453" lon="4.61734">
        <ele>390</ele>
        <time>2018-07-19T09:09:34Z</time>
      </trkpt>
      <trkpt lat="45.97454" lon="4.61723">
        <ele>390</ele>
        <time>2018-07-19T09:09:37Z</time>
      </trkpt>
      <trkpt lat="45.97455" lon="4.61719">
        <ele>390</ele>
        <time>2018-07-19T09:09:38Z</time>
      </trkpt>
      <trkpt lat="45.97456" lon="4.61708">
        <ele>390</ele>
        <time>2018-07-19T09:09:41Z</time>
      </trkpt>
      <trkpt lat="45.97457" lon="4.61704">
        <ele>390</ele>
        <time>2018-07-19T09:09:42Z</time>
      </trkpt>
      <trkpt lat="45.97458" lon="4.61692">
        <ele>390</ele>
        <time>2018-07-19T09:09:45Z</time>
      </trkpt>
      <trkpt lat="45.97458" lon="4.61688">
        <ele>390</ele>
        <time>2018-07-19T09:09:46Z</time>
      </trkpt>
      <trkpt lat="45.9746" lon="4.61678">
        <ele>391</ele>
        <time>2018-07-19T09:09:49Z</time>
      </trkpt>
      <trkpt lat="45.9746" lon="4.61673">
        <ele>391</ele>
        <time>2018-07-19T09:09:50Z</time>
      </trkpt>
      <trkpt lat="45.97462" lon="4.61661">
        <ele>393</ele>
        <time>2018-07-19T09:09:53Z</time>
      </trkpt>
      <trkpt lat="45.97462" lon="4.61657">
        <ele>393</ele>
        <time>2018-07-19T09:09:54Z</time>
      </trkpt>
      <trkpt lat="45.97463" lon="4.61645">
        <ele>393</ele>
        <time>2018-07-19T09:09:57Z</time>
      </trkpt>
      <trkpt lat="45.97463" lon="4.61641">
        <ele>393</ele>
        <time>2018-07-19T09:09:58Z</time>
      </trkpt>
      <trkpt lat="45.97463" lon="4.6163">
        <ele>393</ele>
        <time>2018-07-19T09:10:01Z</time>
      </trkpt>
      <trkpt lat="45.97462" lon="4.61626">
        <ele>393</ele>
        <time>2018-07-19T09:10:02Z</time>
      </trkpt>
      <trkpt lat="45.97462" lon="4.61614">
        <ele>394</ele>
        <time>2018-07-19T09:10:05Z</time>
      </trkpt>
      <trkpt lat="45.97461" lon="4.6161">
        <ele>394</ele>
        <time>2018-07-19T09:10:06Z</time>
      </trkpt>
      <trkpt lat="45.97461" lon="4.61598">
        <ele>394</ele>
        <time>2018-07-19T09:10:09Z</time>
      </trkpt>
      <trkpt lat="45.97461" lon="4.61594">
        <ele>394</ele>
        <time>2018-07-19T09:10:10Z</time>
      </trkpt>
      <trkpt lat="45.97461" lon="4.61586">
        <ele>394</ele>
        <time>2018-07-19T09:10:12Z</time>
      </trkpt>
      <trkpt lat="45.9746" lon="4.61572">
        <ele>395</ele>
        <time>2018-07-19T09:10:13Z</time>
      </trkpt>
      <trkpt lat="45.97459" lon="4.6156">
        <ele>395</ele>
        <time>2018-07-19T09:10:16Z</time>
      </trkpt>
      <trkpt lat="45.97458" lon="4.61557">
        <ele>396</ele>
        <time>2018-07-19T09:10:17Z</time>
      </trkpt>
      <trkpt lat="45.97457" lon="4.61547">
        <ele>396</ele>
        <time>2018-07-19T09:10:20Z</time>
      </trkpt>
      <trkpt lat="45.97457" lon="4.61544">
        <ele>396</ele>
        <time>2018-07-19T09:10:21Z</time>
      </trkpt>
      <trkpt lat="45.97456" lon="4.61532">
        <ele>396</ele>
        <time>2018-07-19T09:10:24Z</time>
      </trkpt>
      <trkpt lat="45.97455" lon="4.61527">
        <ele>396</ele>
        <time>2018-07-19T09:10:25Z</time>
      </trkpt>
      <trkpt lat="45.97453" lon="4.61515">
        <ele>396</ele>
        <time>2018-07-19T09:10:28Z</time>
      </trkpt>
      <trkpt lat="45.97453" lon="4.61511">
        <ele>396</ele>
        <time>2018-07-19T09:10:29Z</time>
      </trkpt>
      <trkpt lat="45.97452" lon="4.61507">
        <ele>396</ele>
        <time>2018-07-19T09:10:30Z</time>
      </trkpt>
      <trkpt lat="45.9745" lon="4.61493">
        <ele>396</ele>
        <time>2018-07-19T09:10:31Z</time>
      </trkpt>
      <trkpt lat="45.97448" lon="4.61481">
        <ele>395</ele>
        <time>2018-07-19T09:10:35Z</time>
      </trkpt>
      <trkpt lat="45.97448" lon="4.61478">
        <ele>395</ele>
        <time>2018-07-19T09:10:36Z</time>
      </trkpt>
      <trkpt lat="45.97445" lon="4.61465">
        <ele>395</ele>
        <time>2018-07-19T09:10:37Z</time>
      </trkpt>
      <trkpt lat="45.97445" lon="4.61463">
        <ele>395</ele>
        <time>2018-07-19T09:10:38Z</time>
      </trkpt>
      <trkpt lat="45.97443" lon="4.61452">
        <ele>395</ele>
        <time>2018-07-19T09:10:41Z</time>
      </trkpt>
      <trkpt lat="45.97442" lon="4.61448">
        <ele>395</ele>
        <time>2018-07-19T09:10:42Z</time>
      </trkpt>
      <trkpt lat="45.9744" lon="4.61441">
        <ele>396</ele>
        <time>2018-07-19T09:10:44Z</time>
      </trkpt>
      <trkpt lat="45.97438" lon="4.61427">
        <ele>396</ele>
        <time>2018-07-19T09:10:45Z</time>
      </trkpt>
      <trkpt lat="45.97437" lon="4.61415">
        <ele>395</ele>
        <time>2018-07-19T09:10:47Z</time>
      </trkpt>
      <trkpt lat="45.97436" lon="4.61408">
        <ele>395</ele>
        <time>2018-07-19T09:10:48Z</time>
      </trkpt>
      <trkpt lat="45.97435" lon="4.61397">
        <ele>394</ele>
        <time>2018-07-19T09:10:50Z</time>
      </trkpt>
      <trkpt lat="45.97433" lon="4.61391">
        <ele>394</ele>
        <time>2018-07-19T09:10:51Z</time>
      </trkpt>
      <trkpt lat="45.97431" lon="4.61385">
        <ele>394</ele>
        <time>2018-07-19T09:10:52Z</time>
      </trkpt>
      <trkpt lat="45.97429" lon="4.61379">
        <ele>394</ele>
        <time>2018-07-19T09:10:53Z</time>
      </trkpt>
      <trkpt lat="45.97427" lon="4.61368">
        <ele>394</ele>
        <time>2018-07-19T09:10:55Z</time>
      </trkpt>
      <trkpt lat="45.97425" lon="4.61363">
        <ele>394</ele>
        <time>2018-07-19T09:10:56Z</time>
      </trkpt>
      <trkpt lat="45.97422" lon="4.61352">
        <ele>394</ele>
        <time>2018-07-19T09:10:58Z</time>
      </trkpt>
      <trkpt lat="45.97421" lon="4.61347">
        <ele>394</ele>
        <time>2018-07-19T09:10:59Z</time>
      </trkpt>
      <trkpt lat="45.97418" lon="4.61335">
        <ele>396</ele>
        <time>2018-07-19T09:11:01Z</time>
      </trkpt>
      <trkpt lat="45.97416" lon="4.61329">
        <ele>397</ele>
        <time>2018-07-19T09:11:02Z</time>
      </trkpt>
      <trkpt lat="45.97413" lon="4.61317">
        <ele>397</ele>
        <time>2018-07-19T09:11:04Z</time>
      </trkpt>
      <trkpt lat="45.97411" lon="4.61311">
        <ele>397</ele>
        <time>2018-07-19T09:11:05Z</time>
      </trkpt>
      <trkpt lat="45.9741" lon="4.61304">
        <ele>398</ele>
        <time>2018-07-19T09:11:06Z</time>
      </trkpt>
      <trkpt lat="45.97408" lon="4.61298">
        <ele>398</ele>
        <time>2018-07-19T09:11:07Z</time>
      </trkpt>
      <trkpt lat="45.97407" lon="4.61291">
        <ele>397</ele>
        <time>2018-07-19T09:11:08Z</time>
      </trkpt>
      <trkpt lat="45.97405" lon="4.61283">
        <ele>397</ele>
        <time>2018-07-19T09:11:09Z</time>
      </trkpt>
      <trkpt lat="45.97404" lon="4.61276">
        <ele>397</ele>
        <time>2018-07-19T09:11:10Z</time>
      </trkpt>
      <trkpt lat="45.97402" lon="4.61269">
        <ele>396</ele>
        <time>2018-07-19T09:11:11Z</time>
      </trkpt>
      <trkpt lat="45.97402" lon="4.61262">
        <ele>395</ele>
        <time>2018-07-19T09:11:12Z</time>
      </trkpt>
      <trkpt lat="45.97401" lon="4.61254">
        <ele>395</ele>
        <time>2018-07-19T09:11:13Z</time>
      </trkpt>
      <trkpt lat="45.974" lon="4.61246">
        <ele>394</ele>
        <time>2018-07-19T09:11:14Z</time>
      </trkpt>
      <trkpt lat="45.97397" lon="4.6124">
        <ele>394</ele>
        <time>2018-07-19T09:11:15Z</time>
      </trkpt>
      <trkpt lat="45.97396" lon="4.61232">
        <ele>395</ele>
        <time>2018-07-19T09:11:16Z</time>
      </trkpt>
      <trkpt lat="45.97395" lon="4.61225">
        <ele>395</ele>
        <time>2018-07-19T09:11:17Z</time>
      </trkpt>
      <trkpt lat="45.97395" lon="4.61218">
        <ele>395</ele>
        <time>2018-07-19T09:11:18Z</time>
      </trkpt>
      <trkpt lat="45.97395" lon="4.6121">
        <ele>395</ele>
        <time>2018-07-19T09:11:19Z</time>
      </trkpt>
      <trkpt lat="45.97396" lon="4.612">
        <ele>395</ele>
        <time>2018-07-19T09:11:20Z</time>
      </trkpt>
      <trkpt lat="45.97397" lon="4.61192">
        <ele>394</ele>
        <time>2018-07-19T09:11:21Z</time>
      </trkpt>
      <trkpt lat="45.97396" lon="4.61184">
        <ele>394</ele>
        <time>2018-07-19T09:11:22Z</time>
      </trkpt>
      <trkpt lat="45.97396" lon="4.61176">
        <ele>393</ele>
        <time>2018-07-19T09:11:23Z</time>
      </trkpt>
      <trkpt lat="45.97396" lon="4.61169">
        <ele>393</ele>
        <time>2018-07-19T09:11:24Z</time>
      </trkpt>
      <trkpt lat="45.97396" lon="4.61162">
        <ele>394</ele>
        <time>2018-07-19T09:11:25Z</time>
      </trkpt>
      <trkpt lat="45.97396" lon="4.61151">
        <ele>395</ele>
        <time>2018-07-19T09:11:27Z</time>
      </trkpt>
      <trkpt lat="45.97397" lon="4.61145">
        <ele>396</ele>
        <time>2018-07-19T09:11:28Z</time>
      </trkpt>
      <trkpt lat="45.97399" lon="4.61135">
        <ele>397</ele>
        <time>2018-07-19T09:11:30Z</time>
      </trkpt>
      <trkpt lat="45.97399" lon="4.6113">
        <ele>397</ele>
        <time>2018-07-19T09:11:31Z</time>
      </trkpt>
      <trkpt lat="45.97401" lon="4.61124">
        <ele>397</ele>
        <time>2018-07-19T09:11:32Z</time>
      </trkpt>
      <trkpt lat="45.97403" lon="4.61118">
        <ele>397</ele>
        <time>2018-07-19T09:11:33Z</time>
      </trkpt>
      <trkpt lat="45.97406" lon="4.61106">
        <ele>397</ele>
        <time>2018-07-19T09:11:35Z</time>
      </trkpt>
      <trkpt lat="45.97407" lon="4.61102">
        <ele>397</ele>
        <time>2018-07-19T09:11:36Z</time>
      </trkpt>
      <trkpt lat="45.9741" lon="4.61091">
        <ele>395</ele>
        <time>2018-07-19T09:11:38Z</time>
      </trkpt>
      <trkpt lat="45.97411" lon="4.61086">
        <ele>395</ele>
        <time>2018-07-19T09:11:39Z</time>
      </trkpt>
      <trkpt lat="45.97413" lon="4.61075">
        <ele>398</ele>
        <time>2018-07-19T09:11:41Z</time>
      </trkpt>
      <trkpt lat="45.97416" lon="4.6107">
        <ele>400</ele>
        <time>2018-07-19T09:11:42Z</time>
      </trkpt>
      <trkpt lat="45.9742" lon="4.61059">
        <ele>392</ele>
        <time>2018-07-19T09:11:44Z</time>
      </trkpt>
      <trkpt lat="45.9742" lon="4.61057">
        <ele>392</ele>
        <time>2018-07-19T09:11:45Z</time>
      </trkpt>
      <trkpt lat="45.97422" lon="4.61045">
        <ele>393</ele>
        <time>2018-07-19T09:11:48Z</time>
      </trkpt>
      <trkpt lat="45.97426" lon="4.61034">
        <ele>394</ele>
        <time>2018-07-19T09:11:49Z</time>
      </trkpt>
      <trkpt lat="45.97429" lon="4.61022">
        <ele>396</ele>
        <time>2018-07-19T09:11:51Z</time>
      </trkpt>
      <trkpt lat="45.9743" lon="4.61017">
        <ele>396</ele>
        <time>2018-07-19T09:11:52Z</time>
      </trkpt>
      <trkpt lat="45.97436" lon="4.61007">
        <ele>397</ele>
        <time>2018-07-19T09:11:56Z</time>
      </trkpt>
      <trkpt lat="45.97436" lon="4.61004">
        <ele>397</ele>
        <time>2018-07-19T09:11:57Z</time>
      </trkpt>
      <trkpt lat="45.97438" lon="4.60992">
        <ele>400</ele>
        <time>2018-07-19T09:12:01Z</time>
      </trkpt>
      <trkpt lat="45.97439" lon="4.6099">
        <ele>400</ele>
        <time>2018-07-19T09:12:02Z</time>
      </trkpt>
      <trkpt lat="45.9744" lon="4.60986">
        <ele>400</ele>
        <time>2018-07-19T09:12:03Z</time>
      </trkpt>
      <trkpt lat="45.97442" lon="4.60975">
        <ele>399</ele>
        <time>2018-07-19T09:12:04Z</time>
      </trkpt>
      <trkpt lat="45.97444" lon="4.60964">
        <ele>399</ele>
        <time>2018-07-19T09:12:06Z</time>
      </trkpt>
      <trkpt lat="45.97445" lon="4.60961">
        <ele>399</ele>
        <time>2018-07-19T09:12:07Z</time>
      </trkpt>
      <trkpt lat="45.97446" lon="4.60952">
        <ele>399</ele>
        <time>2018-07-19T09:12:10Z</time>
      </trkpt>
      <trkpt lat="45.97449" lon="4.6094">
        <ele>399</ele>
        <time>2018-07-19T09:12:11Z</time>
      </trkpt>
      <trkpt lat="45.97452" lon="4.60928">
        <ele>399</ele>
        <time>2018-07-19T09:12:13Z</time>
      </trkpt>
      <trkpt lat="45.97453" lon="4.60923">
        <ele>399</ele>
        <time>2018-07-19T09:12:14Z</time>
      </trkpt>
      <trkpt lat="45.97454" lon="4.60911">
        <ele>402</ele>
        <time>2018-07-19T09:12:16Z</time>
      </trkpt>
      <trkpt lat="45.97454" lon="4.60908">
        <ele>402</ele>
        <time>2018-07-19T09:12:17Z</time>
      </trkpt>
      <trkpt lat="45.97453" lon="4.60895">
        <ele>402</ele>
        <time>2018-07-19T09:12:19Z</time>
      </trkpt>
      <trkpt lat="45.97454" lon="4.6089">
        <ele>402</ele>
        <time>2018-07-19T09:12:20Z</time>
      </trkpt>
      <trkpt lat="45.97457" lon="4.60883">
        <ele>402</ele>
        <time>2018-07-19T09:12:22Z</time>
      </trkpt>
      <trkpt lat="45.97458" lon="4.60874">
        <ele>402</ele>
        <time>2018-07-19T09:12:23Z</time>
      </trkpt>
      <trkpt lat="45.97461" lon="4.60866">
        <ele>402</ele>
        <time>2018-07-19T09:12:25Z</time>
      </trkpt>
      <trkpt lat="45.97462" lon="4.60859">
        <ele>402</ele>
        <time>2018-07-19T09:12:26Z</time>
      </trkpt>
      <trkpt lat="45.97467" lon="4.60852">
        <ele>401</ele>
        <time>2018-07-19T09:12:27Z</time>
      </trkpt>
      <trkpt lat="45.97468" lon="4.60846">
        <ele>401</ele>
        <time>2018-07-19T09:12:28Z</time>
      </trkpt>
      <trkpt lat="45.9747" lon="4.60834">
        <ele>401</ele>
        <time>2018-07-19T09:12:30Z</time>
      </trkpt>
      <trkpt lat="45.97471" lon="4.60828">
        <ele>402</ele>
        <time>2018-07-19T09:12:31Z</time>
      </trkpt>
      <trkpt lat="45.97475" lon="4.60816">
        <ele>402</ele>
        <time>2018-07-19T09:12:33Z</time>
      </trkpt>
      <trkpt lat="45.97474" lon="4.60809">
        <ele>403</ele>
        <time>2018-07-19T09:12:34Z</time>
      </trkpt>
      <trkpt lat="45.97476" lon="4.60804">
        <ele>403</ele>
        <time>2018-07-19T09:12:35Z</time>
      </trkpt>
      <trkpt lat="45.97476" lon="4.60796">
        <ele>403</ele>
        <time>2018-07-19T09:12:36Z</time>
      </trkpt>
      <trkpt lat="45.97476" lon="4.6079">
        <ele>403</ele>
        <time>2018-07-19T09:12:37Z</time>
      </trkpt>
      <trkpt lat="45.97476" lon="4.60782">
        <ele>403</ele>
        <time>2018-07-19T09:12:38Z</time>
      </trkpt>
      <trkpt lat="45.97477" lon="4.60775">
        <ele>403</ele>
        <time>2018-07-19T09:12:39Z</time>
      </trkpt>
      <trkpt lat="45.97479" lon="4.60769">
        <ele>403</ele>
        <time>2018-07-19T09:12:40Z</time>
      </trkpt>
      <trkpt lat="45.9748" lon="4.60759">
        <ele>402</ele>
        <time>2018-07-19T09:12:43Z</time>
      </trkpt>
      <trkpt lat="45.97481" lon="4.60753">
        <ele>402</ele>
        <time>2018-07-19T09:12:44Z</time>
      </trkpt>
      <trkpt lat="45.97484" lon="4.60742">
        <ele>402</ele>
        <time>2018-07-19T09:12:47Z</time>
      </trkpt>
      <trkpt lat="45.97485" lon="4.60732">
        <ele>402</ele>
        <time>2018-07-19T09:12:48Z</time>
      </trkpt>
      <trkpt lat="45.97489" lon="4.60728">
        <ele>402</ele>
        <time>2018-07-19T09:12:49Z</time>
      </trkpt>
      <trkpt lat="45.97492" lon="4.60722">
        <ele>403</ele>
        <time>2018-07-19T09:12:50Z</time>
      </trkpt>
      <trkpt lat="45.97495" lon="4.6071">
        <ele>403</ele>
        <time>2018-07-19T09:12:52Z</time>
      </trkpt>
      <trkpt lat="45.97496" lon="4.60705">
        <ele>403</ele>
        <time>2018-07-19T09:12:53Z</time>
      </trkpt>
      <trkpt lat="45.97503" lon="4.60696">
        <ele>398</ele>
        <time>2018-07-19T09:12:55Z</time>
      </trkpt>
      <trkpt lat="45.97502" lon="4.6069">
        <ele>399</ele>
        <time>2018-07-19T09:12:56Z</time>
      </trkpt>
      <trkpt lat="45.97509" lon="4.60681">
        <ele>399</ele>
        <time>2018-07-19T09:12:58Z</time>
      </trkpt>
      <trkpt lat="45.97512" lon="4.60679">
        <ele>399</ele>
        <time>2018-07-19T09:12:59Z</time>
      </trkpt>
      <trkpt lat="45.97517" lon="4.60669">
        <ele>399</ele>
        <time>2018-07-19T09:13:01Z</time>
      </trkpt>
      <trkpt lat="45.97519" lon="4.60664">
        <ele>402</ele>
        <time>2018-07-19T09:13:02Z</time>
      </trkpt>
      <trkpt lat="45.97522" lon="4.60654">
        <ele>402</ele>
        <time>2018-07-19T09:13:04Z</time>
      </trkpt>
      <trkpt lat="45.97526" lon="4.60649">
        <ele>402</ele>
        <time>2018-07-19T09:13:05Z</time>
      </trkpt>
      <trkpt lat="45.9753" lon="4.60645">
        <ele>402</ele>
        <time>2018-07-19T09:13:06Z</time>
      </trkpt>
      <trkpt lat="45.97532" lon="4.6064">
        <ele>402</ele>
        <time>2018-07-19T09:13:07Z</time>
      </trkpt>
      <trkpt lat="45.97538" lon="4.60634">
        <ele>402</ele>
        <time>2018-07-19T09:13:09Z</time>
      </trkpt>
      <trkpt lat="45.97541" lon="4.6063">
        <ele>402</ele>
        <time>2018-07-19T09:13:10Z</time>
      </trkpt>
      <trkpt lat="45.97544" lon="4.6062">
        <ele>402</ele>
        <time>2018-07-19T09:13:13Z</time>
      </trkpt>
      <trkpt lat="45.97547" lon="4.60613">
        <ele>402</ele>
        <time>2018-07-19T09:13:14Z</time>
      </trkpt>
      <trkpt lat="45.9755" lon="4.60606">
        <ele>402</ele>
        <time>2018-07-19T09:13:17Z</time>
      </trkpt>
      <trkpt lat="45.97553" lon="4.60599">
        <ele>402</ele>
        <time>2018-07-19T09:13:18Z</time>
      </trkpt>
      <trkpt lat="45.97558" lon="4.60588">
        <ele>402</ele>
        <time>2018-07-19T09:13:22Z</time>
      </trkpt>
      <trkpt lat="45.97559" lon="4.60585">
        <ele>402</ele>
        <time>2018-07-19T09:13:23Z</time>
      </trkpt>
      <trkpt lat="45.97564" lon="4.60575">
        <ele>404</ele>
        <time>2018-07-19T09:13:26Z</time>
      </trkpt>
      <trkpt lat="45.97566" lon="4.60572">
        <ele>404</ele>
        <time>2018-07-19T09:13:27Z</time>
      </trkpt>
      <trkpt lat="45.97571" lon="4.60562">
        <ele>405</ele>
        <time>2018-07-19T09:13:30Z</time>
      </trkpt>
      <trkpt lat="45.97573" lon="4.60558">
        <ele>405</ele>
        <time>2018-07-19T09:13:31Z</time>
      </trkpt>
      <trkpt lat="45.97576" lon="4.60551">
        <ele>405</ele>
        <time>2018-07-19T09:13:33Z</time>
      </trkpt>
      <trkpt lat="45.97578" lon="4.60547">
        <ele>406</ele>
        <time>2018-07-19T09:13:34Z</time>
      </trkpt>
      <trkpt lat="45.97583" lon="4.60537">
        <ele>406</ele>
        <time>2018-07-19T09:13:37Z</time>
      </trkpt>
      <trkpt lat="45.97584" lon="4.60534">
        <ele>405</ele>
        <time>2018-07-19T09:13:38Z</time>
      </trkpt>
      <trkpt lat="45.97589" lon="4.60524">
        <ele>406</ele>
        <time>2018-07-19T09:13:41Z</time>
      </trkpt>
      <trkpt lat="45.97591" lon="4.6052">
        <ele>406</ele>
        <time>2018-07-19T09:13:42Z</time>
      </trkpt>
      <trkpt lat="45.97594" lon="4.60513">
        <ele>407</ele>
        <time>2018-07-19T09:13:44Z</time>
      </trkpt>
      <trkpt lat="45.97595" lon="4.60509">
        <ele>407</ele>
        <time>2018-07-19T09:13:45Z</time>
      </trkpt>
      <trkpt lat="45.976" lon="4.60499">
        <ele>410</ele>
        <time>2018-07-19T09:13:48Z</time>
      </trkpt>
      <trkpt lat="45.97601" lon="4.60495">
        <ele>410</ele>
        <time>2018-07-19T09:13:49Z</time>
      </trkpt>
      <trkpt lat="45.97606" lon="4.60484">
        <ele>410</ele>
        <time>2018-07-19T09:13:52Z</time>
      </trkpt>
      <trkpt lat="45.97607" lon="4.60481">
        <ele>410</ele>
        <time>2018-07-19T09:13:53Z</time>
      </trkpt>
      <trkpt lat="45.97611" lon="4.6047">
        <ele>410</ele>
        <time>2018-07-19T09:13:56Z</time>
      </trkpt>
      <trkpt lat="45.97613" lon="4.60467">
        <ele>410</ele>
        <time>2018-07-19T09:13:57Z</time>
      </trkpt>
      <trkpt lat="45.97618" lon="4.60457">
        <ele>410</ele>
        <time>2018-07-19T09:14:00Z</time>
      </trkpt>
      <trkpt lat="45.97619" lon="4.60454">
        <ele>410</ele>
        <time>2018-07-19T09:14:01Z</time>
      </trkpt>
      <trkpt lat="45.97624" lon="4.60444">
        <ele>410</ele>
        <time>2018-07-19T09:14:04Z</time>
      </trkpt>
      <trkpt lat="45.97625" lon="4.60441">
        <ele>410</ele>
        <time>2018-07-19T09:14:05Z</time>
      </trkpt>
      <trkpt lat="45.97628" lon="4.60434">
        <ele>410</ele>
        <time>2018-07-19T09:14:07Z</time>
      </trkpt>
      <trkpt lat="45.9763" lon="4.60428">
        <ele>410</ele>
        <time>2018-07-19T09:14:08Z</time>
      </trkpt>
      <trkpt lat="45.97635" lon="4.60418">
        <ele>410</ele>
        <time>2018-07-19T09:14:11Z</time>
      </trkpt>
      <trkpt lat="45.97636" lon="4.60414">
        <ele>413</ele>
        <time>2018-07-19T09:14:12Z</time>
      </trkpt>
      <trkpt lat="45.97639" lon="4.60404">
        <ele>413</ele>
        <time>2018-07-19T09:14:15Z</time>
      </trkpt>
      <trkpt lat="45.9764" lon="4.60401">
        <ele>413</ele>
        <time>2018-07-19T09:14:16Z</time>
      </trkpt>
      <trkpt lat="45.97643" lon="4.6039">
        <ele>413</ele>
        <time>2018-07-19T09:14:19Z</time>
      </trkpt>
      <trkpt lat="45.97645" lon="4.60386">
        <ele>413</ele>
        <time>2018-07-19T09:14:20Z</time>
      </trkpt>
      <trkpt lat="45.97648" lon="4.60374">
        <ele>414</ele>
        <time>2018-07-19T09:14:23Z</time>
      </trkpt>
      <trkpt lat="45.97649" lon="4.60371">
        <ele>414</ele>
        <time>2018-07-19T09:14:24Z</time>
      </trkpt>
      <trkpt lat="45.97653" lon="4.6036">
        <ele>414</ele>
        <time>2018-07-19T09:14:27Z</time>
      </trkpt>
      <trkpt lat="45.97654" lon="4.60355">
        <ele>414</ele>
        <time>2018-07-19T09:14:28Z</time>
      </trkpt>
      <trkpt lat="45.97655" lon="4.60346">
        <ele>414</ele>
        <time>2018-07-19T09:14:30Z</time>
      </trkpt>
      <trkpt lat="45.97656" lon="4.60342">
        <ele>414</ele>
        <time>2018-07-19T09:14:31Z</time>
      </trkpt>
      <trkpt lat="45.97659" lon="4.60331">
        <ele>415</ele>
        <time>2018-07-19T09:14:34Z</time>
      </trkpt>
      <trkpt lat="45.97661" lon="4.60327">
        <ele>415</ele>
        <time>2018-07-19T09:14:35Z</time>
      </trkpt>
      <trkpt lat="45.97664" lon="4.60316">
        <ele>417</ele>
        <time>2018-07-19T09:14:38Z</time>
      </trkpt>
      <trkpt lat="45.97665" lon="4.60312">
        <ele>417</ele>
        <time>2018-07-19T09:14:39Z</time>
      </trkpt>
      <trkpt lat="45.97669" lon="4.60301">
        <ele>413</ele>
        <time>2018-07-19T09:14:42Z</time>
      </trkpt>
      <trkpt lat="45.9767" lon="4.60298">
        <ele>414</ele>
        <time>2018-07-19T09:14:43Z</time>
      </trkpt>
      <trkpt lat="45.97674" lon="4.60287">
        <ele>414</ele>
        <time>2018-07-19T09:14:46Z</time>
      </trkpt>
      <trkpt lat="45.97676" lon="4.60282">
        <ele>414</ele>
        <time>2018-07-19T09:14:47Z</time>
      </trkpt>
      <trkpt lat="45.97678" lon="4.60274">
        <ele>415</ele>
        <time>2018-07-19T09:14:49Z</time>
      </trkpt>
      <trkpt lat="45.9768" lon="4.6027">
        <ele>415</ele>
        <time>2018-07-19T09:14:50Z</time>
      </trkpt>
      <trkpt lat="45.97684" lon="4.60259">
        <ele>416</ele>
        <time>2018-07-19T09:14:53Z</time>
      </trkpt>
      <trkpt lat="45.97685" lon="4.60255">
        <ele>416</ele>
        <time>2018-07-19T09:14:54Z</time>
      </trkpt>
      <trkpt lat="45.97688" lon="4.60244">
        <ele>418</ele>
        <time>2018-07-19T09:14:57Z</time>
      </trkpt>
      <trkpt lat="45.97689" lon="4.6024">
        <ele>418</ele>
        <time>2018-07-19T09:14:58Z</time>
      </trkpt>
      <trkpt lat="45.97693" lon="4.60228">
        <ele>417</ele>
        <time>2018-07-19T09:15:01Z</time>
      </trkpt>
      <trkpt lat="45.97694" lon="4.60224">
        <ele>417</ele>
        <time>2018-07-19T09:15:02Z</time>
      </trkpt>
      <trkpt lat="45.97697" lon="4.60213">
        <ele>417</ele>
        <time>2018-07-19T09:15:05Z</time>
      </trkpt>
      <trkpt lat="45.97699" lon="4.60208">
        <ele>417</ele>
        <time>2018-07-19T09:15:06Z</time>
      </trkpt>
      <trkpt lat="45.97702" lon="4.60197">
        <ele>417</ele>
        <time>2018-07-19T09:15:09Z</time>
      </trkpt>
      <trkpt lat="45.97704" lon="4.60194">
        <ele>417</ele>
        <time>2018-07-19T09:15:10Z</time>
      </trkpt>
      <trkpt lat="45.97707" lon="4.60182">
        <ele>417</ele>
        <time>2018-07-19T09:15:13Z</time>
      </trkpt>
      <trkpt lat="45.97707" lon="4.60178">
        <ele>417</ele>
        <time>2018-07-19T09:15:14Z</time>
      </trkpt>
      <trkpt lat="45.9771" lon="4.60168">
        <ele>417</ele>
        <time>2018-07-19T09:15:17Z</time>
      </trkpt>
      <trkpt lat="45.97711" lon="4.60164">
        <ele>419</ele>
        <time>2018-07-19T09:15:18Z</time>
      </trkpt>
      <trkpt lat="45.97715" lon="4.60153">
        <ele>419</ele>
        <time>2018-07-19T09:15:22Z</time>
      </trkpt>
      <trkpt lat="45.97716" lon="4.6015">
        <ele>419</ele>
        <time>2018-07-19T09:15:23Z</time>
      </trkpt>
      <trkpt lat="45.9772" lon="4.60142">
        <ele>419</ele>
        <time>2018-07-19T09:15:26Z</time>
      </trkpt>
      <trkpt lat="45.97721" lon="4.60139">
        <ele>420</ele>
        <time>2018-07-19T09:15:27Z</time>
      </trkpt>
      <trkpt lat="45.97725" lon="4.6013">
        <ele>420</ele>
        <time>2018-07-19T09:15:30Z</time>
      </trkpt>
      <trkpt lat="45.97726" lon="4.60127">
        <ele>420</ele>
        <time>2018-07-19T09:15:31Z</time>
      </trkpt>
      <trkpt lat="45.97729" lon="4.60115">
        <ele>420</ele>
        <time>2018-07-19T09:15:35Z</time>
      </trkpt>
      <trkpt lat="45.9773" lon="4.60112">
        <ele>420</ele>
        <time>2018-07-19T09:15:36Z</time>
      </trkpt>
      <trkpt lat="45.97734" lon="4.60102">
        <ele>420</ele>
        <time>2018-07-19T09:15:39Z</time>
      </trkpt>
      <trkpt lat="45.97735" lon="4.60099">
        <ele>420</ele>
        <time>2018-07-19T09:15:40Z</time>
      </trkpt>
      <trkpt lat="45.97738" lon="4.60088">
        <ele>420</ele>
        <time>2018-07-19T09:15:44Z</time>
      </trkpt>
      <trkpt lat="45.97739" lon="4.60085">
        <ele>420</ele>
        <time>2018-07-19T09:15:45Z</time>
      </trkpt>
      <trkpt lat="45.97742" lon="4.60073">
        <ele>422</ele>
        <time>2018-07-19T09:15:49Z</time>
      </trkpt>
      <trkpt lat="45.97743" lon="4.6007">
        <ele>422</ele>
        <time>2018-07-19T09:15:50Z</time>
      </trkpt>
      <trkpt lat="45.97745" lon="4.60057">
        <ele>423</ele>
        <time>2018-07-19T09:15:54Z</time>
      </trkpt>
      <trkpt lat="45.97746" lon="4.60054">
        <ele>424</ele>
        <time>2018-07-19T09:15:55Z</time>
      </trkpt>
      <trkpt lat="45.97747" lon="4.60044">
        <ele>424</ele>
        <time>2018-07-19T09:15:58Z</time>
      </trkpt>
      <trkpt lat="45.97748" lon="4.6004">
        <ele>425</ele>
        <time>2018-07-19T09:15:59Z</time>
      </trkpt>
      <trkpt lat="45.9775" lon="4.6003">
        <ele>425</ele>
        <time>2018-07-19T09:16:02Z</time>
      </trkpt>
      <trkpt lat="45.9775" lon="4.60027">
        <ele>425</ele>
        <time>2018-07-19T09:16:03Z</time>
      </trkpt>
      <trkpt lat="45.97751" lon="4.60016">
        <ele>421</ele>
        <time>2018-07-19T09:16:06Z</time>
      </trkpt>
      <trkpt lat="45.97752" lon="4.60013">
        <ele>422</ele>
        <time>2018-07-19T09:16:07Z</time>
      </trkpt>
      <trkpt lat="45.97754" lon="4.60003">
        <ele>423</ele>
        <time>2018-07-19T09:16:10Z</time>
      </trkpt>
      <trkpt lat="45.97754" lon="4.6">
        <ele>425</ele>
        <time>2018-07-19T09:16:11Z</time>
      </trkpt>
      <trkpt lat="45.97756" lon="4.59987">
        <ele>425</ele>
        <time>2018-07-19T09:16:15Z</time>
      </trkpt>
      <trkpt lat="45.97756" lon="4.59984">
        <ele>424</ele>
        <time>2018-07-19T09:16:16Z</time>
      </trkpt>
      <trkpt lat="45.97757" lon="4.59972">
        <ele>425</ele>
        <time>2018-07-19T09:16:20Z</time>
      </trkpt>
      <trkpt lat="45.97757" lon="4.59969">
        <ele>425</ele>
        <time>2018-07-19T09:16:21Z</time>
      </trkpt>
      <trkpt lat="45.97759" lon="4.59957">
        <ele>425</ele>
        <time>2018-07-19T09:16:25Z</time>
      </trkpt>
      <trkpt lat="45.9776" lon="4.59954">
        <ele>425</ele>
        <time>2018-07-19T09:16:26Z</time>
      </trkpt>
      <trkpt lat="45.97761" lon="4.59943">
        <ele>426</ele>
        <time>2018-07-19T09:16:30Z</time>
      </trkpt>
      <trkpt lat="45.97762" lon="4.5994">
        <ele>426</ele>
        <time>2018-07-19T09:16:31Z</time>
      </trkpt>
      <trkpt lat="45.97763" lon="4.59928">
        <ele>427</ele>
        <time>2018-07-19T09:16:35Z</time>
      </trkpt>
      <trkpt lat="45.97763" lon="4.59926">
        <ele>427</ele>
        <time>2018-07-19T09:16:36Z</time>
      </trkpt>
      <trkpt lat="45.97765" lon="4.59914">
        <ele>430</ele>
        <time>2018-07-19T09:16:40Z</time>
      </trkpt>
      <trkpt lat="45.97766" lon="4.59911">
        <ele>430</ele>
        <time>2018-07-19T09:16:41Z</time>
      </trkpt>
      <trkpt lat="45.97766" lon="4.59899">
        <ele>430</ele>
        <time>2018-07-19T09:16:45Z</time>
      </trkpt>
      <trkpt lat="45.97767" lon="4.59895">
        <ele>430</ele>
        <time>2018-07-19T09:16:46Z</time>
      </trkpt>
      <trkpt lat="45.97768" lon="4.59884">
        <ele>430</ele>
        <time>2018-07-19T09:16:50Z</time>
      </trkpt>
      <trkpt lat="45.97768" lon="4.59882">
        <ele>430</ele>
        <time>2018-07-19T09:16:51Z</time>
      </trkpt>
      <trkpt lat="45.97769" lon="4.59872">
        <ele>430</ele>
        <time>2018-07-19T09:16:55Z</time>
      </trkpt>
      <trkpt lat="45.97769" lon="4.59869">
        <ele>431</ele>
        <time>2018-07-19T09:16:56Z</time>
      </trkpt>
      <trkpt lat="45.97772" lon="4.59857">
        <ele>431</ele>
        <time>2018-07-19T09:17:00Z</time>
      </trkpt>
      <trkpt lat="45.97772" lon="4.59854">
        <ele>431</ele>
        <time>2018-07-19T09:17:01Z</time>
      </trkpt>
      <trkpt lat="45.97775" lon="4.59843">
        <ele>432</ele>
        <time>2018-07-19T09:17:05Z</time>
      </trkpt>
      <trkpt lat="45.97776" lon="4.5984">
        <ele>432</ele>
        <time>2018-07-19T09:17:06Z</time>
      </trkpt>
      <trkpt lat="45.97779" lon="4.5983">
        <ele>434</ele>
        <time>2018-07-19T09:17:09Z</time>
      </trkpt>
      <trkpt lat="45.9778" lon="4.59827">
        <ele>434</ele>
        <time>2018-07-19T09:17:10Z</time>
      </trkpt>
      <trkpt lat="45.97781" lon="4.59815">
        <ele>434</ele>
        <time>2018-07-19T09:17:14Z</time>
      </trkpt>
      <trkpt lat="45.97781" lon="4.59812">
        <ele>434</ele>
        <time>2018-07-19T09:17:15Z</time>
      </trkpt>
      <trkpt lat="45.9778" lon="4.59799">
        <ele>435</ele>
        <time>2018-07-19T09:17:19Z</time>
      </trkpt>
      <trkpt lat="45.9778" lon="4.59796">
        <ele>435</ele>
        <time>2018-07-19T09:17:20Z</time>
      </trkpt>
      <trkpt lat="45.97781" lon="4.59784">
        <ele>435</ele>
        <time>2018-07-19T09:17:24Z</time>
      </trkpt>
      <trkpt lat="45.97782" lon="4.59781">
        <ele>435</ele>
        <time>2018-07-19T09:17:25Z</time>
      </trkpt>
      <trkpt lat="45.97785" lon="4.59769">
        <ele>435</ele>
        <time>2018-07-19T09:17:29Z</time>
      </trkpt>
      <trkpt lat="45.97785" lon="4.59766">
        <ele>435</ele>
        <time>2018-07-19T09:17:30Z</time>
      </trkpt>
      <trkpt lat="45.97788" lon="4.59756">
        <ele>435</ele>
        <time>2018-07-19T09:17:34Z</time>
      </trkpt>
      <trkpt lat="45.97789" lon="4.59753">
        <ele>435</ele>
        <time>2018-07-19T09:17:35Z</time>
      </trkpt>
      <trkpt lat="45.9779" lon="4.59742">
        <ele>439</ele>
        <time>2018-07-19T09:17:39Z</time>
      </trkpt>
      <trkpt lat="45.97791" lon="4.59739">
        <ele>439</ele>
        <time>2018-07-19T09:17:40Z</time>
      </trkpt>
      <trkpt lat="45.97792" lon="4.59727">
        <ele>440</ele>
        <time>2018-07-19T09:17:44Z</time>
      </trkpt>
      <trkpt lat="45.97792" lon="4.59723">
        <ele>440</ele>
        <time>2018-07-19T09:17:45Z</time>
      </trkpt>
      <trkpt lat="45.97793" lon="4.59714">
        <ele>440</ele>
        <time>2018-07-19T09:17:48Z</time>
      </trkpt>
      <trkpt lat="45.97794" lon="4.5971">
        <ele>440</ele>
        <time>2018-07-19T09:17:49Z</time>
      </trkpt>
      <trkpt lat="45.97797" lon="4.597">
        <ele>441</ele>
        <time>2018-07-19T09:17:53Z</time>
      </trkpt>
      <trkpt lat="45.97798" lon="4.59697">
        <ele>441</ele>
        <time>2018-07-19T09:17:54Z</time>
      </trkpt>
      <trkpt lat="45.97801" lon="4.59688">
        <ele>441</ele>
        <time>2018-07-19T09:17:57Z</time>
      </trkpt>
      <trkpt lat="45.97802" lon="4.59685">
        <ele>441</ele>
        <time>2018-07-19T09:17:58Z</time>
      </trkpt>
      <trkpt lat="45.97807" lon="4.59675">
        <ele>441</ele>
        <time>2018-07-19T09:18:02Z</time>
      </trkpt>
      <trkpt lat="45.97808" lon="4.59673">
        <ele>441</ele>
        <time>2018-07-19T09:18:03Z</time>
      </trkpt>
      <trkpt lat="45.97813" lon="4.59664">
        <ele>447</ele>
        <time>2018-07-19T09:18:07Z</time>
      </trkpt>
      <trkpt lat="45.97815" lon="4.59662">
        <ele>447</ele>
        <time>2018-07-19T09:18:08Z</time>
      </trkpt>
      <trkpt lat="45.9782" lon="4.59654">
        <ele>447</ele>
        <time>2018-07-19T09:18:12Z</time>
      </trkpt>
      <trkpt lat="45.97821" lon="4.59652">
        <ele>447</ele>
        <time>2018-07-19T09:18:13Z</time>
      </trkpt>
      <trkpt lat="45.97827" lon="4.59643">
        <ele>448</ele>
        <time>2018-07-19T09:18:18Z</time>
      </trkpt>
      <trkpt lat="45.97829" lon="4.59641">
        <ele>449</ele>
        <time>2018-07-19T09:18:19Z</time>
      </trkpt>
      <trkpt lat="45.97836" lon="4.59637">
        <ele>445</ele>
        <time>2018-07-19T09:18:23Z</time>
      </trkpt>
      <trkpt lat="45.97838" lon="4.59636">
        <ele>445</ele>
        <time>2018-07-19T09:18:24Z</time>
      </trkpt>
      <trkpt lat="45.97845" lon="4.59628">
        <ele>447</ele>
        <time>2018-07-19T09:18:29Z</time>
      </trkpt>
      <trkpt lat="45.97846" lon="4.59626">
        <ele>447</ele>
        <time>2018-07-19T09:18:30Z</time>
      </trkpt>
      <trkpt lat="45.97853" lon="4.5962">
        <ele>448</ele>
        <time>2018-07-19T09:18:34Z</time>
      </trkpt>
      <trkpt lat="45.97855" lon="4.59619">
        <ele>448</ele>
        <time>2018-07-19T09:18:35Z</time>
      </trkpt>
      <trkpt lat="45.97863" lon="4.59615">
        <ele>448</ele>
        <time>2018-07-19T09:18:40Z</time>
      </trkpt>
      <trkpt lat="45.97865" lon="4.59615">
        <ele>448</ele>
        <time>2018-07-19T09:18:41Z</time>
      </trkpt>
      <trkpt lat="45.97872" lon="4.59614">
        <ele>447</ele>
        <time>2018-07-19T09:18:44Z</time>
      </trkpt>
      <trkpt lat="45.97874" lon="4.59613">
        <ele>447</ele>
        <time>2018-07-19T09:18:45Z</time>
      </trkpt>
      <trkpt lat="45.97881" lon="4.5961">
        <ele>447</ele>
        <time>2018-07-19T09:18:48Z</time>
      </trkpt>
      <trkpt lat="45.97884" lon="4.5961">
        <ele>447</ele>
        <time>2018-07-19T09:18:49Z</time>
      </trkpt>
      <trkpt lat="45.97892" lon="4.59606">
        <ele>447</ele>
        <time>2018-07-19T09:18:53Z</time>
      </trkpt>
      <trkpt lat="45.97894" lon="4.59604">
        <ele>447</ele>
        <time>2018-07-19T09:18:54Z</time>
      </trkpt>
      <trkpt lat="45.97901" lon="4.59601">
        <ele>447</ele>
        <time>2018-07-19T09:18:57Z</time>
      </trkpt>
      <trkpt lat="45.97903" lon="4.59601">
        <ele>447</ele>
        <time>2018-07-19T09:18:58Z</time>
      </trkpt>
      <trkpt lat="45.97912" lon="4.596">
        <ele>447</ele>
        <time>2018-07-19T09:19:02Z</time>
      </trkpt>
      <trkpt lat="45.97914" lon="4.59599">
        <ele>447</ele>
        <time>2018-07-19T09:19:03Z</time>
      </trkpt>
      <trkpt lat="45.97921" lon="4.59592">
        <ele>444</ele>
        <time>2018-07-19T09:19:07Z</time>
      </trkpt>
      <trkpt lat="45.97923" lon="4.5959">
        <ele>444</ele>
        <time>2018-07-19T09:19:08Z</time>
      </trkpt>
      <trkpt lat="45.97929" lon="4.59583">
        <ele>447</ele>
        <time>2018-07-19T09:19:12Z</time>
      </trkpt>
      <trkpt lat="45.9793" lon="4.59581">
        <ele>447</ele>
        <time>2018-07-19T09:19:13Z</time>
      </trkpt>
      <trkpt lat="45.97934" lon="4.59573">
        <ele>447</ele>
        <time>2018-07-19T09:19:17Z</time>
      </trkpt>
      <trkpt lat="45.97936" lon="4.59571">
        <ele>447</ele>
        <time>2018-07-19T09:19:18Z</time>
      </trkpt>
      <trkpt lat="45.9794" lon="4.5956">
        <ele>447</ele>
        <time>2018-07-19T09:19:23Z</time>
      </trkpt>
      <trkpt lat="45.97941" lon="4.59558">
        <ele>447</ele>
        <time>2018-07-19T09:19:24Z</time>
      </trkpt>
      <trkpt lat="45.97942" lon="4.59548">
        <ele>448</ele>
        <time>2018-07-19T09:19:27Z</time>
      </trkpt>
      <trkpt lat="45.97942" lon="4.59545">
        <ele>448</ele>
        <time>2018-07-19T09:19:28Z</time>
      </trkpt>
      <trkpt lat="45.97943" lon="4.59535">
        <ele>449</ele>
        <time>2018-07-19T09:19:31Z</time>
      </trkpt>
      <trkpt lat="45.97943" lon="4.59532">
        <ele>449</ele>
        <time>2018-07-19T09:19:32Z</time>
      </trkpt>
      <trkpt lat="45.97944" lon="4.59521">
        <ele>450</ele>
        <time>2018-07-19T09:19:35Z</time>
      </trkpt>
      <trkpt lat="45.97944" lon="4.59518">
        <ele>451</ele>
        <time>2018-07-19T09:19:36Z</time>
      </trkpt>
      <trkpt lat="45.97945" lon="4.59508">
        <ele>451</ele>
        <time>2018-07-19T09:19:39Z</time>
      </trkpt>
      <trkpt lat="45.97945" lon="4.59505">
        <ele>452</ele>
        <time>2018-07-19T09:19:40Z</time>
      </trkpt>
      <trkpt lat="45.97946" lon="4.59494">
        <ele>459</ele>
        <time>2018-07-19T09:19:43Z</time>
      </trkpt>
      <trkpt lat="45.97947" lon="4.59491">
        <ele>459</ele>
        <time>2018-07-19T09:19:44Z</time>
      </trkpt>
      <trkpt lat="45.9795" lon="4.59481">
        <ele>459</ele>
        <time>2018-07-19T09:19:48Z</time>
      </trkpt>
      <trkpt lat="45.97951" lon="4.59478">
        <ele>459</ele>
        <time>2018-07-19T09:19:49Z</time>
      </trkpt>
      <trkpt lat="45.97954" lon="4.59469">
        <ele>459</ele>
        <time>2018-07-19T09:19:53Z</time>
      </trkpt>
      <trkpt lat="45.97955" lon="4.59467">
        <ele>459</ele>
        <time>2018-07-19T09:19:54Z</time>
      </trkpt>
      <trkpt lat="45.97959" lon="4.59457">
        <ele>459</ele>
        <time>2018-07-19T09:19:58Z</time>
      </trkpt>
      <trkpt lat="45.9796" lon="4.59454">
        <ele>459</ele>
        <time>2018-07-19T09:19:59Z</time>
      </trkpt>
      <trkpt lat="45.97965" lon="4.59444">
        <ele>459</ele>
        <time>2018-07-19T09:20:03Z</time>
      </trkpt>
      <trkpt lat="45.97966" lon="4.59442">
        <ele>459</ele>
        <time>2018-07-19T09:20:04Z</time>
      </trkpt>
      <trkpt lat="45.97972" lon="4.59434">
        <ele>459</ele>
        <time>2018-07-19T09:20:08Z</time>
      </trkpt>
      <trkpt lat="45.97973" lon="4.59432">
        <ele>459</ele>
        <time>2018-07-19T09:20:09Z</time>
      </trkpt>
      <trkpt lat="45.97979" lon="4.59423">
        <ele>458</ele>
        <time>2018-07-19T09:20:14Z</time>
      </trkpt>
      <trkpt lat="45.9798" lon="4.59421">
        <ele>458</ele>
        <time>2018-07-19T09:20:15Z</time>
      </trkpt>
      <trkpt lat="45.97984" lon="4.59411">
        <ele>461</ele>
        <time>2018-07-19T09:20:19Z</time>
      </trkpt>
      <trkpt lat="45.97984" lon="4.59409">
        <ele>461</ele>
        <time>2018-07-19T09:20:20Z</time>
      </trkpt>
      <trkpt lat="45.97986" lon="4.59399">
        <ele>461</ele>
        <time>2018-07-19T09:20:24Z</time>
      </trkpt>
      <trkpt lat="45.97987" lon="4.59395">
        <ele>462</ele>
        <time>2018-07-19T09:20:25Z</time>
      </trkpt>
      <trkpt lat="45.97987" lon="4.59384">
        <ele>463</ele>
        <time>2018-07-19T09:20:28Z</time>
      </trkpt>
      <trkpt lat="45.97987" lon="4.59381">
        <ele>463</ele>
        <time>2018-07-19T09:20:29Z</time>
      </trkpt>
      <trkpt lat="45.97986" lon="4.5937">
        <ele>463</ele>
        <time>2018-07-19T09:20:33Z</time>
      </trkpt>
      <trkpt lat="45.97986" lon="4.59367">
        <ele>463</ele>
        <time>2018-07-19T09:20:34Z</time>
      </trkpt>
      <trkpt lat="45.97985" lon="4.59355">
        <ele>463</ele>
        <time>2018-07-19T09:20:38Z</time>
      </trkpt>
      <trkpt lat="45.97985" lon="4.59352">
        <ele>462</ele>
        <time>2018-07-19T09:20:39Z</time>
      </trkpt>
      <trkpt lat="45.97983" lon="4.59341">
        <ele>462</ele>
        <time>2018-07-19T09:20:43Z</time>
      </trkpt>
      <trkpt lat="45.97982" lon="4.59339">
        <ele>462</ele>
        <time>2018-07-19T09:20:44Z</time>
      </trkpt>
      <trkpt lat="45.97979" lon="4.59327">
        <ele>464</ele>
        <time>2018-07-19T09:20:49Z</time>
      </trkpt>
      <trkpt lat="45.97978" lon="4.59325">
        <ele>464</ele>
        <time>2018-07-19T09:20:50Z</time>
      </trkpt>
      <trkpt lat="45.97977" lon="4.59312">
        <ele>466</ele>
        <time>2018-07-19T09:20:55Z</time>
      </trkpt>
      <trkpt lat="45.97976" lon="4.59309">
        <ele>466</ele>
        <time>2018-07-19T09:20:56Z</time>
      </trkpt>
      <trkpt lat="45.97975" lon="4.59299">
        <ele>467</ele>
        <time>2018-07-19T09:21:00Z</time>
      </trkpt>
      <trkpt lat="45.97975" lon="4.59296">
        <ele>467</ele>
        <time>2018-07-19T09:21:01Z</time>
      </trkpt>
      <trkpt lat="45.97971" lon="4.59286">
        <ele>467</ele>
        <time>2018-07-19T09:21:05Z</time>
      </trkpt>
      <trkpt lat="45.9797" lon="4.59284">
        <ele>468</ele>
        <time>2018-07-19T09:21:06Z</time>
      </trkpt>
      <trkpt lat="45.97966" lon="4.59272">
        <ele>468</ele>
        <time>2018-07-19T09:21:11Z</time>
      </trkpt>
      <trkpt lat="45.97966" lon="4.59269">
        <ele>468</ele>
        <time>2018-07-19T09:21:12Z</time>
      </trkpt>
      <trkpt lat="45.97964" lon="4.59258">
        <ele>468</ele>
        <time>2018-07-19T09:21:16Z</time>
      </trkpt>
      <trkpt lat="45.97964" lon="4.59255">
        <ele>468</ele>
        <time>2018-07-19T09:21:17Z</time>
      </trkpt>
      <trkpt lat="45.97962" lon="4.59244">
        <ele>471</ele>
        <time>2018-07-19T09:21:21Z</time>
      </trkpt>
      <trkpt lat="45.97961" lon="4.59241">
        <ele>472</ele>
        <time>2018-07-19T09:21:22Z</time>
      </trkpt>
      <trkpt lat="45.97961" lon="4.5923">
        <ele>472</ele>
        <time>2018-07-19T09:21:26Z</time>
      </trkpt>
      <trkpt lat="45.97961" lon="4.59227">
        <ele>472</ele>
        <time>2018-07-19T09:21:27Z</time>
      </trkpt>
      <trkpt lat="45.97962" lon="4.59217">
        <ele>472</ele>
        <time>2018-07-19T09:21:30Z</time>
      </trkpt>
      <trkpt lat="45.97963" lon="4.59214">
        <ele>472</ele>
        <time>2018-07-19T09:21:31Z</time>
      </trkpt>
      <trkpt lat="45.97966" lon="4.59204">
        <ele>472</ele>
        <time>2018-07-19T09:21:34Z</time>
      </trkpt>
      <trkpt lat="45.97967" lon="4.592">
        <ele>472</ele>
        <time>2018-07-19T09:21:35Z</time>
      </trkpt>
      <trkpt lat="45.97971" lon="4.59191">
        <ele>472</ele>
        <time>2018-07-19T09:21:38Z</time>
      </trkpt>
      <trkpt lat="45.97973" lon="4.59188">
        <ele>472</ele>
        <time>2018-07-19T09:21:39Z</time>
      </trkpt>
      <trkpt lat="45.97979" lon="4.59181">
        <ele>472</ele>
        <time>2018-07-19T09:21:43Z</time>
      </trkpt>
      <trkpt lat="45.97981" lon="4.59179">
        <ele>471</ele>
        <time>2018-07-19T09:21:44Z</time>
      </trkpt>
      <trkpt lat="45.97989" lon="4.59175">
        <ele>471</ele>
        <time>2018-07-19T09:21:48Z</time>
      </trkpt>
      <trkpt lat="45.97991" lon="4.59174">
        <ele>470</ele>
        <time>2018-07-19T09:21:49Z</time>
      </trkpt>
      <trkpt lat="45.97999" lon="4.5917">
        <ele>469</ele>
        <time>2018-07-19T09:21:53Z</time>
      </trkpt>
      <trkpt lat="45.98001" lon="4.59169">
        <ele>468</ele>
        <time>2018-07-19T09:21:54Z</time>
      </trkpt>
      <trkpt lat="45.98007" lon="4.59164">
        <ele>470</ele>
        <time>2018-07-19T09:21:58Z</time>
      </trkpt>
      <trkpt lat="45.98009" lon="4.59162">
        <ele>470</ele>
        <time>2018-07-19T09:21:59Z</time>
      </trkpt>
      <trkpt lat="45.98016" lon="4.59156">
        <ele>470</ele>
        <time>2018-07-19T09:22:03Z</time>
      </trkpt>
      <trkpt lat="45.98018" lon="4.59154">
        <ele>470</ele>
        <time>2018-07-19T09:22:04Z</time>
      </trkpt>
      <trkpt lat="45.98024" lon="4.59146">
        <ele>471</ele>
        <time>2018-07-19T09:22:07Z</time>
      </trkpt>
      <trkpt lat="45.98026" lon="4.59143">
        <ele>471</ele>
        <time>2018-07-19T09:22:08Z</time>
      </trkpt>
      <trkpt lat="45.98031" lon="4.59135">
        <ele>471</ele>
        <time>2018-07-19T09:22:11Z</time>
      </trkpt>
      <trkpt lat="45.98033" lon="4.59132">
        <ele>472</ele>
        <time>2018-07-19T09:22:12Z</time>
      </trkpt>
      <trkpt lat="45.98039" lon="4.59122">
        <ele>472</ele>
        <time>2018-07-19T09:22:16Z</time>
      </trkpt>
      <trkpt lat="45.9804" lon="4.5912">
        <ele>472</ele>
        <time>2018-07-19T09:22:17Z</time>
      </trkpt>
      <trkpt lat="45.98046" lon="4.5911">
        <ele>473</ele>
        <time>2018-07-19T09:22:20Z</time>
      </trkpt>
      <trkpt lat="45.98046" lon="4.59109">
        <ele>473</ele>
        <time>2018-07-19T09:22:21Z</time>
      </trkpt>
      <trkpt lat="45.98052" lon="4.591">
        <ele>473</ele>
        <time>2018-07-19T09:22:27Z</time>
      </trkpt>
      <trkpt lat="45.98053" lon="4.59098">
        <ele>473</ele>
        <time>2018-07-19T09:22:28Z</time>
      </trkpt>
      <trkpt lat="45.98059" lon="4.5909">
        <ele>473</ele>
        <time>2018-07-19T09:22:32Z</time>
      </trkpt>
      <trkpt lat="45.98061" lon="4.59088">
        <ele>473</ele>
        <time>2018-07-19T09:22:33Z</time>
      </trkpt>
      <trkpt lat="45.98065" lon="4.59079">
        <ele>478</ele>
        <time>2018-07-19T09:22:37Z</time>
      </trkpt>
      <trkpt lat="45.98067" lon="4.59076">
        <ele>478</ele>
        <time>2018-07-19T09:22:38Z</time>
      </trkpt>
      <trkpt lat="45.98072" lon="4.59067">
        <ele>478</ele>
        <time>2018-07-19T09:22:42Z</time>
      </trkpt>
      <trkpt lat="45.98073" lon="4.59065">
        <ele>478</ele>
        <time>2018-07-19T09:22:43Z</time>
      </trkpt>
      <trkpt lat="45.98078" lon="4.59056">
        <ele>479</ele>
        <time>2018-07-19T09:22:47Z</time>
      </trkpt>
      <trkpt lat="45.98079" lon="4.59054">
        <ele>479</ele>
        <time>2018-07-19T09:22:48Z</time>
      </trkpt>
      <trkpt lat="45.98083" lon="4.59046">
        <ele>480</ele>
        <time>2018-07-19T09:22:52Z</time>
      </trkpt>
      <trkpt lat="45.98084" lon="4.59044">
        <ele>470</ele>
        <time>2018-07-19T09:22:53Z</time>
      </trkpt>
      <trkpt lat="45.9809" lon="4.59036">
        <ele>471</ele>
        <time>2018-07-19T09:22:57Z</time>
      </trkpt>
      <trkpt lat="45.98091" lon="4.59034">
        <ele>471</ele>
        <time>2018-07-19T09:22:58Z</time>
      </trkpt>
      <trkpt lat="45.98095" lon="4.59026">
        <ele>471</ele>
        <time>2018-07-19T09:23:01Z</time>
      </trkpt>
      <trkpt lat="45.98096" lon="4.59023">
        <ele>471</ele>
        <time>2018-07-19T09:23:02Z</time>
      </trkpt>
      <trkpt lat="45.98101" lon="4.59012">
        <ele>472</ele>
        <time>2018-07-19T09:23:06Z</time>
      </trkpt>
      <trkpt lat="45.98102" lon="4.59008">
        <ele>472</ele>
        <time>2018-07-19T09:23:07Z</time>
      </trkpt>
      <trkpt lat="45.98104" lon="4.58996">
        <ele>476</ele>
        <time>2018-07-19T09:23:11Z</time>
      </trkpt>
      <trkpt lat="45.98104" lon="4.58993">
        <ele>476</ele>
        <time>2018-07-19T09:23:12Z</time>
      </trkpt>
      <trkpt lat="45.98104" lon="4.58981">
        <ele>476</ele>
        <time>2018-07-19T09:23:16Z</time>
      </trkpt>
      <trkpt lat="45.98104" lon="4.58978">
        <ele>476</ele>
        <time>2018-07-19T09:23:17Z</time>
      </trkpt>
      <trkpt lat="45.98105" lon="4.58967">
        <ele>476</ele>
        <time>2018-07-19T09:23:21Z</time>
      </trkpt>
      <trkpt lat="45.98105" lon="4.58964">
        <ele>476</ele>
        <time>2018-07-19T09:23:22Z</time>
      </trkpt>
      <trkpt lat="45.98106" lon="4.58954">
        <ele>477</ele>
        <time>2018-07-19T09:23:25Z</time>
      </trkpt>
      <trkpt lat="45.98106" lon="4.5895">
        <ele>477</ele>
        <time>2018-07-19T09:23:26Z</time>
      </trkpt>
      <trkpt lat="45.98106" lon="4.58938">
        <ele>478</ele>
        <time>2018-07-19T09:23:30Z</time>
      </trkpt>
      <trkpt lat="45.98105" lon="4.58935">
        <ele>478</ele>
        <time>2018-07-19T09:23:31Z</time>
      </trkpt>
      <trkpt lat="45.98104" lon="4.58923">
        <ele>479</ele>
        <time>2018-07-19T09:23:36Z</time>
      </trkpt>
      <trkpt lat="45.98103" lon="4.5892">
        <ele>479</ele>
        <time>2018-07-19T09:23:37Z</time>
      </trkpt>
      <trkpt lat="45.98104" lon="4.58908">
        <ele>484</ele>
        <time>2018-07-19T09:23:42Z</time>
      </trkpt>
      <trkpt lat="45.98105" lon="4.58905">
        <ele>484</ele>
        <time>2018-07-19T09:23:43Z</time>
      </trkpt>
      <trkpt lat="45.98107" lon="4.58894">
        <ele>484</ele>
        <time>2018-07-19T09:23:47Z</time>
      </trkpt>
      <trkpt lat="45.98107" lon="4.58891">
        <ele>484</ele>
        <time>2018-07-19T09:23:48Z</time>
      </trkpt>
      <trkpt lat="45.9811" lon="4.58879">
        <ele>485</ele>
        <time>2018-07-19T09:23:52Z</time>
      </trkpt>
      <trkpt lat="45.9811" lon="4.58876">
        <ele>485</ele>
        <time>2018-07-19T09:23:53Z</time>
      </trkpt>
      <trkpt lat="45.98112" lon="4.58865">
        <ele>485</ele>
        <time>2018-07-19T09:23:57Z</time>
      </trkpt>
      <trkpt lat="45.98113" lon="4.58862">
        <ele>485</ele>
        <time>2018-07-19T09:23:58Z</time>
      </trkpt>
      <trkpt lat="45.98118" lon="4.58853">
        <ele>486</ele>
        <time>2018-07-19T09:24:02Z</time>
      </trkpt>
      <trkpt lat="45.9812" lon="4.58851">
        <ele>486</ele>
        <time>2018-07-19T09:24:03Z</time>
      </trkpt>
      <trkpt lat="45.98126" lon="4.58844">
        <ele>486</ele>
        <time>2018-07-19T09:24:07Z</time>
      </trkpt>
      <trkpt lat="45.98128" lon="4.58842">
        <ele>486</ele>
        <time>2018-07-19T09:24:08Z</time>
      </trkpt>
      <trkpt lat="45.98134" lon="4.58835">
        <ele>486</ele>
        <time>2018-07-19T09:24:12Z</time>
      </trkpt>
      <trkpt lat="45.98136" lon="4.58834">
        <ele>486</ele>
        <time>2018-07-19T09:24:13Z</time>
      </trkpt>
      <trkpt lat="45.98143" lon="4.58829">
        <ele>492</ele>
        <time>2018-07-19T09:24:17Z</time>
      </trkpt>
      <trkpt lat="45.98145" lon="4.58828">
        <ele>492</ele>
        <time>2018-07-19T09:24:18Z</time>
      </trkpt>
      <trkpt lat="45.98151" lon="4.58822">
        <ele>492</ele>
        <time>2018-07-19T09:24:21Z</time>
      </trkpt>
      <trkpt lat="45.98153" lon="4.5882">
        <ele>492</ele>
        <time>2018-07-19T09:24:22Z</time>
      </trkpt>
      <trkpt lat="45.9816" lon="4.58813">
        <ele>493</ele>
        <time>2018-07-19T09:24:25Z</time>
      </trkpt>
      <trkpt lat="45.98162" lon="4.58811">
        <ele>493</ele>
        <time>2018-07-19T09:24:26Z</time>
      </trkpt>
      <trkpt lat="45.98167" lon="4.58803">
        <ele>492</ele>
        <time>2018-07-19T09:24:29Z</time>
      </trkpt>
      <trkpt lat="45.98169" lon="4.58801">
        <ele>492</ele>
        <time>2018-07-19T09:24:30Z</time>
      </trkpt>
      <trkpt lat="45.98175" lon="4.58792">
        <ele>493</ele>
        <time>2018-07-19T09:24:34Z</time>
      </trkpt>
      <trkpt lat="45.98176" lon="4.5879">
        <ele>493</ele>
        <time>2018-07-19T09:24:35Z</time>
      </trkpt>
      <trkpt lat="45.98182" lon="4.58781">
        <ele>493</ele>
        <time>2018-07-19T09:24:40Z</time>
      </trkpt>
      <trkpt lat="45.98184" lon="4.58779">
        <ele>494</ele>
        <time>2018-07-19T09:24:41Z</time>
      </trkpt>
      <trkpt lat="45.98192" lon="4.58774">
        <ele>494</ele>
        <time>2018-07-19T09:24:45Z</time>
      </trkpt>
      <trkpt lat="45.98194" lon="4.58772">
        <ele>494</ele>
        <time>2018-07-19T09:24:46Z</time>
      </trkpt>
      <trkpt lat="45.98202" lon="4.58769">
        <ele>493</ele>
        <time>2018-07-19T09:24:50Z</time>
      </trkpt>
      <trkpt lat="45.98204" lon="4.58767">
        <ele>493</ele>
        <time>2018-07-19T09:24:51Z</time>
      </trkpt>
      <trkpt lat="45.98209" lon="4.58764">
        <ele>493</ele>
        <time>2018-07-19T09:24:54Z</time>
      </trkpt>
      <trkpt lat="45.98212" lon="4.58762">
        <ele>493</ele>
        <time>2018-07-19T09:24:55Z</time>
      </trkpt>
      <trkpt lat="45.98219" lon="4.58757">
        <ele>493</ele>
        <time>2018-07-19T09:24:58Z</time>
      </trkpt>
      <trkpt lat="45.98221" lon="4.58755">
        <ele>493</ele>
        <time>2018-07-19T09:24:59Z</time>
      </trkpt>
      <trkpt lat="45.98228" lon="4.5875">
        <ele>499</ele>
        <time>2018-07-19T09:25:02Z</time>
      </trkpt>
      <trkpt lat="45.98235" lon="4.58742">
        <ele>498</ele>
        <time>2018-07-19T09:25:03Z</time>
      </trkpt>
      <trkpt lat="45.9824" lon="4.58733">
        <ele>498</ele>
        <time>2018-07-19T09:25:08Z</time>
      </trkpt>
      <trkpt lat="45.98241" lon="4.58732">
        <ele>499</ele>
        <time>2018-07-19T09:25:09Z</time>
      </trkpt>
      <trkpt lat="45.98249" lon="4.58725">
        <ele>499</ele>
        <time>2018-07-19T09:25:14Z</time>
      </trkpt>
      <trkpt lat="45.9825" lon="4.58724">
        <ele>497</ele>
        <time>2018-07-19T09:25:15Z</time>
      </trkpt>
      <trkpt lat="45.98258" lon="4.58718">
        <ele>498</ele>
        <time>2018-07-19T09:25:19Z</time>
      </trkpt>
      <trkpt lat="45.98262" lon="4.58714">
        <ele>498</ele>
        <time>2018-07-19T09:25:20Z</time>
      </trkpt>
      <trkpt lat="45.98269" lon="4.58709">
        <ele>499</ele>
        <time>2018-07-19T09:25:23Z</time>
      </trkpt>
      <trkpt lat="45.98271" lon="4.58707">
        <ele>499</ele>
        <time>2018-07-19T09:25:24Z</time>
      </trkpt>
      <trkpt lat="45.98277" lon="4.58702">
        <ele>499</ele>
        <time>2018-07-19T09:25:27Z</time>
      </trkpt>
      <trkpt lat="45.98279" lon="4.587">
        <ele>499</ele>
        <time>2018-07-19T09:25:28Z</time>
      </trkpt>
      <trkpt lat="45.98285" lon="4.58693">
        <ele>500</ele>
        <time>2018-07-19T09:25:31Z</time>
      </trkpt>
      <trkpt lat="45.98288" lon="4.5869">
        <ele>500</ele>
        <time>2018-07-19T09:25:32Z</time>
      </trkpt>
      <trkpt lat="45.98293" lon="4.58687">
        <ele>500</ele>
        <time>2018-07-19T09:25:34Z</time>
      </trkpt>
      <trkpt lat="45.98296" lon="4.58685">
        <ele>500</ele>
        <time>2018-07-19T09:25:35Z</time>
      </trkpt>
      <trkpt lat="45.98302" lon="4.58681">
        <ele>500</ele>
        <time>2018-07-19T09:25:37Z</time>
      </trkpt>
      <trkpt lat="45.98304" lon="4.58679">
        <ele>500</ele>
        <time>2018-07-19T09:25:38Z</time>
      </trkpt>
      <trkpt lat="45.98311" lon="4.58675">
        <ele>500</ele>
        <time>2018-07-19T09:25:41Z</time>
      </trkpt>
      <trkpt lat="45.98313" lon="4.58674">
        <ele>500</ele>
        <time>2018-07-19T09:25:42Z</time>
      </trkpt>
      <trkpt lat="45.9832" lon="4.58669">
        <ele>501</ele>
        <time>2018-07-19T09:25:46Z</time>
      </trkpt>
      <trkpt lat="45.98322" lon="4.58668">
        <ele>501</ele>
        <time>2018-07-19T09:25:47Z</time>
      </trkpt>
      <trkpt lat="45.9833" lon="4.58663">
        <ele>503</ele>
        <time>2018-07-19T09:25:51Z</time>
      </trkpt>
      <trkpt lat="45.98332" lon="4.58661">
        <ele>503</ele>
        <time>2018-07-19T09:25:52Z</time>
      </trkpt>
      <trkpt lat="45.98339" lon="4.58656">
        <ele>502</ele>
        <time>2018-07-19T09:25:56Z</time>
      </trkpt>
      <trkpt lat="45.98341" lon="4.58654">
        <ele>502</ele>
        <time>2018-07-19T09:25:57Z</time>
      </trkpt>
      <trkpt lat="45.98347" lon="4.58647">
        <ele>503</ele>
        <time>2018-07-19T09:26:01Z</time>
      </trkpt>
      <trkpt lat="45.98349" lon="4.58645">
        <ele>503</ele>
        <time>2018-07-19T09:26:02Z</time>
      </trkpt>
      <trkpt lat="45.98356" lon="4.5864">
        <ele>503</ele>
        <time>2018-07-19T09:26:06Z</time>
      </trkpt>
      <trkpt lat="45.98358" lon="4.58638">
        <ele>503</ele>
        <time>2018-07-19T09:26:07Z</time>
      </trkpt>
      <trkpt lat="45.98365" lon="4.58632">
        <ele>503</ele>
        <time>2018-07-19T09:26:11Z</time>
      </trkpt>
      <trkpt lat="45.98367" lon="4.58631">
        <ele>503</ele>
        <time>2018-07-19T09:26:12Z</time>
      </trkpt>
      <trkpt lat="45.98373" lon="4.58623">
        <ele>503</ele>
        <time>2018-07-19T09:26:16Z</time>
      </trkpt>
      <trkpt lat="45.98375" lon="4.58621">
        <ele>503</ele>
        <time>2018-07-19T09:26:17Z</time>
      </trkpt>
      <trkpt lat="45.98379" lon="4.58611">
        <ele>503</ele>
        <time>2018-07-19T09:26:21Z</time>
      </trkpt>
      <trkpt lat="45.98379" lon="4.5861">
        <ele>503</ele>
        <time>2018-07-19T09:26:22Z</time>
      </trkpt>
      <trkpt lat="45.98381" lon="4.58597">
        <ele>504</ele>
        <time>2018-07-19T09:26:27Z</time>
      </trkpt>
      <trkpt lat="45.98381" lon="4.58594">
        <ele>504</ele>
        <time>2018-07-19T09:26:28Z</time>
      </trkpt>
      <trkpt lat="45.98378" lon="4.58584">
        <ele>504</ele>
        <time>2018-07-19T09:26:31Z</time>
      </trkpt>
      <trkpt lat="45.98377" lon="4.58581">
        <ele>509</ele>
        <time>2018-07-19T09:26:32Z</time>
      </trkpt>
      <trkpt lat="45.9837" lon="4.58572">
        <ele>510</ele>
        <time>2018-07-19T09:26:36Z</time>
      </trkpt>
      <trkpt lat="45.98368" lon="4.58571">
        <ele>510</ele>
        <time>2018-07-19T09:26:37Z</time>
      </trkpt>
      <trkpt lat="45.98361" lon="4.58569">
        <ele>510</ele>
        <time>2018-07-19T09:26:41Z</time>
      </trkpt>
      <trkpt lat="45.98359" lon="4.5857">
        <ele>510</ele>
        <time>2018-07-19T09:26:42Z</time>
      </trkpt>
      <trkpt lat="45.9835" lon="4.58571">
        <ele>511</ele>
        <time>2018-07-19T09:26:46Z</time>
      </trkpt>
      <trkpt lat="45.98348" lon="4.58571">
        <ele>511</ele>
        <time>2018-07-19T09:26:47Z</time>
      </trkpt>
      <trkpt lat="45.98339" lon="4.58573">
        <ele>510</ele>
        <time>2018-07-19T09:26:51Z</time>
      </trkpt>
      <trkpt lat="45.98337" lon="4.58573">
        <ele>510</ele>
        <time>2018-07-19T09:26:52Z</time>
      </trkpt>
      <trkpt lat="45.98329" lon="4.58573">
        <ele>513</ele>
        <time>2018-07-19T09:26:56Z</time>
      </trkpt>
      <trkpt lat="45.98326" lon="4.58573">
        <ele>514</ele>
        <time>2018-07-19T09:26:57Z</time>
      </trkpt>
      <trkpt lat="45.98318" lon="4.58574">
        <ele>515</ele>
        <time>2018-07-19T09:27:01Z</time>
      </trkpt>
      <trkpt lat="45.98316" lon="4.58575">
        <ele>515</ele>
        <time>2018-07-19T09:27:02Z</time>
      </trkpt>
      <trkpt lat="45.98307" lon="4.58575">
        <ele>516</ele>
        <time>2018-07-19T09:27:06Z</time>
      </trkpt>
      <trkpt lat="45.98304" lon="4.58575">
        <ele>516</ele>
        <time>2018-07-19T09:27:07Z</time>
      </trkpt>
      <trkpt lat="45.98297" lon="4.58576">
        <ele>517</ele>
        <time>2018-07-19T09:27:10Z</time>
      </trkpt>
      <trkpt lat="45.98295" lon="4.58577">
        <ele>517</ele>
        <time>2018-07-19T09:27:11Z</time>
      </trkpt>
      <trkpt lat="45.98287" lon="4.58577">
        <ele>518</ele>
        <time>2018-07-19T09:27:15Z</time>
      </trkpt>
      <trkpt lat="45.98284" lon="4.58578">
        <ele>518</ele>
        <time>2018-07-19T09:27:16Z</time>
      </trkpt>
      <trkpt lat="45.98277" lon="4.58578">
        <ele>518</ele>
        <time>2018-07-19T09:27:19Z</time>
      </trkpt>
      <trkpt lat="45.98275" lon="4.58578">
        <ele>518</ele>
        <time>2018-07-19T09:27:20Z</time>
      </trkpt>
      <trkpt lat="45.98266" lon="4.58579">
        <ele>518</ele>
        <time>2018-07-19T09:27:24Z</time>
      </trkpt>
      <trkpt lat="45.98264" lon="4.58579">
        <ele>518</ele>
        <time>2018-07-19T09:27:25Z</time>
      </trkpt>
      <trkpt lat="45.98256" lon="4.5858">
        <ele>518</ele>
        <time>2018-07-19T09:27:29Z</time>
      </trkpt>
      <trkpt lat="45.98253" lon="4.58579">
        <ele>518</ele>
        <time>2018-07-19T09:27:30Z</time>
      </trkpt>
      <trkpt lat="45.98246" lon="4.58578">
        <ele>519</ele>
        <time>2018-07-19T09:27:34Z</time>
      </trkpt>
      <trkpt lat="45.98244" lon="4.58578">
        <ele>520</ele>
        <time>2018-07-19T09:27:35Z</time>
      </trkpt>
      <trkpt lat="45.98236" lon="4.58575">
        <ele>521</ele>
        <time>2018-07-19T09:27:40Z</time>
      </trkpt>
      <trkpt lat="45.98234" lon="4.58575">
        <ele>521</ele>
        <time>2018-07-19T09:27:41Z</time>
      </trkpt>
      <trkpt lat="45.98227" lon="4.58573">
        <ele>522</ele>
        <time>2018-07-19T09:27:45Z</time>
      </trkpt>
      <trkpt lat="45.98224" lon="4.58573">
        <ele>522</ele>
        <time>2018-07-19T09:27:46Z</time>
      </trkpt>
      <trkpt lat="45.98217" lon="4.58572">
        <ele>522</ele>
        <time>2018-07-19T09:27:50Z</time>
      </trkpt>
      <trkpt lat="45.98215" lon="4.58571">
        <ele>522</ele>
        <time>2018-07-19T09:27:51Z</time>
      </trkpt>
      <trkpt lat="45.98208" lon="4.58569">
        <ele>522</ele>
        <time>2018-07-19T09:27:54Z</time>
      </trkpt>
      <trkpt lat="45.98206" lon="4.58568">
        <ele>522</ele>
        <time>2018-07-19T09:27:55Z</time>
      </trkpt>
      <trkpt lat="45.98198" lon="4.58568">
        <ele>522</ele>
        <time>2018-07-19T09:27:59Z</time>
      </trkpt>
      <trkpt lat="45.98196" lon="4.58568">
        <ele>522</ele>
        <time>2018-07-19T09:28:00Z</time>
      </trkpt>
      <trkpt lat="45.98189" lon="4.58568">
        <ele>522</ele>
        <time>2018-07-19T09:28:04Z</time>
      </trkpt>
      <trkpt lat="45.98187" lon="4.58567">
        <ele>522</ele>
        <time>2018-07-19T09:28:05Z</time>
      </trkpt>
      <trkpt lat="45.98179" lon="4.58564">
        <ele>522</ele>
        <time>2018-07-19T09:28:09Z</time>
      </trkpt>
      <trkpt lat="45.98177" lon="4.58564">
        <ele>522</ele>
        <time>2018-07-19T09:28:10Z</time>
      </trkpt>
      <trkpt lat="45.98169" lon="4.58563">
        <ele>522</ele>
        <time>2018-07-19T09:28:14Z</time>
      </trkpt>
      <trkpt lat="45.98167" lon="4.58563">
        <ele>522</ele>
        <time>2018-07-19T09:28:15Z</time>
      </trkpt>
      <trkpt lat="45.98159" lon="4.58562">
        <ele>523</ele>
        <time>2018-07-19T09:28:19Z</time>
      </trkpt>
      <trkpt lat="45.98157" lon="4.58562">
        <ele>523</ele>
        <time>2018-07-19T09:28:20Z</time>
      </trkpt>
      <trkpt lat="45.98149" lon="4.5856">
        <ele>524</ele>
        <time>2018-07-19T09:28:24Z</time>
      </trkpt>
      <trkpt lat="45.98147" lon="4.5856">
        <ele>524</ele>
        <time>2018-07-19T09:28:25Z</time>
      </trkpt>
      <trkpt lat="45.9814" lon="4.5856">
        <ele>524</ele>
        <time>2018-07-19T09:28:29Z</time>
      </trkpt>
      <trkpt lat="45.98138" lon="4.5856">
        <ele>524</ele>
        <time>2018-07-19T09:28:30Z</time>
      </trkpt>
      <trkpt lat="45.9813" lon="4.58559">
        <ele>524</ele>
        <time>2018-07-19T09:28:33Z</time>
      </trkpt>
      <trkpt lat="45.98128" lon="4.58559">
        <ele>525</ele>
        <time>2018-07-19T09:28:34Z</time>
      </trkpt>
      <trkpt lat="45.98119" lon="4.58557">
        <ele>525</ele>
        <time>2018-07-19T09:28:38Z</time>
      </trkpt>
      <trkpt lat="45.98117" lon="4.58557">
        <ele>525</ele>
        <time>2018-07-19T09:28:39Z</time>
      </trkpt>
      <trkpt lat="45.98109" lon="4.58555">
        <ele>525</ele>
        <time>2018-07-19T09:28:43Z</time>
      </trkpt>
      <trkpt lat="45.98107" lon="4.58554">
        <ele>525</ele>
        <time>2018-07-19T09:28:44Z</time>
      </trkpt>
      <trkpt lat="45.98099" lon="4.58553">
        <ele>525</ele>
        <time>2018-07-19T09:28:48Z</time>
      </trkpt>
      <trkpt lat="45.98097" lon="4.58552">
        <ele>525</ele>
        <time>2018-07-19T09:28:49Z</time>
      </trkpt>
      <trkpt lat="45.98089" lon="4.58551">
        <ele>525</ele>
        <time>2018-07-19T09:28:53Z</time>
      </trkpt>
      <trkpt lat="45.98087" lon="4.5855">
        <ele>525</ele>
        <time>2018-07-19T09:28:54Z</time>
      </trkpt>
      <trkpt lat="45.98079" lon="4.58547">
        <ele>528</ele>
        <time>2018-07-19T09:28:59Z</time>
      </trkpt>
      <trkpt lat="45.98078" lon="4.58547">
        <ele>528</ele>
        <time>2018-07-19T09:29:00Z</time>
      </trkpt>
      <trkpt lat="45.9807" lon="4.58544">
        <ele>529</ele>
        <time>2018-07-19T09:29:04Z</time>
      </trkpt>
      <trkpt lat="45.98068" lon="4.58544">
        <ele>529</ele>
        <time>2018-07-19T09:29:05Z</time>
      </trkpt>
      <trkpt lat="45.9806" lon="4.58544">
        <ele>529</ele>
        <time>2018-07-19T09:29:09Z</time>
      </trkpt>
      <trkpt lat="45.98057" lon="4.58543">
        <ele>529</ele>
        <time>2018-07-19T09:29:10Z</time>
      </trkpt>
      <trkpt lat="45.9805" lon="4.58542">
        <ele>529</ele>
        <time>2018-07-19T09:29:14Z</time>
      </trkpt>
      <trkpt lat="45.98048" lon="4.58541">
        <ele>530</ele>
        <time>2018-07-19T09:29:15Z</time>
      </trkpt>
      <trkpt lat="45.9804" lon="4.5854">
        <ele>530</ele>
        <time>2018-07-19T09:29:19Z</time>
      </trkpt>
      <trkpt lat="45.98038" lon="4.5854">
        <ele>530</ele>
        <time>2018-07-19T09:29:20Z</time>
      </trkpt>
      <trkpt lat="45.98029" lon="4.58541">
        <ele>530</ele>
        <time>2018-07-19T09:29:24Z</time>
      </trkpt>
      <trkpt lat="45.98027" lon="4.58541">
        <ele>530</ele>
        <time>2018-07-19T09:29:25Z</time>
      </trkpt>
      <trkpt lat="45.98018" lon="4.58542">
        <ele>530</ele>
        <time>2018-07-19T09:29:28Z</time>
      </trkpt>
      <trkpt lat="45.98015" lon="4.58542">
        <ele>531</ele>
        <time>2018-07-19T09:29:29Z</time>
      </trkpt>
      <trkpt lat="45.98006" lon="4.58542">
        <ele>531</ele>
        <time>2018-07-19T09:29:32Z</time>
      </trkpt>
      <trkpt lat="45.98004" lon="4.58542">
        <ele>531</ele>
        <time>2018-07-19T09:29:33Z</time>
      </trkpt>
      <trkpt lat="45.97996" lon="4.58541">
        <ele>534</ele>
        <time>2018-07-19T09:29:37Z</time>
      </trkpt>
      <trkpt lat="45.97994" lon="4.58541">
        <ele>535</ele>
        <time>2018-07-19T09:29:38Z</time>
      </trkpt>
      <trkpt lat="45.97986" lon="4.5854">
        <ele>535</ele>
        <time>2018-07-19T09:29:43Z</time>
      </trkpt>
      <trkpt lat="45.97984" lon="4.5854">
        <ele>535</ele>
        <time>2018-07-19T09:29:44Z</time>
      </trkpt>
      <trkpt lat="45.97976" lon="4.58541">
        <ele>535</ele>
        <time>2018-07-19T09:29:48Z</time>
      </trkpt>
      <trkpt lat="45.97974" lon="4.58541">
        <ele>535</ele>
        <time>2018-07-19T09:29:49Z</time>
      </trkpt>
      <trkpt lat="45.97966" lon="4.58541">
        <ele>535</ele>
        <time>2018-07-19T09:29:53Z</time>
      </trkpt>
      <trkpt lat="45.97964" lon="4.58541">
        <ele>535</ele>
        <time>2018-07-19T09:29:54Z</time>
      </trkpt>
      <trkpt lat="45.97957" lon="4.58542">
        <ele>536</ele>
        <time>2018-07-19T09:29:58Z</time>
      </trkpt>
      <trkpt lat="45.97955" lon="4.58542">
        <ele>536</ele>
        <time>2018-07-19T09:29:59Z</time>
      </trkpt>
      <trkpt lat="45.97947" lon="4.58543">
        <ele>536</ele>
        <time>2018-07-19T09:30:03Z</time>
      </trkpt>
      <trkpt lat="45.97945" lon="4.58543">
        <ele>536</ele>
        <time>2018-07-19T09:30:04Z</time>
      </trkpt>
      <trkpt lat="45.97938" lon="4.58544">
        <ele>536</ele>
        <time>2018-07-19T09:30:07Z</time>
      </trkpt>
      <trkpt lat="45.97936" lon="4.58545">
        <ele>536</ele>
        <time>2018-07-19T09:30:08Z</time>
      </trkpt>
      <trkpt lat="45.97929" lon="4.58546">
        <ele>536</ele>
        <time>2018-07-19T09:30:11Z</time>
      </trkpt>
      <trkpt lat="45.97927" lon="4.58547">
        <ele>536</ele>
        <time>2018-07-19T09:30:12Z</time>
      </trkpt>
      <trkpt lat="45.97918" lon="4.58548">
        <ele>536</ele>
        <time>2018-07-19T09:30:16Z</time>
      </trkpt>
      <trkpt lat="45.97916" lon="4.58548">
        <ele>539</ele>
        <time>2018-07-19T09:30:17Z</time>
      </trkpt>
      <trkpt lat="45.97909" lon="4.58549">
        <ele>539</ele>
        <time>2018-07-19T09:30:20Z</time>
      </trkpt>
      <trkpt lat="45.97906" lon="4.58549">
        <ele>539</ele>
        <time>2018-07-19T09:30:21Z</time>
      </trkpt>
      <trkpt lat="45.97899" lon="4.5855">
        <ele>539</ele>
        <time>2018-07-19T09:30:24Z</time>
      </trkpt>
      <trkpt lat="45.97897" lon="4.5855">
        <ele>539</ele>
        <time>2018-07-19T09:30:25Z</time>
      </trkpt>
      <trkpt lat="45.97889" lon="4.5855">
        <ele>540</ele>
        <time>2018-07-19T09:30:29Z</time>
      </trkpt>
      <trkpt lat="45.97886" lon="4.5855">
        <ele>540</ele>
        <time>2018-07-19T09:30:30Z</time>
      </trkpt>
      <trkpt lat="45.97878" lon="4.5855">
        <ele>540</ele>
        <time>2018-07-19T09:30:34Z</time>
      </trkpt>
      <trkpt lat="45.97876" lon="4.5855">
        <ele>540</ele>
        <time>2018-07-19T09:30:35Z</time>
      </trkpt>
      <trkpt lat="45.97868" lon="4.58552">
        <ele>540</ele>
        <time>2018-07-19T09:30:39Z</time>
      </trkpt>
      <trkpt lat="45.97866" lon="4.58552">
        <ele>540</ele>
        <time>2018-07-19T09:30:40Z</time>
      </trkpt>
      <trkpt lat="45.97858" lon="4.58552">
        <ele>540</ele>
        <time>2018-07-19T09:30:44Z</time>
      </trkpt>
      <trkpt lat="45.97856" lon="4.58552">
        <ele>540</ele>
        <time>2018-07-19T09:30:45Z</time>
      </trkpt>
      <trkpt lat="45.97847" lon="4.5855">
        <ele>540</ele>
        <time>2018-07-19T09:30:49Z</time>
      </trkpt>
      <trkpt lat="45.97846" lon="4.58549">
        <ele>540</ele>
        <time>2018-07-19T09:30:50Z</time>
      </trkpt>
      <trkpt lat="45.97838" lon="4.58544">
        <ele>541</ele>
        <time>2018-07-19T09:30:54Z</time>
      </trkpt>
      <trkpt lat="45.97836" lon="4.58542">
        <ele>541</ele>
        <time>2018-07-19T09:30:55Z</time>
      </trkpt>
      <trkpt lat="45.97829" lon="4.58534">
        <ele>544</ele>
        <time>2018-07-19T09:30:59Z</time>
      </trkpt>
      <trkpt lat="45.97828" lon="4.58531">
        <ele>544</ele>
        <time>2018-07-19T09:31:00Z</time>
      </trkpt>
      <trkpt lat="45.97824" lon="4.58521">
        <ele>544</ele>
        <time>2018-07-19T09:31:04Z</time>
      </trkpt>
      <trkpt lat="45.97823" lon="4.58518">
        <ele>544</ele>
        <time>2018-07-19T09:31:05Z</time>
      </trkpt>
      <trkpt lat="45.97821" lon="4.58508">
        <ele>545</ele>
        <time>2018-07-19T09:31:08Z</time>
      </trkpt>
      <trkpt lat="45.9782" lon="4.58505">
        <ele>545</ele>
        <time>2018-07-19T09:31:09Z</time>
      </trkpt>
      <trkpt lat="45.9782" lon="4.58492">
        <ele>547</ele>
        <time>2018-07-19T09:31:13Z</time>
      </trkpt>
      <trkpt lat="45.9782" lon="4.58489">
        <ele>547</ele>
        <time>2018-07-19T09:31:14Z</time>
      </trkpt>
      <trkpt lat="45.97819" lon="4.58477">
        <ele>548</ele>
        <time>2018-07-19T09:31:18Z</time>
      </trkpt>
      <trkpt lat="45.97819" lon="4.58474">
        <ele>548</ele>
        <time>2018-07-19T09:31:19Z</time>
      </trkpt>
      <trkpt lat="45.97818" lon="4.58462">
        <ele>548</ele>
        <time>2018-07-19T09:31:23Z</time>
      </trkpt>
      <trkpt lat="45.97818" lon="4.58459">
        <ele>549</ele>
        <time>2018-07-19T09:31:24Z</time>
      </trkpt>
      <trkpt lat="45.97817" lon="4.58448">
        <ele>549</ele>
        <time>2018-07-19T09:31:28Z</time>
      </trkpt>
      <trkpt lat="45.97817" lon="4.58445">
        <ele>549</ele>
        <time>2018-07-19T09:31:29Z</time>
      </trkpt>
      <trkpt lat="45.97818" lon="4.58433">
        <ele>550</ele>
        <time>2018-07-19T09:31:33Z</time>
      </trkpt>
      <trkpt lat="45.97818" lon="4.5843">
        <ele>550</ele>
        <time>2018-07-19T09:31:34Z</time>
      </trkpt>
      <trkpt lat="45.97817" lon="4.58419">
        <ele>550</ele>
        <time>2018-07-19T09:31:38Z</time>
      </trkpt>
      <trkpt lat="45.97817" lon="4.58417">
        <ele>551</ele>
        <time>2018-07-19T09:31:39Z</time>
      </trkpt>
      <trkpt lat="45.97818" lon="4.58404">
        <ele>551</ele>
        <time>2018-07-19T09:31:43Z</time>
      </trkpt>
      <trkpt lat="45.97818" lon="4.58401">
        <ele>551</ele>
        <time>2018-07-19T09:31:44Z</time>
      </trkpt>
      <trkpt lat="45.97819" lon="4.58391">
        <ele>551</ele>
        <time>2018-07-19T09:31:47Z</time>
      </trkpt>
      <trkpt lat="45.97819" lon="4.58387">
        <ele>551</ele>
        <time>2018-07-19T09:31:48Z</time>
      </trkpt>
      <trkpt lat="45.9782" lon="4.58377">
        <ele>551</ele>
        <time>2018-07-19T09:31:51Z</time>
      </trkpt>
      <trkpt lat="45.9782" lon="4.58374">
        <ele>551</ele>
        <time>2018-07-19T09:31:52Z</time>
      </trkpt>
      <trkpt lat="45.97819" lon="4.58363">
        <ele>551</ele>
        <time>2018-07-19T09:31:55Z</time>
      </trkpt>
      <trkpt lat="45.97819" lon="4.58359">
        <ele>551</ele>
        <time>2018-07-19T09:31:56Z</time>
      </trkpt>
      <trkpt lat="45.97816" lon="4.58349">
        <ele>551</ele>
        <time>2018-07-19T09:31:59Z</time>
      </trkpt>
      <trkpt lat="45.97814" lon="4.58345">
        <ele>551</ele>
        <time>2018-07-19T09:32:00Z</time>
      </trkpt>
      <trkpt lat="45.97811" lon="4.58334">
        <ele>551</ele>
        <time>2018-07-19T09:32:03Z</time>
      </trkpt>
      <trkpt lat="45.97811" lon="4.5833">
        <ele>551</ele>
        <time>2018-07-19T09:32:04Z</time>
      </trkpt>
      <trkpt lat="45.9781" lon="4.58318">
        <ele>551</ele>
        <time>2018-07-19T09:32:07Z</time>
      </trkpt>
      <trkpt lat="45.97809" lon="4.58313">
        <ele>551</ele>
        <time>2018-07-19T09:32:08Z</time>
      </trkpt>
      <trkpt lat="45.97807" lon="4.58301">
        <ele>551</ele>
        <time>2018-07-19T09:32:11Z</time>
      </trkpt>
      <trkpt lat="45.97806" lon="4.58296">
        <ele>551</ele>
        <time>2018-07-19T09:32:12Z</time>
      </trkpt>
      <trkpt lat="45.97803" lon="4.58286">
        <ele>551</ele>
        <time>2018-07-19T09:32:14Z</time>
      </trkpt>
      <trkpt lat="45.97801" lon="4.58282">
        <ele>551</ele>
        <time>2018-07-19T09:32:15Z</time>
      </trkpt>
      <trkpt lat="45.978" lon="4.58278">
        <ele>551</ele>
        <time>2018-07-19T09:32:16Z</time>
      </trkpt>
      <trkpt lat="45.97793" lon="4.58267">
        <ele>551</ele>
        <time>2018-07-19T09:32:17Z</time>
      </trkpt>
      <trkpt lat="45.97787" lon="4.58258">
        <ele>551</ele>
        <time>2018-07-19T09:32:21Z</time>
      </trkpt>
      <trkpt lat="45.97785" lon="4.58256">
        <ele>551</ele>
        <time>2018-07-19T09:32:22Z</time>
      </trkpt>
      <trkpt lat="45.97783" lon="4.58253">
        <ele>551</ele>
        <time>2018-07-19T09:32:23Z</time>
      </trkpt>
      <trkpt lat="45.97775" lon="4.58244">
        <ele>550</ele>
        <time>2018-07-19T09:32:24Z</time>
      </trkpt>
      <trkpt lat="45.97769" lon="4.58238">
        <ele>550</ele>
        <time>2018-07-19T09:32:26Z</time>
      </trkpt>
      <trkpt lat="45.97767" lon="4.58237">
        <ele>550</ele>
        <time>2018-07-19T09:32:27Z</time>
      </trkpt>
      <trkpt lat="45.9776" lon="4.58229">
        <ele>549</ele>
        <time>2018-07-19T09:32:29Z</time>
      </trkpt>
      <trkpt lat="45.97756" lon="4.58227">
        <ele>549</ele>
        <time>2018-07-19T09:32:30Z</time>
      </trkpt>
      <trkpt lat="45.97749" lon="4.58222">
        <ele>549</ele>
        <time>2018-07-19T09:32:32Z</time>
      </trkpt>
      <trkpt lat="45.97746" lon="4.58219">
        <ele>548</ele>
        <time>2018-07-19T09:32:33Z</time>
      </trkpt>
      <trkpt lat="45.97739" lon="4.58214">
        <ele>548</ele>
        <time>2018-07-19T09:32:35Z</time>
      </trkpt>
      <trkpt lat="45.97735" lon="4.58212">
        <ele>548</ele>
        <time>2018-07-19T09:32:36Z</time>
      </trkpt>
      <trkpt lat="45.97729" lon="4.5821">
        <ele>548</ele>
        <time>2018-07-19T09:32:37Z</time>
      </trkpt>
      <trkpt lat="45.97726" lon="4.58208">
        <ele>547</ele>
        <time>2018-07-19T09:32:38Z</time>
      </trkpt>
      <trkpt lat="45.97721" lon="4.58206">
        <ele>547</ele>
        <time>2018-07-19T09:32:39Z</time>
      </trkpt>
      <trkpt lat="45.97716" lon="4.58203">
        <ele>547</ele>
        <time>2018-07-19T09:32:40Z</time>
      </trkpt>
      <trkpt lat="45.97711" lon="4.582">
        <ele>547</ele>
        <time>2018-07-19T09:32:41Z</time>
      </trkpt>
      <trkpt lat="45.97707" lon="4.58198">
        <ele>547</ele>
        <time>2018-07-19T09:32:42Z</time>
      </trkpt>
      <trkpt lat="45.97702" lon="4.58197">
        <ele>547</ele>
        <time>2018-07-19T09:32:43Z</time>
      </trkpt>
      <trkpt lat="45.97697" lon="4.58195">
        <ele>547</ele>
        <time>2018-07-19T09:32:44Z</time>
      </trkpt>
      <trkpt lat="45.97693" lon="4.58193">
        <ele>546</ele>
        <time>2018-07-19T09:32:45Z</time>
      </trkpt>
      <trkpt lat="45.97688" lon="4.58191">
        <ele>546</ele>
        <time>2018-07-19T09:32:46Z</time>
      </trkpt>
      <trkpt lat="45.97682" lon="4.58189">
        <ele>546</ele>
        <time>2018-07-19T09:32:48Z</time>
      </trkpt>
      <trkpt lat="45.97676" lon="4.58185">
        <ele>545</ele>
        <time>2018-07-19T09:32:49Z</time>
      </trkpt>
      <trkpt lat="45.97671" lon="4.58183">
        <ele>545</ele>
        <time>2018-07-19T09:32:50Z</time>
      </trkpt>
      <trkpt lat="45.97665" lon="4.58182">
        <ele>545</ele>
        <time>2018-07-19T09:32:51Z</time>
      </trkpt>
      <trkpt lat="45.97659" lon="4.5818">
        <ele>545</ele>
        <time>2018-07-19T09:32:52Z</time>
      </trkpt>
      <trkpt lat="45.97653" lon="4.58175">
        <ele>545</ele>
        <time>2018-07-19T09:32:53Z</time>
      </trkpt>
      <trkpt lat="45.97646" lon="4.58171">
        <ele>545</ele>
        <time>2018-07-19T09:32:54Z</time>
      </trkpt>
      <trkpt lat="45.9764" lon="4.58171">
        <ele>545</ele>
        <time>2018-07-19T09:32:55Z</time>
      </trkpt>
      <trkpt lat="45.97635" lon="4.58169">
        <ele>545</ele>
        <time>2018-07-19T09:32:56Z</time>
      </trkpt>
      <trkpt lat="45.97628" lon="4.5817">
        <ele>546</ele>
        <time>2018-07-19T09:32:57Z</time>
      </trkpt>
      <trkpt lat="45.97622" lon="4.58166">
        <ele>536</ele>
        <time>2018-07-19T09:32:58Z</time>
      </trkpt>
      <trkpt lat="45.97617" lon="4.58167">
        <ele>536</ele>
        <time>2018-07-19T09:32:59Z</time>
      </trkpt>
      <trkpt lat="45.97611" lon="4.58167">
        <ele>537</ele>
        <time>2018-07-19T09:33:00Z</time>
      </trkpt>
      <trkpt lat="45.97605" lon="4.58165">
        <ele>537</ele>
        <time>2018-07-19T09:33:01Z</time>
      </trkpt>
      <trkpt lat="45.97599" lon="4.58165">
        <ele>538</ele>
        <time>2018-07-19T09:33:02Z</time>
      </trkpt>
      <trkpt lat="45.97593" lon="4.58164">
        <ele>538</ele>
        <time>2018-07-19T09:33:03Z</time>
      </trkpt>
      <trkpt lat="45.97588" lon="4.58164">
        <ele>540</ele>
        <time>2018-07-19T09:33:04Z</time>
      </trkpt>
      <trkpt lat="45.97581" lon="4.58164">
        <ele>540</ele>
        <time>2018-07-19T09:33:05Z</time>
      </trkpt>
      <trkpt lat="45.97575" lon="4.58163">
        <ele>540</ele>
        <time>2018-07-19T09:33:06Z</time>
      </trkpt>
      <trkpt lat="45.97569" lon="4.58161">
        <ele>540</ele>
        <time>2018-07-19T09:33:07Z</time>
      </trkpt>
      <trkpt lat="45.97562" lon="4.58161">
        <ele>539</ele>
        <time>2018-07-19T09:33:08Z</time>
      </trkpt>
      <trkpt lat="45.97557" lon="4.58161">
        <ele>539</ele>
        <time>2018-07-19T09:33:09Z</time>
      </trkpt>
      <trkpt lat="45.9755" lon="4.58157">
        <ele>539</ele>
        <time>2018-07-19T09:33:10Z</time>
      </trkpt>
      <trkpt lat="45.97541" lon="4.58154">
        <ele>540</ele>
        <time>2018-07-19T09:33:11Z</time>
      </trkpt>
      <trkpt lat="45.97537" lon="4.58158">
        <ele>540</ele>
        <time>2018-07-19T09:33:12Z</time>
      </trkpt>
      <trkpt lat="45.97532" lon="4.58157">
        <ele>541</ele>
        <time>2018-07-19T09:33:13Z</time>
      </trkpt>
      <trkpt lat="45.97526" lon="4.58155">
        <ele>541</ele>
        <time>2018-07-19T09:33:14Z</time>
      </trkpt>
      <trkpt lat="45.97521" lon="4.58152">
        <ele>542</ele>
        <time>2018-07-19T09:33:15Z</time>
      </trkpt>
      <trkpt lat="45.97513" lon="4.58146">
        <ele>542</ele>
        <time>2018-07-19T09:33:16Z</time>
      </trkpt>
      <trkpt lat="45.97509" lon="4.5815">
        <ele>543</ele>
        <time>2018-07-19T09:33:17Z</time>
      </trkpt>
      <trkpt lat="45.97502" lon="4.58146">
        <ele>543</ele>
        <time>2018-07-19T09:33:18Z</time>
      </trkpt>
      <trkpt lat="45.97495" lon="4.58141">
        <ele>547</ele>
        <time>2018-07-19T09:33:19Z</time>
      </trkpt>
      <trkpt lat="45.97487" lon="4.58137">
        <ele>546</ele>
        <time>2018-07-19T09:33:20Z</time>
      </trkpt>
      <trkpt lat="45.97481" lon="4.58133">
        <ele>546</ele>
        <time>2018-07-19T09:33:21Z</time>
      </trkpt>
      <trkpt lat="45.97477" lon="4.58128">
        <ele>546</ele>
        <time>2018-07-19T09:33:22Z</time>
      </trkpt>
      <trkpt lat="45.97473" lon="4.58123">
        <ele>545</ele>
        <time>2018-07-19T09:33:23Z</time>
      </trkpt>
      <trkpt lat="45.97467" lon="4.58119">
        <ele>545</ele>
        <time>2018-07-19T09:33:24Z</time>
      </trkpt>
      <trkpt lat="45.9746" lon="4.58114">
        <ele>545</ele>
        <time>2018-07-19T09:33:25Z</time>
      </trkpt>
      <trkpt lat="45.97456" lon="4.58111">
        <ele>545</ele>
        <time>2018-07-19T09:33:26Z</time>
      </trkpt>
      <trkpt lat="45.9745" lon="4.58108">
        <ele>545</ele>
        <time>2018-07-19T09:33:27Z</time>
      </trkpt>
      <trkpt lat="45.97442" lon="4.58105">
        <ele>545</ele>
        <time>2018-07-19T09:33:28Z</time>
      </trkpt>
      <trkpt lat="45.97439" lon="4.58098">
        <ele>545</ele>
        <time>2018-07-19T09:33:29Z</time>
      </trkpt>
      <trkpt lat="45.97434" lon="4.58092">
        <ele>545</ele>
        <time>2018-07-19T09:33:30Z</time>
      </trkpt>
      <trkpt lat="45.97428" lon="4.58087">
        <ele>545</ele>
        <time>2018-07-19T09:33:31Z</time>
      </trkpt>
      <trkpt lat="45.97422" lon="4.58081">
        <ele>541</ele>
        <time>2018-07-19T09:33:32Z</time>
      </trkpt>
      <trkpt lat="45.97419" lon="4.58077">
        <ele>541</ele>
        <time>2018-07-19T09:33:33Z</time>
      </trkpt>
      <trkpt lat="45.97414" lon="4.58072">
        <ele>541</ele>
        <time>2018-07-19T09:33:34Z</time>
      </trkpt>
      <trkpt lat="45.97412" lon="4.58065">
        <ele>540</ele>
        <time>2018-07-19T09:33:35Z</time>
      </trkpt>
      <trkpt lat="45.97408" lon="4.5806">
        <ele>539</ele>
        <time>2018-07-19T09:33:36Z</time>
      </trkpt>
      <trkpt lat="45.97401" lon="4.58054">
        <ele>538</ele>
        <time>2018-07-19T09:33:37Z</time>
      </trkpt>
      <trkpt lat="45.97396" lon="4.58051">
        <ele>537</ele>
        <time>2018-07-19T09:33:38Z</time>
      </trkpt>
      <trkpt lat="45.97391" lon="4.58049">
        <ele>537</ele>
        <time>2018-07-19T09:33:39Z</time>
      </trkpt>
      <trkpt lat="45.97386" lon="4.58046">
        <ele>536</ele>
        <time>2018-07-19T09:33:40Z</time>
      </trkpt>
      <trkpt lat="45.9738" lon="4.58044">
        <ele>536</ele>
        <time>2018-07-19T09:33:41Z</time>
      </trkpt>
      <trkpt lat="45.97375" lon="4.58043">
        <ele>536</ele>
        <time>2018-07-19T09:33:42Z</time>
      </trkpt>
      <trkpt lat="45.97368" lon="4.58044">
        <ele>536</ele>
        <time>2018-07-19T09:33:43Z</time>
      </trkpt>
      <trkpt lat="45.97362" lon="4.58044">
        <ele>535</ele>
        <time>2018-07-19T09:33:44Z</time>
      </trkpt>
      <trkpt lat="45.97357" lon="4.58045">
        <ele>536</ele>
        <time>2018-07-19T09:33:45Z</time>
      </trkpt>
      <trkpt lat="45.97351" lon="4.58047">
        <ele>536</ele>
        <time>2018-07-19T09:33:46Z</time>
      </trkpt>
      <trkpt lat="45.97346" lon="4.5805">
        <ele>536</ele>
        <time>2018-07-19T09:33:47Z</time>
      </trkpt>
      <trkpt lat="45.97341" lon="4.58052">
        <ele>537</ele>
        <time>2018-07-19T09:33:48Z</time>
      </trkpt>
      <trkpt lat="45.97336" lon="4.58056">
        <ele>537</ele>
        <time>2018-07-19T09:33:49Z</time>
      </trkpt>
      <trkpt lat="45.97331" lon="4.58059">
        <ele>537</ele>
        <time>2018-07-19T09:33:50Z</time>
      </trkpt>
      <trkpt lat="45.97325" lon="4.58062">
        <ele>537</ele>
        <time>2018-07-19T09:33:51Z</time>
      </trkpt>
      <trkpt lat="45.9732" lon="4.58066">
        <ele>538</ele>
        <time>2018-07-19T09:33:52Z</time>
      </trkpt>
      <trkpt lat="45.97316" lon="4.58073">
        <ele>538</ele>
        <time>2018-07-19T09:33:53Z</time>
      </trkpt>
      <trkpt lat="45.97311" lon="4.58078">
        <ele>538</ele>
        <time>2018-07-19T09:33:54Z</time>
      </trkpt>
      <trkpt lat="45.97306" lon="4.58083">
        <ele>538</ele>
        <time>2018-07-19T09:33:55Z</time>
      </trkpt>
      <trkpt lat="45.973" lon="4.58086">
        <ele>550</ele>
        <time>2018-07-19T09:33:56Z</time>
      </trkpt>
      <trkpt lat="45.97294" lon="4.5809">
        <ele>550</ele>
        <time>2018-07-19T09:33:57Z</time>
      </trkpt>
      <trkpt lat="45.97289" lon="4.58093">
        <ele>550</ele>
        <time>2018-07-19T09:33:58Z</time>
      </trkpt>
      <trkpt lat="45.97284" lon="4.58096">
        <ele>550</ele>
        <time>2018-07-19T09:33:59Z</time>
      </trkpt>
      <trkpt lat="45.97278" lon="4.58098">
        <ele>550</ele>
        <time>2018-07-19T09:34:00Z</time>
      </trkpt>
      <trkpt lat="45.9727" lon="4.58099">
        <ele>550</ele>
        <time>2018-07-19T09:34:01Z</time>
      </trkpt>
      <trkpt lat="45.97264" lon="4.58098">
        <ele>549</ele>
        <time>2018-07-19T09:34:02Z</time>
      </trkpt>
      <trkpt lat="45.97258" lon="4.58098">
        <ele>549</ele>
        <time>2018-07-19T09:34:03Z</time>
      </trkpt>
      <trkpt lat="45.97252" lon="4.58098">
        <ele>548</ele>
        <time>2018-07-19T09:34:04Z</time>
      </trkpt>
      <trkpt lat="45.97246" lon="4.58096">
        <ele>549</ele>
        <time>2018-07-19T09:34:05Z</time>
      </trkpt>
      <trkpt lat="45.97241" lon="4.58092">
        <ele>548</ele>
        <time>2018-07-19T09:34:06Z</time>
      </trkpt>
      <trkpt lat="45.97234" lon="4.58089">
        <ele>549</ele>
        <time>2018-07-19T09:34:07Z</time>
      </trkpt>
      <trkpt lat="45.9723" lon="4.58085">
        <ele>550</ele>
        <time>2018-07-19T09:34:08Z</time>
      </trkpt>
      <trkpt lat="45.97225" lon="4.58081">
        <ele>540</ele>
        <time>2018-07-19T09:34:09Z</time>
      </trkpt>
      <trkpt lat="45.97221" lon="4.58077">
        <ele>540</ele>
        <time>2018-07-19T09:34:10Z</time>
      </trkpt>
      <trkpt lat="45.97216" lon="4.58072">
        <ele>540</ele>
        <time>2018-07-19T09:34:11Z</time>
      </trkpt>
      <trkpt lat="45.97212" lon="4.58064">
        <ele>539</ele>
        <time>2018-07-19T09:34:12Z</time>
      </trkpt>
      <trkpt lat="45.97207" lon="4.58058">
        <ele>539</ele>
        <time>2018-07-19T09:34:13Z</time>
      </trkpt>
      <trkpt lat="45.97204" lon="4.58054">
        <ele>539</ele>
        <time>2018-07-19T09:34:14Z</time>
      </trkpt>
      <trkpt lat="45.97197" lon="4.58047">
        <ele>538</ele>
        <time>2018-07-19T09:34:15Z</time>
      </trkpt>
      <trkpt lat="45.97192" lon="4.58039">
        <ele>537</ele>
        <time>2018-07-19T09:34:16Z</time>
      </trkpt>
      <trkpt lat="45.97187" lon="4.58032">
        <ele>537</ele>
        <time>2018-07-19T09:34:17Z</time>
      </trkpt>
      <trkpt lat="45.97183" lon="4.58028">
        <ele>536</ele>
        <time>2018-07-19T09:34:18Z</time>
      </trkpt>
      <trkpt lat="45.97178" lon="4.58022">
        <ele>536</ele>
        <time>2018-07-19T09:34:19Z</time>
      </trkpt>
      <trkpt lat="45.97172" lon="4.58017">
        <ele>535</ele>
        <time>2018-07-19T09:34:20Z</time>
      </trkpt>
      <trkpt lat="45.97167" lon="4.58014">
        <ele>534</ele>
        <time>2018-07-19T09:34:21Z</time>
      </trkpt>
      <trkpt lat="45.9716" lon="4.5801">
        <ele>535</ele>
        <time>2018-07-19T09:34:22Z</time>
      </trkpt>
      <trkpt lat="45.97156" lon="4.58007">
        <ele>535</ele>
        <time>2018-07-19T09:34:23Z</time>
      </trkpt>
      <trkpt lat="45.97151" lon="4.58005">
        <ele>535</ele>
        <time>2018-07-19T09:34:24Z</time>
      </trkpt>
      <trkpt lat="45.97146" lon="4.58002">
        <ele>536</ele>
        <time>2018-07-19T09:34:25Z</time>
      </trkpt>
      <trkpt lat="45.97142" lon="4.58002">
        <ele>536</ele>
        <time>2018-07-19T09:34:26Z</time>
      </trkpt>
      <trkpt lat="45.97136" lon="4.57999">
        <ele>527</ele>
        <time>2018-07-19T09:34:27Z</time>
      </trkpt>
      <trkpt lat="45.9713" lon="4.57997">
        <ele>527</ele>
        <time>2018-07-19T09:34:28Z</time>
      </trkpt>
      <trkpt lat="45.97125" lon="4.57995">
        <ele>526</ele>
        <time>2018-07-19T09:34:29Z</time>
      </trkpt>
      <trkpt lat="45.97121" lon="4.57996">
        <ele>526</ele>
        <time>2018-07-19T09:34:30Z</time>
      </trkpt>
      <trkpt lat="45.97113" lon="4.57994">
        <ele>526</ele>
        <time>2018-07-19T09:34:31Z</time>
      </trkpt>
      <trkpt lat="45.97109" lon="4.57996">
        <ele>527</ele>
        <time>2018-07-19T09:34:32Z</time>
      </trkpt>
      <trkpt lat="45.97103" lon="4.57997">
        <ele>527</ele>
        <time>2018-07-19T09:34:33Z</time>
      </trkpt>
      <trkpt lat="45.97098" lon="4.57999">
        <ele>528</ele>
        <time>2018-07-19T09:34:34Z</time>
      </trkpt>
      <trkpt lat="45.9709" lon="4.58">
        <ele>529</ele>
        <time>2018-07-19T09:34:35Z</time>
      </trkpt>
      <trkpt lat="45.97088" lon="4.58007">
        <ele>533</ele>
        <time>2018-07-19T09:34:36Z</time>
      </trkpt>
      <trkpt lat="45.97084" lon="4.58012">
        <ele>533</ele>
        <time>2018-07-19T09:34:37Z</time>
      </trkpt>
      <trkpt lat="45.97079" lon="4.58017">
        <ele>531</ele>
        <time>2018-07-19T09:34:38Z</time>
      </trkpt>
      <trkpt lat="45.97075" lon="4.58022">
        <ele>531</ele>
        <time>2018-07-19T09:34:39Z</time>
      </trkpt>
      <trkpt lat="45.97071" lon="4.58029">
        <ele>531</ele>
        <time>2018-07-19T09:34:40Z</time>
      </trkpt>
      <trkpt lat="45.97066" lon="4.58036">
        <ele>532</ele>
        <time>2018-07-19T09:34:41Z</time>
      </trkpt>
      <trkpt lat="45.97063" lon="4.58043">
        <ele>533</ele>
        <time>2018-07-19T09:34:42Z</time>
      </trkpt>
      <trkpt lat="45.97059" lon="4.58049">
        <ele>533</ele>
        <time>2018-07-19T09:34:43Z</time>
      </trkpt>
      <trkpt lat="45.97054" lon="4.58054">
        <ele>533</ele>
        <time>2018-07-19T09:34:44Z</time>
      </trkpt>
      <trkpt lat="45.9705" lon="4.58058">
        <ele>533</ele>
        <time>2018-07-19T09:34:45Z</time>
      </trkpt>
      <trkpt lat="45.97047" lon="4.58065">
        <ele>534</ele>
        <time>2018-07-19T09:34:46Z</time>
      </trkpt>
      <trkpt lat="45.97043" lon="4.5807">
        <ele>533</ele>
        <time>2018-07-19T09:34:47Z</time>
      </trkpt>
      <trkpt lat="45.97038" lon="4.58074">
        <ele>533</ele>
        <time>2018-07-19T09:34:48Z</time>
      </trkpt>
      <trkpt lat="45.97034" lon="4.58082">
        <ele>533</ele>
        <time>2018-07-19T09:34:49Z</time>
      </trkpt>
      <trkpt lat="45.9703" lon="4.58087">
        <ele>544</ele>
        <time>2018-07-19T09:34:50Z</time>
      </trkpt>
      <trkpt lat="45.97026" lon="4.5809">
        <ele>543</ele>
        <time>2018-07-19T09:34:51Z</time>
      </trkpt>
      <trkpt lat="45.97021" lon="4.58094">
        <ele>543</ele>
        <time>2018-07-19T09:34:52Z</time>
      </trkpt>
      <trkpt lat="45.97017" lon="4.58098">
        <ele>543</ele>
        <time>2018-07-19T09:34:53Z</time>
      </trkpt>
      <trkpt lat="45.97013" lon="4.58102">
        <ele>543</ele>
        <time>2018-07-19T09:34:54Z</time>
      </trkpt>
      <trkpt lat="45.9701" lon="4.58106">
        <ele>543</ele>
        <time>2018-07-19T09:34:55Z</time>
      </trkpt>
      <trkpt lat="45.97005" lon="4.58112">
        <ele>544</ele>
        <time>2018-07-19T09:34:56Z</time>
      </trkpt>
      <trkpt lat="45.96998" lon="4.5811">
        <ele>542</ele>
        <time>2018-07-19T09:34:57Z</time>
      </trkpt>
      <trkpt lat="45.96993" lon="4.58115">
        <ele>543</ele>
        <time>2018-07-19T09:34:58Z</time>
      </trkpt>
      <trkpt lat="45.96986" lon="4.58114">
        <ele>543</ele>
        <time>2018-07-19T09:34:59Z</time>
      </trkpt>
      <trkpt lat="45.96979" lon="4.58112">
        <ele>543</ele>
        <time>2018-07-19T09:35:00Z</time>
      </trkpt>
      <trkpt lat="45.96974" lon="4.58112">
        <ele>544</ele>
        <time>2018-07-19T09:35:01Z</time>
      </trkpt>
      <trkpt lat="45.96968" lon="4.58107">
        <ele>543</ele>
        <time>2018-07-19T09:35:02Z</time>
      </trkpt>
      <trkpt lat="45.96963" lon="4.58106">
        <ele>543</ele>
        <time>2018-07-19T09:35:03Z</time>
      </trkpt>
      <trkpt lat="45.96958" lon="4.58098">
        <ele>543</ele>
        <time>2018-07-19T09:35:04Z</time>
      </trkpt>
      <trkpt lat="45.96951" lon="4.58091">
        <ele>543</ele>
        <time>2018-07-19T09:35:05Z</time>
      </trkpt>
      <trkpt lat="45.96946" lon="4.58084">
        <ele>542</ele>
        <time>2018-07-19T09:35:06Z</time>
      </trkpt>
      <trkpt lat="45.96941" lon="4.58078">
        <ele>532</ele>
        <time>2018-07-19T09:35:07Z</time>
      </trkpt>
      <trkpt lat="45.96937" lon="4.58071">
        <ele>532</ele>
        <time>2018-07-19T09:35:08Z</time>
      </trkpt>
      <trkpt lat="45.9693" lon="4.58063">
        <ele>531</ele>
        <time>2018-07-19T09:35:10Z</time>
      </trkpt>
      <trkpt lat="45.96924" lon="4.58056">
        <ele>530</ele>
        <time>2018-07-19T09:35:11Z</time>
      </trkpt>
      <trkpt lat="45.96918" lon="4.58046">
        <ele>529</ele>
        <time>2018-07-19T09:35:12Z</time>
      </trkpt>
      <trkpt lat="45.96911" lon="4.58042">
        <ele>530</ele>
        <time>2018-07-19T09:35:14Z</time>
      </trkpt>
      <trkpt lat="45.96906" lon="4.58035">
        <ele>529</ele>
        <time>2018-07-19T09:35:15Z</time>
      </trkpt>
      <trkpt lat="45.969" lon="4.58027">
        <ele>529</ele>
        <time>2018-07-19T09:35:16Z</time>
      </trkpt>
      <trkpt lat="45.96895" lon="4.58025">
        <ele>528</ele>
        <time>2018-07-19T09:35:17Z</time>
      </trkpt>
      <trkpt lat="45.96889" lon="4.5802">
        <ele>528</ele>
        <time>2018-07-19T09:35:18Z</time>
      </trkpt>
      <trkpt lat="45.96882" lon="4.58016">
        <ele>528</ele>
        <time>2018-07-19T09:35:19Z</time>
      </trkpt>
      <trkpt lat="45.96878" lon="4.58016">
        <ele>528</ele>
        <time>2018-07-19T09:35:20Z</time>
      </trkpt>
      <trkpt lat="45.96872" lon="4.58015">
        <ele>528</ele>
        <time>2018-07-19T09:35:21Z</time>
      </trkpt>
      <trkpt lat="45.96866" lon="4.58011">
        <ele>528</ele>
        <time>2018-07-19T09:35:22Z</time>
      </trkpt>
      <trkpt lat="45.9686" lon="4.58012">
        <ele>528</ele>
        <time>2018-07-19T09:35:23Z</time>
      </trkpt>
      <trkpt lat="45.96854" lon="4.58012">
        <ele>527</ele>
        <time>2018-07-19T09:35:24Z</time>
      </trkpt>
      <trkpt lat="45.96845" lon="4.58012">
        <ele>527</ele>
        <time>2018-07-19T09:35:25Z</time>
      </trkpt>
      <trkpt lat="45.9684" lon="4.58016">
        <ele>527</ele>
        <time>2018-07-19T09:35:26Z</time>
      </trkpt>
      <trkpt lat="45.96834" lon="4.58018">
        <ele>527</ele>
        <time>2018-07-19T09:35:27Z</time>
      </trkpt>
      <trkpt lat="45.96828" lon="4.58024">
        <ele>523</ele>
        <time>2018-07-19T09:35:28Z</time>
      </trkpt>
      <trkpt lat="45.96823" lon="4.58026">
        <ele>523</ele>
        <time>2018-07-19T09:35:29Z</time>
      </trkpt>
      <trkpt lat="45.96817" lon="4.58031">
        <ele>523</ele>
        <time>2018-07-19T09:35:30Z</time>
      </trkpt>
      <trkpt lat="45.96812" lon="4.58037">
        <ele>523</ele>
        <time>2018-07-19T09:35:31Z</time>
      </trkpt>
      <trkpt lat="45.96808" lon="4.58042">
        <ele>523</ele>
        <time>2018-07-19T09:35:32Z</time>
      </trkpt>
      <trkpt lat="45.96803" lon="4.58048">
        <ele>523</ele>
        <time>2018-07-19T09:35:33Z</time>
      </trkpt>
      <trkpt lat="45.96799" lon="4.58054">
        <ele>523</ele>
        <time>2018-07-19T09:35:34Z</time>
      </trkpt>
      <trkpt lat="45.96795" lon="4.58062">
        <ele>523</ele>
        <time>2018-07-19T09:35:35Z</time>
      </trkpt>
      <trkpt lat="45.96791" lon="4.58068">
        <ele>523</ele>
        <time>2018-07-19T09:35:36Z</time>
      </trkpt>
      <trkpt lat="45.96786" lon="4.58075">
        <ele>523</ele>
        <time>2018-07-19T09:35:37Z</time>
      </trkpt>
      <trkpt lat="45.96782" lon="4.58082">
        <ele>522</ele>
        <time>2018-07-19T09:35:38Z</time>
      </trkpt>
      <trkpt lat="45.96779" lon="4.58089">
        <ele>530</ele>
        <time>2018-07-19T09:35:39Z</time>
      </trkpt>
      <trkpt lat="45.96775" lon="4.58096">
        <ele>529</ele>
        <time>2018-07-19T09:35:40Z</time>
      </trkpt>
      <trkpt lat="45.96771" lon="4.58104">
        <ele>529</ele>
        <time>2018-07-19T09:35:41Z</time>
      </trkpt>
      <trkpt lat="45.96767" lon="4.58111">
        <ele>530</ele>
        <time>2018-07-19T09:35:42Z</time>
      </trkpt>
      <trkpt lat="45.96764" lon="4.58118">
        <ele>531</ele>
        <time>2018-07-19T09:35:43Z</time>
      </trkpt>
      <trkpt lat="45.9676" lon="4.58125">
        <ele>531</ele>
        <time>2018-07-19T09:35:44Z</time>
      </trkpt>
      <trkpt lat="45.96756" lon="4.58131">
        <ele>531</ele>
        <time>2018-07-19T09:35:45Z</time>
      </trkpt>
      <trkpt lat="45.96752" lon="4.58137">
        <ele>532</ele>
        <time>2018-07-19T09:35:46Z</time>
      </trkpt>
      <trkpt lat="45.96747" lon="4.58143">
        <ele>517</ele>
        <time>2018-07-19T09:35:47Z</time>
      </trkpt>
      <trkpt lat="45.96744" lon="4.58153">
        <ele>520</ele>
        <time>2018-07-19T09:35:48Z</time>
      </trkpt>
      <trkpt lat="45.9674" lon="4.5816">
        <ele>522</ele>
        <time>2018-07-19T09:35:49Z</time>
      </trkpt>
      <trkpt lat="45.96738" lon="4.58172">
        <ele>525</ele>
        <time>2018-07-19T09:35:50Z</time>
      </trkpt>
      <trkpt lat="45.96735" lon="4.58179">
        <ele>523</ele>
        <time>2018-07-19T09:35:51Z</time>
      </trkpt>
      <trkpt lat="45.96732" lon="4.58187">
        <ele>522</ele>
        <time>2018-07-19T09:35:52Z</time>
      </trkpt>
      <trkpt lat="45.96727" lon="4.58193">
        <ele>521</ele>
        <time>2018-07-19T09:35:53Z</time>
      </trkpt>
      <trkpt lat="45.96725" lon="4.58202">
        <ele>520</ele>
        <time>2018-07-19T09:35:54Z</time>
      </trkpt>
      <trkpt lat="45.96724" lon="4.58211">
        <ele>521</ele>
        <time>2018-07-19T09:35:55Z</time>
      </trkpt>
      <trkpt lat="45.96725" lon="4.5822">
        <ele>521</ele>
        <time>2018-07-19T09:35:56Z</time>
      </trkpt>
      <trkpt lat="45.96724" lon="4.58229">
        <ele>522</ele>
        <time>2018-07-19T09:35:57Z</time>
      </trkpt>
      <trkpt lat="45.96722" lon="4.58236">
        <ele>522</ele>
        <time>2018-07-19T09:35:58Z</time>
      </trkpt>
      <trkpt lat="45.96722" lon="4.58244">
        <ele>523</ele>
        <time>2018-07-19T09:35:59Z</time>
      </trkpt>
      <trkpt lat="45.96723" lon="4.58254">
        <ele>524</ele>
        <time>2018-07-19T09:36:00Z</time>
      </trkpt>
      <trkpt lat="45.96723" lon="4.58261">
        <ele>523</ele>
        <time>2018-07-19T09:36:01Z</time>
      </trkpt>
      <trkpt lat="45.96725" lon="4.5827">
        <ele>523</ele>
        <time>2018-07-19T09:36:02Z</time>
      </trkpt>
      <trkpt lat="45.96728" lon="4.58278">
        <ele>523</ele>
        <time>2018-07-19T09:36:03Z</time>
      </trkpt>
      <trkpt lat="45.9673" lon="4.58286">
        <ele>523</ele>
        <time>2018-07-19T09:36:04Z</time>
      </trkpt>
      <trkpt lat="45.96732" lon="4.58293">
        <ele>523</ele>
        <time>2018-07-19T09:36:05Z</time>
      </trkpt>
      <trkpt lat="45.96735" lon="4.58301">
        <ele>523</ele>
        <time>2018-07-19T09:36:06Z</time>
      </trkpt>
      <trkpt lat="45.96737" lon="4.58309">
        <ele>524</ele>
        <time>2018-07-19T09:36:07Z</time>
      </trkpt>
      <trkpt lat="45.96739" lon="4.58316">
        <ele>526</ele>
        <time>2018-07-19T09:36:08Z</time>
      </trkpt>
      <trkpt lat="45.96744" lon="4.58323">
        <ele>529</ele>
        <time>2018-07-19T09:36:09Z</time>
      </trkpt>
      <trkpt lat="45.96743" lon="4.58332">
        <ele>531</ele>
        <time>2018-07-19T09:36:10Z</time>
      </trkpt>
      <trkpt lat="45.96745" lon="4.5834">
        <ele>529</ele>
        <time>2018-07-19T09:36:11Z</time>
      </trkpt>
      <trkpt lat="45.96746" lon="4.58348">
        <ele>526</ele>
        <time>2018-07-19T09:36:12Z</time>
      </trkpt>
      <trkpt lat="45.96747" lon="4.58357">
        <ele>524</ele>
        <time>2018-07-19T09:36:13Z</time>
      </trkpt>
      <trkpt lat="45.96749" lon="4.58365">
        <ele>523</ele>
        <time>2018-07-19T09:36:14Z</time>
      </trkpt>
      <trkpt lat="45.96751" lon="4.58374">
        <ele>545</ele>
        <time>2018-07-19T09:36:15Z</time>
      </trkpt>
      <trkpt lat="45.96751" lon="4.58383">
        <ele>545</ele>
        <time>2018-07-19T09:36:16Z</time>
      </trkpt>
      <trkpt lat="45.96753" lon="4.5839">
        <ele>543</ele>
        <time>2018-07-19T09:36:17Z</time>
      </trkpt>
      <trkpt lat="45.96754" lon="4.584">
        <ele>541</ele>
        <time>2018-07-19T09:36:18Z</time>
      </trkpt>
      <trkpt lat="45.96755" lon="4.58408">
        <ele>537</ele>
        <time>2018-07-19T09:36:19Z</time>
      </trkpt>
      <trkpt lat="45.96754" lon="4.58416">
        <ele>533</ele>
        <time>2018-07-19T09:36:20Z</time>
      </trkpt>
      <trkpt lat="45.96755" lon="4.58424">
        <ele>536</ele>
        <time>2018-07-19T09:36:21Z</time>
      </trkpt>
      <trkpt lat="45.96756" lon="4.5843">
        <ele>539</ele>
        <time>2018-07-19T09:36:22Z</time>
      </trkpt>
      <trkpt lat="45.96755" lon="4.58437">
        <ele>542</ele>
        <time>2018-07-19T09:36:23Z</time>
      </trkpt>
      <trkpt lat="45.96754" lon="4.58445">
        <ele>543</ele>
        <time>2018-07-19T09:36:24Z</time>
      </trkpt>
      <trkpt lat="45.96751" lon="4.58451">
        <ele>544</ele>
        <time>2018-07-19T09:36:25Z</time>
      </trkpt>
      <trkpt lat="45.96749" lon="4.58459">
        <ele>525</ele>
        <time>2018-07-19T09:36:26Z</time>
      </trkpt>
      <trkpt lat="45.96746" lon="4.58464">
        <ele>526</ele>
        <time>2018-07-19T09:36:27Z</time>
      </trkpt>
      <trkpt lat="45.96745" lon="4.58471">
        <ele>526</ele>
        <time>2018-07-19T09:36:28Z</time>
      </trkpt>
      <trkpt lat="45.96743" lon="4.58479">
        <ele>527</ele>
        <time>2018-07-19T09:36:29Z</time>
      </trkpt>
      <trkpt lat="45.96742" lon="4.58489">
        <ele>529</ele>
        <time>2018-07-19T09:36:30Z</time>
      </trkpt>
      <trkpt lat="45.96741" lon="4.58497">
        <ele>531</ele>
        <time>2018-07-19T09:36:31Z</time>
      </trkpt>
      <trkpt lat="45.96739" lon="4.58503">
        <ele>535</ele>
        <time>2018-07-19T09:36:32Z</time>
      </trkpt>
      <trkpt lat="45.96734" lon="4.58511">
        <ele>535</ele>
        <time>2018-07-19T09:36:33Z</time>
      </trkpt>
      <trkpt lat="45.96728" lon="4.58515">
        <ele>534</ele>
        <time>2018-07-19T09:36:34Z</time>
      </trkpt>
      <trkpt lat="45.96725" lon="4.58522">
        <ele>535</ele>
        <time>2018-07-19T09:36:35Z</time>
      </trkpt>
      <trkpt lat="45.96722" lon="4.58529">
        <ele>535</ele>
        <time>2018-07-19T09:36:36Z</time>
      </trkpt>
      <trkpt lat="45.96715" lon="4.5853">
        <ele>534</ele>
        <time>2018-07-19T09:36:37Z</time>
      </trkpt>
      <trkpt lat="45.96708" lon="4.58531">
        <ele>534</ele>
        <time>2018-07-19T09:36:38Z</time>
      </trkpt>
      <trkpt lat="45.96704" lon="4.58535">
        <ele>534</ele>
        <time>2018-07-19T09:36:39Z</time>
      </trkpt>
      <trkpt lat="45.96697" lon="4.58538">
        <ele>534</ele>
        <time>2018-07-19T09:36:40Z</time>
      </trkpt>
      <trkpt lat="45.96692" lon="4.58541">
        <ele>534</ele>
        <time>2018-07-19T09:36:41Z</time>
      </trkpt>
      <trkpt lat="45.96686" lon="4.5854">
        <ele>533</ele>
        <time>2018-07-19T09:36:42Z</time>
      </trkpt>
      <trkpt lat="45.9668" lon="4.58539">
        <ele>533</ele>
        <time>2018-07-19T09:36:43Z</time>
      </trkpt>
      <trkpt lat="45.96675" lon="4.5854">
        <ele>533</ele>
        <time>2018-07-19T09:36:44Z</time>
      </trkpt>
      <trkpt lat="45.96669" lon="4.58535">
        <ele>531</ele>
        <time>2018-07-19T09:36:45Z</time>
      </trkpt>
      <trkpt lat="45.96665" lon="4.58532">
        <ele>533</ele>
        <time>2018-07-19T09:36:46Z</time>
      </trkpt>
      <trkpt lat="45.9666" lon="4.58526">
        <ele>531</ele>
        <time>2018-07-19T09:36:47Z</time>
      </trkpt>
      <trkpt lat="45.96653" lon="4.5852">
        <ele>531</ele>
        <time>2018-07-19T09:36:49Z</time>
      </trkpt>
      <trkpt lat="45.9665" lon="4.58515">
        <ele>530</ele>
        <time>2018-07-19T09:36:50Z</time>
      </trkpt>
      <trkpt lat="45.96646" lon="4.5851">
        <ele>530</ele>
        <time>2018-07-19T09:36:51Z</time>
      </trkpt>
      <trkpt lat="45.96642" lon="4.58506">
        <ele>530</ele>
        <time>2018-07-19T09:36:52Z</time>
      </trkpt>
      <trkpt lat="45.9664" lon="4.58499">
        <ele>519</ele>
        <time>2018-07-19T09:36:53Z</time>
      </trkpt>
      <trkpt lat="45.96636" lon="4.58493">
        <ele>519</ele>
        <time>2018-07-19T09:36:54Z</time>
      </trkpt>
      <trkpt lat="45.96632" lon="4.58492">
        <ele>520</ele>
        <time>2018-07-19T09:36:55Z</time>
      </trkpt>
      <trkpt lat="45.96627" lon="4.58486">
        <ele>520</ele>
        <time>2018-07-19T09:36:56Z</time>
      </trkpt>
      <trkpt lat="45.9662" lon="4.58478">
        <ele>520</ele>
        <time>2018-07-19T09:36:58Z</time>
      </trkpt>
      <trkpt lat="45.96616" lon="4.58474">
        <ele>520</ele>
        <time>2018-07-19T09:36:59Z</time>
      </trkpt>
      <trkpt lat="45.96612" lon="4.58473">
        <ele>521</ele>
        <time>2018-07-19T09:37:00Z</time>
      </trkpt>
      <trkpt lat="45.96607" lon="4.58468">
        <ele>520</ele>
        <time>2018-07-19T09:37:01Z</time>
      </trkpt>
      <trkpt lat="45.966" lon="4.5846">
        <ele>520</ele>
        <time>2018-07-19T09:37:03Z</time>
      </trkpt>
      <trkpt lat="45.96596" lon="4.58459">
        <ele>520</ele>
        <time>2018-07-19T09:37:04Z</time>
      </trkpt>
      <trkpt lat="45.96591" lon="4.58453">
        <ele>519</ele>
        <time>2018-07-19T09:37:05Z</time>
      </trkpt>
      <trkpt lat="45.96588" lon="4.58448">
        <ele>518</ele>
        <time>2018-07-19T09:37:06Z</time>
      </trkpt>
      <trkpt lat="45.96583" lon="4.58448">
        <ele>527</ele>
        <time>2018-07-19T09:37:07Z</time>
      </trkpt>
      <trkpt lat="45.96578" lon="4.58443">
        <ele>526</ele>
        <time>2018-07-19T09:37:08Z</time>
      </trkpt>
      <trkpt lat="45.96574" lon="4.58438">
        <ele>525</ele>
        <time>2018-07-19T09:37:09Z</time>
      </trkpt>
      <trkpt lat="45.9657" lon="4.58434">
        <ele>524</ele>
        <time>2018-07-19T09:37:10Z</time>
      </trkpt>
      <trkpt lat="45.96563" lon="4.58434">
        <ele>525</ele>
        <time>2018-07-19T09:37:11Z</time>
      </trkpt>
      <trkpt lat="45.9656" lon="4.58429">
        <ele>525</ele>
        <time>2018-07-19T09:37:12Z</time>
      </trkpt>
      <trkpt lat="45.96553" lon="4.58425">
        <ele>526</ele>
        <time>2018-07-19T09:37:13Z</time>
      </trkpt>
      <trkpt lat="45.96549" lon="4.58423">
        <ele>527</ele>
        <time>2018-07-19T09:37:14Z</time>
      </trkpt>
      <trkpt lat="45.96545" lon="4.58421">
        <ele>527</ele>
        <time>2018-07-19T09:37:15Z</time>
      </trkpt>
      <trkpt lat="45.96539" lon="4.58419">
        <ele>528</ele>
        <time>2018-07-19T09:37:16Z</time>
      </trkpt>
      <trkpt lat="45.96534" lon="4.58415">
        <ele>515</ele>
        <time>2018-07-19T09:37:17Z</time>
      </trkpt>
      <trkpt lat="45.96528" lon="4.58413">
        <ele>516</ele>
        <time>2018-07-19T09:37:18Z</time>
      </trkpt>
      <trkpt lat="45.96523" lon="4.58411">
        <ele>517</ele>
        <time>2018-07-19T09:37:19Z</time>
      </trkpt>
      <trkpt lat="45.96518" lon="4.58408">
        <ele>518</ele>
        <time>2018-07-19T09:37:20Z</time>
      </trkpt>
      <trkpt lat="45.96509" lon="4.58406">
        <ele>520</ele>
        <time>2018-07-19T09:37:22Z</time>
      </trkpt>
      <trkpt lat="45.96503" lon="4.58405">
        <ele>520</ele>
        <time>2018-07-19T09:37:23Z</time>
      </trkpt>
      <trkpt lat="45.96498" lon="4.58404">
        <ele>520</ele>
        <time>2018-07-19T09:37:24Z</time>
      </trkpt>
      <trkpt lat="45.96494" lon="4.58407">
        <ele>521</ele>
        <time>2018-07-19T09:37:25Z</time>
      </trkpt>
      <trkpt lat="45.96489" lon="4.58407">
        <ele>519</ele>
        <time>2018-07-19T09:37:26Z</time>
      </trkpt>
      <trkpt lat="45.96485" lon="4.58409">
        <ele>519</ele>
        <time>2018-07-19T09:37:27Z</time>
      </trkpt>
      <trkpt lat="45.96476" lon="4.58413">
        <ele>517</ele>
        <time>2018-07-19T09:37:29Z</time>
      </trkpt>
      <trkpt lat="45.96475" lon="4.58417">
        <ele>517</ele>
        <time>2018-07-19T09:37:30Z</time>
      </trkpt>
      <trkpt lat="45.96467" lon="4.58423">
        <ele>528</ele>
        <time>2018-07-19T09:37:32Z</time>
      </trkpt>
      <trkpt lat="45.96463" lon="4.58429">
        <ele>528</ele>
        <time>2018-07-19T09:37:33Z</time>
      </trkpt>
      <trkpt lat="45.96459" lon="4.58436">
        <ele>528</ele>
        <time>2018-07-19T09:37:34Z</time>
      </trkpt>
      <trkpt lat="45.96452" lon="4.58439">
        <ele>527</ele>
        <time>2018-07-19T09:37:35Z</time>
      </trkpt>
      <trkpt lat="45.96447" lon="4.58442">
        <ele>527</ele>
        <time>2018-07-19T09:37:36Z</time>
      </trkpt>
      <trkpt lat="45.96444" lon="4.58448">
        <ele>528</ele>
        <time>2018-07-19T09:37:37Z</time>
      </trkpt>
      <trkpt lat="45.96439" lon="4.58453">
        <ele>528</ele>
        <time>2018-07-19T09:37:38Z</time>
      </trkpt>
      <trkpt lat="45.96436" lon="4.58457">
        <ele>529</ele>
        <time>2018-07-19T09:37:39Z</time>
      </trkpt>
      <trkpt lat="45.96431" lon="4.58461">
        <ele>529</ele>
        <time>2018-07-19T09:37:40Z</time>
      </trkpt>
      <trkpt lat="45.96428" lon="4.5847">
        <ele>530</ele>
        <time>2018-07-19T09:37:41Z</time>
      </trkpt>
      <trkpt lat="45.96424" lon="4.58474">
        <ele>531</ele>
        <time>2018-07-19T09:37:42Z</time>
      </trkpt>
      <trkpt lat="45.9642" lon="4.58478">
        <ele>531</ele>
        <time>2018-07-19T09:37:43Z</time>
      </trkpt>
      <trkpt lat="45.96418" lon="4.58486">
        <ele>532</ele>
        <time>2018-07-19T09:37:44Z</time>
      </trkpt>
      <trkpt lat="45.96413" lon="4.5849">
        <ele>527</ele>
        <time>2018-07-19T09:37:45Z</time>
      </trkpt>
      <trkpt lat="45.96409" lon="4.58493">
        <ele>526</ele>
        <time>2018-07-19T09:37:46Z</time>
      </trkpt>
      <trkpt lat="45.96404" lon="4.58496">
        <ele>525</ele>
        <time>2018-07-19T09:37:47Z</time>
      </trkpt>
      <trkpt lat="45.964" lon="4.58499">
        <ele>523</ele>
        <time>2018-07-19T09:37:48Z</time>
      </trkpt>
      <trkpt lat="45.96396" lon="4.58503">
        <ele>533</ele>
        <time>2018-07-19T09:37:49Z</time>
      </trkpt>
      <trkpt lat="45.96392" lon="4.58507">
        <ele>532</ele>
        <time>2018-07-19T09:37:50Z</time>
      </trkpt>
      <trkpt lat="45.96386" lon="4.5851">
        <ele>532</ele>
        <time>2018-07-19T09:37:51Z</time>
      </trkpt>
      <trkpt lat="45.96382" lon="4.58514">
        <ele>531</ele>
        <time>2018-07-19T09:37:52Z</time>
      </trkpt>
      <trkpt lat="45.96379" lon="4.58521">
        <ele>532</ele>
        <time>2018-07-19T09:37:53Z</time>
      </trkpt>
      <trkpt lat="45.96372" lon="4.58524">
        <ele>531</ele>
        <time>2018-07-19T09:37:54Z</time>
      </trkpt>
      <trkpt lat="45.96366" lon="4.58528">
        <ele>530</ele>
        <time>2018-07-19T09:37:55Z</time>
      </trkpt>
      <trkpt lat="45.96362" lon="4.58534">
        <ele>531</ele>
        <time>2018-07-19T09:37:56Z</time>
      </trkpt>
      <trkpt lat="45.96355" lon="4.58537">
        <ele>531</ele>
        <time>2018-07-19T09:37:57Z</time>
      </trkpt>
      <trkpt lat="45.9635" lon="4.5854">
        <ele>531</ele>
        <time>2018-07-19T09:37:58Z</time>
      </trkpt>
      <trkpt lat="45.96344" lon="4.58542">
        <ele>531</ele>
        <time>2018-07-19T09:37:59Z</time>
      </trkpt>
      <trkpt lat="45.96337" lon="4.58543">
        <ele>530</ele>
        <time>2018-07-19T09:38:00Z</time>
      </trkpt>
      <trkpt lat="45.96331" lon="4.58544">
        <ele>527</ele>
        <time>2018-07-19T09:38:01Z</time>
      </trkpt>
      <trkpt lat="45.96325" lon="4.58543">
        <ele>527</ele>
        <time>2018-07-19T09:38:02Z</time>
      </trkpt>
      <trkpt lat="45.9632" lon="4.58543">
        <ele>527</ele>
        <time>2018-07-19T09:38:03Z</time>
      </trkpt>
      <trkpt lat="45.96315" lon="4.58543">
        <ele>527</ele>
        <time>2018-07-19T09:38:04Z</time>
      </trkpt>
      <trkpt lat="45.9631" lon="4.58541">
        <ele>527</ele>
        <time>2018-07-19T09:38:05Z</time>
      </trkpt>
      <trkpt lat="45.96304" lon="4.58534">
        <ele>526</ele>
        <time>2018-07-19T09:38:06Z</time>
      </trkpt>
      <trkpt lat="45.96298" lon="4.58533">
        <ele>526</ele>
        <time>2018-07-19T09:38:07Z</time>
      </trkpt>
      <trkpt lat="45.96292" lon="4.58529">
        <ele>526</ele>
        <time>2018-07-19T09:38:08Z</time>
      </trkpt>
      <trkpt lat="45.96286" lon="4.58525">
        <ele>525</ele>
        <time>2018-07-19T09:38:09Z</time>
      </trkpt>
      <trkpt lat="45.96281" lon="4.58524">
        <ele>525</ele>
        <time>2018-07-19T09:38:10Z</time>
      </trkpt>
      <trkpt lat="45.96276" lon="4.58522">
        <ele>525</ele>
        <time>2018-07-19T09:38:11Z</time>
      </trkpt>
      <trkpt lat="45.96271" lon="4.58521">
        <ele>525</ele>
        <time>2018-07-19T09:38:12Z</time>
      </trkpt>
      <trkpt lat="45.96266" lon="4.58516">
        <ele>524</ele>
        <time>2018-07-19T09:38:13Z</time>
      </trkpt>
      <trkpt lat="45.96258" lon="4.58517">
        <ele>524</ele>
        <time>2018-07-19T09:38:15Z</time>
      </trkpt>
      <trkpt lat="45.96254" lon="4.58515">
        <ele>523</ele>
        <time>2018-07-19T09:38:16Z</time>
      </trkpt>
      <trkpt lat="45.96248" lon="4.58512">
        <ele>521</ele>
        <time>2018-07-19T09:38:17Z</time>
      </trkpt>
      <trkpt lat="45.96243" lon="4.58509">
        <ele>521</ele>
        <time>2018-07-19T09:38:18Z</time>
      </trkpt>
      <trkpt lat="45.96238" lon="4.5851">
        <ele>522</ele>
        <time>2018-07-19T09:38:19Z</time>
      </trkpt>
      <trkpt lat="45.96233" lon="4.58509">
        <ele>522</ele>
        <time>2018-07-19T09:38:20Z</time>
      </trkpt>
      <trkpt lat="45.96229" lon="4.5851">
        <ele>522</ele>
        <time>2018-07-19T09:38:21Z</time>
      </trkpt>
      <trkpt lat="45.96224" lon="4.58511">
        <ele>522</ele>
        <time>2018-07-19T09:38:22Z</time>
      </trkpt>
      <trkpt lat="45.96219" lon="4.58513">
        <ele>523</ele>
        <time>2018-07-19T09:38:23Z</time>
      </trkpt>
      <trkpt lat="45.96213" lon="4.58515">
        <ele>522</ele>
        <time>2018-07-19T09:38:24Z</time>
      </trkpt>
      <trkpt lat="45.96207" lon="4.58518">
        <ele>522</ele>
        <time>2018-07-19T09:38:25Z</time>
      </trkpt>
      <trkpt lat="45.962" lon="4.58519">
        <ele>522</ele>
        <time>2018-07-19T09:38:26Z</time>
      </trkpt>
      <trkpt lat="45.96195" lon="4.58523">
        <ele>522</ele>
        <time>2018-07-19T09:38:27Z</time>
      </trkpt>
      <trkpt lat="45.96188" lon="4.58528">
        <ele>522</ele>
        <time>2018-07-19T09:38:28Z</time>
      </trkpt>
      <trkpt lat="45.96184" lon="4.58534">
        <ele>523</ele>
        <time>2018-07-19T09:38:29Z</time>
      </trkpt>
      <trkpt lat="45.96179" lon="4.58539">
        <ele>523</ele>
        <time>2018-07-19T09:38:30Z</time>
      </trkpt>
      <trkpt lat="45.96174" lon="4.58543">
        <ele>524</ele>
        <time>2018-07-19T09:38:31Z</time>
      </trkpt>
      <trkpt lat="45.96171" lon="4.5855">
        <ele>525</ele>
        <time>2018-07-19T09:38:32Z</time>
      </trkpt>
      <trkpt lat="45.96167" lon="4.58558">
        <ele>527</ele>
        <time>2018-07-19T09:38:33Z</time>
      </trkpt>
      <trkpt lat="45.96162" lon="4.58565">
        <ele>520</ele>
        <time>2018-07-19T09:38:34Z</time>
      </trkpt>
      <trkpt lat="45.96158" lon="4.58573">
        <ele>523</ele>
        <time>2018-07-19T09:38:35Z</time>
      </trkpt>
      <trkpt lat="45.96153" lon="4.58578">
        <ele>522</ele>
        <time>2018-07-19T09:38:36Z</time>
      </trkpt>
      <trkpt lat="45.96149" lon="4.58585">
        <ele>531</ele>
        <time>2018-07-19T09:38:37Z</time>
      </trkpt>
      <trkpt lat="45.96145" lon="4.58592">
        <ele>532</ele>
        <time>2018-07-19T09:38:38Z</time>
      </trkpt>
      <trkpt lat="45.96141" lon="4.586">
        <ele>532</ele>
        <time>2018-07-19T09:38:39Z</time>
      </trkpt>
      <trkpt lat="45.96136" lon="4.58605">
        <ele>532</ele>
        <time>2018-07-19T09:38:40Z</time>
      </trkpt>
      <trkpt lat="45.96133" lon="4.58611">
        <ele>532</ele>
        <time>2018-07-19T09:38:41Z</time>
      </trkpt>
      <trkpt lat="45.96128" lon="4.58616">
        <ele>532</ele>
        <time>2018-07-19T09:38:42Z</time>
      </trkpt>
      <trkpt lat="45.96123" lon="4.58619">
        <ele>532</ele>
        <time>2018-07-19T09:38:43Z</time>
      </trkpt>
      <trkpt lat="45.96117" lon="4.58623">
        <ele>532</ele>
        <time>2018-07-19T09:38:44Z</time>
      </trkpt>
      <trkpt lat="45.96113" lon="4.58625">
        <ele>532</ele>
        <time>2018-07-19T09:38:45Z</time>
      </trkpt>
      <trkpt lat="45.96107" lon="4.58629">
        <ele>532</ele>
        <time>2018-07-19T09:38:46Z</time>
      </trkpt>
      <trkpt lat="45.96101" lon="4.58634">
        <ele>532</ele>
        <time>2018-07-19T09:38:47Z</time>
      </trkpt>
      <trkpt lat="45.96096" lon="4.58634">
        <ele>532</ele>
        <time>2018-07-19T09:38:48Z</time>
      </trkpt>
      <trkpt lat="45.9609" lon="4.58632">
        <ele>531</ele>
        <time>2018-07-19T09:38:49Z</time>
      </trkpt>
      <trkpt lat="45.96087" lon="4.58637">
        <ele>532</ele>
        <time>2018-07-19T09:38:50Z</time>
      </trkpt>
      <trkpt lat="45.96079" lon="4.58639">
        <ele>529</ele>
        <time>2018-07-19T09:38:52Z</time>
      </trkpt>
      <trkpt lat="45.96073" lon="4.58636">
        <ele>528</ele>
        <time>2018-07-19T09:38:53Z</time>
      </trkpt>
      <trkpt lat="45.96069" lon="4.58634">
        <ele>528</ele>
        <time>2018-07-19T09:38:54Z</time>
      </trkpt>
      <trkpt lat="45.96063" lon="4.5863">
        <ele>527</ele>
        <time>2018-07-19T09:38:55Z</time>
      </trkpt>
      <trkpt lat="45.96058" lon="4.58626">
        <ele>527</ele>
        <time>2018-07-19T09:38:56Z</time>
      </trkpt>
      <trkpt lat="45.96054" lon="4.58625">
        <ele>527</ele>
        <time>2018-07-19T09:38:57Z</time>
      </trkpt>
      <trkpt lat="45.96047" lon="4.58619">
        <ele>526</ele>
        <time>2018-07-19T09:38:58Z</time>
      </trkpt>
      <trkpt lat="45.96041" lon="4.58616">
        <ele>526</ele>
        <time>2018-07-19T09:38:59Z</time>
      </trkpt>
      <trkpt lat="45.96034" lon="4.58613">
        <ele>526</ele>
        <time>2018-07-19T09:39:00Z</time>
      </trkpt>
      <trkpt lat="45.96029" lon="4.58609">
        <ele>526</ele>
        <time>2018-07-19T09:39:01Z</time>
      </trkpt>
      <trkpt lat="45.96023" lon="4.58605">
        <ele>525</ele>
        <time>2018-07-19T09:39:02Z</time>
      </trkpt>
      <trkpt lat="45.96018" lon="4.58601">
        <ele>525</ele>
        <time>2018-07-19T09:39:03Z</time>
      </trkpt>
      <trkpt lat="45.96012" lon="4.58597">
        <ele>524</ele>
        <time>2018-07-19T09:39:04Z</time>
      </trkpt>
      <trkpt lat="45.96009" lon="4.58596">
        <ele>523</ele>
        <time>2018-07-19T09:39:05Z</time>
      </trkpt>
      <trkpt lat="45.96004" lon="4.58594">
        <ele>523</ele>
        <time>2018-07-19T09:39:06Z</time>
      </trkpt>
      <trkpt lat="45.95998" lon="4.5859">
        <ele>522</ele>
        <time>2018-07-19T09:39:07Z</time>
      </trkpt>
      <trkpt lat="45.95995" lon="4.58588">
        <ele>522</ele>
        <time>2018-07-19T09:39:08Z</time>
      </trkpt>
      <trkpt lat="45.95989" lon="4.58584">
        <ele>522</ele>
        <time>2018-07-19T09:39:09Z</time>
      </trkpt>
      <trkpt lat="45.95983" lon="4.58587">
        <ele>523</ele>
        <time>2018-07-19T09:39:11Z</time>
      </trkpt>
      <trkpt lat="45.95979" lon="4.58584">
        <ele>523</ele>
        <time>2018-07-19T09:39:12Z</time>
      </trkpt>
      <trkpt lat="45.95972" lon="4.58582">
        <ele>515</ele>
        <time>2018-07-19T09:39:13Z</time>
      </trkpt>
      <trkpt lat="45.95968" lon="4.58583">
        <ele>514</ele>
        <time>2018-07-19T09:39:14Z</time>
      </trkpt>
      <trkpt lat="45.9596" lon="4.58582">
        <ele>514</ele>
        <time>2018-07-19T09:39:16Z</time>
      </trkpt>
      <trkpt lat="45.95955" lon="4.58583">
        <ele>514</ele>
        <time>2018-07-19T09:39:17Z</time>
      </trkpt>
      <trkpt lat="45.95948" lon="4.58589">
        <ele>523</ele>
        <time>2018-07-19T09:39:19Z</time>
      </trkpt>
      <trkpt lat="45.95942" lon="4.5859">
        <ele>523</ele>
        <time>2018-07-19T09:39:20Z</time>
      </trkpt>
      <trkpt lat="45.95938" lon="4.58595">
        <ele>523</ele>
        <time>2018-07-19T09:39:21Z</time>
      </trkpt>
      <trkpt lat="45.95935" lon="4.58601">
        <ele>523</ele>
        <time>2018-07-19T09:39:22Z</time>
      </trkpt>
      <trkpt lat="45.95929" lon="4.58608">
        <ele>523</ele>
        <time>2018-07-19T09:39:24.558Z</time>
      </trkpt>
      <trkpt lat="45.95926" lon="4.58611">
        <ele>524</ele>
        <time>2018-07-19T09:39:25Z</time>
      </trkpt>
      <trkpt lat="45.95921" lon="4.5862">
        <ele>525</ele>
        <time>2018-07-19T09:39:27Z</time>
      </trkpt>
      <trkpt lat="45.95919" lon="4.58626">
        <ele>526</ele>
        <time>2018-07-19T09:39:28Z</time>
      </trkpt>
      <trkpt lat="45.95912" lon="4.58634">
        <ele>517</ele>
        <time>2018-07-19T09:39:30Z</time>
      </trkpt>
      <trkpt lat="45.95909" lon="4.58638">
        <ele>517</ele>
        <time>2018-07-19T09:39:31Z</time>
      </trkpt>
      <trkpt lat="45.95906" lon="4.58647">
        <ele>519</ele>
        <time>2018-07-19T09:39:33Z</time>
      </trkpt>
      <trkpt lat="45.95902" lon="4.58653">
        <ele>520</ele>
        <time>2018-07-19T09:39:34Z</time>
      </trkpt>
      <trkpt lat="45.95901" lon="4.5866">
        <ele>521</ele>
        <time>2018-07-19T09:39:35Z</time>
      </trkpt>
      <trkpt lat="45.95898" lon="4.58667">
        <ele>520</ele>
        <time>2018-07-19T09:39:36Z</time>
      </trkpt>
      <trkpt lat="45.95895" lon="4.58672">
        <ele>528</ele>
        <time>2018-07-19T09:39:37Z</time>
      </trkpt>
      <trkpt lat="45.95892" lon="4.58676">
        <ele>527</ele>
        <time>2018-07-19T09:39:38Z</time>
      </trkpt>
      <trkpt lat="45.9589" lon="4.58682">
        <ele>527</ele>
        <time>2018-07-19T09:39:39Z</time>
      </trkpt>
      <trkpt lat="45.95887" lon="4.5869">
        <ele>527</ele>
        <time>2018-07-19T09:39:40Z</time>
      </trkpt>
      <trkpt lat="45.95883" lon="4.58694">
        <ele>527</ele>
        <time>2018-07-19T09:39:41Z</time>
      </trkpt>
      <trkpt lat="45.95879" lon="4.58699">
        <ele>527</ele>
        <time>2018-07-19T09:39:42Z</time>
      </trkpt>
      <trkpt lat="45.95875" lon="4.58703">
        <ele>527</ele>
        <time>2018-07-19T09:39:43Z</time>
      </trkpt>
      <trkpt lat="45.95871" lon="4.58709">
        <ele>527</ele>
        <time>2018-07-19T09:39:44Z</time>
      </trkpt>
      <trkpt lat="45.95866" lon="4.58719">
        <ele>527</ele>
        <time>2018-07-19T09:39:46Z</time>
      </trkpt>
      <trkpt lat="45.95864" lon="4.58725">
        <ele>528</ele>
        <time>2018-07-19T09:39:47Z</time>
      </trkpt>
      <trkpt lat="45.95856" lon="4.5873">
        <ele>527</ele>
        <time>2018-07-19T09:39:49Z</time>
      </trkpt>
      <trkpt lat="45.95855" lon="4.58736">
        <ele>527</ele>
        <time>2018-07-19T09:39:50Z</time>
      </trkpt>
      <trkpt lat="45.95847" lon="4.58743">
        <ele>526</ele>
        <time>2018-07-19T09:39:52Z</time>
      </trkpt>
      <trkpt lat="45.95842" lon="4.58747">
        <ele>525</ele>
        <time>2018-07-19T09:39:53Z</time>
      </trkpt>
      <trkpt lat="45.95836" lon="4.58749">
        <ele>524</ele>
        <time>2018-07-19T09:39:54Z</time>
      </trkpt>
      <trkpt lat="45.9583" lon="4.58752">
        <ele>524</ele>
        <time>2018-07-19T09:39:55Z</time>
      </trkpt>
      <trkpt lat="45.95825" lon="4.58755">
        <ele>525</ele>
        <time>2018-07-19T09:39:56Z</time>
      </trkpt>
      <trkpt lat="45.95821" lon="4.58757">
        <ele>525</ele>
        <time>2018-07-19T09:39:57Z</time>
      </trkpt>
      <trkpt lat="45.95816" lon="4.58761">
        <ele>525</ele>
        <time>2018-07-19T09:39:58Z</time>
      </trkpt>
      <trkpt lat="45.95812" lon="4.58765">
        <ele>525</ele>
        <time>2018-07-19T09:39:59Z</time>
      </trkpt>
      <trkpt lat="45.95808" lon="4.5877">
        <ele>525</ele>
        <time>2018-07-19T09:40:00Z</time>
      </trkpt>
      <trkpt lat="45.95801" lon="4.58773">
        <ele>525</ele>
        <time>2018-07-19T09:40:01Z</time>
      </trkpt>
      <trkpt lat="45.95796" lon="4.58776">
        <ele>525</ele>
        <time>2018-07-19T09:40:02Z</time>
      </trkpt>
      <trkpt lat="45.95791" lon="4.58778">
        <ele>525</ele>
        <time>2018-07-19T09:40:03Z</time>
      </trkpt>
      <trkpt lat="45.95787" lon="4.58784">
        <ele>525</ele>
        <time>2018-07-19T09:40:04Z</time>
      </trkpt>
      <trkpt lat="45.95783" lon="4.58788">
        <ele>525</ele>
        <time>2018-07-19T09:40:05Z</time>
      </trkpt>
      <trkpt lat="45.95779" lon="4.58793">
        <ele>525</ele>
        <time>2018-07-19T09:40:06Z</time>
      </trkpt>
      <trkpt lat="45.95774" lon="4.588">
        <ele>526</ele>
        <time>2018-07-19T09:40:07Z</time>
      </trkpt>
      <trkpt lat="45.95768" lon="4.58805">
        <ele>526</ele>
        <time>2018-07-19T09:40:08Z</time>
      </trkpt>
      <trkpt lat="45.95762" lon="4.58807">
        <ele>526</ele>
        <time>2018-07-19T09:40:09Z</time>
      </trkpt>
      <trkpt lat="45.95755" lon="4.58813">
        <ele>526</ele>
        <time>2018-07-19T09:40:10Z</time>
      </trkpt>
      <trkpt lat="45.95743" lon="4.58809">
        <ele>519</ele>
        <time>2018-07-19T09:40:11Z</time>
      </trkpt>
      <trkpt lat="45.95738" lon="4.58807">
        <ele>519</ele>
        <time>2018-07-19T09:40:12.564Z</time>
      </trkpt>
      <trkpt lat="45.9573" lon="4.58804">
        <ele>517</ele>
        <time>2018-07-19T09:40:13Z</time>
      </trkpt>
      <trkpt lat="45.95731" lon="4.58809">
        <ele>518</ele>
        <time>2018-07-19T09:40:14Z</time>
      </trkpt>
      <trkpt lat="45.95726" lon="4.58817">
        <ele>518</ele>
        <time>2018-07-19T09:40:15Z</time>
      </trkpt>
      <trkpt lat="45.95722" lon="4.58828">
        <ele>519</ele>
        <time>2018-07-19T09:40:16Z</time>
      </trkpt>
      <trkpt lat="45.95715" lon="4.58833">
        <ele>518</ele>
        <time>2018-07-19T09:40:17Z</time>
      </trkpt>
      <trkpt lat="45.9571" lon="4.58838">
        <ele>530</ele>
        <time>2018-07-19T09:40:18Z</time>
      </trkpt>
      <trkpt lat="45.95702" lon="4.58843">
        <ele>529</ele>
        <time>2018-07-19T09:40:19Z</time>
      </trkpt>
      <trkpt lat="45.95695" lon="4.58847">
        <ele>529</ele>
        <time>2018-07-19T09:40:20Z</time>
      </trkpt>
      <trkpt lat="45.9569" lon="4.5885">
        <ele>528</ele>
        <time>2018-07-19T09:40:21Z</time>
      </trkpt>
      <trkpt lat="45.95682" lon="4.58852">
        <ele>527</ele>
        <time>2018-07-19T09:40:22Z</time>
      </trkpt>
      <trkpt lat="45.95676" lon="4.58854">
        <ele>527</ele>
        <time>2018-07-19T09:40:23Z</time>
      </trkpt>
      <trkpt lat="45.95669" lon="4.58858">
        <ele>528</ele>
        <time>2018-07-19T09:40:24Z</time>
      </trkpt>
      <trkpt lat="45.95664" lon="4.58859">
        <ele>524</ele>
        <time>2018-07-19T09:40:25Z</time>
      </trkpt>
      <trkpt lat="45.95657" lon="4.5886">
        <ele>524</ele>
        <time>2018-07-19T09:40:26Z</time>
      </trkpt>
      <trkpt lat="45.95652" lon="4.58862">
        <ele>525</ele>
        <time>2018-07-19T09:40:27Z</time>
      </trkpt>
      <trkpt lat="45.95646" lon="4.58862">
        <ele>525</ele>
        <time>2018-07-19T09:40:28Z</time>
      </trkpt>
      <trkpt lat="45.95641" lon="4.58863">
        <ele>525</ele>
        <time>2018-07-19T09:40:29Z</time>
      </trkpt>
      <trkpt lat="45.95637" lon="4.58864">
        <ele>526</ele>
        <time>2018-07-19T09:40:30Z</time>
      </trkpt>
      <trkpt lat="45.95631" lon="4.58865">
        <ele>526</ele>
        <time>2018-07-19T09:40:31Z</time>
      </trkpt>
      <trkpt lat="45.95625" lon="4.58866">
        <ele>526</ele>
        <time>2018-07-19T09:40:32Z</time>
      </trkpt>
      <trkpt lat="45.95621" lon="4.58868">
        <ele>526</ele>
        <time>2018-07-19T09:40:33Z</time>
      </trkpt>
      <trkpt lat="45.95617" lon="4.58869">
        <ele>526</ele>
        <time>2018-07-19T09:40:34Z</time>
      </trkpt>
      <trkpt lat="45.95612" lon="4.58869">
        <ele>526</ele>
        <time>2018-07-19T09:40:35Z</time>
      </trkpt>
      <trkpt lat="45.95608" lon="4.5887">
        <ele>526</ele>
        <time>2018-07-19T09:40:36Z</time>
      </trkpt>
      <trkpt lat="45.95602" lon="4.5887">
        <ele>526</ele>
        <time>2018-07-19T09:40:37Z</time>
      </trkpt>
      <trkpt lat="45.95598" lon="4.5887">
        <ele>526</ele>
        <time>2018-07-19T09:40:38Z</time>
      </trkpt>
      <trkpt lat="45.95592" lon="4.58869">
        <ele>526</ele>
        <time>2018-07-19T09:40:39Z</time>
      </trkpt>
      <trkpt lat="45.95587" lon="4.58869">
        <ele>525</ele>
        <time>2018-07-19T09:40:40Z</time>
      </trkpt>
      <trkpt lat="45.95581" lon="4.58867">
        <ele>526</ele>
        <time>2018-07-19T09:40:41Z</time>
      </trkpt>
      <trkpt lat="45.95575" lon="4.58868">
        <ele>526</ele>
        <time>2018-07-19T09:40:42Z</time>
      </trkpt>
      <trkpt lat="45.9557" lon="4.58866">
        <ele>526</ele>
        <time>2018-07-19T09:40:43Z</time>
      </trkpt>
      <trkpt lat="45.95564" lon="4.58866">
        <ele>527</ele>
        <time>2018-07-19T09:40:44Z</time>
      </trkpt>
      <trkpt lat="45.95559" lon="4.58865">
        <ele>527</ele>
        <time>2018-07-19T09:40:45Z</time>
      </trkpt>
      <trkpt lat="45.95555" lon="4.58865">
        <ele>527</ele>
        <time>2018-07-19T09:40:46Z</time>
      </trkpt>
      <trkpt lat="45.95549" lon="4.58863">
        <ele>527</ele>
        <time>2018-07-19T09:40:47Z</time>
      </trkpt>
      <trkpt lat="45.9554" lon="4.58858">
        <ele>527</ele>
        <time>2018-07-19T09:40:49Z</time>
      </trkpt>
      <trkpt lat="45.95536" lon="4.58854">
        <ele>527</ele>
        <time>2018-07-19T09:40:50Z</time>
      </trkpt>
      <trkpt lat="45.95532" lon="4.58851">
        <ele>527</ele>
        <time>2018-07-19T09:40:51Z</time>
      </trkpt>
      <trkpt lat="45.95528" lon="4.58847">
        <ele>527</ele>
        <time>2018-07-19T09:40:52Z</time>
      </trkpt>
      <trkpt lat="45.95523" lon="4.5884">
        <ele>527</ele>
        <time>2018-07-19T09:40:53Z</time>
      </trkpt>
      <trkpt lat="45.95519" lon="4.58833">
        <ele>521</ele>
        <time>2018-07-19T09:40:54Z</time>
      </trkpt>
      <trkpt lat="45.95516" lon="4.58827">
        <ele>522</ele>
        <time>2018-07-19T09:40:55Z</time>
      </trkpt>
      <trkpt lat="45.95512" lon="4.58821">
        <ele>522</ele>
        <time>2018-07-19T09:40:56Z</time>
      </trkpt>
      <trkpt lat="45.95509" lon="4.58813">
        <ele>521</ele>
        <time>2018-07-19T09:40:57Z</time>
      </trkpt>
      <trkpt lat="45.95506" lon="4.58807">
        <ele>520</ele>
        <time>2018-07-19T09:40:58Z</time>
      </trkpt>
      <trkpt lat="45.95504" lon="4.588">
        <ele>520</ele>
        <time>2018-07-19T09:40:59Z</time>
      </trkpt>
      <trkpt lat="45.955" lon="4.58793">
        <ele>519</ele>
        <time>2018-07-19T09:41:00Z</time>
      </trkpt>
      <trkpt lat="45.95498" lon="4.58784">
        <ele>527</ele>
        <time>2018-07-19T09:41:01Z</time>
      </trkpt>
      <trkpt lat="45.95496" lon="4.58776">
        <ele>526</ele>
        <time>2018-07-19T09:41:02Z</time>
      </trkpt>
      <trkpt lat="45.95495" lon="4.58766">
        <ele>525</ele>
        <time>2018-07-19T09:41:03Z</time>
      </trkpt>
      <trkpt lat="45.95493" lon="4.58758">
        <ele>524</ele>
        <time>2018-07-19T09:41:04Z</time>
      </trkpt>
      <trkpt lat="45.95491" lon="4.58749">
        <ele>522</ele>
        <time>2018-07-19T09:41:05Z</time>
      </trkpt>
      <trkpt lat="45.95491" lon="4.58744">
        <ele>522</ele>
        <time>2018-07-19T09:41:06Z</time>
      </trkpt>
      <trkpt lat="45.95492" lon="4.58737">
        <ele>523</ele>
        <time>2018-07-19T09:41:07Z</time>
      </trkpt>
      <trkpt lat="45.95496" lon="4.58731">
        <ele>523</ele>
        <time>2018-07-19T09:41:08Z</time>
      </trkpt>
      <trkpt lat="45.95495" lon="4.58724">
        <ele>523</ele>
        <time>2018-07-19T09:41:09Z</time>
      </trkpt>
      <trkpt lat="45.95496" lon="4.58718">
        <ele>523</ele>
        <time>2018-07-19T09:41:10Z</time>
      </trkpt>
      <trkpt lat="45.95496" lon="4.5871">
        <ele>523</ele>
        <time>2018-07-19T09:41:11Z</time>
      </trkpt>
      <trkpt lat="45.95496" lon="4.58703">
        <ele>523</ele>
        <time>2018-07-19T09:41:12Z</time>
      </trkpt>
      <trkpt lat="45.95493" lon="4.58694">
        <ele>522</ele>
        <time>2018-07-19T09:41:13Z</time>
      </trkpt>
      <trkpt lat="45.95493" lon="4.58686">
        <ele>521</ele>
        <time>2018-07-19T09:41:14Z</time>
      </trkpt>
      <trkpt lat="45.95493" lon="4.5868">
        <ele>520</ele>
        <time>2018-07-19T09:41:15Z</time>
      </trkpt>
      <trkpt lat="45.95494" lon="4.58673">
        <ele>518</ele>
        <time>2018-07-19T09:41:16Z</time>
      </trkpt>
      <trkpt lat="45.95495" lon="4.58667">
        <ele>517</ele>
        <time>2018-07-19T09:41:17Z</time>
      </trkpt>
      <trkpt lat="45.95494" lon="4.5866">
        <ele>518</ele>
        <time>2018-07-19T09:41:18Z</time>
      </trkpt>
      <trkpt lat="45.95493" lon="4.58653">
        <ele>519</ele>
        <time>2018-07-19T09:41:19Z</time>
      </trkpt>
      <trkpt lat="45.95489" lon="4.58643">
        <ele>520</ele>
        <time>2018-07-19T09:41:20Z</time>
      </trkpt>
      <trkpt lat="45.95489" lon="4.58636">
        <ele>520</ele>
        <time>2018-07-19T09:41:21Z</time>
      </trkpt>
      <trkpt lat="45.95487" lon="4.58629">
        <ele>521</ele>
        <time>2018-07-19T09:41:22Z</time>
      </trkpt>
      <trkpt lat="45.95486" lon="4.58623">
        <ele>521</ele>
        <time>2018-07-19T09:41:23Z</time>
      </trkpt>
      <trkpt lat="45.95482" lon="4.58614">
        <ele>520</ele>
        <time>2018-07-19T09:41:24Z</time>
      </trkpt>
      <trkpt lat="45.95479" lon="4.58607">
        <ele>520</ele>
        <time>2018-07-19T09:41:25Z</time>
      </trkpt>
      <trkpt lat="45.95477" lon="4.58599">
        <ele>520</ele>
        <time>2018-07-19T09:41:26Z</time>
      </trkpt>
      <trkpt lat="45.95474" lon="4.58593">
        <ele>520</ele>
        <time>2018-07-19T09:41:27Z</time>
      </trkpt>
      <trkpt lat="45.95473" lon="4.58585">
        <ele>520</ele>
        <time>2018-07-19T09:41:28Z</time>
      </trkpt>
      <trkpt lat="45.95472" lon="4.5858">
        <ele>518</ele>
        <time>2018-07-19T09:41:29Z</time>
      </trkpt>
      <trkpt lat="45.95471" lon="4.58572">
        <ele>518</ele>
        <time>2018-07-19T09:41:30Z</time>
      </trkpt>
      <trkpt lat="45.95469" lon="4.58565">
        <ele>518</ele>
        <time>2018-07-19T09:41:31Z</time>
      </trkpt>
      <trkpt lat="45.95465" lon="4.58559">
        <ele>519</ele>
        <time>2018-07-19T09:41:32Z</time>
      </trkpt>
      <trkpt lat="45.9546" lon="4.58552">
        <ele>519</ele>
        <time>2018-07-19T09:41:33Z</time>
      </trkpt>
      <trkpt lat="45.95454" lon="4.58545">
        <ele>520</ele>
        <time>2018-07-19T09:41:34Z</time>
      </trkpt>
      <trkpt lat="45.95451" lon="4.58534">
        <ele>520</ele>
        <time>2018-07-19T09:41:36Z</time>
      </trkpt>
      <trkpt lat="45.95449" lon="4.5853">
        <ele>520</ele>
        <time>2018-07-19T09:41:37Z</time>
      </trkpt>
      <trkpt lat="45.95443" lon="4.58525">
        <ele>521</ele>
        <time>2018-07-19T09:41:38Z</time>
      </trkpt>
      <trkpt lat="45.95437" lon="4.58518">
        <ele>522</ele>
        <time>2018-07-19T09:41:39Z</time>
      </trkpt>
      <trkpt lat="45.95435" lon="4.58512">
        <ele>522</ele>
        <time>2018-07-19T09:41:40Z</time>
      </trkpt>
      <trkpt lat="45.95432" lon="4.58506">
        <ele>523</ele>
        <time>2018-07-19T09:41:41Z</time>
      </trkpt>
      <trkpt lat="45.9543" lon="4.58501">
        <ele>524</ele>
        <time>2018-07-19T09:41:42Z</time>
      </trkpt>
      <trkpt lat="45.95425" lon="4.58494">
        <ele>521</ele>
        <time>2018-07-19T09:41:43Z</time>
      </trkpt>
      <trkpt lat="45.95422" lon="4.58489">
        <ele>520</ele>
        <time>2018-07-19T09:41:44Z</time>
      </trkpt>
      <trkpt lat="45.95418" lon="4.58485">
        <ele>518</ele>
        <time>2018-07-19T09:41:45Z</time>
      </trkpt>
      <trkpt lat="45.95412" lon="4.58479">
        <ele>525</ele>
        <time>2018-07-19T09:41:46Z</time>
      </trkpt>
      <trkpt lat="45.95408" lon="4.58475">
        <ele>525</ele>
        <time>2018-07-19T09:41:47Z</time>
      </trkpt>
      <trkpt lat="45.95404" lon="4.5847">
        <ele>524</ele>
        <time>2018-07-19T09:41:48Z</time>
      </trkpt>
      <trkpt lat="45.95399" lon="4.58465">
        <ele>524</ele>
        <time>2018-07-19T09:41:49Z</time>
      </trkpt>
      <trkpt lat="45.95394" lon="4.58462">
        <ele>524</ele>
        <time>2018-07-19T09:41:50Z</time>
      </trkpt>
      <trkpt lat="45.9539" lon="4.58459">
        <ele>524</ele>
        <time>2018-07-19T09:41:51Z</time>
      </trkpt>
      <trkpt lat="45.95386" lon="4.58454">
        <ele>524</ele>
        <time>2018-07-19T09:41:52Z</time>
      </trkpt>
      <trkpt lat="45.95383" lon="4.58449">
        <ele>524</ele>
        <time>2018-07-19T09:41:53Z</time>
      </trkpt>
      <trkpt lat="45.95379" lon="4.58445">
        <ele>524</ele>
        <time>2018-07-19T09:41:54Z</time>
      </trkpt>
      <trkpt lat="45.95375" lon="4.5844">
        <ele>523</ele>
        <time>2018-07-19T09:41:55Z</time>
      </trkpt>
      <trkpt lat="45.95374" lon="4.58434">
        <ele>523</ele>
        <time>2018-07-19T09:41:56Z</time>
      </trkpt>
      <trkpt lat="45.9537" lon="4.58429">
        <ele>523</ele>
        <time>2018-07-19T09:41:57Z</time>
      </trkpt>
      <trkpt lat="45.95362" lon="4.58422">
        <ele>524</ele>
        <time>2018-07-19T09:41:59Z</time>
      </trkpt>
      <trkpt lat="45.95358" lon="4.58417">
        <ele>524</ele>
        <time>2018-07-19T09:42:00Z</time>
      </trkpt>
      <trkpt lat="45.95354" lon="4.58414">
        <ele>518</ele>
        <time>2018-07-19T09:42:01Z</time>
      </trkpt>
      <trkpt lat="45.95349" lon="4.5841">
        <ele>519</ele>
        <time>2018-07-19T09:42:02Z</time>
      </trkpt>
      <trkpt lat="45.95343" lon="4.58406">
        <ele>519</ele>
        <time>2018-07-19T09:42:03Z</time>
      </trkpt>
      <trkpt lat="45.9534" lon="4.58403">
        <ele>519</ele>
        <time>2018-07-19T09:42:04Z</time>
      </trkpt>
      <trkpt lat="45.95336" lon="4.584">
        <ele>519</ele>
        <time>2018-07-19T09:42:05Z</time>
      </trkpt>
      <trkpt lat="45.95332" lon="4.58396">
        <ele>523</ele>
        <time>2018-07-19T09:42:06Z</time>
      </trkpt>
      <trkpt lat="45.95327" lon="4.58389">
        <ele>523</ele>
        <time>2018-07-19T09:42:08Z</time>
      </trkpt>
      <trkpt lat="45.95323" lon="4.58386">
        <ele>523</ele>
        <time>2018-07-19T09:42:09Z</time>
      </trkpt>
      <trkpt lat="45.9532" lon="4.58384">
        <ele>523</ele>
        <time>2018-07-19T09:42:10Z</time>
      </trkpt>
      <trkpt lat="45.95315" lon="4.58379">
        <ele>522</ele>
        <time>2018-07-19T09:42:11Z</time>
      </trkpt>
      <trkpt lat="45.95311" lon="4.58375">
        <ele>522</ele>
        <time>2018-07-19T09:42:12Z</time>
      </trkpt>
      <trkpt lat="45.95302" lon="4.58371">
        <ele>522</ele>
        <time>2018-07-19T09:42:13Z</time>
      </trkpt>
      <trkpt lat="45.95298" lon="4.5837">
        <ele>522</ele>
        <time>2018-07-19T09:42:14Z</time>
      </trkpt>
      <trkpt lat="45.95292" lon="4.58365">
        <ele>522</ele>
        <time>2018-07-19T09:42:15Z</time>
      </trkpt>
      <trkpt lat="45.95288" lon="4.58362">
        <ele>522</ele>
        <time>2018-07-19T09:42:16Z</time>
      </trkpt>
      <trkpt lat="45.95283" lon="4.58358">
        <ele>522</ele>
        <time>2018-07-19T09:42:17Z</time>
      </trkpt>
      <trkpt lat="45.95278" lon="4.58355">
        <ele>522</ele>
        <time>2018-07-19T09:42:18Z</time>
      </trkpt>
      <trkpt lat="45.95273" lon="4.58356">
        <ele>522</ele>
        <time>2018-07-19T09:42:19Z</time>
      </trkpt>
      <trkpt lat="45.95266" lon="4.58355">
        <ele>522</ele>
        <time>2018-07-19T09:42:20Z</time>
      </trkpt>
      <trkpt lat="45.95263" lon="4.58353">
        <ele>522</ele>
        <time>2018-07-19T09:42:21Z</time>
      </trkpt>
      <trkpt lat="45.95257" lon="4.58351">
        <ele>522</ele>
        <time>2018-07-19T09:42:22Z</time>
      </trkpt>
      <trkpt lat="45.95253" lon="4.58349">
        <ele>522</ele>
        <time>2018-07-19T09:42:23Z</time>
      </trkpt>
      <trkpt lat="45.95248" lon="4.58347">
        <ele>525</ele>
        <time>2018-07-19T09:42:24Z</time>
      </trkpt>
      <trkpt lat="45.95245" lon="4.58346">
        <ele>525</ele>
        <time>2018-07-19T09:42:25Z</time>
      </trkpt>
      <trkpt lat="45.9524" lon="4.58344">
        <ele>525</ele>
        <time>2018-07-19T09:42:26Z</time>
      </trkpt>
      <trkpt lat="45.95236" lon="4.58341">
        <ele>525</ele>
        <time>2018-07-19T09:42:27Z</time>
      </trkpt>
      <trkpt lat="45.95227" lon="4.58338">
        <ele>526</ele>
        <time>2018-07-19T09:42:29Z</time>
      </trkpt>
      <trkpt lat="45.95223" lon="4.58336">
        <ele>527</ele>
        <time>2018-07-19T09:42:30Z</time>
      </trkpt>
      <trkpt lat="45.95218" lon="4.58335">
        <ele>527</ele>
        <time>2018-07-19T09:42:31Z</time>
      </trkpt>
      <trkpt lat="45.95213" lon="4.58332">
        <ele>519</ele>
        <time>2018-07-19T09:42:32Z</time>
      </trkpt>
      <trkpt lat="45.95208" lon="4.5833">
        <ele>519</ele>
        <time>2018-07-19T09:42:33Z</time>
      </trkpt>
      <trkpt lat="45.95203" lon="4.58329">
        <ele>519</ele>
        <time>2018-07-19T09:42:34Z</time>
      </trkpt>
      <trkpt lat="45.95198" lon="4.58327">
        <ele>520</ele>
        <time>2018-07-19T09:42:35Z</time>
      </trkpt>
      <trkpt lat="45.95193" lon="4.58325">
        <ele>520</ele>
        <time>2018-07-19T09:42:36Z</time>
      </trkpt>
      <trkpt lat="45.95187" lon="4.58326">
        <ele>521</ele>
        <time>2018-07-19T09:42:37Z</time>
      </trkpt>
      <trkpt lat="45.95181" lon="4.58325">
        <ele>522</ele>
        <time>2018-07-19T09:42:38Z</time>
      </trkpt>
      <trkpt lat="45.95177" lon="4.58323">
        <ele>522</ele>
        <time>2018-07-19T09:42:39Z</time>
      </trkpt>
      <trkpt lat="45.95171" lon="4.58324">
        <ele>523</ele>
        <time>2018-07-19T09:42:40Z</time>
      </trkpt>
      <trkpt lat="45.95166" lon="4.58323">
        <ele>524</ele>
        <time>2018-07-19T09:42:41Z</time>
      </trkpt>
      <trkpt lat="45.95161" lon="4.58319">
        <ele>523</ele>
        <time>2018-07-19T09:42:42Z</time>
      </trkpt>
      <trkpt lat="45.95156" lon="4.58319">
        <ele>523</ele>
        <time>2018-07-19T09:42:43Z</time>
      </trkpt>
      <trkpt lat="45.9515" lon="4.58315">
        <ele>522</ele>
        <time>2018-07-19T09:42:44Z</time>
      </trkpt>
      <trkpt lat="45.95145" lon="4.58315">
        <ele>522</ele>
        <time>2018-07-19T09:42:45Z</time>
      </trkpt>
      <trkpt lat="45.95139" lon="4.58314">
        <ele>522</ele>
        <time>2018-07-19T09:42:46Z</time>
      </trkpt>
      <trkpt lat="45.95131" lon="4.58313">
        <ele>521</ele>
        <time>2018-07-19T09:42:48Z</time>
      </trkpt>
      <trkpt lat="45.95126" lon="4.58313">
        <ele>521</ele>
        <time>2018-07-19T09:42:49Z</time>
      </trkpt>
      <trkpt lat="45.95121" lon="4.58312">
        <ele>521</ele>
        <time>2018-07-19T09:42:50Z</time>
      </trkpt>
      <trkpt lat="45.95117" lon="4.58314">
        <ele>521</ele>
        <time>2018-07-19T09:42:51Z</time>
      </trkpt>
      <trkpt lat="45.95112" lon="4.58313">
        <ele>522</ele>
        <time>2018-07-19T09:42:52Z</time>
      </trkpt>
      <trkpt lat="45.95107" lon="4.58312">
        <ele>522</ele>
        <time>2018-07-19T09:42:53Z</time>
      </trkpt>
      <trkpt lat="45.95099" lon="4.5831">
        <ele>522</ele>
        <time>2018-07-19T09:42:55Z</time>
      </trkpt>
      <trkpt lat="45.95095" lon="4.58309">
        <ele>522</ele>
        <time>2018-07-19T09:42:56Z</time>
      </trkpt>
      <trkpt lat="45.95087" lon="4.5831">
        <ele>522</ele>
        <time>2018-07-19T09:42:58Z</time>
      </trkpt>
      <trkpt lat="45.95083" lon="4.5831">
        <ele>523</ele>
        <time>2018-07-19T09:42:59Z</time>
      </trkpt>
      <trkpt lat="45.95078" lon="4.5831">
        <ele>523</ele>
        <time>2018-07-19T09:43:00Z</time>
      </trkpt>
      <trkpt lat="45.95073" lon="4.58309">
        <ele>523</ele>
        <time>2018-07-19T09:43:01Z</time>
      </trkpt>
      <trkpt lat="45.95068" lon="4.58307">
        <ele>523</ele>
        <time>2018-07-19T09:43:02Z</time>
      </trkpt>
      <trkpt lat="45.95063" lon="4.58306">
        <ele>523</ele>
        <time>2018-07-19T09:43:03Z</time>
      </trkpt>
      <trkpt lat="45.95058" lon="4.58306">
        <ele>523</ele>
        <time>2018-07-19T09:43:04Z</time>
      </trkpt>
      <trkpt lat="45.95053" lon="4.58306">
        <ele>523</ele>
        <time>2018-07-19T09:43:05Z</time>
      </trkpt>
      <trkpt lat="45.95048" lon="4.58306">
        <ele>522</ele>
        <time>2018-07-19T09:43:06Z</time>
      </trkpt>
      <trkpt lat="45.95043" lon="4.58305">
        <ele>522</ele>
        <time>2018-07-19T09:43:07Z</time>
      </trkpt>
      <trkpt lat="45.95038" lon="4.58305">
        <ele>523</ele>
        <time>2018-07-19T09:43:08Z</time>
      </trkpt>
      <trkpt lat="45.95034" lon="4.58304">
        <ele>523</ele>
        <time>2018-07-19T09:43:09Z</time>
      </trkpt>
      <trkpt lat="45.95029" lon="4.58305">
        <ele>523</ele>
        <time>2018-07-19T09:43:10Z</time>
      </trkpt>
      <trkpt lat="45.95024" lon="4.58304">
        <ele>523</ele>
        <time>2018-07-19T09:43:11Z</time>
      </trkpt>
      <trkpt lat="45.95019" lon="4.58303">
        <ele>523</ele>
        <time>2018-07-19T09:43:12Z</time>
      </trkpt>
      <trkpt lat="45.95015" lon="4.58301">
        <ele>523</ele>
        <time>2018-07-19T09:43:13Z</time>
      </trkpt>
      <trkpt lat="45.9501" lon="4.58301">
        <ele>523</ele>
        <time>2018-07-19T09:43:14Z</time>
      </trkpt>
      <trkpt lat="45.95005" lon="4.583">
        <ele>523</ele>
        <time>2018-07-19T09:43:15Z</time>
      </trkpt>
      <trkpt lat="45.95" lon="4.583">
        <ele>523</ele>
        <time>2018-07-19T09:43:16Z</time>
      </trkpt>
      <trkpt lat="45.94996" lon="4.58298">
        <ele>523</ele>
        <time>2018-07-19T09:43:17Z</time>
      </trkpt>
      <trkpt lat="45.9499" lon="4.58298">
        <ele>523</ele>
        <time>2018-07-19T09:43:18Z</time>
      </trkpt>
      <trkpt lat="45.94987" lon="4.58295">
        <ele>523</ele>
        <time>2018-07-19T09:43:19Z</time>
      </trkpt>
      <trkpt lat="45.94981" lon="4.58298">
        <ele>523</ele>
        <time>2018-07-19T09:43:20Z</time>
      </trkpt>
      <trkpt lat="45.94976" lon="4.58299">
        <ele>524</ele>
        <time>2018-07-19T09:43:21Z</time>
      </trkpt>
      <trkpt lat="45.94968" lon="4.583">
        <ele>524</ele>
        <time>2018-07-19T09:43:23Z</time>
      </trkpt>
      <trkpt lat="45.94965" lon="4.58299">
        <ele>524</ele>
        <time>2018-07-19T09:43:24Z</time>
      </trkpt>
      <trkpt lat="45.9496" lon="4.583">
        <ele>524</ele>
        <time>2018-07-19T09:43:25Z</time>
      </trkpt>
      <trkpt lat="45.94956" lon="4.58303">
        <ele>524</ele>
        <time>2018-07-19T09:43:26Z</time>
      </trkpt>
      <trkpt lat="45.94951" lon="4.58304">
        <ele>524</ele>
        <time>2018-07-19T09:43:27Z</time>
      </trkpt>
      <trkpt lat="45.94946" lon="4.58306">
        <ele>524</ele>
        <time>2018-07-19T09:43:28Z</time>
      </trkpt>
      <trkpt lat="45.9494" lon="4.58309">
        <ele>524</ele>
        <time>2018-07-19T09:43:30Z</time>
      </trkpt>
      <trkpt lat="45.94934" lon="4.58312">
        <ele>524</ele>
        <time>2018-07-19T09:43:31Z</time>
      </trkpt>
      <trkpt lat="45.94927" lon="4.58318">
        <ele>525</ele>
        <time>2018-07-19T09:43:33Z</time>
      </trkpt>
      <trkpt lat="45.94924" lon="4.5832">
        <ele>525</ele>
        <time>2018-07-19T09:43:34Z</time>
      </trkpt>
      <trkpt lat="45.94917" lon="4.58321">
        <ele>527</ele>
        <time>2018-07-19T09:43:37Z</time>
      </trkpt>
      <trkpt lat="45.94914" lon="4.58322">
        <ele>527</ele>
        <time>2018-07-19T09:43:38Z</time>
      </trkpt>
      <trkpt lat="45.94906" lon="4.58323">
        <ele>528</ele>
        <time>2018-07-19T09:43:39Z</time>
      </trkpt>
      <trkpt lat="45.94903" lon="4.58322">
        <ele>528</ele>
        <time>2018-07-19T09:43:40Z</time>
      </trkpt>
      <trkpt lat="45.94897" lon="4.58313">
        <ele>528</ele>
        <time>2018-07-19T09:43:43Z</time>
      </trkpt>
      <trkpt lat="45.94897" lon="4.58311">
        <ele>528</ele>
        <time>2018-07-19T09:43:44Z</time>
      </trkpt>
      <trkpt lat="45.94896" lon="4.583">
        <ele>528</ele>
        <time>2018-07-19T09:43:47Z</time>
      </trkpt>
      <trkpt lat="45.94895" lon="4.58289">
        <ele>528</ele>
        <time>2018-07-19T09:43:48Z</time>
      </trkpt>
      <trkpt lat="45.94894" lon="4.58279">
        <ele>527</ele>
        <time>2018-07-19T09:43:50Z</time>
      </trkpt>
      <trkpt lat="45.94893" lon="4.58274">
        <ele>527</ele>
        <time>2018-07-19T09:43:51Z</time>
      </trkpt>
      <trkpt lat="45.94892" lon="4.58261">
        <ele>527</ele>
        <time>2018-07-19T09:43:55Z</time>
      </trkpt>
      <trkpt lat="45.94892" lon="4.58259">
        <ele>527</ele>
        <time>2018-07-19T09:43:56Z</time>
      </trkpt>
      <trkpt lat="45.94893" lon="4.58254">
        <ele>526</ele>
        <time>2018-07-19T09:43:58Z</time>
      </trkpt>
      <trkpt lat="45.94893" lon="4.58244">
        <ele>523</ele>
        <time>2018-07-19T09:43:59Z</time>
      </trkpt>
      <trkpt lat="45.9489" lon="4.58234">
        <ele>523</ele>
        <time>2018-07-19T09:44:01Z</time>
      </trkpt>
      <trkpt lat="45.94888" lon="4.58229">
        <ele>523</ele>
        <time>2018-07-19T09:44:02Z</time>
      </trkpt>
      <trkpt lat="45.94886" lon="4.58218">
        <ele>522</ele>
        <time>2018-07-19T09:44:05Z</time>
      </trkpt>
      <trkpt lat="45.94886" lon="4.58214">
        <ele>522</ele>
        <time>2018-07-19T09:44:06Z</time>
      </trkpt>
      <trkpt lat="45.94884" lon="4.58198">
        <ele>521</ele>
        <time>2018-07-19T09:44:07Z</time>
      </trkpt>
      <trkpt lat="45.94882" lon="4.58193">
        <ele>521</ele>
        <time>2018-07-19T09:44:08Z</time>
      </trkpt>
      <trkpt lat="45.94879" lon="4.58185">
        <ele>521</ele>
        <time>2018-07-19T09:44:09Z</time>
      </trkpt>
      <trkpt lat="45.94878" lon="4.58179">
        <ele>521</ele>
        <time>2018-07-19T09:44:10Z</time>
      </trkpt>
      <trkpt lat="45.94877" lon="4.58171">
        <ele>521</ele>
        <time>2018-07-19T09:44:11Z</time>
      </trkpt>
      <trkpt lat="45.94874" lon="4.58161">
        <ele>512</ele>
        <time>2018-07-19T09:44:14Z</time>
      </trkpt>
      <trkpt lat="45.94872" lon="4.58159">
        <ele>512</ele>
        <time>2018-07-19T09:44:15Z</time>
      </trkpt>
      <trkpt lat="45.94867" lon="4.5815">
        <ele>512</ele>
        <time>2018-07-19T09:44:18Z</time>
      </trkpt>
      <trkpt lat="45.94865" lon="4.58147">
        <ele>512</ele>
        <time>2018-07-19T09:44:19Z</time>
      </trkpt>
      <trkpt lat="45.94859" lon="4.58138">
        <ele>512</ele>
        <time>2018-07-19T09:44:24Z</time>
      </trkpt>
      <trkpt lat="45.94858" lon="4.58138">
        <ele>512</ele>
        <time>2018-07-19T09:44:25Z</time>
      </trkpt>
      <trkpt lat="45.94858" lon="4.58138">
        <ele>512</ele>
        <time>2018-07-19T09:44:26Z</time>
      </trkpt>
      <trkpt lat="45.94857" lon="4.58138">
        <ele>512</ele>
        <time>2018-07-19T09:44:27Z</time>
      </trkpt>
      <trkpt lat="45.94854" lon="4.58138">
        <ele>513</ele>
        <time>2018-07-19T09:44:33Z</time>
      </trkpt>
      <trkpt lat="45.94854" lon="4.58138">
        <ele>513</ele>
        <time>2018-07-19T09:44:34Z</time>
      </trkpt>
      <trkpt lat="45.94854" lon="4.58138">
        <ele>513</ele>
        <time>2018-07-19T09:44:35Z</time>
      </trkpt>
      <trkpt lat="45.94853" lon="4.58137">
        <ele>513</ele>
        <time>2018-07-19T09:50:04Z</time>
      </trkpt>
      <trkpt lat="45.94853" lon="4.58137">
        <ele>513</ele>
        <time>2018-07-19T09:50:05Z</time>
      </trkpt>
      <trkpt lat="45.94852" lon="4.58136">
        <ele>513</ele>
        <time>2018-07-19T09:51:49Z</time>
      </trkpt>
      <trkpt lat="45.94852" lon="4.58136">
        <ele>513</ele>
        <time>2018-07-19T09:51:50Z</time>
      </trkpt>
      <trkpt lat="45.94855" lon="4.58136">
        <ele>512</ele>
        <time>2018-07-19T09:57:58Z</time>
      </trkpt>
      <trkpt lat="45.94855" lon="4.58135">
        <ele>512</ele>
        <time>2018-07-19T09:57:59Z</time>
      </trkpt>
      <trkpt lat="45.94856" lon="4.58132">
        <ele>512</ele>
        <time>2018-07-19T09:58:07Z</time>
      </trkpt>
      <trkpt lat="45.94856" lon="4.58132">
        <ele>512</ele>
        <time>2018-07-19T09:58:08Z</time>
      </trkpt>
      <trkpt lat="45.94848" lon="4.58133">
        <ele>513</ele>
        <time>2018-07-19T09:58:55Z</time>
      </trkpt>
      <trkpt lat="45.94846" lon="4.58132">
        <ele>513</ele>
        <time>2018-07-19T09:58:56Z</time>
      </trkpt>
      <trkpt lat="45.9484" lon="4.5813">
        <ele>513</ele>
        <time>2018-07-19T09:58:58Z</time>
      </trkpt>
      <trkpt lat="45.94831" lon="4.58125">
        <ele>518</ele>
        <time>2018-07-19T09:58:59Z</time>
      </trkpt>
      <trkpt lat="45.94827" lon="4.58122">
        <ele>517</ele>
        <time>2018-07-19T09:59:00Z</time>
      </trkpt>
      <trkpt lat="45.94821" lon="4.58118">
        <ele>517</ele>
        <time>2018-07-19T09:59:01Z</time>
      </trkpt>
      <trkpt lat="45.94816" lon="4.5811">
        <ele>516</ele>
        <time>2018-07-19T09:59:03Z</time>
      </trkpt>
      <trkpt lat="45.9481" lon="4.58107">
        <ele>516</ele>
        <time>2018-07-19T09:59:04Z</time>
      </trkpt>
      <trkpt lat="45.94801" lon="4.58105">
        <ele>516</ele>
        <time>2018-07-19T09:59:05Z</time>
      </trkpt>
      <trkpt lat="45.94791" lon="4.58105">
        <ele>516</ele>
        <time>2018-07-19T09:59:06Z</time>
      </trkpt>
      <trkpt lat="45.94785" lon="4.58099">
        <ele>515</ele>
        <time>2018-07-19T09:59:07Z</time>
      </trkpt>
      <trkpt lat="45.94776" lon="4.58104">
        <ele>516</ele>
        <time>2018-07-19T09:59:08Z</time>
      </trkpt>
      <trkpt lat="45.94767" lon="4.58106">
        <ele>516</ele>
        <time>2018-07-19T09:59:09Z</time>
      </trkpt>
      <trkpt lat="45.94763" lon="4.58105">
        <ele>515</ele>
        <time>2018-07-19T09:59:10Z</time>
      </trkpt>
      <trkpt lat="45.94758" lon="4.58103">
        <ele>515</ele>
        <time>2018-07-19T09:59:11Z</time>
      </trkpt>
      <trkpt lat="45.94751" lon="4.58103">
        <ele>515</ele>
        <time>2018-07-19T09:59:12Z</time>
      </trkpt>
      <trkpt lat="45.94744" lon="4.58101">
        <ele>512</ele>
        <time>2018-07-19T09:59:13Z</time>
      </trkpt>
      <trkpt lat="45.94739" lon="4.58097">
        <ele>512</ele>
        <time>2018-07-19T09:59:14Z</time>
      </trkpt>
      <trkpt lat="45.94732" lon="4.58097">
        <ele>512</ele>
        <time>2018-07-19T09:59:15Z</time>
      </trkpt>
      <trkpt lat="45.94724" lon="4.58099">
        <ele>512</ele>
        <time>2018-07-19T09:59:16Z</time>
      </trkpt>
      <trkpt lat="45.94717" lon="4.581">
        <ele>512</ele>
        <time>2018-07-19T09:59:17Z</time>
      </trkpt>
      <trkpt lat="45.94708" lon="4.58101">
        <ele>511</ele>
        <time>2018-07-19T09:59:18Z</time>
      </trkpt>
      <trkpt lat="45.947" lon="4.58102">
        <ele>511</ele>
        <time>2018-07-19T09:59:19Z</time>
      </trkpt>
      <trkpt lat="45.94692" lon="4.58102">
        <ele>510</ele>
        <time>2018-07-19T09:59:20Z</time>
      </trkpt>
      <trkpt lat="45.94683" lon="4.58107">
        <ele>509</ele>
        <time>2018-07-19T09:59:21Z</time>
      </trkpt>
      <trkpt lat="45.94674" lon="4.58109">
        <ele>509</ele>
        <time>2018-07-19T09:59:22Z</time>
      </trkpt>
      <trkpt lat="45.94666" lon="4.58115">
        <ele>504</ele>
        <time>2018-07-19T09:59:23Z</time>
      </trkpt>
      <trkpt lat="45.94657" lon="4.58118">
        <ele>504</ele>
        <time>2018-07-19T09:59:24Z</time>
      </trkpt>
      <trkpt lat="45.94649" lon="4.58123">
        <ele>504</ele>
        <time>2018-07-19T09:59:25Z</time>
      </trkpt>
      <trkpt lat="45.9464" lon="4.58129">
        <ele>504</ele>
        <time>2018-07-19T09:59:26Z</time>
      </trkpt>
      <trkpt lat="45.94632" lon="4.58132">
        <ele>504</ele>
        <time>2018-07-19T09:59:27Z</time>
      </trkpt>
      <trkpt lat="45.94623" lon="4.58132">
        <ele>504</ele>
        <time>2018-07-19T09:59:28Z</time>
      </trkpt>
      <trkpt lat="45.94616" lon="4.58135">
        <ele>503</ele>
        <time>2018-07-19T09:59:29Z</time>
      </trkpt>
      <trkpt lat="45.94608" lon="4.58139">
        <ele>503</ele>
        <time>2018-07-19T09:59:30Z</time>
      </trkpt>
      <trkpt lat="45.946" lon="4.58141">
        <ele>503</ele>
        <time>2018-07-19T09:59:31Z</time>
      </trkpt>
      <trkpt lat="45.94591" lon="4.58143">
        <ele>503</ele>
        <time>2018-07-19T09:59:32Z</time>
      </trkpt>
      <trkpt lat="45.94583" lon="4.58145">
        <ele>499</ele>
        <time>2018-07-19T09:59:33Z</time>
      </trkpt>
      <trkpt lat="45.94575" lon="4.5815">
        <ele>499</ele>
        <time>2018-07-19T09:59:34Z</time>
      </trkpt>
      <trkpt lat="45.94566" lon="4.58152">
        <ele>499</ele>
        <time>2018-07-19T09:59:35Z</time>
      </trkpt>
      <trkpt lat="45.94557" lon="4.58154">
        <ele>498</ele>
        <time>2018-07-19T09:59:36Z</time>
      </trkpt>
      <trkpt lat="45.94549" lon="4.58155">
        <ele>497</ele>
        <time>2018-07-19T09:59:37Z</time>
      </trkpt>
      <trkpt lat="45.94541" lon="4.58157">
        <ele>497</ele>
        <time>2018-07-19T09:59:39.437Z</time>
      </trkpt>
      <trkpt lat="45.94531" lon="4.58159">
        <ele>496</ele>
        <time>2018-07-19T09:59:39Z</time>
      </trkpt>
      <trkpt lat="45.94522" lon="4.58159">
        <ele>496</ele>
        <time>2018-07-19T09:59:40Z</time>
      </trkpt>
      <trkpt lat="45.94513" lon="4.58158">
        <ele>496</ele>
        <time>2018-07-19T09:59:41Z</time>
      </trkpt>
      <trkpt lat="45.94505" lon="4.58159">
        <ele>496</ele>
        <time>2018-07-19T09:59:42Z</time>
      </trkpt>
      <trkpt lat="45.94496" lon="4.58156">
        <ele>494</ele>
        <time>2018-07-19T09:59:43Z</time>
      </trkpt>
      <trkpt lat="45.94488" lon="4.58155">
        <ele>493</ele>
        <time>2018-07-19T09:59:44Z</time>
      </trkpt>
      <trkpt lat="45.9448" lon="4.58156">
        <ele>493</ele>
        <time>2018-07-19T09:59:45Z</time>
      </trkpt>
      <trkpt lat="45.94472" lon="4.58154">
        <ele>492</ele>
        <time>2018-07-19T09:59:46Z</time>
      </trkpt>
      <trkpt lat="45.94464" lon="4.58152">
        <ele>492</ele>
        <time>2018-07-19T09:59:47Z</time>
      </trkpt>
      <trkpt lat="45.94456" lon="4.58148">
        <ele>492</ele>
        <time>2018-07-19T09:59:48Z</time>
      </trkpt>
      <trkpt lat="45.94448" lon="4.58142">
        <ele>491</ele>
        <time>2018-07-19T09:59:49Z</time>
      </trkpt>
      <trkpt lat="45.9444" lon="4.5814">
        <ele>491</ele>
        <time>2018-07-19T09:59:50Z</time>
      </trkpt>
      <trkpt lat="45.9443" lon="4.58135">
        <ele>491</ele>
        <time>2018-07-19T09:59:51Z</time>
      </trkpt>
      <trkpt lat="45.9442" lon="4.58132">
        <ele>491</ele>
        <time>2018-07-19T09:59:52Z</time>
      </trkpt>
      <trkpt lat="45.94413" lon="4.5813">
        <ele>489</ele>
        <time>2018-07-19T09:59:53Z</time>
      </trkpt>
      <trkpt lat="45.94404" lon="4.58125">
        <ele>488</ele>
        <time>2018-07-19T09:59:54Z</time>
      </trkpt>
      <trkpt lat="45.94394" lon="4.58119">
        <ele>488</ele>
        <time>2018-07-19T09:59:55Z</time>
      </trkpt>
      <trkpt lat="45.94386" lon="4.58117">
        <ele>488</ele>
        <time>2018-07-19T09:59:56Z</time>
      </trkpt>
      <trkpt lat="45.94377" lon="4.58113">
        <ele>487</ele>
        <time>2018-07-19T09:59:57Z</time>
      </trkpt>
      <trkpt lat="45.9437" lon="4.58118">
        <ele>488</ele>
        <time>2018-07-19T09:59:58Z</time>
      </trkpt>
      <trkpt lat="45.94359" lon="4.58109">
        <ele>487</ele>
        <time>2018-07-19T09:59:59Z</time>
      </trkpt>
      <trkpt lat="45.9435" lon="4.58103">
        <ele>486</ele>
        <time>2018-07-19T10:00:00Z</time>
      </trkpt>
      <trkpt lat="45.9434" lon="4.58097">
        <ele>485</ele>
        <time>2018-07-19T10:00:01Z</time>
      </trkpt>
      <trkpt lat="45.94329" lon="4.58097">
        <ele>483</ele>
        <time>2018-07-19T10:00:02Z</time>
      </trkpt>
      <trkpt lat="45.94319" lon="4.58093">
        <ele>483</ele>
        <time>2018-07-19T10:00:03Z</time>
      </trkpt>
      <trkpt lat="45.94309" lon="4.58092">
        <ele>484</ele>
        <time>2018-07-19T10:00:04Z</time>
      </trkpt>
      <trkpt lat="45.94299" lon="4.58088">
        <ele>483</ele>
        <time>2018-07-19T10:00:05Z</time>
      </trkpt>
      <trkpt lat="45.9429" lon="4.58086">
        <ele>483</ele>
        <time>2018-07-19T10:00:06Z</time>
      </trkpt>
      <trkpt lat="45.9428" lon="4.58084">
        <ele>482</ele>
        <time>2018-07-19T10:00:07Z</time>
      </trkpt>
      <trkpt lat="45.9427" lon="4.58081">
        <ele>477</ele>
        <time>2018-07-19T10:00:08Z</time>
      </trkpt>
      <trkpt lat="45.94261" lon="4.58079">
        <ele>477</ele>
        <time>2018-07-19T10:00:09Z</time>
      </trkpt>
      <trkpt lat="45.94252" lon="4.58077">
        <ele>478</ele>
        <time>2018-07-19T10:00:10Z</time>
      </trkpt>
      <trkpt lat="45.94243" lon="4.58072">
        <ele>475</ele>
        <time>2018-07-19T10:00:11Z</time>
      </trkpt>
      <trkpt lat="45.94234" lon="4.58069">
        <ele>475</ele>
        <time>2018-07-19T10:00:12Z</time>
      </trkpt>
      <trkpt lat="45.94226" lon="4.58067">
        <ele>474</ele>
        <time>2018-07-19T10:00:13Z</time>
      </trkpt>
      <trkpt lat="45.94215" lon="4.58059">
        <ele>473</ele>
        <time>2018-07-19T10:00:14Z</time>
      </trkpt>
      <trkpt lat="45.94206" lon="4.58053">
        <ele>472</ele>
        <time>2018-07-19T10:00:15Z</time>
      </trkpt>
      <trkpt lat="45.94194" lon="4.58048">
        <ele>472</ele>
        <time>2018-07-19T10:00:16Z</time>
      </trkpt>
      <trkpt lat="45.94184" lon="4.58042">
        <ele>471</ele>
        <time>2018-07-19T10:00:17Z</time>
      </trkpt>
      <trkpt lat="45.94179" lon="4.58033">
        <ele>471</ele>
        <time>2018-07-19T10:00:18Z</time>
      </trkpt>
      <trkpt lat="45.94171" lon="4.58026">
        <ele>470</ele>
        <time>2018-07-19T10:00:19Z</time>
      </trkpt>
      <trkpt lat="45.9416" lon="4.58019">
        <ele>468</ele>
        <time>2018-07-19T10:00:20Z</time>
      </trkpt>
      <trkpt lat="45.94146" lon="4.58013">
        <ele>468</ele>
        <time>2018-07-19T10:00:21Z</time>
      </trkpt>
      <trkpt lat="45.94137" lon="4.58003">
        <ele>467</ele>
        <time>2018-07-19T10:00:22Z</time>
      </trkpt>
      <trkpt lat="45.94127" lon="4.57997">
        <ele>463</ele>
        <time>2018-07-19T10:00:23Z</time>
      </trkpt>
      <trkpt lat="45.94118" lon="4.57985">
        <ele>463</ele>
        <time>2018-07-19T10:00:24Z</time>
      </trkpt>
      <trkpt lat="45.94108" lon="4.57977">
        <ele>462</ele>
        <time>2018-07-19T10:00:25Z</time>
      </trkpt>
      <trkpt lat="45.94097" lon="4.57968">
        <ele>462</ele>
        <time>2018-07-19T10:00:26Z</time>
      </trkpt>
      <trkpt lat="45.94088" lon="4.5796">
        <ele>461</ele>
        <time>2018-07-19T10:00:27Z</time>
      </trkpt>
      <trkpt lat="45.94079" lon="4.57952">
        <ele>461</ele>
        <time>2018-07-19T10:00:28Z</time>
      </trkpt>
      <trkpt lat="45.94069" lon="4.57943">
        <ele>460</ele>
        <time>2018-07-19T10:00:29Z</time>
      </trkpt>
      <trkpt lat="45.94058" lon="4.57934">
        <ele>460</ele>
        <time>2018-07-19T10:00:30Z</time>
      </trkpt>
      <trkpt lat="45.94049" lon="4.57927">
        <ele>460</ele>
        <time>2018-07-19T10:00:31Z</time>
      </trkpt>
      <trkpt lat="45.94039" lon="4.5792">
        <ele>460</ele>
        <time>2018-07-19T10:00:32Z</time>
      </trkpt>
      <trkpt lat="45.9403" lon="4.57913">
        <ele>456</ele>
        <time>2018-07-19T10:00:33Z</time>
      </trkpt>
      <trkpt lat="45.94019" lon="4.57906">
        <ele>456</ele>
        <time>2018-07-19T10:00:34Z</time>
      </trkpt>
      <trkpt lat="45.9401" lon="4.57903">
        <ele>456</ele>
        <time>2018-07-19T10:00:35Z</time>
      </trkpt>
      <trkpt lat="45.93999" lon="4.57898">
        <ele>455</ele>
        <time>2018-07-19T10:00:36Z</time>
      </trkpt>
      <trkpt lat="45.93989" lon="4.57894">
        <ele>454</ele>
        <time>2018-07-19T10:00:37Z</time>
      </trkpt>
      <trkpt lat="45.9398" lon="4.57891">
        <ele>454</ele>
        <time>2018-07-19T10:00:38Z</time>
      </trkpt>
      <trkpt lat="45.93969" lon="4.57888">
        <ele>453</ele>
        <time>2018-07-19T10:00:39Z</time>
      </trkpt>
      <trkpt lat="45.93959" lon="4.57885">
        <ele>453</ele>
        <time>2018-07-19T10:00:40Z</time>
      </trkpt>
      <trkpt lat="45.93949" lon="4.57883">
        <ele>452</ele>
        <time>2018-07-19T10:00:41Z</time>
      </trkpt>
      <trkpt lat="45.93939" lon="4.5788">
        <ele>452</ele>
        <time>2018-07-19T10:00:42Z</time>
      </trkpt>
      <trkpt lat="45.93929" lon="4.57879">
        <ele>452</ele>
        <time>2018-07-19T10:00:43Z</time>
      </trkpt>
      <trkpt lat="45.93919" lon="4.57879">
        <ele>452</ele>
        <time>2018-07-19T10:00:44Z</time>
      </trkpt>
      <trkpt lat="45.93908" lon="4.57878">
        <ele>448</ele>
        <time>2018-07-19T10:00:45Z</time>
      </trkpt>
      <trkpt lat="45.93898" lon="4.57879">
        <ele>448</ele>
        <time>2018-07-19T10:00:46Z</time>
      </trkpt>
      <trkpt lat="45.93888" lon="4.57879">
        <ele>448</ele>
        <time>2018-07-19T10:00:47Z</time>
      </trkpt>
      <trkpt lat="45.93877" lon="4.57881">
        <ele>447</ele>
        <time>2018-07-19T10:00:48Z</time>
      </trkpt>
      <trkpt lat="45.93866" lon="4.57881">
        <ele>447</ele>
        <time>2018-07-19T10:00:49Z</time>
      </trkpt>
      <trkpt lat="45.93855" lon="4.57882">
        <ele>447</ele>
        <time>2018-07-19T10:00:50Z</time>
      </trkpt>
      <trkpt lat="45.93845" lon="4.57885">
        <ele>447</ele>
        <time>2018-07-19T10:00:51Z</time>
      </trkpt>
      <trkpt lat="45.93834" lon="4.57887">
        <ele>447</ele>
        <time>2018-07-19T10:00:52Z</time>
      </trkpt>
      <trkpt lat="45.93823" lon="4.57888">
        <ele>443</ele>
        <time>2018-07-19T10:00:53Z</time>
      </trkpt>
      <trkpt lat="45.93812" lon="4.57888">
        <ele>443</ele>
        <time>2018-07-19T10:00:54Z</time>
      </trkpt>
      <trkpt lat="45.93801" lon="4.5789">
        <ele>442</ele>
        <time>2018-07-19T10:00:55Z</time>
      </trkpt>
      <trkpt lat="45.9379" lon="4.57891">
        <ele>442</ele>
        <time>2018-07-19T10:00:56Z</time>
      </trkpt>
      <trkpt lat="45.93778" lon="4.57893">
        <ele>442</ele>
        <time>2018-07-19T10:00:57Z</time>
      </trkpt>
      <trkpt lat="45.93768" lon="4.57894">
        <ele>441</ele>
        <time>2018-07-19T10:00:58Z</time>
      </trkpt>
      <trkpt lat="45.93756" lon="4.57895">
        <ele>441</ele>
        <time>2018-07-19T10:00:59Z</time>
      </trkpt>
      <trkpt lat="45.93745" lon="4.57894">
        <ele>437</ele>
        <time>2018-07-19T10:01:00Z</time>
      </trkpt>
      <trkpt lat="45.93735" lon="4.57897">
        <ele>437</ele>
        <time>2018-07-19T10:01:01Z</time>
      </trkpt>
      <trkpt lat="45.93724" lon="4.57899">
        <ele>436</ele>
        <time>2018-07-19T10:01:02Z</time>
      </trkpt>
      <trkpt lat="45.93713" lon="4.579">
        <ele>435</ele>
        <time>2018-07-19T10:01:03Z</time>
      </trkpt>
      <trkpt lat="45.93702" lon="4.57902">
        <ele>435</ele>
        <time>2018-07-19T10:01:04Z</time>
      </trkpt>
      <trkpt lat="45.93692" lon="4.57906">
        <ele>434</ele>
        <time>2018-07-19T10:01:05Z</time>
      </trkpt>
      <trkpt lat="45.93681" lon="4.57907">
        <ele>434</ele>
        <time>2018-07-19T10:01:06Z</time>
      </trkpt>
      <trkpt lat="45.9367" lon="4.57911">
        <ele>434</ele>
        <time>2018-07-19T10:01:07Z</time>
      </trkpt>
      <trkpt lat="45.93659" lon="4.57913">
        <ele>432</ele>
        <time>2018-07-19T10:01:08Z</time>
      </trkpt>
      <trkpt lat="45.93648" lon="4.57914">
        <ele>430</ele>
        <time>2018-07-19T10:01:09Z</time>
      </trkpt>
      <trkpt lat="45.93636" lon="4.57917">
        <ele>433</ele>
        <time>2018-07-19T10:01:10Z</time>
      </trkpt>
      <trkpt lat="45.93625" lon="4.57921">
        <ele>433</ele>
        <time>2018-07-19T10:01:11Z</time>
      </trkpt>
      <trkpt lat="45.93614" lon="4.57923">
        <ele>432</ele>
        <time>2018-07-19T10:01:12Z</time>
      </trkpt>
      <trkpt lat="45.93603" lon="4.57925">
        <ele>431</ele>
        <time>2018-07-19T10:01:13Z</time>
      </trkpt>
      <trkpt lat="45.93592" lon="4.57927">
        <ele>430</ele>
        <time>2018-07-19T10:01:14Z</time>
      </trkpt>
      <trkpt lat="45.93581" lon="4.5793">
        <ele>427</ele>
        <time>2018-07-19T10:01:15Z</time>
      </trkpt>
      <trkpt lat="45.9357" lon="4.57933">
        <ele>427</ele>
        <time>2018-07-19T10:01:16Z</time>
      </trkpt>
      <trkpt lat="45.93559" lon="4.57936">
        <ele>427</ele>
        <time>2018-07-19T10:01:17Z</time>
      </trkpt>
      <trkpt lat="45.93549" lon="4.57941">
        <ele>427</ele>
        <time>2018-07-19T10:01:18Z</time>
      </trkpt>
      <trkpt lat="45.93539" lon="4.57944">
        <ele>426</ele>
        <time>2018-07-19T10:01:19Z</time>
      </trkpt>
      <trkpt lat="45.93529" lon="4.57949">
        <ele>426</ele>
        <time>2018-07-19T10:01:20Z</time>
      </trkpt>
      <trkpt lat="45.9352" lon="4.57953">
        <ele>426</ele>
        <time>2018-07-19T10:01:21Z</time>
      </trkpt>
      <trkpt lat="45.93512" lon="4.57959">
        <ele>426</ele>
        <time>2018-07-19T10:01:22Z</time>
      </trkpt>
      <trkpt lat="45.93504" lon="4.57962">
        <ele>426</ele>
        <time>2018-07-19T10:01:23Z</time>
      </trkpt>
      <trkpt lat="45.93495" lon="4.57966">
        <ele>422</ele>
        <time>2018-07-19T10:01:24Z</time>
      </trkpt>
      <trkpt lat="45.93486" lon="4.57971">
        <ele>422</ele>
        <time>2018-07-19T10:01:25Z</time>
      </trkpt>
      <trkpt lat="45.93479" lon="4.57974">
        <ele>422</ele>
        <time>2018-07-19T10:01:26Z</time>
      </trkpt>
      <trkpt lat="45.93469" lon="4.57979">
        <ele>422</ele>
        <time>2018-07-19T10:01:27Z</time>
      </trkpt>
      <trkpt lat="45.93461" lon="4.57984">
        <ele>422</ele>
        <time>2018-07-19T10:01:28Z</time>
      </trkpt>
      <trkpt lat="45.93453" lon="4.57987">
        <ele>421</ele>
        <time>2018-07-19T10:01:29Z</time>
      </trkpt>
      <trkpt lat="45.93443" lon="4.57992">
        <ele>421</ele>
        <time>2018-07-19T10:01:30Z</time>
      </trkpt>
      <trkpt lat="45.93435" lon="4.57996">
        <ele>421</ele>
        <time>2018-07-19T10:01:31Z</time>
      </trkpt>
      <trkpt lat="45.93426" lon="4.58001">
        <ele>423</ele>
        <time>2018-07-19T10:01:32Z</time>
      </trkpt>
      <trkpt lat="45.93416" lon="4.58006">
        <ele>421</ele>
        <time>2018-07-19T10:01:33Z</time>
      </trkpt>
      <trkpt lat="45.93408" lon="4.5801">
        <ele>421</ele>
        <time>2018-07-19T10:01:34Z</time>
      </trkpt>
      <trkpt lat="45.934" lon="4.58012">
        <ele>421</ele>
        <time>2018-07-19T10:01:35Z</time>
      </trkpt>
      <trkpt lat="45.93392" lon="4.58016">
        <ele>421</ele>
        <time>2018-07-19T10:01:36Z</time>
      </trkpt>
      <trkpt lat="45.93383" lon="4.5802">
        <ele>421</ele>
        <time>2018-07-19T10:01:37Z</time>
      </trkpt>
      <trkpt lat="45.93375" lon="4.58024">
        <ele>421</ele>
        <time>2018-07-19T10:01:38Z</time>
      </trkpt>
      <trkpt lat="45.93367" lon="4.58026">
        <ele>421</ele>
        <time>2018-07-19T10:01:39Z</time>
      </trkpt>
      <trkpt lat="45.93359" lon="4.58028">
        <ele>421</ele>
        <time>2018-07-19T10:01:40Z</time>
      </trkpt>
      <trkpt lat="45.93352" lon="4.58031">
        <ele>421</ele>
        <time>2018-07-19T10:01:41Z</time>
      </trkpt>
      <trkpt lat="45.93343" lon="4.58033">
        <ele>421</ele>
        <time>2018-07-19T10:01:42Z</time>
      </trkpt>
      <trkpt lat="45.93335" lon="4.58036">
        <ele>421</ele>
        <time>2018-07-19T10:01:43Z</time>
      </trkpt>
      <trkpt lat="45.93326" lon="4.58039">
        <ele>418</ele>
        <time>2018-07-19T10:01:44Z</time>
      </trkpt>
      <trkpt lat="45.93318" lon="4.5804">
        <ele>418</ele>
        <time>2018-07-19T10:01:45Z</time>
      </trkpt>
      <trkpt lat="45.93309" lon="4.58042">
        <ele>418</ele>
        <time>2018-07-19T10:01:46Z</time>
      </trkpt>
      <trkpt lat="45.93302" lon="4.58047">
        <ele>418</ele>
        <time>2018-07-19T10:01:47Z</time>
      </trkpt>
      <trkpt lat="45.93294" lon="4.5805">
        <ele>418</ele>
        <time>2018-07-19T10:01:48Z</time>
      </trkpt>
      <trkpt lat="45.93286" lon="4.58053">
        <ele>418</ele>
        <time>2018-07-19T10:01:49Z</time>
      </trkpt>
      <trkpt lat="45.93278" lon="4.58056">
        <ele>417</ele>
        <time>2018-07-19T10:01:50Z</time>
      </trkpt>
      <trkpt lat="45.93271" lon="4.58058">
        <ele>417</ele>
        <time>2018-07-19T10:01:51Z</time>
      </trkpt>
      <trkpt lat="45.93263" lon="4.5806">
        <ele>417</ele>
        <time>2018-07-19T10:01:52Z</time>
      </trkpt>
      <trkpt lat="45.93255" lon="4.58064">
        <ele>417</ele>
        <time>2018-07-19T10:01:53Z</time>
      </trkpt>
      <trkpt lat="45.93246" lon="4.58067">
        <ele>415</ele>
        <time>2018-07-19T10:01:54Z</time>
      </trkpt>
      <trkpt lat="45.93239" lon="4.5807">
        <ele>415</ele>
        <time>2018-07-19T10:01:55Z</time>
      </trkpt>
      <trkpt lat="45.93231" lon="4.58072">
        <ele>414</ele>
        <time>2018-07-19T10:01:56Z</time>
      </trkpt>
      <trkpt lat="45.93223" lon="4.58075">
        <ele>414</ele>
        <time>2018-07-19T10:01:57Z</time>
      </trkpt>
      <trkpt lat="45.93214" lon="4.58076">
        <ele>413</ele>
        <time>2018-07-19T10:01:58Z</time>
      </trkpt>
      <trkpt lat="45.93206" lon="4.58078">
        <ele>413</ele>
        <time>2018-07-19T10:01:59Z</time>
      </trkpt>
      <trkpt lat="45.93198" lon="4.58079">
        <ele>413</ele>
        <time>2018-07-19T10:02:00Z</time>
      </trkpt>
      <trkpt lat="45.93191" lon="4.58076">
        <ele>412</ele>
        <time>2018-07-19T10:02:01Z</time>
      </trkpt>
      <trkpt lat="45.93182" lon="4.58077">
        <ele>412</ele>
        <time>2018-07-19T10:02:02Z</time>
      </trkpt>
      <trkpt lat="45.93174" lon="4.58073">
        <ele>412</ele>
        <time>2018-07-19T10:02:03Z</time>
      </trkpt>
      <trkpt lat="45.93164" lon="4.58072">
        <ele>410</ele>
        <time>2018-07-19T10:02:04Z</time>
      </trkpt>
      <trkpt lat="45.93155" lon="4.58068">
        <ele>409</ele>
        <time>2018-07-19T10:02:05Z</time>
      </trkpt>
      <trkpt lat="45.93148" lon="4.58064">
        <ele>408</ele>
        <time>2018-07-19T10:02:06Z</time>
      </trkpt>
      <trkpt lat="45.93142" lon="4.58058">
        <ele>408</ele>
        <time>2018-07-19T10:02:07Z</time>
      </trkpt>
      <trkpt lat="45.93135" lon="4.58059">
        <ele>407</ele>
        <time>2018-07-19T10:02:08Z</time>
      </trkpt>
      <trkpt lat="45.93123" lon="4.58057">
        <ele>407</ele>
        <time>2018-07-19T10:02:09Z</time>
      </trkpt>
      <trkpt lat="45.93116" lon="4.58055">
        <ele>407</ele>
        <time>2018-07-19T10:02:10Z</time>
      </trkpt>
      <trkpt lat="45.93107" lon="4.58049">
        <ele>406</ele>
        <time>2018-07-19T10:02:11Z</time>
      </trkpt>
      <trkpt lat="45.93097" lon="4.58043">
        <ele>405</ele>
        <time>2018-07-19T10:02:12Z</time>
      </trkpt>
      <trkpt lat="45.93087" lon="4.5804">
        <ele>405</ele>
        <time>2018-07-19T10:02:13Z</time>
      </trkpt>
      <trkpt lat="45.93077" lon="4.5804">
        <ele>400</ele>
        <time>2018-07-19T10:02:14Z</time>
      </trkpt>
      <trkpt lat="45.93068" lon="4.5804">
        <ele>400</ele>
        <time>2018-07-19T10:02:15Z</time>
      </trkpt>
      <trkpt lat="45.93056" lon="4.58043">
        <ele>400</ele>
        <time>2018-07-19T10:02:16Z</time>
      </trkpt>
      <trkpt lat="45.93046" lon="4.58046">
        <ele>399</ele>
        <time>2018-07-19T10:02:17Z</time>
      </trkpt>
      <trkpt lat="45.93035" lon="4.58048">
        <ele>399</ele>
        <time>2018-07-19T10:02:18Z</time>
      </trkpt>
      <trkpt lat="45.93024" lon="4.5805">
        <ele>398</ele>
        <time>2018-07-19T10:02:19Z</time>
      </trkpt>
      <trkpt lat="45.93014" lon="4.58054">
        <ele>398</ele>
        <time>2018-07-19T10:02:20Z</time>
      </trkpt>
      <trkpt lat="45.93002" lon="4.58057">
        <ele>398</ele>
        <time>2018-07-19T10:02:21Z</time>
      </trkpt>
      <trkpt lat="45.92992" lon="4.58059">
        <ele>393</ele>
        <time>2018-07-19T10:02:22Z</time>
      </trkpt>
      <trkpt lat="45.92981" lon="4.58063">
        <ele>393</ele>
        <time>2018-07-19T10:02:23Z</time>
      </trkpt>
      <trkpt lat="45.9297" lon="4.58067">
        <ele>392</ele>
        <time>2018-07-19T10:02:24Z</time>
      </trkpt>
      <trkpt lat="45.92959" lon="4.5807">
        <ele>391</ele>
        <time>2018-07-19T10:02:25Z</time>
      </trkpt>
      <trkpt lat="45.92948" lon="4.58074">
        <ele>391</ele>
        <time>2018-07-19T10:02:26Z</time>
      </trkpt>
      <trkpt lat="45.92936" lon="4.58077">
        <ele>391</ele>
        <time>2018-07-19T10:02:27Z</time>
      </trkpt>
      <trkpt lat="45.92925" lon="4.58081">
        <ele>391</ele>
        <time>2018-07-19T10:02:28Z</time>
      </trkpt>
      <trkpt lat="45.92915" lon="4.58084">
        <ele>391</ele>
        <time>2018-07-19T10:02:29Z</time>
      </trkpt>
      <trkpt lat="45.92904" lon="4.58089">
        <ele>391</ele>
        <time>2018-07-19T10:02:30Z</time>
      </trkpt>
      <trkpt lat="45.92893" lon="4.58093">
        <ele>390</ele>
        <time>2018-07-19T10:02:31Z</time>
      </trkpt>
      <trkpt lat="45.92881" lon="4.58096">
        <ele>390</ele>
        <time>2018-07-19T10:02:32Z</time>
      </trkpt>
      <trkpt lat="45.92871" lon="4.58101">
        <ele>389</ele>
        <time>2018-07-19T10:02:33Z</time>
      </trkpt>
      <trkpt lat="45.92859" lon="4.58105">
        <ele>388</ele>
        <time>2018-07-19T10:02:34Z</time>
      </trkpt>
      <trkpt lat="45.92849" lon="4.58109">
        <ele>388</ele>
        <time>2018-07-19T10:02:35Z</time>
      </trkpt>
      <trkpt lat="45.92837" lon="4.58113">
        <ele>388</ele>
        <time>2018-07-19T10:02:36Z</time>
      </trkpt>
      <trkpt lat="45.92826" lon="4.58118">
        <ele>383</ele>
        <time>2018-07-19T10:02:37Z</time>
      </trkpt>
      <trkpt lat="45.92816" lon="4.58124">
        <ele>383</ele>
        <time>2018-07-19T10:02:38Z</time>
      </trkpt>
      <trkpt lat="45.92805" lon="4.58128">
        <ele>383</ele>
        <time>2018-07-19T10:02:39Z</time>
      </trkpt>
      <trkpt lat="45.92793" lon="4.58133">
        <ele>383</ele>
        <time>2018-07-19T10:02:40Z</time>
      </trkpt>
      <trkpt lat="45.92782" lon="4.58137">
        <ele>382</ele>
        <time>2018-07-19T10:02:41Z</time>
      </trkpt>
      <trkpt lat="45.92771" lon="4.58142">
        <ele>382</ele>
        <time>2018-07-19T10:02:42Z</time>
      </trkpt>
      <trkpt lat="45.92759" lon="4.58146">
        <ele>382</ele>
        <time>2018-07-19T10:02:43Z</time>
      </trkpt>
      <trkpt lat="45.92748" lon="4.5815">
        <ele>378</ele>
        <time>2018-07-19T10:02:44Z</time>
      </trkpt>
      <trkpt lat="45.92737" lon="4.58153">
        <ele>378</ele>
        <time>2018-07-19T10:02:45Z</time>
      </trkpt>
      <trkpt lat="45.92727" lon="4.58157">
        <ele>377</ele>
        <time>2018-07-19T10:02:46Z</time>
      </trkpt>
      <trkpt lat="45.92717" lon="4.5816">
        <ele>376</ele>
        <time>2018-07-19T10:02:47Z</time>
      </trkpt>
      <trkpt lat="45.92707" lon="4.58164">
        <ele>375</ele>
        <time>2018-07-19T10:02:48Z</time>
      </trkpt>
      <trkpt lat="45.92698" lon="4.58168">
        <ele>380</ele>
        <time>2018-07-19T10:02:49Z</time>
      </trkpt>
      <trkpt lat="45.92688" lon="4.58172">
        <ele>379</ele>
        <time>2018-07-19T10:02:50Z</time>
      </trkpt>
      <trkpt lat="45.92679" lon="4.58175">
        <ele>378</ele>
        <time>2018-07-19T10:02:51Z</time>
      </trkpt>
      <trkpt lat="45.9267" lon="4.58178">
        <ele>378</ele>
        <time>2018-07-19T10:02:52Z</time>
      </trkpt>
      <trkpt lat="45.92661" lon="4.58181">
        <ele>375</ele>
        <time>2018-07-19T10:02:53Z</time>
      </trkpt>
      <trkpt lat="45.92653" lon="4.58184">
        <ele>375</ele>
        <time>2018-07-19T10:02:54Z</time>
      </trkpt>
      <trkpt lat="45.92644" lon="4.58186">
        <ele>374</ele>
        <time>2018-07-19T10:02:55Z</time>
      </trkpt>
      <trkpt lat="45.92636" lon="4.58188">
        <ele>374</ele>
        <time>2018-07-19T10:02:56Z</time>
      </trkpt>
      <trkpt lat="45.92629" lon="4.58191">
        <ele>374</ele>
        <time>2018-07-19T10:02:57Z</time>
      </trkpt>
      <trkpt lat="45.92623" lon="4.58193">
        <ele>374</ele>
        <time>2018-07-19T10:02:58Z</time>
      </trkpt>
      <trkpt lat="45.92616" lon="4.58194">
        <ele>373</ele>
        <time>2018-07-19T10:02:59Z</time>
      </trkpt>
      <trkpt lat="45.9261" lon="4.58194">
        <ele>373</ele>
        <time>2018-07-19T10:03:00Z</time>
      </trkpt>
      <trkpt lat="45.92604" lon="4.58192">
        <ele>373</ele>
        <time>2018-07-19T10:03:01Z</time>
      </trkpt>
      <trkpt lat="45.92599" lon="4.58191">
        <ele>372</ele>
        <time>2018-07-19T10:03:02Z</time>
      </trkpt>
      <trkpt lat="45.92592" lon="4.58192">
        <ele>372</ele>
        <time>2018-07-19T10:03:03Z</time>
      </trkpt>
      <trkpt lat="45.92587" lon="4.58196">
        <ele>372</ele>
        <time>2018-07-19T10:03:04Z</time>
      </trkpt>
      <trkpt lat="45.92582" lon="4.582">
        <ele>368</ele>
        <time>2018-07-19T10:03:05Z</time>
      </trkpt>
      <trkpt lat="45.92574" lon="4.58204">
        <ele>368</ele>
        <time>2018-07-19T10:03:06Z</time>
      </trkpt>
      <trkpt lat="45.92568" lon="4.58209">
        <ele>368</ele>
        <time>2018-07-19T10:03:07Z</time>
      </trkpt>
      <trkpt lat="45.9256" lon="4.58212">
        <ele>368</ele>
        <time>2018-07-19T10:03:08Z</time>
      </trkpt>
      <trkpt lat="45.92553" lon="4.58216">
        <ele>368</ele>
        <time>2018-07-19T10:03:09Z</time>
      </trkpt>
      <trkpt lat="45.92546" lon="4.5822">
        <ele>368</ele>
        <time>2018-07-19T10:03:10Z</time>
      </trkpt>
      <trkpt lat="45.92538" lon="4.58224">
        <ele>368</ele>
        <time>2018-07-19T10:03:11Z</time>
      </trkpt>
      <trkpt lat="45.92531" lon="4.58229">
        <ele>367</ele>
        <time>2018-07-19T10:03:12Z</time>
      </trkpt>
      <trkpt lat="45.92523" lon="4.58233">
        <ele>367</ele>
        <time>2018-07-19T10:03:13Z</time>
      </trkpt>
      <trkpt lat="45.92515" lon="4.58236">
        <ele>367</ele>
        <time>2018-07-19T10:03:14Z</time>
      </trkpt>
      <trkpt lat="45.92508" lon="4.58239">
        <ele>367</ele>
        <time>2018-07-19T10:03:15Z</time>
      </trkpt>
      <trkpt lat="45.925" lon="4.58242">
        <ele>365</ele>
        <time>2018-07-19T10:03:16Z</time>
      </trkpt>
      <trkpt lat="45.92493" lon="4.58246">
        <ele>365</ele>
        <time>2018-07-19T10:03:17Z</time>
      </trkpt>
      <trkpt lat="45.92485" lon="4.5825">
        <ele>367</ele>
        <time>2018-07-19T10:03:18Z</time>
      </trkpt>
      <trkpt lat="45.92477" lon="4.58254">
        <ele>367</ele>
        <time>2018-07-19T10:03:19Z</time>
      </trkpt>
      <trkpt lat="45.9247" lon="4.58259">
        <ele>366</ele>
        <time>2018-07-19T10:03:20Z</time>
      </trkpt>
      <trkpt lat="45.92463" lon="4.58265">
        <ele>366</ele>
        <time>2018-07-19T10:03:21Z</time>
      </trkpt>
      <trkpt lat="45.92455" lon="4.5827">
        <ele>365</ele>
        <time>2018-07-19T10:03:22Z</time>
      </trkpt>
      <trkpt lat="45.92448" lon="4.58277">
        <ele>365</ele>
        <time>2018-07-19T10:03:23Z</time>
      </trkpt>
      <trkpt lat="45.92442" lon="4.58282">
        <ele>365</ele>
        <time>2018-07-19T10:03:24Z</time>
      </trkpt>
      <trkpt lat="45.92436" lon="4.58287">
        <ele>365</ele>
        <time>2018-07-19T10:03:25Z</time>
      </trkpt>
      <trkpt lat="45.92431" lon="4.5829">
        <ele>365</ele>
        <time>2018-07-19T10:03:26Z</time>
      </trkpt>
      <trkpt lat="45.92424" lon="4.58297">
        <ele>365</ele>
        <time>2018-07-19T10:03:27Z</time>
      </trkpt>
      <trkpt lat="45.92418" lon="4.58304">
        <ele>365</ele>
        <time>2018-07-19T10:03:28Z</time>
      </trkpt>
      <trkpt lat="45.9241" lon="4.58311">
        <ele>362</ele>
        <time>2018-07-19T10:03:29Z</time>
      </trkpt>
      <trkpt lat="45.92404" lon="4.58316">
        <ele>362</ele>
        <time>2018-07-19T10:03:30Z</time>
      </trkpt>
      <trkpt lat="45.92398" lon="4.58323">
        <ele>363</ele>
        <time>2018-07-19T10:03:31Z</time>
      </trkpt>
      <trkpt lat="45.9239" lon="4.58326">
        <ele>362</ele>
        <time>2018-07-19T10:03:32Z</time>
      </trkpt>
      <trkpt lat="45.92384" lon="4.58332">
        <ele>362</ele>
        <time>2018-07-19T10:03:33Z</time>
      </trkpt>
      <trkpt lat="45.92377" lon="4.58338">
        <ele>364</ele>
        <time>2018-07-19T10:03:34Z</time>
      </trkpt>
      <trkpt lat="45.9237" lon="4.58343">
        <ele>364</ele>
        <time>2018-07-19T10:03:35Z</time>
      </trkpt>
      <trkpt lat="45.92365" lon="4.58347">
        <ele>364</ele>
        <time>2018-07-19T10:03:36Z</time>
      </trkpt>
      <trkpt lat="45.92359" lon="4.58352">
        <ele>364</ele>
        <time>2018-07-19T10:03:37Z</time>
      </trkpt>
      <trkpt lat="45.92353" lon="4.58357">
        <ele>363</ele>
        <time>2018-07-19T10:03:38Z</time>
      </trkpt>
      <trkpt lat="45.92347" lon="4.58363">
        <ele>363</ele>
        <time>2018-07-19T10:03:39Z</time>
      </trkpt>
      <trkpt lat="45.92343" lon="4.58368">
        <ele>363</ele>
        <time>2018-07-19T10:03:40Z</time>
      </trkpt>
      <trkpt lat="45.92336" lon="4.58372">
        <ele>363</ele>
        <time>2018-07-19T10:03:41Z</time>
      </trkpt>
      <trkpt lat="45.92332" lon="4.58379">
        <ele>360</ele>
        <time>2018-07-19T10:03:42Z</time>
      </trkpt>
      <trkpt lat="45.92328" lon="4.58385">
        <ele>360</ele>
        <time>2018-07-19T10:03:43Z</time>
      </trkpt>
      <trkpt lat="45.92324" lon="4.58391">
        <ele>360</ele>
        <time>2018-07-19T10:03:44Z</time>
      </trkpt>
      <trkpt lat="45.92319" lon="4.58397">
        <ele>360</ele>
        <time>2018-07-19T10:03:45Z</time>
      </trkpt>
      <trkpt lat="45.92313" lon="4.58409">
        <ele>360</ele>
        <time>2018-07-19T10:03:46Z</time>
      </trkpt>
      <trkpt lat="45.92309" lon="4.58413">
        <ele>360</ele>
        <time>2018-07-19T10:03:47Z</time>
      </trkpt>
      <trkpt lat="45.92302" lon="4.58421">
        <ele>361</ele>
        <time>2018-07-19T10:03:48Z</time>
      </trkpt>
      <trkpt lat="45.92297" lon="4.58433">
        <ele>360</ele>
        <time>2018-07-19T10:03:49Z</time>
      </trkpt>
      <trkpt lat="45.9229" lon="4.58444">
        <ele>360</ele>
        <time>2018-07-19T10:03:50Z</time>
      </trkpt>
      <trkpt lat="45.92284" lon="4.58454">
        <ele>360</ele>
        <time>2018-07-19T10:03:51Z</time>
      </trkpt>
      <trkpt lat="45.92277" lon="4.58457">
        <ele>360</ele>
        <time>2018-07-19T10:03:52Z</time>
      </trkpt>
      <trkpt lat="45.92274" lon="4.58462">
        <ele>360</ele>
        <time>2018-07-19T10:03:53Z</time>
      </trkpt>
      <trkpt lat="45.9227" lon="4.58465">
        <ele>360</ele>
        <time>2018-07-19T10:03:54Z</time>
      </trkpt>
      <trkpt lat="45.92262" lon="4.58474">
        <ele>360</ele>
        <time>2018-07-19T10:03:55Z</time>
      </trkpt>
      <trkpt lat="45.92257" lon="4.5848">
        <ele>360</ele>
        <time>2018-07-19T10:03:56Z</time>
      </trkpt>
      <trkpt lat="45.9225" lon="4.58484">
        <ele>360</ele>
        <time>2018-07-19T10:03:57Z</time>
      </trkpt>
      <trkpt lat="45.92243" lon="4.5849">
        <ele>359</ele>
        <time>2018-07-19T10:03:58Z</time>
      </trkpt>
      <trkpt lat="45.92236" lon="4.58495">
        <ele>359</ele>
        <time>2018-07-19T10:03:59Z</time>
      </trkpt>
      <trkpt lat="45.9223" lon="4.58503">
        <ele>359</ele>
        <time>2018-07-19T10:04:00Z</time>
      </trkpt>
      <trkpt lat="45.92223" lon="4.58508">
        <ele>359</ele>
        <time>2018-07-19T10:04:01Z</time>
      </trkpt>
      <trkpt lat="45.92217" lon="4.58513">
        <ele>359</ele>
        <time>2018-07-19T10:04:02Z</time>
      </trkpt>
      <trkpt lat="45.92212" lon="4.5852">
        <ele>359</ele>
        <time>2018-07-19T10:04:03Z</time>
      </trkpt>
      <trkpt lat="45.92207" lon="4.58521">
        <ele>358</ele>
        <time>2018-07-19T10:04:04Z</time>
      </trkpt>
      <trkpt lat="45.92202" lon="4.58526">
        <ele>358</ele>
        <time>2018-07-19T10:04:05Z</time>
      </trkpt>
      <trkpt lat="45.92196" lon="4.5853">
        <ele>358</ele>
        <time>2018-07-19T10:04:06Z</time>
      </trkpt>
      <trkpt lat="45.92193" lon="4.58531">
        <ele>358</ele>
        <time>2018-07-19T10:04:07Z</time>
      </trkpt>
      <trkpt lat="45.92187" lon="4.58534">
        <ele>358</ele>
        <time>2018-07-19T10:04:08Z</time>
      </trkpt>
      <trkpt lat="45.92184" lon="4.58542">
        <ele>358</ele>
        <time>2018-07-19T10:04:09Z</time>
      </trkpt>
      <trkpt lat="45.92179" lon="4.58538">
        <ele>358</ele>
        <time>2018-07-19T10:04:11Z</time>
      </trkpt>
      <trkpt lat="45.92178" lon="4.58526">
        <ele>358</ele>
        <time>2018-07-19T10:04:12Z</time>
      </trkpt>
      <trkpt lat="45.92179" lon="4.58517">
        <ele>358</ele>
        <time>2018-07-19T10:04:13Z</time>
      </trkpt>
      <trkpt lat="45.92174" lon="4.58508">
        <ele>358</ele>
        <time>2018-07-19T10:04:14Z</time>
      </trkpt>
      <trkpt lat="45.9217" lon="4.58498">
        <ele>357</ele>
        <time>2018-07-19T10:04:17Z</time>
      </trkpt>
      <trkpt lat="45.92167" lon="4.5849">
        <ele>357</ele>
        <time>2018-07-19T10:04:18Z</time>
      </trkpt>
      <trkpt lat="45.92158" lon="4.58484">
        <ele>356</ele>
        <time>2018-07-19T10:04:19Z</time>
      </trkpt>
      <trkpt lat="45.92165" lon="4.58477">
        <ele>355</ele>
        <time>2018-07-19T10:04:26Z</time>
      </trkpt>
      <trkpt lat="45.92165" lon="4.58476">
        <ele>355</ele>
        <time>2018-07-19T10:04:27Z</time>
      </trkpt>
      <trkpt lat="45.92158" lon="4.58481">
        <ele>355</ele>
        <time>2018-07-19T10:04:33Z</time>
      </trkpt>
      <trkpt lat="45.92155" lon="4.58483">
        <ele>355</ele>
        <time>2018-07-19T10:04:34Z</time>
      </trkpt>
      <trkpt lat="45.92146" lon="4.58488">
        <ele>355</ele>
        <time>2018-07-19T10:04:35Z</time>
      </trkpt>
      <trkpt lat="45.92142" lon="4.58493">
        <ele>355</ele>
        <time>2018-07-19T10:04:36Z</time>
      </trkpt>
      <trkpt lat="45.92138" lon="4.58497">
        <ele>355</ele>
        <time>2018-07-19T10:04:37Z</time>
      </trkpt>
      <trkpt lat="45.92132" lon="4.58503">
        <ele>356</ele>
        <time>2018-07-19T10:04:39Z</time>
      </trkpt>
      <trkpt lat="45.92123" lon="4.58512">
        <ele>356</ele>
        <time>2018-07-19T10:04:40Z</time>
      </trkpt>
      <trkpt lat="45.92115" lon="4.58517">
        <ele>355</ele>
        <time>2018-07-19T10:04:42Z</time>
      </trkpt>
      <trkpt lat="45.92112" lon="4.58523">
        <ele>355</ele>
        <time>2018-07-19T10:04:43Z</time>
      </trkpt>
      <trkpt lat="45.92109" lon="4.58529">
        <ele>355</ele>
        <time>2018-07-19T10:04:44Z</time>
      </trkpt>
      <trkpt lat="45.92103" lon="4.58536">
        <ele>355</ele>
        <time>2018-07-19T10:04:45Z</time>
      </trkpt>
      <trkpt lat="45.92098" lon="4.58542">
        <ele>355</ele>
        <time>2018-07-19T10:04:46Z</time>
      </trkpt>
      <trkpt lat="45.92094" lon="4.58542">
        <ele>355</ele>
        <time>2018-07-19T10:04:47Z</time>
      </trkpt>
      <trkpt lat="45.92087" lon="4.58546">
        <ele>355</ele>
        <time>2018-07-19T10:04:49Z</time>
      </trkpt>
      <trkpt lat="45.92086" lon="4.58549">
        <ele>355</ele>
        <time>2018-07-19T10:04:50Z</time>
      </trkpt>
      <trkpt lat="45.92081" lon="4.58551">
        <ele>353</ele>
        <time>2018-07-19T10:04:51Z</time>
      </trkpt>
      <trkpt lat="45.92077" lon="4.58553">
        <ele>353</ele>
        <time>2018-07-19T10:04:52Z</time>
      </trkpt>
      <trkpt lat="45.92071" lon="4.5856">
        <ele>353</ele>
        <time>2018-07-19T10:04:53Z</time>
      </trkpt>
      <trkpt lat="45.92069" lon="4.58567">
        <ele>354</ele>
        <time>2018-07-19T10:04:54Z</time>
      </trkpt>
      <trkpt lat="45.92065" lon="4.58574">
        <ele>354</ele>
        <time>2018-07-19T10:04:55Z</time>
      </trkpt>
      <trkpt lat="45.92061" lon="4.58582">
        <ele>353</ele>
        <time>2018-07-19T10:04:56Z</time>
      </trkpt>
      <trkpt lat="45.92057" lon="4.58588">
        <ele>353</ele>
        <time>2018-07-19T10:04:57Z</time>
      </trkpt>
      <trkpt lat="45.92054" lon="4.58594">
        <ele>352</ele>
        <time>2018-07-19T10:04:58Z</time>
      </trkpt>
      <trkpt lat="45.92052" lon="4.58603">
        <ele>352</ele>
        <time>2018-07-19T10:04:59Z</time>
      </trkpt>
      <trkpt lat="45.92048" lon="4.58605">
        <ele>352</ele>
        <time>2018-07-19T10:05:00Z</time>
      </trkpt>
      <trkpt lat="45.92044" lon="4.58617">
        <ele>351</ele>
        <time>2018-07-19T10:05:01Z</time>
      </trkpt>
      <trkpt lat="45.92039" lon="4.58631">
        <ele>351</ele>
        <time>2018-07-19T10:05:02Z</time>
      </trkpt>
      <trkpt lat="45.92031" lon="4.58636">
        <ele>351</ele>
        <time>2018-07-19T10:05:17Z</time>
      </trkpt>
      <trkpt lat="45.9203" lon="4.58636">
        <ele>351</ele>
        <time>2018-07-19T10:05:18Z</time>
      </trkpt>
      <trkpt lat="45.92023" lon="4.58642">
        <ele>350</ele>
        <time>2018-07-19T10:05:27Z</time>
      </trkpt>
      <trkpt lat="45.92022" lon="4.58643">
        <ele>350</ele>
        <time>2018-07-19T10:05:28Z</time>
      </trkpt>
      <trkpt lat="45.92016" lon="4.58652">
        <ele>350</ele>
        <time>2018-07-19T10:05:35Z</time>
      </trkpt>
      <trkpt lat="45.92015" lon="4.58653">
        <ele>350</ele>
        <time>2018-07-19T10:05:36Z</time>
      </trkpt>
      <trkpt lat="45.92011" lon="4.58657">
        <ele>349</ele>
        <time>2018-07-19T10:05:42Z</time>
      </trkpt>
      <trkpt lat="45.92006" lon="4.58664">
        <ele>349</ele>
        <time>2018-07-19T10:05:43Z</time>
      </trkpt>
      <trkpt lat="45.92003" lon="4.58669">
        <ele>348</ele>
        <time>2018-07-19T10:05:44Z</time>
      </trkpt>
      <trkpt lat="45.91999" lon="4.58674">
        <ele>347</ele>
        <time>2018-07-19T10:05:45Z</time>
      </trkpt>
      <trkpt lat="45.91992" lon="4.58681">
        <ele>346</ele>
        <time>2018-07-19T10:05:46Z</time>
      </trkpt>
      <trkpt lat="45.9199" lon="4.58684">
        <ele>345</ele>
        <time>2018-07-19T10:05:47Z</time>
      </trkpt>
      <trkpt lat="45.91987" lon="4.58689">
        <ele>345</ele>
        <time>2018-07-19T10:05:48Z</time>
      </trkpt>
      <trkpt lat="45.91984" lon="4.58695">
        <ele>344</ele>
        <time>2018-07-19T10:05:49Z</time>
      </trkpt>
      <trkpt lat="45.91981" lon="4.587">
        <ele>344</ele>
        <time>2018-07-19T10:05:50Z</time>
      </trkpt>
      <trkpt lat="45.91978" lon="4.58705">
        <ele>344</ele>
        <time>2018-07-19T10:05:51Z</time>
      </trkpt>
      <trkpt lat="45.91973" lon="4.58715">
        <ele>343</ele>
        <time>2018-07-19T10:05:53Z</time>
      </trkpt>
      <trkpt lat="45.9197" lon="4.58722">
        <ele>343</ele>
        <time>2018-07-19T10:05:54Z</time>
      </trkpt>
      <trkpt lat="45.91968" lon="4.58728">
        <ele>342</ele>
        <time>2018-07-19T10:05:55Z</time>
      </trkpt>
      <trkpt lat="45.91966" lon="4.58734">
        <ele>342</ele>
        <time>2018-07-19T10:05:56Z</time>
      </trkpt>
      <trkpt lat="45.91961" lon="4.58744">
        <ele>342</ele>
        <time>2018-07-19T10:05:58Z</time>
      </trkpt>
      <trkpt lat="45.91961" lon="4.58747">
        <ele>342</ele>
        <time>2018-07-19T10:05:59Z</time>
      </trkpt>
      <trkpt lat="45.91958" lon="4.58755">
        <ele>336</ele>
        <time>2018-07-19T10:06:00Z</time>
      </trkpt>
      <trkpt lat="45.91955" lon="4.58758">
        <ele>336</ele>
        <time>2018-07-19T10:06:01Z</time>
      </trkpt>
      <trkpt lat="45.9195" lon="4.58769">
        <ele>336</ele>
        <time>2018-07-19T10:06:03Z</time>
      </trkpt>
      <trkpt lat="45.91947" lon="4.58774">
        <ele>335</ele>
        <time>2018-07-19T10:06:04Z</time>
      </trkpt>
      <trkpt lat="45.91944" lon="4.58781">
        <ele>335</ele>
        <time>2018-07-19T10:06:05Z</time>
      </trkpt>
      <trkpt lat="45.9194" lon="4.58787">
        <ele>335</ele>
        <time>2018-07-19T10:06:06Z</time>
      </trkpt>
      <trkpt lat="45.91937" lon="4.58794">
        <ele>335</ele>
        <time>2018-07-19T10:06:07Z</time>
      </trkpt>
      <trkpt lat="45.91933" lon="4.58801">
        <ele>334</ele>
        <time>2018-07-19T10:06:08Z</time>
      </trkpt>
      <trkpt lat="45.9193" lon="4.58808">
        <ele>334</ele>
        <time>2018-07-19T10:06:09Z</time>
      </trkpt>
      <trkpt lat="45.91927" lon="4.58817">
        <ele>333</ele>
        <time>2018-07-19T10:06:10Z</time>
      </trkpt>
      <trkpt lat="45.91922" lon="4.58825">
        <ele>333</ele>
        <time>2018-07-19T10:06:11Z</time>
      </trkpt>
      <trkpt lat="45.91919" lon="4.58833">
        <ele>332</ele>
        <time>2018-07-19T10:06:12Z</time>
      </trkpt>
      <trkpt lat="45.91914" lon="4.58841">
        <ele>331</ele>
        <time>2018-07-19T10:06:13Z</time>
      </trkpt>
      <trkpt lat="45.9191" lon="4.5885">
        <ele>331</ele>
        <time>2018-07-19T10:06:14Z</time>
      </trkpt>
      <trkpt lat="45.91905" lon="4.5886">
        <ele>330</ele>
        <time>2018-07-19T10:06:15Z</time>
      </trkpt>
      <trkpt lat="45.919" lon="4.58869">
        <ele>330</ele>
        <time>2018-07-19T10:06:16Z</time>
      </trkpt>
      <trkpt lat="45.91896" lon="4.58878">
        <ele>330</ele>
        <time>2018-07-19T10:06:17Z</time>
      </trkpt>
      <trkpt lat="45.91892" lon="4.58888">
        <ele>329</ele>
        <time>2018-07-19T10:06:18Z</time>
      </trkpt>
      <trkpt lat="45.91887" lon="4.58898">
        <ele>329</ele>
        <time>2018-07-19T10:06:19Z</time>
      </trkpt>
      <trkpt lat="45.91883" lon="4.58908">
        <ele>329</ele>
        <time>2018-07-19T10:06:20Z</time>
      </trkpt>
      <trkpt lat="45.91879" lon="4.58918">
        <ele>325</ele>
        <time>2018-07-19T10:06:21Z</time>
      </trkpt>
      <trkpt lat="45.91874" lon="4.58928">
        <ele>325</ele>
        <time>2018-07-19T10:06:22Z</time>
      </trkpt>
      <trkpt lat="45.91868" lon="4.58938">
        <ele>325</ele>
        <time>2018-07-19T10:06:23Z</time>
      </trkpt>
      <trkpt lat="45.91864" lon="4.58947">
        <ele>325</ele>
        <time>2018-07-19T10:06:24Z</time>
      </trkpt>
      <trkpt lat="45.91858" lon="4.58956">
        <ele>325</ele>
        <time>2018-07-19T10:06:25Z</time>
      </trkpt>
      <trkpt lat="45.91853" lon="4.58965">
        <ele>324</ele>
        <time>2018-07-19T10:06:26Z</time>
      </trkpt>
      <trkpt lat="45.91848" lon="4.58974">
        <ele>324</ele>
        <time>2018-07-19T10:06:27Z</time>
      </trkpt>
      <trkpt lat="45.91841" lon="4.58981">
        <ele>323</ele>
        <time>2018-07-19T10:06:28Z</time>
      </trkpt>
      <trkpt lat="45.91834" lon="4.58988">
        <ele>323</ele>
        <time>2018-07-19T10:06:29Z</time>
      </trkpt>
      <trkpt lat="45.91826" lon="4.58997">
        <ele>323</ele>
        <time>2018-07-19T10:06:30Z</time>
      </trkpt>
      <trkpt lat="45.9182" lon="4.59004">
        <ele>320</ele>
        <time>2018-07-19T10:06:31Z</time>
      </trkpt>
      <trkpt lat="45.91812" lon="4.59011">
        <ele>319</ele>
        <time>2018-07-19T10:06:32Z</time>
      </trkpt>
      <trkpt lat="45.91805" lon="4.59019">
        <ele>319</ele>
        <time>2018-07-19T10:06:33Z</time>
      </trkpt>
      <trkpt lat="45.91798" lon="4.59027">
        <ele>318</ele>
        <time>2018-07-19T10:06:34Z</time>
      </trkpt>
      <trkpt lat="45.9179" lon="4.59036">
        <ele>318</ele>
        <time>2018-07-19T10:06:35Z</time>
      </trkpt>
      <trkpt lat="45.91783" lon="4.59046">
        <ele>318</ele>
        <time>2018-07-19T10:06:36Z</time>
      </trkpt>
      <trkpt lat="45.91776" lon="4.59055">
        <ele>317</ele>
        <time>2018-07-19T10:06:37Z</time>
      </trkpt>
      <trkpt lat="45.91768" lon="4.59065">
        <ele>317</ele>
        <time>2018-07-19T10:06:38Z</time>
      </trkpt>
      <trkpt lat="45.91761" lon="4.59077">
        <ele>317</ele>
        <time>2018-07-19T10:06:39Z</time>
      </trkpt>
      <trkpt lat="45.91755" lon="4.59087">
        <ele>315</ele>
        <time>2018-07-19T10:06:40Z</time>
      </trkpt>
      <trkpt lat="45.91748" lon="4.59097">
        <ele>314</ele>
        <time>2018-07-19T10:06:41Z</time>
      </trkpt>
      <trkpt lat="45.91742" lon="4.59108">
        <ele>313</ele>
        <time>2018-07-19T10:06:42Z</time>
      </trkpt>
      <trkpt lat="45.91735" lon="4.59118">
        <ele>313</ele>
        <time>2018-07-19T10:06:43Z</time>
      </trkpt>
      <trkpt lat="45.91729" lon="4.59128">
        <ele>312</ele>
        <time>2018-07-19T10:06:44Z</time>
      </trkpt>
      <trkpt lat="45.91721" lon="4.59139">
        <ele>312</ele>
        <time>2018-07-19T10:06:45Z</time>
      </trkpt>
      <trkpt lat="45.91714" lon="4.5915">
        <ele>312</ele>
        <time>2018-07-19T10:06:46Z</time>
      </trkpt>
      <trkpt lat="45.91707" lon="4.59161">
        <ele>312</ele>
        <time>2018-07-19T10:06:47Z</time>
      </trkpt>
      <trkpt lat="45.91699" lon="4.59171">
        <ele>308</ele>
        <time>2018-07-19T10:06:48Z</time>
      </trkpt>
      <trkpt lat="45.91691" lon="4.59182">
        <ele>308</ele>
        <time>2018-07-19T10:06:49Z</time>
      </trkpt>
      <trkpt lat="45.91683" lon="4.59192">
        <ele>308</ele>
        <time>2018-07-19T10:06:50Z</time>
      </trkpt>
      <trkpt lat="45.91675" lon="4.59203">
        <ele>307</ele>
        <time>2018-07-19T10:06:51Z</time>
      </trkpt>
      <trkpt lat="45.91667" lon="4.59213">
        <ele>307</ele>
        <time>2018-07-19T10:06:52Z</time>
      </trkpt>
      <trkpt lat="45.9166" lon="4.59224">
        <ele>308</ele>
        <time>2018-07-19T10:06:53Z</time>
      </trkpt>
      <trkpt lat="45.91653" lon="4.59236">
        <ele>307</ele>
        <time>2018-07-19T10:06:54Z</time>
      </trkpt>
      <trkpt lat="45.91644" lon="4.59246">
        <ele>307</ele>
        <time>2018-07-19T10:06:55Z</time>
      </trkpt>
      <trkpt lat="45.91638" lon="4.59255">
        <ele>303</ele>
        <time>2018-07-19T10:06:56Z</time>
      </trkpt>
      <trkpt lat="45.9163" lon="4.59266">
        <ele>303</ele>
        <time>2018-07-19T10:06:57Z</time>
      </trkpt>
      <trkpt lat="45.91622" lon="4.59278">
        <ele>303</ele>
        <time>2018-07-19T10:06:58Z</time>
      </trkpt>
      <trkpt lat="45.91613" lon="4.59287">
        <ele>302</ele>
        <time>2018-07-19T10:06:59Z</time>
      </trkpt>
      <trkpt lat="45.91606" lon="4.59295">
        <ele>302</ele>
        <time>2018-07-19T10:07:00Z</time>
      </trkpt>
      <trkpt lat="45.916" lon="4.59301">
        <ele>301</ele>
        <time>2018-07-19T10:07:01Z</time>
      </trkpt>
      <trkpt lat="45.91592" lon="4.5931">
        <ele>300</ele>
        <time>2018-07-19T10:07:02Z</time>
      </trkpt>
      <trkpt lat="45.91586" lon="4.5932">
        <ele>299</ele>
        <time>2018-07-19T10:07:03Z</time>
      </trkpt>
      <trkpt lat="45.9158" lon="4.59328">
        <ele>297</ele>
        <time>2018-07-19T10:07:04Z</time>
      </trkpt>
      <trkpt lat="45.91576" lon="4.59342">
        <ele>295</ele>
        <time>2018-07-19T10:07:05Z</time>
      </trkpt>
      <trkpt lat="45.91572" lon="4.59354">
        <ele>294</ele>
        <time>2018-07-19T10:07:06Z</time>
      </trkpt>
      <trkpt lat="45.91569" lon="4.59369">
        <ele>293</ele>
        <time>2018-07-19T10:07:07Z</time>
      </trkpt>
      <trkpt lat="45.91567" lon="4.59384">
        <ele>292</ele>
        <time>2018-07-19T10:07:08Z</time>
      </trkpt>
      <trkpt lat="45.91566" lon="4.59399">
        <ele>292</ele>
        <time>2018-07-19T10:07:09Z</time>
      </trkpt>
      <trkpt lat="45.91564" lon="4.59413">
        <ele>292</ele>
        <time>2018-07-19T10:07:10Z</time>
      </trkpt>
      <trkpt lat="45.91563" lon="4.59427">
        <ele>293</ele>
        <time>2018-07-19T10:07:11Z</time>
      </trkpt>
      <trkpt lat="45.91562" lon="4.59439">
        <ele>293</ele>
        <time>2018-07-19T10:07:12Z</time>
      </trkpt>
      <trkpt lat="45.9156" lon="4.59451">
        <ele>293</ele>
        <time>2018-07-19T10:07:13Z</time>
      </trkpt>
      <trkpt lat="45.91559" lon="4.59462">
        <ele>294</ele>
        <time>2018-07-19T10:07:14Z</time>
      </trkpt>
      <trkpt lat="45.91556" lon="4.59473">
        <ele>294</ele>
        <time>2018-07-19T10:07:15Z</time>
      </trkpt>
      <trkpt lat="45.91555" lon="4.59483">
        <ele>295</ele>
        <time>2018-07-19T10:07:16Z</time>
      </trkpt>
      <trkpt lat="45.91554" lon="4.59492">
        <ele>295</ele>
        <time>2018-07-19T10:07:17Z</time>
      </trkpt>
      <trkpt lat="45.91552" lon="4.595">
        <ele>295</ele>
        <time>2018-07-19T10:07:18Z</time>
      </trkpt>
      <trkpt lat="45.9155" lon="4.59508">
        <ele>299</ele>
        <time>2018-07-19T10:07:19Z</time>
      </trkpt>
      <trkpt lat="45.91546" lon="4.59519">
        <ele>300</ele>
        <time>2018-07-19T10:07:21Z</time>
      </trkpt>
      <trkpt lat="45.91544" lon="4.59524">
        <ele>300</ele>
        <time>2018-07-19T10:07:22Z</time>
      </trkpt>
      <trkpt lat="45.91538" lon="4.59533">
        <ele>300</ele>
        <time>2018-07-19T10:07:24Z</time>
      </trkpt>
      <trkpt lat="45.91535" lon="4.59536">
        <ele>300</ele>
        <time>2018-07-19T10:07:25Z</time>
      </trkpt>
      <trkpt lat="45.91529" lon="4.59543">
        <ele>300</ele>
        <time>2018-07-19T10:07:28Z</time>
      </trkpt>
      <trkpt lat="45.91527" lon="4.59545">
        <ele>300</ele>
        <time>2018-07-19T10:07:29Z</time>
      </trkpt>
      <trkpt lat="45.9152" lon="4.5955">
        <ele>301</ele>
        <time>2018-07-19T10:07:32Z</time>
      </trkpt>
      <trkpt lat="45.91517" lon="4.59551">
        <ele>301</ele>
        <time>2018-07-19T10:07:33Z</time>
      </trkpt>
      <trkpt lat="45.91511" lon="4.59555">
        <ele>301</ele>
        <time>2018-07-19T10:07:35Z</time>
      </trkpt>
      <trkpt lat="45.91508" lon="4.59557">
        <ele>301</ele>
        <time>2018-07-19T10:07:36Z</time>
      </trkpt>
      <trkpt lat="45.91502" lon="4.5956">
        <ele>301</ele>
        <time>2018-07-19T10:07:38Z</time>
      </trkpt>
      <trkpt lat="45.91499" lon="4.59562">
        <ele>302</ele>
        <time>2018-07-19T10:07:39Z</time>
      </trkpt>
      <trkpt lat="45.91493" lon="4.59566">
        <ele>302</ele>
        <time>2018-07-19T10:07:41Z</time>
      </trkpt>
      <trkpt lat="45.9149" lon="4.59567">
        <ele>302</ele>
        <time>2018-07-19T10:07:42Z</time>
      </trkpt>
      <trkpt lat="45.91482" lon="4.59573">
        <ele>302</ele>
        <time>2018-07-19T10:07:43Z</time>
      </trkpt>
      <trkpt lat="45.91474" lon="4.59576">
        <ele>302</ele>
        <time>2018-07-19T10:07:47Z</time>
      </trkpt>
      <trkpt lat="45.91471" lon="4.59576">
        <ele>302</ele>
        <time>2018-07-19T10:07:48Z</time>
      </trkpt>
      <trkpt lat="45.91463" lon="4.59578">
        <ele>302</ele>
        <time>2018-07-19T10:07:51Z</time>
      </trkpt>
      <trkpt lat="45.9146" lon="4.59579">
        <ele>302</ele>
        <time>2018-07-19T10:07:52Z</time>
      </trkpt>
      <trkpt lat="45.91452" lon="4.59581">
        <ele>303</ele>
        <time>2018-07-19T10:07:55Z</time>
      </trkpt>
      <trkpt lat="45.91449" lon="4.59582">
        <ele>303</ele>
        <time>2018-07-19T10:07:56Z</time>
      </trkpt>
      <trkpt lat="45.9144" lon="4.59583">
        <ele>303</ele>
        <time>2018-07-19T10:07:59Z</time>
      </trkpt>
      <trkpt lat="45.91437" lon="4.59584">
        <ele>307</ele>
        <time>2018-07-19T10:08:00Z</time>
      </trkpt>
      <trkpt lat="45.91428" lon="4.59585">
        <ele>307</ele>
        <time>2018-07-19T10:08:03Z</time>
      </trkpt>
      <trkpt lat="45.91425" lon="4.59586">
        <ele>307</ele>
        <time>2018-07-19T10:08:04Z</time>
      </trkpt>
      <trkpt lat="45.91417" lon="4.59584">
        <ele>306</ele>
        <time>2018-07-19T10:08:07Z</time>
      </trkpt>
      <trkpt lat="45.91415" lon="4.59583">
        <ele>306</ele>
        <time>2018-07-19T10:08:08Z</time>
      </trkpt>
      <trkpt lat="45.91408" lon="4.59578">
        <ele>306</ele>
        <time>2018-07-19T10:08:11Z</time>
      </trkpt>
      <trkpt lat="45.91406" lon="4.59575">
        <ele>306</ele>
        <time>2018-07-19T10:08:12Z</time>
      </trkpt>
      <trkpt lat="45.91402" lon="4.59567">
        <ele>306</ele>
        <time>2018-07-19T10:08:15Z</time>
      </trkpt>
      <trkpt lat="45.91401" lon="4.59563">
        <ele>306</ele>
        <time>2018-07-19T10:08:16Z</time>
      </trkpt>
      <trkpt lat="45.91399" lon="4.59554">
        <ele>306</ele>
        <time>2018-07-19T10:08:19Z</time>
      </trkpt>
      <trkpt lat="45.91399" lon="4.59551">
        <ele>306</ele>
        <time>2018-07-19T10:08:20Z</time>
      </trkpt>
      <trkpt lat="45.91397" lon="4.59541">
        <ele>306</ele>
        <time>2018-07-19T10:08:23Z</time>
      </trkpt>
      <trkpt lat="45.91396" lon="4.59537">
        <ele>306</ele>
        <time>2018-07-19T10:08:24Z</time>
      </trkpt>
      <trkpt lat="45.91392" lon="4.59528">
        <ele>306</ele>
        <time>2018-07-19T10:08:27Z</time>
      </trkpt>
      <trkpt lat="45.91391" lon="4.59526">
        <ele>306</ele>
        <time>2018-07-19T10:08:28Z</time>
      </trkpt>
      <trkpt lat="45.91386" lon="4.59515">
        <ele>306</ele>
        <time>2018-07-19T10:08:32Z</time>
      </trkpt>
      <trkpt lat="45.91385" lon="4.59513">
        <ele>306</ele>
        <time>2018-07-19T10:08:33Z</time>
      </trkpt>
      <trkpt lat="45.91379" lon="4.59504">
        <ele>306</ele>
        <time>2018-07-19T10:08:37Z</time>
      </trkpt>
      <trkpt lat="45.91378" lon="4.59503">
        <ele>306</ele>
        <time>2018-07-19T10:08:38Z</time>
      </trkpt>
      <trkpt lat="45.9137" lon="4.59498">
        <ele>306</ele>
        <time>2018-07-19T10:08:52Z</time>
      </trkpt>
      <trkpt lat="45.91369" lon="4.59498">
        <ele>306</ele>
        <time>2018-07-19T10:08:53Z</time>
      </trkpt>
      <trkpt lat="45.91362" lon="4.59501">
        <ele>307</ele>
        <time>2018-07-19T10:08:57Z</time>
      </trkpt>
      <trkpt lat="45.9136" lon="4.59503">
        <ele>307</ele>
        <time>2018-07-19T10:08:58Z</time>
      </trkpt>
      <trkpt lat="45.91355" lon="4.5951">
        <ele>307</ele>
        <time>2018-07-19T10:09:02Z</time>
      </trkpt>
      <trkpt lat="45.91353" lon="4.59512">
        <ele>307</ele>
        <time>2018-07-19T10:09:03Z</time>
      </trkpt>
      <trkpt lat="45.91347" lon="4.5952">
        <ele>308</ele>
        <time>2018-07-19T10:09:07Z</time>
      </trkpt>
      <trkpt lat="45.91345" lon="4.59522">
        <ele>308</ele>
        <time>2018-07-19T10:09:08Z</time>
      </trkpt>
      <trkpt lat="45.9134" lon="4.59529">
        <ele>308</ele>
        <time>2018-07-19T10:09:11Z</time>
      </trkpt>
      <trkpt lat="45.91338" lon="4.59532">
        <ele>308</ele>
        <time>2018-07-19T10:09:12Z</time>
      </trkpt>
      <trkpt lat="45.91332" lon="4.59541">
        <ele>311</ele>
        <time>2018-07-19T10:09:15Z</time>
      </trkpt>
      <trkpt lat="45.9133" lon="4.59543">
        <ele>311</ele>
        <time>2018-07-19T10:09:16Z</time>
      </trkpt>
      <trkpt lat="45.91324" lon="4.59552">
        <ele>311</ele>
        <time>2018-07-19T10:09:19Z</time>
      </trkpt>
      <trkpt lat="45.91322" lon="4.59555">
        <ele>311</ele>
        <time>2018-07-19T10:09:20Z</time>
      </trkpt>
      <trkpt lat="45.91315" lon="4.59563">
        <ele>311</ele>
        <time>2018-07-19T10:09:23Z</time>
      </trkpt>
      <trkpt lat="45.91313" lon="4.59566">
        <ele>311</ele>
        <time>2018-07-19T10:09:24Z</time>
      </trkpt>
      <trkpt lat="45.91309" lon="4.59572">
        <ele>311</ele>
        <time>2018-07-19T10:09:26Z</time>
      </trkpt>
      <trkpt lat="45.91307" lon="4.59575">
        <ele>311</ele>
        <time>2018-07-19T10:09:27Z</time>
      </trkpt>
      <trkpt lat="45.91302" lon="4.59582">
        <ele>312</ele>
        <time>2018-07-19T10:09:29Z</time>
      </trkpt>
      <trkpt lat="45.913" lon="4.59586">
        <ele>313</ele>
        <time>2018-07-19T10:09:30Z</time>
      </trkpt>
      <trkpt lat="45.91296" lon="4.59593">
        <ele>313</ele>
        <time>2018-07-19T10:09:32Z</time>
      </trkpt>
      <trkpt lat="45.91294" lon="4.59597">
        <ele>313</ele>
        <time>2018-07-19T10:09:33Z</time>
      </trkpt>
      <trkpt lat="45.9129" lon="4.59605">
        <ele>313</ele>
        <time>2018-07-19T10:09:35Z</time>
      </trkpt>
      <trkpt lat="45.91282" lon="4.59615">
        <ele>313</ele>
        <time>2018-07-19T10:09:36Z</time>
      </trkpt>
      <trkpt lat="45.91275" lon="4.59619">
        <ele>314</ele>
        <time>2018-07-19T10:09:38Z</time>
      </trkpt>
      <trkpt lat="45.9127" lon="4.5962">
        <ele>314</ele>
        <time>2018-07-19T10:09:39Z</time>
      </trkpt>
      <trkpt lat="45.91263" lon="4.59622">
        <ele>314</ele>
        <time>2018-07-19T10:09:41Z</time>
      </trkpt>
      <trkpt lat="45.91261" lon="4.59623">
        <ele>314</ele>
        <time>2018-07-19T10:09:42Z</time>
      </trkpt>
      <trkpt lat="45.91254" lon="4.59624">
        <ele>314</ele>
        <time>2018-07-19T10:09:45Z</time>
      </trkpt>
      <trkpt lat="45.91251" lon="4.59625">
        <ele>314</ele>
        <time>2018-07-19T10:09:46Z</time>
      </trkpt>
      <trkpt lat="45.91248" lon="4.59625">
        <ele>315</ele>
        <time>2018-07-19T10:09:47Z</time>
      </trkpt>
      <trkpt lat="45.91239" lon="4.59628">
        <ele>315</ele>
        <time>2018-07-19T10:09:48Z</time>
      </trkpt>
      <trkpt lat="45.91232" lon="4.5963">
        <ele>315</ele>
        <time>2018-07-19T10:09:51Z</time>
      </trkpt>
      <trkpt lat="45.9123" lon="4.59631">
        <ele>315</ele>
        <time>2018-07-19T10:09:52Z</time>
      </trkpt>
      <trkpt lat="45.91227" lon="4.59632">
        <ele>315</ele>
        <time>2018-07-19T10:09:53Z</time>
      </trkpt>
      <trkpt lat="45.91219" lon="4.59636">
        <ele>316</ele>
        <time>2018-07-19T10:09:54Z</time>
      </trkpt>
      <trkpt lat="45.91213" lon="4.59639">
        <ele>316</ele>
        <time>2018-07-19T10:09:57Z</time>
      </trkpt>
      <trkpt lat="45.9121" lon="4.5964">
        <ele>316</ele>
        <time>2018-07-19T10:09:58Z</time>
      </trkpt>
      <trkpt lat="45.91202" lon="4.59643">
        <ele>316</ele>
        <time>2018-07-19T10:10:01Z</time>
      </trkpt>
      <trkpt lat="45.91198" lon="4.59645">
        <ele>316</ele>
        <time>2018-07-19T10:10:02Z</time>
      </trkpt>
      <trkpt lat="45.91191" lon="4.59647">
        <ele>316</ele>
        <time>2018-07-19T10:10:04Z</time>
      </trkpt>
      <trkpt lat="45.91188" lon="4.59648">
        <ele>316</ele>
        <time>2018-07-19T10:10:05Z</time>
      </trkpt>
      <trkpt lat="45.91185" lon="4.59649">
        <ele>316</ele>
        <time>2018-07-19T10:10:06Z</time>
      </trkpt>
      <trkpt lat="45.91175" lon="4.59651">
        <ele>316</ele>
        <time>2018-07-19T10:10:07Z</time>
      </trkpt>
      <trkpt lat="45.91167" lon="4.59653">
        <ele>315</ele>
        <time>2018-07-19T10:10:09Z</time>
      </trkpt>
      <trkpt lat="45.91163" lon="4.59654">
        <ele>317</ele>
        <time>2018-07-19T10:10:10Z</time>
      </trkpt>
      <trkpt lat="45.91154" lon="4.59656">
        <ele>317</ele>
        <time>2018-07-19T10:10:13Z</time>
      </trkpt>
      <trkpt lat="45.91152" lon="4.59657">
        <ele>317</ele>
        <time>2018-07-19T10:10:14Z</time>
      </trkpt>
      <trkpt lat="45.91144" lon="4.59659">
        <ele>317</ele>
        <time>2018-07-19T10:10:15Z</time>
      </trkpt>
      <trkpt lat="45.9114" lon="4.59661">
        <ele>317</ele>
        <time>2018-07-19T10:10:16Z</time>
      </trkpt>
      <trkpt lat="45.91133" lon="4.59664">
        <ele>318</ele>
        <time>2018-07-19T10:10:18Z</time>
      </trkpt>
      <trkpt lat="45.91129" lon="4.59665">
        <ele>318</ele>
        <time>2018-07-19T10:10:19Z</time>
      </trkpt>
      <trkpt lat="45.9112" lon="4.59667">
        <ele>317</ele>
        <time>2018-07-19T10:10:21Z</time>
      </trkpt>
      <trkpt lat="45.91116" lon="4.59669">
        <ele>317</ele>
        <time>2018-07-19T10:10:22Z</time>
      </trkpt>
      <trkpt lat="45.91108" lon="4.59671">
        <ele>317</ele>
        <time>2018-07-19T10:10:24Z</time>
      </trkpt>
      <trkpt lat="45.91104" lon="4.59671">
        <ele>317</ele>
        <time>2018-07-19T10:10:25Z</time>
      </trkpt>
      <trkpt lat="45.91096" lon="4.59673">
        <ele>318</ele>
        <time>2018-07-19T10:10:27Z</time>
      </trkpt>
      <trkpt lat="45.91092" lon="4.59674">
        <ele>318</ele>
        <time>2018-07-19T10:10:28Z</time>
      </trkpt>
      <trkpt lat="45.91083" lon="4.59676">
        <ele>319</ele>
        <time>2018-07-19T10:10:30Z</time>
      </trkpt>
      <trkpt lat="45.9108" lon="4.59677">
        <ele>319</ele>
        <time>2018-07-19T10:10:31Z</time>
      </trkpt>
      <trkpt lat="45.91072" lon="4.59682">
        <ele>319</ele>
        <time>2018-07-19T10:10:33Z</time>
      </trkpt>
      <trkpt lat="45.91069" lon="4.59683">
        <ele>320</ele>
        <time>2018-07-19T10:10:34Z</time>
      </trkpt>
      <trkpt lat="45.91061" lon="4.59687">
        <ele>320</ele>
        <time>2018-07-19T10:10:36Z</time>
      </trkpt>
      <trkpt lat="45.91057" lon="4.59689">
        <ele>320</ele>
        <time>2018-07-19T10:10:37Z</time>
      </trkpt>
      <trkpt lat="45.91051" lon="4.59692">
        <ele>320</ele>
        <time>2018-07-19T10:10:39Z</time>
      </trkpt>
      <trkpt lat="45.91047" lon="4.59694">
        <ele>320</ele>
        <time>2018-07-19T10:10:40Z</time>
      </trkpt>
      <trkpt lat="45.9104" lon="4.59699">
        <ele>320</ele>
        <time>2018-07-19T10:10:42Z</time>
      </trkpt>
      <trkpt lat="45.91036" lon="4.59702">
        <ele>320</ele>
        <time>2018-07-19T10:10:43Z</time>
      </trkpt>
      <trkpt lat="45.91032" lon="4.59706">
        <ele>320</ele>
        <time>2018-07-19T10:10:44Z</time>
      </trkpt>
      <trkpt lat="45.91028" lon="4.59709">
        <ele>320</ele>
        <time>2018-07-19T10:10:45Z</time>
      </trkpt>
      <trkpt lat="45.9102" lon="4.59713">
        <ele>320</ele>
        <time>2018-07-19T10:10:47Z</time>
      </trkpt>
      <trkpt lat="45.91015" lon="4.59715">
        <ele>321</ele>
        <time>2018-07-19T10:10:48Z</time>
      </trkpt>
      <trkpt lat="45.91009" lon="4.59724">
        <ele>321</ele>
        <time>2018-07-19T10:10:50Z</time>
      </trkpt>
      <trkpt lat="45.91004" lon="4.59727">
        <ele>321</ele>
        <time>2018-07-19T10:10:51Z</time>
      </trkpt>
      <trkpt lat="45.91001" lon="4.5973">
        <ele>321</ele>
        <time>2018-07-19T10:10:52Z</time>
      </trkpt>
      <trkpt lat="45.90996" lon="4.59735">
        <ele>323</ele>
        <time>2018-07-19T10:10:53Z</time>
      </trkpt>
      <trkpt lat="45.90991" lon="4.59738">
        <ele>323</ele>
        <time>2018-07-19T10:10:54Z</time>
      </trkpt>
      <trkpt lat="45.90988" lon="4.59742">
        <ele>323</ele>
        <time>2018-07-19T10:10:55Z</time>
      </trkpt>
      <trkpt lat="45.90983" lon="4.59745">
        <ele>323</ele>
        <time>2018-07-19T10:10:56Z</time>
      </trkpt>
      <trkpt lat="45.90979" lon="4.59746">
        <ele>323</ele>
        <time>2018-07-19T10:10:57Z</time>
      </trkpt>
      <trkpt lat="45.90971" lon="4.59749">
        <ele>323</ele>
        <time>2018-07-19T10:10:59Z</time>
      </trkpt>
      <trkpt lat="45.90967" lon="4.59751">
        <ele>322</ele>
        <time>2018-07-19T10:11:00Z</time>
      </trkpt>
      <trkpt lat="45.90959" lon="4.59754">
        <ele>322</ele>
        <time>2018-07-19T10:11:02Z</time>
      </trkpt>
      <trkpt lat="45.90955" lon="4.59755">
        <ele>322</ele>
        <time>2018-07-19T10:11:03Z</time>
      </trkpt>
      <trkpt lat="45.9095" lon="4.59754">
        <ele>323</ele>
        <time>2018-07-19T10:11:04Z</time>
      </trkpt>
      <trkpt lat="45.90944" lon="4.59757">
        <ele>323</ele>
        <time>2018-07-19T10:11:05Z</time>
      </trkpt>
      <trkpt lat="45.90936" lon="4.5976">
        <ele>323</ele>
        <time>2018-07-19T10:11:07Z</time>
      </trkpt>
      <trkpt lat="45.90932" lon="4.59763">
        <ele>323</ele>
        <time>2018-07-19T10:11:08Z</time>
      </trkpt>
      <trkpt lat="45.90927" lon="4.59764">
        <ele>323</ele>
        <time>2018-07-19T10:11:09Z</time>
      </trkpt>
      <trkpt lat="45.90922" lon="4.59765">
        <ele>323</ele>
        <time>2018-07-19T10:11:10Z</time>
      </trkpt>
      <trkpt lat="45.90914" lon="4.59767">
        <ele>324</ele>
        <time>2018-07-19T10:11:12Z</time>
      </trkpt>
      <trkpt lat="45.90908" lon="4.59767">
        <ele>324</ele>
        <time>2018-07-19T10:11:13Z</time>
      </trkpt>
      <trkpt lat="45.90902" lon="4.59768">
        <ele>324</ele>
        <time>2018-07-19T10:11:14Z</time>
      </trkpt>
      <trkpt lat="45.90896" lon="4.59769">
        <ele>324</ele>
        <time>2018-07-19T10:11:15Z</time>
      </trkpt>
      <trkpt lat="45.90891" lon="4.5977">
        <ele>324</ele>
        <time>2018-07-19T10:11:16Z</time>
      </trkpt>
      <trkpt lat="45.90887" lon="4.59771">
        <ele>324</ele>
        <time>2018-07-19T10:11:17Z</time>
      </trkpt>
      <trkpt lat="45.90878" lon="4.59771">
        <ele>324</ele>
        <time>2018-07-19T10:11:19Z</time>
      </trkpt>
      <trkpt lat="45.90875" lon="4.59772">
        <ele>324</ele>
        <time>2018-07-19T10:11:20Z</time>
      </trkpt>
      <trkpt lat="45.90871" lon="4.59774">
        <ele>324</ele>
        <time>2018-07-19T10:11:21Z</time>
      </trkpt>
      <trkpt lat="45.90866" lon="4.59775">
        <ele>324</ele>
        <time>2018-07-19T10:11:22Z</time>
      </trkpt>
      <trkpt lat="45.90861" lon="4.59777">
        <ele>324</ele>
        <time>2018-07-19T10:11:23Z</time>
      </trkpt>
      <trkpt lat="45.90856" lon="4.59778">
        <ele>324</ele>
        <time>2018-07-19T10:11:24Z</time>
      </trkpt>
      <trkpt lat="45.90851" lon="4.5978">
        <ele>324</ele>
        <time>2018-07-19T10:11:25Z</time>
      </trkpt>
      <trkpt lat="45.90846" lon="4.59783">
        <ele>324</ele>
        <time>2018-07-19T10:11:26Z</time>
      </trkpt>
      <trkpt lat="45.9084" lon="4.59784">
        <ele>324</ele>
        <time>2018-07-19T10:11:27Z</time>
      </trkpt>
      <trkpt lat="45.90836" lon="4.59785">
        <ele>324</ele>
        <time>2018-07-19T10:11:28Z</time>
      </trkpt>
      <trkpt lat="45.9083" lon="4.59794">
        <ele>325</ele>
        <time>2018-07-19T10:11:30Z</time>
      </trkpt>
      <trkpt lat="45.90827" lon="4.59795">
        <ele>325</ele>
        <time>2018-07-19T10:11:31Z</time>
      </trkpt>
      <trkpt lat="45.90824" lon="4.59796">
        <ele>325</ele>
        <time>2018-07-19T10:11:33Z</time>
      </trkpt>
      <trkpt lat="45.90816" lon="4.598">
        <ele>325</ele>
        <time>2018-07-19T10:11:34Z</time>
      </trkpt>
      <trkpt lat="45.90808" lon="4.59803">
        <ele>325</ele>
        <time>2018-07-19T10:11:36Z</time>
      </trkpt>
      <trkpt lat="45.90805" lon="4.59805">
        <ele>325</ele>
        <time>2018-07-19T10:11:37Z</time>
      </trkpt>
      <trkpt lat="45.90801" lon="4.59809">
        <ele>325</ele>
        <time>2018-07-19T10:11:38Z</time>
      </trkpt>
      <trkpt lat="45.90796" lon="4.59812">
        <ele>325</ele>
        <time>2018-07-19T10:11:39Z</time>
      </trkpt>
      <trkpt lat="45.9079" lon="4.59819">
        <ele>325</ele>
        <time>2018-07-19T10:11:41Z</time>
      </trkpt>
      <trkpt lat="45.90786" lon="4.59821">
        <ele>325</ele>
        <time>2018-07-19T10:11:42Z</time>
      </trkpt>
      <trkpt lat="45.90781" lon="4.59826">
        <ele>325</ele>
        <time>2018-07-19T10:11:43Z</time>
      </trkpt>
      <trkpt lat="45.90778" lon="4.59831">
        <ele>325</ele>
        <time>2018-07-19T10:11:44Z</time>
      </trkpt>
      <trkpt lat="45.9077" lon="4.59835">
        <ele>323</ele>
        <time>2018-07-19T10:11:47Z</time>
      </trkpt>
      <trkpt lat="45.90766" lon="4.59836">
        <ele>323</ele>
        <time>2018-07-19T10:11:48Z</time>
      </trkpt>
      <trkpt lat="45.90762" lon="4.59846">
        <ele>323</ele>
        <time>2018-07-19T10:11:49Z</time>
      </trkpt>
      <trkpt lat="45.90754" lon="4.59853">
        <ele>323</ele>
        <time>2018-07-19T10:11:50Z</time>
      </trkpt>
      <trkpt lat="45.90751" lon="4.59859">
        <ele>323</ele>
        <time>2018-07-19T10:11:51Z</time>
      </trkpt>
      <trkpt lat="45.90746" lon="4.59863">
        <ele>322</ele>
        <time>2018-07-19T10:11:52Z</time>
      </trkpt>
      <trkpt lat="45.90742" lon="4.59868">
        <ele>321</ele>
        <time>2018-07-19T10:11:53Z</time>
      </trkpt>
      <trkpt lat="45.90736" lon="4.59874">
        <ele>321</ele>
        <time>2018-07-19T10:11:54Z</time>
      </trkpt>
      <trkpt lat="45.90733" lon="4.59879">
        <ele>321</ele>
        <time>2018-07-19T10:11:55Z</time>
      </trkpt>
      <trkpt lat="45.9073" lon="4.59887">
        <ele>321</ele>
        <time>2018-07-19T10:11:56Z</time>
      </trkpt>
      <trkpt lat="45.90726" lon="4.59895">
        <ele>321</ele>
        <time>2018-07-19T10:11:57Z</time>
      </trkpt>
      <trkpt lat="45.90722" lon="4.59903">
        <ele>321</ele>
        <time>2018-07-19T10:11:58Z</time>
      </trkpt>
      <trkpt lat="45.90719" lon="4.59912">
        <ele>320</ele>
        <time>2018-07-19T10:11:59Z</time>
      </trkpt>
      <trkpt lat="45.90716" lon="4.59921">
        <ele>319</ele>
        <time>2018-07-19T10:12:00Z</time>
      </trkpt>
      <trkpt lat="45.90711" lon="4.59925">
        <ele>319</ele>
        <time>2018-07-19T10:12:01Z</time>
      </trkpt>
      <trkpt lat="45.90704" lon="4.59934">
        <ele>319</ele>
        <time>2018-07-19T10:12:02Z</time>
      </trkpt>
      <trkpt lat="45.90698" lon="4.59932">
        <ele>319</ele>
        <time>2018-07-19T10:12:03Z</time>
      </trkpt>
      <trkpt lat="45.9069" lon="4.59936">
        <ele>318</ele>
        <time>2018-07-19T10:12:04Z</time>
      </trkpt>
      <trkpt lat="45.90683" lon="4.5994">
        <ele>318</ele>
        <time>2018-07-19T10:12:05Z</time>
      </trkpt>
      <trkpt lat="45.90677" lon="4.59939">
        <ele>318</ele>
        <time>2018-07-19T10:12:06Z</time>
      </trkpt>
      <trkpt lat="45.90671" lon="4.59941">
        <ele>318</ele>
        <time>2018-07-19T10:12:07Z</time>
      </trkpt>
      <trkpt lat="45.90664" lon="4.59943">
        <ele>317</ele>
        <time>2018-07-19T10:12:08Z</time>
      </trkpt>
      <trkpt lat="45.90655" lon="4.59946">
        <ele>316</ele>
        <time>2018-07-19T10:12:09Z</time>
      </trkpt>
      <trkpt lat="45.90648" lon="4.59947">
        <ele>316</ele>
        <time>2018-07-19T10:12:10Z</time>
      </trkpt>
      <trkpt lat="45.9064" lon="4.59949">
        <ele>316</ele>
        <time>2018-07-19T10:12:11Z</time>
      </trkpt>
      <trkpt lat="45.90633" lon="4.5995">
        <ele>316</ele>
        <time>2018-07-19T10:12:12Z</time>
      </trkpt>
      <trkpt lat="45.90623" lon="4.59955">
        <ele>316</ele>
        <time>2018-07-19T10:12:13Z</time>
      </trkpt>
      <trkpt lat="45.90612" lon="4.5996">
        <ele>316</ele>
        <time>2018-07-19T10:12:14Z</time>
      </trkpt>
      <trkpt lat="45.90602" lon="4.59965">
        <ele>315</ele>
        <time>2018-07-19T10:12:15Z</time>
      </trkpt>
      <trkpt lat="45.90593" lon="4.59969">
        <ele>315</ele>
        <time>2018-07-19T10:12:16Z</time>
      </trkpt>
      <trkpt lat="45.90583" lon="4.59974">
        <ele>314</ele>
        <time>2018-07-19T10:12:17Z</time>
      </trkpt>
      <trkpt lat="45.90573" lon="4.59977">
        <ele>314</ele>
        <time>2018-07-19T10:12:18Z</time>
      </trkpt>
      <trkpt lat="45.90564" lon="4.59982">
        <ele>314</ele>
        <time>2018-07-19T10:12:19Z</time>
      </trkpt>
      <trkpt lat="45.90555" lon="4.59985">
        <ele>314</ele>
        <time>2018-07-19T10:12:20Z</time>
      </trkpt>
      <trkpt lat="45.90548" lon="4.59987">
        <ele>314</ele>
        <time>2018-07-19T10:12:21Z</time>
      </trkpt>
      <trkpt lat="45.90541" lon="4.59989">
        <ele>314</ele>
        <time>2018-07-19T10:12:22Z</time>
      </trkpt>
      <trkpt lat="45.90532" lon="4.59992">
        <ele>314</ele>
        <time>2018-07-19T10:12:23Z</time>
      </trkpt>
      <trkpt lat="45.90526" lon="4.59993">
        <ele>313</ele>
        <time>2018-07-19T10:12:24Z</time>
      </trkpt>
      <trkpt lat="45.90518" lon="4.59995">
        <ele>313</ele>
        <time>2018-07-19T10:12:25Z</time>
      </trkpt>
      <trkpt lat="45.90511" lon="4.59997">
        <ele>313</ele>
        <time>2018-07-19T10:12:26Z</time>
      </trkpt>
      <trkpt lat="45.90503" lon="4.6">
        <ele>312</ele>
        <time>2018-07-19T10:12:27Z</time>
      </trkpt>
      <trkpt lat="45.90496" lon="4.60002">
        <ele>312</ele>
        <time>2018-07-19T10:12:28Z</time>
      </trkpt>
      <trkpt lat="45.90489" lon="4.60005">
        <ele>311</ele>
        <time>2018-07-19T10:12:29Z</time>
      </trkpt>
      <trkpt lat="45.90481" lon="4.60009">
        <ele>311</ele>
        <time>2018-07-19T10:12:30Z</time>
      </trkpt>
      <trkpt lat="45.90474" lon="4.60011">
        <ele>311</ele>
        <time>2018-07-19T10:12:31Z</time>
      </trkpt>
      <trkpt lat="45.90467" lon="4.60013">
        <ele>311</ele>
        <time>2018-07-19T10:12:32Z</time>
      </trkpt>
      <trkpt lat="45.90461" lon="4.60015">
        <ele>311</ele>
        <time>2018-07-19T10:12:33Z</time>
      </trkpt>
      <trkpt lat="45.90454" lon="4.60018">
        <ele>311</ele>
        <time>2018-07-19T10:12:34Z</time>
      </trkpt>
      <trkpt lat="45.90447" lon="4.60021">
        <ele>311</ele>
        <time>2018-07-19T10:12:35Z</time>
      </trkpt>
      <trkpt lat="45.9044" lon="4.60022">
        <ele>311</ele>
        <time>2018-07-19T10:12:36Z</time>
      </trkpt>
      <trkpt lat="45.90433" lon="4.60025">
        <ele>311</ele>
        <time>2018-07-19T10:12:37Z</time>
      </trkpt>
      <trkpt lat="45.90426" lon="4.60027">
        <ele>311</ele>
        <time>2018-07-19T10:12:38Z</time>
      </trkpt>
      <trkpt lat="45.9042" lon="4.60028">
        <ele>311</ele>
        <time>2018-07-19T10:12:39Z</time>
      </trkpt>
      <trkpt lat="45.90414" lon="4.60031">
        <ele>313</ele>
        <time>2018-07-19T10:12:40Z</time>
      </trkpt>
      <trkpt lat="45.90408" lon="4.60032">
        <ele>313</ele>
        <time>2018-07-19T10:12:41Z</time>
      </trkpt>
      <trkpt lat="45.90401" lon="4.60034">
        <ele>313</ele>
        <time>2018-07-19T10:12:42Z</time>
      </trkpt>
      <trkpt lat="45.90395" lon="4.60036">
        <ele>313</ele>
        <time>2018-07-19T10:12:43Z</time>
      </trkpt>
      <trkpt lat="45.90389" lon="4.60037">
        <ele>313</ele>
        <time>2018-07-19T10:12:44Z</time>
      </trkpt>
      <trkpt lat="45.90383" lon="4.60039">
        <ele>313</ele>
        <time>2018-07-19T10:12:45Z</time>
      </trkpt>
      <trkpt lat="45.90376" lon="4.60042">
        <ele>313</ele>
        <time>2018-07-19T10:12:46Z</time>
      </trkpt>
      <trkpt lat="45.90371" lon="4.60044">
        <ele>313</ele>
        <time>2018-07-19T10:12:47Z</time>
      </trkpt>
      <trkpt lat="45.90363" lon="4.60047">
        <ele>313</ele>
        <time>2018-07-19T10:12:48Z</time>
      </trkpt>
      <trkpt lat="45.90357" lon="4.60048">
        <ele>314</ele>
        <time>2018-07-19T10:12:49Z</time>
      </trkpt>
      <trkpt lat="45.90352" lon="4.60048">
        <ele>314</ele>
        <time>2018-07-19T10:12:50Z</time>
      </trkpt>
      <trkpt lat="45.90345" lon="4.60049">
        <ele>314</ele>
        <time>2018-07-19T10:12:51Z</time>
      </trkpt>
      <trkpt lat="45.9034" lon="4.60051">
        <ele>314</ele>
        <time>2018-07-19T10:12:52Z</time>
      </trkpt>
      <trkpt lat="45.90335" lon="4.60053">
        <ele>314</ele>
        <time>2018-07-19T10:12:53Z</time>
      </trkpt>
      <trkpt lat="45.90328" lon="4.60057">
        <ele>316</ele>
        <time>2018-07-19T10:12:54Z</time>
      </trkpt>
      <trkpt lat="45.90322" lon="4.60058">
        <ele>316</ele>
        <time>2018-07-19T10:12:55Z</time>
      </trkpt>
      <trkpt lat="45.90315" lon="4.6006">
        <ele>316</ele>
        <time>2018-07-19T10:12:56Z</time>
      </trkpt>
      <trkpt lat="45.90311" lon="4.6006">
        <ele>316</ele>
        <time>2018-07-19T10:12:57Z</time>
      </trkpt>
      <trkpt lat="45.90306" lon="4.60061">
        <ele>316</ele>
        <time>2018-07-19T10:12:58Z</time>
      </trkpt>
      <trkpt lat="45.90301" lon="4.60062">
        <ele>316</ele>
        <time>2018-07-19T10:12:59Z</time>
      </trkpt>
      <trkpt lat="45.90293" lon="4.60065">
        <ele>317</ele>
        <time>2018-07-19T10:13:00Z</time>
      </trkpt>
      <trkpt lat="45.90287" lon="4.60068">
        <ele>316</ele>
        <time>2018-07-19T10:13:01Z</time>
      </trkpt>
      <trkpt lat="45.90278" lon="4.60072">
        <ele>316</ele>
        <time>2018-07-19T10:13:02Z</time>
      </trkpt>
      <trkpt lat="45.9027" lon="4.60074">
        <ele>316</ele>
        <time>2018-07-19T10:13:04Z</time>
      </trkpt>
      <trkpt lat="45.90268" lon="4.60072">
        <ele>316</ele>
        <time>2018-07-19T10:13:05Z</time>
      </trkpt>
      <trkpt lat="45.90264" lon="4.60073">
        <ele>316</ele>
        <time>2018-07-19T10:13:06Z</time>
      </trkpt>
      <trkpt lat="45.90258" lon="4.60072">
        <ele>316</ele>
        <time>2018-07-19T10:13:07Z</time>
      </trkpt>
      <trkpt lat="45.90251" lon="4.60072">
        <ele>316</ele>
        <time>2018-07-19T10:13:08Z</time>
      </trkpt>
      <trkpt lat="45.90246" lon="4.60075">
        <ele>315</ele>
        <time>2018-07-19T10:13:09Z</time>
      </trkpt>
      <trkpt lat="45.90238" lon="4.60077">
        <ele>315</ele>
        <time>2018-07-19T10:13:10Z</time>
      </trkpt>
      <trkpt lat="45.90232" lon="4.60082">
        <ele>315</ele>
        <time>2018-07-19T10:13:11Z</time>
      </trkpt>
      <trkpt lat="45.90227" lon="4.60085">
        <ele>310</ele>
        <time>2018-07-19T10:13:12Z</time>
      </trkpt>
      <trkpt lat="45.90221" lon="4.60088">
        <ele>309</ele>
        <time>2018-07-19T10:13:13Z</time>
      </trkpt>
      <trkpt lat="45.90214" lon="4.6009">
        <ele>309</ele>
        <time>2018-07-19T10:13:14Z</time>
      </trkpt>
      <trkpt lat="45.90205" lon="4.60095">
        <ele>308</ele>
        <time>2018-07-19T10:13:15Z</time>
      </trkpt>
      <trkpt lat="45.90199" lon="4.60096">
        <ele>308</ele>
        <time>2018-07-19T10:13:16Z</time>
      </trkpt>
      <trkpt lat="45.90192" lon="4.60098">
        <ele>308</ele>
        <time>2018-07-19T10:13:17Z</time>
      </trkpt>
      <trkpt lat="45.90184" lon="4.601">
        <ele>308</ele>
        <time>2018-07-19T10:13:18Z</time>
      </trkpt>
      <trkpt lat="45.90178" lon="4.60102">
        <ele>308</ele>
        <time>2018-07-19T10:13:19Z</time>
      </trkpt>
      <trkpt lat="45.90171" lon="4.60104">
        <ele>307</ele>
        <time>2018-07-19T10:13:20Z</time>
      </trkpt>
      <trkpt lat="45.90163" lon="4.60108">
        <ele>306</ele>
        <time>2018-07-19T10:13:21Z</time>
      </trkpt>
      <trkpt lat="45.90157" lon="4.6011">
        <ele>306</ele>
        <time>2018-07-19T10:13:22Z</time>
      </trkpt>
      <trkpt lat="45.90151" lon="4.60111">
        <ele>306</ele>
        <time>2018-07-19T10:13:23Z</time>
      </trkpt>
      <trkpt lat="45.90145" lon="4.60113">
        <ele>306</ele>
        <time>2018-07-19T10:13:24Z</time>
      </trkpt>
      <trkpt lat="45.90139" lon="4.60115">
        <ele>306</ele>
        <time>2018-07-19T10:13:25Z</time>
      </trkpt>
      <trkpt lat="45.90132" lon="4.60117">
        <ele>306</ele>
        <time>2018-07-19T10:13:26Z</time>
      </trkpt>
      <trkpt lat="45.90127" lon="4.60117">
        <ele>306</ele>
        <time>2018-07-19T10:13:27Z</time>
      </trkpt>
      <trkpt lat="45.90121" lon="4.6012">
        <ele>305</ele>
        <time>2018-07-19T10:13:28Z</time>
      </trkpt>
      <trkpt lat="45.90115" lon="4.60122">
        <ele>305</ele>
        <time>2018-07-19T10:13:29Z</time>
      </trkpt>
      <trkpt lat="45.9011" lon="4.60124">
        <ele>305</ele>
        <time>2018-07-19T10:13:30Z</time>
      </trkpt>
      <trkpt lat="45.90104" lon="4.60127">
        <ele>305</ele>
        <time>2018-07-19T10:13:31Z</time>
      </trkpt>
      <trkpt lat="45.90097" lon="4.60128">
        <ele>305</ele>
        <time>2018-07-19T10:13:32Z</time>
      </trkpt>
      <trkpt lat="45.9009" lon="4.6013">
        <ele>305</ele>
        <time>2018-07-19T10:13:33Z</time>
      </trkpt>
      <trkpt lat="45.90082" lon="4.60133">
        <ele>305</ele>
        <time>2018-07-19T10:13:34Z</time>
      </trkpt>
      <trkpt lat="45.90076" lon="4.60135">
        <ele>305</ele>
        <time>2018-07-19T10:13:35Z</time>
      </trkpt>
      <trkpt lat="45.90069" lon="4.60137">
        <ele>305</ele>
        <time>2018-07-19T10:13:36Z</time>
      </trkpt>
      <trkpt lat="45.90063" lon="4.60137">
        <ele>305</ele>
        <time>2018-07-19T10:13:37Z</time>
      </trkpt>
      <trkpt lat="45.90057" lon="4.60139">
        <ele>305</ele>
        <time>2018-07-19T10:13:38Z</time>
      </trkpt>
      <trkpt lat="45.90051" lon="4.60142">
        <ele>305</ele>
        <time>2018-07-19T10:13:39Z</time>
      </trkpt>
      <trkpt lat="45.90044" lon="4.60143">
        <ele>305</ele>
        <time>2018-07-19T10:13:40Z</time>
      </trkpt>
      <trkpt lat="45.90037" lon="4.60145">
        <ele>305</ele>
        <time>2018-07-19T10:13:41Z</time>
      </trkpt>
      <trkpt lat="45.90031" lon="4.60147">
        <ele>305</ele>
        <time>2018-07-19T10:13:42Z</time>
      </trkpt>
      <trkpt lat="45.90025" lon="4.60148">
        <ele>305</ele>
        <time>2018-07-19T10:13:43Z</time>
      </trkpt>
      <trkpt lat="45.90018" lon="4.6015">
        <ele>305</ele>
        <time>2018-07-19T10:13:44Z</time>
      </trkpt>
      <trkpt lat="45.90013" lon="4.60151">
        <ele>305</ele>
        <time>2018-07-19T10:13:45Z</time>
      </trkpt>
      <trkpt lat="45.90007" lon="4.60152">
        <ele>305</ele>
        <time>2018-07-19T10:13:46Z</time>
      </trkpt>
      <trkpt lat="45.9" lon="4.60155">
        <ele>305</ele>
        <time>2018-07-19T10:13:47Z</time>
      </trkpt>
      <trkpt lat="45.89995" lon="4.60157">
        <ele>304</ele>
        <time>2018-07-19T10:13:48Z</time>
      </trkpt>
      <trkpt lat="45.89988" lon="4.60158">
        <ele>304</ele>
        <time>2018-07-19T10:13:49Z</time>
      </trkpt>
      <trkpt lat="45.89982" lon="4.60161">
        <ele>304</ele>
        <time>2018-07-19T10:13:50Z</time>
      </trkpt>
      <trkpt lat="45.89975" lon="4.60163">
        <ele>304</ele>
        <time>2018-07-19T10:13:51Z</time>
      </trkpt>
      <trkpt lat="45.89968" lon="4.60165">
        <ele>304</ele>
        <time>2018-07-19T10:13:52Z</time>
      </trkpt>
      <trkpt lat="45.89962" lon="4.60167">
        <ele>302</ele>
        <time>2018-07-19T10:13:53Z</time>
      </trkpt>
      <trkpt lat="45.89954" lon="4.60169">
        <ele>302</ele>
        <time>2018-07-19T10:13:54Z</time>
      </trkpt>
      <trkpt lat="45.89948" lon="4.60171">
        <ele>302</ele>
        <time>2018-07-19T10:13:55Z</time>
      </trkpt>
      <trkpt lat="45.89941" lon="4.60172">
        <ele>302</ele>
        <time>2018-07-19T10:13:56Z</time>
      </trkpt>
      <trkpt lat="45.89935" lon="4.60174">
        <ele>302</ele>
        <time>2018-07-19T10:13:57Z</time>
      </trkpt>
      <trkpt lat="45.89928" lon="4.60175">
        <ele>302</ele>
        <time>2018-07-19T10:13:58Z</time>
      </trkpt>
      <trkpt lat="45.89921" lon="4.60177">
        <ele>302</ele>
        <time>2018-07-19T10:13:59Z</time>
      </trkpt>
      <trkpt lat="45.89914" lon="4.60179">
        <ele>302</ele>
        <time>2018-07-19T10:14:00Z</time>
      </trkpt>
      <trkpt lat="45.89906" lon="4.60181">
        <ele>302</ele>
        <time>2018-07-19T10:14:01Z</time>
      </trkpt>
      <trkpt lat="45.89899" lon="4.60183">
        <ele>302</ele>
        <time>2018-07-19T10:14:02Z</time>
      </trkpt>
      <trkpt lat="45.89893" lon="4.60185">
        <ele>302</ele>
        <time>2018-07-19T10:14:03Z</time>
      </trkpt>
      <trkpt lat="45.89887" lon="4.60187">
        <ele>301</ele>
        <time>2018-07-19T10:14:04Z</time>
      </trkpt>
      <trkpt lat="45.89878" lon="4.60189">
        <ele>301</ele>
        <time>2018-07-19T10:14:05Z</time>
      </trkpt>
      <trkpt lat="45.89871" lon="4.60191">
        <ele>301</ele>
        <time>2018-07-19T10:14:06Z</time>
      </trkpt>
      <trkpt lat="45.89863" lon="4.60195">
        <ele>301</ele>
        <time>2018-07-19T10:14:07Z</time>
      </trkpt>
      <trkpt lat="45.89856" lon="4.60195">
        <ele>301</ele>
        <time>2018-07-19T10:14:08Z</time>
      </trkpt>
      <trkpt lat="45.89848" lon="4.60198">
        <ele>301</ele>
        <time>2018-07-19T10:14:09Z</time>
      </trkpt>
      <trkpt lat="45.89842" lon="4.60202">
        <ele>301</ele>
        <time>2018-07-19T10:14:10Z</time>
      </trkpt>
      <trkpt lat="45.89835" lon="4.60205">
        <ele>301</ele>
        <time>2018-07-19T10:14:11Z</time>
      </trkpt>
      <trkpt lat="45.89827" lon="4.60208">
        <ele>301</ele>
        <time>2018-07-19T10:14:12Z</time>
      </trkpt>
      <trkpt lat="45.8982" lon="4.60209">
        <ele>301</ele>
        <time>2018-07-19T10:14:13Z</time>
      </trkpt>
      <trkpt lat="45.89813" lon="4.60212">
        <ele>301</ele>
        <time>2018-07-19T10:14:14Z</time>
      </trkpt>
      <trkpt lat="45.89807" lon="4.60212">
        <ele>301</ele>
        <time>2018-07-19T10:14:15Z</time>
      </trkpt>
      <trkpt lat="45.898" lon="4.60215">
        <ele>301</ele>
        <time>2018-07-19T10:14:16Z</time>
      </trkpt>
      <trkpt lat="45.89792" lon="4.60216">
        <ele>301</ele>
        <time>2018-07-19T10:14:17Z</time>
      </trkpt>
      <trkpt lat="45.89785" lon="4.60217">
        <ele>301</ele>
        <time>2018-07-19T10:14:18Z</time>
      </trkpt>
      <trkpt lat="45.89779" lon="4.60219">
        <ele>301</ele>
        <time>2018-07-19T10:14:19Z</time>
      </trkpt>
      <trkpt lat="45.89771" lon="4.60224">
        <ele>301</ele>
        <time>2018-07-19T10:14:20Z</time>
      </trkpt>
      <trkpt lat="45.89765" lon="4.60226">
        <ele>301</ele>
        <time>2018-07-19T10:14:21Z</time>
      </trkpt>
      <trkpt lat="45.89758" lon="4.60228">
        <ele>301</ele>
        <time>2018-07-19T10:14:22Z</time>
      </trkpt>
      <trkpt lat="45.89752" lon="4.6023">
        <ele>301</ele>
        <time>2018-07-19T10:14:23Z</time>
      </trkpt>
      <trkpt lat="45.89745" lon="4.60232">
        <ele>300</ele>
        <time>2018-07-19T10:14:24Z</time>
      </trkpt>
      <trkpt lat="45.89739" lon="4.60234">
        <ele>300</ele>
        <time>2018-07-19T10:14:25Z</time>
      </trkpt>
      <trkpt lat="45.89733" lon="4.60236">
        <ele>300</ele>
        <time>2018-07-19T10:14:26Z</time>
      </trkpt>
      <trkpt lat="45.89727" lon="4.60239">
        <ele>299</ele>
        <time>2018-07-19T10:14:27Z</time>
      </trkpt>
      <trkpt lat="45.89721" lon="4.60243">
        <ele>299</ele>
        <time>2018-07-19T10:14:28Z</time>
      </trkpt>
      <trkpt lat="45.89715" lon="4.60247">
        <ele>298</ele>
        <time>2018-07-19T10:14:29Z</time>
      </trkpt>
      <trkpt lat="45.89709" lon="4.60251">
        <ele>297</ele>
        <time>2018-07-19T10:14:30Z</time>
      </trkpt>
      <trkpt lat="45.89702" lon="4.60255">
        <ele>297</ele>
        <time>2018-07-19T10:14:31Z</time>
      </trkpt>
      <trkpt lat="45.89695" lon="4.60258">
        <ele>296</ele>
        <time>2018-07-19T10:14:32Z</time>
      </trkpt>
      <trkpt lat="45.89688" lon="4.60263">
        <ele>296</ele>
        <time>2018-07-19T10:14:33Z</time>
      </trkpt>
      <trkpt lat="45.89681" lon="4.60266">
        <ele>296</ele>
        <time>2018-07-19T10:14:34Z</time>
      </trkpt>
      <trkpt lat="45.89672" lon="4.60267">
        <ele>295</ele>
        <time>2018-07-19T10:14:35Z</time>
      </trkpt>
      <trkpt lat="45.89663" lon="4.6027">
        <ele>292</ele>
        <time>2018-07-19T10:14:36Z</time>
      </trkpt>
      <trkpt lat="45.89656" lon="4.60272">
        <ele>292</ele>
        <time>2018-07-19T10:14:37Z</time>
      </trkpt>
      <trkpt lat="45.89647" lon="4.60274">
        <ele>292</ele>
        <time>2018-07-19T10:14:38Z</time>
      </trkpt>
      <trkpt lat="45.89639" lon="4.60276">
        <ele>291</ele>
        <time>2018-07-19T10:14:39Z</time>
      </trkpt>
      <trkpt lat="45.89631" lon="4.60277">
        <ele>291</ele>
        <time>2018-07-19T10:14:40Z</time>
      </trkpt>
      <trkpt lat="45.89623" lon="4.60279">
        <ele>291</ele>
        <time>2018-07-19T10:14:41Z</time>
      </trkpt>
      <trkpt lat="45.89614" lon="4.60283">
        <ele>290</ele>
        <time>2018-07-19T10:14:42Z</time>
      </trkpt>
      <trkpt lat="45.89605" lon="4.60285">
        <ele>290</ele>
        <time>2018-07-19T10:14:43Z</time>
      </trkpt>
      <trkpt lat="45.89596" lon="4.60287">
        <ele>290</ele>
        <time>2018-07-19T10:14:44Z</time>
      </trkpt>
      <trkpt lat="45.89587" lon="4.60289">
        <ele>290</ele>
        <time>2018-07-19T10:14:45Z</time>
      </trkpt>
      <trkpt lat="45.89578" lon="4.60291">
        <ele>286</ele>
        <time>2018-07-19T10:14:46Z</time>
      </trkpt>
      <trkpt lat="45.89568" lon="4.60294">
        <ele>286</ele>
        <time>2018-07-19T10:14:47Z</time>
      </trkpt>
      <trkpt lat="45.89559" lon="4.60297">
        <ele>285</ele>
        <time>2018-07-19T10:14:48Z</time>
      </trkpt>
      <trkpt lat="45.89548" lon="4.603">
        <ele>285</ele>
        <time>2018-07-19T10:14:49Z</time>
      </trkpt>
      <trkpt lat="45.89539" lon="4.603">
        <ele>285</ele>
        <time>2018-07-19T10:14:50Z</time>
      </trkpt>
      <trkpt lat="45.89529" lon="4.603">
        <ele>284</ele>
        <time>2018-07-19T10:14:51Z</time>
      </trkpt>
      <trkpt lat="45.89519" lon="4.603">
        <ele>284</ele>
        <time>2018-07-19T10:14:52Z</time>
      </trkpt>
      <trkpt lat="45.89509" lon="4.60298">
        <ele>284</ele>
        <time>2018-07-19T10:14:53Z</time>
      </trkpt>
      <trkpt lat="45.89499" lon="4.60298">
        <ele>281</ele>
        <time>2018-07-19T10:14:54Z</time>
      </trkpt>
      <trkpt lat="45.8949" lon="4.60296">
        <ele>281</ele>
        <time>2018-07-19T10:14:55Z</time>
      </trkpt>
      <trkpt lat="45.89479" lon="4.60296">
        <ele>280</ele>
        <time>2018-07-19T10:14:56Z</time>
      </trkpt>
      <trkpt lat="45.89469" lon="4.60295">
        <ele>280</ele>
        <time>2018-07-19T10:14:57Z</time>
      </trkpt>
      <trkpt lat="45.89459" lon="4.60294">
        <ele>280</ele>
        <time>2018-07-19T10:14:58Z</time>
      </trkpt>
      <trkpt lat="45.89449" lon="4.60293">
        <ele>280</ele>
        <time>2018-07-19T10:14:59Z</time>
      </trkpt>
      <trkpt lat="45.89438" lon="4.60293">
        <ele>280</ele>
        <time>2018-07-19T10:15:00Z</time>
      </trkpt>
      <trkpt lat="45.89428" lon="4.60292">
        <ele>279</ele>
        <time>2018-07-19T10:15:01Z</time>
      </trkpt>
      <trkpt lat="45.89418" lon="4.60291">
        <ele>279</ele>
        <time>2018-07-19T10:15:02Z</time>
      </trkpt>
      <trkpt lat="45.89408" lon="4.6029">
        <ele>276</ele>
        <time>2018-07-19T10:15:03Z</time>
      </trkpt>
      <trkpt lat="45.89399" lon="4.60288">
        <ele>276</ele>
        <time>2018-07-19T10:15:04Z</time>
      </trkpt>
      <trkpt lat="45.8939" lon="4.60287">
        <ele>276</ele>
        <time>2018-07-19T10:15:05Z</time>
      </trkpt>
      <trkpt lat="45.89381" lon="4.60286">
        <ele>275</ele>
        <time>2018-07-19T10:15:06Z</time>
      </trkpt>
      <trkpt lat="45.89372" lon="4.60284">
        <ele>275</ele>
        <time>2018-07-19T10:15:07Z</time>
      </trkpt>
      <trkpt lat="45.89362" lon="4.60284">
        <ele>275</ele>
        <time>2018-07-19T10:15:08Z</time>
      </trkpt>
      <trkpt lat="45.89353" lon="4.60283">
        <ele>274</ele>
        <time>2018-07-19T10:15:09Z</time>
      </trkpt>
      <trkpt lat="45.89344" lon="4.60281">
        <ele>274</ele>
        <time>2018-07-19T10:15:10Z</time>
      </trkpt>
      <trkpt lat="45.89335" lon="4.6028">
        <ele>274</ele>
        <time>2018-07-19T10:15:11Z</time>
      </trkpt>
      <trkpt lat="45.89326" lon="4.6028">
        <ele>269</ele>
        <time>2018-07-19T10:15:12Z</time>
      </trkpt>
      <trkpt lat="45.89318" lon="4.6028">
        <ele>268</ele>
        <time>2018-07-19T10:15:13Z</time>
      </trkpt>
      <trkpt lat="45.89309" lon="4.60281">
        <ele>268</ele>
        <time>2018-07-19T10:15:14Z</time>
      </trkpt>
      <trkpt lat="45.893" lon="4.6028">
        <ele>267</ele>
        <time>2018-07-19T10:15:15Z</time>
      </trkpt>
      <trkpt lat="45.8929" lon="4.60285">
        <ele>266</ele>
        <time>2018-07-19T10:15:16Z</time>
      </trkpt>
      <trkpt lat="45.89286" lon="4.60281">
        <ele>266</ele>
        <time>2018-07-19T10:15:17Z</time>
      </trkpt>
      <trkpt lat="45.89278" lon="4.60284">
        <ele>265</ele>
        <time>2018-07-19T10:15:18Z</time>
      </trkpt>
      <trkpt lat="45.89266" lon="4.60292">
        <ele>265</ele>
        <time>2018-07-19T10:15:19Z</time>
      </trkpt>
      <trkpt lat="45.89254" lon="4.603">
        <ele>264</ele>
        <time>2018-07-19T10:15:20Z</time>
      </trkpt>
      <trkpt lat="45.89245" lon="4.60305">
        <ele>257</ele>
        <time>2018-07-19T10:15:21Z</time>
      </trkpt>
      <trkpt lat="45.89237" lon="4.60309">
        <ele>257</ele>
        <time>2018-07-19T10:15:22Z</time>
      </trkpt>
      <trkpt lat="45.89228" lon="4.60312">
        <ele>257</ele>
        <time>2018-07-19T10:15:23Z</time>
      </trkpt>
      <trkpt lat="45.8922" lon="4.60316">
        <ele>256</ele>
        <time>2018-07-19T10:15:24Z</time>
      </trkpt>
      <trkpt lat="45.8921" lon="4.60321">
        <ele>256</ele>
        <time>2018-07-19T10:15:25Z</time>
      </trkpt>
      <trkpt lat="45.89202" lon="4.60324">
        <ele>255</ele>
        <time>2018-07-19T10:15:26Z</time>
      </trkpt>
      <trkpt lat="45.89194" lon="4.60328">
        <ele>254</ele>
        <time>2018-07-19T10:15:27Z</time>
      </trkpt>
      <trkpt lat="45.89184" lon="4.60332">
        <ele>253</ele>
        <time>2018-07-19T10:15:28Z</time>
      </trkpt>
      <trkpt lat="45.89176" lon="4.60335">
        <ele>252</ele>
        <time>2018-07-19T10:15:29Z</time>
      </trkpt>
      <trkpt lat="45.89169" lon="4.60337">
        <ele>252</ele>
        <time>2018-07-19T10:15:30Z</time>
      </trkpt>
      <trkpt lat="45.89163" lon="4.60339">
        <ele>250</ele>
        <time>2018-07-19T10:15:31Z</time>
      </trkpt>
      <trkpt lat="45.89155" lon="4.60342">
        <ele>250</ele>
        <time>2018-07-19T10:15:32Z</time>
      </trkpt>
      <trkpt lat="45.89148" lon="4.60346">
        <ele>249</ele>
        <time>2018-07-19T10:15:33Z</time>
      </trkpt>
      <trkpt lat="45.89141" lon="4.60349">
        <ele>248</ele>
        <time>2018-07-19T10:15:34Z</time>
      </trkpt>
      <trkpt lat="45.89134" lon="4.60351">
        <ele>248</ele>
        <time>2018-07-19T10:15:35Z</time>
      </trkpt>
      <trkpt lat="45.89129" lon="4.60352">
        <ele>248</ele>
        <time>2018-07-19T10:15:36Z</time>
      </trkpt>
      <trkpt lat="45.89121" lon="4.6035">
        <ele>247</ele>
        <time>2018-07-19T10:15:38Z</time>
      </trkpt>
      <trkpt lat="45.89116" lon="4.60348">
        <ele>247</ele>
        <time>2018-07-19T10:15:39Z</time>
      </trkpt>
      <trkpt lat="45.89111" lon="4.60348">
        <ele>247</ele>
        <time>2018-07-19T10:15:40Z</time>
      </trkpt>
      <trkpt lat="45.89106" lon="4.6035">
        <ele>246</ele>
        <time>2018-07-19T10:15:41Z</time>
      </trkpt>
      <trkpt lat="45.89101" lon="4.60348">
        <ele>246</ele>
        <time>2018-07-19T10:15:42Z</time>
      </trkpt>
      <trkpt lat="45.89096" lon="4.60347">
        <ele>245</ele>
        <time>2018-07-19T10:15:43Z</time>
      </trkpt>
      <trkpt lat="45.89088" lon="4.60346">
        <ele>245</ele>
        <time>2018-07-19T10:15:46Z</time>
      </trkpt>
      <trkpt lat="45.89087" lon="4.60346">
        <ele>245</ele>
        <time>2018-07-19T10:15:47Z</time>
      </trkpt>
      <trkpt lat="45.89082" lon="4.60343">
        <ele>243</ele>
        <time>2018-07-19T10:15:50Z</time>
      </trkpt>
      <trkpt lat="45.89081" lon="4.60343">
        <ele>243</ele>
        <time>2018-07-19T10:15:51Z</time>
      </trkpt>
      <trkpt lat="45.89081" lon="4.60343">
        <ele>243</ele>
        <time>2018-07-19T10:15:52Z</time>
      </trkpt>
      <trkpt lat="45.8908" lon="4.60344">
        <ele>243</ele>
        <time>2018-07-19T10:15:53Z</time>
      </trkpt>
      <trkpt lat="45.89073" lon="4.60345">
        <ele>243</ele>
        <time>2018-07-19T10:15:58Z</time>
      </trkpt>
      <trkpt lat="45.89071" lon="4.60347">
        <ele>243</ele>
        <time>2018-07-19T10:15:59Z</time>
      </trkpt>
      <trkpt lat="45.89067" lon="4.60355">
        <ele>243</ele>
        <time>2018-07-19T10:16:02Z</time>
      </trkpt>
      <trkpt lat="45.89064" lon="4.60368">
        <ele>243</ele>
        <time>2018-07-19T10:16:03Z</time>
      </trkpt>
      <trkpt lat="45.89063" lon="4.60376">
        <ele>243</ele>
        <time>2018-07-19T10:16:05Z</time>
      </trkpt>
      <trkpt lat="45.89062" lon="4.60384">
        <ele>243</ele>
        <time>2018-07-19T10:16:06Z</time>
      </trkpt>
      <trkpt lat="45.8906" lon="4.60396">
        <ele>244</ele>
        <time>2018-07-19T10:16:08Z</time>
      </trkpt>
      <trkpt lat="45.89058" lon="4.60401">
        <ele>244</ele>
        <time>2018-07-19T10:16:09Z</time>
      </trkpt>
      <trkpt lat="45.89058" lon="4.60408">
        <ele>244</ele>
        <time>2018-07-19T10:16:10Z</time>
      </trkpt>
      <trkpt lat="45.89057" lon="4.60415">
        <ele>244</ele>
        <time>2018-07-19T10:16:11Z</time>
      </trkpt>
      <trkpt lat="45.89055" lon="4.60423">
        <ele>244</ele>
        <time>2018-07-19T10:16:12Z</time>
      </trkpt>
      <trkpt lat="45.89054" lon="4.60432">
        <ele>244</ele>
        <time>2018-07-19T10:16:13Z</time>
      </trkpt>
      <trkpt lat="45.89052" lon="4.60441">
        <ele>244</ele>
        <time>2018-07-19T10:16:14Z</time>
      </trkpt>
      <trkpt lat="45.8905" lon="4.60448">
        <ele>243</ele>
        <time>2018-07-19T10:16:15Z</time>
      </trkpt>
      <trkpt lat="45.89048" lon="4.60462">
        <ele>243</ele>
        <time>2018-07-19T10:16:16Z</time>
      </trkpt>
      <trkpt lat="45.89046" lon="4.60472">
        <ele>243</ele>
        <time>2018-07-19T10:16:17Z</time>
      </trkpt>
      <trkpt lat="45.89044" lon="4.60483">
        <ele>243</ele>
        <time>2018-07-19T10:16:18Z</time>
      </trkpt>
      <trkpt lat="45.89042" lon="4.60495">
        <ele>243</ele>
        <time>2018-07-19T10:16:19Z</time>
      </trkpt>
      <trkpt lat="45.8904" lon="4.60504">
        <ele>241</ele>
        <time>2018-07-19T10:16:20Z</time>
      </trkpt>
      <trkpt lat="45.89037" lon="4.60514">
        <ele>241</ele>
        <time>2018-07-19T10:16:21Z</time>
      </trkpt>
      <trkpt lat="45.89034" lon="4.60526">
        <ele>241</ele>
        <time>2018-07-19T10:16:22Z</time>
      </trkpt>
      <trkpt lat="45.89031" lon="4.60536">
        <ele>241</ele>
        <time>2018-07-19T10:16:23Z</time>
      </trkpt>
      <trkpt lat="45.89028" lon="4.60546">
        <ele>241</ele>
        <time>2018-07-19T10:16:24Z</time>
      </trkpt>
      <trkpt lat="45.89026" lon="4.60557">
        <ele>240</ele>
        <time>2018-07-19T10:16:25Z</time>
      </trkpt>
      <trkpt lat="45.89022" lon="4.60568">
        <ele>240</ele>
        <time>2018-07-19T10:16:26Z</time>
      </trkpt>
      <trkpt lat="45.89019" lon="4.60579">
        <ele>240</ele>
        <time>2018-07-19T10:16:27Z</time>
      </trkpt>
      <trkpt lat="45.89016" lon="4.6059">
        <ele>239</ele>
        <time>2018-07-19T10:16:28Z</time>
      </trkpt>
      <trkpt lat="45.89012" lon="4.60601">
        <ele>239</ele>
        <time>2018-07-19T10:16:29Z</time>
      </trkpt>
      <trkpt lat="45.8901" lon="4.60614">
        <ele>239</ele>
        <time>2018-07-19T10:16:30Z</time>
      </trkpt>
      <trkpt lat="45.89006" lon="4.60624">
        <ele>239</ele>
        <time>2018-07-19T10:16:31Z</time>
      </trkpt>
      <trkpt lat="45.89003" lon="4.60636">
        <ele>239</ele>
        <time>2018-07-19T10:16:32Z</time>
      </trkpt>
      <trkpt lat="45.88999" lon="4.60647">
        <ele>237</ele>
        <time>2018-07-19T10:16:33Z</time>
      </trkpt>
      <trkpt lat="45.88994" lon="4.60658">
        <ele>237</ele>
        <time>2018-07-19T10:16:34Z</time>
      </trkpt>
      <trkpt lat="45.8899" lon="4.60669">
        <ele>237</ele>
        <time>2018-07-19T10:16:35Z</time>
      </trkpt>
      <trkpt lat="45.88986" lon="4.6068">
        <ele>237</ele>
        <time>2018-07-19T10:16:36Z</time>
      </trkpt>
      <trkpt lat="45.88982" lon="4.60691">
        <ele>236</ele>
        <time>2018-07-19T10:16:37Z</time>
      </trkpt>
      <trkpt lat="45.88977" lon="4.60702">
        <ele>236</ele>
        <time>2018-07-19T10:16:38Z</time>
      </trkpt>
      <trkpt lat="45.88973" lon="4.60713">
        <ele>235</ele>
        <time>2018-07-19T10:16:39Z</time>
      </trkpt>
      <trkpt lat="45.8897" lon="4.60723">
        <ele>235</ele>
        <time>2018-07-19T10:16:40Z</time>
      </trkpt>
      <trkpt lat="45.88965" lon="4.60734">
        <ele>235</ele>
        <time>2018-07-19T10:16:41Z</time>
      </trkpt>
      <trkpt lat="45.88961" lon="4.60744">
        <ele>235</ele>
        <time>2018-07-19T10:16:42Z</time>
      </trkpt>
      <trkpt lat="45.88957" lon="4.60755">
        <ele>234</ele>
        <time>2018-07-19T10:16:43Z</time>
      </trkpt>
      <trkpt lat="45.88954" lon="4.60766">
        <ele>234</ele>
        <time>2018-07-19T10:16:44Z</time>
      </trkpt>
      <trkpt lat="45.88951" lon="4.60777">
        <ele>234</ele>
        <time>2018-07-19T10:16:45Z</time>
      </trkpt>
      <trkpt lat="45.88947" lon="4.60787">
        <ele>234</ele>
        <time>2018-07-19T10:16:46Z</time>
      </trkpt>
      <trkpt lat="45.88943" lon="4.60797">
        <ele>233</ele>
        <time>2018-07-19T10:16:47Z</time>
      </trkpt>
      <trkpt lat="45.88939" lon="4.60808">
        <ele>233</ele>
        <time>2018-07-19T10:16:48Z</time>
      </trkpt>
      <trkpt lat="45.88935" lon="4.60819">
        <ele>232</ele>
        <time>2018-07-19T10:16:49Z</time>
      </trkpt>
      <trkpt lat="45.88931" lon="4.6083">
        <ele>231</ele>
        <time>2018-07-19T10:16:50Z</time>
      </trkpt>
      <trkpt lat="45.88927" lon="4.60842">
        <ele>231</ele>
        <time>2018-07-19T10:16:51Z</time>
      </trkpt>
      <trkpt lat="45.88922" lon="4.60852">
        <ele>231</ele>
        <time>2018-07-19T10:16:52Z</time>
      </trkpt>
      <trkpt lat="45.88919" lon="4.60863">
        <ele>232</ele>
        <time>2018-07-19T10:16:53Z</time>
      </trkpt>
      <trkpt lat="45.88915" lon="4.60874">
        <ele>229</ele>
        <time>2018-07-19T10:16:54Z</time>
      </trkpt>
      <trkpt lat="45.88911" lon="4.60884">
        <ele>229</ele>
        <time>2018-07-19T10:16:55Z</time>
      </trkpt>
      <trkpt lat="45.88907" lon="4.60896">
        <ele>229</ele>
        <time>2018-07-19T10:16:56Z</time>
      </trkpt>
      <trkpt lat="45.88905" lon="4.60906">
        <ele>229</ele>
        <time>2018-07-19T10:16:57Z</time>
      </trkpt>
      <trkpt lat="45.88902" lon="4.60917">
        <ele>229</ele>
        <time>2018-07-19T10:16:58Z</time>
      </trkpt>
      <trkpt lat="45.88899" lon="4.60928">
        <ele>229</ele>
        <time>2018-07-19T10:16:59Z</time>
      </trkpt>
      <trkpt lat="45.88896" lon="4.6094">
        <ele>229</ele>
        <time>2018-07-19T10:17:00Z</time>
      </trkpt>
      <trkpt lat="45.88893" lon="4.60951">
        <ele>229</ele>
        <time>2018-07-19T10:17:01Z</time>
      </trkpt>
      <trkpt lat="45.88891" lon="4.6096">
        <ele>229</ele>
        <time>2018-07-19T10:17:02Z</time>
      </trkpt>
      <trkpt lat="45.88889" lon="4.60972">
        <ele>229</ele>
        <time>2018-07-19T10:17:03Z</time>
      </trkpt>
      <trkpt lat="45.88886" lon="4.6098">
        <ele>229</ele>
        <time>2018-07-19T10:17:04Z</time>
      </trkpt>
      <trkpt lat="45.88884" lon="4.60992">
        <ele>229</ele>
        <time>2018-07-19T10:17:05Z</time>
      </trkpt>
      <trkpt lat="45.88883" lon="4.61005">
        <ele>229</ele>
        <time>2018-07-19T10:17:06Z</time>
      </trkpt>
      <trkpt lat="45.88882" lon="4.61016">
        <ele>229</ele>
        <time>2018-07-19T10:17:07Z</time>
      </trkpt>
      <trkpt lat="45.8888" lon="4.61027">
        <ele>229</ele>
        <time>2018-07-19T10:17:08Z</time>
      </trkpt>
      <trkpt lat="45.8888" lon="4.61037">
        <ele>229</ele>
        <time>2018-07-19T10:17:09Z</time>
      </trkpt>
      <trkpt lat="45.88879" lon="4.61047">
        <ele>229</ele>
        <time>2018-07-19T10:17:10Z</time>
      </trkpt>
      <trkpt lat="45.88878" lon="4.61057">
        <ele>229</ele>
        <time>2018-07-19T10:17:11Z</time>
      </trkpt>
      <trkpt lat="45.88879" lon="4.61067">
        <ele>229</ele>
        <time>2018-07-19T10:17:12Z</time>
      </trkpt>
      <trkpt lat="45.8888" lon="4.61078">
        <ele>229</ele>
        <time>2018-07-19T10:17:13Z</time>
      </trkpt>
      <trkpt lat="45.8888" lon="4.61087">
        <ele>229</ele>
        <time>2018-07-19T10:17:14Z</time>
      </trkpt>
      <trkpt lat="45.8888" lon="4.61096">
        <ele>229</ele>
        <time>2018-07-19T10:17:15Z</time>
      </trkpt>
      <trkpt lat="45.88881" lon="4.61105">
        <ele>228</ele>
        <time>2018-07-19T10:17:16Z</time>
      </trkpt>
      <trkpt lat="45.8888" lon="4.61114">
        <ele>228</ele>
        <time>2018-07-19T10:17:17Z</time>
      </trkpt>
      <trkpt lat="45.8888" lon="4.61123">
        <ele>228</ele>
        <time>2018-07-19T10:17:18Z</time>
      </trkpt>
      <trkpt lat="45.88879" lon="4.61132">
        <ele>228</ele>
        <time>2018-07-19T10:17:19Z</time>
      </trkpt>
      <trkpt lat="45.88879" lon="4.61141">
        <ele>228</ele>
        <time>2018-07-19T10:17:20Z</time>
      </trkpt>
      <trkpt lat="45.88879" lon="4.61152">
        <ele>228</ele>
        <time>2018-07-19T10:17:21Z</time>
      </trkpt>
      <trkpt lat="45.88879" lon="4.61161">
        <ele>228</ele>
        <time>2018-07-19T10:17:22Z</time>
      </trkpt>
      <trkpt lat="45.8888" lon="4.61171">
        <ele>227</ele>
        <time>2018-07-19T10:17:23Z</time>
      </trkpt>
      <trkpt lat="45.88879" lon="4.61179">
        <ele>226</ele>
        <time>2018-07-19T10:17:24Z</time>
      </trkpt>
      <trkpt lat="45.88879" lon="4.61188">
        <ele>226</ele>
        <time>2018-07-19T10:17:25Z</time>
      </trkpt>
      <trkpt lat="45.88879" lon="4.61196">
        <ele>226</ele>
        <time>2018-07-19T10:17:26Z</time>
      </trkpt>
      <trkpt lat="45.88879" lon="4.61204">
        <ele>226</ele>
        <time>2018-07-19T10:17:27Z</time>
      </trkpt>
      <trkpt lat="45.88879" lon="4.61212">
        <ele>226</ele>
        <time>2018-07-19T10:17:28Z</time>
      </trkpt>
      <trkpt lat="45.88878" lon="4.6122">
        <ele>226</ele>
        <time>2018-07-19T10:17:29Z</time>
      </trkpt>
      <trkpt lat="45.88878" lon="4.61229">
        <ele>226</ele>
        <time>2018-07-19T10:17:30Z</time>
      </trkpt>
      <trkpt lat="45.88878" lon="4.61238">
        <ele>226</ele>
        <time>2018-07-19T10:17:31Z</time>
      </trkpt>
      <trkpt lat="45.88877" lon="4.61246">
        <ele>226</ele>
        <time>2018-07-19T10:17:32Z</time>
      </trkpt>
      <trkpt lat="45.88876" lon="4.61256">
        <ele>226</ele>
        <time>2018-07-19T10:17:33Z</time>
      </trkpt>
      <trkpt lat="45.88875" lon="4.61266">
        <ele>226</ele>
        <time>2018-07-19T10:17:34Z</time>
      </trkpt>
      <trkpt lat="45.88874" lon="4.61274">
        <ele>226</ele>
        <time>2018-07-19T10:17:35Z</time>
      </trkpt>
      <trkpt lat="45.88874" lon="4.61284">
        <ele>226</ele>
        <time>2018-07-19T10:17:36Z</time>
      </trkpt>
      <trkpt lat="45.88873" lon="4.61292">
        <ele>226</ele>
        <time>2018-07-19T10:17:37Z</time>
      </trkpt>
      <trkpt lat="45.88873" lon="4.61301">
        <ele>226</ele>
        <time>2018-07-19T10:17:38Z</time>
      </trkpt>
      <trkpt lat="45.88872" lon="4.61309">
        <ele>226</ele>
        <time>2018-07-19T10:17:39Z</time>
      </trkpt>
      <trkpt lat="45.8887" lon="4.61318">
        <ele>226</ele>
        <time>2018-07-19T10:17:40Z</time>
      </trkpt>
      <trkpt lat="45.8887" lon="4.61329">
        <ele>226</ele>
        <time>2018-07-19T10:17:41Z</time>
      </trkpt>
      <trkpt lat="45.88868" lon="4.61338">
        <ele>227</ele>
        <time>2018-07-19T10:17:42Z</time>
      </trkpt>
      <trkpt lat="45.88866" lon="4.61345">
        <ele>227</ele>
        <time>2018-07-19T10:17:43Z</time>
      </trkpt>
      <trkpt lat="45.88866" lon="4.61352">
        <ele>227</ele>
        <time>2018-07-19T10:17:44Z</time>
      </trkpt>
      <trkpt lat="45.88865" lon="4.61359">
        <ele>227</ele>
        <time>2018-07-19T10:17:45Z</time>
      </trkpt>
      <trkpt lat="45.88863" lon="4.61367">
        <ele>226</ele>
        <time>2018-07-19T10:17:46Z</time>
      </trkpt>
      <trkpt lat="45.88862" lon="4.61375">
        <ele>226</ele>
        <time>2018-07-19T10:17:47Z</time>
      </trkpt>
      <trkpt lat="45.8886" lon="4.61383">
        <ele>226</ele>
        <time>2018-07-19T10:17:48Z</time>
      </trkpt>
      <trkpt lat="45.88858" lon="4.61391">
        <ele>226</ele>
        <time>2018-07-19T10:17:49Z</time>
      </trkpt>
      <trkpt lat="45.88855" lon="4.614">
        <ele>226</ele>
        <time>2018-07-19T10:17:50Z</time>
      </trkpt>
      <trkpt lat="45.88853" lon="4.61409">
        <ele>226</ele>
        <time>2018-07-19T10:17:51Z</time>
      </trkpt>
      <trkpt lat="45.88849" lon="4.61418">
        <ele>225</ele>
        <time>2018-07-19T10:17:52Z</time>
      </trkpt>
      <trkpt lat="45.88847" lon="4.61424">
        <ele>225</ele>
        <time>2018-07-19T10:17:53Z</time>
      </trkpt>
      <trkpt lat="45.88844" lon="4.61432">
        <ele>226</ele>
        <time>2018-07-19T10:17:54Z</time>
      </trkpt>
      <trkpt lat="45.88841" lon="4.61443">
        <ele>226</ele>
        <time>2018-07-19T10:17:55Z</time>
      </trkpt>
      <trkpt lat="45.88838" lon="4.61453">
        <ele>226</ele>
        <time>2018-07-19T10:17:56Z</time>
      </trkpt>
      <trkpt lat="45.88835" lon="4.61462">
        <ele>226</ele>
        <time>2018-07-19T10:17:57Z</time>
      </trkpt>
      <trkpt lat="45.88832" lon="4.61472">
        <ele>223</ele>
        <time>2018-07-19T10:17:58Z</time>
      </trkpt>
      <trkpt lat="45.88829" lon="4.61481">
        <ele>223</ele>
        <time>2018-07-19T10:17:59Z</time>
      </trkpt>
      <trkpt lat="45.88826" lon="4.61489">
        <ele>223</ele>
        <time>2018-07-19T10:18:00Z</time>
      </trkpt>
      <trkpt lat="45.88825" lon="4.61498">
        <ele>223</ele>
        <time>2018-07-19T10:18:01Z</time>
      </trkpt>
      <trkpt lat="45.88822" lon="4.61506">
        <ele>223</ele>
        <time>2018-07-19T10:18:02Z</time>
      </trkpt>
      <trkpt lat="45.8882" lon="4.61517">
        <ele>223</ele>
        <time>2018-07-19T10:18:03Z</time>
      </trkpt>
      <trkpt lat="45.88817" lon="4.61526">
        <ele>223</ele>
        <time>2018-07-19T10:18:04Z</time>
      </trkpt>
      <trkpt lat="45.88814" lon="4.61535">
        <ele>223</ele>
        <time>2018-07-19T10:18:05Z</time>
      </trkpt>
      <trkpt lat="45.8881" lon="4.61543">
        <ele>223</ele>
        <time>2018-07-19T10:18:06Z</time>
      </trkpt>
      <trkpt lat="45.88806" lon="4.61551">
        <ele>223</ele>
        <time>2018-07-19T10:18:07Z</time>
      </trkpt>
      <trkpt lat="45.88803" lon="4.6156">
        <ele>223</ele>
        <time>2018-07-19T10:18:08Z</time>
      </trkpt>
      <trkpt lat="45.88799" lon="4.6157">
        <ele>223</ele>
        <time>2018-07-19T10:18:09Z</time>
      </trkpt>
      <trkpt lat="45.88796" lon="4.61579">
        <ele>223</ele>
        <time>2018-07-19T10:18:10Z</time>
      </trkpt>
      <trkpt lat="45.88793" lon="4.6159">
        <ele>224</ele>
        <time>2018-07-19T10:18:11Z</time>
      </trkpt>
      <trkpt lat="45.8879" lon="4.61599">
        <ele>223</ele>
        <time>2018-07-19T10:18:12Z</time>
      </trkpt>
      <trkpt lat="45.88787" lon="4.61607">
        <ele>223</ele>
        <time>2018-07-19T10:18:13Z</time>
      </trkpt>
      <trkpt lat="45.88785" lon="4.61615">
        <ele>224</ele>
        <time>2018-07-19T10:18:14Z</time>
      </trkpt>
      <trkpt lat="45.88782" lon="4.61625">
        <ele>224</ele>
        <time>2018-07-19T10:18:15Z</time>
      </trkpt>
      <trkpt lat="45.88779" lon="4.61634">
        <ele>224</ele>
        <time>2018-07-19T10:18:16Z</time>
      </trkpt>
      <trkpt lat="45.88777" lon="4.61642">
        <ele>224</ele>
        <time>2018-07-19T10:18:17Z</time>
      </trkpt>
      <trkpt lat="45.88774" lon="4.6165">
        <ele>224</ele>
        <time>2018-07-19T10:18:18Z</time>
      </trkpt>
      <trkpt lat="45.8877" lon="4.61657">
        <ele>223</ele>
        <time>2018-07-19T10:18:19Z</time>
      </trkpt>
      <trkpt lat="45.88767" lon="4.61665">
        <ele>223</ele>
        <time>2018-07-19T10:18:20Z</time>
      </trkpt>
      <trkpt lat="45.88765" lon="4.61673">
        <ele>224</ele>
        <time>2018-07-19T10:18:21Z</time>
      </trkpt>
      <trkpt lat="45.88762" lon="4.61681">
        <ele>224</ele>
        <time>2018-07-19T10:18:22Z</time>
      </trkpt>
      <trkpt lat="45.8876" lon="4.61688">
        <ele>224</ele>
        <time>2018-07-19T10:18:23Z</time>
      </trkpt>
      <trkpt lat="45.88757" lon="4.61696">
        <ele>224</ele>
        <time>2018-07-19T10:18:24Z</time>
      </trkpt>
      <trkpt lat="45.88754" lon="4.61705">
        <ele>223</ele>
        <time>2018-07-19T10:18:25Z</time>
      </trkpt>
      <trkpt lat="45.88751" lon="4.61714">
        <ele>223</ele>
        <time>2018-07-19T10:18:26Z</time>
      </trkpt>
      <trkpt lat="45.88749" lon="4.61724">
        <ele>222</ele>
        <time>2018-07-19T10:18:27Z</time>
      </trkpt>
      <trkpt lat="45.88746" lon="4.61732">
        <ele>222</ele>
        <time>2018-07-19T10:18:28Z</time>
      </trkpt>
      <trkpt lat="45.88743" lon="4.61741">
        <ele>222</ele>
        <time>2018-07-19T10:18:29Z</time>
      </trkpt>
      <trkpt lat="45.8874" lon="4.6175">
        <ele>222</ele>
        <time>2018-07-19T10:18:30Z</time>
      </trkpt>
      <trkpt lat="45.88738" lon="4.61758">
        <ele>222</ele>
        <time>2018-07-19T10:18:31Z</time>
      </trkpt>
      <trkpt lat="45.88735" lon="4.61765">
        <ele>222</ele>
        <time>2018-07-19T10:18:32Z</time>
      </trkpt>
      <trkpt lat="45.88732" lon="4.61773">
        <ele>222</ele>
        <time>2018-07-19T10:18:33Z</time>
      </trkpt>
      <trkpt lat="45.88729" lon="4.61781">
        <ele>222</ele>
        <time>2018-07-19T10:18:34Z</time>
      </trkpt>
      <trkpt lat="45.88726" lon="4.61789">
        <ele>222</ele>
        <time>2018-07-19T10:18:35Z</time>
      </trkpt>
      <trkpt lat="45.88724" lon="4.61797">
        <ele>222</ele>
        <time>2018-07-19T10:18:36Z</time>
      </trkpt>
      <trkpt lat="45.8872" lon="4.61804">
        <ele>222</ele>
        <time>2018-07-19T10:18:37Z</time>
      </trkpt>
      <trkpt lat="45.88717" lon="4.61811">
        <ele>222</ele>
        <time>2018-07-19T10:18:38Z</time>
      </trkpt>
      <trkpt lat="45.88715" lon="4.61819">
        <ele>222</ele>
        <time>2018-07-19T10:18:39Z</time>
      </trkpt>
      <trkpt lat="45.88711" lon="4.61829">
        <ele>222</ele>
        <time>2018-07-19T10:18:40Z</time>
      </trkpt>
      <trkpt lat="45.88708" lon="4.61836">
        <ele>222</ele>
        <time>2018-07-19T10:18:41Z</time>
      </trkpt>
      <trkpt lat="45.88707" lon="4.61843">
        <ele>222</ele>
        <time>2018-07-19T10:18:42Z</time>
      </trkpt>
      <trkpt lat="45.88705" lon="4.61851">
        <ele>222</ele>
        <time>2018-07-19T10:18:43Z</time>
      </trkpt>
      <trkpt lat="45.88703" lon="4.61859">
        <ele>222</ele>
        <time>2018-07-19T10:18:44Z</time>
      </trkpt>
      <trkpt lat="45.88701" lon="4.61865">
        <ele>222</ele>
        <time>2018-07-19T10:18:45Z</time>
      </trkpt>
      <trkpt lat="45.88699" lon="4.61871">
        <ele>222</ele>
        <time>2018-07-19T10:18:46Z</time>
      </trkpt>
      <trkpt lat="45.88697" lon="4.61879">
        <ele>222</ele>
        <time>2018-07-19T10:18:47Z</time>
      </trkpt>
      <trkpt lat="45.88695" lon="4.61886">
        <ele>222</ele>
        <time>2018-07-19T10:18:48Z</time>
      </trkpt>
      <trkpt lat="45.88693" lon="4.61892">
        <ele>222</ele>
        <time>2018-07-19T10:18:49Z</time>
      </trkpt>
      <trkpt lat="45.8869" lon="4.61902">
        <ele>222</ele>
        <time>2018-07-19T10:18:50Z</time>
      </trkpt>
      <trkpt lat="45.88688" lon="4.61911">
        <ele>222</ele>
        <time>2018-07-19T10:18:51Z</time>
      </trkpt>
      <trkpt lat="45.88686" lon="4.6192">
        <ele>222</ele>
        <time>2018-07-19T10:18:52Z</time>
      </trkpt>
      <trkpt lat="45.88683" lon="4.61929">
        <ele>222</ele>
        <time>2018-07-19T10:18:53Z</time>
      </trkpt>
      <trkpt lat="45.8868" lon="4.61938">
        <ele>223</ele>
        <time>2018-07-19T10:18:54Z</time>
      </trkpt>
      <trkpt lat="45.88677" lon="4.61947">
        <ele>223</ele>
        <time>2018-07-19T10:18:55Z</time>
      </trkpt>
      <trkpt lat="45.88675" lon="4.61956">
        <ele>223</ele>
        <time>2018-07-19T10:18:56Z</time>
      </trkpt>
      <trkpt lat="45.8867" lon="4.61966">
        <ele>223</ele>
        <time>2018-07-19T10:18:57Z</time>
      </trkpt>
      <trkpt lat="45.88669" lon="4.61975">
        <ele>223</ele>
        <time>2018-07-19T10:18:58Z</time>
      </trkpt>
      <trkpt lat="45.88666" lon="4.61985">
        <ele>222</ele>
        <time>2018-07-19T10:18:59Z</time>
      </trkpt>
      <trkpt lat="45.88663" lon="4.61993">
        <ele>222</ele>
        <time>2018-07-19T10:19:00Z</time>
      </trkpt>
      <trkpt lat="45.8866" lon="4.62004">
        <ele>222</ele>
        <time>2018-07-19T10:19:01Z</time>
      </trkpt>
      <trkpt lat="45.88657" lon="4.62013">
        <ele>222</ele>
        <time>2018-07-19T10:19:02Z</time>
      </trkpt>
      <trkpt lat="45.88653" lon="4.62023">
        <ele>222</ele>
        <time>2018-07-19T10:19:03Z</time>
      </trkpt>
      <trkpt lat="45.88649" lon="4.62033">
        <ele>223</ele>
        <time>2018-07-19T10:19:04Z</time>
      </trkpt>
      <trkpt lat="45.88645" lon="4.62042">
        <ele>223</ele>
        <time>2018-07-19T10:19:05Z</time>
      </trkpt>
      <trkpt lat="45.88642" lon="4.62052">
        <ele>223</ele>
        <time>2018-07-19T10:19:06Z</time>
      </trkpt>
      <trkpt lat="45.88639" lon="4.6206">
        <ele>223</ele>
        <time>2018-07-19T10:19:07Z</time>
      </trkpt>
      <trkpt lat="45.88635" lon="4.62068">
        <ele>223</ele>
        <time>2018-07-19T10:19:08Z</time>
      </trkpt>
      <trkpt lat="45.88633" lon="4.62077">
        <ele>223</ele>
        <time>2018-07-19T10:19:09Z</time>
      </trkpt>
      <trkpt lat="45.8863" lon="4.62087">
        <ele>223</ele>
        <time>2018-07-19T10:19:10Z</time>
      </trkpt>
      <trkpt lat="45.88627" lon="4.62096">
        <ele>223</ele>
        <time>2018-07-19T10:19:11Z</time>
      </trkpt>
      <trkpt lat="45.88626" lon="4.62106">
        <ele>223</ele>
        <time>2018-07-19T10:19:12Z</time>
      </trkpt>
      <trkpt lat="45.88623" lon="4.62112">
        <ele>223</ele>
        <time>2018-07-19T10:19:13Z</time>
      </trkpt>
      <trkpt lat="45.88619" lon="4.62121">
        <ele>223</ele>
        <time>2018-07-19T10:19:14Z</time>
      </trkpt>
      <trkpt lat="45.88616" lon="4.62127">
        <ele>223</ele>
        <time>2018-07-19T10:19:15Z</time>
      </trkpt>
      <trkpt lat="45.88615" lon="4.62138">
        <ele>223</ele>
        <time>2018-07-19T10:19:16Z</time>
      </trkpt>
      <trkpt lat="45.88612" lon="4.62146">
        <ele>223</ele>
        <time>2018-07-19T10:19:17Z</time>
      </trkpt>
      <trkpt lat="45.88608" lon="4.62154">
        <ele>222</ele>
        <time>2018-07-19T10:19:18Z</time>
      </trkpt>
      <trkpt lat="45.88604" lon="4.62162">
        <ele>222</ele>
        <time>2018-07-19T10:19:19Z</time>
      </trkpt>
      <trkpt lat="45.88602" lon="4.62169">
        <ele>222</ele>
        <time>2018-07-19T10:19:20Z</time>
      </trkpt>
      <trkpt lat="45.88599" lon="4.62175">
        <ele>222</ele>
        <time>2018-07-19T10:19:21Z</time>
      </trkpt>
      <trkpt lat="45.88598" lon="4.62184">
        <ele>222</ele>
        <time>2018-07-19T10:19:22Z</time>
      </trkpt>
      <trkpt lat="45.88595" lon="4.6219">
        <ele>222</ele>
        <time>2018-07-19T10:19:23Z</time>
      </trkpt>
      <trkpt lat="45.88592" lon="4.62197">
        <ele>222</ele>
        <time>2018-07-19T10:19:24Z</time>
      </trkpt>
      <trkpt lat="45.88589" lon="4.62204">
        <ele>222</ele>
        <time>2018-07-19T10:19:25Z</time>
      </trkpt>
      <trkpt lat="45.88587" lon="4.62212">
        <ele>222</ele>
        <time>2018-07-19T10:19:26Z</time>
      </trkpt>
      <trkpt lat="45.88584" lon="4.62218">
        <ele>222</ele>
        <time>2018-07-19T10:19:27Z</time>
      </trkpt>
      <trkpt lat="45.88581" lon="4.62226">
        <ele>221</ele>
        <time>2018-07-19T10:19:28Z</time>
      </trkpt>
      <trkpt lat="45.88578" lon="4.62233">
        <ele>221</ele>
        <time>2018-07-19T10:19:29Z</time>
      </trkpt>
      <trkpt lat="45.88575" lon="4.62241">
        <ele>221</ele>
        <time>2018-07-19T10:19:30Z</time>
      </trkpt>
      <trkpt lat="45.88571" lon="4.62248">
        <ele>221</ele>
        <time>2018-07-19T10:19:31Z</time>
      </trkpt>
      <trkpt lat="45.88567" lon="4.62255">
        <ele>221</ele>
        <time>2018-07-19T10:19:32Z</time>
      </trkpt>
      <trkpt lat="45.88564" lon="4.62262">
        <ele>221</ele>
        <time>2018-07-19T10:19:33Z</time>
      </trkpt>
      <trkpt lat="45.8856" lon="4.6227">
        <ele>221</ele>
        <time>2018-07-19T10:19:34Z</time>
      </trkpt>
      <trkpt lat="45.88558" lon="4.62276">
        <ele>221</ele>
        <time>2018-07-19T10:19:35Z</time>
      </trkpt>
      <trkpt lat="45.88554" lon="4.62283">
        <ele>221</ele>
        <time>2018-07-19T10:19:36Z</time>
      </trkpt>
      <trkpt lat="45.88551" lon="4.62292">
        <ele>221</ele>
        <time>2018-07-19T10:19:37Z</time>
      </trkpt>
      <trkpt lat="45.88546" lon="4.62301">
        <ele>221</ele>
        <time>2018-07-19T10:19:38Z</time>
      </trkpt>
      <trkpt lat="45.88543" lon="4.6231">
        <ele>221</ele>
        <time>2018-07-19T10:19:39Z</time>
      </trkpt>
      <trkpt lat="45.88539" lon="4.6232">
        <ele>221</ele>
        <time>2018-07-19T10:19:40Z</time>
      </trkpt>
      <trkpt lat="45.88535" lon="4.62329">
        <ele>221</ele>
        <time>2018-07-19T10:19:41Z</time>
      </trkpt>
      <trkpt lat="45.88532" lon="4.62336">
        <ele>220</ele>
        <time>2018-07-19T10:19:42Z</time>
      </trkpt>
      <trkpt lat="45.8853" lon="4.62344">
        <ele>220</ele>
        <time>2018-07-19T10:19:43Z</time>
      </trkpt>
      <trkpt lat="45.88526" lon="4.6235">
        <ele>220</ele>
        <time>2018-07-19T10:19:44Z</time>
      </trkpt>
      <trkpt lat="45.88522" lon="4.62357">
        <ele>220</ele>
        <time>2018-07-19T10:19:45Z</time>
      </trkpt>
      <trkpt lat="45.88519" lon="4.62365">
        <ele>220</ele>
        <time>2018-07-19T10:19:46Z</time>
      </trkpt>
      <trkpt lat="45.88517" lon="4.62374">
        <ele>220</ele>
        <time>2018-07-19T10:19:47Z</time>
      </trkpt>
      <trkpt lat="45.88514" lon="4.62384">
        <ele>220</ele>
        <time>2018-07-19T10:19:48Z</time>
      </trkpt>
      <trkpt lat="45.8851" lon="4.62392">
        <ele>220</ele>
        <time>2018-07-19T10:19:49Z</time>
      </trkpt>
      <trkpt lat="45.88508" lon="4.62401">
        <ele>220</ele>
        <time>2018-07-19T10:19:50Z</time>
      </trkpt>
      <trkpt lat="45.88505" lon="4.62409">
        <ele>220</ele>
        <time>2018-07-19T10:19:51Z</time>
      </trkpt>
      <trkpt lat="45.88501" lon="4.62417">
        <ele>220</ele>
        <time>2018-07-19T10:19:52Z</time>
      </trkpt>
      <trkpt lat="45.88497" lon="4.62425">
        <ele>220</ele>
        <time>2018-07-19T10:19:53Z</time>
      </trkpt>
      <trkpt lat="45.88494" lon="4.62436">
        <ele>219</ele>
        <time>2018-07-19T10:19:54Z</time>
      </trkpt>
      <trkpt lat="45.8849" lon="4.62442">
        <ele>219</ele>
        <time>2018-07-19T10:19:55Z</time>
      </trkpt>
      <trkpt lat="45.88487" lon="4.62451">
        <ele>219</ele>
        <time>2018-07-19T10:19:56Z</time>
      </trkpt>
      <trkpt lat="45.88484" lon="4.62459">
        <ele>219</ele>
        <time>2018-07-19T10:19:57Z</time>
      </trkpt>
      <trkpt lat="45.88481" lon="4.62469">
        <ele>219</ele>
        <time>2018-07-19T10:19:58Z</time>
      </trkpt>
      <trkpt lat="45.88477" lon="4.62478">
        <ele>219</ele>
        <time>2018-07-19T10:19:59Z</time>
      </trkpt>
      <trkpt lat="45.88475" lon="4.62488">
        <ele>219</ele>
        <time>2018-07-19T10:20:00Z</time>
      </trkpt>
      <trkpt lat="45.88472" lon="4.62496">
        <ele>219</ele>
        <time>2018-07-19T10:20:01Z</time>
      </trkpt>
      <trkpt lat="45.88468" lon="4.62504">
        <ele>219</ele>
        <time>2018-07-19T10:20:02Z</time>
      </trkpt>
      <trkpt lat="45.88467" lon="4.62511">
        <ele>219</ele>
        <time>2018-07-19T10:20:03Z</time>
      </trkpt>
      <trkpt lat="45.88465" lon="4.62519">
        <ele>219</ele>
        <time>2018-07-19T10:20:04Z</time>
      </trkpt>
      <trkpt lat="45.88461" lon="4.62527">
        <ele>219</ele>
        <time>2018-07-19T10:20:05Z</time>
      </trkpt>
      <trkpt lat="45.88459" lon="4.62536">
        <ele>219</ele>
        <time>2018-07-19T10:20:06Z</time>
      </trkpt>
      <trkpt lat="45.88457" lon="4.62543">
        <ele>218</ele>
        <time>2018-07-19T10:20:07Z</time>
      </trkpt>
      <trkpt lat="45.88455" lon="4.62552">
        <ele>218</ele>
        <time>2018-07-19T10:20:08Z</time>
      </trkpt>
      <trkpt lat="45.88451" lon="4.62558">
        <ele>218</ele>
        <time>2018-07-19T10:20:09Z</time>
      </trkpt>
      <trkpt lat="45.88448" lon="4.62569">
        <ele>218</ele>
        <time>2018-07-19T10:20:10Z</time>
      </trkpt>
      <trkpt lat="45.88445" lon="4.62577">
        <ele>218</ele>
        <time>2018-07-19T10:20:11Z</time>
      </trkpt>
      <trkpt lat="45.88442" lon="4.62588">
        <ele>218</ele>
        <time>2018-07-19T10:20:12Z</time>
      </trkpt>
      <trkpt lat="45.88437" lon="4.62591">
        <ele>218</ele>
        <time>2018-07-19T10:20:13Z</time>
      </trkpt>
      <trkpt lat="45.88435" lon="4.62599">
        <ele>218</ele>
        <time>2018-07-19T10:20:14Z</time>
      </trkpt>
      <trkpt lat="45.88434" lon="4.62609">
        <ele>218</ele>
        <time>2018-07-19T10:20:15Z</time>
      </trkpt>
      <trkpt lat="45.88431" lon="4.62614">
        <ele>218</ele>
        <time>2018-07-19T10:20:16Z</time>
      </trkpt>
      <trkpt lat="45.88428" lon="4.62624">
        <ele>218</ele>
        <time>2018-07-19T10:20:17Z</time>
      </trkpt>
      <trkpt lat="45.88426" lon="4.62631">
        <ele>219</ele>
        <time>2018-07-19T10:20:18Z</time>
      </trkpt>
      <trkpt lat="45.88424" lon="4.62638">
        <ele>219</ele>
        <time>2018-07-19T10:20:19Z</time>
      </trkpt>
      <trkpt lat="45.8842" lon="4.62646">
        <ele>219</ele>
        <time>2018-07-19T10:20:20Z</time>
      </trkpt>
      <trkpt lat="45.88418" lon="4.62653">
        <ele>219</ele>
        <time>2018-07-19T10:20:21Z</time>
      </trkpt>
      <trkpt lat="45.88416" lon="4.62662">
        <ele>219</ele>
        <time>2018-07-19T10:20:22Z</time>
      </trkpt>
      <trkpt lat="45.88413" lon="4.6267">
        <ele>219</ele>
        <time>2018-07-19T10:20:23Z</time>
      </trkpt>
      <trkpt lat="45.8841" lon="4.62676">
        <ele>218</ele>
        <time>2018-07-19T10:20:24Z</time>
      </trkpt>
      <trkpt lat="45.88408" lon="4.62683">
        <ele>218</ele>
        <time>2018-07-19T10:20:25Z</time>
      </trkpt>
      <trkpt lat="45.88404" lon="4.62691">
        <ele>218</ele>
        <time>2018-07-19T10:20:26Z</time>
      </trkpt>
      <trkpt lat="45.88401" lon="4.62698">
        <ele>218</ele>
        <time>2018-07-19T10:20:27Z</time>
      </trkpt>
      <trkpt lat="45.88398" lon="4.62705">
        <ele>218</ele>
        <time>2018-07-19T10:20:28Z</time>
      </trkpt>
      <trkpt lat="45.88395" lon="4.62714">
        <ele>218</ele>
        <time>2018-07-19T10:20:29Z</time>
      </trkpt>
      <trkpt lat="45.88392" lon="4.62721">
        <ele>218</ele>
        <time>2018-07-19T10:20:30Z</time>
      </trkpt>
      <trkpt lat="45.88389" lon="4.62728">
        <ele>218</ele>
        <time>2018-07-19T10:20:31Z</time>
      </trkpt>
      <trkpt lat="45.88385" lon="4.62734">
        <ele>218</ele>
        <time>2018-07-19T10:20:32Z</time>
      </trkpt>
      <trkpt lat="45.88381" lon="4.62741">
        <ele>218</ele>
        <time>2018-07-19T10:20:33Z</time>
      </trkpt>
      <trkpt lat="45.88377" lon="4.62749">
        <ele>218</ele>
        <time>2018-07-19T10:20:34Z</time>
      </trkpt>
      <trkpt lat="45.88373" lon="4.62756">
        <ele>218</ele>
        <time>2018-07-19T10:20:35Z</time>
      </trkpt>
      <trkpt lat="45.88369" lon="4.62762">
        <ele>218</ele>
        <time>2018-07-19T10:20:36Z</time>
      </trkpt>
      <trkpt lat="45.88366" lon="4.62772">
        <ele>218</ele>
        <time>2018-07-19T10:20:37Z</time>
      </trkpt>
      <trkpt lat="45.88361" lon="4.62779">
        <ele>218</ele>
        <time>2018-07-19T10:20:38Z</time>
      </trkpt>
      <trkpt lat="45.88356" lon="4.62788">
        <ele>218</ele>
        <time>2018-07-19T10:20:39Z</time>
      </trkpt>
      <trkpt lat="45.88352" lon="4.62794">
        <ele>218</ele>
        <time>2018-07-19T10:20:40Z</time>
      </trkpt>
      <trkpt lat="45.88348" lon="4.628">
        <ele>218</ele>
        <time>2018-07-19T10:20:41Z</time>
      </trkpt>
      <trkpt lat="45.88344" lon="4.62806">
        <ele>218</ele>
        <time>2018-07-19T10:20:42Z</time>
      </trkpt>
      <trkpt lat="45.8834" lon="4.62813">
        <ele>218</ele>
        <time>2018-07-19T10:20:43Z</time>
      </trkpt>
      <trkpt lat="45.88336" lon="4.62819">
        <ele>219</ele>
        <time>2018-07-19T10:20:44Z</time>
      </trkpt>
      <trkpt lat="45.88332" lon="4.62827">
        <ele>219</ele>
        <time>2018-07-19T10:20:45Z</time>
      </trkpt>
      <trkpt lat="45.88329" lon="4.62832">
        <ele>219</ele>
        <time>2018-07-19T10:20:46Z</time>
      </trkpt>
      <trkpt lat="45.88326" lon="4.62837">
        <ele>219</ele>
        <time>2018-07-19T10:20:47Z</time>
      </trkpt>
      <trkpt lat="45.88322" lon="4.62843">
        <ele>218</ele>
        <time>2018-07-19T10:20:48Z</time>
      </trkpt>
      <trkpt lat="45.88318" lon="4.62849">
        <ele>218</ele>
        <time>2018-07-19T10:20:49Z</time>
      </trkpt>
      <trkpt lat="45.88314" lon="4.62856">
        <ele>218</ele>
        <time>2018-07-19T10:20:50Z</time>
      </trkpt>
      <trkpt lat="45.88309" lon="4.62863">
        <ele>218</ele>
        <time>2018-07-19T10:20:51Z</time>
      </trkpt>
      <trkpt lat="45.88305" lon="4.6287">
        <ele>218</ele>
        <time>2018-07-19T10:20:52Z</time>
      </trkpt>
      <trkpt lat="45.88302" lon="4.62875">
        <ele>218</ele>
        <time>2018-07-19T10:20:53Z</time>
      </trkpt>
      <trkpt lat="45.88297" lon="4.62882">
        <ele>218</ele>
        <time>2018-07-19T10:20:54Z</time>
      </trkpt>
      <trkpt lat="45.88293" lon="4.62889">
        <ele>218</ele>
        <time>2018-07-19T10:20:55Z</time>
      </trkpt>
      <trkpt lat="45.88289" lon="4.62895">
        <ele>218</ele>
        <time>2018-07-19T10:20:56Z</time>
      </trkpt>
      <trkpt lat="45.88286" lon="4.62899">
        <ele>218</ele>
        <time>2018-07-19T10:20:57Z</time>
      </trkpt>
      <trkpt lat="45.88282" lon="4.62906">
        <ele>218</ele>
        <time>2018-07-19T10:20:58Z</time>
      </trkpt>
      <trkpt lat="45.88279" lon="4.62911">
        <ele>218</ele>
        <time>2018-07-19T10:20:59Z</time>
      </trkpt>
      <trkpt lat="45.88274" lon="4.62918">
        <ele>217</ele>
        <time>2018-07-19T10:21:00Z</time>
      </trkpt>
      <trkpt lat="45.88271" lon="4.62924">
        <ele>217</ele>
        <time>2018-07-19T10:21:01Z</time>
      </trkpt>
      <trkpt lat="45.88268" lon="4.62932">
        <ele>217</ele>
        <time>2018-07-19T10:21:02Z</time>
      </trkpt>
      <trkpt lat="45.88264" lon="4.62938">
        <ele>217</ele>
        <time>2018-07-19T10:21:03Z</time>
      </trkpt>
      <trkpt lat="45.8826" lon="4.62946">
        <ele>217</ele>
        <time>2018-07-19T10:21:04Z</time>
      </trkpt>
      <trkpt lat="45.88257" lon="4.62953">
        <ele>217</ele>
        <time>2018-07-19T10:21:05Z</time>
      </trkpt>
      <trkpt lat="45.88254" lon="4.62959">
        <ele>217</ele>
        <time>2018-07-19T10:21:06Z</time>
      </trkpt>
      <trkpt lat="45.8825" lon="4.62966">
        <ele>217</ele>
        <time>2018-07-19T10:21:07Z</time>
      </trkpt>
      <trkpt lat="45.88246" lon="4.62975">
        <ele>217</ele>
        <time>2018-07-19T10:21:08Z</time>
      </trkpt>
      <trkpt lat="45.88243" lon="4.62981">
        <ele>217</ele>
        <time>2018-07-19T10:21:09Z</time>
      </trkpt>
      <trkpt lat="45.8824" lon="4.62988">
        <ele>217</ele>
        <time>2018-07-19T10:21:10Z</time>
      </trkpt>
      <trkpt lat="45.88236" lon="4.62996">
        <ele>217</ele>
        <time>2018-07-19T10:21:11Z</time>
      </trkpt>
      <trkpt lat="45.88233" lon="4.63004">
        <ele>217</ele>
        <time>2018-07-19T10:21:12Z</time>
      </trkpt>
      <trkpt lat="45.8823" lon="4.63011">
        <ele>217</ele>
        <time>2018-07-19T10:21:13Z</time>
      </trkpt>
      <trkpt lat="45.88226" lon="4.63018">
        <ele>217</ele>
        <time>2018-07-19T10:21:14Z</time>
      </trkpt>
      <trkpt lat="45.88223" lon="4.63025">
        <ele>217</ele>
        <time>2018-07-19T10:21:15Z</time>
      </trkpt>
      <trkpt lat="45.8822" lon="4.63033">
        <ele>217</ele>
        <time>2018-07-19T10:21:16Z</time>
      </trkpt>
      <trkpt lat="45.88217" lon="4.63041">
        <ele>217</ele>
        <time>2018-07-19T10:21:17Z</time>
      </trkpt>
      <trkpt lat="45.88214" lon="4.63048">
        <ele>217</ele>
        <time>2018-07-19T10:21:18Z</time>
      </trkpt>
      <trkpt lat="45.88211" lon="4.63054">
        <ele>217</ele>
        <time>2018-07-19T10:21:19Z</time>
      </trkpt>
      <trkpt lat="45.88209" lon="4.63063">
        <ele>217</ele>
        <time>2018-07-19T10:21:20Z</time>
      </trkpt>
      <trkpt lat="45.88206" lon="4.6307">
        <ele>217</ele>
        <time>2018-07-19T10:21:21Z</time>
      </trkpt>
      <trkpt lat="45.88203" lon="4.6308">
        <ele>217</ele>
        <time>2018-07-19T10:21:22Z</time>
      </trkpt>
      <trkpt lat="45.882" lon="4.63088">
        <ele>217</ele>
        <time>2018-07-19T10:21:23Z</time>
      </trkpt>
      <trkpt lat="45.88198" lon="4.63098">
        <ele>217</ele>
        <time>2018-07-19T10:21:24Z</time>
      </trkpt>
      <trkpt lat="45.88195" lon="4.63106">
        <ele>217</ele>
        <time>2018-07-19T10:21:25Z</time>
      </trkpt>
      <trkpt lat="45.88193" lon="4.63113">
        <ele>217</ele>
        <time>2018-07-19T10:21:26Z</time>
      </trkpt>
      <trkpt lat="45.8819" lon="4.63122">
        <ele>217</ele>
        <time>2018-07-19T10:21:27Z</time>
      </trkpt>
      <trkpt lat="45.88187" lon="4.6313">
        <ele>217</ele>
        <time>2018-07-19T10:21:28Z</time>
      </trkpt>
      <trkpt lat="45.88186" lon="4.63139">
        <ele>217</ele>
        <time>2018-07-19T10:21:29Z</time>
      </trkpt>
      <trkpt lat="45.88184" lon="4.63149">
        <ele>217</ele>
        <time>2018-07-19T10:21:30Z</time>
      </trkpt>
      <trkpt lat="45.88182" lon="4.63156">
        <ele>217</ele>
        <time>2018-07-19T10:21:31Z</time>
      </trkpt>
      <trkpt lat="45.8818" lon="4.63166">
        <ele>217</ele>
        <time>2018-07-19T10:21:32Z</time>
      </trkpt>
      <trkpt lat="45.88178" lon="4.63175">
        <ele>217</ele>
        <time>2018-07-19T10:21:33Z</time>
      </trkpt>
      <trkpt lat="45.88175" lon="4.63185">
        <ele>217</ele>
        <time>2018-07-19T10:21:34Z</time>
      </trkpt>
      <trkpt lat="45.88173" lon="4.63195">
        <ele>217</ele>
        <time>2018-07-19T10:21:35Z</time>
      </trkpt>
      <trkpt lat="45.88172" lon="4.63204">
        <ele>217</ele>
        <time>2018-07-19T10:21:36Z</time>
      </trkpt>
      <trkpt lat="45.88171" lon="4.63214">
        <ele>217</ele>
        <time>2018-07-19T10:21:37Z</time>
      </trkpt>
      <trkpt lat="45.8817" lon="4.63222">
        <ele>217</ele>
        <time>2018-07-19T10:21:38Z</time>
      </trkpt>
      <trkpt lat="45.88167" lon="4.6323">
        <ele>216</ele>
        <time>2018-07-19T10:21:39Z</time>
      </trkpt>
      <trkpt lat="45.88166" lon="4.63239">
        <ele>217</ele>
        <time>2018-07-19T10:21:40Z</time>
      </trkpt>
      <trkpt lat="45.88164" lon="4.63247">
        <ele>216</ele>
        <time>2018-07-19T10:21:41Z</time>
      </trkpt>
      <trkpt lat="45.88163" lon="4.63254">
        <ele>216</ele>
        <time>2018-07-19T10:21:42Z</time>
      </trkpt>
      <trkpt lat="45.88162" lon="4.63263">
        <ele>216</ele>
        <time>2018-07-19T10:21:43Z</time>
      </trkpt>
      <trkpt lat="45.8816" lon="4.63271">
        <ele>216</ele>
        <time>2018-07-19T10:21:44Z</time>
      </trkpt>
      <trkpt lat="45.88158" lon="4.63281">
        <ele>217</ele>
        <time>2018-07-19T10:21:45Z</time>
      </trkpt>
      <trkpt lat="45.88156" lon="4.63289">
        <ele>217</ele>
        <time>2018-07-19T10:21:46Z</time>
      </trkpt>
      <trkpt lat="45.88154" lon="4.63298">
        <ele>216</ele>
        <time>2018-07-19T10:21:47Z</time>
      </trkpt>
      <trkpt lat="45.88153" lon="4.63306">
        <ele>216</ele>
        <time>2018-07-19T10:21:48Z</time>
      </trkpt>
      <trkpt lat="45.88152" lon="4.63315">
        <ele>216</ele>
        <time>2018-07-19T10:21:49Z</time>
      </trkpt>
      <trkpt lat="45.8815" lon="4.63324">
        <ele>216</ele>
        <time>2018-07-19T10:21:50Z</time>
      </trkpt>
      <trkpt lat="45.88148" lon="4.63332">
        <ele>216</ele>
        <time>2018-07-19T10:21:51Z</time>
      </trkpt>
      <trkpt lat="45.88147" lon="4.63341">
        <ele>216</ele>
        <time>2018-07-19T10:21:52Z</time>
      </trkpt>
      <trkpt lat="45.88145" lon="4.63349">
        <ele>216</ele>
        <time>2018-07-19T10:21:53Z</time>
      </trkpt>
      <trkpt lat="45.88143" lon="4.63355">
        <ele>216</ele>
        <time>2018-07-19T10:21:54Z</time>
      </trkpt>
      <trkpt lat="45.88143" lon="4.63364">
        <ele>216</ele>
        <time>2018-07-19T10:21:55Z</time>
      </trkpt>
      <trkpt lat="45.88141" lon="4.63371">
        <ele>216</ele>
        <time>2018-07-19T10:21:56Z</time>
      </trkpt>
      <trkpt lat="45.88139" lon="4.6338">
        <ele>216</ele>
        <time>2018-07-19T10:21:57Z</time>
      </trkpt>
      <trkpt lat="45.88138" lon="4.63388">
        <ele>216</ele>
        <time>2018-07-19T10:21:58Z</time>
      </trkpt>
      <trkpt lat="45.88136" lon="4.63396">
        <ele>216</ele>
        <time>2018-07-19T10:21:59Z</time>
      </trkpt>
      <trkpt lat="45.88134" lon="4.63405">
        <ele>216</ele>
        <time>2018-07-19T10:22:00Z</time>
      </trkpt>
      <trkpt lat="45.88132" lon="4.63414">
        <ele>216</ele>
        <time>2018-07-19T10:22:01Z</time>
      </trkpt>
      <trkpt lat="45.88131" lon="4.63424">
        <ele>216</ele>
        <time>2018-07-19T10:22:02Z</time>
      </trkpt>
      <trkpt lat="45.8813" lon="4.63434">
        <ele>216</ele>
        <time>2018-07-19T10:22:03Z</time>
      </trkpt>
      <trkpt lat="45.88128" lon="4.63442">
        <ele>216</ele>
        <time>2018-07-19T10:22:04Z</time>
      </trkpt>
      <trkpt lat="45.88126" lon="4.6345">
        <ele>216</ele>
        <time>2018-07-19T10:22:05Z</time>
      </trkpt>
      <trkpt lat="45.88124" lon="4.63456">
        <ele>216</ele>
        <time>2018-07-19T10:22:06Z</time>
      </trkpt>
      <trkpt lat="45.88122" lon="4.63464">
        <ele>217</ele>
        <time>2018-07-19T10:22:07Z</time>
      </trkpt>
      <trkpt lat="45.8812" lon="4.63472">
        <ele>217</ele>
        <time>2018-07-19T10:22:08Z</time>
      </trkpt>
      <trkpt lat="45.88118" lon="4.63481">
        <ele>217</ele>
        <time>2018-07-19T10:22:09Z</time>
      </trkpt>
      <trkpt lat="45.88116" lon="4.63489">
        <ele>217</ele>
        <time>2018-07-19T10:22:10Z</time>
      </trkpt>
      <trkpt lat="45.88113" lon="4.63496">
        <ele>217</ele>
        <time>2018-07-19T10:22:11Z</time>
      </trkpt>
      <trkpt lat="45.88109" lon="4.63504">
        <ele>217</ele>
        <time>2018-07-19T10:22:12Z</time>
      </trkpt>
      <trkpt lat="45.88107" lon="4.63512">
        <ele>217</ele>
        <time>2018-07-19T10:22:13Z</time>
      </trkpt>
      <trkpt lat="45.88104" lon="4.63519">
        <ele>217</ele>
        <time>2018-07-19T10:22:14Z</time>
      </trkpt>
      <trkpt lat="45.88102" lon="4.63528">
        <ele>216</ele>
        <time>2018-07-19T10:22:15Z</time>
      </trkpt>
      <trkpt lat="45.88099" lon="4.63535">
        <ele>216</ele>
        <time>2018-07-19T10:22:16Z</time>
      </trkpt>
      <trkpt lat="45.88096" lon="4.63544">
        <ele>216</ele>
        <time>2018-07-19T10:22:17Z</time>
      </trkpt>
      <trkpt lat="45.88094" lon="4.63552">
        <ele>216</ele>
        <time>2018-07-19T10:22:18Z</time>
      </trkpt>
      <trkpt lat="45.88091" lon="4.63559">
        <ele>216</ele>
        <time>2018-07-19T10:22:19Z</time>
      </trkpt>
      <trkpt lat="45.88089" lon="4.63567">
        <ele>216</ele>
        <time>2018-07-19T10:22:20Z</time>
      </trkpt>
      <trkpt lat="45.88087" lon="4.63575">
        <ele>216</ele>
        <time>2018-07-19T10:22:21Z</time>
      </trkpt>
      <trkpt lat="45.88085" lon="4.63583">
        <ele>216</ele>
        <time>2018-07-19T10:22:22Z</time>
      </trkpt>
      <trkpt lat="45.88081" lon="4.63591">
        <ele>216</ele>
        <time>2018-07-19T10:22:23Z</time>
      </trkpt>
      <trkpt lat="45.88078" lon="4.63599">
        <ele>216</ele>
        <time>2018-07-19T10:22:24Z</time>
      </trkpt>
      <trkpt lat="45.88075" lon="4.63606">
        <ele>216</ele>
        <time>2018-07-19T10:22:25Z</time>
      </trkpt>
      <trkpt lat="45.88072" lon="4.63614">
        <ele>216</ele>
        <time>2018-07-19T10:22:26Z</time>
      </trkpt>
      <trkpt lat="45.88069" lon="4.63622">
        <ele>216</ele>
        <time>2018-07-19T10:22:27Z</time>
      </trkpt>
      <trkpt lat="45.88065" lon="4.63629">
        <ele>215</ele>
        <time>2018-07-19T10:22:28Z</time>
      </trkpt>
      <trkpt lat="45.88062" lon="4.63636">
        <ele>215</ele>
        <time>2018-07-19T10:22:29Z</time>
      </trkpt>
      <trkpt lat="45.88059" lon="4.63644">
        <ele>215</ele>
        <time>2018-07-19T10:22:30Z</time>
      </trkpt>
      <trkpt lat="45.88055" lon="4.63653">
        <ele>215</ele>
        <time>2018-07-19T10:22:31Z</time>
      </trkpt>
      <trkpt lat="45.88051" lon="4.6366">
        <ele>215</ele>
        <time>2018-07-19T10:22:32Z</time>
      </trkpt>
      <trkpt lat="45.88048" lon="4.63668">
        <ele>214</ele>
        <time>2018-07-19T10:22:33Z</time>
      </trkpt>
      <trkpt lat="45.88044" lon="4.63675">
        <ele>214</ele>
        <time>2018-07-19T10:22:34Z</time>
      </trkpt>
      <trkpt lat="45.8804" lon="4.63681">
        <ele>214</ele>
        <time>2018-07-19T10:22:35Z</time>
      </trkpt>
      <trkpt lat="45.88036" lon="4.63688">
        <ele>214</ele>
        <time>2018-07-19T10:22:36Z</time>
      </trkpt>
      <trkpt lat="45.88032" lon="4.63695">
        <ele>214</ele>
        <time>2018-07-19T10:22:37Z</time>
      </trkpt>
      <trkpt lat="45.88027" lon="4.637">
        <ele>214</ele>
        <time>2018-07-19T10:22:38Z</time>
      </trkpt>
      <trkpt lat="45.88023" lon="4.63706">
        <ele>214</ele>
        <time>2018-07-19T10:22:39Z</time>
      </trkpt>
      <trkpt lat="45.88019" lon="4.63714">
        <ele>214</ele>
        <time>2018-07-19T10:22:40Z</time>
      </trkpt>
      <trkpt lat="45.88017" lon="4.63722">
        <ele>214</ele>
        <time>2018-07-19T10:22:41Z</time>
      </trkpt>
      <trkpt lat="45.88012" lon="4.63728">
        <ele>214</ele>
        <time>2018-07-19T10:22:42Z</time>
      </trkpt>
      <trkpt lat="45.88008" lon="4.63734">
        <ele>214</ele>
        <time>2018-07-19T10:22:43Z</time>
      </trkpt>
      <trkpt lat="45.88005" lon="4.63742">
        <ele>213</ele>
        <time>2018-07-19T10:22:44Z</time>
      </trkpt>
      <trkpt lat="45.88001" lon="4.63747">
        <ele>213</ele>
        <time>2018-07-19T10:22:45Z</time>
      </trkpt>
      <trkpt lat="45.87997" lon="4.63752">
        <ele>213</ele>
        <time>2018-07-19T10:22:46Z</time>
      </trkpt>
      <trkpt lat="45.87994" lon="4.6376">
        <ele>213</ele>
        <time>2018-07-19T10:22:47Z</time>
      </trkpt>
      <trkpt lat="45.8799" lon="4.63766">
        <ele>213</ele>
        <time>2018-07-19T10:22:48Z</time>
      </trkpt>
      <trkpt lat="45.87986" lon="4.63772">
        <ele>213</ele>
        <time>2018-07-19T10:22:49Z</time>
      </trkpt>
      <trkpt lat="45.87982" lon="4.63779">
        <ele>213</ele>
        <time>2018-07-19T10:22:50Z</time>
      </trkpt>
      <trkpt lat="45.87979" lon="4.63786">
        <ele>213</ele>
        <time>2018-07-19T10:22:51Z</time>
      </trkpt>
      <trkpt lat="45.87975" lon="4.63793">
        <ele>213</ele>
        <time>2018-07-19T10:22:52Z</time>
      </trkpt>
      <trkpt lat="45.8797" lon="4.638">
        <ele>213</ele>
        <time>2018-07-19T10:22:53Z</time>
      </trkpt>
      <trkpt lat="45.87966" lon="4.63807">
        <ele>213</ele>
        <time>2018-07-19T10:22:54Z</time>
      </trkpt>
      <trkpt lat="45.87962" lon="4.63814">
        <ele>213</ele>
        <time>2018-07-19T10:22:55Z</time>
      </trkpt>
      <trkpt lat="45.87958" lon="4.6382">
        <ele>213</ele>
        <time>2018-07-19T10:22:56Z</time>
      </trkpt>
      <trkpt lat="45.87954" lon="4.63827">
        <ele>213</ele>
        <time>2018-07-19T10:22:57Z</time>
      </trkpt>
      <trkpt lat="45.87949" lon="4.63834">
        <ele>213</ele>
        <time>2018-07-19T10:22:58Z</time>
      </trkpt>
      <trkpt lat="45.87945" lon="4.63842">
        <ele>213</ele>
        <time>2018-07-19T10:22:59Z</time>
      </trkpt>
      <trkpt lat="45.87941" lon="4.63848">
        <ele>213</ele>
        <time>2018-07-19T10:23:00Z</time>
      </trkpt>
      <trkpt lat="45.87937" lon="4.63855">
        <ele>213</ele>
        <time>2018-07-19T10:23:01Z</time>
      </trkpt>
      <trkpt lat="45.87932" lon="4.63862">
        <ele>213</ele>
        <time>2018-07-19T10:23:02Z</time>
      </trkpt>
      <trkpt lat="45.87927" lon="4.63868">
        <ele>213</ele>
        <time>2018-07-19T10:23:03Z</time>
      </trkpt>
      <trkpt lat="45.87924" lon="4.63874">
        <ele>213</ele>
        <time>2018-07-19T10:23:04Z</time>
      </trkpt>
      <trkpt lat="45.8792" lon="4.63878">
        <ele>213</ele>
        <time>2018-07-19T10:23:05Z</time>
      </trkpt>
      <trkpt lat="45.87917" lon="4.63884">
        <ele>213</ele>
        <time>2018-07-19T10:23:06Z</time>
      </trkpt>
      <trkpt lat="45.87913" lon="4.63889">
        <ele>213</ele>
        <time>2018-07-19T10:23:07Z</time>
      </trkpt>
      <trkpt lat="45.87911" lon="4.63897">
        <ele>213</ele>
        <time>2018-07-19T10:23:08Z</time>
      </trkpt>
      <trkpt lat="45.87907" lon="4.63903">
        <ele>213</ele>
        <time>2018-07-19T10:23:09Z</time>
      </trkpt>
      <trkpt lat="45.87903" lon="4.63909">
        <ele>213</ele>
        <time>2018-07-19T10:23:10Z</time>
      </trkpt>
      <trkpt lat="45.87899" lon="4.63915">
        <ele>213</ele>
        <time>2018-07-19T10:23:11Z</time>
      </trkpt>
      <trkpt lat="45.87895" lon="4.63922">
        <ele>213</ele>
        <time>2018-07-19T10:23:12Z</time>
      </trkpt>
      <trkpt lat="45.87891" lon="4.63928">
        <ele>212</ele>
        <time>2018-07-19T10:23:13Z</time>
      </trkpt>
      <trkpt lat="45.87887" lon="4.63935">
        <ele>212</ele>
        <time>2018-07-19T10:23:14Z</time>
      </trkpt>
      <trkpt lat="45.87883" lon="4.63941">
        <ele>212</ele>
        <time>2018-07-19T10:23:15Z</time>
      </trkpt>
      <trkpt lat="45.87879" lon="4.63949">
        <ele>212</ele>
        <time>2018-07-19T10:23:16Z</time>
      </trkpt>
      <trkpt lat="45.87874" lon="4.63956">
        <ele>212</ele>
        <time>2018-07-19T10:23:17Z</time>
      </trkpt>
      <trkpt lat="45.87869" lon="4.63963">
        <ele>212</ele>
        <time>2018-07-19T10:23:18Z</time>
      </trkpt>
      <trkpt lat="45.87864" lon="4.63969">
        <ele>212</ele>
        <time>2018-07-19T10:23:19Z</time>
      </trkpt>
      <trkpt lat="45.8786" lon="4.63976">
        <ele>212</ele>
        <time>2018-07-19T10:23:20Z</time>
      </trkpt>
      <trkpt lat="45.87856" lon="4.63981">
        <ele>212</ele>
        <time>2018-07-19T10:23:21Z</time>
      </trkpt>
      <trkpt lat="45.87852" lon="4.63988">
        <ele>212</ele>
        <time>2018-07-19T10:23:22Z</time>
      </trkpt>
      <trkpt lat="45.87847" lon="4.63994">
        <ele>212</ele>
        <time>2018-07-19T10:23:23Z</time>
      </trkpt>
      <trkpt lat="45.87844" lon="4.64">
        <ele>212</ele>
        <time>2018-07-19T10:23:24Z</time>
      </trkpt>
      <trkpt lat="45.87842" lon="4.64006">
        <ele>212</ele>
        <time>2018-07-19T10:23:25Z</time>
      </trkpt>
      <trkpt lat="45.87838" lon="4.64013">
        <ele>212</ele>
        <time>2018-07-19T10:23:26Z</time>
      </trkpt>
      <trkpt lat="45.87834" lon="4.64021">
        <ele>213</ele>
        <time>2018-07-19T10:23:27Z</time>
      </trkpt>
      <trkpt lat="45.87829" lon="4.64027">
        <ele>213</ele>
        <time>2018-07-19T10:23:28Z</time>
      </trkpt>
      <trkpt lat="45.87825" lon="4.64035">
        <ele>213</ele>
        <time>2018-07-19T10:23:29Z</time>
      </trkpt>
      <trkpt lat="45.87821" lon="4.64042">
        <ele>214</ele>
        <time>2018-07-19T10:23:30Z</time>
      </trkpt>
      <trkpt lat="45.87817" lon="4.6405">
        <ele>214</ele>
        <time>2018-07-19T10:23:31Z</time>
      </trkpt>
      <trkpt lat="45.87812" lon="4.64057">
        <ele>214</ele>
        <time>2018-07-19T10:23:32Z</time>
      </trkpt>
      <trkpt lat="45.87808" lon="4.64064">
        <ele>214</ele>
        <time>2018-07-19T10:23:33Z</time>
      </trkpt>
      <trkpt lat="45.87803" lon="4.64071">
        <ele>214</ele>
        <time>2018-07-19T10:23:34Z</time>
      </trkpt>
      <trkpt lat="45.87798" lon="4.64078">
        <ele>214</ele>
        <time>2018-07-19T10:23:35Z</time>
      </trkpt>
      <trkpt lat="45.87794" lon="4.64086">
        <ele>215</ele>
        <time>2018-07-19T10:23:36Z</time>
      </trkpt>
      <trkpt lat="45.87789" lon="4.64094">
        <ele>215</ele>
        <time>2018-07-19T10:23:37Z</time>
      </trkpt>
      <trkpt lat="45.87785" lon="4.641">
        <ele>215</ele>
        <time>2018-07-19T10:23:38Z</time>
      </trkpt>
      <trkpt lat="45.87781" lon="4.64107">
        <ele>215</ele>
        <time>2018-07-19T10:23:39Z</time>
      </trkpt>
      <trkpt lat="45.87777" lon="4.64114">
        <ele>215</ele>
        <time>2018-07-19T10:23:40Z</time>
      </trkpt>
      <trkpt lat="45.87772" lon="4.64121">
        <ele>215</ele>
        <time>2018-07-19T10:23:41Z</time>
      </trkpt>
      <trkpt lat="45.87768" lon="4.64129">
        <ele>215</ele>
        <time>2018-07-19T10:23:42Z</time>
      </trkpt>
      <trkpt lat="45.87764" lon="4.64137">
        <ele>215</ele>
        <time>2018-07-19T10:23:43Z</time>
      </trkpt>
      <trkpt lat="45.8776" lon="4.64144">
        <ele>215</ele>
        <time>2018-07-19T10:23:44Z</time>
      </trkpt>
      <trkpt lat="45.87756" lon="4.6415">
        <ele>215</ele>
        <time>2018-07-19T10:23:45Z</time>
      </trkpt>
      <trkpt lat="45.87751" lon="4.64157">
        <ele>214</ele>
        <time>2018-07-19T10:23:46Z</time>
      </trkpt>
      <trkpt lat="45.87747" lon="4.64164">
        <ele>214</ele>
        <time>2018-07-19T10:23:47Z</time>
      </trkpt>
      <trkpt lat="45.87742" lon="4.64172">
        <ele>213</ele>
        <time>2018-07-19T10:23:48Z</time>
      </trkpt>
      <trkpt lat="45.87738" lon="4.6418">
        <ele>213</ele>
        <time>2018-07-19T10:23:49Z</time>
      </trkpt>
      <trkpt lat="45.87734" lon="4.64186">
        <ele>212</ele>
        <time>2018-07-19T10:23:50Z</time>
      </trkpt>
      <trkpt lat="45.8773" lon="4.64193">
        <ele>212</ele>
        <time>2018-07-19T10:23:51Z</time>
      </trkpt>
      <trkpt lat="45.87726" lon="4.64199">
        <ele>212</ele>
        <time>2018-07-19T10:23:52Z</time>
      </trkpt>
      <trkpt lat="45.87722" lon="4.64205">
        <ele>212</ele>
        <time>2018-07-19T10:23:53Z</time>
      </trkpt>
      <trkpt lat="45.87718" lon="4.64212">
        <ele>212</ele>
        <time>2018-07-19T10:23:54Z</time>
      </trkpt>
      <trkpt lat="45.87715" lon="4.6422">
        <ele>211</ele>
        <time>2018-07-19T10:23:55Z</time>
      </trkpt>
      <trkpt lat="45.87712" lon="4.64226">
        <ele>211</ele>
        <time>2018-07-19T10:23:56Z</time>
      </trkpt>
      <trkpt lat="45.87707" lon="4.6423">
        <ele>211</ele>
        <time>2018-07-19T10:23:57Z</time>
      </trkpt>
      <trkpt lat="45.87704" lon="4.64236">
        <ele>211</ele>
        <time>2018-07-19T10:23:58Z</time>
      </trkpt>
      <trkpt lat="45.877" lon="4.64243">
        <ele>211</ele>
        <time>2018-07-19T10:23:59Z</time>
      </trkpt>
      <trkpt lat="45.87697" lon="4.64249">
        <ele>211</ele>
        <time>2018-07-19T10:24:00Z</time>
      </trkpt>
      <trkpt lat="45.87694" lon="4.64255">
        <ele>210</ele>
        <time>2018-07-19T10:24:01Z</time>
      </trkpt>
      <trkpt lat="45.8769" lon="4.64261">
        <ele>210</ele>
        <time>2018-07-19T10:24:02Z</time>
      </trkpt>
      <trkpt lat="45.87686" lon="4.64267">
        <ele>210</ele>
        <time>2018-07-19T10:24:03Z</time>
      </trkpt>
      <trkpt lat="45.87682" lon="4.64274">
        <ele>210</ele>
        <time>2018-07-19T10:24:04Z</time>
      </trkpt>
      <trkpt lat="45.87679" lon="4.64281">
        <ele>210</ele>
        <time>2018-07-19T10:24:05Z</time>
      </trkpt>
      <trkpt lat="45.87674" lon="4.64286">
        <ele>210</ele>
        <time>2018-07-19T10:24:06Z</time>
      </trkpt>
      <trkpt lat="45.8767" lon="4.64293">
        <ele>210</ele>
        <time>2018-07-19T10:24:07Z</time>
      </trkpt>
      <trkpt lat="45.87666" lon="4.64299">
        <ele>210</ele>
        <time>2018-07-19T10:24:08Z</time>
      </trkpt>
      <trkpt lat="45.87662" lon="4.64306">
        <ele>210</ele>
        <time>2018-07-19T10:24:09Z</time>
      </trkpt>
      <trkpt lat="45.87659" lon="4.64318">
        <ele>209</ele>
        <time>2018-07-19T10:24:10Z</time>
      </trkpt>
      <trkpt lat="45.87655" lon="4.64326">
        <ele>209</ele>
        <time>2018-07-19T10:24:11Z</time>
      </trkpt>
      <trkpt lat="45.8765" lon="4.64332">
        <ele>210</ele>
        <time>2018-07-19T10:24:12Z</time>
      </trkpt>
      <trkpt lat="45.87645" lon="4.6434">
        <ele>210</ele>
        <time>2018-07-19T10:24:13Z</time>
      </trkpt>
      <trkpt lat="45.8764" lon="4.64345">
        <ele>211</ele>
        <time>2018-07-19T10:24:14Z</time>
      </trkpt>
      <trkpt lat="45.87636" lon="4.64352">
        <ele>211</ele>
        <time>2018-07-19T10:24:15Z</time>
      </trkpt>
      <trkpt lat="45.87632" lon="4.64359">
        <ele>211</ele>
        <time>2018-07-19T10:24:16Z</time>
      </trkpt>
      <trkpt lat="45.87627" lon="4.64365">
        <ele>211</ele>
        <time>2018-07-19T10:24:17Z</time>
      </trkpt>
      <trkpt lat="45.87624" lon="4.64372">
        <ele>211</ele>
        <time>2018-07-19T10:24:18Z</time>
      </trkpt>
      <trkpt lat="45.8762" lon="4.6438">
        <ele>212</ele>
        <time>2018-07-19T10:24:19Z</time>
      </trkpt>
      <trkpt lat="45.87617" lon="4.64384">
        <ele>212</ele>
        <time>2018-07-19T10:24:20Z</time>
      </trkpt>
      <trkpt lat="45.87611" lon="4.64391">
        <ele>212</ele>
        <time>2018-07-19T10:24:25Z</time>
      </trkpt>
      <trkpt lat="45.87611" lon="4.64391">
        <ele>212</ele>
        <time>2018-07-19T10:24:26Z</time>
      </trkpt>
      <trkpt lat="45.87611" lon="4.64392">
        <ele>212</ele>
        <time>2018-07-19T10:24:27Z</time>
      </trkpt>
      <trkpt lat="45.87604" lon="4.64398">
        <ele>212</ele>
        <time>2018-07-19T10:24:44Z</time>
      </trkpt>
      <trkpt lat="45.87603" lon="4.64401">
        <ele>212</ele>
        <time>2018-07-19T10:24:45Z</time>
      </trkpt>
      <trkpt lat="45.87597" lon="4.64409">
        <ele>212</ele>
        <time>2018-07-19T10:24:48Z</time>
      </trkpt>
      <trkpt lat="45.87595" lon="4.64412">
        <ele>212</ele>
        <time>2018-07-19T10:24:49Z</time>
      </trkpt>
      <trkpt lat="45.87593" lon="4.64414">
        <ele>213</ele>
        <time>2018-07-19T10:24:50Z</time>
      </trkpt>
      <trkpt lat="45.87587" lon="4.64423">
        <ele>213</ele>
        <time>2018-07-19T10:24:51Z</time>
      </trkpt>
      <trkpt lat="45.87583" lon="4.64432">
        <ele>213</ele>
        <time>2018-07-19T10:24:53Z</time>
      </trkpt>
      <trkpt lat="45.87581" lon="4.64438">
        <ele>212</ele>
        <time>2018-07-19T10:24:54Z</time>
      </trkpt>
      <trkpt lat="45.87579" lon="4.64443">
        <ele>212</ele>
        <time>2018-07-19T10:24:55Z</time>
      </trkpt>
      <trkpt lat="45.87575" lon="4.6445">
        <ele>212</ele>
        <time>2018-07-19T10:24:56Z</time>
      </trkpt>
      <trkpt lat="45.8757" lon="4.64459">
        <ele>212</ele>
        <time>2018-07-19T10:24:58Z</time>
      </trkpt>
      <trkpt lat="45.87565" lon="4.64464">
        <ele>212</ele>
        <time>2018-07-19T10:24:59Z</time>
      </trkpt>
      <trkpt lat="45.87562" lon="4.64471">
        <ele>212</ele>
        <time>2018-07-19T10:25:00Z</time>
      </trkpt>
      <trkpt lat="45.87558" lon="4.64478">
        <ele>212</ele>
        <time>2018-07-19T10:25:01Z</time>
      </trkpt>
      <trkpt lat="45.87554" lon="4.64484">
        <ele>212</ele>
        <time>2018-07-19T10:25:02Z</time>
      </trkpt>
      <trkpt lat="45.8755" lon="4.6449">
        <ele>212</ele>
        <time>2018-07-19T10:25:03Z</time>
      </trkpt>
      <trkpt lat="45.87546" lon="4.64495">
        <ele>212</ele>
        <time>2018-07-19T10:25:04Z</time>
      </trkpt>
      <trkpt lat="45.87541" lon="4.64503">
        <ele>212</ele>
        <time>2018-07-19T10:25:05Z</time>
      </trkpt>
      <trkpt lat="45.87537" lon="4.64509">
        <ele>212</ele>
        <time>2018-07-19T10:25:06Z</time>
      </trkpt>
      <trkpt lat="45.87532" lon="4.64516">
        <ele>212</ele>
        <time>2018-07-19T10:25:07Z</time>
      </trkpt>
      <trkpt lat="45.87529" lon="4.64521">
        <ele>212</ele>
        <time>2018-07-19T10:25:08Z</time>
      </trkpt>
      <trkpt lat="45.87523" lon="4.6453">
        <ele>212</ele>
        <time>2018-07-19T10:25:09Z</time>
      </trkpt>
      <trkpt lat="45.8752" lon="4.64538">
        <ele>212</ele>
        <time>2018-07-19T10:25:10Z</time>
      </trkpt>
      <trkpt lat="45.87515" lon="4.64545">
        <ele>212</ele>
        <time>2018-07-19T10:25:11Z</time>
      </trkpt>
      <trkpt lat="45.8751" lon="4.64552">
        <ele>212</ele>
        <time>2018-07-19T10:25:12Z</time>
      </trkpt>
      <trkpt lat="45.87506" lon="4.64557">
        <ele>212</ele>
        <time>2018-07-19T10:25:13Z</time>
      </trkpt>
      <trkpt lat="45.87503" lon="4.64564">
        <ele>212</ele>
        <time>2018-07-19T10:25:14Z</time>
      </trkpt>
      <trkpt lat="45.87499" lon="4.64569">
        <ele>213</ele>
        <time>2018-07-19T10:25:15Z</time>
      </trkpt>
      <trkpt lat="45.87494" lon="4.64576">
        <ele>213</ele>
        <time>2018-07-19T10:25:16Z</time>
      </trkpt>
      <trkpt lat="45.8749" lon="4.64584">
        <ele>213</ele>
        <time>2018-07-19T10:25:17Z</time>
      </trkpt>
      <trkpt lat="45.87486" lon="4.64591">
        <ele>213</ele>
        <time>2018-07-19T10:25:18Z</time>
      </trkpt>
      <trkpt lat="45.87482" lon="4.64596">
        <ele>213</ele>
        <time>2018-07-19T10:25:19Z</time>
      </trkpt>
      <trkpt lat="45.87478" lon="4.64603">
        <ele>212</ele>
        <time>2018-07-19T10:25:20Z</time>
      </trkpt>
      <trkpt lat="45.87473" lon="4.64611">
        <ele>212</ele>
        <time>2018-07-19T10:25:21Z</time>
      </trkpt>
      <trkpt lat="45.87469" lon="4.64618">
        <ele>212</ele>
        <time>2018-07-19T10:25:22Z</time>
      </trkpt>
      <trkpt lat="45.87465" lon="4.64625">
        <ele>212</ele>
        <time>2018-07-19T10:25:23Z</time>
      </trkpt>
      <trkpt lat="45.87462" lon="4.64632">
        <ele>212</ele>
        <time>2018-07-19T10:25:24Z</time>
      </trkpt>
      <trkpt lat="45.8746" lon="4.64639">
        <ele>212</ele>
        <time>2018-07-19T10:25:25Z</time>
      </trkpt>
      <trkpt lat="45.87455" lon="4.64645">
        <ele>212</ele>
        <time>2018-07-19T10:25:26Z</time>
      </trkpt>
      <trkpt lat="45.8745" lon="4.64653">
        <ele>212</ele>
        <time>2018-07-19T10:25:27Z</time>
      </trkpt>
      <trkpt lat="45.87447" lon="4.64662">
        <ele>212</ele>
        <time>2018-07-19T10:25:28Z</time>
      </trkpt>
      <trkpt lat="45.87443" lon="4.64669">
        <ele>212</ele>
        <time>2018-07-19T10:25:29Z</time>
      </trkpt>
      <trkpt lat="45.87437" lon="4.64679">
        <ele>212</ele>
        <time>2018-07-19T10:25:30Z</time>
      </trkpt>
      <trkpt lat="45.87432" lon="4.64687">
        <ele>212</ele>
        <time>2018-07-19T10:25:31Z</time>
      </trkpt>
      <trkpt lat="45.87427" lon="4.64695">
        <ele>212</ele>
        <time>2018-07-19T10:25:32Z</time>
      </trkpt>
      <trkpt lat="45.87423" lon="4.64702">
        <ele>212</ele>
        <time>2018-07-19T10:25:33Z</time>
      </trkpt>
      <trkpt lat="45.87419" lon="4.6471">
        <ele>212</ele>
        <time>2018-07-19T10:25:34Z</time>
      </trkpt>
      <trkpt lat="45.87413" lon="4.64716">
        <ele>211</ele>
        <time>2018-07-19T10:25:35Z</time>
      </trkpt>
      <trkpt lat="45.87408" lon="4.64723">
        <ele>211</ele>
        <time>2018-07-19T10:25:36Z</time>
      </trkpt>
      <trkpt lat="45.87404" lon="4.64729">
        <ele>211</ele>
        <time>2018-07-19T10:25:37Z</time>
      </trkpt>
      <trkpt lat="45.874" lon="4.64735">
        <ele>211</ele>
        <time>2018-07-19T10:25:38Z</time>
      </trkpt>
      <trkpt lat="45.87396" lon="4.64742">
        <ele>211</ele>
        <time>2018-07-19T10:25:39Z</time>
      </trkpt>
      <trkpt lat="45.87392" lon="4.64748">
        <ele>211</ele>
        <time>2018-07-19T10:25:40Z</time>
      </trkpt>
      <trkpt lat="45.87389" lon="4.64755">
        <ele>211</ele>
        <time>2018-07-19T10:25:41Z</time>
      </trkpt>
      <trkpt lat="45.87386" lon="4.64761">
        <ele>211</ele>
        <time>2018-07-19T10:25:42Z</time>
      </trkpt>
      <trkpt lat="45.8738" lon="4.64767">
        <ele>211</ele>
        <time>2018-07-19T10:25:43Z</time>
      </trkpt>
      <trkpt lat="45.87376" lon="4.64773">
        <ele>211</ele>
        <time>2018-07-19T10:25:44Z</time>
      </trkpt>
      <trkpt lat="45.87371" lon="4.64781">
        <ele>212</ele>
        <time>2018-07-19T10:25:45Z</time>
      </trkpt>
      <trkpt lat="45.87366" lon="4.64787">
        <ele>212</ele>
        <time>2018-07-19T10:25:46Z</time>
      </trkpt>
      <trkpt lat="45.87362" lon="4.64795">
        <ele>212</ele>
        <time>2018-07-19T10:25:47Z</time>
      </trkpt>
      <trkpt lat="45.87356" lon="4.64804">
        <ele>212</ele>
        <time>2018-07-19T10:25:48Z</time>
      </trkpt>
      <trkpt lat="45.87352" lon="4.6481">
        <ele>212</ele>
        <time>2018-07-19T10:25:49Z</time>
      </trkpt>
      <trkpt lat="45.87348" lon="4.64816">
        <ele>211</ele>
        <time>2018-07-19T10:25:50Z</time>
      </trkpt>
      <trkpt lat="45.87342" lon="4.64824">
        <ele>211</ele>
        <time>2018-07-19T10:25:51Z</time>
      </trkpt>
      <trkpt lat="45.87337" lon="4.64829">
        <ele>211</ele>
        <time>2018-07-19T10:25:52Z</time>
      </trkpt>
      <trkpt lat="45.87331" lon="4.64837">
        <ele>211</ele>
        <time>2018-07-19T10:25:53Z</time>
      </trkpt>
      <trkpt lat="45.87327" lon="4.64841">
        <ele>211</ele>
        <time>2018-07-19T10:25:54Z</time>
      </trkpt>
      <trkpt lat="45.87322" lon="4.6485">
        <ele>211</ele>
        <time>2018-07-19T10:25:55Z</time>
      </trkpt>
      <trkpt lat="45.87318" lon="4.64857">
        <ele>211</ele>
        <time>2018-07-19T10:25:56Z</time>
      </trkpt>
      <trkpt lat="45.87314" lon="4.64864">
        <ele>211</ele>
        <time>2018-07-19T10:25:57Z</time>
      </trkpt>
      <trkpt lat="45.8731" lon="4.6487">
        <ele>211</ele>
        <time>2018-07-19T10:25:58Z</time>
      </trkpt>
      <trkpt lat="45.87306" lon="4.64879">
        <ele>211</ele>
        <time>2018-07-19T10:25:59Z</time>
      </trkpt>
      <trkpt lat="45.87302" lon="4.64885">
        <ele>211</ele>
        <time>2018-07-19T10:26:00Z</time>
      </trkpt>
      <trkpt lat="45.87297" lon="4.64893">
        <ele>211</ele>
        <time>2018-07-19T10:26:01Z</time>
      </trkpt>
      <trkpt lat="45.87295" lon="4.64899">
        <ele>211</ele>
        <time>2018-07-19T10:26:02Z</time>
      </trkpt>
      <trkpt lat="45.87291" lon="4.64906">
        <ele>211</ele>
        <time>2018-07-19T10:26:03Z</time>
      </trkpt>
      <trkpt lat="45.87286" lon="4.64913">
        <ele>211</ele>
        <time>2018-07-19T10:26:04Z</time>
      </trkpt>
      <trkpt lat="45.87282" lon="4.64919">
        <ele>212</ele>
        <time>2018-07-19T10:26:05Z</time>
      </trkpt>
      <trkpt lat="45.87278" lon="4.64926">
        <ele>212</ele>
        <time>2018-07-19T10:26:06Z</time>
      </trkpt>
      <trkpt lat="45.87274" lon="4.64932">
        <ele>212</ele>
        <time>2018-07-19T10:26:07Z</time>
      </trkpt>
      <trkpt lat="45.8727" lon="4.64939">
        <ele>212</ele>
        <time>2018-07-19T10:26:08Z</time>
      </trkpt>
      <trkpt lat="45.87266" lon="4.64945">
        <ele>213</ele>
        <time>2018-07-19T10:26:09Z</time>
      </trkpt>
      <trkpt lat="45.87262" lon="4.6495">
        <ele>213</ele>
        <time>2018-07-19T10:26:10Z</time>
      </trkpt>
      <trkpt lat="45.87258" lon="4.64956">
        <ele>212</ele>
        <time>2018-07-19T10:26:11Z</time>
      </trkpt>
      <trkpt lat="45.87255" lon="4.64963">
        <ele>212</ele>
        <time>2018-07-19T10:26:12Z</time>
      </trkpt>
      <trkpt lat="45.87251" lon="4.64969">
        <ele>212</ele>
        <time>2018-07-19T10:26:13Z</time>
      </trkpt>
      <trkpt lat="45.87247" lon="4.64977">
        <ele>211</ele>
        <time>2018-07-19T10:26:14Z</time>
      </trkpt>
      <trkpt lat="45.87244" lon="4.64985">
        <ele>211</ele>
        <time>2018-07-19T10:26:15Z</time>
      </trkpt>
      <trkpt lat="45.87239" lon="4.64991">
        <ele>211</ele>
        <time>2018-07-19T10:26:16Z</time>
      </trkpt>
      <trkpt lat="45.87235" lon="4.64998">
        <ele>211</ele>
        <time>2018-07-19T10:26:17Z</time>
      </trkpt>
      <trkpt lat="45.87231" lon="4.65005">
        <ele>212</ele>
        <time>2018-07-19T10:26:18Z</time>
      </trkpt>
      <trkpt lat="45.87228" lon="4.65013">
        <ele>212</ele>
        <time>2018-07-19T10:26:19Z</time>
      </trkpt>
      <trkpt lat="45.87223" lon="4.65019">
        <ele>212</ele>
        <time>2018-07-19T10:26:20Z</time>
      </trkpt>
      <trkpt lat="45.87219" lon="4.65027">
        <ele>212</ele>
        <time>2018-07-19T10:26:21Z</time>
      </trkpt>
      <trkpt lat="45.87214" lon="4.65036">
        <ele>212</ele>
        <time>2018-07-19T10:26:22Z</time>
      </trkpt>
      <trkpt lat="45.8721" lon="4.65041">
        <ele>212</ele>
        <time>2018-07-19T10:26:23Z</time>
      </trkpt>
      <trkpt lat="45.87206" lon="4.65048">
        <ele>212</ele>
        <time>2018-07-19T10:26:24Z</time>
      </trkpt>
      <trkpt lat="45.87201" lon="4.65054">
        <ele>212</ele>
        <time>2018-07-19T10:26:25Z</time>
      </trkpt>
      <trkpt lat="45.87197" lon="4.65061">
        <ele>212</ele>
        <time>2018-07-19T10:26:26Z</time>
      </trkpt>
      <trkpt lat="45.87192" lon="4.65067">
        <ele>212</ele>
        <time>2018-07-19T10:26:27Z</time>
      </trkpt>
      <trkpt lat="45.87188" lon="4.65075">
        <ele>212</ele>
        <time>2018-07-19T10:26:28Z</time>
      </trkpt>
      <trkpt lat="45.87183" lon="4.65082">
        <ele>211</ele>
        <time>2018-07-19T10:26:29Z</time>
      </trkpt>
      <trkpt lat="45.87179" lon="4.6509">
        <ele>215</ele>
        <time>2018-07-19T10:26:30Z</time>
      </trkpt>
      <trkpt lat="45.87174" lon="4.65095">
        <ele>215</ele>
        <time>2018-07-19T10:26:31Z</time>
      </trkpt>
      <trkpt lat="45.87171" lon="4.65103">
        <ele>216</ele>
        <time>2018-07-19T10:26:32Z</time>
      </trkpt>
      <trkpt lat="45.87166" lon="4.6511">
        <ele>213</ele>
        <time>2018-07-19T10:26:33Z</time>
      </trkpt>
      <trkpt lat="45.87161" lon="4.65116">
        <ele>213</ele>
        <time>2018-07-19T10:26:34Z</time>
      </trkpt>
      <trkpt lat="45.87157" lon="4.65123">
        <ele>214</ele>
        <time>2018-07-19T10:26:35Z</time>
      </trkpt>
      <trkpt lat="45.87153" lon="4.6513">
        <ele>214</ele>
        <time>2018-07-19T10:26:36Z</time>
      </trkpt>
      <trkpt lat="45.87148" lon="4.65136">
        <ele>214</ele>
        <time>2018-07-19T10:26:37Z</time>
      </trkpt>
      <trkpt lat="45.87144" lon="4.65143">
        <ele>214</ele>
        <time>2018-07-19T10:26:38Z</time>
      </trkpt>
      <trkpt lat="45.8714" lon="4.6515">
        <ele>215</ele>
        <time>2018-07-19T10:26:39Z</time>
      </trkpt>
      <trkpt lat="45.87137" lon="4.65158">
        <ele>215</ele>
        <time>2018-07-19T10:26:40Z</time>
      </trkpt>
      <trkpt lat="45.87132" lon="4.65165">
        <ele>215</ele>
        <time>2018-07-19T10:26:41Z</time>
      </trkpt>
      <trkpt lat="45.87129" lon="4.65171">
        <ele>219</ele>
        <time>2018-07-19T10:26:42Z</time>
      </trkpt>
      <trkpt lat="45.87126" lon="4.65179">
        <ele>219</ele>
        <time>2018-07-19T10:26:43Z</time>
      </trkpt>
      <trkpt lat="45.87122" lon="4.65186">
        <ele>219</ele>
        <time>2018-07-19T10:26:44Z</time>
      </trkpt>
      <trkpt lat="45.87118" lon="4.65192">
        <ele>219</ele>
        <time>2018-07-19T10:26:45Z</time>
      </trkpt>
      <trkpt lat="45.87116" lon="4.65198">
        <ele>219</ele>
        <time>2018-07-19T10:26:46Z</time>
      </trkpt>
      <trkpt lat="45.87111" lon="4.65207">
        <ele>219</ele>
        <time>2018-07-19T10:26:47Z</time>
      </trkpt>
      <trkpt lat="45.87107" lon="4.65213">
        <ele>219</ele>
        <time>2018-07-19T10:26:48Z</time>
      </trkpt>
      <trkpt lat="45.87103" lon="4.65221">
        <ele>218</ele>
        <time>2018-07-19T10:26:49Z</time>
      </trkpt>
      <trkpt lat="45.87101" lon="4.6523">
        <ele>218</ele>
        <time>2018-07-19T10:26:50Z</time>
      </trkpt>
      <trkpt lat="45.87096" lon="4.65238">
        <ele>217</ele>
        <time>2018-07-19T10:26:51Z</time>
      </trkpt>
      <trkpt lat="45.87092" lon="4.65243">
        <ele>216</ele>
        <time>2018-07-19T10:26:52Z</time>
      </trkpt>
      <trkpt lat="45.87088" lon="4.65252">
        <ele>216</ele>
        <time>2018-07-19T10:26:53Z</time>
      </trkpt>
      <trkpt lat="45.87083" lon="4.65261">
        <ele>214</ele>
        <time>2018-07-19T10:26:54Z</time>
      </trkpt>
      <trkpt lat="45.87077" lon="4.65265">
        <ele>214</ele>
        <time>2018-07-19T10:26:55Z</time>
      </trkpt>
      <trkpt lat="45.87073" lon="4.65272">
        <ele>215</ele>
        <time>2018-07-19T10:26:56Z</time>
      </trkpt>
      <trkpt lat="45.8707" lon="4.65279">
        <ele>215</ele>
        <time>2018-07-19T10:26:57Z</time>
      </trkpt>
      <trkpt lat="45.87066" lon="4.65284">
        <ele>216</ele>
        <time>2018-07-19T10:26:58Z</time>
      </trkpt>
      <trkpt lat="45.87064" lon="4.65291">
        <ele>216</ele>
        <time>2018-07-19T10:26:59Z</time>
      </trkpt>
      <trkpt lat="45.87061" lon="4.65299">
        <ele>216</ele>
        <time>2018-07-19T10:27:00Z</time>
      </trkpt>
      <trkpt lat="45.87058" lon="4.65307">
        <ele>217</ele>
        <time>2018-07-19T10:27:01Z</time>
      </trkpt>
      <trkpt lat="45.87053" lon="4.65315">
        <ele>217</ele>
        <time>2018-07-19T10:27:02Z</time>
      </trkpt>
      <trkpt lat="45.8705" lon="4.65323">
        <ele>217</ele>
        <time>2018-07-19T10:27:03Z</time>
      </trkpt>
      <trkpt lat="45.87045" lon="4.65329">
        <ele>217</ele>
        <time>2018-07-19T10:27:04Z</time>
      </trkpt>
      <trkpt lat="45.87041" lon="4.65337">
        <ele>222</ele>
        <time>2018-07-19T10:27:05Z</time>
      </trkpt>
      <trkpt lat="45.87036" lon="4.65344">
        <ele>222</ele>
        <time>2018-07-19T10:27:06Z</time>
      </trkpt>
      <trkpt lat="45.87031" lon="4.6535">
        <ele>222</ele>
        <time>2018-07-19T10:27:07Z</time>
      </trkpt>
      <trkpt lat="45.87027" lon="4.65356">
        <ele>222</ele>
        <time>2018-07-19T10:27:08Z</time>
      </trkpt>
      <trkpt lat="45.87023" lon="4.65362">
        <ele>222</ele>
        <time>2018-07-19T10:27:09Z</time>
      </trkpt>
      <trkpt lat="45.87017" lon="4.65369">
        <ele>222</ele>
        <time>2018-07-19T10:27:10Z</time>
      </trkpt>
      <trkpt lat="45.87013" lon="4.65373">
        <ele>222</ele>
        <time>2018-07-19T10:27:11Z</time>
      </trkpt>
      <trkpt lat="45.87008" lon="4.65379">
        <ele>222</ele>
        <time>2018-07-19T10:27:12Z</time>
      </trkpt>
      <trkpt lat="45.87004" lon="4.65386">
        <ele>222</ele>
        <time>2018-07-19T10:27:13Z</time>
      </trkpt>
      <trkpt lat="45.87001" lon="4.65392">
        <ele>222</ele>
        <time>2018-07-19T10:27:14Z</time>
      </trkpt>
      <trkpt lat="45.86996" lon="4.65397">
        <ele>217</ele>
        <time>2018-07-19T10:27:15Z</time>
      </trkpt>
      <trkpt lat="45.86992" lon="4.65401">
        <ele>217</ele>
        <time>2018-07-19T10:27:16Z</time>
      </trkpt>
      <trkpt lat="45.86986" lon="4.65406">
        <ele>218</ele>
        <time>2018-07-19T10:27:17Z</time>
      </trkpt>
      <trkpt lat="45.86982" lon="4.6541">
        <ele>217</ele>
        <time>2018-07-19T10:27:18Z</time>
      </trkpt>
      <trkpt lat="45.86978" lon="4.65417">
        <ele>217</ele>
        <time>2018-07-19T10:27:19Z</time>
      </trkpt>
      <trkpt lat="45.86972" lon="4.65421">
        <ele>221</ele>
        <time>2018-07-19T10:27:20Z</time>
      </trkpt>
      <trkpt lat="45.86967" lon="4.65428">
        <ele>221</ele>
        <time>2018-07-19T10:27:21Z</time>
      </trkpt>
      <trkpt lat="45.86961" lon="4.65434">
        <ele>221</ele>
        <time>2018-07-19T10:27:22Z</time>
      </trkpt>
      <trkpt lat="45.86956" lon="4.6544">
        <ele>221</ele>
        <time>2018-07-19T10:27:23Z</time>
      </trkpt>
      <trkpt lat="45.86953" lon="4.65445">
        <ele>221</ele>
        <time>2018-07-19T10:27:24Z</time>
      </trkpt>
      <trkpt lat="45.86949" lon="4.65451">
        <ele>221</ele>
        <time>2018-07-19T10:27:25Z</time>
      </trkpt>
      <trkpt lat="45.86945" lon="4.65458">
        <ele>221</ele>
        <time>2018-07-19T10:27:26Z</time>
      </trkpt>
      <trkpt lat="45.86942" lon="4.65463">
        <ele>221</ele>
        <time>2018-07-19T10:27:27Z</time>
      </trkpt>
      <trkpt lat="45.86939" lon="4.6547">
        <ele>221</ele>
        <time>2018-07-19T10:27:28Z</time>
      </trkpt>
      <trkpt lat="45.86935" lon="4.65476">
        <ele>221</ele>
        <time>2018-07-19T10:27:29Z</time>
      </trkpt>
      <trkpt lat="45.86931" lon="4.65485">
        <ele>220</ele>
        <time>2018-07-19T10:27:30Z</time>
      </trkpt>
      <trkpt lat="45.86929" lon="4.65489">
        <ele>220</ele>
        <time>2018-07-19T10:27:31Z</time>
      </trkpt>
      <trkpt lat="45.86923" lon="4.65499">
        <ele>219</ele>
        <time>2018-07-19T10:27:33Z</time>
      </trkpt>
      <trkpt lat="45.8692" lon="4.65506">
        <ele>222</ele>
        <time>2018-07-19T10:27:34Z</time>
      </trkpt>
      <trkpt lat="45.86918" lon="4.65513">
        <ele>224</ele>
        <time>2018-07-19T10:27:35Z</time>
      </trkpt>
      <trkpt lat="45.86915" lon="4.65518">
        <ele>218</ele>
        <time>2018-07-19T10:27:36Z</time>
      </trkpt>
      <trkpt lat="45.86914" lon="4.65525">
        <ele>218</ele>
        <time>2018-07-19T10:27:37Z</time>
      </trkpt>
      <trkpt lat="45.86911" lon="4.65531">
        <ele>218</ele>
        <time>2018-07-19T10:27:38Z</time>
      </trkpt>
      <trkpt lat="45.86909" lon="4.65539">
        <ele>218</ele>
        <time>2018-07-19T10:27:39Z</time>
      </trkpt>
      <trkpt lat="45.86904" lon="4.65545">
        <ele>219</ele>
        <time>2018-07-19T10:27:40Z</time>
      </trkpt>
      <trkpt lat="45.86901" lon="4.65554">
        <ele>219</ele>
        <time>2018-07-19T10:27:41Z</time>
      </trkpt>
      <trkpt lat="45.86899" lon="4.65562">
        <ele>220</ele>
        <time>2018-07-19T10:27:42Z</time>
      </trkpt>
      <trkpt lat="45.86895" lon="4.65568">
        <ele>220</ele>
        <time>2018-07-19T10:27:43Z</time>
      </trkpt>
      <trkpt lat="45.86894" lon="4.65574">
        <ele>220</ele>
        <time>2018-07-19T10:27:44Z</time>
      </trkpt>
      <trkpt lat="45.86892" lon="4.65582">
        <ele>220</ele>
        <time>2018-07-19T10:27:45Z</time>
      </trkpt>
      <trkpt lat="45.86892" lon="4.6559">
        <ele>222</ele>
        <time>2018-07-19T10:27:46Z</time>
      </trkpt>
      <trkpt lat="45.8689" lon="4.65599">
        <ele>222</ele>
        <time>2018-07-19T10:27:47Z</time>
      </trkpt>
      <trkpt lat="45.86888" lon="4.65605">
        <ele>222</ele>
        <time>2018-07-19T10:27:48Z</time>
      </trkpt>
      <trkpt lat="45.86887" lon="4.65612">
        <ele>222</ele>
        <time>2018-07-19T10:27:49Z</time>
      </trkpt>
      <trkpt lat="45.86886" lon="4.65618">
        <ele>222</ele>
        <time>2018-07-19T10:27:50Z</time>
      </trkpt>
      <trkpt lat="45.86884" lon="4.6563">
        <ele>222</ele>
        <time>2018-07-19T10:27:52Z</time>
      </trkpt>
      <trkpt lat="45.86884" lon="4.65638">
        <ele>222</ele>
        <time>2018-07-19T10:27:53Z</time>
      </trkpt>
      <trkpt lat="45.86884" lon="4.65645">
        <ele>222</ele>
        <time>2018-07-19T10:27:54Z</time>
      </trkpt>
      <trkpt lat="45.86883" lon="4.65653">
        <ele>222</ele>
        <time>2018-07-19T10:27:55Z</time>
      </trkpt>
      <trkpt lat="45.86882" lon="4.65666">
        <ele>222</ele>
        <time>2018-07-19T10:27:57Z</time>
      </trkpt>
      <trkpt lat="45.86881" lon="4.65673">
        <ele>222</ele>
        <time>2018-07-19T10:27:58Z</time>
      </trkpt>
      <trkpt lat="45.8688" lon="4.65679">
        <ele>222</ele>
        <time>2018-07-19T10:27:59Z</time>
      </trkpt>
      <trkpt lat="45.8688" lon="4.65688">
        <ele>222</ele>
        <time>2018-07-19T10:28:00Z</time>
      </trkpt>
      <trkpt lat="45.8688" lon="4.65697">
        <ele>222</ele>
        <time>2018-07-19T10:28:01Z</time>
      </trkpt>
      <trkpt lat="45.86879" lon="4.65705">
        <ele>221</ele>
        <time>2018-07-19T10:28:02Z</time>
      </trkpt>
      <trkpt lat="45.86877" lon="4.65718">
        <ele>221</ele>
        <time>2018-07-19T10:28:04Z</time>
      </trkpt>
      <trkpt lat="45.86877" lon="4.65724">
        <ele>221</ele>
        <time>2018-07-19T10:28:05Z</time>
      </trkpt>
      <trkpt lat="45.86876" lon="4.65732">
        <ele>221</ele>
        <time>2018-07-19T10:28:06Z</time>
      </trkpt>
      <trkpt lat="45.86876" lon="4.65738">
        <ele>221</ele>
        <time>2018-07-19T10:28:07Z</time>
      </trkpt>
      <trkpt lat="45.86875" lon="4.65745">
        <ele>221</ele>
        <time>2018-07-19T10:28:08Z</time>
      </trkpt>
      <trkpt lat="45.86873" lon="4.65753">
        <ele>221</ele>
        <time>2018-07-19T10:28:09Z</time>
      </trkpt>
      <trkpt lat="45.86873" lon="4.65762">
        <ele>221</ele>
        <time>2018-07-19T10:28:10Z</time>
      </trkpt>
      <trkpt lat="45.86871" lon="4.65768">
        <ele>221</ele>
        <time>2018-07-19T10:28:11Z</time>
      </trkpt>
      <trkpt lat="45.8687" lon="4.65776">
        <ele>221</ele>
        <time>2018-07-19T10:28:12Z</time>
      </trkpt>
      <trkpt lat="45.86869" lon="4.65784">
        <ele>221</ele>
        <time>2018-07-19T10:28:13Z</time>
      </trkpt>
      <trkpt lat="45.86867" lon="4.65792">
        <ele>221</ele>
        <time>2018-07-19T10:28:14Z</time>
      </trkpt>
      <trkpt lat="45.86864" lon="4.65798">
        <ele>221</ele>
        <time>2018-07-19T10:28:15Z</time>
      </trkpt>
      <trkpt lat="45.86863" lon="4.65808">
        <ele>221</ele>
        <time>2018-07-19T10:28:16Z</time>
      </trkpt>
      <trkpt lat="45.86861" lon="4.65817">
        <ele>220</ele>
        <time>2018-07-19T10:28:17Z</time>
      </trkpt>
      <trkpt lat="45.86859" lon="4.65825">
        <ele>219</ele>
        <time>2018-07-19T10:28:18Z</time>
      </trkpt>
      <trkpt lat="45.86856" lon="4.65832">
        <ele>219</ele>
        <time>2018-07-19T10:28:19Z</time>
      </trkpt>
      <trkpt lat="45.86854" lon="4.65839">
        <ele>222</ele>
        <time>2018-07-19T10:28:20Z</time>
      </trkpt>
      <trkpt lat="45.86851" lon="4.65846">
        <ele>222</ele>
        <time>2018-07-19T10:28:21Z</time>
      </trkpt>
      <trkpt lat="45.86849" lon="4.65854">
        <ele>223</ele>
        <time>2018-07-19T10:28:22Z</time>
      </trkpt>
      <trkpt lat="45.86845" lon="4.65862">
        <ele>224</ele>
        <time>2018-07-19T10:28:23Z</time>
      </trkpt>
      <trkpt lat="45.86841" lon="4.6587">
        <ele>225</ele>
        <time>2018-07-19T10:28:24Z</time>
      </trkpt>
      <trkpt lat="45.86838" lon="4.65879">
        <ele>225</ele>
        <time>2018-07-19T10:28:25Z</time>
      </trkpt>
      <trkpt lat="45.86833" lon="4.65885">
        <ele>216</ele>
        <time>2018-07-19T10:28:26Z</time>
      </trkpt>
      <trkpt lat="45.86829" lon="4.65892">
        <ele>216</ele>
        <time>2018-07-19T10:28:27Z</time>
      </trkpt>
      <trkpt lat="45.86825" lon="4.65898">
        <ele>217</ele>
        <time>2018-07-19T10:28:28Z</time>
      </trkpt>
      <trkpt lat="45.86822" lon="4.65906">
        <ele>218</ele>
        <time>2018-07-19T10:28:29Z</time>
      </trkpt>
      <trkpt lat="45.8682" lon="4.65911">
        <ele>218</ele>
        <time>2018-07-19T10:28:30Z</time>
      </trkpt>
      <trkpt lat="45.86813" lon="4.65921">
        <ele>221</ele>
        <time>2018-07-19T10:28:31Z</time>
      </trkpt>
      <trkpt lat="45.8681" lon="4.65929">
        <ele>221</ele>
        <time>2018-07-19T10:28:32Z</time>
      </trkpt>
      <trkpt lat="45.86806" lon="4.65936">
        <ele>221</ele>
        <time>2018-07-19T10:28:33Z</time>
      </trkpt>
      <trkpt lat="45.86803" lon="4.65943">
        <ele>221</ele>
        <time>2018-07-19T10:28:34Z</time>
      </trkpt>
      <trkpt lat="45.86799" lon="4.65951">
        <ele>221</ele>
        <time>2018-07-19T10:28:35Z</time>
      </trkpt>
      <trkpt lat="45.86795" lon="4.65957">
        <ele>221</ele>
        <time>2018-07-19T10:28:36Z</time>
      </trkpt>
      <trkpt lat="45.86791" lon="4.65963">
        <ele>221</ele>
        <time>2018-07-19T10:28:37Z</time>
      </trkpt>
      <trkpt lat="45.86786" lon="4.65971">
        <ele>221</ele>
        <time>2018-07-19T10:28:38Z</time>
      </trkpt>
      <trkpt lat="45.86782" lon="4.65978">
        <ele>221</ele>
        <time>2018-07-19T10:28:39Z</time>
      </trkpt>
      <trkpt lat="45.86776" lon="4.65985">
        <ele>221</ele>
        <time>2018-07-19T10:28:40Z</time>
      </trkpt>
      <trkpt lat="45.8677" lon="4.65992">
        <ele>220</ele>
        <time>2018-07-19T10:28:41Z</time>
      </trkpt>
      <trkpt lat="45.86765" lon="4.65999">
        <ele>219</ele>
        <time>2018-07-19T10:28:42Z</time>
      </trkpt>
      <trkpt lat="45.86759" lon="4.66005">
        <ele>223</ele>
        <time>2018-07-19T10:28:43Z</time>
      </trkpt>
      <trkpt lat="45.86754" lon="4.66009">
        <ele>223</ele>
        <time>2018-07-19T10:28:44Z</time>
      </trkpt>
      <trkpt lat="45.8675" lon="4.66014">
        <ele>219</ele>
        <time>2018-07-19T10:28:45Z</time>
      </trkpt>
      <trkpt lat="45.86744" lon="4.66019">
        <ele>220</ele>
        <time>2018-07-19T10:28:46Z</time>
      </trkpt>
      <trkpt lat="45.86737" lon="4.66025">
        <ele>221</ele>
        <time>2018-07-19T10:28:47Z</time>
      </trkpt>
      <trkpt lat="45.86729" lon="4.66034">
        <ele>222</ele>
        <time>2018-07-19T10:28:48Z</time>
      </trkpt>
      <trkpt lat="45.86721" lon="4.66039">
        <ele>222</ele>
        <time>2018-07-19T10:28:49Z</time>
      </trkpt>
      <trkpt lat="45.86716" lon="4.66043">
        <ele>222</ele>
        <time>2018-07-19T10:28:50Z</time>
      </trkpt>
      <trkpt lat="45.86708" lon="4.6605">
        <ele>222</ele>
        <time>2018-07-19T10:28:51Z</time>
      </trkpt>
      <trkpt lat="45.86702" lon="4.66055">
        <ele>222</ele>
        <time>2018-07-19T10:28:52Z</time>
      </trkpt>
      <trkpt lat="45.86697" lon="4.66055">
        <ele>221</ele>
        <time>2018-07-19T10:28:53Z</time>
      </trkpt>
      <trkpt lat="45.8669" lon="4.66058">
        <ele>221</ele>
        <time>2018-07-19T10:28:54Z</time>
      </trkpt>
      <trkpt lat="45.86682" lon="4.66062">
        <ele>221</ele>
        <time>2018-07-19T10:28:55Z</time>
      </trkpt>
      <trkpt lat="45.86676" lon="4.66064">
        <ele>220</ele>
        <time>2018-07-19T10:28:56Z</time>
      </trkpt>
      <trkpt lat="45.86671" lon="4.66066">
        <ele>220</ele>
        <time>2018-07-19T10:28:57Z</time>
      </trkpt>
      <trkpt lat="45.86666" lon="4.66068">
        <ele>215</ele>
        <time>2018-07-19T10:28:58Z</time>
      </trkpt>
      <trkpt lat="45.86661" lon="4.6607">
        <ele>216</ele>
        <time>2018-07-19T10:28:59Z</time>
      </trkpt>
      <trkpt lat="45.86655" lon="4.66071">
        <ele>215</ele>
        <time>2018-07-19T10:29:00Z</time>
      </trkpt>
      <trkpt lat="45.86649" lon="4.66074">
        <ele>215</ele>
        <time>2018-07-19T10:29:01Z</time>
      </trkpt>
      <trkpt lat="45.86642" lon="4.66075">
        <ele>214</ele>
        <time>2018-07-19T10:29:02Z</time>
      </trkpt>
      <trkpt lat="45.86638" lon="4.66076">
        <ele>214</ele>
        <time>2018-07-19T10:29:03Z</time>
      </trkpt>
      <trkpt lat="45.86631" lon="4.6608">
        <ele>213</ele>
        <time>2018-07-19T10:29:04Z</time>
      </trkpt>
      <trkpt lat="45.86627" lon="4.66084">
        <ele>222</ele>
        <time>2018-07-19T10:29:05Z</time>
      </trkpt>
      <trkpt lat="45.86622" lon="4.66086">
        <ele>221</ele>
        <time>2018-07-19T10:29:06Z</time>
      </trkpt>
      <trkpt lat="45.86616" lon="4.6609">
        <ele>221</ele>
        <time>2018-07-19T10:29:07Z</time>
      </trkpt>
      <trkpt lat="45.8661" lon="4.6609">
        <ele>220</ele>
        <time>2018-07-19T10:29:08Z</time>
      </trkpt>
      <trkpt lat="45.86604" lon="4.66094">
        <ele>219</ele>
        <time>2018-07-19T10:29:09Z</time>
      </trkpt>
      <trkpt lat="45.86598" lon="4.66099">
        <ele>219</ele>
        <time>2018-07-19T10:29:10Z</time>
      </trkpt>
      <trkpt lat="45.86593" lon="4.66103">
        <ele>219</ele>
        <time>2018-07-19T10:29:11Z</time>
      </trkpt>
      <trkpt lat="45.86587" lon="4.66108">
        <ele>220</ele>
        <time>2018-07-19T10:29:12Z</time>
      </trkpt>
      <trkpt lat="45.86582" lon="4.66113">
        <ele>215</ele>
        <time>2018-07-19T10:29:13Z</time>
      </trkpt>
      <trkpt lat="45.86575" lon="4.6612">
        <ele>215</ele>
        <time>2018-07-19T10:29:14Z</time>
      </trkpt>
      <trkpt lat="45.86569" lon="4.66124">
        <ele>216</ele>
        <time>2018-07-19T10:29:15Z</time>
      </trkpt>
      <trkpt lat="45.86564" lon="4.66129">
        <ele>216</ele>
        <time>2018-07-19T10:29:16Z</time>
      </trkpt>
      <trkpt lat="45.86559" lon="4.66134">
        <ele>217</ele>
        <time>2018-07-19T10:29:17Z</time>
      </trkpt>
      <trkpt lat="45.86553" lon="4.6614">
        <ele>217</ele>
        <time>2018-07-19T10:29:18Z</time>
      </trkpt>
      <trkpt lat="45.86548" lon="4.66144">
        <ele>217</ele>
        <time>2018-07-19T10:29:19Z</time>
      </trkpt>
      <trkpt lat="45.86542" lon="4.66149">
        <ele>217</ele>
        <time>2018-07-19T10:29:20Z</time>
      </trkpt>
      <trkpt lat="45.86537" lon="4.66154">
        <ele>216</ele>
        <time>2018-07-19T10:29:21Z</time>
      </trkpt>
      <trkpt lat="45.86532" lon="4.6616">
        <ele>216</ele>
        <time>2018-07-19T10:29:22Z</time>
      </trkpt>
      <trkpt lat="45.86526" lon="4.66164">
        <ele>216</ele>
        <time>2018-07-19T10:29:23Z</time>
      </trkpt>
      <trkpt lat="45.86521" lon="4.66169">
        <ele>222</ele>
        <time>2018-07-19T10:29:24Z</time>
      </trkpt>
      <trkpt lat="45.86516" lon="4.66172">
        <ele>221</ele>
        <time>2018-07-19T10:29:25Z</time>
      </trkpt>
      <trkpt lat="45.8651" lon="4.66176">
        <ele>220</ele>
        <time>2018-07-19T10:29:26Z</time>
      </trkpt>
      <trkpt lat="45.86503" lon="4.66179">
        <ele>220</ele>
        <time>2018-07-19T10:29:27Z</time>
      </trkpt>
      <trkpt lat="45.86498" lon="4.66182">
        <ele>216</ele>
        <time>2018-07-19T10:29:28Z</time>
      </trkpt>
      <trkpt lat="45.86492" lon="4.66184">
        <ele>217</ele>
        <time>2018-07-19T10:29:29Z</time>
      </trkpt>
      <trkpt lat="45.86486" lon="4.66188">
        <ele>217</ele>
        <time>2018-07-19T10:29:30Z</time>
      </trkpt>
      <trkpt lat="45.8648" lon="4.6619">
        <ele>217</ele>
        <time>2018-07-19T10:29:31Z</time>
      </trkpt>
      <trkpt lat="45.86474" lon="4.66196">
        <ele>217</ele>
        <time>2018-07-19T10:29:32Z</time>
      </trkpt>
      <trkpt lat="45.86468" lon="4.66197">
        <ele>217</ele>
        <time>2018-07-19T10:29:33Z</time>
      </trkpt>
      <trkpt lat="45.86463" lon="4.662">
        <ele>217</ele>
        <time>2018-07-19T10:29:34Z</time>
      </trkpt>
      <trkpt lat="45.86456" lon="4.66203">
        <ele>217</ele>
        <time>2018-07-19T10:29:35Z</time>
      </trkpt>
      <trkpt lat="45.8645" lon="4.66203">
        <ele>217</ele>
        <time>2018-07-19T10:29:36Z</time>
      </trkpt>
      <trkpt lat="45.86443" lon="4.66204">
        <ele>217</ele>
        <time>2018-07-19T10:29:37Z</time>
      </trkpt>
      <trkpt lat="45.86437" lon="4.66208">
        <ele>217</ele>
        <time>2018-07-19T10:29:38Z</time>
      </trkpt>
      <trkpt lat="45.8643" lon="4.66211">
        <ele>217</ele>
        <time>2018-07-19T10:29:39Z</time>
      </trkpt>
      <trkpt lat="45.86423" lon="4.66212">
        <ele>217</ele>
        <time>2018-07-19T10:29:40Z</time>
      </trkpt>
      <trkpt lat="45.86416" lon="4.66215">
        <ele>214</ele>
        <time>2018-07-19T10:29:41Z</time>
      </trkpt>
      <trkpt lat="45.86409" lon="4.66217">
        <ele>214</ele>
        <time>2018-07-19T10:29:42Z</time>
      </trkpt>
      <trkpt lat="45.86403" lon="4.6622">
        <ele>214</ele>
        <time>2018-07-19T10:29:43Z</time>
      </trkpt>
      <trkpt lat="45.86395" lon="4.66221">
        <ele>214</ele>
        <time>2018-07-19T10:29:44Z</time>
      </trkpt>
      <trkpt lat="45.86388" lon="4.66222">
        <ele>213</ele>
        <time>2018-07-19T10:29:45Z</time>
      </trkpt>
      <trkpt lat="45.86381" lon="4.66223">
        <ele>213</ele>
        <time>2018-07-19T10:29:46Z</time>
      </trkpt>
      <trkpt lat="45.86375" lon="4.66225">
        <ele>213</ele>
        <time>2018-07-19T10:29:47Z</time>
      </trkpt>
      <trkpt lat="45.86368" lon="4.66228">
        <ele>213</ele>
        <time>2018-07-19T10:29:48Z</time>
      </trkpt>
      <trkpt lat="45.86362" lon="4.66233">
        <ele>213</ele>
        <time>2018-07-19T10:29:49Z</time>
      </trkpt>
      <trkpt lat="45.86356" lon="4.66237">
        <ele>213</ele>
        <time>2018-07-19T10:29:50Z</time>
      </trkpt>
      <trkpt lat="45.8635" lon="4.6624">
        <ele>213</ele>
        <time>2018-07-19T10:29:51Z</time>
      </trkpt>
      <trkpt lat="45.86343" lon="4.66244">
        <ele>213</ele>
        <time>2018-07-19T10:29:52Z</time>
      </trkpt>
      <trkpt lat="45.86337" lon="4.66249">
        <ele>213</ele>
        <time>2018-07-19T10:29:53Z</time>
      </trkpt>
      <trkpt lat="45.86331" lon="4.66255">
        <ele>213</ele>
        <time>2018-07-19T10:29:54Z</time>
      </trkpt>
      <trkpt lat="45.86325" lon="4.66261">
        <ele>213</ele>
        <time>2018-07-19T10:29:55Z</time>
      </trkpt>
      <trkpt lat="45.86319" lon="4.66267">
        <ele>213</ele>
        <time>2018-07-19T10:29:56Z</time>
      </trkpt>
      <trkpt lat="45.86314" lon="4.66272">
        <ele>214</ele>
        <time>2018-07-19T10:29:57Z</time>
      </trkpt>
      <trkpt lat="45.86308" lon="4.66277">
        <ele>214</ele>
        <time>2018-07-19T10:29:58Z</time>
      </trkpt>
      <trkpt lat="45.86302" lon="4.66283">
        <ele>214</ele>
        <time>2018-07-19T10:29:59Z</time>
      </trkpt>
      <trkpt lat="45.86297" lon="4.66287">
        <ele>214</ele>
        <time>2018-07-19T10:30:00Z</time>
      </trkpt>
      <trkpt lat="45.86292" lon="4.66294">
        <ele>214</ele>
        <time>2018-07-19T10:30:01Z</time>
      </trkpt>
      <trkpt lat="45.86287" lon="4.663">
        <ele>214</ele>
        <time>2018-07-19T10:30:02Z</time>
      </trkpt>
      <trkpt lat="45.86282" lon="4.66306">
        <ele>213</ele>
        <time>2018-07-19T10:30:03Z</time>
      </trkpt>
      <trkpt lat="45.86278" lon="4.66313">
        <ele>213</ele>
        <time>2018-07-19T10:30:04Z</time>
      </trkpt>
      <trkpt lat="45.86273" lon="4.66319">
        <ele>213</ele>
        <time>2018-07-19T10:30:05Z</time>
      </trkpt>
      <trkpt lat="45.86269" lon="4.66327">
        <ele>213</ele>
        <time>2018-07-19T10:30:06Z</time>
      </trkpt>
      <trkpt lat="45.86265" lon="4.66334">
        <ele>214</ele>
        <time>2018-07-19T10:30:07Z</time>
      </trkpt>
      <trkpt lat="45.86261" lon="4.66342">
        <ele>214</ele>
        <time>2018-07-19T10:30:08Z</time>
      </trkpt>
      <trkpt lat="45.86256" lon="4.66349">
        <ele>214</ele>
        <time>2018-07-19T10:30:09Z</time>
      </trkpt>
      <trkpt lat="45.86251" lon="4.66359">
        <ele>215</ele>
        <time>2018-07-19T10:30:10Z</time>
      </trkpt>
      <trkpt lat="45.86247" lon="4.66366">
        <ele>212</ele>
        <time>2018-07-19T10:30:11Z</time>
      </trkpt>
      <trkpt lat="45.86244" lon="4.66375">
        <ele>212</ele>
        <time>2018-07-19T10:30:12Z</time>
      </trkpt>
      <trkpt lat="45.86239" lon="4.66382">
        <ele>212</ele>
        <time>2018-07-19T10:30:13Z</time>
      </trkpt>
      <trkpt lat="45.86233" lon="4.66391">
        <ele>212</ele>
        <time>2018-07-19T10:30:14Z</time>
      </trkpt>
      <trkpt lat="45.86229" lon="4.66401">
        <ele>212</ele>
        <time>2018-07-19T10:30:15Z</time>
      </trkpt>
      <trkpt lat="45.86226" lon="4.6641">
        <ele>212</ele>
        <time>2018-07-19T10:30:16Z</time>
      </trkpt>
      <trkpt lat="45.86221" lon="4.6642">
        <ele>213</ele>
        <time>2018-07-19T10:30:17Z</time>
      </trkpt>
      <trkpt lat="45.86216" lon="4.66428">
        <ele>213</ele>
        <time>2018-07-19T10:30:18Z</time>
      </trkpt>
      <trkpt lat="45.86214" lon="4.66436">
        <ele>213</ele>
        <time>2018-07-19T10:30:19Z</time>
      </trkpt>
      <trkpt lat="45.86208" lon="4.66444">
        <ele>213</ele>
        <time>2018-07-19T10:30:20Z</time>
      </trkpt>
      <trkpt lat="45.86204" lon="4.6645">
        <ele>213</ele>
        <time>2018-07-19T10:30:21Z</time>
      </trkpt>
      <trkpt lat="45.86199" lon="4.66457">
        <ele>213</ele>
        <time>2018-07-19T10:30:22Z</time>
      </trkpt>
      <trkpt lat="45.86196" lon="4.66466">
        <ele>213</ele>
        <time>2018-07-19T10:30:23Z</time>
      </trkpt>
      <trkpt lat="45.86194" lon="4.66476">
        <ele>213</ele>
        <time>2018-07-19T10:30:24Z</time>
      </trkpt>
      <trkpt lat="45.8619" lon="4.66483">
        <ele>212</ele>
        <time>2018-07-19T10:30:25Z</time>
      </trkpt>
      <trkpt lat="45.86186" lon="4.66487">
        <ele>212</ele>
        <time>2018-07-19T10:30:26Z</time>
      </trkpt>
      <trkpt lat="45.86184" lon="4.66493">
        <ele>212</ele>
        <time>2018-07-19T10:30:27Z</time>
      </trkpt>
      <trkpt lat="45.86181" lon="4.66501">
        <ele>215</ele>
        <time>2018-07-19T10:30:28Z</time>
      </trkpt>
      <trkpt lat="45.86177" lon="4.66509">
        <ele>215</ele>
        <time>2018-07-19T10:30:29Z</time>
      </trkpt>
      <trkpt lat="45.86172" lon="4.66517">
        <ele>216</ele>
        <time>2018-07-19T10:30:30Z</time>
      </trkpt>
      <trkpt lat="45.86166" lon="4.66523">
        <ele>212</ele>
        <time>2018-07-19T10:30:31Z</time>
      </trkpt>
      <trkpt lat="45.86161" lon="4.66533">
        <ele>213</ele>
        <time>2018-07-19T10:30:32Z</time>
      </trkpt>
      <trkpt lat="45.86156" lon="4.66538">
        <ele>213</ele>
        <time>2018-07-19T10:30:33Z</time>
      </trkpt>
      <trkpt lat="45.86151" lon="4.66545">
        <ele>214</ele>
        <time>2018-07-19T10:30:34Z</time>
      </trkpt>
      <trkpt lat="45.86146" lon="4.66549">
        <ele>214</ele>
        <time>2018-07-19T10:30:35Z</time>
      </trkpt>
      <trkpt lat="45.86141" lon="4.66556">
        <ele>214</ele>
        <time>2018-07-19T10:30:36Z</time>
      </trkpt>
      <trkpt lat="45.86136" lon="4.66561">
        <ele>214</ele>
        <time>2018-07-19T10:30:37Z</time>
      </trkpt>
      <trkpt lat="45.8613" lon="4.66566">
        <ele>214</ele>
        <time>2018-07-19T10:30:38Z</time>
      </trkpt>
      <trkpt lat="45.86126" lon="4.66569">
        <ele>214</ele>
        <time>2018-07-19T10:30:39Z</time>
      </trkpt>
      <trkpt lat="45.86119" lon="4.66576">
        <ele>213</ele>
        <time>2018-07-19T10:30:40Z</time>
      </trkpt>
      <trkpt lat="45.86114" lon="4.66577">
        <ele>213</ele>
        <time>2018-07-19T10:30:41Z</time>
      </trkpt>
      <trkpt lat="45.8611" lon="4.66573">
        <ele>213</ele>
        <time>2018-07-19T10:30:42Z</time>
      </trkpt>
      <trkpt lat="45.86102" lon="4.6658">
        <ele>212</ele>
        <time>2018-07-19T10:30:43Z</time>
      </trkpt>
      <trkpt lat="45.8609" lon="4.66589">
        <ele>214</ele>
        <time>2018-07-19T10:30:44Z</time>
      </trkpt>
      <trkpt lat="45.86085" lon="4.66592">
        <ele>214</ele>
        <time>2018-07-19T10:30:45Z</time>
      </trkpt>
      <trkpt lat="45.86081" lon="4.66596">
        <ele>212</ele>
        <time>2018-07-19T10:30:46Z</time>
      </trkpt>
      <trkpt lat="45.86076" lon="4.66601">
        <ele>212</ele>
        <time>2018-07-19T10:30:47Z</time>
      </trkpt>
      <trkpt lat="45.8607" lon="4.66606">
        <ele>213</ele>
        <time>2018-07-19T10:30:48Z</time>
      </trkpt>
      <trkpt lat="45.86065" lon="4.6661">
        <ele>213</ele>
        <time>2018-07-19T10:30:49Z</time>
      </trkpt>
      <trkpt lat="45.8606" lon="4.66615">
        <ele>213</ele>
        <time>2018-07-19T10:30:50Z</time>
      </trkpt>
      <trkpt lat="45.86054" lon="4.6662">
        <ele>213</ele>
        <time>2018-07-19T10:30:51Z</time>
      </trkpt>
      <trkpt lat="45.86049" lon="4.66625">
        <ele>214</ele>
        <time>2018-07-19T10:30:52Z</time>
      </trkpt>
      <trkpt lat="45.86042" lon="4.6663">
        <ele>214</ele>
        <time>2018-07-19T10:30:53Z</time>
      </trkpt>
      <trkpt lat="45.86037" lon="4.66636">
        <ele>213</ele>
        <time>2018-07-19T10:30:54Z</time>
      </trkpt>
      <trkpt lat="45.86032" lon="4.6664">
        <ele>213</ele>
        <time>2018-07-19T10:30:55Z</time>
      </trkpt>
      <trkpt lat="45.86026" lon="4.66647">
        <ele>213</ele>
        <time>2018-07-19T10:30:56Z</time>
      </trkpt>
      <trkpt lat="45.8602" lon="4.66651">
        <ele>213</ele>
        <time>2018-07-19T10:30:57Z</time>
      </trkpt>
      <trkpt lat="45.86014" lon="4.66658">
        <ele>212</ele>
        <time>2018-07-19T10:30:58Z</time>
      </trkpt>
      <trkpt lat="45.86009" lon="4.66663">
        <ele>212</ele>
        <time>2018-07-19T10:30:59Z</time>
      </trkpt>
      <trkpt lat="45.86005" lon="4.66669">
        <ele>213</ele>
        <time>2018-07-19T10:31:00Z</time>
      </trkpt>
      <trkpt lat="45.86001" lon="4.66676">
        <ele>214</ele>
        <time>2018-07-19T10:31:01Z</time>
      </trkpt>
      <trkpt lat="45.85995" lon="4.66683">
        <ele>213</ele>
        <time>2018-07-19T10:31:02Z</time>
      </trkpt>
      <trkpt lat="45.85993" lon="4.6669">
        <ele>214</ele>
        <time>2018-07-19T10:31:03Z</time>
      </trkpt>
      <trkpt lat="45.85989" lon="4.66698">
        <ele>215</ele>
        <time>2018-07-19T10:31:04Z</time>
      </trkpt>
      <trkpt lat="45.85985" lon="4.66705">
        <ele>215</ele>
        <time>2018-07-19T10:31:05Z</time>
      </trkpt>
      <trkpt lat="45.85981" lon="4.66712">
        <ele>215</ele>
        <time>2018-07-19T10:31:06Z</time>
      </trkpt>
      <trkpt lat="45.85978" lon="4.66718">
        <ele>215</ele>
        <time>2018-07-19T10:31:07Z</time>
      </trkpt>
      <trkpt lat="45.85974" lon="4.66725">
        <ele>215</ele>
        <time>2018-07-19T10:31:08Z</time>
      </trkpt>
      <trkpt lat="45.85971" lon="4.66733">
        <ele>216</ele>
        <time>2018-07-19T10:31:09Z</time>
      </trkpt>
      <trkpt lat="45.85968" lon="4.66741">
        <ele>216</ele>
        <time>2018-07-19T10:31:10Z</time>
      </trkpt>
      <trkpt lat="45.85965" lon="4.66749">
        <ele>215</ele>
        <time>2018-07-19T10:31:11Z</time>
      </trkpt>
      <trkpt lat="45.85961" lon="4.66758">
        <ele>214</ele>
        <time>2018-07-19T10:31:12Z</time>
      </trkpt>
      <trkpt lat="45.85959" lon="4.66764">
        <ele>214</ele>
        <time>2018-07-19T10:31:13Z</time>
      </trkpt>
      <trkpt lat="45.85956" lon="4.66776">
        <ele>214</ele>
        <time>2018-07-19T10:31:14Z</time>
      </trkpt>
      <trkpt lat="45.85954" lon="4.66786">
        <ele>213</ele>
        <time>2018-07-19T10:31:15Z</time>
      </trkpt>
      <trkpt lat="45.85953" lon="4.66794">
        <ele>213</ele>
        <time>2018-07-19T10:31:16Z</time>
      </trkpt>
      <trkpt lat="45.85949" lon="4.66805">
        <ele>213</ele>
        <time>2018-07-19T10:31:17Z</time>
      </trkpt>
      <trkpt lat="45.85946" lon="4.66814">
        <ele>212</ele>
        <time>2018-07-19T10:31:18Z</time>
      </trkpt>
      <trkpt lat="45.85944" lon="4.66822">
        <ele>212</ele>
        <time>2018-07-19T10:31:19Z</time>
      </trkpt>
      <trkpt lat="45.85941" lon="4.6683">
        <ele>212</ele>
        <time>2018-07-19T10:31:20Z</time>
      </trkpt>
      <trkpt lat="45.85938" lon="4.66838">
        <ele>210</ele>
        <time>2018-07-19T10:31:21Z</time>
      </trkpt>
      <trkpt lat="45.85934" lon="4.66847">
        <ele>210</ele>
        <time>2018-07-19T10:31:22Z</time>
      </trkpt>
      <trkpt lat="45.85932" lon="4.66856">
        <ele>210</ele>
        <time>2018-07-19T10:31:23Z</time>
      </trkpt>
      <trkpt lat="45.85929" lon="4.66865">
        <ele>210</ele>
        <time>2018-07-19T10:31:24Z</time>
      </trkpt>
      <trkpt lat="45.85927" lon="4.66873">
        <ele>210</ele>
        <time>2018-07-19T10:31:25Z</time>
      </trkpt>
      <trkpt lat="45.85924" lon="4.66881">
        <ele>210</ele>
        <time>2018-07-19T10:31:26Z</time>
      </trkpt>
      <trkpt lat="45.85923" lon="4.66886">
        <ele>210</ele>
        <time>2018-07-19T10:31:27Z</time>
      </trkpt>
      <trkpt lat="45.85921" lon="4.66894">
        <ele>209</ele>
        <time>2018-07-19T10:31:28Z</time>
      </trkpt>
      <trkpt lat="45.85917" lon="4.66902">
        <ele>209</ele>
        <time>2018-07-19T10:31:29Z</time>
      </trkpt>
      <trkpt lat="45.85914" lon="4.66911">
        <ele>208</ele>
        <time>2018-07-19T10:31:30Z</time>
      </trkpt>
      <trkpt lat="45.85913" lon="4.66917">
        <ele>207</ele>
        <time>2018-07-19T10:31:31Z</time>
      </trkpt>
      <trkpt lat="45.85912" lon="4.66926">
        <ele>207</ele>
        <time>2018-07-19T10:31:32Z</time>
      </trkpt>
      <trkpt lat="45.8591" lon="4.66932">
        <ele>207</ele>
        <time>2018-07-19T10:31:33Z</time>
      </trkpt>
      <trkpt lat="45.85908" lon="4.6694">
        <ele>207</ele>
        <time>2018-07-19T10:31:34Z</time>
      </trkpt>
      <trkpt lat="45.85906" lon="4.66947">
        <ele>207</ele>
        <time>2018-07-19T10:31:35Z</time>
      </trkpt>
      <trkpt lat="45.85901" lon="4.66954">
        <ele>207</ele>
        <time>2018-07-19T10:31:36Z</time>
      </trkpt>
      <trkpt lat="45.859" lon="4.66962">
        <ele>207</ele>
        <time>2018-07-19T10:31:37Z</time>
      </trkpt>
      <trkpt lat="45.85899" lon="4.6697">
        <ele>207</ele>
        <time>2018-07-19T10:31:38Z</time>
      </trkpt>
      <trkpt lat="45.859" lon="4.66978">
        <ele>207</ele>
        <time>2018-07-19T10:31:39Z</time>
      </trkpt>
      <trkpt lat="45.85901" lon="4.66986">
        <ele>207</ele>
        <time>2018-07-19T10:31:40Z</time>
      </trkpt>
      <trkpt lat="45.85902" lon="4.66995">
        <ele>207</ele>
        <time>2018-07-19T10:31:41Z</time>
      </trkpt>
      <trkpt lat="45.85902" lon="4.67003">
        <ele>206</ele>
        <time>2018-07-19T10:31:42Z</time>
      </trkpt>
      <trkpt lat="45.85901" lon="4.67012">
        <ele>205</ele>
        <time>2018-07-19T10:31:43Z</time>
      </trkpt>
      <trkpt lat="45.859" lon="4.67021">
        <ele>205</ele>
        <time>2018-07-19T10:31:44Z</time>
      </trkpt>
      <trkpt lat="45.85899" lon="4.6703">
        <ele>205</ele>
        <time>2018-07-19T10:31:45Z</time>
      </trkpt>
      <trkpt lat="45.85899" lon="4.6704">
        <ele>205</ele>
        <time>2018-07-19T10:31:46Z</time>
      </trkpt>
      <trkpt lat="45.85898" lon="4.6705">
        <ele>205</ele>
        <time>2018-07-19T10:31:47Z</time>
      </trkpt>
      <trkpt lat="45.85896" lon="4.6706">
        <ele>205</ele>
        <time>2018-07-19T10:31:48Z</time>
      </trkpt>
      <trkpt lat="45.85895" lon="4.67069">
        <ele>205</ele>
        <time>2018-07-19T10:31:49Z</time>
      </trkpt>
      <trkpt lat="45.85893" lon="4.67078">
        <ele>205</ele>
        <time>2018-07-19T10:31:50Z</time>
      </trkpt>
      <trkpt lat="45.85892" lon="4.67087">
        <ele>204</ele>
        <time>2018-07-19T10:31:51Z</time>
      </trkpt>
      <trkpt lat="45.8589" lon="4.67099">
        <ele>204</ele>
        <time>2018-07-19T10:31:52Z</time>
      </trkpt>
      <trkpt lat="45.85889" lon="4.67106">
        <ele>204</ele>
        <time>2018-07-19T10:31:53Z</time>
      </trkpt>
      <trkpt lat="45.85889" lon="4.67116">
        <ele>204</ele>
        <time>2018-07-19T10:31:54Z</time>
      </trkpt>
      <trkpt lat="45.85886" lon="4.67124">
        <ele>204</ele>
        <time>2018-07-19T10:31:55Z</time>
      </trkpt>
      <trkpt lat="45.85886" lon="4.67133">
        <ele>204</ele>
        <time>2018-07-19T10:31:56Z</time>
      </trkpt>
      <trkpt lat="45.85886" lon="4.67141">
        <ele>204</ele>
        <time>2018-07-19T10:31:57Z</time>
      </trkpt>
      <trkpt lat="45.85886" lon="4.67149">
        <ele>204</ele>
        <time>2018-07-19T10:31:58Z</time>
      </trkpt>
      <trkpt lat="45.85885" lon="4.67158">
        <ele>204</ele>
        <time>2018-07-19T10:31:59Z</time>
      </trkpt>
      <trkpt lat="45.85884" lon="4.67166">
        <ele>204</ele>
        <time>2018-07-19T10:32:00Z</time>
      </trkpt>
      <trkpt lat="45.85883" lon="4.67173">
        <ele>204</ele>
        <time>2018-07-19T10:32:01Z</time>
      </trkpt>
      <trkpt lat="45.85883" lon="4.67181">
        <ele>204</ele>
        <time>2018-07-19T10:32:02Z</time>
      </trkpt>
      <trkpt lat="45.85882" lon="4.67189">
        <ele>204</ele>
        <time>2018-07-19T10:32:03Z</time>
      </trkpt>
      <trkpt lat="45.85882" lon="4.67198">
        <ele>204</ele>
        <time>2018-07-19T10:32:04Z</time>
      </trkpt>
      <trkpt lat="45.8588" lon="4.67207">
        <ele>204</ele>
        <time>2018-07-19T10:32:05Z</time>
      </trkpt>
      <trkpt lat="45.8588" lon="4.67217">
        <ele>204</ele>
        <time>2018-07-19T10:32:06Z</time>
      </trkpt>
      <trkpt lat="45.8588" lon="4.67226">
        <ele>204</ele>
        <time>2018-07-19T10:32:07Z</time>
      </trkpt>
      <trkpt lat="45.85878" lon="4.67235">
        <ele>204</ele>
        <time>2018-07-19T10:32:08Z</time>
      </trkpt>
      <trkpt lat="45.85877" lon="4.67242">
        <ele>204</ele>
        <time>2018-07-19T10:32:09Z</time>
      </trkpt>
      <trkpt lat="45.85877" lon="4.67251">
        <ele>205</ele>
        <time>2018-07-19T10:32:10Z</time>
      </trkpt>
      <trkpt lat="45.85876" lon="4.67259">
        <ele>205</ele>
        <time>2018-07-19T10:32:11Z</time>
      </trkpt>
      <trkpt lat="45.85875" lon="4.6727">
        <ele>205</ele>
        <time>2018-07-19T10:32:12Z</time>
      </trkpt>
      <trkpt lat="45.85874" lon="4.6728">
        <ele>205</ele>
        <time>2018-07-19T10:32:13Z</time>
      </trkpt>
      <trkpt lat="45.85874" lon="4.67291">
        <ele>205</ele>
        <time>2018-07-19T10:32:14Z</time>
      </trkpt>
      <trkpt lat="45.85873" lon="4.67301">
        <ele>205</ele>
        <time>2018-07-19T10:32:15Z</time>
      </trkpt>
      <trkpt lat="45.85872" lon="4.67311">
        <ele>205</ele>
        <time>2018-07-19T10:32:16Z</time>
      </trkpt>
      <trkpt lat="45.85871" lon="4.6732">
        <ele>205</ele>
        <time>2018-07-19T10:32:17Z</time>
      </trkpt>
      <trkpt lat="45.85871" lon="4.6733">
        <ele>205</ele>
        <time>2018-07-19T10:32:18Z</time>
      </trkpt>
      <trkpt lat="45.85871" lon="4.67338">
        <ele>208</ele>
        <time>2018-07-19T10:32:19Z</time>
      </trkpt>
      <trkpt lat="45.85871" lon="4.67347">
        <ele>208</ele>
        <time>2018-07-19T10:32:20Z</time>
      </trkpt>
      <trkpt lat="45.8587" lon="4.67354">
        <ele>208</ele>
        <time>2018-07-19T10:32:21Z</time>
      </trkpt>
      <trkpt lat="45.85867" lon="4.67363">
        <ele>208</ele>
        <time>2018-07-19T10:32:22Z</time>
      </trkpt>
      <trkpt lat="45.85867" lon="4.6737">
        <ele>208</ele>
        <time>2018-07-19T10:32:23Z</time>
      </trkpt>
      <trkpt lat="45.85866" lon="4.67381">
        <ele>209</ele>
        <time>2018-07-19T10:32:24Z</time>
      </trkpt>
      <trkpt lat="45.85866" lon="4.67388">
        <ele>209</ele>
        <time>2018-07-19T10:32:25Z</time>
      </trkpt>
      <trkpt lat="45.85865" lon="4.67395">
        <ele>209</ele>
        <time>2018-07-19T10:32:26Z</time>
      </trkpt>
      <trkpt lat="45.85863" lon="4.67406">
        <ele>208</ele>
        <time>2018-07-19T10:32:27Z</time>
      </trkpt>
      <trkpt lat="45.85863" lon="4.67415">
        <ele>208</ele>
        <time>2018-07-19T10:32:28Z</time>
      </trkpt>
      <trkpt lat="45.85862" lon="4.67426">
        <ele>212</ele>
        <time>2018-07-19T10:32:29Z</time>
      </trkpt>
      <trkpt lat="45.85862" lon="4.67435">
        <ele>212</ele>
        <time>2018-07-19T10:32:30Z</time>
      </trkpt>
      <trkpt lat="45.8586" lon="4.67445">
        <ele>213</ele>
        <time>2018-07-19T10:32:31Z</time>
      </trkpt>
      <trkpt lat="45.85857" lon="4.67452">
        <ele>213</ele>
        <time>2018-07-19T10:32:32Z</time>
      </trkpt>
      <trkpt lat="45.85855" lon="4.67461">
        <ele>213</ele>
        <time>2018-07-19T10:32:33Z</time>
      </trkpt>
      <trkpt lat="45.85854" lon="4.67469">
        <ele>213</ele>
        <time>2018-07-19T10:32:34Z</time>
      </trkpt>
      <trkpt lat="45.85851" lon="4.67478">
        <ele>212</ele>
        <time>2018-07-19T10:32:35Z</time>
      </trkpt>
      <trkpt lat="45.85847" lon="4.67486">
        <ele>211</ele>
        <time>2018-07-19T10:32:36Z</time>
      </trkpt>
      <trkpt lat="45.85843" lon="4.67495">
        <ele>209</ele>
        <time>2018-07-19T10:32:37Z</time>
      </trkpt>
      <trkpt lat="45.85839" lon="4.67505">
        <ele>212</ele>
        <time>2018-07-19T10:32:38Z</time>
      </trkpt>
      <trkpt lat="45.85836" lon="4.67513">
        <ele>214</ele>
        <time>2018-07-19T10:32:39Z</time>
      </trkpt>
      <trkpt lat="45.85831" lon="4.67521">
        <ele>209</ele>
        <time>2018-07-19T10:32:40Z</time>
      </trkpt>
      <trkpt lat="45.85828" lon="4.67526">
        <ele>209</ele>
        <time>2018-07-19T10:32:41Z</time>
      </trkpt>
      <trkpt lat="45.85825" lon="4.67534">
        <ele>210</ele>
        <time>2018-07-19T10:32:42Z</time>
      </trkpt>
      <trkpt lat="45.8582" lon="4.67539">
        <ele>210</ele>
        <time>2018-07-19T10:32:43Z</time>
      </trkpt>
      <trkpt lat="45.85816" lon="4.67545">
        <ele>211</ele>
        <time>2018-07-19T10:32:44Z</time>
      </trkpt>
      <trkpt lat="45.85811" lon="4.6755">
        <ele>211</ele>
        <time>2018-07-19T10:32:45Z</time>
      </trkpt>
      <trkpt lat="45.85807" lon="4.67555">
        <ele>211</ele>
        <time>2018-07-19T10:32:46Z</time>
      </trkpt>
      <trkpt lat="45.85803" lon="4.67562">
        <ele>212</ele>
        <time>2018-07-19T10:32:47Z</time>
      </trkpt>
      <trkpt lat="45.85796" lon="4.67569">
        <ele>211</ele>
        <time>2018-07-19T10:32:48Z</time>
      </trkpt>
      <trkpt lat="45.85791" lon="4.67576">
        <ele>211</ele>
        <time>2018-07-19T10:32:49Z</time>
      </trkpt>
      <trkpt lat="45.85785" lon="4.67581">
        <ele>210</ele>
        <time>2018-07-19T10:32:50Z</time>
      </trkpt>
      <trkpt lat="45.8578" lon="4.67586">
        <ele>217</ele>
        <time>2018-07-19T10:32:51Z</time>
      </trkpt>
      <trkpt lat="45.85775" lon="4.67594">
        <ele>217</ele>
        <time>2018-07-19T10:32:52Z</time>
      </trkpt>
      <trkpt lat="45.8577" lon="4.676">
        <ele>217</ele>
        <time>2018-07-19T10:32:53Z</time>
      </trkpt>
      <trkpt lat="45.85764" lon="4.67604">
        <ele>216</ele>
        <time>2018-07-19T10:32:54Z</time>
      </trkpt>
      <trkpt lat="45.85757" lon="4.67607">
        <ele>216</ele>
        <time>2018-07-19T10:32:55Z</time>
      </trkpt>
      <trkpt lat="45.85752" lon="4.67609">
        <ele>216</ele>
        <time>2018-07-19T10:32:56Z</time>
      </trkpt>
      <trkpt lat="45.85745" lon="4.67612">
        <ele>210</ele>
        <time>2018-07-19T10:32:57Z</time>
      </trkpt>
      <trkpt lat="45.8574" lon="4.67615">
        <ele>210</ele>
        <time>2018-07-19T10:32:58Z</time>
      </trkpt>
      <trkpt lat="45.85734" lon="4.67619">
        <ele>211</ele>
        <time>2018-07-19T10:32:59Z</time>
      </trkpt>
      <trkpt lat="45.85729" lon="4.67624">
        <ele>211</ele>
        <time>2018-07-19T10:33:00Z</time>
      </trkpt>
      <trkpt lat="45.85723" lon="4.6763">
        <ele>211</ele>
        <time>2018-07-19T10:33:01Z</time>
      </trkpt>
      <trkpt lat="45.85718" lon="4.67634">
        <ele>212</ele>
        <time>2018-07-19T10:33:02Z</time>
      </trkpt>
      <trkpt lat="45.85711" lon="4.67639">
        <ele>211</ele>
        <time>2018-07-19T10:33:03Z</time>
      </trkpt>
      <trkpt lat="45.85705" lon="4.67643">
        <ele>211</ele>
        <time>2018-07-19T10:33:04Z</time>
      </trkpt>
      <trkpt lat="45.85699" lon="4.67646">
        <ele>211</ele>
        <time>2018-07-19T10:33:05Z</time>
      </trkpt>
      <trkpt lat="45.85693" lon="4.6765">
        <ele>211</ele>
        <time>2018-07-19T10:33:06Z</time>
      </trkpt>
      <trkpt lat="45.85687" lon="4.67652">
        <ele>210</ele>
        <time>2018-07-19T10:33:07Z</time>
      </trkpt>
      <trkpt lat="45.85682" lon="4.67655">
        <ele>210</ele>
        <time>2018-07-19T10:33:08Z</time>
      </trkpt>
      <trkpt lat="45.85676" lon="4.67658">
        <ele>210</ele>
        <time>2018-07-19T10:33:09Z</time>
      </trkpt>
      <trkpt lat="45.85671" lon="4.67662">
        <ele>209</ele>
        <time>2018-07-19T10:33:10Z</time>
      </trkpt>
      <trkpt lat="45.85666" lon="4.67665">
        <ele>209</ele>
        <time>2018-07-19T10:33:11Z</time>
      </trkpt>
      <trkpt lat="45.85661" lon="4.67668">
        <ele>209</ele>
        <time>2018-07-19T10:33:12Z</time>
      </trkpt>
      <trkpt lat="45.85655" lon="4.67671">
        <ele>209</ele>
        <time>2018-07-19T10:33:13Z</time>
      </trkpt>
      <trkpt lat="45.85649" lon="4.67675">
        <ele>209</ele>
        <time>2018-07-19T10:33:14Z</time>
      </trkpt>
      <trkpt lat="45.85645" lon="4.67679">
        <ele>209</ele>
        <time>2018-07-19T10:33:15Z</time>
      </trkpt>
      <trkpt lat="45.85639" lon="4.67684">
        <ele>209</ele>
        <time>2018-07-19T10:33:16Z</time>
      </trkpt>
      <trkpt lat="45.85634" lon="4.67688">
        <ele>209</ele>
        <time>2018-07-19T10:33:17Z</time>
      </trkpt>
      <trkpt lat="45.8563" lon="4.67694">
        <ele>209</ele>
        <time>2018-07-19T10:33:18Z</time>
      </trkpt>
      <trkpt lat="45.85626" lon="4.677">
        <ele>209</ele>
        <time>2018-07-19T10:33:19Z</time>
      </trkpt>
      <trkpt lat="45.85621" lon="4.67704">
        <ele>209</ele>
        <time>2018-07-19T10:33:20Z</time>
      </trkpt>
      <trkpt lat="45.85617" lon="4.67712">
        <ele>209</ele>
        <time>2018-07-19T10:33:21Z</time>
      </trkpt>
      <trkpt lat="45.85613" lon="4.67718">
        <ele>208</ele>
        <time>2018-07-19T10:33:22Z</time>
      </trkpt>
      <trkpt lat="45.8561" lon="4.67724">
        <ele>208</ele>
        <time>2018-07-19T10:33:23Z</time>
      </trkpt>
      <trkpt lat="45.85608" lon="4.67729">
        <ele>208</ele>
        <time>2018-07-19T10:33:24Z</time>
      </trkpt>
      <trkpt lat="45.85604" lon="4.67735">
        <ele>207</ele>
        <time>2018-07-19T10:33:25Z</time>
      </trkpt>
      <trkpt lat="45.85602" lon="4.67739">
        <ele>207</ele>
        <time>2018-07-19T10:33:26Z</time>
      </trkpt>
      <trkpt lat="45.85596" lon="4.67748">
        <ele>206</ele>
        <time>2018-07-19T10:33:28Z</time>
      </trkpt>
      <trkpt lat="45.85593" lon="4.67754">
        <ele>206</ele>
        <time>2018-07-19T10:33:29Z</time>
      </trkpt>
      <trkpt lat="45.85591" lon="4.67761">
        <ele>207</ele>
        <time>2018-07-19T10:33:30Z</time>
      </trkpt>
      <trkpt lat="45.85587" lon="4.6777">
        <ele>208</ele>
        <time>2018-07-19T10:33:31Z</time>
      </trkpt>
      <trkpt lat="45.85586" lon="4.67776">
        <ele>209</ele>
        <time>2018-07-19T10:33:32Z</time>
      </trkpt>
      <trkpt lat="45.85582" lon="4.67783">
        <ele>206</ele>
        <time>2018-07-19T10:33:33Z</time>
      </trkpt>
      <trkpt lat="45.85579" lon="4.67791">
        <ele>206</ele>
        <time>2018-07-19T10:33:34Z</time>
      </trkpt>
      <trkpt lat="45.85578" lon="4.67798">
        <ele>206</ele>
        <time>2018-07-19T10:33:35Z</time>
      </trkpt>
      <trkpt lat="45.85575" lon="4.67806">
        <ele>206</ele>
        <time>2018-07-19T10:33:36Z</time>
      </trkpt>
      <trkpt lat="45.85573" lon="4.67812">
        <ele>206</ele>
        <time>2018-07-19T10:33:37Z</time>
      </trkpt>
      <trkpt lat="45.85572" lon="4.6782">
        <ele>206</ele>
        <time>2018-07-19T10:33:38Z</time>
      </trkpt>
      <trkpt lat="45.85571" lon="4.67827">
        <ele>206</ele>
        <time>2018-07-19T10:33:39Z</time>
      </trkpt>
      <trkpt lat="45.85568" lon="4.67834">
        <ele>206</ele>
        <time>2018-07-19T10:33:40Z</time>
      </trkpt>
      <trkpt lat="45.85567" lon="4.67841">
        <ele>206</ele>
        <time>2018-07-19T10:33:41Z</time>
      </trkpt>
      <trkpt lat="45.85564" lon="4.67845">
        <ele>207</ele>
        <time>2018-07-19T10:33:42Z</time>
      </trkpt>
      <trkpt lat="45.85566" lon="4.67856">
        <ele>207</ele>
        <time>2018-07-19T10:33:43Z</time>
      </trkpt>
      <trkpt lat="45.85568" lon="4.67869">
        <ele>207</ele>
        <time>2018-07-19T10:33:44Z</time>
      </trkpt>
      <trkpt lat="45.85567" lon="4.67877">
        <ele>207</ele>
        <time>2018-07-19T10:33:45Z</time>
      </trkpt>
      <trkpt lat="45.85571" lon="4.67889">
        <ele>206</ele>
        <time>2018-07-19T10:33:46Z</time>
      </trkpt>
      <trkpt lat="45.85569" lon="4.67901">
        <ele>206</ele>
        <time>2018-07-19T10:33:48Z</time>
      </trkpt>
      <trkpt lat="45.85568" lon="4.67907">
        <ele>206</ele>
        <time>2018-07-19T10:33:49Z</time>
      </trkpt>
      <trkpt lat="45.85567" lon="4.67913">
        <ele>206</ele>
        <time>2018-07-19T10:33:50Z</time>
      </trkpt>
      <trkpt lat="45.85565" lon="4.67919">
        <ele>205</ele>
        <time>2018-07-19T10:33:51Z</time>
      </trkpt>
      <trkpt lat="45.85563" lon="4.67924">
        <ele>205</ele>
        <time>2018-07-19T10:33:52Z</time>
      </trkpt>
      <trkpt lat="45.85558" lon="4.67929">
        <ele>205</ele>
        <time>2018-07-19T10:33:53Z</time>
      </trkpt>
      <trkpt lat="45.85553" lon="4.67935">
        <ele>205</ele>
        <time>2018-07-19T10:33:54Z</time>
      </trkpt>
      <trkpt lat="45.85549" lon="4.67939">
        <ele>205</ele>
        <time>2018-07-19T10:33:55Z</time>
      </trkpt>
      <trkpt lat="45.85544" lon="4.67944">
        <ele>205</ele>
        <time>2018-07-19T10:33:56Z</time>
      </trkpt>
      <trkpt lat="45.85539" lon="4.67948">
        <ele>206</ele>
        <time>2018-07-19T10:33:57Z</time>
      </trkpt>
      <trkpt lat="45.85534" lon="4.67953">
        <ele>206</ele>
        <time>2018-07-19T10:33:58Z</time>
      </trkpt>
      <trkpt lat="45.85528" lon="4.67958">
        <ele>206</ele>
        <time>2018-07-19T10:33:59Z</time>
      </trkpt>
      <trkpt lat="45.85523" lon="4.67963">
        <ele>206</ele>
        <time>2018-07-19T10:34:00Z</time>
      </trkpt>
      <trkpt lat="45.85519" lon="4.67968">
        <ele>206</ele>
        <time>2018-07-19T10:34:01Z</time>
      </trkpt>
      <trkpt lat="45.85515" lon="4.67972">
        <ele>206</ele>
        <time>2018-07-19T10:34:02Z</time>
      </trkpt>
      <trkpt lat="45.85511" lon="4.67976">
        <ele>206</ele>
        <time>2018-07-19T10:34:03Z</time>
      </trkpt>
      <trkpt lat="45.85506" lon="4.6798">
        <ele>206</ele>
        <time>2018-07-19T10:34:04Z</time>
      </trkpt>
      <trkpt lat="45.85502" lon="4.67984">
        <ele>206</ele>
        <time>2018-07-19T10:34:05Z</time>
      </trkpt>
      <trkpt lat="45.85497" lon="4.67986">
        <ele>208</ele>
        <time>2018-07-19T10:34:06Z</time>
      </trkpt>
      <trkpt lat="45.85493" lon="4.67988">
        <ele>208</ele>
        <time>2018-07-19T10:34:07Z</time>
      </trkpt>
      <trkpt lat="45.85492" lon="4.67989">
        <ele>208</ele>
        <time>2018-07-19T10:34:08Z</time>
      </trkpt>
      <trkpt lat="45.85485" lon="4.67993">
        <ele>209</ele>
        <time>2018-07-19T10:34:09Z</time>
      </trkpt>
      <trkpt lat="45.8548" lon="4.67998">
        <ele>209</ele>
        <time>2018-07-19T10:34:10Z</time>
      </trkpt>
      <trkpt lat="45.85476" lon="4.68003">
        <ele>207</ele>
        <time>2018-07-19T10:34:11Z</time>
      </trkpt>
      <trkpt lat="45.85473" lon="4.68008">
        <ele>207</ele>
        <time>2018-07-19T10:34:12Z</time>
      </trkpt>
      <trkpt lat="45.85477" lon="4.68017">
        <ele>207</ele>
        <time>2018-07-19T10:34:13Z</time>
      </trkpt>
      <trkpt lat="45.85484" lon="4.68025">
        <ele>207</ele>
        <time>2018-07-19T10:34:14Z</time>
      </trkpt>
      <trkpt lat="45.85488" lon="4.68036">
        <ele>207</ele>
        <time>2018-07-19T10:34:16Z</time>
      </trkpt>
      <trkpt lat="45.85489" lon="4.68043">
        <ele>207</ele>
        <time>2018-07-19T10:34:17Z</time>
      </trkpt>
      <trkpt lat="45.8549" lon="4.68051">
        <ele>206</ele>
        <time>2018-07-19T10:34:18Z</time>
      </trkpt>
      <trkpt lat="45.85492" lon="4.68061">
        <ele>206</ele>
        <time>2018-07-19T10:34:19Z</time>
      </trkpt>
      <trkpt lat="45.85491" lon="4.68068">
        <ele>206</ele>
        <time>2018-07-19T10:34:20Z</time>
      </trkpt>
      <trkpt lat="45.85491" lon="4.68078">
        <ele>205</ele>
        <time>2018-07-19T10:34:21Z</time>
      </trkpt>
      <trkpt lat="45.85492" lon="4.68086">
        <ele>204</ele>
        <time>2018-07-19T10:34:22Z</time>
      </trkpt>
      <trkpt lat="45.85493" lon="4.68098">
        <ele>204</ele>
        <time>2018-07-19T10:34:23Z</time>
      </trkpt>
      <trkpt lat="45.85493" lon="4.68106">
        <ele>204</ele>
        <time>2018-07-19T10:34:24Z</time>
      </trkpt>
      <trkpt lat="45.85494" lon="4.68115">
        <ele>204</ele>
        <time>2018-07-19T10:34:25Z</time>
      </trkpt>
      <trkpt lat="45.85497" lon="4.68125">
        <ele>204</ele>
        <time>2018-07-19T10:34:26Z</time>
      </trkpt>
      <trkpt lat="45.85498" lon="4.68134">
        <ele>204</ele>
        <time>2018-07-19T10:34:27Z</time>
      </trkpt>
      <trkpt lat="45.85499" lon="4.68145">
        <ele>204</ele>
        <time>2018-07-19T10:34:28Z</time>
      </trkpt>
      <trkpt lat="45.855" lon="4.68153">
        <ele>204</ele>
        <time>2018-07-19T10:34:29Z</time>
      </trkpt>
      <trkpt lat="45.85501" lon="4.68159">
        <ele>204</ele>
        <time>2018-07-19T10:34:30Z</time>
      </trkpt>
      <trkpt lat="45.85503" lon="4.68169">
        <ele>204</ele>
        <time>2018-07-19T10:34:31Z</time>
      </trkpt>
      <trkpt lat="45.85505" lon="4.68178">
        <ele>204</ele>
        <time>2018-07-19T10:34:32Z</time>
      </trkpt>
      <trkpt lat="45.85506" lon="4.68187">
        <ele>203</ele>
        <time>2018-07-19T10:34:33Z</time>
      </trkpt>
      <trkpt lat="45.85507" lon="4.68197">
        <ele>203</ele>
        <time>2018-07-19T10:34:34Z</time>
      </trkpt>
      <trkpt lat="45.85508" lon="4.68205">
        <ele>203</ele>
        <time>2018-07-19T10:34:35Z</time>
      </trkpt>
      <trkpt lat="45.85509" lon="4.68214">
        <ele>203</ele>
        <time>2018-07-19T10:34:36Z</time>
      </trkpt>
      <trkpt lat="45.8551" lon="4.68221">
        <ele>203</ele>
        <time>2018-07-19T10:34:37Z</time>
      </trkpt>
      <trkpt lat="45.85512" lon="4.68227">
        <ele>203</ele>
        <time>2018-07-19T10:34:38Z</time>
      </trkpt>
      <trkpt lat="45.85513" lon="4.68237">
        <ele>203</ele>
        <time>2018-07-19T10:34:39Z</time>
      </trkpt>
      <trkpt lat="45.85514" lon="4.68246">
        <ele>203</ele>
        <time>2018-07-19T10:34:40Z</time>
      </trkpt>
      <trkpt lat="45.85515" lon="4.68256">
        <ele>203</ele>
        <time>2018-07-19T10:34:41Z</time>
      </trkpt>
      <trkpt lat="45.85515" lon="4.68264">
        <ele>202</ele>
        <time>2018-07-19T10:34:42Z</time>
      </trkpt>
      <trkpt lat="45.85516" lon="4.68271">
        <ele>202</ele>
        <time>2018-07-19T10:34:43Z</time>
      </trkpt>
      <trkpt lat="45.85516" lon="4.68281">
        <ele>202</ele>
        <time>2018-07-19T10:34:44Z</time>
      </trkpt>
      <trkpt lat="45.85516" lon="4.68288">
        <ele>202</ele>
        <time>2018-07-19T10:34:45Z</time>
      </trkpt>
      <trkpt lat="45.85518" lon="4.68299">
        <ele>202</ele>
        <time>2018-07-19T10:34:46Z</time>
      </trkpt>
      <trkpt lat="45.85518" lon="4.68308">
        <ele>202</ele>
        <time>2018-07-19T10:34:47Z</time>
      </trkpt>
      <trkpt lat="45.85518" lon="4.68318">
        <ele>202</ele>
        <time>2018-07-19T10:34:48Z</time>
      </trkpt>
      <trkpt lat="45.85521" lon="4.68327">
        <ele>202</ele>
        <time>2018-07-19T10:34:49Z</time>
      </trkpt>
      <trkpt lat="45.85523" lon="4.68334">
        <ele>201</ele>
        <time>2018-07-19T10:34:50Z</time>
      </trkpt>
      <trkpt lat="45.85524" lon="4.6834">
        <ele>201</ele>
        <time>2018-07-19T10:34:51Z</time>
      </trkpt>
      <trkpt lat="45.85524" lon="4.68349">
        <ele>201</ele>
        <time>2018-07-19T10:34:52Z</time>
      </trkpt>
      <trkpt lat="45.85525" lon="4.68355">
        <ele>201</ele>
        <time>2018-07-19T10:34:53Z</time>
      </trkpt>
      <trkpt lat="45.85523" lon="4.68364">
        <ele>201</ele>
        <time>2018-07-19T10:34:54Z</time>
      </trkpt>
      <trkpt lat="45.85522" lon="4.68373">
        <ele>201</ele>
        <time>2018-07-19T10:34:55Z</time>
      </trkpt>
      <trkpt lat="45.85523" lon="4.68382">
        <ele>201</ele>
        <time>2018-07-19T10:34:56Z</time>
      </trkpt>
      <trkpt lat="45.85524" lon="4.6839">
        <ele>200</ele>
        <time>2018-07-19T10:34:57Z</time>
      </trkpt>
      <trkpt lat="45.85524" lon="4.68399">
        <ele>200</ele>
        <time>2018-07-19T10:34:58Z</time>
      </trkpt>
      <trkpt lat="45.85525" lon="4.68408">
        <ele>200</ele>
        <time>2018-07-19T10:34:59Z</time>
      </trkpt>
      <trkpt lat="45.85526" lon="4.68417">
        <ele>200</ele>
        <time>2018-07-19T10:35:00Z</time>
      </trkpt>
      <trkpt lat="45.85526" lon="4.68429">
        <ele>200</ele>
        <time>2018-07-19T10:35:01Z</time>
      </trkpt>
      <trkpt lat="45.85527" lon="4.6844">
        <ele>200</ele>
        <time>2018-07-19T10:35:02Z</time>
      </trkpt>
      <trkpt lat="45.85528" lon="4.68449">
        <ele>200</ele>
        <time>2018-07-19T10:35:03Z</time>
      </trkpt>
      <trkpt lat="45.85528" lon="4.6846">
        <ele>200</ele>
        <time>2018-07-19T10:35:04Z</time>
      </trkpt>
      <trkpt lat="45.85528" lon="4.6847">
        <ele>200</ele>
        <time>2018-07-19T10:35:05Z</time>
      </trkpt>
      <trkpt lat="45.85529" lon="4.6848">
        <ele>200</ele>
        <time>2018-07-19T10:35:06Z</time>
      </trkpt>
      <trkpt lat="45.85529" lon="4.68488">
        <ele>200</ele>
        <time>2018-07-19T10:35:07Z</time>
      </trkpt>
      <trkpt lat="45.85531" lon="4.68496">
        <ele>200</ele>
        <time>2018-07-19T10:35:08Z</time>
      </trkpt>
      <trkpt lat="45.85531" lon="4.68505">
        <ele>201</ele>
        <time>2018-07-19T10:35:09Z</time>
      </trkpt>
      <trkpt lat="45.85532" lon="4.68513">
        <ele>201</ele>
        <time>2018-07-19T10:35:10Z</time>
      </trkpt>
      <trkpt lat="45.85532" lon="4.68523">
        <ele>201</ele>
        <time>2018-07-19T10:35:11Z</time>
      </trkpt>
      <trkpt lat="45.85533" lon="4.68533">
        <ele>201</ele>
        <time>2018-07-19T10:35:12Z</time>
      </trkpt>
      <trkpt lat="45.85534" lon="4.68542">
        <ele>201</ele>
        <time>2018-07-19T10:35:13Z</time>
      </trkpt>
      <trkpt lat="45.85535" lon="4.68551">
        <ele>201</ele>
        <time>2018-07-19T10:35:14Z</time>
      </trkpt>
      <trkpt lat="45.85535" lon="4.6856">
        <ele>201</ele>
        <time>2018-07-19T10:35:15Z</time>
      </trkpt>
      <trkpt lat="45.85537" lon="4.68569">
        <ele>201</ele>
        <time>2018-07-19T10:35:16Z</time>
      </trkpt>
      <trkpt lat="45.85537" lon="4.68577">
        <ele>201</ele>
        <time>2018-07-19T10:35:17Z</time>
      </trkpt>
      <trkpt lat="45.85538" lon="4.68584">
        <ele>201</ele>
        <time>2018-07-19T10:35:18Z</time>
      </trkpt>
      <trkpt lat="45.85538" lon="4.68591">
        <ele>201</ele>
        <time>2018-07-19T10:35:19Z</time>
      </trkpt>
      <trkpt lat="45.85539" lon="4.68597">
        <ele>201</ele>
        <time>2018-07-19T10:35:20Z</time>
      </trkpt>
      <trkpt lat="45.8554" lon="4.68605">
        <ele>201</ele>
        <time>2018-07-19T10:35:21Z</time>
      </trkpt>
      <trkpt lat="45.85541" lon="4.68613">
        <ele>201</ele>
        <time>2018-07-19T10:35:22Z</time>
      </trkpt>
      <trkpt lat="45.85543" lon="4.68621">
        <ele>201</ele>
        <time>2018-07-19T10:35:23Z</time>
      </trkpt>
      <trkpt lat="45.85543" lon="4.6863">
        <ele>201</ele>
        <time>2018-07-19T10:35:24Z</time>
      </trkpt>
      <trkpt lat="45.85546" lon="4.68638">
        <ele>201</ele>
        <time>2018-07-19T10:35:25Z</time>
      </trkpt>
      <trkpt lat="45.85546" lon="4.68646">
        <ele>201</ele>
        <time>2018-07-19T10:35:26Z</time>
      </trkpt>
      <trkpt lat="45.85547" lon="4.68653">
        <ele>201</ele>
        <time>2018-07-19T10:35:27Z</time>
      </trkpt>
      <trkpt lat="45.85549" lon="4.68663">
        <ele>200</ele>
        <time>2018-07-19T10:35:28Z</time>
      </trkpt>
      <trkpt lat="45.85549" lon="4.68671">
        <ele>200</ele>
        <time>2018-07-19T10:35:29Z</time>
      </trkpt>
      <trkpt lat="45.85549" lon="4.68681">
        <ele>200</ele>
        <time>2018-07-19T10:35:30Z</time>
      </trkpt>
      <trkpt lat="45.8555" lon="4.6869">
        <ele>200</ele>
        <time>2018-07-19T10:35:31Z</time>
      </trkpt>
      <trkpt lat="45.8555" lon="4.68699">
        <ele>200</ele>
        <time>2018-07-19T10:35:32Z</time>
      </trkpt>
      <trkpt lat="45.8555" lon="4.68707">
        <ele>200</ele>
        <time>2018-07-19T10:35:33Z</time>
      </trkpt>
      <trkpt lat="45.85551" lon="4.68716">
        <ele>200</ele>
        <time>2018-07-19T10:35:34Z</time>
      </trkpt>
      <trkpt lat="45.8555" lon="4.68724">
        <ele>200</ele>
        <time>2018-07-19T10:35:35Z</time>
      </trkpt>
      <trkpt lat="45.8555" lon="4.68731">
        <ele>200</ele>
        <time>2018-07-19T10:35:36Z</time>
      </trkpt>
      <trkpt lat="45.85549" lon="4.68739">
        <ele>200</ele>
        <time>2018-07-19T10:35:37Z</time>
      </trkpt>
      <trkpt lat="45.8555" lon="4.68746">
        <ele>200</ele>
        <time>2018-07-19T10:35:38Z</time>
      </trkpt>
      <trkpt lat="45.85551" lon="4.68755">
        <ele>200</ele>
        <time>2018-07-19T10:35:39Z</time>
      </trkpt>
      <trkpt lat="45.85552" lon="4.68764">
        <ele>200</ele>
        <time>2018-07-19T10:35:40Z</time>
      </trkpt>
      <trkpt lat="45.85552" lon="4.68772">
        <ele>200</ele>
        <time>2018-07-19T10:35:41Z</time>
      </trkpt>
      <trkpt lat="45.85554" lon="4.6878">
        <ele>200</ele>
        <time>2018-07-19T10:35:42Z</time>
      </trkpt>
      <trkpt lat="45.85555" lon="4.68789">
        <ele>200</ele>
        <time>2018-07-19T10:35:43Z</time>
      </trkpt>
      <trkpt lat="45.85555" lon="4.68798">
        <ele>200</ele>
        <time>2018-07-19T10:35:44Z</time>
      </trkpt>
      <trkpt lat="45.85557" lon="4.68808">
        <ele>200</ele>
        <time>2018-07-19T10:35:45Z</time>
      </trkpt>
      <trkpt lat="45.85558" lon="4.68817">
        <ele>200</ele>
        <time>2018-07-19T10:35:46Z</time>
      </trkpt>
      <trkpt lat="45.85559" lon="4.68826">
        <ele>200</ele>
        <time>2018-07-19T10:35:47Z</time>
      </trkpt>
      <trkpt lat="45.8556" lon="4.68834">
        <ele>200</ele>
        <time>2018-07-19T10:35:48Z</time>
      </trkpt>
      <trkpt lat="45.85561" lon="4.68844">
        <ele>200</ele>
        <time>2018-07-19T10:35:49Z</time>
      </trkpt>
      <trkpt lat="45.85562" lon="4.68851">
        <ele>200</ele>
        <time>2018-07-19T10:35:50Z</time>
      </trkpt>
      <trkpt lat="45.85562" lon="4.68859">
        <ele>200</ele>
        <time>2018-07-19T10:35:51Z</time>
      </trkpt>
      <trkpt lat="45.85564" lon="4.68869">
        <ele>200</ele>
        <time>2018-07-19T10:35:52Z</time>
      </trkpt>
      <trkpt lat="45.85563" lon="4.68876">
        <ele>200</ele>
        <time>2018-07-19T10:35:53Z</time>
      </trkpt>
      <trkpt lat="45.85565" lon="4.68885">
        <ele>200</ele>
        <time>2018-07-19T10:35:54Z</time>
      </trkpt>
      <trkpt lat="45.85565" lon="4.68894">
        <ele>200</ele>
        <time>2018-07-19T10:35:55Z</time>
      </trkpt>
      <trkpt lat="45.85566" lon="4.68903">
        <ele>200</ele>
        <time>2018-07-19T10:35:56Z</time>
      </trkpt>
      <trkpt lat="45.85566" lon="4.68912">
        <ele>200</ele>
        <time>2018-07-19T10:35:57Z</time>
      </trkpt>
      <trkpt lat="45.85567" lon="4.68922">
        <ele>200</ele>
        <time>2018-07-19T10:35:58Z</time>
      </trkpt>
      <trkpt lat="45.85568" lon="4.6893">
        <ele>200</ele>
        <time>2018-07-19T10:35:59Z</time>
      </trkpt>
      <trkpt lat="45.85569" lon="4.68939">
        <ele>200</ele>
        <time>2018-07-19T10:36:00Z</time>
      </trkpt>
      <trkpt lat="45.85569" lon="4.68947">
        <ele>200</ele>
        <time>2018-07-19T10:36:01Z</time>
      </trkpt>
      <trkpt lat="45.8557" lon="4.68955">
        <ele>200</ele>
        <time>2018-07-19T10:36:02Z</time>
      </trkpt>
      <trkpt lat="45.85571" lon="4.68963">
        <ele>200</ele>
        <time>2018-07-19T10:36:03Z</time>
      </trkpt>
      <trkpt lat="45.85572" lon="4.6897">
        <ele>200</ele>
        <time>2018-07-19T10:36:04Z</time>
      </trkpt>
      <trkpt lat="45.85574" lon="4.68978">
        <ele>200</ele>
        <time>2018-07-19T10:36:05Z</time>
      </trkpt>
      <trkpt lat="45.85575" lon="4.68985">
        <ele>200</ele>
        <time>2018-07-19T10:36:06Z</time>
      </trkpt>
      <trkpt lat="45.85576" lon="4.68994">
        <ele>200</ele>
        <time>2018-07-19T10:36:07Z</time>
      </trkpt>
      <trkpt lat="45.85578" lon="4.69003">
        <ele>200</ele>
        <time>2018-07-19T10:36:08Z</time>
      </trkpt>
      <trkpt lat="45.85579" lon="4.6901">
        <ele>200</ele>
        <time>2018-07-19T10:36:09Z</time>
      </trkpt>
      <trkpt lat="45.85579" lon="4.6902">
        <ele>200</ele>
        <time>2018-07-19T10:36:10Z</time>
      </trkpt>
      <trkpt lat="45.8558" lon="4.6903">
        <ele>200</ele>
        <time>2018-07-19T10:36:11Z</time>
      </trkpt>
      <trkpt lat="45.85582" lon="4.6904">
        <ele>200</ele>
        <time>2018-07-19T10:36:12Z</time>
      </trkpt>
      <trkpt lat="45.85583" lon="4.69048">
        <ele>199</ele>
        <time>2018-07-19T10:36:13Z</time>
      </trkpt>
      <trkpt lat="45.85584" lon="4.69057">
        <ele>199</ele>
        <time>2018-07-19T10:36:14Z</time>
      </trkpt>
      <trkpt lat="45.85584" lon="4.69063">
        <ele>199</ele>
        <time>2018-07-19T10:36:15Z</time>
      </trkpt>
      <trkpt lat="45.85585" lon="4.69072">
        <ele>199</ele>
        <time>2018-07-19T10:36:16Z</time>
      </trkpt>
      <trkpt lat="45.85586" lon="4.6908">
        <ele>199</ele>
        <time>2018-07-19T10:36:17Z</time>
      </trkpt>
      <trkpt lat="45.85587" lon="4.69087">
        <ele>199</ele>
        <time>2018-07-19T10:36:18Z</time>
      </trkpt>
      <trkpt lat="45.85588" lon="4.69095">
        <ele>199</ele>
        <time>2018-07-19T10:36:19Z</time>
      </trkpt>
      <trkpt lat="45.85588" lon="4.69104">
        <ele>199</ele>
        <time>2018-07-19T10:36:20Z</time>
      </trkpt>
      <trkpt lat="45.85588" lon="4.69113">
        <ele>199</ele>
        <time>2018-07-19T10:36:21Z</time>
      </trkpt>
      <trkpt lat="45.85588" lon="4.69122">
        <ele>199</ele>
        <time>2018-07-19T10:36:22Z</time>
      </trkpt>
      <trkpt lat="45.85589" lon="4.69129">
        <ele>199</ele>
        <time>2018-07-19T10:36:23Z</time>
      </trkpt>
      <trkpt lat="45.8559" lon="4.69136">
        <ele>199</ele>
        <time>2018-07-19T10:36:24Z</time>
      </trkpt>
      <trkpt lat="45.85591" lon="4.69144">
        <ele>199</ele>
        <time>2018-07-19T10:36:25Z</time>
      </trkpt>
      <trkpt lat="45.85592" lon="4.69152">
        <ele>199</ele>
        <time>2018-07-19T10:36:26Z</time>
      </trkpt>
      <trkpt lat="45.85592" lon="4.69161">
        <ele>199</ele>
        <time>2018-07-19T10:36:27Z</time>
      </trkpt>
      <trkpt lat="45.85593" lon="4.69169">
        <ele>199</ele>
        <time>2018-07-19T10:36:28Z</time>
      </trkpt>
      <trkpt lat="45.85594" lon="4.69176">
        <ele>199</ele>
        <time>2018-07-19T10:36:29Z</time>
      </trkpt>
      <trkpt lat="45.85595" lon="4.69184">
        <ele>199</ele>
        <time>2018-07-19T10:36:30Z</time>
      </trkpt>
      <trkpt lat="45.85595" lon="4.69192">
        <ele>199</ele>
        <time>2018-07-19T10:36:31Z</time>
      </trkpt>
      <trkpt lat="45.85596" lon="4.692">
        <ele>199</ele>
        <time>2018-07-19T10:36:32Z</time>
      </trkpt>
      <trkpt lat="45.85597" lon="4.69208">
        <ele>199</ele>
        <time>2018-07-19T10:36:33Z</time>
      </trkpt>
      <trkpt lat="45.85597" lon="4.6921">
        <ele>199</ele>
        <time>2018-07-19T10:36:34Z</time>
      </trkpt>
      <trkpt lat="45.85597" lon="4.69226">
        <ele>199</ele>
        <time>2018-07-19T10:36:35Z</time>
      </trkpt>
      <trkpt lat="45.85597" lon="4.69233">
        <ele>199</ele>
        <time>2018-07-19T10:36:36Z</time>
      </trkpt>
      <trkpt lat="45.85597" lon="4.6924">
        <ele>199</ele>
        <time>2018-07-19T10:36:37Z</time>
      </trkpt>
      <trkpt lat="45.85594" lon="4.6925">
        <ele>199</ele>
        <time>2018-07-19T10:36:38Z</time>
      </trkpt>
      <trkpt lat="45.85593" lon="4.69256">
        <ele>199</ele>
        <time>2018-07-19T10:36:39Z</time>
      </trkpt>
      <trkpt lat="45.85592" lon="4.69264">
        <ele>199</ele>
        <time>2018-07-19T10:36:40Z</time>
      </trkpt>
      <trkpt lat="45.85597" lon="4.6927">
        <ele>198</ele>
        <time>2018-07-19T10:36:41Z</time>
      </trkpt>
      <trkpt lat="45.85599" lon="4.69278">
        <ele>198</ele>
        <time>2018-07-19T10:36:42Z</time>
      </trkpt>
      <trkpt lat="45.85601" lon="4.69284">
        <ele>198</ele>
        <time>2018-07-19T10:36:43Z</time>
      </trkpt>
      <trkpt lat="45.85602" lon="4.69291">
        <ele>198</ele>
        <time>2018-07-19T10:36:44Z</time>
      </trkpt>
      <trkpt lat="45.85603" lon="4.69298">
        <ele>198</ele>
        <time>2018-07-19T10:36:45Z</time>
      </trkpt>
      <trkpt lat="45.85605" lon="4.69306">
        <ele>198</ele>
        <time>2018-07-19T10:36:46Z</time>
      </trkpt>
      <trkpt lat="45.85606" lon="4.69315">
        <ele>198</ele>
        <time>2018-07-19T10:36:47Z</time>
      </trkpt>
      <trkpt lat="45.85605" lon="4.69323">
        <ele>198</ele>
        <time>2018-07-19T10:36:48Z</time>
      </trkpt>
      <trkpt lat="45.85605" lon="4.69331">
        <ele>198</ele>
        <time>2018-07-19T10:36:49Z</time>
      </trkpt>
      <trkpt lat="45.85606" lon="4.69339">
        <ele>198</ele>
        <time>2018-07-19T10:36:50Z</time>
      </trkpt>
      <trkpt lat="45.85605" lon="4.69347">
        <ele>198</ele>
        <time>2018-07-19T10:36:51Z</time>
      </trkpt>
      <trkpt lat="45.85606" lon="4.69355">
        <ele>198</ele>
        <time>2018-07-19T10:36:52Z</time>
      </trkpt>
      <trkpt lat="45.85607" lon="4.69363">
        <ele>198</ele>
        <time>2018-07-19T10:36:53Z</time>
      </trkpt>
      <trkpt lat="45.85608" lon="4.69371">
        <ele>198</ele>
        <time>2018-07-19T10:36:54Z</time>
      </trkpt>
      <trkpt lat="45.85608" lon="4.69379">
        <ele>198</ele>
        <time>2018-07-19T10:36:55Z</time>
      </trkpt>
      <trkpt lat="45.8561" lon="4.69388">
        <ele>198</ele>
        <time>2018-07-19T10:36:56Z</time>
      </trkpt>
      <trkpt lat="45.85612" lon="4.69397">
        <ele>198</ele>
        <time>2018-07-19T10:36:57Z</time>
      </trkpt>
      <trkpt lat="45.85613" lon="4.69403">
        <ele>198</ele>
        <time>2018-07-19T10:36:58Z</time>
      </trkpt>
      <trkpt lat="45.85612" lon="4.69413">
        <ele>198</ele>
        <time>2018-07-19T10:36:59Z</time>
      </trkpt>
      <trkpt lat="45.85616" lon="4.69423">
        <ele>198</ele>
        <time>2018-07-19T10:37:00Z</time>
      </trkpt>
      <trkpt lat="45.85615" lon="4.69431">
        <ele>198</ele>
        <time>2018-07-19T10:37:01Z</time>
      </trkpt>
      <trkpt lat="45.85616" lon="4.69439">
        <ele>198</ele>
        <time>2018-07-19T10:37:02Z</time>
      </trkpt>
      <trkpt lat="45.85617" lon="4.69448">
        <ele>198</ele>
        <time>2018-07-19T10:37:03Z</time>
      </trkpt>
      <trkpt lat="45.85618" lon="4.69456">
        <ele>198</ele>
        <time>2018-07-19T10:37:04Z</time>
      </trkpt>
      <trkpt lat="45.85618" lon="4.69464">
        <ele>198</ele>
        <time>2018-07-19T10:37:05Z</time>
      </trkpt>
      <trkpt lat="45.85622" lon="4.69472">
        <ele>198</ele>
        <time>2018-07-19T10:37:06Z</time>
      </trkpt>
      <trkpt lat="45.85622" lon="4.69481">
        <ele>198</ele>
        <time>2018-07-19T10:37:07Z</time>
      </trkpt>
      <trkpt lat="45.85624" lon="4.69488">
        <ele>198</ele>
        <time>2018-07-19T10:37:08Z</time>
      </trkpt>
      <trkpt lat="45.85625" lon="4.69497">
        <ele>198</ele>
        <time>2018-07-19T10:37:09Z</time>
      </trkpt>
      <trkpt lat="45.85626" lon="4.69506">
        <ele>198</ele>
        <time>2018-07-19T10:37:10Z</time>
      </trkpt>
      <trkpt lat="45.85627" lon="4.69514">
        <ele>198</ele>
        <time>2018-07-19T10:37:11Z</time>
      </trkpt>
      <trkpt lat="45.85628" lon="4.69523">
        <ele>198</ele>
        <time>2018-07-19T10:37:12Z</time>
      </trkpt>
      <trkpt lat="45.85628" lon="4.69532">
        <ele>198</ele>
        <time>2018-07-19T10:37:13Z</time>
      </trkpt>
      <trkpt lat="45.85629" lon="4.6954">
        <ele>198</ele>
        <time>2018-07-19T10:37:14Z</time>
      </trkpt>
      <trkpt lat="45.85629" lon="4.69548">
        <ele>198</ele>
        <time>2018-07-19T10:37:15Z</time>
      </trkpt>
      <trkpt lat="45.85629" lon="4.69555">
        <ele>198</ele>
        <time>2018-07-19T10:37:16Z</time>
      </trkpt>
      <trkpt lat="45.8563" lon="4.69563">
        <ele>198</ele>
        <time>2018-07-19T10:37:17Z</time>
      </trkpt>
      <trkpt lat="45.8563" lon="4.69571">
        <ele>198</ele>
        <time>2018-07-19T10:37:18Z</time>
      </trkpt>
      <trkpt lat="45.85631" lon="4.69581">
        <ele>198</ele>
        <time>2018-07-19T10:37:19Z</time>
      </trkpt>
      <trkpt lat="45.8563" lon="4.6959">
        <ele>197</ele>
        <time>2018-07-19T10:37:20Z</time>
      </trkpt>
      <trkpt lat="45.8563" lon="4.69598">
        <ele>197</ele>
        <time>2018-07-19T10:37:21Z</time>
      </trkpt>
      <trkpt lat="45.8563" lon="4.69606">
        <ele>197</ele>
        <time>2018-07-19T10:37:22Z</time>
      </trkpt>
      <trkpt lat="45.8563" lon="4.69614">
        <ele>197</ele>
        <time>2018-07-19T10:37:23Z</time>
      </trkpt>
      <trkpt lat="45.85631" lon="4.69623">
        <ele>197</ele>
        <time>2018-07-19T10:37:24Z</time>
      </trkpt>
      <trkpt lat="45.85632" lon="4.69631">
        <ele>197</ele>
        <time>2018-07-19T10:37:25Z</time>
      </trkpt>
      <trkpt lat="45.85633" lon="4.69639">
        <ele>197</ele>
        <time>2018-07-19T10:37:26Z</time>
      </trkpt>
      <trkpt lat="45.85633" lon="4.69647">
        <ele>197</ele>
        <time>2018-07-19T10:37:27Z</time>
      </trkpt>
      <trkpt lat="45.85634" lon="4.69656">
        <ele>197</ele>
        <time>2018-07-19T10:37:28Z</time>
      </trkpt>
      <trkpt lat="45.85635" lon="4.69664">
        <ele>197</ele>
        <time>2018-07-19T10:37:29Z</time>
      </trkpt>
      <trkpt lat="45.85634" lon="4.69672">
        <ele>196</ele>
        <time>2018-07-19T10:37:30Z</time>
      </trkpt>
      <trkpt lat="45.85634" lon="4.69681">
        <ele>196</ele>
        <time>2018-07-19T10:37:31Z</time>
      </trkpt>
      <trkpt lat="45.85635" lon="4.69689">
        <ele>196</ele>
        <time>2018-07-19T10:37:32Z</time>
      </trkpt>
      <trkpt lat="45.85636" lon="4.69699">
        <ele>196</ele>
        <time>2018-07-19T10:37:33Z</time>
      </trkpt>
      <trkpt lat="45.85637" lon="4.69708">
        <ele>196</ele>
        <time>2018-07-19T10:37:34Z</time>
      </trkpt>
      <trkpt lat="45.85639" lon="4.69718">
        <ele>196</ele>
        <time>2018-07-19T10:37:35Z</time>
      </trkpt>
      <trkpt lat="45.85641" lon="4.69727">
        <ele>196</ele>
        <time>2018-07-19T10:37:36Z</time>
      </trkpt>
      <trkpt lat="45.85642" lon="4.69736">
        <ele>195</ele>
        <time>2018-07-19T10:37:37Z</time>
      </trkpt>
      <trkpt lat="45.85644" lon="4.69746">
        <ele>195</ele>
        <time>2018-07-19T10:37:38Z</time>
      </trkpt>
      <trkpt lat="45.85644" lon="4.69755">
        <ele>195</ele>
        <time>2018-07-19T10:37:39Z</time>
      </trkpt>
      <trkpt lat="45.85646" lon="4.69765">
        <ele>195</ele>
        <time>2018-07-19T10:37:40Z</time>
      </trkpt>
      <trkpt lat="45.85647" lon="4.69773">
        <ele>195</ele>
        <time>2018-07-19T10:37:41Z</time>
      </trkpt>
      <trkpt lat="45.85648" lon="4.69783">
        <ele>195</ele>
        <time>2018-07-19T10:37:42Z</time>
      </trkpt>
      <trkpt lat="45.85649" lon="4.69792">
        <ele>195</ele>
        <time>2018-07-19T10:37:43Z</time>
      </trkpt>
      <trkpt lat="45.85649" lon="4.698">
        <ele>195</ele>
        <time>2018-07-19T10:37:44Z</time>
      </trkpt>
      <trkpt lat="45.85649" lon="4.69808">
        <ele>195</ele>
        <time>2018-07-19T10:37:45Z</time>
      </trkpt>
      <trkpt lat="45.8565" lon="4.69818">
        <ele>195</ele>
        <time>2018-07-19T10:37:46Z</time>
      </trkpt>
      <trkpt lat="45.85651" lon="4.69828">
        <ele>195</ele>
        <time>2018-07-19T10:37:47Z</time>
      </trkpt>
      <trkpt lat="45.85652" lon="4.69837">
        <ele>195</ele>
        <time>2018-07-19T10:37:48Z</time>
      </trkpt>
      <trkpt lat="45.85654" lon="4.69846">
        <ele>195</ele>
        <time>2018-07-19T10:37:49Z</time>
      </trkpt>
      <trkpt lat="45.85656" lon="4.69855">
        <ele>195</ele>
        <time>2018-07-19T10:37:50Z</time>
      </trkpt>
      <trkpt lat="45.85656" lon="4.69864">
        <ele>195</ele>
        <time>2018-07-19T10:37:51Z</time>
      </trkpt>
      <trkpt lat="45.85658" lon="4.69872">
        <ele>195</ele>
        <time>2018-07-19T10:37:52Z</time>
      </trkpt>
      <trkpt lat="45.85659" lon="4.6988">
        <ele>195</ele>
        <time>2018-07-19T10:37:53Z</time>
      </trkpt>
      <trkpt lat="45.8566" lon="4.69888">
        <ele>195</ele>
        <time>2018-07-19T10:37:54Z</time>
      </trkpt>
      <trkpt lat="45.85663" lon="4.69895">
        <ele>195</ele>
        <time>2018-07-19T10:37:55Z</time>
      </trkpt>
      <trkpt lat="45.85664" lon="4.69903">
        <ele>195</ele>
        <time>2018-07-19T10:37:56Z</time>
      </trkpt>
      <trkpt lat="45.85666" lon="4.69913">
        <ele>195</ele>
        <time>2018-07-19T10:37:57Z</time>
      </trkpt>
      <trkpt lat="45.85669" lon="4.69921">
        <ele>195</ele>
        <time>2018-07-19T10:37:58Z</time>
      </trkpt>
      <trkpt lat="45.8567" lon="4.69929">
        <ele>195</ele>
        <time>2018-07-19T10:37:59Z</time>
      </trkpt>
      <trkpt lat="45.85671" lon="4.69938">
        <ele>195</ele>
        <time>2018-07-19T10:38:00Z</time>
      </trkpt>
      <trkpt lat="45.85673" lon="4.69946">
        <ele>195</ele>
        <time>2018-07-19T10:38:01Z</time>
      </trkpt>
      <trkpt lat="45.85675" lon="4.69954">
        <ele>195</ele>
        <time>2018-07-19T10:38:02Z</time>
      </trkpt>
      <trkpt lat="45.85676" lon="4.69963">
        <ele>195</ele>
        <time>2018-07-19T10:38:03Z</time>
      </trkpt>
      <trkpt lat="45.85678" lon="4.69971">
        <ele>195</ele>
        <time>2018-07-19T10:38:04Z</time>
      </trkpt>
      <trkpt lat="45.85679" lon="4.69979">
        <ele>195</ele>
        <time>2018-07-19T10:38:05Z</time>
      </trkpt>
      <trkpt lat="45.85681" lon="4.69987">
        <ele>195</ele>
        <time>2018-07-19T10:38:06Z</time>
      </trkpt>
      <trkpt lat="45.85681" lon="4.69996">
        <ele>195</ele>
        <time>2018-07-19T10:38:07Z</time>
      </trkpt>
      <trkpt lat="45.85682" lon="4.70003">
        <ele>195</ele>
        <time>2018-07-19T10:38:08Z</time>
      </trkpt>
      <trkpt lat="45.85681" lon="4.70011">
        <ele>195</ele>
        <time>2018-07-19T10:38:09Z</time>
      </trkpt>
      <trkpt lat="45.85681" lon="4.70018">
        <ele>195</ele>
        <time>2018-07-19T10:38:10Z</time>
      </trkpt>
      <trkpt lat="45.8568" lon="4.70027">
        <ele>195</ele>
        <time>2018-07-19T10:38:11Z</time>
      </trkpt>
      <trkpt lat="45.85679" lon="4.70035">
        <ele>195</ele>
        <time>2018-07-19T10:38:12Z</time>
      </trkpt>
      <trkpt lat="45.85677" lon="4.70043">
        <ele>195</ele>
        <time>2018-07-19T10:38:13Z</time>
      </trkpt>
      <trkpt lat="45.85676" lon="4.70051">
        <ele>195</ele>
        <time>2018-07-19T10:38:14Z</time>
      </trkpt>
      <trkpt lat="45.85675" lon="4.70059">
        <ele>196</ele>
        <time>2018-07-19T10:38:15Z</time>
      </trkpt>
      <trkpt lat="45.85673" lon="4.70069">
        <ele>196</ele>
        <time>2018-07-19T10:38:17Z</time>
      </trkpt>
      <trkpt lat="45.85671" lon="4.70076">
        <ele>196</ele>
        <time>2018-07-19T10:38:18Z</time>
      </trkpt>
      <trkpt lat="45.85671" lon="4.70084">
        <ele>196</ele>
        <time>2018-07-19T10:38:19Z</time>
      </trkpt>
      <trkpt lat="45.8567" lon="4.70093">
        <ele>196</ele>
        <time>2018-07-19T10:38:20Z</time>
      </trkpt>
      <trkpt lat="45.85669" lon="4.70101">
        <ele>196</ele>
        <time>2018-07-19T10:38:21Z</time>
      </trkpt>
      <trkpt lat="45.85668" lon="4.7011">
        <ele>196</ele>
        <time>2018-07-19T10:38:22Z</time>
      </trkpt>
      <trkpt lat="45.85669" lon="4.7012">
        <ele>197</ele>
        <time>2018-07-19T10:38:23Z</time>
      </trkpt>
      <trkpt lat="45.8567" lon="4.70129">
        <ele>197</ele>
        <time>2018-07-19T10:38:24Z</time>
      </trkpt>
      <trkpt lat="45.85671" lon="4.7014">
        <ele>197</ele>
        <time>2018-07-19T10:38:25Z</time>
      </trkpt>
      <trkpt lat="45.85672" lon="4.7015">
        <ele>197</ele>
        <time>2018-07-19T10:38:26Z</time>
      </trkpt>
      <trkpt lat="45.85674" lon="4.70161">
        <ele>197</ele>
        <time>2018-07-19T10:38:27Z</time>
      </trkpt>
      <trkpt lat="45.85677" lon="4.7017">
        <ele>197</ele>
        <time>2018-07-19T10:38:28Z</time>
      </trkpt>
      <trkpt lat="45.85679" lon="4.70179">
        <ele>197</ele>
        <time>2018-07-19T10:38:29Z</time>
      </trkpt>
      <trkpt lat="45.85681" lon="4.70189">
        <ele>197</ele>
        <time>2018-07-19T10:38:30Z</time>
      </trkpt>
      <trkpt lat="45.85683" lon="4.70199">
        <ele>197</ele>
        <time>2018-07-19T10:38:31Z</time>
      </trkpt>
      <trkpt lat="45.85684" lon="4.70208">
        <ele>197</ele>
        <time>2018-07-19T10:38:32Z</time>
      </trkpt>
      <trkpt lat="45.85685" lon="4.70216">
        <ele>197</ele>
        <time>2018-07-19T10:38:33Z</time>
      </trkpt>
      <trkpt lat="45.85687" lon="4.70225">
        <ele>197</ele>
        <time>2018-07-19T10:38:34Z</time>
      </trkpt>
      <trkpt lat="45.85687" lon="4.70233">
        <ele>197</ele>
        <time>2018-07-19T10:38:35Z</time>
      </trkpt>
      <trkpt lat="45.85688" lon="4.70241">
        <ele>197</ele>
        <time>2018-07-19T10:38:36Z</time>
      </trkpt>
      <trkpt lat="45.85689" lon="4.70251">
        <ele>197</ele>
        <time>2018-07-19T10:38:37Z</time>
      </trkpt>
      <trkpt lat="45.8569" lon="4.7026">
        <ele>197</ele>
        <time>2018-07-19T10:38:38Z</time>
      </trkpt>
      <trkpt lat="45.8569" lon="4.70267">
        <ele>197</ele>
        <time>2018-07-19T10:38:39Z</time>
      </trkpt>
      <trkpt lat="45.85691" lon="4.70276">
        <ele>197</ele>
        <time>2018-07-19T10:38:40Z</time>
      </trkpt>
      <trkpt lat="45.85692" lon="4.70285">
        <ele>197</ele>
        <time>2018-07-19T10:38:41Z</time>
      </trkpt>
      <trkpt lat="45.85693" lon="4.70293">
        <ele>197</ele>
        <time>2018-07-19T10:38:42Z</time>
      </trkpt>
      <trkpt lat="45.85693" lon="4.70301">
        <ele>197</ele>
        <time>2018-07-19T10:38:43Z</time>
      </trkpt>
      <trkpt lat="45.85693" lon="4.70309">
        <ele>197</ele>
        <time>2018-07-19T10:38:44Z</time>
      </trkpt>
      <trkpt lat="45.85696" lon="4.70317">
        <ele>197</ele>
        <time>2018-07-19T10:38:45Z</time>
      </trkpt>
      <trkpt lat="45.85697" lon="4.70326">
        <ele>197</ele>
        <time>2018-07-19T10:38:46Z</time>
      </trkpt>
      <trkpt lat="45.85698" lon="4.70336">
        <ele>196</ele>
        <time>2018-07-19T10:38:47Z</time>
      </trkpt>
      <trkpt lat="45.857" lon="4.70344">
        <ele>196</ele>
        <time>2018-07-19T10:38:48Z</time>
      </trkpt>
      <trkpt lat="45.857" lon="4.70353">
        <ele>196</ele>
        <time>2018-07-19T10:38:49Z</time>
      </trkpt>
      <trkpt lat="45.85701" lon="4.70361">
        <ele>196</ele>
        <time>2018-07-19T10:38:50Z</time>
      </trkpt>
      <trkpt lat="45.85702" lon="4.70369">
        <ele>196</ele>
        <time>2018-07-19T10:38:51Z</time>
      </trkpt>
      <trkpt lat="45.85703" lon="4.7038">
        <ele>196</ele>
        <time>2018-07-19T10:38:52Z</time>
      </trkpt>
      <trkpt lat="45.85703" lon="4.70389">
        <ele>196</ele>
        <time>2018-07-19T10:38:53Z</time>
      </trkpt>
      <trkpt lat="45.85705" lon="4.70396">
        <ele>196</ele>
        <time>2018-07-19T10:38:54Z</time>
      </trkpt>
      <trkpt lat="45.85707" lon="4.70408">
        <ele>196</ele>
        <time>2018-07-19T10:38:55Z</time>
      </trkpt>
      <trkpt lat="45.85708" lon="4.70417">
        <ele>196</ele>
        <time>2018-07-19T10:38:56Z</time>
      </trkpt>
      <trkpt lat="45.8571" lon="4.70426">
        <ele>196</ele>
        <time>2018-07-19T10:38:57Z</time>
      </trkpt>
      <trkpt lat="45.85711" lon="4.70435">
        <ele>196</ele>
        <time>2018-07-19T10:38:58Z</time>
      </trkpt>
      <trkpt lat="45.85713" lon="4.70442">
        <ele>196</ele>
        <time>2018-07-19T10:38:59Z</time>
      </trkpt>
      <trkpt lat="45.85716" lon="4.70451">
        <ele>196</ele>
        <time>2018-07-19T10:39:00Z</time>
      </trkpt>
      <trkpt lat="45.85717" lon="4.70458">
        <ele>196</ele>
        <time>2018-07-19T10:39:01Z</time>
      </trkpt>
      <trkpt lat="45.85719" lon="4.70465">
        <ele>196</ele>
        <time>2018-07-19T10:39:02Z</time>
      </trkpt>
      <trkpt lat="45.85717" lon="4.70472">
        <ele>196</ele>
        <time>2018-07-19T10:39:03Z</time>
      </trkpt>
      <trkpt lat="45.85716" lon="4.70479">
        <ele>196</ele>
        <time>2018-07-19T10:39:04Z</time>
      </trkpt>
      <trkpt lat="45.85711" lon="4.70488">
        <ele>196</ele>
        <time>2018-07-19T10:39:06Z</time>
      </trkpt>
      <trkpt lat="45.85708" lon="4.70496">
        <ele>196</ele>
        <time>2018-07-19T10:39:07Z</time>
      </trkpt>
      <trkpt lat="45.85707" lon="4.70502">
        <ele>197</ele>
        <time>2018-07-19T10:39:08Z</time>
      </trkpt>
      <trkpt lat="45.8571" lon="4.70511">
        <ele>196</ele>
        <time>2018-07-19T10:39:09Z</time>
      </trkpt>
      <trkpt lat="45.85715" lon="4.7052">
        <ele>196</ele>
        <time>2018-07-19T10:39:11Z</time>
      </trkpt>
      <trkpt lat="45.85724" lon="4.70519">
        <ele>196</ele>
        <time>2018-07-19T10:39:12Z</time>
      </trkpt>
      <trkpt lat="45.85729" lon="4.70518">
        <ele>196</ele>
        <time>2018-07-19T10:39:13Z</time>
      </trkpt>
      <trkpt lat="45.85736" lon="4.70515">
        <ele>196</ele>
        <time>2018-07-19T10:39:14Z</time>
      </trkpt>
      <trkpt lat="45.85741" lon="4.70512">
        <ele>196</ele>
        <time>2018-07-19T10:39:15Z</time>
      </trkpt>
      <trkpt lat="45.85747" lon="4.70512">
        <ele>196</ele>
        <time>2018-07-19T10:39:16Z</time>
      </trkpt>
      <trkpt lat="45.85753" lon="4.70512">
        <ele>196</ele>
        <time>2018-07-19T10:39:17Z</time>
      </trkpt>
      <trkpt lat="45.85758" lon="4.70514">
        <ele>196</ele>
        <time>2018-07-19T10:39:18Z</time>
      </trkpt>
      <trkpt lat="45.85763" lon="4.70518">
        <ele>196</ele>
        <time>2018-07-19T10:39:19Z</time>
      </trkpt>
      <trkpt lat="45.85768" lon="4.70521">
        <ele>196</ele>
        <time>2018-07-19T10:39:20Z</time>
      </trkpt>
      <trkpt lat="45.85773" lon="4.70525">
        <ele>196</ele>
        <time>2018-07-19T10:39:21Z</time>
      </trkpt>
      <trkpt lat="45.85779" lon="4.70529">
        <ele>196</ele>
        <time>2018-07-19T10:39:22Z</time>
      </trkpt>
      <trkpt lat="45.85783" lon="4.70534">
        <ele>196</ele>
        <time>2018-07-19T10:39:23Z</time>
      </trkpt>
      <trkpt lat="45.85789" lon="4.70537">
        <ele>196</ele>
        <time>2018-07-19T10:39:24Z</time>
      </trkpt>
      <trkpt lat="45.85794" lon="4.70541">
        <ele>195</ele>
        <time>2018-07-19T10:39:25Z</time>
      </trkpt>
      <trkpt lat="45.85798" lon="4.70545">
        <ele>195</ele>
        <time>2018-07-19T10:39:26Z</time>
      </trkpt>
      <trkpt lat="45.85803" lon="4.70549">
        <ele>195</ele>
        <time>2018-07-19T10:39:27Z</time>
      </trkpt>
      <trkpt lat="45.85808" lon="4.70551">
        <ele>195</ele>
        <time>2018-07-19T10:39:28Z</time>
      </trkpt>
      <trkpt lat="45.85813" lon="4.70552">
        <ele>195</ele>
        <time>2018-07-19T10:39:29Z</time>
      </trkpt>
      <trkpt lat="45.85819" lon="4.70553">
        <ele>195</ele>
        <time>2018-07-19T10:39:30Z</time>
      </trkpt>
      <trkpt lat="45.85824" lon="4.70555">
        <ele>195</ele>
        <time>2018-07-19T10:39:31Z</time>
      </trkpt>
      <trkpt lat="45.8583" lon="4.70557">
        <ele>195</ele>
        <time>2018-07-19T10:39:32Z</time>
      </trkpt>
      <trkpt lat="45.85834" lon="4.7056">
        <ele>195</ele>
        <time>2018-07-19T10:39:33Z</time>
      </trkpt>
      <trkpt lat="45.85838" lon="4.70564">
        <ele>195</ele>
        <time>2018-07-19T10:39:34Z</time>
      </trkpt>
      <trkpt lat="45.85843" lon="4.70567">
        <ele>195</ele>
        <time>2018-07-19T10:39:35Z</time>
      </trkpt>
      <trkpt lat="45.85848" lon="4.7057">
        <ele>195</ele>
        <time>2018-07-19T10:39:36Z</time>
      </trkpt>
      <trkpt lat="45.85855" lon="4.70571">
        <ele>195</ele>
        <time>2018-07-19T10:39:37Z</time>
      </trkpt>
      <trkpt lat="45.8586" lon="4.70572">
        <ele>195</ele>
        <time>2018-07-19T10:39:38Z</time>
      </trkpt>
      <trkpt lat="45.85866" lon="4.70574">
        <ele>195</ele>
        <time>2018-07-19T10:39:39Z</time>
      </trkpt>
      <trkpt lat="45.85872" lon="4.70576">
        <ele>195</ele>
        <time>2018-07-19T10:39:40Z</time>
      </trkpt>
      <trkpt lat="45.85879" lon="4.70576">
        <ele>195</ele>
        <time>2018-07-19T10:39:41Z</time>
      </trkpt>
      <trkpt lat="45.85884" lon="4.70578">
        <ele>195</ele>
        <time>2018-07-19T10:39:42Z</time>
      </trkpt>
      <trkpt lat="45.8589" lon="4.70579">
        <ele>195</ele>
        <time>2018-07-19T10:39:43Z</time>
      </trkpt>
      <trkpt lat="45.85895" lon="4.70581">
        <ele>195</ele>
        <time>2018-07-19T10:39:44Z</time>
      </trkpt>
      <trkpt lat="45.859" lon="4.70583">
        <ele>195</ele>
        <time>2018-07-19T10:39:45Z</time>
      </trkpt>
      <trkpt lat="45.85905" lon="4.70587">
        <ele>195</ele>
        <time>2018-07-19T10:39:46Z</time>
      </trkpt>
      <trkpt lat="45.85909" lon="4.70591">
        <ele>195</ele>
        <time>2018-07-19T10:39:47Z</time>
      </trkpt>
      <trkpt lat="45.85913" lon="4.70597">
        <ele>195</ele>
        <time>2018-07-19T10:39:48Z</time>
      </trkpt>
      <trkpt lat="45.85916" lon="4.70604">
        <ele>195</ele>
        <time>2018-07-19T10:39:49Z</time>
      </trkpt>
      <trkpt lat="45.85918" lon="4.7061">
        <ele>194</ele>
        <time>2018-07-19T10:39:50Z</time>
      </trkpt>
      <trkpt lat="45.85924" lon="4.70615">
        <ele>194</ele>
        <time>2018-07-19T10:39:51Z</time>
      </trkpt>
      <trkpt lat="45.85926" lon="4.70623">
        <ele>194</ele>
        <time>2018-07-19T10:39:52Z</time>
      </trkpt>
      <trkpt lat="45.85931" lon="4.70629">
        <ele>194</ele>
        <time>2018-07-19T10:39:53Z</time>
      </trkpt>
      <trkpt lat="45.85936" lon="4.70636">
        <ele>194</ele>
        <time>2018-07-19T10:39:54Z</time>
      </trkpt>
      <trkpt lat="45.85939" lon="4.70641">
        <ele>194</ele>
        <time>2018-07-19T10:39:55Z</time>
      </trkpt>
      <trkpt lat="45.85942" lon="4.70648">
        <ele>194</ele>
        <time>2018-07-19T10:39:56Z</time>
      </trkpt>
      <trkpt lat="45.85945" lon="4.70655">
        <ele>194</ele>
        <time>2018-07-19T10:39:57Z</time>
      </trkpt>
      <trkpt lat="45.85948" lon="4.7066">
        <ele>194</ele>
        <time>2018-07-19T10:39:58Z</time>
      </trkpt>
      <trkpt lat="45.85953" lon="4.70667">
        <ele>194</ele>
        <time>2018-07-19T10:39:59Z</time>
      </trkpt>
      <trkpt lat="45.85956" lon="4.70672">
        <ele>194</ele>
        <time>2018-07-19T10:40:00Z</time>
      </trkpt>
      <trkpt lat="45.85959" lon="4.70679">
        <ele>194</ele>
        <time>2018-07-19T10:40:01Z</time>
      </trkpt>
      <trkpt lat="45.85958" lon="4.70686">
        <ele>194</ele>
        <time>2018-07-19T10:40:02Z</time>
      </trkpt>
      <trkpt lat="45.85959" lon="4.70694">
        <ele>194</ele>
        <time>2018-07-19T10:40:03Z</time>
      </trkpt>
      <trkpt lat="45.85958" lon="4.70701">
        <ele>194</ele>
        <time>2018-07-19T10:40:04Z</time>
      </trkpt>
      <trkpt lat="45.8596" lon="4.70707">
        <ele>194</ele>
        <time>2018-07-19T10:40:05Z</time>
      </trkpt>
      <trkpt lat="45.85959" lon="4.70714">
        <ele>194</ele>
        <time>2018-07-19T10:40:06Z</time>
      </trkpt>
      <trkpt lat="45.85959" lon="4.7072">
        <ele>194</ele>
        <time>2018-07-19T10:40:07Z</time>
      </trkpt>
      <trkpt lat="45.85958" lon="4.70729">
        <ele>194</ele>
        <time>2018-07-19T10:40:08Z</time>
      </trkpt>
      <trkpt lat="45.85957" lon="4.70738">
        <ele>194</ele>
        <time>2018-07-19T10:40:09Z</time>
      </trkpt>
      <trkpt lat="45.85955" lon="4.70745">
        <ele>194</ele>
        <time>2018-07-19T10:40:10Z</time>
      </trkpt>
      <trkpt lat="45.85954" lon="4.70752">
        <ele>195</ele>
        <time>2018-07-19T10:40:11Z</time>
      </trkpt>
      <trkpt lat="45.85954" lon="4.7076">
        <ele>195</ele>
        <time>2018-07-19T10:40:12Z</time>
      </trkpt>
      <trkpt lat="45.85952" lon="4.70769">
        <ele>195</ele>
        <time>2018-07-19T10:40:14Z</time>
      </trkpt>
      <trkpt lat="45.85952" lon="4.70775">
        <ele>195</ele>
        <time>2018-07-19T10:40:15Z</time>
      </trkpt>
      <trkpt lat="45.85952" lon="4.70787">
        <ele>195</ele>
        <time>2018-07-19T10:40:17Z</time>
      </trkpt>
      <trkpt lat="45.85952" lon="4.70793">
        <ele>195</ele>
        <time>2018-07-19T10:40:18Z</time>
      </trkpt>
      <trkpt lat="45.85951" lon="4.70798">
        <ele>195</ele>
        <time>2018-07-19T10:40:19Z</time>
      </trkpt>
      <trkpt lat="45.85953" lon="4.70807">
        <ele>195</ele>
        <time>2018-07-19T10:40:20Z</time>
      </trkpt>
      <trkpt lat="45.85951" lon="4.70815">
        <ele>195</ele>
        <time>2018-07-19T10:40:21Z</time>
      </trkpt>
      <trkpt lat="45.8595" lon="4.70821">
        <ele>195</ele>
        <time>2018-07-19T10:40:22Z</time>
      </trkpt>
      <trkpt lat="45.85949" lon="4.70831">
        <ele>196</ele>
        <time>2018-07-19T10:40:24Z</time>
      </trkpt>
      <trkpt lat="45.85948" lon="4.70841">
        <ele>196</ele>
        <time>2018-07-19T10:40:25Z</time>
      </trkpt>
      <trkpt lat="45.85947" lon="4.70852">
        <ele>196</ele>
        <time>2018-07-19T10:40:27Z</time>
      </trkpt>
      <trkpt lat="45.85949" lon="4.70859">
        <ele>196</ele>
        <time>2018-07-19T10:40:28Z</time>
      </trkpt>
      <trkpt lat="45.85948" lon="4.70872">
        <ele>196</ele>
        <time>2018-07-19T10:40:30Z</time>
      </trkpt>
      <trkpt lat="45.85947" lon="4.70879">
        <ele>197</ele>
        <time>2018-07-19T10:40:31Z</time>
      </trkpt>
      <trkpt lat="45.85945" lon="4.70887">
        <ele>197</ele>
        <time>2018-07-19T10:40:32Z</time>
      </trkpt>
      <trkpt lat="45.85944" lon="4.70893">
        <ele>197</ele>
        <time>2018-07-19T10:40:33Z</time>
      </trkpt>
      <trkpt lat="45.85942" lon="4.70901">
        <ele>197</ele>
        <time>2018-07-19T10:40:34Z</time>
      </trkpt>
      <trkpt lat="45.85941" lon="4.70909">
        <ele>197</ele>
        <time>2018-07-19T10:40:35Z</time>
      </trkpt>
      <trkpt lat="45.85938" lon="4.7092">
        <ele>197</ele>
        <time>2018-07-19T10:40:37Z</time>
      </trkpt>
      <trkpt lat="45.85936" lon="4.70924">
        <ele>197</ele>
        <time>2018-07-19T10:40:38Z</time>
      </trkpt>
      <trkpt lat="45.85935" lon="4.70936">
        <ele>197</ele>
        <time>2018-07-19T10:40:40Z</time>
      </trkpt>
      <trkpt lat="45.85934" lon="4.70938">
        <ele>197</ele>
        <time>2018-07-19T10:40:41Z</time>
      </trkpt>
      <trkpt lat="45.85932" lon="4.70951">
        <ele>197</ele>
        <time>2018-07-19T10:40:44Z</time>
      </trkpt>
      <trkpt lat="45.85934" lon="4.70961">
        <ele>197</ele>
        <time>2018-07-19T10:40:45Z</time>
      </trkpt>
      <trkpt lat="45.8594" lon="4.70965">
        <ele>197</ele>
        <time>2018-07-19T10:40:46Z</time>
      </trkpt>
      <trkpt lat="45.85944" lon="4.70967">
        <ele>197</ele>
        <time>2018-07-19T10:40:47Z</time>
      </trkpt>
      <trkpt lat="45.85952" lon="4.70967">
        <ele>197</ele>
        <time>2018-07-19T10:40:48Z</time>
      </trkpt>
      <trkpt lat="45.85957" lon="4.70967">
        <ele>197</ele>
        <time>2018-07-19T10:40:49Z</time>
      </trkpt>
      <trkpt lat="45.85962" lon="4.70968">
        <ele>197</ele>
        <time>2018-07-19T10:40:50Z</time>
      </trkpt>
      <trkpt lat="45.85967" lon="4.70969">
        <ele>197</ele>
        <time>2018-07-19T10:40:51Z</time>
      </trkpt>
      <trkpt lat="45.85973" lon="4.70971">
        <ele>197</ele>
        <time>2018-07-19T10:40:52Z</time>
      </trkpt>
      <trkpt lat="45.85977" lon="4.70973">
        <ele>197</ele>
        <time>2018-07-19T10:40:53Z</time>
      </trkpt>
      <trkpt lat="45.85981" lon="4.70976">
        <ele>197</ele>
        <time>2018-07-19T10:40:54Z</time>
      </trkpt>
      <trkpt lat="45.85986" lon="4.70978">
        <ele>197</ele>
        <time>2018-07-19T10:40:55Z</time>
      </trkpt>
      <trkpt lat="45.85992" lon="4.70982">
        <ele>197</ele>
        <time>2018-07-19T10:40:56Z</time>
      </trkpt>
      <trkpt lat="45.85997" lon="4.70985">
        <ele>197</ele>
        <time>2018-07-19T10:40:57Z</time>
      </trkpt>
      <trkpt lat="45.86001" lon="4.70988">
        <ele>197</ele>
        <time>2018-07-19T10:40:58Z</time>
      </trkpt>
      <trkpt lat="45.86005" lon="4.70992">
        <ele>197</ele>
        <time>2018-07-19T10:40:59Z</time>
      </trkpt>
      <trkpt lat="45.86009" lon="4.70997">
        <ele>197</ele>
        <time>2018-07-19T10:41:00Z</time>
      </trkpt>
      <trkpt lat="45.86014" lon="4.71001">
        <ele>197</ele>
        <time>2018-07-19T10:41:01Z</time>
      </trkpt>
      <trkpt lat="45.86019" lon="4.71006">
        <ele>197</ele>
        <time>2018-07-19T10:41:02Z</time>
      </trkpt>
      <trkpt lat="45.86023" lon="4.71012">
        <ele>197</ele>
        <time>2018-07-19T10:41:03Z</time>
      </trkpt>
      <trkpt lat="45.86026" lon="4.71016">
        <ele>197</ele>
        <time>2018-07-19T10:41:04Z</time>
      </trkpt>
      <trkpt lat="45.86028" lon="4.71022">
        <ele>197</ele>
        <time>2018-07-19T10:41:05Z</time>
      </trkpt>
      <trkpt lat="45.8603" lon="4.71029">
        <ele>197</ele>
        <time>2018-07-19T10:41:06Z</time>
      </trkpt>
      <trkpt lat="45.86032" lon="4.71036">
        <ele>197</ele>
        <time>2018-07-19T10:41:07Z</time>
      </trkpt>
      <trkpt lat="45.86034" lon="4.71044">
        <ele>197</ele>
        <time>2018-07-19T10:41:08Z</time>
      </trkpt>
      <trkpt lat="45.86033" lon="4.7105">
        <ele>197</ele>
        <time>2018-07-19T10:41:09Z</time>
      </trkpt>
      <trkpt lat="45.86035" lon="4.71058">
        <ele>197</ele>
        <time>2018-07-19T10:41:10Z</time>
      </trkpt>
      <trkpt lat="45.86037" lon="4.71066">
        <ele>197</ele>
        <time>2018-07-19T10:41:11Z</time>
      </trkpt>
      <trkpt lat="45.86039" lon="4.71078">
        <ele>197</ele>
        <time>2018-07-19T10:41:13Z</time>
      </trkpt>
      <trkpt lat="45.8604" lon="4.71084">
        <ele>197</ele>
        <time>2018-07-19T10:41:14Z</time>
      </trkpt>
      <trkpt lat="45.8604" lon="4.7109">
        <ele>197</ele>
        <time>2018-07-19T10:41:15Z</time>
      </trkpt>
      <trkpt lat="45.86044" lon="4.71097">
        <ele>197</ele>
        <time>2018-07-19T10:41:16Z</time>
      </trkpt>
      <trkpt lat="45.86047" lon="4.71109">
        <ele>197</ele>
        <time>2018-07-19T10:41:18Z</time>
      </trkpt>
      <trkpt lat="45.86052" lon="4.71113">
        <ele>197</ele>
        <time>2018-07-19T10:41:19Z</time>
      </trkpt>
      <trkpt lat="45.86056" lon="4.71119">
        <ele>197</ele>
        <time>2018-07-19T10:41:20Z</time>
      </trkpt>
      <trkpt lat="45.8606" lon="4.71124">
        <ele>197</ele>
        <time>2018-07-19T10:41:21Z</time>
      </trkpt>
      <trkpt lat="45.86065" lon="4.71127">
        <ele>197</ele>
        <time>2018-07-19T10:41:22Z</time>
      </trkpt>
      <trkpt lat="45.8607" lon="4.71131">
        <ele>197</ele>
        <time>2018-07-19T10:41:23Z</time>
      </trkpt>
      <trkpt lat="45.86075" lon="4.71134">
        <ele>197</ele>
        <time>2018-07-19T10:41:24Z</time>
      </trkpt>
      <trkpt lat="45.8608" lon="4.71138">
        <ele>197</ele>
        <time>2018-07-19T10:41:25Z</time>
      </trkpt>
      <trkpt lat="45.86084" lon="4.71143">
        <ele>197</ele>
        <time>2018-07-19T10:41:26Z</time>
      </trkpt>
      <trkpt lat="45.86088" lon="4.71147">
        <ele>197</ele>
        <time>2018-07-19T10:41:27Z</time>
      </trkpt>
      <trkpt lat="45.86088" lon="4.71159">
        <ele>197</ele>
        <time>2018-07-19T10:41:29Z</time>
      </trkpt>
      <trkpt lat="45.8609" lon="4.71164">
        <ele>197</ele>
        <time>2018-07-19T10:41:30Z</time>
      </trkpt>
      <trkpt lat="45.8609" lon="4.71174">
        <ele>198</ele>
        <time>2018-07-19T10:41:32Z</time>
      </trkpt>
      <trkpt lat="45.8609" lon="4.71179">
        <ele>197</ele>
        <time>2018-07-19T10:41:33Z</time>
      </trkpt>
      <trkpt lat="45.8609" lon="4.71187">
        <ele>197</ele>
        <time>2018-07-19T10:41:34Z</time>
      </trkpt>
      <trkpt lat="45.86085" lon="4.7119">
        <ele>197</ele>
        <time>2018-07-19T10:41:35Z</time>
      </trkpt>
      <trkpt lat="45.86084" lon="4.71198">
        <ele>197</ele>
        <time>2018-07-19T10:41:36Z</time>
      </trkpt>
      <trkpt lat="45.86083" lon="4.71205">
        <ele>198</ele>
        <time>2018-07-19T10:41:37Z</time>
      </trkpt>
      <trkpt lat="45.86082" lon="4.71212">
        <ele>198</ele>
        <time>2018-07-19T10:41:38Z</time>
      </trkpt>
      <trkpt lat="45.86079" lon="4.7122">
        <ele>198</ele>
        <time>2018-07-19T10:41:39Z</time>
      </trkpt>
      <trkpt lat="45.8608" lon="4.71224">
        <ele>198</ele>
        <time>2018-07-19T10:41:40Z</time>
      </trkpt>
      <trkpt lat="45.86076" lon="4.71235">
        <ele>198</ele>
        <time>2018-07-19T10:41:41Z</time>
      </trkpt>
      <trkpt lat="45.8608" lon="4.71244">
        <ele>198</ele>
        <time>2018-07-19T10:41:42Z</time>
      </trkpt>
      <trkpt lat="45.86082" lon="4.71254">
        <ele>198</ele>
        <time>2018-07-19T10:41:43Z</time>
      </trkpt>
      <trkpt lat="45.86087" lon="4.71263">
        <ele>197</ele>
        <time>2018-07-19T10:41:46Z</time>
      </trkpt>
      <trkpt lat="45.86089" lon="4.71269">
        <ele>197</ele>
        <time>2018-07-19T10:41:47Z</time>
      </trkpt>
      <trkpt lat="45.86092" lon="4.71276">
        <ele>197</ele>
        <time>2018-07-19T10:41:48Z</time>
      </trkpt>
      <trkpt lat="45.86094" lon="4.71285">
        <ele>197</ele>
        <time>2018-07-19T10:41:49Z</time>
      </trkpt>
      <trkpt lat="45.86097" lon="4.71292">
        <ele>197</ele>
        <time>2018-07-19T10:41:50Z</time>
      </trkpt>
      <trkpt lat="45.86099" lon="4.71302">
        <ele>197</ele>
        <time>2018-07-19T10:41:51Z</time>
      </trkpt>
      <trkpt lat="45.861" lon="4.71308">
        <ele>197</ele>
        <time>2018-07-19T10:41:52Z</time>
      </trkpt>
      <trkpt lat="45.86102" lon="4.71314">
        <ele>197</ele>
        <time>2018-07-19T10:41:53Z</time>
      </trkpt>
      <trkpt lat="45.86106" lon="4.71321">
        <ele>196</ele>
        <time>2018-07-19T10:41:54Z</time>
      </trkpt>
      <trkpt lat="45.86109" lon="4.71328">
        <ele>196</ele>
        <time>2018-07-19T10:41:55Z</time>
      </trkpt>
      <trkpt lat="45.86111" lon="4.71335">
        <ele>196</ele>
        <time>2018-07-19T10:41:56Z</time>
      </trkpt>
      <trkpt lat="45.8611" lon="4.71342">
        <ele>196</ele>
        <time>2018-07-19T10:41:57Z</time>
      </trkpt>
      <trkpt lat="45.8611" lon="4.71349">
        <ele>196</ele>
        <time>2018-07-19T10:41:58Z</time>
      </trkpt>
      <trkpt lat="45.86111" lon="4.71355">
        <ele>196</ele>
        <time>2018-07-19T10:41:59Z</time>
      </trkpt>
      <trkpt lat="45.86112" lon="4.71366">
        <ele>196</ele>
        <time>2018-07-19T10:42:01Z</time>
      </trkpt>
      <trkpt lat="45.86113" lon="4.71372">
        <ele>196</ele>
        <time>2018-07-19T10:42:02Z</time>
      </trkpt>
      <trkpt lat="45.86115" lon="4.71379">
        <ele>196</ele>
        <time>2018-07-19T10:42:03Z</time>
      </trkpt>
      <trkpt lat="45.86115" lon="4.71385">
        <ele>196</ele>
        <time>2018-07-19T10:42:04Z</time>
      </trkpt>
      <trkpt lat="45.86115" lon="4.71392">
        <ele>196</ele>
        <time>2018-07-19T10:42:05Z</time>
      </trkpt>
      <trkpt lat="45.86115" lon="4.714">
        <ele>196</ele>
        <time>2018-07-19T10:42:06Z</time>
      </trkpt>
      <trkpt lat="45.86116" lon="4.71408">
        <ele>196</ele>
        <time>2018-07-19T10:42:07Z</time>
      </trkpt>
      <trkpt lat="45.86116" lon="4.71415">
        <ele>196</ele>
        <time>2018-07-19T10:42:08Z</time>
      </trkpt>
      <trkpt lat="45.86116" lon="4.71423">
        <ele>195</ele>
        <time>2018-07-19T10:42:09Z</time>
      </trkpt>
      <trkpt lat="45.86118" lon="4.71429">
        <ele>195</ele>
        <time>2018-07-19T10:42:10Z</time>
      </trkpt>
      <trkpt lat="45.86119" lon="4.71436">
        <ele>195</ele>
        <time>2018-07-19T10:42:11Z</time>
      </trkpt>
      <trkpt lat="45.8612" lon="4.71444">
        <ele>195</ele>
        <time>2018-07-19T10:42:12Z</time>
      </trkpt>
      <trkpt lat="45.86125" lon="4.71453">
        <ele>195</ele>
        <time>2018-07-19T10:42:13Z</time>
      </trkpt>
      <trkpt lat="45.86127" lon="4.7146">
        <ele>195</ele>
        <time>2018-07-19T10:42:14Z</time>
      </trkpt>
      <trkpt lat="45.8613" lon="4.71468">
        <ele>195</ele>
        <time>2018-07-19T10:42:15Z</time>
      </trkpt>
      <trkpt lat="45.86133" lon="4.71476">
        <ele>195</ele>
        <time>2018-07-19T10:42:16Z</time>
      </trkpt>
      <trkpt lat="45.86134" lon="4.71482">
        <ele>195</ele>
        <time>2018-07-19T10:42:17Z</time>
      </trkpt>
      <trkpt lat="45.86137" lon="4.71489">
        <ele>195</ele>
        <time>2018-07-19T10:42:18Z</time>
      </trkpt>
      <trkpt lat="45.86138" lon="4.71496">
        <ele>195</ele>
        <time>2018-07-19T10:42:19Z</time>
      </trkpt>
      <trkpt lat="45.86141" lon="4.71503">
        <ele>195</ele>
        <time>2018-07-19T10:42:20Z</time>
      </trkpt>
      <trkpt lat="45.86143" lon="4.7151">
        <ele>195</ele>
        <time>2018-07-19T10:42:21Z</time>
      </trkpt>
      <trkpt lat="45.86147" lon="4.71516">
        <ele>195</ele>
        <time>2018-07-19T10:42:22Z</time>
      </trkpt>
      <trkpt lat="45.86151" lon="4.7152">
        <ele>195</ele>
        <time>2018-07-19T10:42:23Z</time>
      </trkpt>
      <trkpt lat="45.86154" lon="4.71526">
        <ele>195</ele>
        <time>2018-07-19T10:42:24Z</time>
      </trkpt>
      <trkpt lat="45.86157" lon="4.71531">
        <ele>195</ele>
        <time>2018-07-19T10:42:25Z</time>
      </trkpt>
      <trkpt lat="45.86161" lon="4.71536">
        <ele>195</ele>
        <time>2018-07-19T10:42:26Z</time>
      </trkpt>
      <trkpt lat="45.86167" lon="4.71541">
        <ele>195</ele>
        <time>2018-07-19T10:42:27Z</time>
      </trkpt>
      <trkpt lat="45.8617" lon="4.71548">
        <ele>195</ele>
        <time>2018-07-19T10:42:28Z</time>
      </trkpt>
      <trkpt lat="45.86173" lon="4.71553">
        <ele>195</ele>
        <time>2018-07-19T10:42:29Z</time>
      </trkpt>
      <trkpt lat="45.86176" lon="4.71559">
        <ele>195</ele>
        <time>2018-07-19T10:42:30Z</time>
      </trkpt>
      <trkpt lat="45.86181" lon="4.71564">
        <ele>195</ele>
        <time>2018-07-19T10:42:31Z</time>
      </trkpt>
      <trkpt lat="45.86183" lon="4.71571">
        <ele>195</ele>
        <time>2018-07-19T10:42:32Z</time>
      </trkpt>
      <trkpt lat="45.86185" lon="4.71577">
        <ele>195</ele>
        <time>2018-07-19T10:42:33Z</time>
      </trkpt>
      <trkpt lat="45.86187" lon="4.71583">
        <ele>195</ele>
        <time>2018-07-19T10:42:34Z</time>
      </trkpt>
      <trkpt lat="45.86184" lon="4.7159">
        <ele>196</ele>
        <time>2018-07-19T10:42:36Z</time>
      </trkpt>
      <trkpt lat="45.86181" lon="4.716">
        <ele>196</ele>
        <time>2018-07-19T10:42:37Z</time>
      </trkpt>
      <trkpt lat="45.86179" lon="4.71608">
        <ele>196</ele>
        <time>2018-07-19T10:42:38Z</time>
      </trkpt>
      <trkpt lat="45.86179" lon="4.71617">
        <ele>195</ele>
        <time>2018-07-19T10:42:39Z</time>
      </trkpt>
      <trkpt lat="45.86181" lon="4.71625">
        <ele>195</ele>
        <time>2018-07-19T10:42:40Z</time>
      </trkpt>
      <trkpt lat="45.86185" lon="4.71629">
        <ele>195</ele>
        <time>2018-07-19T10:42:41Z</time>
      </trkpt>
      <trkpt lat="45.86191" lon="4.71634">
        <ele>195</ele>
        <time>2018-07-19T10:42:42Z</time>
      </trkpt>
      <trkpt lat="45.86196" lon="4.71638">
        <ele>195</ele>
        <time>2018-07-19T10:42:43Z</time>
      </trkpt>
      <trkpt lat="45.86201" lon="4.71642">
        <ele>195</ele>
        <time>2018-07-19T10:42:44Z</time>
      </trkpt>
      <trkpt lat="45.86207" lon="4.71641">
        <ele>195</ele>
        <time>2018-07-19T10:42:45Z</time>
      </trkpt>
      <trkpt lat="45.86213" lon="4.71644">
        <ele>195</ele>
        <time>2018-07-19T10:42:46Z</time>
      </trkpt>
      <trkpt lat="45.8622" lon="4.7165">
        <ele>195</ele>
        <time>2018-07-19T10:42:47Z</time>
      </trkpt>
      <trkpt lat="45.86226" lon="4.71655">
        <ele>195</ele>
        <time>2018-07-19T10:42:48Z</time>
      </trkpt>
      <trkpt lat="45.86232" lon="4.71659">
        <ele>195</ele>
        <time>2018-07-19T10:42:49Z</time>
      </trkpt>
      <trkpt lat="45.86237" lon="4.71663">
        <ele>195</ele>
        <time>2018-07-19T10:42:50Z</time>
      </trkpt>
      <trkpt lat="45.86243" lon="4.71668">
        <ele>195</ele>
        <time>2018-07-19T10:42:51Z</time>
      </trkpt>
      <trkpt lat="45.86247" lon="4.71675">
        <ele>196</ele>
        <time>2018-07-19T10:42:52Z</time>
      </trkpt>
      <trkpt lat="45.86254" lon="4.7168">
        <ele>195</ele>
        <time>2018-07-19T10:42:53Z</time>
      </trkpt>
      <trkpt lat="45.86259" lon="4.71685">
        <ele>195</ele>
        <time>2018-07-19T10:42:54Z</time>
      </trkpt>
      <trkpt lat="45.86267" lon="4.71687">
        <ele>195</ele>
        <time>2018-07-19T10:42:55Z</time>
      </trkpt>
      <trkpt lat="45.86273" lon="4.71692">
        <ele>195</ele>
        <time>2018-07-19T10:42:56Z</time>
      </trkpt>
      <trkpt lat="45.86278" lon="4.71698">
        <ele>195</ele>
        <time>2018-07-19T10:42:57Z</time>
      </trkpt>
      <trkpt lat="45.86286" lon="4.717">
        <ele>195</ele>
        <time>2018-07-19T10:42:58Z</time>
      </trkpt>
      <trkpt lat="45.86292" lon="4.71706">
        <ele>195</ele>
        <time>2018-07-19T10:42:59Z</time>
      </trkpt>
      <trkpt lat="45.86297" lon="4.71711">
        <ele>196</ele>
        <time>2018-07-19T10:43:00Z</time>
      </trkpt>
      <trkpt lat="45.86303" lon="4.71715">
        <ele>196</ele>
        <time>2018-07-19T10:43:01Z</time>
      </trkpt>
      <trkpt lat="45.86307" lon="4.71719">
        <ele>196</ele>
        <time>2018-07-19T10:43:02Z</time>
      </trkpt>
      <trkpt lat="45.86314" lon="4.71725">
        <ele>196</ele>
        <time>2018-07-19T10:43:03Z</time>
      </trkpt>
      <trkpt lat="45.86321" lon="4.71728">
        <ele>196</ele>
        <time>2018-07-19T10:43:04Z</time>
      </trkpt>
      <trkpt lat="45.86327" lon="4.71731">
        <ele>196</ele>
        <time>2018-07-19T10:43:05Z</time>
      </trkpt>
      <trkpt lat="45.86331" lon="4.71738">
        <ele>196</ele>
        <time>2018-07-19T10:43:06Z</time>
      </trkpt>
      <trkpt lat="45.86335" lon="4.71745">
        <ele>195</ele>
        <time>2018-07-19T10:43:07Z</time>
      </trkpt>
      <trkpt lat="45.8634" lon="4.71749">
        <ele>195</ele>
        <time>2018-07-19T10:43:08Z</time>
      </trkpt>
      <trkpt lat="45.86344" lon="4.71755">
        <ele>197</ele>
        <time>2018-07-19T10:43:09Z</time>
      </trkpt>
      <trkpt lat="45.86349" lon="4.71758">
        <ele>197</ele>
        <time>2018-07-19T10:43:10Z</time>
      </trkpt>
      <trkpt lat="45.86353" lon="4.71764">
        <ele>198</ele>
        <time>2018-07-19T10:43:11Z</time>
      </trkpt>
      <trkpt lat="45.86358" lon="4.71769">
        <ele>198</ele>
        <time>2018-07-19T10:43:12Z</time>
      </trkpt>
      <trkpt lat="45.86364" lon="4.71772">
        <ele>198</ele>
        <time>2018-07-19T10:43:13Z</time>
      </trkpt>
      <trkpt lat="45.86371" lon="4.71775">
        <ele>198</ele>
        <time>2018-07-19T10:43:14Z</time>
      </trkpt>
      <trkpt lat="45.86375" lon="4.71783">
        <ele>199</ele>
        <time>2018-07-19T10:43:15Z</time>
      </trkpt>
      <trkpt lat="45.86382" lon="4.71787">
        <ele>199</ele>
        <time>2018-07-19T10:43:16Z</time>
      </trkpt>
      <trkpt lat="45.86389" lon="4.71791">
        <ele>199</ele>
        <time>2018-07-19T10:43:17Z</time>
      </trkpt>
      <trkpt lat="45.86396" lon="4.71795">
        <ele>199</ele>
        <time>2018-07-19T10:43:18Z</time>
      </trkpt>
      <trkpt lat="45.86401" lon="4.718">
        <ele>199</ele>
        <time>2018-07-19T10:43:19Z</time>
      </trkpt>
      <trkpt lat="45.86406" lon="4.71806">
        <ele>200</ele>
        <time>2018-07-19T10:43:20Z</time>
      </trkpt>
      <trkpt lat="45.86413" lon="4.71809">
        <ele>200</ele>
        <time>2018-07-19T10:43:21Z</time>
      </trkpt>
      <trkpt lat="45.86419" lon="4.71813">
        <ele>198</ele>
        <time>2018-07-19T10:43:22Z</time>
      </trkpt>
      <trkpt lat="45.86425" lon="4.71816">
        <ele>198</ele>
        <time>2018-07-19T10:43:23Z</time>
      </trkpt>
      <trkpt lat="45.8643" lon="4.71821">
        <ele>199</ele>
        <time>2018-07-19T10:43:24Z</time>
      </trkpt>
      <trkpt lat="45.86435" lon="4.71826">
        <ele>198</ele>
        <time>2018-07-19T10:43:25Z</time>
      </trkpt>
      <trkpt lat="45.86441" lon="4.7183">
        <ele>198</ele>
        <time>2018-07-19T10:43:26Z</time>
      </trkpt>
      <trkpt lat="45.86445" lon="4.71834">
        <ele>200</ele>
        <time>2018-07-19T10:43:27Z</time>
      </trkpt>
      <trkpt lat="45.8645" lon="4.7184">
        <ele>200</ele>
        <time>2018-07-19T10:43:28Z</time>
      </trkpt>
      <trkpt lat="45.86455" lon="4.71842">
        <ele>200</ele>
        <time>2018-07-19T10:43:29Z</time>
      </trkpt>
      <trkpt lat="45.86461" lon="4.71846">
        <ele>200</ele>
        <time>2018-07-19T10:43:30Z</time>
      </trkpt>
      <trkpt lat="45.86468" lon="4.7185">
        <ele>199</ele>
        <time>2018-07-19T10:43:31Z</time>
      </trkpt>
      <trkpt lat="45.86474" lon="4.71852">
        <ele>199</ele>
        <time>2018-07-19T10:43:32Z</time>
      </trkpt>
      <trkpt lat="45.86478" lon="4.71858">
        <ele>199</ele>
        <time>2018-07-19T10:43:33Z</time>
      </trkpt>
      <trkpt lat="45.86483" lon="4.71862">
        <ele>199</ele>
        <time>2018-07-19T10:43:34Z</time>
      </trkpt>
      <trkpt lat="45.86488" lon="4.71866">
        <ele>199</ele>
        <time>2018-07-19T10:43:35Z</time>
      </trkpt>
      <trkpt lat="45.86494" lon="4.71872">
        <ele>199</ele>
        <time>2018-07-19T10:43:36Z</time>
      </trkpt>
      <trkpt lat="45.86501" lon="4.71876">
        <ele>195</ele>
        <time>2018-07-19T10:43:37Z</time>
      </trkpt>
      <trkpt lat="45.86504" lon="4.71883">
        <ele>195</ele>
        <time>2018-07-19T10:43:38Z</time>
      </trkpt>
      <trkpt lat="45.8651" lon="4.71886">
        <ele>195</ele>
        <time>2018-07-19T10:43:39Z</time>
      </trkpt>
      <trkpt lat="45.86518" lon="4.71889">
        <ele>195</ele>
        <time>2018-07-19T10:43:40Z</time>
      </trkpt>
      <trkpt lat="45.86523" lon="4.71894">
        <ele>195</ele>
        <time>2018-07-19T10:43:41Z</time>
      </trkpt>
      <trkpt lat="45.86528" lon="4.71898">
        <ele>195</ele>
        <time>2018-07-19T10:43:42Z</time>
      </trkpt>
      <trkpt lat="45.86531" lon="4.71904">
        <ele>195</ele>
        <time>2018-07-19T10:43:43Z</time>
      </trkpt>
      <trkpt lat="45.86536" lon="4.71906">
        <ele>195</ele>
        <time>2018-07-19T10:43:44Z</time>
      </trkpt>
      <trkpt lat="45.8654" lon="4.71911">
        <ele>195</ele>
        <time>2018-07-19T10:43:45Z</time>
      </trkpt>
      <trkpt lat="45.86544" lon="4.71915">
        <ele>195</ele>
        <time>2018-07-19T10:43:46Z</time>
      </trkpt>
      <trkpt lat="45.86551" lon="4.71919">
        <ele>196</ele>
        <time>2018-07-19T10:43:47Z</time>
      </trkpt>
      <trkpt lat="45.86556" lon="4.71924">
        <ele>196</ele>
        <time>2018-07-19T10:43:48Z</time>
      </trkpt>
      <trkpt lat="45.86562" lon="4.71927">
        <ele>196</ele>
        <time>2018-07-19T10:43:49Z</time>
      </trkpt>
      <trkpt lat="45.86568" lon="4.71931">
        <ele>196</ele>
        <time>2018-07-19T10:43:50Z</time>
      </trkpt>
      <trkpt lat="45.86574" lon="4.71936">
        <ele>195</ele>
        <time>2018-07-19T10:43:51Z</time>
      </trkpt>
      <trkpt lat="45.8658" lon="4.71941">
        <ele>196</ele>
        <time>2018-07-19T10:43:52Z</time>
      </trkpt>
      <trkpt lat="45.86587" lon="4.71946">
        <ele>194</ele>
        <time>2018-07-19T10:43:53Z</time>
      </trkpt>
      <trkpt lat="45.86593" lon="4.71951">
        <ele>194</ele>
        <time>2018-07-19T10:43:54Z</time>
      </trkpt>
      <trkpt lat="45.86599" lon="4.71956">
        <ele>194</ele>
        <time>2018-07-19T10:43:55Z</time>
      </trkpt>
      <trkpt lat="45.86606" lon="4.71961">
        <ele>195</ele>
        <time>2018-07-19T10:43:56Z</time>
      </trkpt>
      <trkpt lat="45.86612" lon="4.71965">
        <ele>195</ele>
        <time>2018-07-19T10:43:57Z</time>
      </trkpt>
      <trkpt lat="45.86618" lon="4.71969">
        <ele>195</ele>
        <time>2018-07-19T10:43:58Z</time>
      </trkpt>
      <trkpt lat="45.86623" lon="4.71975">
        <ele>195</ele>
        <time>2018-07-19T10:43:59Z</time>
      </trkpt>
      <trkpt lat="45.86628" lon="4.7198">
        <ele>195</ele>
        <time>2018-07-19T10:44:00Z</time>
      </trkpt>
      <trkpt lat="45.86634" lon="4.71985">
        <ele>195</ele>
        <time>2018-07-19T10:44:01Z</time>
      </trkpt>
      <trkpt lat="45.86638" lon="4.71989">
        <ele>195</ele>
        <time>2018-07-19T10:44:02Z</time>
      </trkpt>
      <trkpt lat="45.86644" lon="4.71994">
        <ele>195</ele>
        <time>2018-07-19T10:44:03Z</time>
      </trkpt>
      <trkpt lat="45.86651" lon="4.71998">
        <ele>195</ele>
        <time>2018-07-19T10:44:04Z</time>
      </trkpt>
      <trkpt lat="45.86657" lon="4.72003">
        <ele>196</ele>
        <time>2018-07-19T10:44:05Z</time>
      </trkpt>
      <trkpt lat="45.86662" lon="4.72007">
        <ele>196</ele>
        <time>2018-07-19T10:44:06Z</time>
      </trkpt>
      <trkpt lat="45.86669" lon="4.72011">
        <ele>196</ele>
        <time>2018-07-19T10:44:07Z</time>
      </trkpt>
      <trkpt lat="45.86674" lon="4.72016">
        <ele>196</ele>
        <time>2018-07-19T10:44:08Z</time>
      </trkpt>
      <trkpt lat="45.8668" lon="4.7202">
        <ele>196</ele>
        <time>2018-07-19T10:44:09Z</time>
      </trkpt>
      <trkpt lat="45.86685" lon="4.72024">
        <ele>197</ele>
        <time>2018-07-19T10:44:10Z</time>
      </trkpt>
      <trkpt lat="45.86691" lon="4.72028">
        <ele>197</ele>
        <time>2018-07-19T10:44:11Z</time>
      </trkpt>
      <trkpt lat="45.86697" lon="4.72032">
        <ele>197</ele>
        <time>2018-07-19T10:44:12Z</time>
      </trkpt>
      <trkpt lat="45.86703" lon="4.72038">
        <ele>197</ele>
        <time>2018-07-19T10:44:13Z</time>
      </trkpt>
      <trkpt lat="45.86713" lon="4.72036">
        <ele>197</ele>
        <time>2018-07-19T10:44:14Z</time>
      </trkpt>
      <trkpt lat="45.86717" lon="4.72042">
        <ele>197</ele>
        <time>2018-07-19T10:44:15Z</time>
      </trkpt>
      <trkpt lat="45.86724" lon="4.72046">
        <ele>197</ele>
        <time>2018-07-19T10:44:16Z</time>
      </trkpt>
      <trkpt lat="45.8673" lon="4.7205">
        <ele>197</ele>
        <time>2018-07-19T10:44:17Z</time>
      </trkpt>
      <trkpt lat="45.86737" lon="4.72053">
        <ele>197</ele>
        <time>2018-07-19T10:44:18Z</time>
      </trkpt>
      <trkpt lat="45.86744" lon="4.72057">
        <ele>197</ele>
        <time>2018-07-19T10:44:19Z</time>
      </trkpt>
      <trkpt lat="45.86749" lon="4.72061">
        <ele>197</ele>
        <time>2018-07-19T10:44:20Z</time>
      </trkpt>
      <trkpt lat="45.86757" lon="4.72065">
        <ele>195</ele>
        <time>2018-07-19T10:44:21Z</time>
      </trkpt>
      <trkpt lat="45.86764" lon="4.72068">
        <ele>195</ele>
        <time>2018-07-19T10:44:22Z</time>
      </trkpt>
      <trkpt lat="45.8677" lon="4.72072">
        <ele>195</ele>
        <time>2018-07-19T10:44:23Z</time>
      </trkpt>
      <trkpt lat="45.86777" lon="4.72075">
        <ele>195</ele>
        <time>2018-07-19T10:44:24Z</time>
      </trkpt>
      <trkpt lat="45.86784" lon="4.72077">
        <ele>194</ele>
        <time>2018-07-19T10:44:25Z</time>
      </trkpt>
      <trkpt lat="45.8679" lon="4.72081">
        <ele>194</ele>
        <time>2018-07-19T10:44:26Z</time>
      </trkpt>
      <trkpt lat="45.86796" lon="4.72084">
        <ele>201</ele>
        <time>2018-07-19T10:44:27Z</time>
      </trkpt>
      <trkpt lat="45.86804" lon="4.72087">
        <ele>201</ele>
        <time>2018-07-19T10:44:28Z</time>
      </trkpt>
      <trkpt lat="45.8681" lon="4.72091">
        <ele>200</ele>
        <time>2018-07-19T10:44:29Z</time>
      </trkpt>
      <trkpt lat="45.86815" lon="4.72095">
        <ele>200</ele>
        <time>2018-07-19T10:44:30Z</time>
      </trkpt>
      <trkpt lat="45.86821" lon="4.72094">
        <ele>199</ele>
        <time>2018-07-19T10:44:31Z</time>
      </trkpt>
      <trkpt lat="45.86827" lon="4.72096">
        <ele>198</ele>
        <time>2018-07-19T10:44:32Z</time>
      </trkpt>
      <trkpt lat="45.86832" lon="4.72102">
        <ele>200</ele>
        <time>2018-07-19T10:44:33Z</time>
      </trkpt>
      <trkpt lat="45.86837" lon="4.72104">
        <ele>199</ele>
        <time>2018-07-19T10:44:34Z</time>
      </trkpt>
      <trkpt lat="45.86845" lon="4.72103">
        <ele>199</ele>
        <time>2018-07-19T10:44:35Z</time>
      </trkpt>
      <trkpt lat="45.86853" lon="4.72107">
        <ele>200</ele>
        <time>2018-07-19T10:44:36Z</time>
      </trkpt>
      <trkpt lat="45.8686" lon="4.72109">
        <ele>201</ele>
        <time>2018-07-19T10:44:37Z</time>
      </trkpt>
      <trkpt lat="45.86868" lon="4.72111">
        <ele>201</ele>
        <time>2018-07-19T10:44:38Z</time>
      </trkpt>
      <trkpt lat="45.86873" lon="4.72114">
        <ele>201</ele>
        <time>2018-07-19T10:44:39Z</time>
      </trkpt>
      <trkpt lat="45.8688" lon="4.72117">
        <ele>202</ele>
        <time>2018-07-19T10:44:40Z</time>
      </trkpt>
      <trkpt lat="45.86886" lon="4.72119">
        <ele>202</ele>
        <time>2018-07-19T10:44:41Z</time>
      </trkpt>
      <trkpt lat="45.86892" lon="4.72122">
        <ele>202</ele>
        <time>2018-07-19T10:44:42Z</time>
      </trkpt>
      <trkpt lat="45.86898" lon="4.72124">
        <ele>202</ele>
        <time>2018-07-19T10:44:43Z</time>
      </trkpt>
      <trkpt lat="45.86903" lon="4.72126">
        <ele>203</ele>
        <time>2018-07-19T10:44:44Z</time>
      </trkpt>
      <trkpt lat="45.86908" lon="4.72128">
        <ele>203</ele>
        <time>2018-07-19T10:44:45Z</time>
      </trkpt>
      <trkpt lat="45.86913" lon="4.72132">
        <ele>204</ele>
        <time>2018-07-19T10:44:46Z</time>
      </trkpt>
      <trkpt lat="45.86918" lon="4.72136">
        <ele>202</ele>
        <time>2018-07-19T10:44:47Z</time>
      </trkpt>
      <trkpt lat="45.86924" lon="4.72138">
        <ele>202</ele>
        <time>2018-07-19T10:44:48Z</time>
      </trkpt>
      <trkpt lat="45.8693" lon="4.72145">
        <ele>203</ele>
        <time>2018-07-19T10:44:49Z</time>
      </trkpt>
      <trkpt lat="45.86936" lon="4.72145">
        <ele>203</ele>
        <time>2018-07-19T10:44:50Z</time>
      </trkpt>
      <trkpt lat="45.86943" lon="4.72154">
        <ele>203</ele>
        <time>2018-07-19T10:44:51Z</time>
      </trkpt>
      <trkpt lat="45.86948" lon="4.72154">
        <ele>202</ele>
        <time>2018-07-19T10:44:52Z</time>
      </trkpt>
      <trkpt lat="45.86956" lon="4.72158">
        <ele>202</ele>
        <time>2018-07-19T10:44:53Z</time>
      </trkpt>
      <trkpt lat="45.86962" lon="4.72162">
        <ele>201</ele>
        <time>2018-07-19T10:44:54Z</time>
      </trkpt>
      <trkpt lat="45.86967" lon="4.72166">
        <ele>201</ele>
        <time>2018-07-19T10:44:55Z</time>
      </trkpt>
      <trkpt lat="45.86971" lon="4.72166">
        <ele>201</ele>
        <time>2018-07-19T10:44:56Z</time>
      </trkpt>
      <trkpt lat="45.86977" lon="4.72168">
        <ele>208</ele>
        <time>2018-07-19T10:44:57Z</time>
      </trkpt>
      <trkpt lat="45.86981" lon="4.72171">
        <ele>207</ele>
        <time>2018-07-19T10:44:58Z</time>
      </trkpt>
      <trkpt lat="45.86985" lon="4.72174">
        <ele>207</ele>
        <time>2018-07-19T10:44:59Z</time>
      </trkpt>
      <trkpt lat="45.8699" lon="4.72177">
        <ele>206</ele>
        <time>2018-07-19T10:45:00Z</time>
      </trkpt>
      <trkpt lat="45.86994" lon="4.7218">
        <ele>206</ele>
        <time>2018-07-19T10:45:01Z</time>
      </trkpt>
      <trkpt lat="45.87001" lon="4.72183">
        <ele>201</ele>
        <time>2018-07-19T10:45:02Z</time>
      </trkpt>
      <trkpt lat="45.87007" lon="4.72186">
        <ele>201</ele>
        <time>2018-07-19T10:45:03Z</time>
      </trkpt>
      <trkpt lat="45.87012" lon="4.7219">
        <ele>201</ele>
        <time>2018-07-19T10:45:04Z</time>
      </trkpt>
      <trkpt lat="45.87016" lon="4.72194">
        <ele>201</ele>
        <time>2018-07-19T10:45:05Z</time>
      </trkpt>
      <trkpt lat="45.87023" lon="4.72201">
        <ele>202</ele>
        <time>2018-07-19T10:45:06Z</time>
      </trkpt>
      <trkpt lat="45.87029" lon="4.72202">
        <ele>201</ele>
        <time>2018-07-19T10:45:07Z</time>
      </trkpt>
      <trkpt lat="45.87033" lon="4.72208">
        <ele>201</ele>
        <time>2018-07-19T10:45:08.555Z</time>
      </trkpt>
      <trkpt lat="45.87039" lon="4.72211">
        <ele>201</ele>
        <time>2018-07-19T10:45:09Z</time>
      </trkpt>
      <trkpt lat="45.87045" lon="4.72216">
        <ele>201</ele>
        <time>2018-07-19T10:45:10Z</time>
      </trkpt>
      <trkpt lat="45.8705" lon="4.7222">
        <ele>201</ele>
        <time>2018-07-19T10:45:11Z</time>
      </trkpt>
      <trkpt lat="45.87055" lon="4.72227">
        <ele>201</ele>
        <time>2018-07-19T10:45:12Z</time>
      </trkpt>
      <trkpt lat="45.8706" lon="4.72229">
        <ele>200</ele>
        <time>2018-07-19T10:45:13Z</time>
      </trkpt>
      <trkpt lat="45.87066" lon="4.72234">
        <ele>200</ele>
        <time>2018-07-19T10:45:14Z</time>
      </trkpt>
      <trkpt lat="45.8707" lon="4.72238">
        <ele>200</ele>
        <time>2018-07-19T10:45:15Z</time>
      </trkpt>
      <trkpt lat="45.87076" lon="4.72244">
        <ele>200</ele>
        <time>2018-07-19T10:45:16Z</time>
      </trkpt>
      <trkpt lat="45.8708" lon="4.72249">
        <ele>199</ele>
        <time>2018-07-19T10:45:17Z</time>
      </trkpt>
      <trkpt lat="45.87084" lon="4.72255">
        <ele>199</ele>
        <time>2018-07-19T10:45:18Z</time>
      </trkpt>
      <trkpt lat="45.87089" lon="4.72259">
        <ele>198</ele>
        <time>2018-07-19T10:45:19Z</time>
      </trkpt>
      <trkpt lat="45.87093" lon="4.72263">
        <ele>198</ele>
        <time>2018-07-19T10:45:20Z</time>
      </trkpt>
      <trkpt lat="45.87097" lon="4.72268">
        <ele>198</ele>
        <time>2018-07-19T10:45:21Z</time>
      </trkpt>
      <trkpt lat="45.87101" lon="4.72274">
        <ele>197</ele>
        <time>2018-07-19T10:45:22Z</time>
      </trkpt>
      <trkpt lat="45.87105" lon="4.72278">
        <ele>197</ele>
        <time>2018-07-19T10:45:23Z</time>
      </trkpt>
      <trkpt lat="45.87109" lon="4.72283">
        <ele>197</ele>
        <time>2018-07-19T10:45:24Z</time>
      </trkpt>
      <trkpt lat="45.87113" lon="4.72288">
        <ele>197</ele>
        <time>2018-07-19T10:45:25Z</time>
      </trkpt>
      <trkpt lat="45.87117" lon="4.72292">
        <ele>197</ele>
        <time>2018-07-19T10:45:26Z</time>
      </trkpt>
      <trkpt lat="45.87121" lon="4.72297">
        <ele>197</ele>
        <time>2018-07-19T10:45:27Z</time>
      </trkpt>
      <trkpt lat="45.87124" lon="4.72303">
        <ele>196</ele>
        <time>2018-07-19T10:45:28Z</time>
      </trkpt>
      <trkpt lat="45.8713" lon="4.72308">
        <ele>196</ele>
        <time>2018-07-19T10:45:29Z</time>
      </trkpt>
      <trkpt lat="45.8713" lon="4.72316">
        <ele>196</ele>
        <time>2018-07-19T10:45:30Z</time>
      </trkpt>
      <trkpt lat="45.87132" lon="4.72323">
        <ele>196</ele>
        <time>2018-07-19T10:45:31Z</time>
      </trkpt>
      <trkpt lat="45.87134" lon="4.7233">
        <ele>195</ele>
        <time>2018-07-19T10:45:32Z</time>
      </trkpt>
      <trkpt lat="45.87136" lon="4.72337">
        <ele>197</ele>
        <time>2018-07-19T10:45:33Z</time>
      </trkpt>
      <trkpt lat="45.87139" lon="4.72344">
        <ele>197</ele>
        <time>2018-07-19T10:45:34Z</time>
      </trkpt>
      <trkpt lat="45.87142" lon="4.72351">
        <ele>197</ele>
        <time>2018-07-19T10:45:35Z</time>
      </trkpt>
      <trkpt lat="45.87145" lon="4.72357">
        <ele>197</ele>
        <time>2018-07-19T10:45:36Z</time>
      </trkpt>
      <trkpt lat="45.87148" lon="4.72365">
        <ele>197</ele>
        <time>2018-07-19T10:45:37Z</time>
      </trkpt>
      <trkpt lat="45.87152" lon="4.72374">
        <ele>197</ele>
        <time>2018-07-19T10:45:38Z</time>
      </trkpt>
      <trkpt lat="45.87156" lon="4.72382">
        <ele>197</ele>
        <time>2018-07-19T10:45:39Z</time>
      </trkpt>
      <trkpt lat="45.87159" lon="4.72389">
        <ele>197</ele>
        <time>2018-07-19T10:45:40Z</time>
      </trkpt>
      <trkpt lat="45.87162" lon="4.72396">
        <ele>197</ele>
        <time>2018-07-19T10:45:41Z</time>
      </trkpt>
      <trkpt lat="45.87165" lon="4.72403">
        <ele>196</ele>
        <time>2018-07-19T10:45:42Z</time>
      </trkpt>
      <trkpt lat="45.87168" lon="4.7241">
        <ele>193</ele>
        <time>2018-07-19T10:45:43Z</time>
      </trkpt>
      <trkpt lat="45.87172" lon="4.72416">
        <ele>193</ele>
        <time>2018-07-19T10:45:44Z</time>
      </trkpt>
      <trkpt lat="45.87176" lon="4.72421">
        <ele>194</ele>
        <time>2018-07-19T10:45:45Z</time>
      </trkpt>
      <trkpt lat="45.8718" lon="4.72426">
        <ele>194</ele>
        <time>2018-07-19T10:45:46Z</time>
      </trkpt>
      <trkpt lat="45.87183" lon="4.72431">
        <ele>194</ele>
        <time>2018-07-19T10:45:47Z</time>
      </trkpt>
      <trkpt lat="45.87188" lon="4.72438">
        <ele>194</ele>
        <time>2018-07-19T10:45:48Z</time>
      </trkpt>
      <trkpt lat="45.87192" lon="4.72444">
        <ele>194</ele>
        <time>2018-07-19T10:45:49Z</time>
      </trkpt>
      <trkpt lat="45.87197" lon="4.7245">
        <ele>194</ele>
        <time>2018-07-19T10:45:50Z</time>
      </trkpt>
      <trkpt lat="45.872" lon="4.72456">
        <ele>194</ele>
        <time>2018-07-19T10:45:51Z</time>
      </trkpt>
      <trkpt lat="45.87205" lon="4.72463">
        <ele>194</ele>
        <time>2018-07-19T10:45:52Z</time>
      </trkpt>
      <trkpt lat="45.87209" lon="4.72471">
        <ele>194</ele>
        <time>2018-07-19T10:45:53Z</time>
      </trkpt>
      <trkpt lat="45.87213" lon="4.72479">
        <ele>194</ele>
        <time>2018-07-19T10:45:54Z</time>
      </trkpt>
      <trkpt lat="45.87217" lon="4.72484">
        <ele>194</ele>
        <time>2018-07-19T10:45:55Z</time>
      </trkpt>
      <trkpt lat="45.87221" lon="4.72491">
        <ele>194</ele>
        <time>2018-07-19T10:45:56Z</time>
      </trkpt>
      <trkpt lat="45.87225" lon="4.72497">
        <ele>194</ele>
        <time>2018-07-19T10:45:57Z</time>
      </trkpt>
      <trkpt lat="45.87229" lon="4.72505">
        <ele>196</ele>
        <time>2018-07-19T10:45:58Z</time>
      </trkpt>
      <trkpt lat="45.87231" lon="4.72511">
        <ele>196</ele>
        <time>2018-07-19T10:45:59Z</time>
      </trkpt>
      <trkpt lat="45.87233" lon="4.72518">
        <ele>196</ele>
        <time>2018-07-19T10:46:00Z</time>
      </trkpt>
      <trkpt lat="45.87237" lon="4.72523">
        <ele>196</ele>
        <time>2018-07-19T10:46:01Z</time>
      </trkpt>
      <trkpt lat="45.87239" lon="4.72528">
        <ele>197</ele>
        <time>2018-07-19T10:46:02Z</time>
      </trkpt>
      <trkpt lat="45.87242" lon="4.72533">
        <ele>197</ele>
        <time>2018-07-19T10:46:03Z</time>
      </trkpt>
      <trkpt lat="45.87246" lon="4.72544">
        <ele>197</ele>
        <time>2018-07-19T10:46:05Z</time>
      </trkpt>
      <trkpt lat="45.8725" lon="4.72548">
        <ele>194</ele>
        <time>2018-07-19T10:46:06Z</time>
      </trkpt>
      <trkpt lat="45.87253" lon="4.72553">
        <ele>194</ele>
        <time>2018-07-19T10:46:07Z</time>
      </trkpt>
      <trkpt lat="45.87256" lon="4.72557">
        <ele>194</ele>
        <time>2018-07-19T10:46:08Z</time>
      </trkpt>
      <trkpt lat="45.87261" lon="4.72563">
        <ele>195</ele>
        <time>2018-07-19T10:46:09Z</time>
      </trkpt>
      <trkpt lat="45.87265" lon="4.72573">
        <ele>195</ele>
        <time>2018-07-19T10:46:10Z</time>
      </trkpt>
      <trkpt lat="45.87267" lon="4.72579">
        <ele>195</ele>
        <time>2018-07-19T10:46:11Z</time>
      </trkpt>
      <trkpt lat="45.87269" lon="4.72586">
        <ele>195</ele>
        <time>2018-07-19T10:46:12Z</time>
      </trkpt>
      <trkpt lat="45.87274" lon="4.72592">
        <ele>195</ele>
        <time>2018-07-19T10:46:13Z</time>
      </trkpt>
      <trkpt lat="45.87277" lon="4.72595">
        <ele>195</ele>
        <time>2018-07-19T10:46:14Z</time>
      </trkpt>
      <trkpt lat="45.8728" lon="4.72599">
        <ele>194</ele>
        <time>2018-07-19T10:46:15Z</time>
      </trkpt>
      <trkpt lat="45.87284" lon="4.72605">
        <ele>194</ele>
        <time>2018-07-19T10:46:16Z</time>
      </trkpt>
      <trkpt lat="45.87289" lon="4.72612">
        <ele>194</ele>
        <time>2018-07-19T10:46:17Z</time>
      </trkpt>
      <trkpt lat="45.873" lon="4.72617">
        <ele>194</ele>
        <time>2018-07-19T10:46:18Z</time>
      </trkpt>
      <trkpt lat="45.87303" lon="4.72623">
        <ele>193</ele>
        <time>2018-07-19T10:46:19Z</time>
      </trkpt>
      <trkpt lat="45.87309" lon="4.72631">
        <ele>193</ele>
        <time>2018-07-19T10:46:20Z</time>
      </trkpt>
      <trkpt lat="45.8732" lon="4.72634">
        <ele>193</ele>
        <time>2018-07-19T10:46:21Z</time>
      </trkpt>
      <trkpt lat="45.87322" lon="4.72641">
        <ele>192</ele>
        <time>2018-07-19T10:46:22Z</time>
      </trkpt>
      <trkpt lat="45.87325" lon="4.72648">
        <ele>192</ele>
        <time>2018-07-19T10:46:23Z</time>
      </trkpt>
      <trkpt lat="45.8733" lon="4.72654">
        <ele>191</ele>
        <time>2018-07-19T10:46:24Z</time>
      </trkpt>
      <trkpt lat="45.87335" lon="4.72658">
        <ele>190</ele>
        <time>2018-07-19T10:46:25Z</time>
      </trkpt>
      <trkpt lat="45.8734" lon="4.72662">
        <ele>190</ele>
        <time>2018-07-19T10:46:26Z</time>
      </trkpt>
      <trkpt lat="45.87345" lon="4.72667">
        <ele>190</ele>
        <time>2018-07-19T10:46:27Z</time>
      </trkpt>
      <trkpt lat="45.87349" lon="4.72671">
        <ele>190</ele>
        <time>2018-07-19T10:46:28Z</time>
      </trkpt>
      <trkpt lat="45.87354" lon="4.72675">
        <ele>190</ele>
        <time>2018-07-19T10:46:29Z</time>
      </trkpt>
      <trkpt lat="45.87359" lon="4.72678">
        <ele>190</ele>
        <time>2018-07-19T10:46:30Z</time>
      </trkpt>
      <trkpt lat="45.87364" lon="4.72682">
        <ele>190</ele>
        <time>2018-07-19T10:46:31Z</time>
      </trkpt>
      <trkpt lat="45.87371" lon="4.72688">
        <ele>190</ele>
        <time>2018-07-19T10:46:33Z</time>
      </trkpt>
      <trkpt lat="45.87374" lon="4.72693">
        <ele>190</ele>
        <time>2018-07-19T10:46:34Z</time>
      </trkpt>
      <trkpt lat="45.87377" lon="4.72704">
        <ele>190</ele>
        <time>2018-07-19T10:46:36Z</time>
      </trkpt>
      <trkpt lat="45.87379" lon="4.7271">
        <ele>190</ele>
        <time>2018-07-19T10:46:37Z</time>
      </trkpt>
      <trkpt lat="45.87383" lon="4.72716">
        <ele>190</ele>
        <time>2018-07-19T10:46:38Z</time>
      </trkpt>
      <trkpt lat="45.87385" lon="4.72722">
        <ele>190</ele>
        <time>2018-07-19T10:46:39Z</time>
      </trkpt>
      <trkpt lat="45.87386" lon="4.72728">
        <ele>190</ele>
        <time>2018-07-19T10:46:40Z</time>
      </trkpt>
      <trkpt lat="45.8739" lon="4.72733">
        <ele>190</ele>
        <time>2018-07-19T10:46:41Z</time>
      </trkpt>
      <trkpt lat="45.87396" lon="4.72741">
        <ele>189</ele>
        <time>2018-07-19T10:46:43Z</time>
      </trkpt>
      <trkpt lat="45.874" lon="4.72746">
        <ele>189</ele>
        <time>2018-07-19T10:46:44Z</time>
      </trkpt>
      <trkpt lat="45.87403" lon="4.72752">
        <ele>189</ele>
        <time>2018-07-19T10:46:45Z</time>
      </trkpt>
      <trkpt lat="45.87406" lon="4.72762">
        <ele>189</ele>
        <time>2018-07-19T10:46:46Z</time>
      </trkpt>
      <trkpt lat="45.8741" lon="4.72764">
        <ele>189</ele>
        <time>2018-07-19T10:46:47Z</time>
      </trkpt>
      <trkpt lat="45.87414" lon="4.7277">
        <ele>189</ele>
        <time>2018-07-19T10:46:48Z</time>
      </trkpt>
      <trkpt lat="45.87417" lon="4.72779">
        <ele>189</ele>
        <time>2018-07-19T10:46:49Z</time>
      </trkpt>
      <trkpt lat="45.8742" lon="4.72787">
        <ele>189</ele>
        <time>2018-07-19T10:46:50Z</time>
      </trkpt>
      <trkpt lat="45.87422" lon="4.72792">
        <ele>189</ele>
        <time>2018-07-19T10:46:51Z</time>
      </trkpt>
      <trkpt lat="45.87426" lon="4.72799">
        <ele>189</ele>
        <time>2018-07-19T10:46:52Z</time>
      </trkpt>
      <trkpt lat="45.87428" lon="4.72806">
        <ele>189</ele>
        <time>2018-07-19T10:46:53Z</time>
      </trkpt>
      <trkpt lat="45.87435" lon="4.72812">
        <ele>189</ele>
        <time>2018-07-19T10:46:54Z</time>
      </trkpt>
      <trkpt lat="45.87437" lon="4.7282">
        <ele>189</ele>
        <time>2018-07-19T10:46:55Z</time>
      </trkpt>
      <trkpt lat="45.8744" lon="4.72828">
        <ele>189</ele>
        <time>2018-07-19T10:46:56Z</time>
      </trkpt>
      <trkpt lat="45.87441" lon="4.72835">
        <ele>188</ele>
        <time>2018-07-19T10:46:57Z</time>
      </trkpt>
      <trkpt lat="45.87442" lon="4.72841">
        <ele>188</ele>
        <time>2018-07-19T10:46:58Z</time>
      </trkpt>
      <trkpt lat="45.87447" lon="4.72851">
        <ele>188</ele>
        <time>2018-07-19T10:46:59Z</time>
      </trkpt>
      <trkpt lat="45.8745" lon="4.72857">
        <ele>188</ele>
        <time>2018-07-19T10:47:00Z</time>
      </trkpt>
      <trkpt lat="45.87453" lon="4.72865">
        <ele>188</ele>
        <time>2018-07-19T10:47:01Z</time>
      </trkpt>
      <trkpt lat="45.87456" lon="4.7287">
        <ele>188</ele>
        <time>2018-07-19T10:47:02Z</time>
      </trkpt>
      <trkpt lat="45.87459" lon="4.72882">
        <ele>188</ele>
        <time>2018-07-19T10:47:04Z</time>
      </trkpt>
      <trkpt lat="45.8746" lon="4.72885">
        <ele>188</ele>
        <time>2018-07-19T10:47:05Z</time>
      </trkpt>
      <trkpt lat="45.87463" lon="4.72897">
        <ele>188</ele>
        <time>2018-07-19T10:47:07Z</time>
      </trkpt>
      <trkpt lat="45.87464" lon="4.72904">
        <ele>188</ele>
        <time>2018-07-19T10:47:08Z</time>
      </trkpt>
      <trkpt lat="45.87468" lon="4.72909">
        <ele>188</ele>
        <time>2018-07-19T10:47:09Z</time>
      </trkpt>
      <trkpt lat="45.8747" lon="4.72917">
        <ele>188</ele>
        <time>2018-07-19T10:47:10Z</time>
      </trkpt>
      <trkpt lat="45.87471" lon="4.72924">
        <ele>188</ele>
        <time>2018-07-19T10:47:11Z</time>
      </trkpt>
      <trkpt lat="45.87475" lon="4.72931">
        <ele>188</ele>
        <time>2018-07-19T10:47:12Z</time>
      </trkpt>
      <trkpt lat="45.8748" lon="4.72935">
        <ele>188</ele>
        <time>2018-07-19T10:47:13Z</time>
      </trkpt>
      <trkpt lat="45.87483" lon="4.72938">
        <ele>188</ele>
        <time>2018-07-19T10:47:14Z</time>
      </trkpt>
      <trkpt lat="45.87489" lon="4.72941">
        <ele>188</ele>
        <time>2018-07-19T10:47:15Z</time>
      </trkpt>
      <trkpt lat="45.87495" lon="4.72943">
        <ele>188</ele>
        <time>2018-07-19T10:47:16Z</time>
      </trkpt>
      <trkpt lat="45.87503" lon="4.72944">
        <ele>187</ele>
        <time>2018-07-19T10:47:17Z</time>
      </trkpt>
      <trkpt lat="45.87509" lon="4.7295">
        <ele>187</ele>
        <time>2018-07-19T10:47:18Z</time>
      </trkpt>
      <trkpt lat="45.8751" lon="4.72958">
        <ele>187</ele>
        <time>2018-07-19T10:47:19Z</time>
      </trkpt>
      <trkpt lat="45.87516" lon="4.72963">
        <ele>187</ele>
        <time>2018-07-19T10:47:20Z</time>
      </trkpt>
      <trkpt lat="45.87519" lon="4.72969">
        <ele>187</ele>
        <time>2018-07-19T10:47:21Z</time>
      </trkpt>
      <trkpt lat="45.8752" lon="4.72977">
        <ele>187</ele>
        <time>2018-07-19T10:47:22Z</time>
      </trkpt>
      <trkpt lat="45.87522" lon="4.72983">
        <ele>187</ele>
        <time>2018-07-19T10:47:23Z</time>
      </trkpt>
      <trkpt lat="45.87525" lon="4.7299">
        <ele>187</ele>
        <time>2018-07-19T10:47:24Z</time>
      </trkpt>
      <trkpt lat="45.87528" lon="4.72996">
        <ele>187</ele>
        <time>2018-07-19T10:47:25Z</time>
      </trkpt>
      <trkpt lat="45.87532" lon="4.73003">
        <ele>187</ele>
        <time>2018-07-19T10:47:26Z</time>
      </trkpt>
      <trkpt lat="45.87535" lon="4.7301">
        <ele>187</ele>
        <time>2018-07-19T10:47:27Z</time>
      </trkpt>
      <trkpt lat="45.87538" lon="4.73016">
        <ele>187</ele>
        <time>2018-07-19T10:47:28Z</time>
      </trkpt>
      <trkpt lat="45.87542" lon="4.73023">
        <ele>188</ele>
        <time>2018-07-19T10:47:29Z</time>
      </trkpt>
      <trkpt lat="45.87546" lon="4.7303">
        <ele>188</ele>
        <time>2018-07-19T10:47:30Z</time>
      </trkpt>
      <trkpt lat="45.8755" lon="4.73039">
        <ele>188</ele>
        <time>2018-07-19T10:47:31Z</time>
      </trkpt>
      <trkpt lat="45.87554" lon="4.73046">
        <ele>188</ele>
        <time>2018-07-19T10:47:32Z</time>
      </trkpt>
      <trkpt lat="45.87558" lon="4.73053">
        <ele>188</ele>
        <time>2018-07-19T10:47:33Z</time>
      </trkpt>
      <trkpt lat="45.87562" lon="4.73061">
        <ele>188</ele>
        <time>2018-07-19T10:47:34Z</time>
      </trkpt>
      <trkpt lat="45.87565" lon="4.73069">
        <ele>188</ele>
        <time>2018-07-19T10:47:35Z</time>
      </trkpt>
      <trkpt lat="45.87569" lon="4.73077">
        <ele>188</ele>
        <time>2018-07-19T10:47:36Z</time>
      </trkpt>
      <trkpt lat="45.87573" lon="4.73085">
        <ele>188</ele>
        <time>2018-07-19T10:47:37Z</time>
      </trkpt>
      <trkpt lat="45.87577" lon="4.73092">
        <ele>188</ele>
        <time>2018-07-19T10:47:38Z</time>
      </trkpt>
      <trkpt lat="45.87581" lon="4.73099">
        <ele>188</ele>
        <time>2018-07-19T10:47:39Z</time>
      </trkpt>
      <trkpt lat="45.87585" lon="4.73106">
        <ele>188</ele>
        <time>2018-07-19T10:47:40Z</time>
      </trkpt>
      <trkpt lat="45.87587" lon="4.73113">
        <ele>188</ele>
        <time>2018-07-19T10:47:41Z</time>
      </trkpt>
      <trkpt lat="45.87589" lon="4.73118">
        <ele>188</ele>
        <time>2018-07-19T10:47:42Z</time>
      </trkpt>
      <trkpt lat="45.87593" lon="4.73123">
        <ele>188</ele>
        <time>2018-07-19T10:47:43Z</time>
      </trkpt>
      <trkpt lat="45.87596" lon="4.73129">
        <ele>187</ele>
        <time>2018-07-19T10:47:44Z</time>
      </trkpt>
      <trkpt lat="45.87599" lon="4.73134">
        <ele>187</ele>
        <time>2018-07-19T10:47:45Z</time>
      </trkpt>
      <trkpt lat="45.87602" lon="4.7314">
        <ele>187</ele>
        <time>2018-07-19T10:47:46Z</time>
      </trkpt>
      <trkpt lat="45.87606" lon="4.7315">
        <ele>187</ele>
        <time>2018-07-19T10:47:48Z</time>
      </trkpt>
      <trkpt lat="45.87608" lon="4.73155">
        <ele>187</ele>
        <time>2018-07-19T10:47:49Z</time>
      </trkpt>
      <trkpt lat="45.87611" lon="4.7316">
        <ele>187</ele>
        <time>2018-07-19T10:47:50Z</time>
      </trkpt>
      <trkpt lat="45.87614" lon="4.73165">
        <ele>187</ele>
        <time>2018-07-19T10:47:51Z</time>
      </trkpt>
      <trkpt lat="45.87617" lon="4.73171">
        <ele>187</ele>
        <time>2018-07-19T10:47:52Z</time>
      </trkpt>
      <trkpt lat="45.87621" lon="4.73176">
        <ele>187</ele>
        <time>2018-07-19T10:47:53Z</time>
      </trkpt>
      <trkpt lat="45.87624" lon="4.73183">
        <ele>188</ele>
        <time>2018-07-19T10:47:54Z</time>
      </trkpt>
      <trkpt lat="45.87627" lon="4.73188">
        <ele>188</ele>
        <time>2018-07-19T10:47:55Z</time>
      </trkpt>
      <trkpt lat="45.87629" lon="4.73193">
        <ele>188</ele>
        <time>2018-07-19T10:47:56Z</time>
      </trkpt>
      <trkpt lat="45.87632" lon="4.732">
        <ele>188</ele>
        <time>2018-07-19T10:47:57Z</time>
      </trkpt>
      <trkpt lat="45.87634" lon="4.73206">
        <ele>188</ele>
        <time>2018-07-19T10:47:58Z</time>
      </trkpt>
      <trkpt lat="45.87637" lon="4.73211">
        <ele>188</ele>
        <time>2018-07-19T10:47:59Z</time>
      </trkpt>
      <trkpt lat="45.87639" lon="4.73217">
        <ele>188</ele>
        <time>2018-07-19T10:48:00Z</time>
      </trkpt>
      <trkpt lat="45.87642" lon="4.73222">
        <ele>188</ele>
        <time>2018-07-19T10:48:01Z</time>
      </trkpt>
      <trkpt lat="45.87645" lon="4.73232">
        <ele>188</ele>
        <time>2018-07-19T10:48:03Z</time>
      </trkpt>
      <trkpt lat="45.87649" lon="4.73236">
        <ele>188</ele>
        <time>2018-07-19T10:48:04Z</time>
      </trkpt>
      <trkpt lat="45.87652" lon="4.73242">
        <ele>188</ele>
        <time>2018-07-19T10:48:05Z</time>
      </trkpt>
      <trkpt lat="45.87655" lon="4.73247">
        <ele>189</ele>
        <time>2018-07-19T10:48:06Z</time>
      </trkpt>
      <trkpt lat="45.87657" lon="4.73254">
        <ele>189</ele>
        <time>2018-07-19T10:48:07Z</time>
      </trkpt>
      <trkpt lat="45.87662" lon="4.7326">
        <ele>189</ele>
        <time>2018-07-19T10:48:08Z</time>
      </trkpt>
      <trkpt lat="45.87665" lon="4.73267">
        <ele>189</ele>
        <time>2018-07-19T10:48:09Z</time>
      </trkpt>
      <trkpt lat="45.87668" lon="4.73273">
        <ele>188</ele>
        <time>2018-07-19T10:48:10Z</time>
      </trkpt>
      <trkpt lat="45.87671" lon="4.73279">
        <ele>188</ele>
        <time>2018-07-19T10:48:11Z</time>
      </trkpt>
      <trkpt lat="45.87674" lon="4.73286">
        <ele>188</ele>
        <time>2018-07-19T10:48:12Z</time>
      </trkpt>
      <trkpt lat="45.87677" lon="4.73292">
        <ele>188</ele>
        <time>2018-07-19T10:48:13Z</time>
      </trkpt>
      <trkpt lat="45.87681" lon="4.73299">
        <ele>188</ele>
        <time>2018-07-19T10:48:14Z</time>
      </trkpt>
      <trkpt lat="45.87684" lon="4.73304">
        <ele>188</ele>
        <time>2018-07-19T10:48:15Z</time>
      </trkpt>
      <trkpt lat="45.87685" lon="4.73311">
        <ele>188</ele>
        <time>2018-07-19T10:48:16Z</time>
      </trkpt>
      <trkpt lat="45.87688" lon="4.73318">
        <ele>188</ele>
        <time>2018-07-19T10:48:17Z</time>
      </trkpt>
      <trkpt lat="45.87691" lon="4.73325">
        <ele>188</ele>
        <time>2018-07-19T10:48:18Z</time>
      </trkpt>
      <trkpt lat="45.87694" lon="4.7333">
        <ele>188</ele>
        <time>2018-07-19T10:48:19Z</time>
      </trkpt>
      <trkpt lat="45.87696" lon="4.73337">
        <ele>188</ele>
        <time>2018-07-19T10:48:20Z</time>
      </trkpt>
      <trkpt lat="45.877" lon="4.73343">
        <ele>187</ele>
        <time>2018-07-19T10:48:21Z</time>
      </trkpt>
      <trkpt lat="45.87703" lon="4.73349">
        <ele>187</ele>
        <time>2018-07-19T10:48:22Z</time>
      </trkpt>
      <trkpt lat="45.87706" lon="4.73353">
        <ele>187</ele>
        <time>2018-07-19T10:48:23Z</time>
      </trkpt>
      <trkpt lat="45.8771" lon="4.73359">
        <ele>187</ele>
        <time>2018-07-19T10:48:24Z</time>
      </trkpt>
      <trkpt lat="45.87713" lon="4.73365">
        <ele>187</ele>
        <time>2018-07-19T10:48:25Z</time>
      </trkpt>
      <trkpt lat="45.87715" lon="4.73372">
        <ele>187</ele>
        <time>2018-07-19T10:48:26Z</time>
      </trkpt>
      <trkpt lat="45.87718" lon="4.73379">
        <ele>187</ele>
        <time>2018-07-19T10:48:27Z</time>
      </trkpt>
      <trkpt lat="45.87721" lon="4.73384">
        <ele>188</ele>
        <time>2018-07-19T10:48:28Z</time>
      </trkpt>
      <trkpt lat="45.87724" lon="4.7339">
        <ele>188</ele>
        <time>2018-07-19T10:48:29Z</time>
      </trkpt>
      <trkpt lat="45.87726" lon="4.73395">
        <ele>188</ele>
        <time>2018-07-19T10:48:30Z</time>
      </trkpt>
      <trkpt lat="45.87728" lon="4.73401">
        <ele>188</ele>
        <time>2018-07-19T10:48:31Z</time>
      </trkpt>
      <trkpt lat="45.87731" lon="4.73406">
        <ele>188</ele>
        <time>2018-07-19T10:48:32Z</time>
      </trkpt>
      <trkpt lat="45.87734" lon="4.73412">
        <ele>188</ele>
        <time>2018-07-19T10:48:33Z</time>
      </trkpt>
      <trkpt lat="45.87737" lon="4.73417">
        <ele>188</ele>
        <time>2018-07-19T10:48:34Z</time>
      </trkpt>
      <trkpt lat="45.8774" lon="4.73424">
        <ele>188</ele>
        <time>2018-07-19T10:48:35Z</time>
      </trkpt>
      <trkpt lat="45.87743" lon="4.7343">
        <ele>188</ele>
        <time>2018-07-19T10:48:36Z</time>
      </trkpt>
      <trkpt lat="45.87748" lon="4.73437">
        <ele>188</ele>
        <time>2018-07-19T10:48:37Z</time>
      </trkpt>
      <trkpt lat="45.87751" lon="4.73444">
        <ele>188</ele>
        <time>2018-07-19T10:48:38Z</time>
      </trkpt>
      <trkpt lat="45.87755" lon="4.73449">
        <ele>188</ele>
        <time>2018-07-19T10:48:39Z</time>
      </trkpt>
      <trkpt lat="45.87759" lon="4.73455">
        <ele>188</ele>
        <time>2018-07-19T10:48:40Z</time>
      </trkpt>
      <trkpt lat="45.8776" lon="4.73462">
        <ele>188</ele>
        <time>2018-07-19T10:48:41Z</time>
      </trkpt>
      <trkpt lat="45.87763" lon="4.73468">
        <ele>188</ele>
        <time>2018-07-19T10:48:42Z</time>
      </trkpt>
      <trkpt lat="45.87766" lon="4.73474">
        <ele>188</ele>
        <time>2018-07-19T10:48:43Z</time>
      </trkpt>
      <trkpt lat="45.87768" lon="4.7348">
        <ele>188</ele>
        <time>2018-07-19T10:48:44Z</time>
      </trkpt>
      <trkpt lat="45.87772" lon="4.73486">
        <ele>188</ele>
        <time>2018-07-19T10:48:45Z</time>
      </trkpt>
      <trkpt lat="45.87775" lon="4.73492">
        <ele>188</ele>
        <time>2018-07-19T10:48:46Z</time>
      </trkpt>
      <trkpt lat="45.87778" lon="4.73502">
        <ele>189</ele>
        <time>2018-07-19T10:48:48Z</time>
      </trkpt>
      <trkpt lat="45.8778" lon="4.73507">
        <ele>189</ele>
        <time>2018-07-19T10:48:49Z</time>
      </trkpt>
      <trkpt lat="45.87784" lon="4.73514">
        <ele>189</ele>
        <time>2018-07-19T10:48:50Z</time>
      </trkpt>
      <trkpt lat="45.87787" lon="4.73519">
        <ele>189</ele>
        <time>2018-07-19T10:48:51Z</time>
      </trkpt>
      <trkpt lat="45.8779" lon="4.73525">
        <ele>189</ele>
        <time>2018-07-19T10:48:52Z</time>
      </trkpt>
      <trkpt lat="45.87793" lon="4.73531">
        <ele>189</ele>
        <time>2018-07-19T10:48:53Z</time>
      </trkpt>
      <trkpt lat="45.87796" lon="4.73537">
        <ele>189</ele>
        <time>2018-07-19T10:48:54Z</time>
      </trkpt>
      <trkpt lat="45.87798" lon="4.73544">
        <ele>189</ele>
        <time>2018-07-19T10:48:55Z</time>
      </trkpt>
      <trkpt lat="45.87801" lon="4.7355">
        <ele>189</ele>
        <time>2018-07-19T10:48:56Z</time>
      </trkpt>
      <trkpt lat="45.87804" lon="4.73557">
        <ele>189</ele>
        <time>2018-07-19T10:48:57Z</time>
      </trkpt>
      <trkpt lat="45.87807" lon="4.73563">
        <ele>189</ele>
        <time>2018-07-19T10:48:58Z</time>
      </trkpt>
      <trkpt lat="45.8781" lon="4.7357">
        <ele>189</ele>
        <time>2018-07-19T10:48:59Z</time>
      </trkpt>
      <trkpt lat="45.87813" lon="4.73575">
        <ele>189</ele>
        <time>2018-07-19T10:49:00Z</time>
      </trkpt>
      <trkpt lat="45.87816" lon="4.73582">
        <ele>189</ele>
        <time>2018-07-19T10:49:01Z</time>
      </trkpt>
      <trkpt lat="45.87819" lon="4.73588">
        <ele>190</ele>
        <time>2018-07-19T10:49:02Z</time>
      </trkpt>
      <trkpt lat="45.87822" lon="4.73595">
        <ele>190</ele>
        <time>2018-07-19T10:49:03Z</time>
      </trkpt>
      <trkpt lat="45.87825" lon="4.736">
        <ele>190</ele>
        <time>2018-07-19T10:49:04Z</time>
      </trkpt>
      <trkpt lat="45.87827" lon="4.73606">
        <ele>190</ele>
        <time>2018-07-19T10:49:05Z</time>
      </trkpt>
      <trkpt lat="45.8783" lon="4.73612">
        <ele>190</ele>
        <time>2018-07-19T10:49:06Z</time>
      </trkpt>
      <trkpt lat="45.87833" lon="4.73618">
        <ele>190</ele>
        <time>2018-07-19T10:49:07Z</time>
      </trkpt>
      <trkpt lat="45.87838" lon="4.73626">
        <ele>191</ele>
        <time>2018-07-19T10:49:09Z</time>
      </trkpt>
      <trkpt lat="45.87841" lon="4.73631">
        <ele>191</ele>
        <time>2018-07-19T10:49:10Z</time>
      </trkpt>
      <trkpt lat="45.87849" lon="4.73632">
        <ele>191</ele>
        <time>2018-07-19T10:49:12Z</time>
      </trkpt>
      <trkpt lat="45.87853" lon="4.73631">
        <ele>191</ele>
        <time>2018-07-19T10:49:13Z</time>
      </trkpt>
      <trkpt lat="45.87857" lon="4.73629">
        <ele>190</ele>
        <time>2018-07-19T10:49:14Z</time>
      </trkpt>
      <trkpt lat="45.87865" lon="4.73621">
        <ele>190</ele>
        <time>2018-07-19T10:49:16Z</time>
      </trkpt>
      <trkpt lat="45.87874" lon="4.73617">
        <ele>190</ele>
        <time>2018-07-19T10:49:18Z</time>
      </trkpt>
      <trkpt lat="45.87878" lon="4.73617">
        <ele>190</ele>
        <time>2018-07-19T10:49:19Z</time>
      </trkpt>
      <trkpt lat="45.87885" lon="4.73618">
        <ele>190</ele>
        <time>2018-07-19T10:49:20Z</time>
      </trkpt>
      <trkpt lat="45.8789" lon="4.73618">
        <ele>190</ele>
        <time>2018-07-19T10:49:21Z</time>
      </trkpt>
      <trkpt lat="45.87895" lon="4.7362">
        <ele>190</ele>
        <time>2018-07-19T10:49:22Z</time>
      </trkpt>
      <trkpt lat="45.879" lon="4.73623">
        <ele>190</ele>
        <time>2018-07-19T10:49:23Z</time>
      </trkpt>
      <trkpt lat="45.87906" lon="4.73623">
        <ele>190</ele>
        <time>2018-07-19T10:49:24Z</time>
      </trkpt>
      <trkpt lat="45.87913" lon="4.73624">
        <ele>190</ele>
        <time>2018-07-19T10:49:25Z</time>
      </trkpt>
      <trkpt lat="45.87919" lon="4.73625">
        <ele>189</ele>
        <time>2018-07-19T10:49:26Z</time>
      </trkpt>
      <trkpt lat="45.87925" lon="4.73627">
        <ele>189</ele>
        <time>2018-07-19T10:49:27Z</time>
      </trkpt>
      <trkpt lat="45.87931" lon="4.73629">
        <ele>189</ele>
        <time>2018-07-19T10:49:28Z</time>
      </trkpt>
      <trkpt lat="45.87937" lon="4.73632">
        <ele>189</ele>
        <time>2018-07-19T10:49:29Z</time>
      </trkpt>
      <trkpt lat="45.87942" lon="4.73634">
        <ele>189</ele>
        <time>2018-07-19T10:49:30Z</time>
      </trkpt>
      <trkpt lat="45.87948" lon="4.73634">
        <ele>189</ele>
        <time>2018-07-19T10:49:31Z</time>
      </trkpt>
      <trkpt lat="45.87954" lon="4.73635">
        <ele>189</ele>
        <time>2018-07-19T10:49:32Z</time>
      </trkpt>
      <trkpt lat="45.8796" lon="4.73638">
        <ele>189</ele>
        <time>2018-07-19T10:49:33Z</time>
      </trkpt>
      <trkpt lat="45.87966" lon="4.7364">
        <ele>189</ele>
        <time>2018-07-19T10:49:34Z</time>
      </trkpt>
      <trkpt lat="45.87973" lon="4.73641">
        <ele>189</ele>
        <time>2018-07-19T10:49:35Z</time>
      </trkpt>
      <trkpt lat="45.87979" lon="4.73643">
        <ele>189</ele>
        <time>2018-07-19T10:49:36Z</time>
      </trkpt>
      <trkpt lat="45.87985" lon="4.73646">
        <ele>190</ele>
        <time>2018-07-19T10:49:37Z</time>
      </trkpt>
      <trkpt lat="45.87991" lon="4.73648">
        <ele>190</ele>
        <time>2018-07-19T10:49:38Z</time>
      </trkpt>
      <trkpt lat="45.87996" lon="4.73649">
        <ele>190</ele>
        <time>2018-07-19T10:49:39Z</time>
      </trkpt>
      <trkpt lat="45.88002" lon="4.7365">
        <ele>189</ele>
        <time>2018-07-19T10:49:40Z</time>
      </trkpt>
      <trkpt lat="45.88007" lon="4.73652">
        <ele>189</ele>
        <time>2018-07-19T10:49:41Z</time>
      </trkpt>
      <trkpt lat="45.88012" lon="4.73653">
        <ele>189</ele>
        <time>2018-07-19T10:49:42Z</time>
      </trkpt>
      <trkpt lat="45.88017" lon="4.73654">
        <ele>189</ele>
        <time>2018-07-19T10:49:43Z</time>
      </trkpt>
      <trkpt lat="45.88023" lon="4.73655">
        <ele>189</ele>
        <time>2018-07-19T10:49:44Z</time>
      </trkpt>
      <trkpt lat="45.88028" lon="4.73654">
        <ele>189</ele>
        <time>2018-07-19T10:49:45Z</time>
      </trkpt>
      <trkpt lat="45.88033" lon="4.73652">
        <ele>189</ele>
        <time>2018-07-19T10:49:46Z</time>
      </trkpt>
      <trkpt lat="45.88039" lon="4.7365">
        <ele>189</ele>
        <time>2018-07-19T10:49:47Z</time>
      </trkpt>
      <trkpt lat="45.88044" lon="4.73646">
        <ele>189</ele>
        <time>2018-07-19T10:49:48Z</time>
      </trkpt>
      <trkpt lat="45.8805" lon="4.73643">
        <ele>189</ele>
        <time>2018-07-19T10:49:49Z</time>
      </trkpt>
      <trkpt lat="45.88056" lon="4.73639">
        <ele>189</ele>
        <time>2018-07-19T10:49:50Z</time>
      </trkpt>
      <trkpt lat="45.88061" lon="4.73635">
        <ele>189</ele>
        <time>2018-07-19T10:49:51Z</time>
      </trkpt>
      <trkpt lat="45.88066" lon="4.73632">
        <ele>189</ele>
        <time>2018-07-19T10:49:52Z</time>
      </trkpt>
      <trkpt lat="45.88072" lon="4.73627">
        <ele>189</ele>
        <time>2018-07-19T10:49:53Z</time>
      </trkpt>
      <trkpt lat="45.88077" lon="4.73621">
        <ele>189</ele>
        <time>2018-07-19T10:49:54Z</time>
      </trkpt>
      <trkpt lat="45.88081" lon="4.73618">
        <ele>188</ele>
        <time>2018-07-19T10:49:55Z</time>
      </trkpt>
      <trkpt lat="45.88087" lon="4.73614">
        <ele>188</ele>
        <time>2018-07-19T10:49:56Z</time>
      </trkpt>
      <trkpt lat="45.88092" lon="4.7361">
        <ele>188</ele>
        <time>2018-07-19T10:49:57Z</time>
      </trkpt>
      <trkpt lat="45.88098" lon="4.73607">
        <ele>188</ele>
        <time>2018-07-19T10:49:58Z</time>
      </trkpt>
      <trkpt lat="45.88103" lon="4.73603">
        <ele>188</ele>
        <time>2018-07-19T10:49:59Z</time>
      </trkpt>
      <trkpt lat="45.88108" lon="4.73601">
        <ele>188</ele>
        <time>2018-07-19T10:50:00Z</time>
      </trkpt>
      <trkpt lat="45.88113" lon="4.73598">
        <ele>187</ele>
        <time>2018-07-19T10:50:01Z</time>
      </trkpt>
      <trkpt lat="45.88118" lon="4.73596">
        <ele>187</ele>
        <time>2018-07-19T10:50:02Z</time>
      </trkpt>
      <trkpt lat="45.88123" lon="4.73594">
        <ele>187</ele>
        <time>2018-07-19T10:50:03Z</time>
      </trkpt>
      <trkpt lat="45.88129" lon="4.73591">
        <ele>187</ele>
        <time>2018-07-19T10:50:04Z</time>
      </trkpt>
      <trkpt lat="45.88134" lon="4.73586">
        <ele>187</ele>
        <time>2018-07-19T10:50:05Z</time>
      </trkpt>
      <trkpt lat="45.8814" lon="4.73584">
        <ele>187</ele>
        <time>2018-07-19T10:50:06Z</time>
      </trkpt>
      <trkpt lat="45.88145" lon="4.7358">
        <ele>186</ele>
        <time>2018-07-19T10:50:07Z</time>
      </trkpt>
      <trkpt lat="45.88149" lon="4.73576">
        <ele>186</ele>
        <time>2018-07-19T10:50:08Z</time>
      </trkpt>
      <trkpt lat="45.88154" lon="4.73573">
        <ele>186</ele>
        <time>2018-07-19T10:50:09Z</time>
      </trkpt>
      <trkpt lat="45.88159" lon="4.73569">
        <ele>186</ele>
        <time>2018-07-19T10:50:10Z</time>
      </trkpt>
      <trkpt lat="45.88164" lon="4.73567">
        <ele>186</ele>
        <time>2018-07-19T10:50:11Z</time>
      </trkpt>
      <trkpt lat="45.88168" lon="4.73566">
        <ele>186</ele>
        <time>2018-07-19T10:50:12Z</time>
      </trkpt>
      <trkpt lat="45.88173" lon="4.73564">
        <ele>186</ele>
        <time>2018-07-19T10:50:13Z</time>
      </trkpt>
      <trkpt lat="45.8818" lon="4.73559">
        <ele>186</ele>
        <time>2018-07-19T10:50:14Z</time>
      </trkpt>
      <trkpt lat="45.88186" lon="4.73555">
        <ele>186</ele>
        <time>2018-07-19T10:50:15Z</time>
      </trkpt>
      <trkpt lat="45.88192" lon="4.73552">
        <ele>186</ele>
        <time>2018-07-19T10:50:16Z</time>
      </trkpt>
      <trkpt lat="45.88198" lon="4.73548">
        <ele>186</ele>
        <time>2018-07-19T10:50:17Z</time>
      </trkpt>
      <trkpt lat="45.88204" lon="4.73543">
        <ele>186</ele>
        <time>2018-07-19T10:50:18Z</time>
      </trkpt>
      <trkpt lat="45.88211" lon="4.73539">
        <ele>185</ele>
        <time>2018-07-19T10:50:19Z</time>
      </trkpt>
      <trkpt lat="45.88217" lon="4.73534">
        <ele>185</ele>
        <time>2018-07-19T10:50:20Z</time>
      </trkpt>
      <trkpt lat="45.88222" lon="4.7353">
        <ele>185</ele>
        <time>2018-07-19T10:50:21Z</time>
      </trkpt>
      <trkpt lat="45.88228" lon="4.73524">
        <ele>185</ele>
        <time>2018-07-19T10:50:22Z</time>
      </trkpt>
      <trkpt lat="45.88234" lon="4.7352">
        <ele>185</ele>
        <time>2018-07-19T10:50:23Z</time>
      </trkpt>
      <trkpt lat="45.8824" lon="4.73515">
        <ele>185</ele>
        <time>2018-07-19T10:50:24Z</time>
      </trkpt>
      <trkpt lat="45.88247" lon="4.7351">
        <ele>185</ele>
        <time>2018-07-19T10:50:25Z</time>
      </trkpt>
      <trkpt lat="45.88253" lon="4.73507">
        <ele>185</ele>
        <time>2018-07-19T10:50:26Z</time>
      </trkpt>
      <trkpt lat="45.88258" lon="4.73503">
        <ele>185</ele>
        <time>2018-07-19T10:50:27Z</time>
      </trkpt>
      <trkpt lat="45.88263" lon="4.73498">
        <ele>185</ele>
        <time>2018-07-19T10:50:28Z</time>
      </trkpt>
      <trkpt lat="45.88268" lon="4.73496">
        <ele>184</ele>
        <time>2018-07-19T10:50:29Z</time>
      </trkpt>
      <trkpt lat="45.88274" lon="4.73493">
        <ele>184</ele>
        <time>2018-07-19T10:50:30Z</time>
      </trkpt>
      <trkpt lat="45.88279" lon="4.7349">
        <ele>184</ele>
        <time>2018-07-19T10:50:31Z</time>
      </trkpt>
      <trkpt lat="45.88283" lon="4.73483">
        <ele>184</ele>
        <time>2018-07-19T10:50:32Z</time>
      </trkpt>
      <trkpt lat="45.88289" lon="4.73481">
        <ele>184</ele>
        <time>2018-07-19T10:50:33Z</time>
      </trkpt>
      <trkpt lat="45.88295" lon="4.73478">
        <ele>184</ele>
        <time>2018-07-19T10:50:34Z</time>
      </trkpt>
      <trkpt lat="45.883" lon="4.73475">
        <ele>184</ele>
        <time>2018-07-19T10:50:35Z</time>
      </trkpt>
      <trkpt lat="45.88309" lon="4.73472">
        <ele>184</ele>
        <time>2018-07-19T10:50:36Z</time>
      </trkpt>
      <trkpt lat="45.88315" lon="4.73468">
        <ele>184</ele>
        <time>2018-07-19T10:50:37Z</time>
      </trkpt>
      <trkpt lat="45.88322" lon="4.73466">
        <ele>184</ele>
        <time>2018-07-19T10:50:38Z</time>
      </trkpt>
      <trkpt lat="45.88329" lon="4.73464">
        <ele>184</ele>
        <time>2018-07-19T10:50:39Z</time>
      </trkpt>
      <trkpt lat="45.88334" lon="4.73464">
        <ele>184</ele>
        <time>2018-07-19T10:50:40Z</time>
      </trkpt>
      <trkpt lat="45.8834" lon="4.73463">
        <ele>184</ele>
        <time>2018-07-19T10:50:41Z</time>
      </trkpt>
      <trkpt lat="45.88347" lon="4.7346">
        <ele>184</ele>
        <time>2018-07-19T10:50:42Z</time>
      </trkpt>
      <trkpt lat="45.88353" lon="4.73457">
        <ele>184</ele>
        <time>2018-07-19T10:50:43Z</time>
      </trkpt>
      <trkpt lat="45.88359" lon="4.73457">
        <ele>184</ele>
        <time>2018-07-19T10:50:44Z</time>
      </trkpt>
      <trkpt lat="45.88364" lon="4.73456">
        <ele>184</ele>
        <time>2018-07-19T10:50:45Z</time>
      </trkpt>
      <trkpt lat="45.88368" lon="4.73455">
        <ele>184</ele>
        <time>2018-07-19T10:50:46Z</time>
      </trkpt>
      <trkpt lat="45.88374" lon="4.73455">
        <ele>184</ele>
        <time>2018-07-19T10:50:47Z</time>
      </trkpt>
      <trkpt lat="45.88379" lon="4.73454">
        <ele>184</ele>
        <time>2018-07-19T10:50:48Z</time>
      </trkpt>
      <trkpt lat="45.88385" lon="4.73451">
        <ele>184</ele>
        <time>2018-07-19T10:50:49Z</time>
      </trkpt>
      <trkpt lat="45.88389" lon="4.73452">
        <ele>184</ele>
        <time>2018-07-19T10:50:50Z</time>
      </trkpt>
      <trkpt lat="45.88394" lon="4.73451">
        <ele>184</ele>
        <time>2018-07-19T10:50:51Z</time>
      </trkpt>
      <trkpt lat="45.88401" lon="4.73445">
        <ele>184</ele>
        <time>2018-07-19T10:50:52Z</time>
      </trkpt>
      <trkpt lat="45.88407" lon="4.73445">
        <ele>184</ele>
        <time>2018-07-19T10:50:53Z</time>
      </trkpt>
      <trkpt lat="45.88413" lon="4.73444">
        <ele>184</ele>
        <time>2018-07-19T10:50:54Z</time>
      </trkpt>
      <trkpt lat="45.88418" lon="4.73442">
        <ele>184</ele>
        <time>2018-07-19T10:50:55Z</time>
      </trkpt>
      <trkpt lat="45.88424" lon="4.73442">
        <ele>184</ele>
        <time>2018-07-19T10:50:56Z</time>
      </trkpt>
      <trkpt lat="45.8843" lon="4.7344">
        <ele>184</ele>
        <time>2018-07-19T10:50:57Z</time>
      </trkpt>
      <trkpt lat="45.88438" lon="4.73439">
        <ele>184</ele>
        <time>2018-07-19T10:50:58Z</time>
      </trkpt>
      <trkpt lat="45.88444" lon="4.73437">
        <ele>184</ele>
        <time>2018-07-19T10:50:59Z</time>
      </trkpt>
      <trkpt lat="45.8845" lon="4.73434">
        <ele>184</ele>
        <time>2018-07-19T10:51:00Z</time>
      </trkpt>
      <trkpt lat="45.88457" lon="4.73433">
        <ele>184</ele>
        <time>2018-07-19T10:51:01Z</time>
      </trkpt>
      <trkpt lat="45.88463" lon="4.73431">
        <ele>184</ele>
        <time>2018-07-19T10:51:02Z</time>
      </trkpt>
      <trkpt lat="45.88468" lon="4.73429">
        <ele>184</ele>
        <time>2018-07-19T10:51:03Z</time>
      </trkpt>
      <trkpt lat="45.88474" lon="4.73426">
        <ele>184</ele>
        <time>2018-07-19T10:51:04Z</time>
      </trkpt>
      <trkpt lat="45.8848" lon="4.73424">
        <ele>184</ele>
        <time>2018-07-19T10:51:05Z</time>
      </trkpt>
      <trkpt lat="45.88487" lon="4.7342">
        <ele>184</ele>
        <time>2018-07-19T10:51:06Z</time>
      </trkpt>
      <trkpt lat="45.88495" lon="4.73413">
        <ele>184</ele>
        <time>2018-07-19T10:51:07Z</time>
      </trkpt>
      <trkpt lat="45.88502" lon="4.73411">
        <ele>184</ele>
        <time>2018-07-19T10:51:08Z</time>
      </trkpt>
      <trkpt lat="45.88508" lon="4.73409">
        <ele>184</ele>
        <time>2018-07-19T10:51:09Z</time>
      </trkpt>
      <trkpt lat="45.88514" lon="4.73407">
        <ele>184</ele>
        <time>2018-07-19T10:51:10Z</time>
      </trkpt>
      <trkpt lat="45.88519" lon="4.73406">
        <ele>184</ele>
        <time>2018-07-19T10:51:11Z</time>
      </trkpt>
      <trkpt lat="45.88525" lon="4.73404">
        <ele>183</ele>
        <time>2018-07-19T10:51:12Z</time>
      </trkpt>
      <trkpt lat="45.88528" lon="4.73404">
        <ele>183</ele>
        <time>2018-07-19T10:51:13Z</time>
      </trkpt>
      <trkpt lat="45.88532" lon="4.73402">
        <ele>183</ele>
        <time>2018-07-19T10:51:14Z</time>
      </trkpt>
      <trkpt lat="45.88537" lon="4.734">
        <ele>183</ele>
        <time>2018-07-19T10:51:15Z</time>
      </trkpt>
      <trkpt lat="45.88543" lon="4.73397">
        <ele>183</ele>
        <time>2018-07-19T10:51:16Z</time>
      </trkpt>
      <trkpt lat="45.88548" lon="4.73396">
        <ele>183</ele>
        <time>2018-07-19T10:51:17Z</time>
      </trkpt>
      <trkpt lat="45.88554" lon="4.73395">
        <ele>183</ele>
        <time>2018-07-19T10:51:18Z</time>
      </trkpt>
      <trkpt lat="45.8856" lon="4.73393">
        <ele>183</ele>
        <time>2018-07-19T10:51:19Z</time>
      </trkpt>
      <trkpt lat="45.88564" lon="4.73392">
        <ele>183</ele>
        <time>2018-07-19T10:51:20Z</time>
      </trkpt>
      <trkpt lat="45.8857" lon="4.73387">
        <ele>183</ele>
        <time>2018-07-19T10:51:21Z</time>
      </trkpt>
      <trkpt lat="45.88576" lon="4.73387">
        <ele>183</ele>
        <time>2018-07-19T10:51:22Z</time>
      </trkpt>
      <trkpt lat="45.8858" lon="4.73388">
        <ele>183</ele>
        <time>2018-07-19T10:51:23Z</time>
      </trkpt>
      <trkpt lat="45.88586" lon="4.73386">
        <ele>183</ele>
        <time>2018-07-19T10:51:24Z</time>
      </trkpt>
      <trkpt lat="45.88593" lon="4.73383">
        <ele>183</ele>
        <time>2018-07-19T10:51:25Z</time>
      </trkpt>
      <trkpt lat="45.88599" lon="4.73381">
        <ele>183</ele>
        <time>2018-07-19T10:51:26Z</time>
      </trkpt>
      <trkpt lat="45.88603" lon="4.73383">
        <ele>183</ele>
        <time>2018-07-19T10:51:27Z</time>
      </trkpt>
      <trkpt lat="45.88607" lon="4.73381">
        <ele>183</ele>
        <time>2018-07-19T10:51:28Z</time>
      </trkpt>
      <trkpt lat="45.88613" lon="4.73381">
        <ele>183</ele>
        <time>2018-07-19T10:51:29Z</time>
      </trkpt>
      <trkpt lat="45.88618" lon="4.73383">
        <ele>183</ele>
        <time>2018-07-19T10:51:30Z</time>
      </trkpt>
      <trkpt lat="45.88623" lon="4.73386">
        <ele>183</ele>
        <time>2018-07-19T10:51:31Z</time>
      </trkpt>
      <trkpt lat="45.88628" lon="4.7339">
        <ele>183</ele>
        <time>2018-07-19T10:51:32Z</time>
      </trkpt>
      <trkpt lat="45.88631" lon="4.73396">
        <ele>183</ele>
        <time>2018-07-19T10:51:33Z</time>
      </trkpt>
      <trkpt lat="45.88634" lon="4.73402">
        <ele>183</ele>
        <time>2018-07-19T10:51:34Z</time>
      </trkpt>
      <trkpt lat="45.88635" lon="4.73409">
        <ele>183</ele>
        <time>2018-07-19T10:51:35Z</time>
      </trkpt>
      <trkpt lat="45.88634" lon="4.73416">
        <ele>183</ele>
        <time>2018-07-19T10:51:36Z</time>
      </trkpt>
      <trkpt lat="45.88633" lon="4.73423">
        <ele>184</ele>
        <time>2018-07-19T10:51:37Z</time>
      </trkpt>
      <trkpt lat="45.88631" lon="4.73432">
        <ele>184</ele>
        <time>2018-07-19T10:51:38Z</time>
      </trkpt>
      <trkpt lat="45.8863" lon="4.73439">
        <ele>184</ele>
        <time>2018-07-19T10:51:39Z</time>
      </trkpt>
      <trkpt lat="45.88629" lon="4.73446">
        <ele>184</ele>
        <time>2018-07-19T10:51:40Z</time>
      </trkpt>
      <trkpt lat="45.88628" lon="4.73453">
        <ele>184</ele>
        <time>2018-07-19T10:51:41Z</time>
      </trkpt>
      <trkpt lat="45.88629" lon="4.7346">
        <ele>184</ele>
        <time>2018-07-19T10:51:42Z</time>
      </trkpt>
      <trkpt lat="45.8863" lon="4.73468">
        <ele>184</ele>
        <time>2018-07-19T10:51:43Z</time>
      </trkpt>
      <trkpt lat="45.88632" lon="4.73475">
        <ele>184</ele>
        <time>2018-07-19T10:51:44Z</time>
      </trkpt>
      <trkpt lat="45.88634" lon="4.73483">
        <ele>184</ele>
        <time>2018-07-19T10:51:45Z</time>
      </trkpt>
      <trkpt lat="45.88637" lon="4.7349">
        <ele>184</ele>
        <time>2018-07-19T10:51:46Z</time>
      </trkpt>
      <trkpt lat="45.88638" lon="4.73496">
        <ele>184</ele>
        <time>2018-07-19T10:51:47Z</time>
      </trkpt>
      <trkpt lat="45.88641" lon="4.73502">
        <ele>185</ele>
        <time>2018-07-19T10:51:48Z</time>
      </trkpt>
      <trkpt lat="45.88642" lon="4.73509">
        <ele>185</ele>
        <time>2018-07-19T10:51:49Z</time>
      </trkpt>
      <trkpt lat="45.88644" lon="4.73516">
        <ele>185</ele>
        <time>2018-07-19T10:51:50Z</time>
      </trkpt>
      <trkpt lat="45.88645" lon="4.73524">
        <ele>185</ele>
        <time>2018-07-19T10:51:51Z</time>
      </trkpt>
      <trkpt lat="45.88644" lon="4.73535">
        <ele>185</ele>
        <time>2018-07-19T10:51:53Z</time>
      </trkpt>
      <trkpt lat="45.88644" lon="4.73541">
        <ele>185</ele>
        <time>2018-07-19T10:51:54Z</time>
      </trkpt>
      <trkpt lat="45.88643" lon="4.73553">
        <ele>185</ele>
        <time>2018-07-19T10:51:56Z</time>
      </trkpt>
      <trkpt lat="45.88644" lon="4.73559">
        <ele>185</ele>
        <time>2018-07-19T10:51:57Z</time>
      </trkpt>
      <trkpt lat="45.88644" lon="4.73569">
        <ele>185</ele>
        <time>2018-07-19T10:51:59Z</time>
      </trkpt>
      <trkpt lat="45.88644" lon="4.73573">
        <ele>185</ele>
        <time>2018-07-19T10:52:00Z</time>
      </trkpt>
      <trkpt lat="45.88643" lon="4.73583">
        <ele>185</ele>
        <time>2018-07-19T10:52:03Z</time>
      </trkpt>
      <trkpt lat="45.88643" lon="4.73587">
        <ele>185</ele>
        <time>2018-07-19T10:52:04Z</time>
      </trkpt>
      <trkpt lat="45.88643" lon="4.736">
        <ele>186</ele>
        <time>2018-07-19T10:52:07Z</time>
      </trkpt>
      <trkpt lat="45.88643" lon="4.73604">
        <ele>186</ele>
        <time>2018-07-19T10:52:08Z</time>
      </trkpt>
      <trkpt lat="45.88643" lon="4.73614">
        <ele>186</ele>
        <time>2018-07-19T10:52:10Z</time>
      </trkpt>
      <trkpt lat="45.88643" lon="4.73618">
        <ele>186</ele>
        <time>2018-07-19T10:52:11Z</time>
      </trkpt>
      <trkpt lat="45.88643" lon="4.73622">
        <ele>186</ele>
        <time>2018-07-19T10:52:12Z</time>
      </trkpt>
      <trkpt lat="45.88643" lon="4.73636">
        <ele>186</ele>
        <time>2018-07-19T10:52:13Z</time>
      </trkpt>
      <trkpt lat="45.88643" lon="4.73641">
        <ele>186</ele>
        <time>2018-07-19T10:52:15Z</time>
      </trkpt>
      <trkpt lat="45.88643" lon="4.73651">
        <ele>186</ele>
        <time>2018-07-19T10:52:16Z</time>
      </trkpt>
      <trkpt lat="45.88642" lon="4.73662">
        <ele>186</ele>
        <time>2018-07-19T10:52:18Z</time>
      </trkpt>
      <trkpt lat="45.88642" lon="4.73668">
        <ele>186</ele>
        <time>2018-07-19T10:52:19Z</time>
      </trkpt>
      <trkpt lat="45.88643" lon="4.73678">
        <ele>186</ele>
        <time>2018-07-19T10:52:21Z</time>
      </trkpt>
      <trkpt lat="45.88643" lon="4.73684">
        <ele>186</ele>
        <time>2018-07-19T10:52:22Z</time>
      </trkpt>
      <trkpt lat="45.88642" lon="4.73695">
        <ele>186</ele>
        <time>2018-07-19T10:52:24Z</time>
      </trkpt>
      <trkpt lat="45.88642" lon="4.73701">
        <ele>186</ele>
        <time>2018-07-19T10:52:25Z</time>
      </trkpt>
      <trkpt lat="45.88644" lon="4.73713">
        <ele>186</ele>
        <time>2018-07-19T10:52:27Z</time>
      </trkpt>
      <trkpt lat="45.88643" lon="4.73719">
        <ele>186</ele>
        <time>2018-07-19T10:52:28Z</time>
      </trkpt>
      <trkpt lat="45.88642" lon="4.73726">
        <ele>186</ele>
        <time>2018-07-19T10:52:29Z</time>
      </trkpt>
      <trkpt lat="45.88641" lon="4.73734">
        <ele>186</ele>
        <time>2018-07-19T10:52:30Z</time>
      </trkpt>
      <trkpt lat="45.88641" lon="4.73742">
        <ele>186</ele>
        <time>2018-07-19T10:52:31Z</time>
      </trkpt>
      <trkpt lat="45.88641" lon="4.7375">
        <ele>186</ele>
        <time>2018-07-19T10:52:32Z</time>
      </trkpt>
      <trkpt lat="45.88641" lon="4.73759">
        <ele>187</ele>
        <time>2018-07-19T10:52:33Z</time>
      </trkpt>
      <trkpt lat="45.88641" lon="4.73768">
        <ele>187</ele>
        <time>2018-07-19T10:52:34Z</time>
      </trkpt>
      <trkpt lat="45.8864" lon="4.73776">
        <ele>187</ele>
        <time>2018-07-19T10:52:35Z</time>
      </trkpt>
      <trkpt lat="45.88641" lon="4.73786">
        <ele>187</ele>
        <time>2018-07-19T10:52:36Z</time>
      </trkpt>
      <trkpt lat="45.88641" lon="4.73796">
        <ele>187</ele>
        <time>2018-07-19T10:52:37Z</time>
      </trkpt>
      <trkpt lat="45.88642" lon="4.73806">
        <ele>187</ele>
        <time>2018-07-19T10:52:38Z</time>
      </trkpt>
      <trkpt lat="45.88641" lon="4.73816">
        <ele>187</ele>
        <time>2018-07-19T10:52:39Z</time>
      </trkpt>
      <trkpt lat="45.88641" lon="4.73826">
        <ele>187</ele>
        <time>2018-07-19T10:52:40Z</time>
      </trkpt>
      <trkpt lat="45.88642" lon="4.73837">
        <ele>187</ele>
        <time>2018-07-19T10:52:41Z</time>
      </trkpt>
      <trkpt lat="45.88641" lon="4.73847">
        <ele>187</ele>
        <time>2018-07-19T10:52:42Z</time>
      </trkpt>
      <trkpt lat="45.88641" lon="4.73858">
        <ele>187</ele>
        <time>2018-07-19T10:52:43Z</time>
      </trkpt>
      <trkpt lat="45.88639" lon="4.73867">
        <ele>187</ele>
        <time>2018-07-19T10:52:44Z</time>
      </trkpt>
      <trkpt lat="45.88641" lon="4.73878">
        <ele>187</ele>
        <time>2018-07-19T10:52:45Z</time>
      </trkpt>
      <trkpt lat="45.88641" lon="4.73888">
        <ele>187</ele>
        <time>2018-07-19T10:52:46Z</time>
      </trkpt>
      <trkpt lat="45.8864" lon="4.73897">
        <ele>187</ele>
        <time>2018-07-19T10:52:47Z</time>
      </trkpt>
      <trkpt lat="45.8864" lon="4.73906">
        <ele>187</ele>
        <time>2018-07-19T10:52:48Z</time>
      </trkpt>
      <trkpt lat="45.8864" lon="4.73914">
        <ele>187</ele>
        <time>2018-07-19T10:52:49Z</time>
      </trkpt>
      <trkpt lat="45.88641" lon="4.73922">
        <ele>187</ele>
        <time>2018-07-19T10:52:50Z</time>
      </trkpt>
      <trkpt lat="45.88641" lon="4.73929">
        <ele>187</ele>
        <time>2018-07-19T10:52:51Z</time>
      </trkpt>
      <trkpt lat="45.88642" lon="4.73937">
        <ele>187</ele>
        <time>2018-07-19T10:52:52Z</time>
      </trkpt>
      <trkpt lat="45.88643" lon="4.73945">
        <ele>187</ele>
        <time>2018-07-19T10:52:53Z</time>
      </trkpt>
      <trkpt lat="45.88644" lon="4.73952">
        <ele>187</ele>
        <time>2018-07-19T10:52:54Z</time>
      </trkpt>
      <trkpt lat="45.88644" lon="4.73961">
        <ele>187</ele>
        <time>2018-07-19T10:52:55Z</time>
      </trkpt>
      <trkpt lat="45.88645" lon="4.73968">
        <ele>187</ele>
        <time>2018-07-19T10:52:56Z</time>
      </trkpt>
      <trkpt lat="45.88646" lon="4.73975">
        <ele>187</ele>
        <time>2018-07-19T10:52:57Z</time>
      </trkpt>
      <trkpt lat="45.88647" lon="4.73982">
        <ele>187</ele>
        <time>2018-07-19T10:52:58Z</time>
      </trkpt>
      <trkpt lat="45.88649" lon="4.7399">
        <ele>186</ele>
        <time>2018-07-19T10:52:59Z</time>
      </trkpt>
      <trkpt lat="45.88651" lon="4.73999">
        <ele>186</ele>
        <time>2018-07-19T10:53:00Z</time>
      </trkpt>
      <trkpt lat="45.88652" lon="4.74007">
        <ele>187</ele>
        <time>2018-07-19T10:53:01Z</time>
      </trkpt>
      <trkpt lat="45.88654" lon="4.74015">
        <ele>187</ele>
        <time>2018-07-19T10:53:02Z</time>
      </trkpt>
      <trkpt lat="45.88655" lon="4.74023">
        <ele>187</ele>
        <time>2018-07-19T10:53:03Z</time>
      </trkpt>
      <trkpt lat="45.88656" lon="4.7403">
        <ele>187</ele>
        <time>2018-07-19T10:53:04Z</time>
      </trkpt>
      <trkpt lat="45.8866" lon="4.74037">
        <ele>187</ele>
        <time>2018-07-19T10:53:05Z</time>
      </trkpt>
      <trkpt lat="45.88663" lon="4.74043">
        <ele>187</ele>
        <time>2018-07-19T10:53:06Z</time>
      </trkpt>
      <trkpt lat="45.88664" lon="4.74049">
        <ele>187</ele>
        <time>2018-07-19T10:53:07Z</time>
      </trkpt>
      <trkpt lat="45.88665" lon="4.74057">
        <ele>187</ele>
        <time>2018-07-19T10:53:08Z</time>
      </trkpt>
      <trkpt lat="45.88667" lon="4.74064">
        <ele>187</ele>
        <time>2018-07-19T10:53:09Z</time>
      </trkpt>
      <trkpt lat="45.88668" lon="4.74072">
        <ele>188</ele>
        <time>2018-07-19T10:53:10Z</time>
      </trkpt>
      <trkpt lat="45.88668" lon="4.74081">
        <ele>188</ele>
        <time>2018-07-19T10:53:11Z</time>
      </trkpt>
      <trkpt lat="45.8867" lon="4.74088">
        <ele>188</ele>
        <time>2018-07-19T10:53:12Z</time>
      </trkpt>
      <trkpt lat="45.88673" lon="4.74097">
        <ele>188</ele>
        <time>2018-07-19T10:53:13Z</time>
      </trkpt>
      <trkpt lat="45.88677" lon="4.74103">
        <ele>188</ele>
        <time>2018-07-19T10:53:14Z</time>
      </trkpt>
      <trkpt lat="45.88679" lon="4.74108">
        <ele>188</ele>
        <time>2018-07-19T10:53:15Z</time>
      </trkpt>
      <trkpt lat="45.88684" lon="4.74111">
        <ele>188</ele>
        <time>2018-07-19T10:53:16Z</time>
      </trkpt>
      <trkpt lat="45.88689" lon="4.74112">
        <ele>188</ele>
        <time>2018-07-19T10:53:17Z</time>
      </trkpt>
      <trkpt lat="45.88693" lon="4.74113">
        <ele>188</ele>
        <time>2018-07-19T10:53:18Z</time>
      </trkpt>
      <trkpt lat="45.88701" lon="4.74118">
        <ele>188</ele>
        <time>2018-07-19T10:53:20Z</time>
      </trkpt>
      <trkpt lat="45.88706" lon="4.7412">
        <ele>188</ele>
        <time>2018-07-19T10:53:21Z</time>
      </trkpt>
      <trkpt lat="45.88713" lon="4.74127">
        <ele>188</ele>
        <time>2018-07-19T10:53:23Z</time>
      </trkpt>
      <trkpt lat="45.88718" lon="4.74129">
        <ele>188</ele>
        <time>2018-07-19T10:53:24Z</time>
      </trkpt>
      <trkpt lat="45.88723" lon="4.74131">
        <ele>188</ele>
        <time>2018-07-19T10:53:25Z</time>
      </trkpt>
      <trkpt lat="45.88727" lon="4.74136">
        <ele>188</ele>
        <time>2018-07-19T10:53:26Z</time>
      </trkpt>
      <trkpt lat="45.88731" lon="4.74139">
        <ele>188</ele>
        <time>2018-07-19T10:53:27Z</time>
      </trkpt>
      <trkpt lat="45.88736" lon="4.74143">
        <ele>188</ele>
        <time>2018-07-19T10:53:28Z</time>
      </trkpt>
      <trkpt lat="45.8874" lon="4.74147">
        <ele>188</ele>
        <time>2018-07-19T10:53:29Z</time>
      </trkpt>
      <trkpt lat="45.88744" lon="4.7415">
        <ele>188</ele>
        <time>2018-07-19T10:53:30Z</time>
      </trkpt>
      <trkpt lat="45.88748" lon="4.74154">
        <ele>188</ele>
        <time>2018-07-19T10:53:31Z</time>
      </trkpt>
      <trkpt lat="45.88753" lon="4.74157">
        <ele>188</ele>
        <time>2018-07-19T10:53:32Z</time>
      </trkpt>
      <trkpt lat="45.88757" lon="4.7416">
        <ele>188</ele>
        <time>2018-07-19T10:53:33Z</time>
      </trkpt>
      <trkpt lat="45.88761" lon="4.74163">
        <ele>187</ele>
        <time>2018-07-19T10:53:34Z</time>
      </trkpt>
      <trkpt lat="45.88767" lon="4.74164">
        <ele>187</ele>
        <time>2018-07-19T10:53:35Z</time>
      </trkpt>
      <trkpt lat="45.8877" lon="4.74167">
        <ele>187</ele>
        <time>2018-07-19T10:53:36Z</time>
      </trkpt>
      <trkpt lat="45.88777" lon="4.74172">
        <ele>188</ele>
        <time>2018-07-19T10:53:38Z</time>
      </trkpt>
      <trkpt lat="45.8878" lon="4.74177">
        <ele>188</ele>
        <time>2018-07-19T10:53:39Z</time>
      </trkpt>
      <trkpt lat="45.88787" lon="4.7418">
        <ele>188</ele>
        <time>2018-07-19T10:53:40Z</time>
      </trkpt>
      <trkpt lat="45.88792" lon="4.74181">
        <ele>188</ele>
        <time>2018-07-19T10:53:41Z</time>
      </trkpt>
      <trkpt lat="45.88798" lon="4.74182">
        <ele>187</ele>
        <time>2018-07-19T10:53:42Z</time>
      </trkpt>
      <trkpt lat="45.88802" lon="4.74185">
        <ele>187</ele>
        <time>2018-07-19T10:53:43Z</time>
      </trkpt>
      <trkpt lat="45.88807" lon="4.74188">
        <ele>187</ele>
        <time>2018-07-19T10:53:44Z</time>
      </trkpt>
      <trkpt lat="45.88812" lon="4.7419">
        <ele>187</ele>
        <time>2018-07-19T10:53:45Z</time>
      </trkpt>
      <trkpt lat="45.88817" lon="4.74193">
        <ele>187</ele>
        <time>2018-07-19T10:53:46Z</time>
      </trkpt>
      <trkpt lat="45.88822" lon="4.74196">
        <ele>187</ele>
        <time>2018-07-19T10:53:47Z</time>
      </trkpt>
      <trkpt lat="45.88827" lon="4.74198">
        <ele>187</ele>
        <time>2018-07-19T10:53:48Z</time>
      </trkpt>
      <trkpt lat="45.88831" lon="4.742">
        <ele>187</ele>
        <time>2018-07-19T10:53:49Z</time>
      </trkpt>
      <trkpt lat="45.88835" lon="4.74202">
        <ele>187</ele>
        <time>2018-07-19T10:53:50Z</time>
      </trkpt>
      <trkpt lat="45.8884" lon="4.74204">
        <ele>187</ele>
        <time>2018-07-19T10:53:51Z</time>
      </trkpt>
      <trkpt lat="45.88846" lon="4.74207">
        <ele>187</ele>
        <time>2018-07-19T10:53:52Z</time>
      </trkpt>
      <trkpt lat="45.8885" lon="4.74211">
        <ele>187</ele>
        <time>2018-07-19T10:53:53Z</time>
      </trkpt>
      <trkpt lat="45.88856" lon="4.74211">
        <ele>187</ele>
        <time>2018-07-19T10:53:54Z</time>
      </trkpt>
      <trkpt lat="45.88862" lon="4.74214">
        <ele>187</ele>
        <time>2018-07-19T10:53:55Z</time>
      </trkpt>
      <trkpt lat="45.88869" lon="4.74222">
        <ele>187</ele>
        <time>2018-07-19T10:53:57Z</time>
      </trkpt>
      <trkpt lat="45.8887" lon="4.74223">
        <ele>187</ele>
        <time>2018-07-19T10:53:58Z</time>
      </trkpt>
      <trkpt lat="45.88877" lon="4.7423">
        <ele>187</ele>
        <time>2018-07-19T10:53:59Z</time>
      </trkpt>
      <trkpt lat="45.88881" lon="4.74233">
        <ele>187</ele>
        <time>2018-07-19T10:54:00Z</time>
      </trkpt>
      <trkpt lat="45.88885" lon="4.74239">
        <ele>187</ele>
        <time>2018-07-19T10:54:01Z</time>
      </trkpt>
      <trkpt lat="45.88891" lon="4.74241">
        <ele>187</ele>
        <time>2018-07-19T10:54:02Z</time>
      </trkpt>
      <trkpt lat="45.88894" lon="4.74247">
        <ele>187</ele>
        <time>2018-07-19T10:54:03Z</time>
      </trkpt>
      <trkpt lat="45.889" lon="4.74251">
        <ele>187</ele>
        <time>2018-07-19T10:54:04Z</time>
      </trkpt>
      <trkpt lat="45.88904" lon="4.74255">
        <ele>187</ele>
        <time>2018-07-19T10:54:05Z</time>
      </trkpt>
      <trkpt lat="45.88909" lon="4.74259">
        <ele>187</ele>
        <time>2018-07-19T10:54:06Z</time>
      </trkpt>
      <trkpt lat="45.88913" lon="4.7426">
        <ele>187</ele>
        <time>2018-07-19T10:54:07Z</time>
      </trkpt>
      <trkpt lat="45.88917" lon="4.74263">
        <ele>187</ele>
        <time>2018-07-19T10:54:08Z</time>
      </trkpt>
      <trkpt lat="45.88923" lon="4.74267">
        <ele>187</ele>
        <time>2018-07-19T10:54:09Z</time>
      </trkpt>
      <trkpt lat="45.88928" lon="4.74269">
        <ele>187</ele>
        <time>2018-07-19T10:54:10Z</time>
      </trkpt>
      <trkpt lat="45.88933" lon="4.74273">
        <ele>187</ele>
        <time>2018-07-19T10:54:11Z</time>
      </trkpt>
      <trkpt lat="45.88937" lon="4.74277">
        <ele>187</ele>
        <time>2018-07-19T10:54:12Z</time>
      </trkpt>
      <trkpt lat="45.88945" lon="4.74279">
        <ele>187</ele>
        <time>2018-07-19T10:54:14Z</time>
      </trkpt>
      <trkpt lat="45.88947" lon="4.7428">
        <ele>187</ele>
        <time>2018-07-19T10:54:15Z</time>
      </trkpt>
      <trkpt lat="45.88954" lon="4.74281">
        <ele>187</ele>
        <time>2018-07-19T10:54:19Z</time>
      </trkpt>
      <trkpt lat="45.88957" lon="4.7428">
        <ele>187</ele>
        <time>2018-07-19T10:54:20Z</time>
      </trkpt>
      <trkpt lat="45.88963" lon="4.74287">
        <ele>187</ele>
        <time>2018-07-19T10:54:27Z</time>
      </trkpt>
      <trkpt lat="45.88964" lon="4.74289">
        <ele>187</ele>
        <time>2018-07-19T10:54:28Z</time>
      </trkpt>
      <trkpt lat="45.88971" lon="4.74295">
        <ele>187</ele>
        <time>2018-07-19T10:54:34Z</time>
      </trkpt>
      <trkpt lat="45.88972" lon="4.74295">
        <ele>187</ele>
        <time>2018-07-19T10:54:35Z</time>
      </trkpt>
      <trkpt lat="45.8898" lon="4.74294">
        <ele>187</ele>
        <time>2018-07-19T10:54:36Z</time>
      </trkpt>
      <trkpt lat="45.88982" lon="4.74293">
        <ele>187</ele>
        <time>2018-07-19T10:54:37Z</time>
      </trkpt>
      <trkpt lat="45.88988" lon="4.74293">
        <ele>187</ele>
        <time>2018-07-19T10:54:38Z</time>
      </trkpt>
      <trkpt lat="45.88993" lon="4.74292">
        <ele>187</ele>
        <time>2018-07-19T10:54:39Z</time>
      </trkpt>
      <trkpt lat="45.88999" lon="4.74289">
        <ele>187</ele>
        <time>2018-07-19T10:54:40Z</time>
      </trkpt>
      <trkpt lat="45.89006" lon="4.74286">
        <ele>187</ele>
        <time>2018-07-19T10:54:41Z</time>
      </trkpt>
      <trkpt lat="45.89013" lon="4.74283">
        <ele>187</ele>
        <time>2018-07-19T10:54:42Z</time>
      </trkpt>
      <trkpt lat="45.89018" lon="4.74282">
        <ele>187</ele>
        <time>2018-07-19T10:54:43Z</time>
      </trkpt>
      <trkpt lat="45.89024" lon="4.74281">
        <ele>187</ele>
        <time>2018-07-19T10:54:44Z</time>
      </trkpt>
      <trkpt lat="45.89028" lon="4.74281">
        <ele>187</ele>
        <time>2018-07-19T10:54:45Z</time>
      </trkpt>
      <trkpt lat="45.89035" lon="4.74279">
        <ele>187</ele>
        <time>2018-07-19T10:54:46Z</time>
      </trkpt>
      <trkpt lat="45.8904" lon="4.74275">
        <ele>187</ele>
        <time>2018-07-19T10:54:47Z</time>
      </trkpt>
      <trkpt lat="45.89046" lon="4.74272">
        <ele>187</ele>
        <time>2018-07-19T10:54:48Z</time>
      </trkpt>
      <trkpt lat="45.89051" lon="4.74271">
        <ele>187</ele>
        <time>2018-07-19T10:54:49Z</time>
      </trkpt>
      <trkpt lat="45.89057" lon="4.74268">
        <ele>187</ele>
        <time>2018-07-19T10:54:50Z</time>
      </trkpt>
      <trkpt lat="45.8906" lon="4.74268">
        <ele>187</ele>
        <time>2018-07-19T10:54:51Z</time>
      </trkpt>
      <trkpt lat="45.89065" lon="4.74267">
        <ele>186</ele>
        <time>2018-07-19T10:54:52Z</time>
      </trkpt>
      <trkpt lat="45.8907" lon="4.74265">
        <ele>186</ele>
        <time>2018-07-19T10:54:53Z</time>
      </trkpt>
      <trkpt lat="45.89075" lon="4.74264">
        <ele>186</ele>
        <time>2018-07-19T10:54:54Z</time>
      </trkpt>
      <trkpt lat="45.8908" lon="4.74261">
        <ele>186</ele>
        <time>2018-07-19T10:54:55Z</time>
      </trkpt>
      <trkpt lat="45.89086" lon="4.74258">
        <ele>186</ele>
        <time>2018-07-19T10:54:56Z</time>
      </trkpt>
      <trkpt lat="45.89092" lon="4.74256">
        <ele>186</ele>
        <time>2018-07-19T10:54:57Z</time>
      </trkpt>
      <trkpt lat="45.89097" lon="4.74253">
        <ele>186</ele>
        <time>2018-07-19T10:54:58Z</time>
      </trkpt>
      <trkpt lat="45.89102" lon="4.74253">
        <ele>187</ele>
        <time>2018-07-19T10:54:59Z</time>
      </trkpt>
      <trkpt lat="45.89111" lon="4.74249">
        <ele>186</ele>
        <time>2018-07-19T10:55:01Z</time>
      </trkpt>
      <trkpt lat="45.89116" lon="4.74245">
        <ele>186</ele>
        <time>2018-07-19T10:55:02Z</time>
      </trkpt>
      <trkpt lat="45.89122" lon="4.74243">
        <ele>186</ele>
        <time>2018-07-19T10:55:03Z</time>
      </trkpt>
      <trkpt lat="45.89127" lon="4.74241">
        <ele>186</ele>
        <time>2018-07-19T10:55:04Z</time>
      </trkpt>
      <trkpt lat="45.89132" lon="4.7424">
        <ele>186</ele>
        <time>2018-07-19T10:55:05Z</time>
      </trkpt>
      <trkpt lat="45.89137" lon="4.74239">
        <ele>186</ele>
        <time>2018-07-19T10:55:06Z</time>
      </trkpt>
      <trkpt lat="45.89143" lon="4.74238">
        <ele>186</ele>
        <time>2018-07-19T10:55:07Z</time>
      </trkpt>
      <trkpt lat="45.89149" lon="4.74234">
        <ele>186</ele>
        <time>2018-07-19T10:55:08Z</time>
      </trkpt>
      <trkpt lat="45.89155" lon="4.74232">
        <ele>186</ele>
        <time>2018-07-19T10:55:09Z</time>
      </trkpt>
      <trkpt lat="45.89162" lon="4.74229">
        <ele>186</ele>
        <time>2018-07-19T10:55:10Z</time>
      </trkpt>
      <trkpt lat="45.89168" lon="4.74226">
        <ele>186</ele>
        <time>2018-07-19T10:55:11Z</time>
      </trkpt>
      <trkpt lat="45.89173" lon="4.74223">
        <ele>186</ele>
        <time>2018-07-19T10:55:12Z</time>
      </trkpt>
      <trkpt lat="45.8918" lon="4.74219">
        <ele>186</ele>
        <time>2018-07-19T10:55:13Z</time>
      </trkpt>
      <trkpt lat="45.89185" lon="4.74218">
        <ele>186</ele>
        <time>2018-07-19T10:55:14Z</time>
      </trkpt>
      <trkpt lat="45.8919" lon="4.74216">
        <ele>186</ele>
        <time>2018-07-19T10:55:15Z</time>
      </trkpt>
      <trkpt lat="45.89196" lon="4.74215">
        <ele>186</ele>
        <time>2018-07-19T10:55:16Z</time>
      </trkpt>
      <trkpt lat="45.89201" lon="4.74212">
        <ele>186</ele>
        <time>2018-07-19T10:55:17Z</time>
      </trkpt>
      <trkpt lat="45.89209" lon="4.74208">
        <ele>186</ele>
        <time>2018-07-19T10:55:18Z</time>
      </trkpt>
      <trkpt lat="45.89214" lon="4.74206">
        <ele>186</ele>
        <time>2018-07-19T10:55:19Z</time>
      </trkpt>
      <trkpt lat="45.8922" lon="4.74203">
        <ele>186</ele>
        <time>2018-07-19T10:55:20Z</time>
      </trkpt>
      <trkpt lat="45.89227" lon="4.742">
        <ele>186</ele>
        <time>2018-07-19T10:55:21Z</time>
      </trkpt>
      <trkpt lat="45.89231" lon="4.74199">
        <ele>186</ele>
        <time>2018-07-19T10:55:22Z</time>
      </trkpt>
      <trkpt lat="45.89238" lon="4.74196">
        <ele>186</ele>
        <time>2018-07-19T10:55:23Z</time>
      </trkpt>
      <trkpt lat="45.89242" lon="4.74195">
        <ele>186</ele>
        <time>2018-07-19T10:55:24Z</time>
      </trkpt>
      <trkpt lat="45.89247" lon="4.74193">
        <ele>186</ele>
        <time>2018-07-19T10:55:25Z</time>
      </trkpt>
      <trkpt lat="45.89252" lon="4.74192">
        <ele>186</ele>
        <time>2018-07-19T10:55:26Z</time>
      </trkpt>
      <trkpt lat="45.89257" lon="4.7419">
        <ele>186</ele>
        <time>2018-07-19T10:55:27Z</time>
      </trkpt>
      <trkpt lat="45.89262" lon="4.74188">
        <ele>186</ele>
        <time>2018-07-19T10:55:28Z</time>
      </trkpt>
      <trkpt lat="45.89267" lon="4.74186">
        <ele>186</ele>
        <time>2018-07-19T10:55:29Z</time>
      </trkpt>
      <trkpt lat="45.89272" lon="4.74184">
        <ele>186</ele>
        <time>2018-07-19T10:55:30Z</time>
      </trkpt>
      <trkpt lat="45.89277" lon="4.74182">
        <ele>186</ele>
        <time>2018-07-19T10:55:31Z</time>
      </trkpt>
      <trkpt lat="45.89281" lon="4.74181">
        <ele>186</ele>
        <time>2018-07-19T10:55:32Z</time>
      </trkpt>
      <trkpt lat="45.8929" lon="4.74178">
        <ele>186</ele>
        <time>2018-07-19T10:55:34Z</time>
      </trkpt>
      <trkpt lat="45.89294" lon="4.74177">
        <ele>186</ele>
        <time>2018-07-19T10:55:35Z</time>
      </trkpt>
      <trkpt lat="45.89299" lon="4.74176">
        <ele>186</ele>
        <time>2018-07-19T10:55:36Z</time>
      </trkpt>
      <trkpt lat="45.89303" lon="4.7417">
        <ele>186</ele>
        <time>2018-07-19T10:55:37Z</time>
      </trkpt>
      <trkpt lat="45.89309" lon="4.74166">
        <ele>185</ele>
        <time>2018-07-19T10:55:38Z</time>
      </trkpt>
      <trkpt lat="45.89315" lon="4.74163">
        <ele>185</ele>
        <time>2018-07-19T10:55:39Z</time>
      </trkpt>
      <trkpt lat="45.8932" lon="4.7416">
        <ele>185</ele>
        <time>2018-07-19T10:55:40Z</time>
      </trkpt>
      <trkpt lat="45.89326" lon="4.7416">
        <ele>186</ele>
        <time>2018-07-19T10:55:41Z</time>
      </trkpt>
      <trkpt lat="45.89333" lon="4.74156">
        <ele>186</ele>
        <time>2018-07-19T10:55:42Z</time>
      </trkpt>
      <trkpt lat="45.8934" lon="4.74152">
        <ele>185</ele>
        <time>2018-07-19T10:55:43Z</time>
      </trkpt>
      <trkpt lat="45.89346" lon="4.74149">
        <ele>185</ele>
        <time>2018-07-19T10:55:44Z</time>
      </trkpt>
      <trkpt lat="45.89352" lon="4.74147">
        <ele>185</ele>
        <time>2018-07-19T10:55:45Z</time>
      </trkpt>
      <trkpt lat="45.89358" lon="4.74144">
        <ele>184</ele>
        <time>2018-07-19T10:55:46Z</time>
      </trkpt>
      <trkpt lat="45.89365" lon="4.74139">
        <ele>184</ele>
        <time>2018-07-19T10:55:47Z</time>
      </trkpt>
      <trkpt lat="45.89371" lon="4.74137">
        <ele>184</ele>
        <time>2018-07-19T10:55:48Z</time>
      </trkpt>
      <trkpt lat="45.89375" lon="4.74135">
        <ele>184</ele>
        <time>2018-07-19T10:55:49Z</time>
      </trkpt>
      <trkpt lat="45.8938" lon="4.74133">
        <ele>184</ele>
        <time>2018-07-19T10:55:50Z</time>
      </trkpt>
      <trkpt lat="45.89385" lon="4.74133">
        <ele>184</ele>
        <time>2018-07-19T10:55:51Z</time>
      </trkpt>
      <trkpt lat="45.8939" lon="4.74131">
        <ele>184</ele>
        <time>2018-07-19T10:55:52Z</time>
      </trkpt>
      <trkpt lat="45.89396" lon="4.74128">
        <ele>184</ele>
        <time>2018-07-19T10:55:53Z</time>
      </trkpt>
      <trkpt lat="45.894" lon="4.74126">
        <ele>184</ele>
        <time>2018-07-19T10:55:54Z</time>
      </trkpt>
      <trkpt lat="45.89407" lon="4.74123">
        <ele>184</ele>
        <time>2018-07-19T10:55:55Z</time>
      </trkpt>
      <trkpt lat="45.89414" lon="4.7412">
        <ele>184</ele>
        <time>2018-07-19T10:55:56Z</time>
      </trkpt>
      <trkpt lat="45.89419" lon="4.74118">
        <ele>183</ele>
        <time>2018-07-19T10:55:57Z</time>
      </trkpt>
      <trkpt lat="45.89425" lon="4.74116">
        <ele>183</ele>
        <time>2018-07-19T10:55:58Z</time>
      </trkpt>
      <trkpt lat="45.89431" lon="4.74113">
        <ele>183</ele>
        <time>2018-07-19T10:55:59Z</time>
      </trkpt>
      <trkpt lat="45.89435" lon="4.74111">
        <ele>183</ele>
        <time>2018-07-19T10:56:00Z</time>
      </trkpt>
      <trkpt lat="45.8944" lon="4.74109">
        <ele>183</ele>
        <time>2018-07-19T10:56:01Z</time>
      </trkpt>
      <trkpt lat="45.89447" lon="4.74106">
        <ele>183</ele>
        <time>2018-07-19T10:56:02Z</time>
      </trkpt>
      <trkpt lat="45.89452" lon="4.74104">
        <ele>182</ele>
        <time>2018-07-19T10:56:03Z</time>
      </trkpt>
      <trkpt lat="45.89458" lon="4.74103">
        <ele>182</ele>
        <time>2018-07-19T10:56:04Z</time>
      </trkpt>
      <trkpt lat="45.89463" lon="4.741">
        <ele>182</ele>
        <time>2018-07-19T10:56:05Z</time>
      </trkpt>
      <trkpt lat="45.89469" lon="4.74098">
        <ele>182</ele>
        <time>2018-07-19T10:56:06Z</time>
      </trkpt>
      <trkpt lat="45.89474" lon="4.74095">
        <ele>182</ele>
        <time>2018-07-19T10:56:07Z</time>
      </trkpt>
      <trkpt lat="45.89479" lon="4.74095">
        <ele>182</ele>
        <time>2018-07-19T10:56:08Z</time>
      </trkpt>
      <trkpt lat="45.89484" lon="4.74093">
        <ele>182</ele>
        <time>2018-07-19T10:56:09Z</time>
      </trkpt>
      <trkpt lat="45.89493" lon="4.74085">
        <ele>181</ele>
        <time>2018-07-19T10:56:10Z</time>
      </trkpt>
      <trkpt lat="45.895" lon="4.74083">
        <ele>181</ele>
        <time>2018-07-19T10:56:11Z</time>
      </trkpt>
      <trkpt lat="45.89505" lon="4.7408">
        <ele>181</ele>
        <time>2018-07-19T10:56:12Z</time>
      </trkpt>
      <trkpt lat="45.89511" lon="4.74079">
        <ele>181</ele>
        <time>2018-07-19T10:56:13Z</time>
      </trkpt>
      <trkpt lat="45.89516" lon="4.74079">
        <ele>181</ele>
        <time>2018-07-19T10:56:14Z</time>
      </trkpt>
      <trkpt lat="45.89523" lon="4.74075">
        <ele>181</ele>
        <time>2018-07-19T10:56:15Z</time>
      </trkpt>
      <trkpt lat="45.89528" lon="4.74071">
        <ele>181</ele>
        <time>2018-07-19T10:56:16Z</time>
      </trkpt>
      <trkpt lat="45.89534" lon="4.74068">
        <ele>181</ele>
        <time>2018-07-19T10:56:17Z</time>
      </trkpt>
      <trkpt lat="45.89541" lon="4.74066">
        <ele>181</ele>
        <time>2018-07-19T10:56:18Z</time>
      </trkpt>
      <trkpt lat="45.89545" lon="4.74065">
        <ele>181</ele>
        <time>2018-07-19T10:56:19Z</time>
      </trkpt>
      <trkpt lat="45.89551" lon="4.74063">
        <ele>181</ele>
        <time>2018-07-19T10:56:20Z</time>
      </trkpt>
      <trkpt lat="45.89556" lon="4.74061">
        <ele>181</ele>
        <time>2018-07-19T10:56:21Z</time>
      </trkpt>
      <trkpt lat="45.89562" lon="4.74059">
        <ele>181</ele>
        <time>2018-07-19T10:56:22Z</time>
      </trkpt>
      <trkpt lat="45.89567" lon="4.74056">
        <ele>181</ele>
        <time>2018-07-19T10:56:23Z</time>
      </trkpt>
      <trkpt lat="45.89571" lon="4.74054">
        <ele>181</ele>
        <time>2018-07-19T10:56:24Z</time>
      </trkpt>
      <trkpt lat="45.89578" lon="4.74052">
        <ele>181</ele>
        <time>2018-07-19T10:56:25Z</time>
      </trkpt>
      <trkpt lat="45.89583" lon="4.74049">
        <ele>181</ele>
        <time>2018-07-19T10:56:26Z</time>
      </trkpt>
      <trkpt lat="45.89591" lon="4.74045">
        <ele>180</ele>
        <time>2018-07-19T10:56:27Z</time>
      </trkpt>
      <trkpt lat="45.89598" lon="4.74042">
        <ele>180</ele>
        <time>2018-07-19T10:56:28Z</time>
      </trkpt>
      <trkpt lat="45.89606" lon="4.74049">
        <ele>180</ele>
        <time>2018-07-19T10:56:30Z</time>
      </trkpt>
      <trkpt lat="45.89617" lon="4.74035">
        <ele>180</ele>
        <time>2018-07-19T10:56:31Z</time>
      </trkpt>
      <trkpt lat="45.89621" lon="4.74033">
        <ele>180</ele>
        <time>2018-07-19T10:56:32Z</time>
      </trkpt>
      <trkpt lat="45.89627" lon="4.74031">
        <ele>180</ele>
        <time>2018-07-19T10:56:33Z</time>
      </trkpt>
      <trkpt lat="45.89633" lon="4.7403">
        <ele>180</ele>
        <time>2018-07-19T10:56:34Z</time>
      </trkpt>
      <trkpt lat="45.89638" lon="4.74027">
        <ele>180</ele>
        <time>2018-07-19T10:56:35Z</time>
      </trkpt>
      <trkpt lat="45.89642" lon="4.74028">
        <ele>180</ele>
        <time>2018-07-19T10:56:36Z</time>
      </trkpt>
      <trkpt lat="45.8965" lon="4.74026">
        <ele>180</ele>
        <time>2018-07-19T10:56:37Z</time>
      </trkpt>
      <trkpt lat="45.89656" lon="4.74022">
        <ele>180</ele>
        <time>2018-07-19T10:56:38Z</time>
      </trkpt>
      <trkpt lat="45.89662" lon="4.74019">
        <ele>180</ele>
        <time>2018-07-19T10:56:39Z</time>
      </trkpt>
      <trkpt lat="45.89668" lon="4.74014">
        <ele>179</ele>
        <time>2018-07-19T10:56:40Z</time>
      </trkpt>
      <trkpt lat="45.89674" lon="4.74011">
        <ele>179</ele>
        <time>2018-07-19T10:56:41Z</time>
      </trkpt>
      <trkpt lat="45.8968" lon="4.74008">
        <ele>179</ele>
        <time>2018-07-19T10:56:42Z</time>
      </trkpt>
      <trkpt lat="45.89686" lon="4.74005">
        <ele>179</ele>
        <time>2018-07-19T10:56:43Z</time>
      </trkpt>
      <trkpt lat="45.89691" lon="4.74006">
        <ele>179</ele>
        <time>2018-07-19T10:56:44Z</time>
      </trkpt>
      <trkpt lat="45.89697" lon="4.74003">
        <ele>179</ele>
        <time>2018-07-19T10:56:45Z</time>
      </trkpt>
      <trkpt lat="45.89702" lon="4.74004">
        <ele>179</ele>
        <time>2018-07-19T10:56:46Z</time>
      </trkpt>
      <trkpt lat="45.89708" lon="4.74001">
        <ele>179</ele>
        <time>2018-07-19T10:56:47Z</time>
      </trkpt>
      <trkpt lat="45.89712" lon="4.73999">
        <ele>178</ele>
        <time>2018-07-19T10:56:48Z</time>
      </trkpt>
      <trkpt lat="45.89718" lon="4.73996">
        <ele>178</ele>
        <time>2018-07-19T10:56:49Z</time>
      </trkpt>
      <trkpt lat="45.89724" lon="4.73993">
        <ele>178</ele>
        <time>2018-07-19T10:56:50Z</time>
      </trkpt>
      <trkpt lat="45.89728" lon="4.73993">
        <ele>178</ele>
        <time>2018-07-19T10:56:51Z</time>
      </trkpt>
      <trkpt lat="45.89735" lon="4.7399">
        <ele>178</ele>
        <time>2018-07-19T10:56:52Z</time>
      </trkpt>
      <trkpt lat="45.89741" lon="4.73988">
        <ele>178</ele>
        <time>2018-07-19T10:56:53Z</time>
      </trkpt>
      <trkpt lat="45.89748" lon="4.73984">
        <ele>178</ele>
        <time>2018-07-19T10:56:54Z</time>
      </trkpt>
      <trkpt lat="45.89755" lon="4.7398">
        <ele>178</ele>
        <time>2018-07-19T10:56:55Z</time>
      </trkpt>
      <trkpt lat="45.89762" lon="4.73976">
        <ele>178</ele>
        <time>2018-07-19T10:56:56Z</time>
      </trkpt>
      <trkpt lat="45.89767" lon="4.73972">
        <ele>179</ele>
        <time>2018-07-19T10:56:57Z</time>
      </trkpt>
      <trkpt lat="45.89773" lon="4.73969">
        <ele>179</ele>
        <time>2018-07-19T10:56:58Z</time>
      </trkpt>
      <trkpt lat="45.89778" lon="4.73966">
        <ele>179</ele>
        <time>2018-07-19T10:56:59Z</time>
      </trkpt>
      <trkpt lat="45.89783" lon="4.73963">
        <ele>179</ele>
        <time>2018-07-19T10:57:00Z</time>
      </trkpt>
      <trkpt lat="45.89789" lon="4.7396">
        <ele>179</ele>
        <time>2018-07-19T10:57:01Z</time>
      </trkpt>
      <trkpt lat="45.89794" lon="4.73958">
        <ele>179</ele>
        <time>2018-07-19T10:57:02Z</time>
      </trkpt>
      <trkpt lat="45.898" lon="4.73956">
        <ele>179</ele>
        <time>2018-07-19T10:57:03Z</time>
      </trkpt>
      <trkpt lat="45.89806" lon="4.73954">
        <ele>179</ele>
        <time>2018-07-19T10:57:04Z</time>
      </trkpt>
      <trkpt lat="45.89813" lon="4.73952">
        <ele>179</ele>
        <time>2018-07-19T10:57:05Z</time>
      </trkpt>
      <trkpt lat="45.8982" lon="4.73949">
        <ele>179</ele>
        <time>2018-07-19T10:57:06Z</time>
      </trkpt>
      <trkpt lat="45.89827" lon="4.73947">
        <ele>179</ele>
        <time>2018-07-19T10:57:07Z</time>
      </trkpt>
      <trkpt lat="45.89834" lon="4.7394">
        <ele>179</ele>
        <time>2018-07-19T10:57:08Z</time>
      </trkpt>
      <trkpt lat="45.8984" lon="4.73939">
        <ele>179</ele>
        <time>2018-07-19T10:57:09Z</time>
      </trkpt>
      <trkpt lat="45.89847" lon="4.73937">
        <ele>179</ele>
        <time>2018-07-19T10:57:10Z</time>
      </trkpt>
      <trkpt lat="45.89853" lon="4.73934">
        <ele>179</ele>
        <time>2018-07-19T10:57:11Z</time>
      </trkpt>
      <trkpt lat="45.89858" lon="4.73932">
        <ele>179</ele>
        <time>2018-07-19T10:57:12Z</time>
      </trkpt>
      <trkpt lat="45.89865" lon="4.7393">
        <ele>179</ele>
        <time>2018-07-19T10:57:13Z</time>
      </trkpt>
      <trkpt lat="45.8987" lon="4.73928">
        <ele>179</ele>
        <time>2018-07-19T10:57:14Z</time>
      </trkpt>
      <trkpt lat="45.89875" lon="4.73926">
        <ele>179</ele>
        <time>2018-07-19T10:57:15Z</time>
      </trkpt>
      <trkpt lat="45.89881" lon="4.73924">
        <ele>179</ele>
        <time>2018-07-19T10:57:16Z</time>
      </trkpt>
      <trkpt lat="45.89887" lon="4.73922">
        <ele>178</ele>
        <time>2018-07-19T10:57:17Z</time>
      </trkpt>
      <trkpt lat="45.89892" lon="4.7392">
        <ele>178</ele>
        <time>2018-07-19T10:57:18Z</time>
      </trkpt>
      <trkpt lat="45.89898" lon="4.73918">
        <ele>178</ele>
        <time>2018-07-19T10:57:19Z</time>
      </trkpt>
      <trkpt lat="45.89904" lon="4.73917">
        <ele>178</ele>
        <time>2018-07-19T10:57:20Z</time>
      </trkpt>
      <trkpt lat="45.8991" lon="4.73915">
        <ele>178</ele>
        <time>2018-07-19T10:57:21Z</time>
      </trkpt>
      <trkpt lat="45.89916" lon="4.73913">
        <ele>178</ele>
        <time>2018-07-19T10:57:22Z</time>
      </trkpt>
      <trkpt lat="45.89922" lon="4.73912">
        <ele>178</ele>
        <time>2018-07-19T10:57:23Z</time>
      </trkpt>
      <trkpt lat="45.89927" lon="4.73909">
        <ele>178</ele>
        <time>2018-07-19T10:57:24Z</time>
      </trkpt>
      <trkpt lat="45.89932" lon="4.73906">
        <ele>178</ele>
        <time>2018-07-19T10:57:25Z</time>
      </trkpt>
      <trkpt lat="45.89938" lon="4.73904">
        <ele>178</ele>
        <time>2018-07-19T10:57:26Z</time>
      </trkpt>
      <trkpt lat="45.89944" lon="4.73901">
        <ele>178</ele>
        <time>2018-07-19T10:57:27Z</time>
      </trkpt>
      <trkpt lat="45.89948" lon="4.73901">
        <ele>178</ele>
        <time>2018-07-19T10:57:28Z</time>
      </trkpt>
      <trkpt lat="45.89955" lon="4.73896">
        <ele>178</ele>
        <time>2018-07-19T10:57:29Z</time>
      </trkpt>
      <trkpt lat="45.8996" lon="4.73895">
        <ele>178</ele>
        <time>2018-07-19T10:57:30Z</time>
      </trkpt>
      <trkpt lat="45.89965" lon="4.73891">
        <ele>178</ele>
        <time>2018-07-19T10:57:31Z</time>
      </trkpt>
      <trkpt lat="45.89972" lon="4.73888">
        <ele>178</ele>
        <time>2018-07-19T10:57:32Z</time>
      </trkpt>
      <trkpt lat="45.89979" lon="4.73885">
        <ele>178</ele>
        <time>2018-07-19T10:57:33Z</time>
      </trkpt>
      <trkpt lat="45.89983" lon="4.73883">
        <ele>178</ele>
        <time>2018-07-19T10:57:34Z</time>
      </trkpt>
      <trkpt lat="45.89988" lon="4.73882">
        <ele>178</ele>
        <time>2018-07-19T10:57:35Z</time>
      </trkpt>
      <trkpt lat="45.89993" lon="4.73879">
        <ele>178</ele>
        <time>2018-07-19T10:57:36Z</time>
      </trkpt>
      <trkpt lat="45.89998" lon="4.73877">
        <ele>178</ele>
        <time>2018-07-19T10:57:37Z</time>
      </trkpt>
      <trkpt lat="45.90003" lon="4.73875">
        <ele>178</ele>
        <time>2018-07-19T10:57:38Z</time>
      </trkpt>
      <trkpt lat="45.90009" lon="4.73871">
        <ele>178</ele>
        <time>2018-07-19T10:57:39Z</time>
      </trkpt>
      <trkpt lat="45.90017" lon="4.73871">
        <ele>178</ele>
        <time>2018-07-19T10:57:41Z</time>
      </trkpt>
      <trkpt lat="45.90021" lon="4.73869">
        <ele>178</ele>
        <time>2018-07-19T10:57:42Z</time>
      </trkpt>
      <trkpt lat="45.90026" lon="4.73866">
        <ele>178</ele>
        <time>2018-07-19T10:57:43Z</time>
      </trkpt>
      <trkpt lat="45.90031" lon="4.73864">
        <ele>178</ele>
        <time>2018-07-19T10:57:44Z</time>
      </trkpt>
      <trkpt lat="45.90036" lon="4.73862">
        <ele>178</ele>
        <time>2018-07-19T10:57:45Z</time>
      </trkpt>
      <trkpt lat="45.90042" lon="4.73859">
        <ele>178</ele>
        <time>2018-07-19T10:57:46Z</time>
      </trkpt>
      <trkpt lat="45.90048" lon="4.73856">
        <ele>178</ele>
        <time>2018-07-19T10:57:47Z</time>
      </trkpt>
      <trkpt lat="45.90053" lon="4.73854">
        <ele>178</ele>
        <time>2018-07-19T10:57:48Z</time>
      </trkpt>
      <trkpt lat="45.9006" lon="4.73851">
        <ele>178</ele>
        <time>2018-07-19T10:57:49Z</time>
      </trkpt>
      <trkpt lat="45.90066" lon="4.73847">
        <ele>178</ele>
        <time>2018-07-19T10:57:50Z</time>
      </trkpt>
      <trkpt lat="45.90073" lon="4.73844">
        <ele>178</ele>
        <time>2018-07-19T10:57:51Z</time>
      </trkpt>
      <trkpt lat="45.90078" lon="4.73843">
        <ele>178</ele>
        <time>2018-07-19T10:57:52Z</time>
      </trkpt>
      <trkpt lat="45.90084" lon="4.7384">
        <ele>178</ele>
        <time>2018-07-19T10:57:53Z</time>
      </trkpt>
      <trkpt lat="45.9009" lon="4.73838">
        <ele>178</ele>
        <time>2018-07-19T10:57:54Z</time>
      </trkpt>
      <trkpt lat="45.90096" lon="4.73835">
        <ele>178</ele>
        <time>2018-07-19T10:57:55Z</time>
      </trkpt>
      <trkpt lat="45.90101" lon="4.73832">
        <ele>177</ele>
        <time>2018-07-19T10:57:56Z</time>
      </trkpt>
      <trkpt lat="45.90107" lon="4.7383">
        <ele>177</ele>
        <time>2018-07-19T10:57:57Z</time>
      </trkpt>
      <trkpt lat="45.90112" lon="4.73827">
        <ele>177</ele>
        <time>2018-07-19T10:57:58Z</time>
      </trkpt>
      <trkpt lat="45.90117" lon="4.73826">
        <ele>177</ele>
        <time>2018-07-19T10:57:59Z</time>
      </trkpt>
      <trkpt lat="45.90123" lon="4.73824">
        <ele>177</ele>
        <time>2018-07-19T10:58:00Z</time>
      </trkpt>
      <trkpt lat="45.90128" lon="4.73822">
        <ele>177</ele>
        <time>2018-07-19T10:58:01Z</time>
      </trkpt>
      <trkpt lat="45.90135" lon="4.73817">
        <ele>177</ele>
        <time>2018-07-19T10:58:02Z</time>
      </trkpt>
      <trkpt lat="45.90141" lon="4.73814">
        <ele>177</ele>
        <time>2018-07-19T10:58:03Z</time>
      </trkpt>
      <trkpt lat="45.90147" lon="4.73812">
        <ele>177</ele>
        <time>2018-07-19T10:58:04Z</time>
      </trkpt>
      <trkpt lat="45.90153" lon="4.73809">
        <ele>176</ele>
        <time>2018-07-19T10:58:05Z</time>
      </trkpt>
      <trkpt lat="45.9016" lon="4.73805">
        <ele>176</ele>
        <time>2018-07-19T10:58:06Z</time>
      </trkpt>
      <trkpt lat="45.90166" lon="4.73802">
        <ele>176</ele>
        <time>2018-07-19T10:58:07Z</time>
      </trkpt>
      <trkpt lat="45.90172" lon="4.73799">
        <ele>177</ele>
        <time>2018-07-19T10:58:08Z</time>
      </trkpt>
      <trkpt lat="45.9018" lon="4.73796">
        <ele>177</ele>
        <time>2018-07-19T10:58:10Z</time>
      </trkpt>
      <trkpt lat="45.90185" lon="4.73795">
        <ele>177</ele>
        <time>2018-07-19T10:58:11Z</time>
      </trkpt>
      <trkpt lat="45.90191" lon="4.73793">
        <ele>177</ele>
        <time>2018-07-19T10:58:12Z</time>
      </trkpt>
      <trkpt lat="45.90196" lon="4.7379">
        <ele>177</ele>
        <time>2018-07-19T10:58:13Z</time>
      </trkpt>
      <trkpt lat="45.90201" lon="4.73789">
        <ele>177</ele>
        <time>2018-07-19T10:58:14Z</time>
      </trkpt>
      <trkpt lat="45.90207" lon="4.73786">
        <ele>177</ele>
        <time>2018-07-19T10:58:15Z</time>
      </trkpt>
      <trkpt lat="45.90212" lon="4.73783">
        <ele>177</ele>
        <time>2018-07-19T10:58:16Z</time>
      </trkpt>
      <trkpt lat="45.90218" lon="4.73781">
        <ele>177</ele>
        <time>2018-07-19T10:58:17Z</time>
      </trkpt>
      <trkpt lat="45.90224" lon="4.73778">
        <ele>177</ele>
        <time>2018-07-19T10:58:18Z</time>
      </trkpt>
      <trkpt lat="45.90229" lon="4.73776">
        <ele>177</ele>
        <time>2018-07-19T10:58:19Z</time>
      </trkpt>
      <trkpt lat="45.90235" lon="4.73774">
        <ele>177</ele>
        <time>2018-07-19T10:58:20Z</time>
      </trkpt>
      <trkpt lat="45.90239" lon="4.73773">
        <ele>177</ele>
        <time>2018-07-19T10:58:21Z</time>
      </trkpt>
      <trkpt lat="45.90243" lon="4.73773">
        <ele>177</ele>
        <time>2018-07-19T10:58:22Z</time>
      </trkpt>
      <trkpt lat="45.90249" lon="4.7377">
        <ele>178</ele>
        <time>2018-07-19T10:58:23Z</time>
      </trkpt>
      <trkpt lat="45.90252" lon="4.73772">
        <ele>177</ele>
        <time>2018-07-19T10:58:24Z</time>
      </trkpt>
      <trkpt lat="45.90262" lon="4.73766">
        <ele>177</ele>
        <time>2018-07-19T10:58:25Z</time>
      </trkpt>
      <trkpt lat="45.9027" lon="4.73765">
        <ele>177</ele>
        <time>2018-07-19T10:58:27Z</time>
      </trkpt>
      <trkpt lat="45.90275" lon="4.73762">
        <ele>177</ele>
        <time>2018-07-19T10:58:28Z</time>
      </trkpt>
      <trkpt lat="45.9028" lon="4.73761">
        <ele>177</ele>
        <time>2018-07-19T10:58:29Z</time>
      </trkpt>
      <trkpt lat="45.90285" lon="4.73758">
        <ele>177</ele>
        <time>2018-07-19T10:58:30Z</time>
      </trkpt>
      <trkpt lat="45.90291" lon="4.73754">
        <ele>177</ele>
        <time>2018-07-19T10:58:31Z</time>
      </trkpt>
      <trkpt lat="45.90296" lon="4.73752">
        <ele>177</ele>
        <time>2018-07-19T10:58:32Z</time>
      </trkpt>
      <trkpt lat="45.90303" lon="4.73746">
        <ele>177</ele>
        <time>2018-07-19T10:58:33Z</time>
      </trkpt>
      <trkpt lat="45.90308" lon="4.73744">
        <ele>177</ele>
        <time>2018-07-19T10:58:34Z</time>
      </trkpt>
      <trkpt lat="45.90314" lon="4.73741">
        <ele>177</ele>
        <time>2018-07-19T10:58:35Z</time>
      </trkpt>
      <trkpt lat="45.90319" lon="4.73739">
        <ele>177</ele>
        <time>2018-07-19T10:58:36Z</time>
      </trkpt>
      <trkpt lat="45.90326" lon="4.73736">
        <ele>177</ele>
        <time>2018-07-19T10:58:37Z</time>
      </trkpt>
      <trkpt lat="45.90332" lon="4.73733">
        <ele>177</ele>
        <time>2018-07-19T10:58:38Z</time>
      </trkpt>
      <trkpt lat="45.90337" lon="4.7373">
        <ele>176</ele>
        <time>2018-07-19T10:58:39Z</time>
      </trkpt>
      <trkpt lat="45.90341" lon="4.73728">
        <ele>177</ele>
        <time>2018-07-19T10:58:40Z</time>
      </trkpt>
      <trkpt lat="45.9035" lon="4.73726">
        <ele>177</ele>
        <time>2018-07-19T10:58:42Z</time>
      </trkpt>
      <trkpt lat="45.90354" lon="4.73724">
        <ele>177</ele>
        <time>2018-07-19T10:58:43Z</time>
      </trkpt>
      <trkpt lat="45.90359" lon="4.73722">
        <ele>177</ele>
        <time>2018-07-19T10:58:44Z</time>
      </trkpt>
      <trkpt lat="45.90364" lon="4.73721">
        <ele>177</ele>
        <time>2018-07-19T10:58:45Z</time>
      </trkpt>
      <trkpt lat="45.90369" lon="4.73718">
        <ele>177</ele>
        <time>2018-07-19T10:58:46Z</time>
      </trkpt>
      <trkpt lat="45.90373" lon="4.73716">
        <ele>177</ele>
        <time>2018-07-19T10:58:47Z</time>
      </trkpt>
      <trkpt lat="45.90379" lon="4.73713">
        <ele>177</ele>
        <time>2018-07-19T10:58:48Z</time>
      </trkpt>
      <trkpt lat="45.90383" lon="4.73711">
        <ele>177</ele>
        <time>2018-07-19T10:58:49Z</time>
      </trkpt>
      <trkpt lat="45.90389" lon="4.73708">
        <ele>177</ele>
        <time>2018-07-19T10:58:50Z</time>
      </trkpt>
      <trkpt lat="45.90393" lon="4.73706">
        <ele>177</ele>
        <time>2018-07-19T10:58:51Z</time>
      </trkpt>
      <trkpt lat="45.90398" lon="4.73704">
        <ele>177</ele>
        <time>2018-07-19T10:58:52Z</time>
      </trkpt>
      <trkpt lat="45.90403" lon="4.73702">
        <ele>177</ele>
        <time>2018-07-19T10:58:53Z</time>
      </trkpt>
      <trkpt lat="45.90411" lon="4.73699">
        <ele>177</ele>
        <time>2018-07-19T10:58:55Z</time>
      </trkpt>
      <trkpt lat="45.90417" lon="4.73696">
        <ele>177</ele>
        <time>2018-07-19T10:58:56Z</time>
      </trkpt>
      <trkpt lat="45.90421" lon="4.73695">
        <ele>176</ele>
        <time>2018-07-19T10:58:57Z</time>
      </trkpt>
      <trkpt lat="45.90426" lon="4.73692">
        <ele>176</ele>
        <time>2018-07-19T10:58:58Z</time>
      </trkpt>
      <trkpt lat="45.90434" lon="4.73688">
        <ele>176</ele>
        <time>2018-07-19T10:59:00Z</time>
      </trkpt>
      <trkpt lat="45.90438" lon="4.73687">
        <ele>176</ele>
        <time>2018-07-19T10:59:01Z</time>
      </trkpt>
      <trkpt lat="45.90444" lon="4.73685">
        <ele>176</ele>
        <time>2018-07-19T10:59:02Z</time>
      </trkpt>
      <trkpt lat="45.90448" lon="4.73683">
        <ele>176</ele>
        <time>2018-07-19T10:59:03Z</time>
      </trkpt>
      <trkpt lat="45.90456" lon="4.73679">
        <ele>176</ele>
        <time>2018-07-19T10:59:05Z</time>
      </trkpt>
      <trkpt lat="45.9046" lon="4.73679">
        <ele>176</ele>
        <time>2018-07-19T10:59:06Z</time>
      </trkpt>
      <trkpt lat="45.90464" lon="4.73677">
        <ele>176</ele>
        <time>2018-07-19T10:59:07Z</time>
      </trkpt>
      <trkpt lat="45.90469" lon="4.73673">
        <ele>176</ele>
        <time>2018-07-19T10:59:08Z</time>
      </trkpt>
      <trkpt lat="45.90477" lon="4.73669">
        <ele>176</ele>
        <time>2018-07-19T10:59:10Z</time>
      </trkpt>
      <trkpt lat="45.90481" lon="4.73666">
        <ele>177</ele>
        <time>2018-07-19T10:59:11Z</time>
      </trkpt>
      <trkpt lat="45.90486" lon="4.73663">
        <ele>177</ele>
        <time>2018-07-19T10:59:12Z</time>
      </trkpt>
      <trkpt lat="45.90491" lon="4.73662">
        <ele>177</ele>
        <time>2018-07-19T10:59:13Z</time>
      </trkpt>
      <trkpt lat="45.90498" lon="4.7366">
        <ele>177</ele>
        <time>2018-07-19T10:59:15Z</time>
      </trkpt>
      <trkpt lat="45.90502" lon="4.73661">
        <ele>177</ele>
        <time>2018-07-19T10:59:16Z</time>
      </trkpt>
      <trkpt lat="45.9051" lon="4.73658">
        <ele>178</ele>
        <time>2018-07-19T10:59:18Z</time>
      </trkpt>
      <trkpt lat="45.90515" lon="4.73655">
        <ele>178</ele>
        <time>2018-07-19T10:59:19Z</time>
      </trkpt>
      <trkpt lat="45.90518" lon="4.73653">
        <ele>178</ele>
        <time>2018-07-19T10:59:20Z</time>
      </trkpt>
      <trkpt lat="45.90523" lon="4.7365">
        <ele>178</ele>
        <time>2018-07-19T10:59:21Z</time>
      </trkpt>
      <trkpt lat="45.90527" lon="4.73649">
        <ele>178</ele>
        <time>2018-07-19T10:59:22Z</time>
      </trkpt>
      <trkpt lat="45.90532" lon="4.73646">
        <ele>178</ele>
        <time>2018-07-19T10:59:23Z</time>
      </trkpt>
      <trkpt lat="45.90538" lon="4.73643">
        <ele>178</ele>
        <time>2018-07-19T10:59:24Z</time>
      </trkpt>
      <trkpt lat="45.90543" lon="4.73641">
        <ele>178</ele>
        <time>2018-07-19T10:59:25Z</time>
      </trkpt>
      <trkpt lat="45.90548" lon="4.73638">
        <ele>178</ele>
        <time>2018-07-19T10:59:26Z</time>
      </trkpt>
      <trkpt lat="45.90552" lon="4.73636">
        <ele>179</ele>
        <time>2018-07-19T10:59:27Z</time>
      </trkpt>
      <trkpt lat="45.9056" lon="4.73633">
        <ele>179</ele>
        <time>2018-07-19T10:59:29Z</time>
      </trkpt>
      <trkpt lat="45.90564" lon="4.73634">
        <ele>179</ele>
        <time>2018-07-19T10:59:30Z</time>
      </trkpt>
      <trkpt lat="45.90568" lon="4.73633">
        <ele>179</ele>
        <time>2018-07-19T10:59:31Z</time>
      </trkpt>
      <trkpt lat="45.90572" lon="4.73629">
        <ele>179</ele>
        <time>2018-07-19T10:59:32Z</time>
      </trkpt>
      <trkpt lat="45.9058" lon="4.73624">
        <ele>179</ele>
        <time>2018-07-19T10:59:34Z</time>
      </trkpt>
      <trkpt lat="45.90586" lon="4.73621">
        <ele>180</ele>
        <time>2018-07-19T10:59:35Z</time>
      </trkpt>
      <trkpt lat="45.90594" lon="4.73622">
        <ele>181</ele>
        <time>2018-07-19T10:59:37Z</time>
      </trkpt>
      <trkpt lat="45.90598" lon="4.7362">
        <ele>181</ele>
        <time>2018-07-19T10:59:38Z</time>
      </trkpt>
      <trkpt lat="45.90604" lon="4.73616">
        <ele>181</ele>
        <time>2018-07-19T10:59:39Z</time>
      </trkpt>
      <trkpt lat="45.90608" lon="4.73614">
        <ele>181</ele>
        <time>2018-07-19T10:59:40Z</time>
      </trkpt>
      <trkpt lat="45.90613" lon="4.73612">
        <ele>181</ele>
        <time>2018-07-19T10:59:41Z</time>
      </trkpt>
      <trkpt lat="45.90619" lon="4.73609">
        <ele>181</ele>
        <time>2018-07-19T10:59:42Z</time>
      </trkpt>
      <trkpt lat="45.90624" lon="4.73608">
        <ele>181</ele>
        <time>2018-07-19T10:59:43Z</time>
      </trkpt>
      <trkpt lat="45.90629" lon="4.73606">
        <ele>181</ele>
        <time>2018-07-19T10:59:44Z</time>
      </trkpt>
      <trkpt lat="45.90634" lon="4.73604">
        <ele>181</ele>
        <time>2018-07-19T10:59:45Z</time>
      </trkpt>
      <trkpt lat="45.90639" lon="4.73602">
        <ele>181</ele>
        <time>2018-07-19T10:59:46Z</time>
      </trkpt>
      <trkpt lat="45.90646" lon="4.73599">
        <ele>181</ele>
        <time>2018-07-19T10:59:47Z</time>
      </trkpt>
      <trkpt lat="45.90651" lon="4.73597">
        <ele>181</ele>
        <time>2018-07-19T10:59:48Z</time>
      </trkpt>
      <trkpt lat="45.90658" lon="4.73595">
        <ele>181</ele>
        <time>2018-07-19T10:59:49Z</time>
      </trkpt>
      <trkpt lat="45.90664" lon="4.73591">
        <ele>180</ele>
        <time>2018-07-19T10:59:50Z</time>
      </trkpt>
      <trkpt lat="45.9067" lon="4.73589">
        <ele>180</ele>
        <time>2018-07-19T10:59:51Z</time>
      </trkpt>
      <trkpt lat="45.90677" lon="4.73585">
        <ele>181</ele>
        <time>2018-07-19T10:59:52Z</time>
      </trkpt>
      <trkpt lat="45.90683" lon="4.73583">
        <ele>179</ele>
        <time>2018-07-19T10:59:53Z</time>
      </trkpt>
      <trkpt lat="45.9069" lon="4.73581">
        <ele>179</ele>
        <time>2018-07-19T10:59:54Z</time>
      </trkpt>
      <trkpt lat="45.90697" lon="4.73579">
        <ele>178</ele>
        <time>2018-07-19T10:59:55Z</time>
      </trkpt>
      <trkpt lat="45.90704" lon="4.73576">
        <ele>178</ele>
        <time>2018-07-19T10:59:56Z</time>
      </trkpt>
      <trkpt lat="45.90712" lon="4.73574">
        <ele>178</ele>
        <time>2018-07-19T10:59:57Z</time>
      </trkpt>
      <trkpt lat="45.9072" lon="4.73569">
        <ele>178</ele>
        <time>2018-07-19T10:59:58Z</time>
      </trkpt>
      <trkpt lat="45.90728" lon="4.73565">
        <ele>178</ele>
        <time>2018-07-19T10:59:59Z</time>
      </trkpt>
      <trkpt lat="45.90735" lon="4.73561">
        <ele>178</ele>
        <time>2018-07-19T11:00:00Z</time>
      </trkpt>
      <trkpt lat="45.90743" lon="4.73557">
        <ele>178</ele>
        <time>2018-07-19T11:00:01Z</time>
      </trkpt>
      <trkpt lat="45.9075" lon="4.73554">
        <ele>177</ele>
        <time>2018-07-19T11:00:02Z</time>
      </trkpt>
      <trkpt lat="45.90758" lon="4.7355">
        <ele>176</ele>
        <time>2018-07-19T11:00:03Z</time>
      </trkpt>
      <trkpt lat="45.90767" lon="4.73546">
        <ele>176</ele>
        <time>2018-07-19T11:00:04Z</time>
      </trkpt>
      <trkpt lat="45.90773" lon="4.73545">
        <ele>176</ele>
        <time>2018-07-19T11:00:05Z</time>
      </trkpt>
      <trkpt lat="45.90782" lon="4.7354">
        <ele>176</ele>
        <time>2018-07-19T11:00:06Z</time>
      </trkpt>
      <trkpt lat="45.90785" lon="4.73544">
        <ele>176</ele>
        <time>2018-07-19T11:00:07Z</time>
      </trkpt>
      <trkpt lat="45.90791" lon="4.73541">
        <ele>176</ele>
        <time>2018-07-19T11:00:08Z</time>
      </trkpt>
      <trkpt lat="45.908" lon="4.73537">
        <ele>176</ele>
        <time>2018-07-19T11:00:09Z</time>
      </trkpt>
      <trkpt lat="45.90807" lon="4.73534">
        <ele>175</ele>
        <time>2018-07-19T11:00:10Z</time>
      </trkpt>
      <trkpt lat="45.90816" lon="4.73531">
        <ele>175</ele>
        <time>2018-07-19T11:00:11Z</time>
      </trkpt>
      <trkpt lat="45.90823" lon="4.73529">
        <ele>175</ele>
        <time>2018-07-19T11:00:12Z</time>
      </trkpt>
      <trkpt lat="45.90831" lon="4.73523">
        <ele>175</ele>
        <time>2018-07-19T11:00:13Z</time>
      </trkpt>
      <trkpt lat="45.90836" lon="4.73521">
        <ele>174</ele>
        <time>2018-07-19T11:00:14Z</time>
      </trkpt>
      <trkpt lat="45.90843" lon="4.73514">
        <ele>174</ele>
        <time>2018-07-19T11:00:15Z</time>
      </trkpt>
      <trkpt lat="45.9085" lon="4.73509">
        <ele>174</ele>
        <time>2018-07-19T11:00:16Z</time>
      </trkpt>
      <trkpt lat="45.90856" lon="4.73507">
        <ele>174</ele>
        <time>2018-07-19T11:00:17Z</time>
      </trkpt>
      <trkpt lat="45.90862" lon="4.73504">
        <ele>174</ele>
        <time>2018-07-19T11:00:18Z</time>
      </trkpt>
      <trkpt lat="45.90866" lon="4.73504">
        <ele>174</ele>
        <time>2018-07-19T11:00:19Z</time>
      </trkpt>
      <trkpt lat="45.90874" lon="4.73502">
        <ele>174</ele>
        <time>2018-07-19T11:00:21Z</time>
      </trkpt>
      <trkpt lat="45.90878" lon="4.73501">
        <ele>175</ele>
        <time>2018-07-19T11:00:22Z</time>
      </trkpt>
      <trkpt lat="45.90884" lon="4.73499">
        <ele>175</ele>
        <time>2018-07-19T11:00:23Z</time>
      </trkpt>
      <trkpt lat="45.90889" lon="4.73495">
        <ele>175</ele>
        <time>2018-07-19T11:00:24Z</time>
      </trkpt>
      <trkpt lat="45.90895" lon="4.73492">
        <ele>175</ele>
        <time>2018-07-19T11:00:25Z</time>
      </trkpt>
      <trkpt lat="45.90901" lon="4.73492">
        <ele>175</ele>
        <time>2018-07-19T11:00:26Z</time>
      </trkpt>
      <trkpt lat="45.90905" lon="4.73489">
        <ele>175</ele>
        <time>2018-07-19T11:00:27Z</time>
      </trkpt>
      <trkpt lat="45.90911" lon="4.73488">
        <ele>175</ele>
        <time>2018-07-19T11:00:28Z</time>
      </trkpt>
      <trkpt lat="45.90916" lon="4.73485">
        <ele>175</ele>
        <time>2018-07-19T11:00:29Z</time>
      </trkpt>
      <trkpt lat="45.90921" lon="4.73483">
        <ele>175</ele>
        <time>2018-07-19T11:00:30Z</time>
      </trkpt>
      <trkpt lat="45.90926" lon="4.7348">
        <ele>175</ele>
        <time>2018-07-19T11:00:31Z</time>
      </trkpt>
      <trkpt lat="45.90932" lon="4.73477">
        <ele>175</ele>
        <time>2018-07-19T11:00:32Z</time>
      </trkpt>
      <trkpt lat="45.90938" lon="4.73474">
        <ele>175</ele>
        <time>2018-07-19T11:00:33Z</time>
      </trkpt>
      <trkpt lat="45.90943" lon="4.73471">
        <ele>175</ele>
        <time>2018-07-19T11:00:34Z</time>
      </trkpt>
      <trkpt lat="45.90951" lon="4.73467">
        <ele>175</ele>
        <time>2018-07-19T11:00:35Z</time>
      </trkpt>
      <trkpt lat="45.90957" lon="4.73464">
        <ele>175</ele>
        <time>2018-07-19T11:00:36Z</time>
      </trkpt>
      <trkpt lat="45.90963" lon="4.73459">
        <ele>175</ele>
        <time>2018-07-19T11:00:37Z</time>
      </trkpt>
      <trkpt lat="45.90969" lon="4.73456">
        <ele>175</ele>
        <time>2018-07-19T11:00:38Z</time>
      </trkpt>
      <trkpt lat="45.90975" lon="4.73454">
        <ele>175</ele>
        <time>2018-07-19T11:00:39Z</time>
      </trkpt>
      <trkpt lat="45.90982" lon="4.7345">
        <ele>175</ele>
        <time>2018-07-19T11:00:40Z</time>
      </trkpt>
      <trkpt lat="45.90988" lon="4.73448">
        <ele>175</ele>
        <time>2018-07-19T11:00:41Z</time>
      </trkpt>
      <trkpt lat="45.90994" lon="4.73448">
        <ele>175</ele>
        <time>2018-07-19T11:00:42Z</time>
      </trkpt>
      <trkpt lat="45.90999" lon="4.73448">
        <ele>175</ele>
        <time>2018-07-19T11:00:43Z</time>
      </trkpt>
      <trkpt lat="45.91004" lon="4.73449">
        <ele>175</ele>
        <time>2018-07-19T11:00:44Z</time>
      </trkpt>
      <trkpt lat="45.91012" lon="4.73455">
        <ele>175</ele>
        <time>2018-07-19T11:00:46Z</time>
      </trkpt>
      <trkpt lat="45.91017" lon="4.73458">
        <ele>175</ele>
        <time>2018-07-19T11:00:47Z</time>
      </trkpt>
      <trkpt lat="45.91022" lon="4.7346">
        <ele>175</ele>
        <time>2018-07-19T11:00:48Z</time>
      </trkpt>
      <trkpt lat="45.91027" lon="4.73466">
        <ele>175</ele>
        <time>2018-07-19T11:00:49Z</time>
      </trkpt>
      <trkpt lat="45.91029" lon="4.73473">
        <ele>175</ele>
        <time>2018-07-19T11:00:50Z</time>
      </trkpt>
      <trkpt lat="45.91033" lon="4.7348">
        <ele>175</ele>
        <time>2018-07-19T11:00:51Z</time>
      </trkpt>
      <trkpt lat="45.91036" lon="4.73488">
        <ele>175</ele>
        <time>2018-07-19T11:00:52Z</time>
      </trkpt>
      <trkpt lat="45.91039" lon="4.73495">
        <ele>175</ele>
        <time>2018-07-19T11:00:53Z</time>
      </trkpt>
      <trkpt lat="45.91042" lon="4.73502">
        <ele>175</ele>
        <time>2018-07-19T11:00:54Z</time>
      </trkpt>
      <trkpt lat="45.91044" lon="4.73508">
        <ele>175</ele>
        <time>2018-07-19T11:00:55Z</time>
      </trkpt>
      <trkpt lat="45.91048" lon="4.73513">
        <ele>175</ele>
        <time>2018-07-19T11:00:56Z</time>
      </trkpt>
      <trkpt lat="45.91052" lon="4.73519">
        <ele>175</ele>
        <time>2018-07-19T11:00:57Z</time>
      </trkpt>
      <trkpt lat="45.91056" lon="4.73528">
        <ele>175</ele>
        <time>2018-07-19T11:00:58Z</time>
      </trkpt>
      <trkpt lat="45.91058" lon="4.73535">
        <ele>175</ele>
        <time>2018-07-19T11:00:59Z</time>
      </trkpt>
      <trkpt lat="45.91062" lon="4.73543">
        <ele>174</ele>
        <time>2018-07-19T11:01:00Z</time>
      </trkpt>
      <trkpt lat="45.91066" lon="4.73551">
        <ele>174</ele>
        <time>2018-07-19T11:01:01Z</time>
      </trkpt>
      <trkpt lat="45.91071" lon="4.73559">
        <ele>174</ele>
        <time>2018-07-19T11:01:02Z</time>
      </trkpt>
      <trkpt lat="45.91074" lon="4.73566">
        <ele>174</ele>
        <time>2018-07-19T11:01:03Z</time>
      </trkpt>
      <trkpt lat="45.91077" lon="4.73573">
        <ele>174</ele>
        <time>2018-07-19T11:01:04Z</time>
      </trkpt>
      <trkpt lat="45.91079" lon="4.7358">
        <ele>174</ele>
        <time>2018-07-19T11:01:05Z</time>
      </trkpt>
      <trkpt lat="45.91082" lon="4.73586">
        <ele>174</ele>
        <time>2018-07-19T11:01:06Z</time>
      </trkpt>
      <trkpt lat="45.91086" lon="4.73592">
        <ele>174</ele>
        <time>2018-07-19T11:01:07Z</time>
      </trkpt>
      <trkpt lat="45.91092" lon="4.73602">
        <ele>174</ele>
        <time>2018-07-19T11:01:09Z</time>
      </trkpt>
      <trkpt lat="45.91094" lon="4.73608">
        <ele>174</ele>
        <time>2018-07-19T11:01:10Z</time>
      </trkpt>
      <trkpt lat="45.91097" lon="4.73615">
        <ele>174</ele>
        <time>2018-07-19T11:01:11Z</time>
      </trkpt>
      <trkpt lat="45.91102" lon="4.73623">
        <ele>174</ele>
        <time>2018-07-19T11:01:12Z</time>
      </trkpt>
      <trkpt lat="45.91105" lon="4.7363">
        <ele>174</ele>
        <time>2018-07-19T11:01:13Z</time>
      </trkpt>
      <trkpt lat="45.91108" lon="4.73637">
        <ele>174</ele>
        <time>2018-07-19T11:01:14Z</time>
      </trkpt>
      <trkpt lat="45.91112" lon="4.73643">
        <ele>174</ele>
        <time>2018-07-19T11:01:15Z</time>
      </trkpt>
      <trkpt lat="45.91115" lon="4.7365">
        <ele>174</ele>
        <time>2018-07-19T11:01:16Z</time>
      </trkpt>
      <trkpt lat="45.91118" lon="4.73658">
        <ele>174</ele>
        <time>2018-07-19T11:01:17Z</time>
      </trkpt>
      <trkpt lat="45.91121" lon="4.73665">
        <ele>174</ele>
        <time>2018-07-19T11:01:18Z</time>
      </trkpt>
      <trkpt lat="45.91124" lon="4.73673">
        <ele>174</ele>
        <time>2018-07-19T11:01:19Z</time>
      </trkpt>
      <trkpt lat="45.91127" lon="4.7368">
        <ele>174</ele>
        <time>2018-07-19T11:01:20Z</time>
      </trkpt>
      <trkpt lat="45.9113" lon="4.73688">
        <ele>174</ele>
        <time>2018-07-19T11:01:21Z</time>
      </trkpt>
      <trkpt lat="45.91133" lon="4.73696">
        <ele>174</ele>
        <time>2018-07-19T11:01:22Z</time>
      </trkpt>
      <trkpt lat="45.91136" lon="4.73702">
        <ele>174</ele>
        <time>2018-07-19T11:01:23Z</time>
      </trkpt>
      <trkpt lat="45.91139" lon="4.73709">
        <ele>174</ele>
        <time>2018-07-19T11:01:24Z</time>
      </trkpt>
      <trkpt lat="45.91142" lon="4.73716">
        <ele>174</ele>
        <time>2018-07-19T11:01:25Z</time>
      </trkpt>
      <trkpt lat="45.91146" lon="4.73721">
        <ele>174</ele>
        <time>2018-07-19T11:01:26Z</time>
      </trkpt>
      <trkpt lat="45.9115" lon="4.73726">
        <ele>175</ele>
        <time>2018-07-19T11:01:27Z</time>
      </trkpt>
      <trkpt lat="45.91157" lon="4.73728">
        <ele>175</ele>
        <time>2018-07-19T11:01:28Z</time>
      </trkpt>
      <trkpt lat="45.91163" lon="4.73729">
        <ele>175</ele>
        <time>2018-07-19T11:01:29Z</time>
      </trkpt>
      <trkpt lat="45.91168" lon="4.7373">
        <ele>175</ele>
        <time>2018-07-19T11:01:30Z</time>
      </trkpt>
      <trkpt lat="45.91173" lon="4.73732">
        <ele>175</ele>
        <time>2018-07-19T11:01:31Z</time>
      </trkpt>
      <trkpt lat="45.91177" lon="4.73734">
        <ele>175</ele>
        <time>2018-07-19T11:01:32Z</time>
      </trkpt>
      <trkpt lat="45.91183" lon="4.73737">
        <ele>175</ele>
        <time>2018-07-19T11:01:33Z</time>
      </trkpt>
      <trkpt lat="45.91187" lon="4.7374">
        <ele>175</ele>
        <time>2018-07-19T11:01:34Z</time>
      </trkpt>
      <trkpt lat="45.91191" lon="4.73741">
        <ele>175</ele>
        <time>2018-07-19T11:01:35Z</time>
      </trkpt>
      <trkpt lat="45.91196" lon="4.73743">
        <ele>175</ele>
        <time>2018-07-19T11:01:36Z</time>
      </trkpt>
      <trkpt lat="45.91202" lon="4.73743">
        <ele>175</ele>
        <time>2018-07-19T11:01:37Z</time>
      </trkpt>
      <trkpt lat="45.91207" lon="4.73744">
        <ele>175</ele>
        <time>2018-07-19T11:01:38Z</time>
      </trkpt>
      <trkpt lat="45.91213" lon="4.73745">
        <ele>175</ele>
        <time>2018-07-19T11:01:39Z</time>
      </trkpt>
      <trkpt lat="45.9122" lon="4.73746">
        <ele>175</ele>
        <time>2018-07-19T11:01:40Z</time>
      </trkpt>
      <trkpt lat="45.91226" lon="4.73745">
        <ele>175</ele>
        <time>2018-07-19T11:01:41Z</time>
      </trkpt>
      <trkpt lat="45.91231" lon="4.73745">
        <ele>175</ele>
        <time>2018-07-19T11:01:42Z</time>
      </trkpt>
      <trkpt lat="45.91236" lon="4.73745">
        <ele>175</ele>
        <time>2018-07-19T11:01:43Z</time>
      </trkpt>
      <trkpt lat="45.91242" lon="4.73745">
        <ele>175</ele>
        <time>2018-07-19T11:01:44Z</time>
      </trkpt>
      <trkpt lat="45.91247" lon="4.73745">
        <ele>175</ele>
        <time>2018-07-19T11:01:45Z</time>
      </trkpt>
      <trkpt lat="45.91252" lon="4.73744">
        <ele>175</ele>
        <time>2018-07-19T11:01:46Z</time>
      </trkpt>
      <trkpt lat="45.91257" lon="4.73744">
        <ele>175</ele>
        <time>2018-07-19T11:01:47Z</time>
      </trkpt>
      <trkpt lat="45.91262" lon="4.73743">
        <ele>175</ele>
        <time>2018-07-19T11:01:48Z</time>
      </trkpt>
      <trkpt lat="45.91269" lon="4.73743">
        <ele>174</ele>
        <time>2018-07-19T11:01:49Z</time>
      </trkpt>
      <trkpt lat="45.91274" lon="4.73742">
        <ele>174</ele>
        <time>2018-07-19T11:01:50Z</time>
      </trkpt>
      <trkpt lat="45.91279" lon="4.73742">
        <ele>174</ele>
        <time>2018-07-19T11:01:51Z</time>
      </trkpt>
      <trkpt lat="45.91285" lon="4.73741">
        <ele>174</ele>
        <time>2018-07-19T11:01:52Z</time>
      </trkpt>
      <trkpt lat="45.9129" lon="4.73739">
        <ele>174</ele>
        <time>2018-07-19T11:01:53Z</time>
      </trkpt>
      <trkpt lat="45.91294" lon="4.73738">
        <ele>174</ele>
        <time>2018-07-19T11:01:54Z</time>
      </trkpt>
      <trkpt lat="45.913" lon="4.73738">
        <ele>174</ele>
        <time>2018-07-19T11:01:55Z</time>
      </trkpt>
      <trkpt lat="45.91304" lon="4.73738">
        <ele>174</ele>
        <time>2018-07-19T11:01:56Z</time>
      </trkpt>
      <trkpt lat="45.9131" lon="4.73736">
        <ele>174</ele>
        <time>2018-07-19T11:01:57Z</time>
      </trkpt>
      <trkpt lat="45.91315" lon="4.73736">
        <ele>174</ele>
        <time>2018-07-19T11:01:58Z</time>
      </trkpt>
      <trkpt lat="45.91321" lon="4.73735">
        <ele>174</ele>
        <time>2018-07-19T11:01:59Z</time>
      </trkpt>
      <trkpt lat="45.91327" lon="4.73736">
        <ele>173</ele>
        <time>2018-07-19T11:02:00Z</time>
      </trkpt>
      <trkpt lat="45.91332" lon="4.73735">
        <ele>173</ele>
        <time>2018-07-19T11:02:01Z</time>
      </trkpt>
      <trkpt lat="45.9134" lon="4.73734">
        <ele>173</ele>
        <time>2018-07-19T11:02:02Z</time>
      </trkpt>
      <trkpt lat="45.91344" lon="4.73735">
        <ele>173</ele>
        <time>2018-07-19T11:02:03Z</time>
      </trkpt>
      <trkpt lat="45.91349" lon="4.73734">
        <ele>173</ele>
        <time>2018-07-19T11:02:04Z</time>
      </trkpt>
      <trkpt lat="45.91354" lon="4.73736">
        <ele>173</ele>
        <time>2018-07-19T11:02:05Z</time>
      </trkpt>
      <trkpt lat="45.91359" lon="4.73737">
        <ele>173</ele>
        <time>2018-07-19T11:02:06Z</time>
      </trkpt>
      <trkpt lat="45.91363" lon="4.73738">
        <ele>173</ele>
        <time>2018-07-19T11:02:07Z</time>
      </trkpt>
      <trkpt lat="45.91368" lon="4.73737">
        <ele>173</ele>
        <time>2018-07-19T11:02:08Z</time>
      </trkpt>
      <trkpt lat="45.91376" lon="4.73738">
        <ele>173</ele>
        <time>2018-07-19T11:02:10Z</time>
      </trkpt>
      <trkpt lat="45.91382" lon="4.73738">
        <ele>173</ele>
        <time>2018-07-19T11:02:11Z</time>
      </trkpt>
      <trkpt lat="45.91386" lon="4.73738">
        <ele>173</ele>
        <time>2018-07-19T11:02:12Z</time>
      </trkpt>
      <trkpt lat="45.91391" lon="4.73738">
        <ele>173</ele>
        <time>2018-07-19T11:02:13Z</time>
      </trkpt>
      <trkpt lat="45.91396" lon="4.73739">
        <ele>173</ele>
        <time>2018-07-19T11:02:14Z</time>
      </trkpt>
      <trkpt lat="45.914" lon="4.73741">
        <ele>173</ele>
        <time>2018-07-19T11:02:15Z</time>
      </trkpt>
      <trkpt lat="45.91405" lon="4.7374">
        <ele>173</ele>
        <time>2018-07-19T11:02:16Z</time>
      </trkpt>
      <trkpt lat="45.91411" lon="4.73737">
        <ele>173</ele>
        <time>2018-07-19T11:02:17Z</time>
      </trkpt>
      <trkpt lat="45.91416" lon="4.73736">
        <ele>173</ele>
        <time>2018-07-19T11:02:18Z</time>
      </trkpt>
      <trkpt lat="45.91421" lon="4.73737">
        <ele>173</ele>
        <time>2018-07-19T11:02:19Z</time>
      </trkpt>
      <trkpt lat="45.91428" lon="4.73736">
        <ele>173</ele>
        <time>2018-07-19T11:02:20Z</time>
      </trkpt>
      <trkpt lat="45.91432" lon="4.73738">
        <ele>173</ele>
        <time>2018-07-19T11:02:21Z</time>
      </trkpt>
      <trkpt lat="45.91437" lon="4.73738">
        <ele>173</ele>
        <time>2018-07-19T11:02:22Z</time>
      </trkpt>
      <trkpt lat="45.91441" lon="4.73741">
        <ele>173</ele>
        <time>2018-07-19T11:02:23Z</time>
      </trkpt>
      <trkpt lat="45.91446" lon="4.73738">
        <ele>173</ele>
        <time>2018-07-19T11:02:24Z</time>
      </trkpt>
      <trkpt lat="45.91452" lon="4.73738">
        <ele>173</ele>
        <time>2018-07-19T11:02:25Z</time>
      </trkpt>
      <trkpt lat="45.91457" lon="4.73737">
        <ele>174</ele>
        <time>2018-07-19T11:02:26Z</time>
      </trkpt>
      <trkpt lat="45.91464" lon="4.73737">
        <ele>174</ele>
        <time>2018-07-19T11:02:27Z</time>
      </trkpt>
      <trkpt lat="45.91469" lon="4.73736">
        <ele>174</ele>
        <time>2018-07-19T11:02:28Z</time>
      </trkpt>
      <trkpt lat="45.91475" lon="4.73737">
        <ele>174</ele>
        <time>2018-07-19T11:02:29Z</time>
      </trkpt>
      <trkpt lat="45.9148" lon="4.73736">
        <ele>174</ele>
        <time>2018-07-19T11:02:30Z</time>
      </trkpt>
      <trkpt lat="45.91485" lon="4.73735">
        <ele>174</ele>
        <time>2018-07-19T11:02:31Z</time>
      </trkpt>
      <trkpt lat="45.9149" lon="4.73736">
        <ele>174</ele>
        <time>2018-07-19T11:02:32Z</time>
      </trkpt>
      <trkpt lat="45.91494" lon="4.73736">
        <ele>174</ele>
        <time>2018-07-19T11:02:33Z</time>
      </trkpt>
      <trkpt lat="45.91502" lon="4.73739">
        <ele>174</ele>
        <time>2018-07-19T11:02:35Z</time>
      </trkpt>
      <trkpt lat="45.91507" lon="4.73739">
        <ele>174</ele>
        <time>2018-07-19T11:02:36Z</time>
      </trkpt>
      <trkpt lat="45.91516" lon="4.73739">
        <ele>174</ele>
        <time>2018-07-19T11:02:38Z</time>
      </trkpt>
      <trkpt lat="45.9152" lon="4.73739">
        <ele>174</ele>
        <time>2018-07-19T11:02:39Z</time>
      </trkpt>
      <trkpt lat="45.91526" lon="4.73741">
        <ele>174</ele>
        <time>2018-07-19T11:02:40Z</time>
      </trkpt>
      <trkpt lat="45.91531" lon="4.73741">
        <ele>174</ele>
        <time>2018-07-19T11:02:41Z</time>
      </trkpt>
      <trkpt lat="45.91537" lon="4.7374">
        <ele>174</ele>
        <time>2018-07-19T11:02:42Z</time>
      </trkpt>
      <trkpt lat="45.91543" lon="4.73739">
        <ele>174</ele>
        <time>2018-07-19T11:02:43Z</time>
      </trkpt>
      <trkpt lat="45.91549" lon="4.7374">
        <ele>174</ele>
        <time>2018-07-19T11:02:44Z</time>
      </trkpt>
      <trkpt lat="45.91555" lon="4.7374">
        <ele>174</ele>
        <time>2018-07-19T11:02:45Z</time>
      </trkpt>
      <trkpt lat="45.91562" lon="4.7374">
        <ele>173</ele>
        <time>2018-07-19T11:02:46Z</time>
      </trkpt>
      <trkpt lat="45.91568" lon="4.7374">
        <ele>173</ele>
        <time>2018-07-19T11:02:47Z</time>
      </trkpt>
      <trkpt lat="45.91573" lon="4.73741">
        <ele>173</ele>
        <time>2018-07-19T11:02:48Z</time>
      </trkpt>
      <trkpt lat="45.91579" lon="4.73741">
        <ele>173</ele>
        <time>2018-07-19T11:02:49Z</time>
      </trkpt>
      <trkpt lat="45.91585" lon="4.73739">
        <ele>173</ele>
        <time>2018-07-19T11:02:50Z</time>
      </trkpt>
      <trkpt lat="45.91592" lon="4.73739">
        <ele>173</ele>
        <time>2018-07-19T11:02:51Z</time>
      </trkpt>
      <trkpt lat="45.91599" lon="4.73737">
        <ele>173</ele>
        <time>2018-07-19T11:02:52Z</time>
      </trkpt>
      <trkpt lat="45.91605" lon="4.73738">
        <ele>173</ele>
        <time>2018-07-19T11:02:53Z</time>
      </trkpt>
      <trkpt lat="45.9161" lon="4.73739">
        <ele>173</ele>
        <time>2018-07-19T11:02:54Z</time>
      </trkpt>
      <trkpt lat="45.91615" lon="4.73738">
        <ele>173</ele>
        <time>2018-07-19T11:02:55Z</time>
      </trkpt>
      <trkpt lat="45.91619" lon="4.73741">
        <ele>173</ele>
        <time>2018-07-19T11:02:56Z</time>
      </trkpt>
      <trkpt lat="45.91624" lon="4.73738">
        <ele>173</ele>
        <time>2018-07-19T11:02:57Z</time>
      </trkpt>
      <trkpt lat="45.9163" lon="4.73739">
        <ele>172</ele>
        <time>2018-07-19T11:02:58Z</time>
      </trkpt>
      <trkpt lat="45.91636" lon="4.73738">
        <ele>172</ele>
        <time>2018-07-19T11:02:59Z</time>
      </trkpt>
      <trkpt lat="45.91642" lon="4.73738">
        <ele>172</ele>
        <time>2018-07-19T11:03:00Z</time>
      </trkpt>
      <trkpt lat="45.91649" lon="4.73737">
        <ele>172</ele>
        <time>2018-07-19T11:03:01Z</time>
      </trkpt>
      <trkpt lat="45.91657" lon="4.73736">
        <ele>172</ele>
        <time>2018-07-19T11:03:02Z</time>
      </trkpt>
      <trkpt lat="45.91663" lon="4.73736">
        <ele>172</ele>
        <time>2018-07-19T11:03:03Z</time>
      </trkpt>
      <trkpt lat="45.91669" lon="4.73733">
        <ele>172</ele>
        <time>2018-07-19T11:03:04Z</time>
      </trkpt>
      <trkpt lat="45.91675" lon="4.73734">
        <ele>172</ele>
        <time>2018-07-19T11:03:05Z</time>
      </trkpt>
      <trkpt lat="45.9168" lon="4.73734">
        <ele>172</ele>
        <time>2018-07-19T11:03:06Z</time>
      </trkpt>
      <trkpt lat="45.91686" lon="4.73735">
        <ele>172</ele>
        <time>2018-07-19T11:03:07Z</time>
      </trkpt>
      <trkpt lat="45.91691" lon="4.73735">
        <ele>172</ele>
        <time>2018-07-19T11:03:08Z</time>
      </trkpt>
      <trkpt lat="45.91697" lon="4.73735">
        <ele>172</ele>
        <time>2018-07-19T11:03:09Z</time>
      </trkpt>
      <trkpt lat="45.91703" lon="4.73733">
        <ele>172</ele>
        <time>2018-07-19T11:03:10Z</time>
      </trkpt>
      <trkpt lat="45.9171" lon="4.73733">
        <ele>173</ele>
        <time>2018-07-19T11:03:11Z</time>
      </trkpt>
      <trkpt lat="45.91716" lon="4.73733">
        <ele>173</ele>
        <time>2018-07-19T11:03:12Z</time>
      </trkpt>
      <trkpt lat="45.91722" lon="4.73733">
        <ele>173</ele>
        <time>2018-07-19T11:03:13Z</time>
      </trkpt>
      <trkpt lat="45.91727" lon="4.73731">
        <ele>173</ele>
        <time>2018-07-19T11:03:14Z</time>
      </trkpt>
      <trkpt lat="45.91733" lon="4.73731">
        <ele>173</ele>
        <time>2018-07-19T11:03:15Z</time>
      </trkpt>
      <trkpt lat="45.91737" lon="4.73732">
        <ele>173</ele>
        <time>2018-07-19T11:03:16Z</time>
      </trkpt>
      <trkpt lat="45.91742" lon="4.73733">
        <ele>173</ele>
        <time>2018-07-19T11:03:17Z</time>
      </trkpt>
      <trkpt lat="45.91751" lon="4.73734">
        <ele>173</ele>
        <time>2018-07-19T11:03:19Z</time>
      </trkpt>
      <trkpt lat="45.91755" lon="4.73734">
        <ele>173</ele>
        <time>2018-07-19T11:03:20Z</time>
      </trkpt>
      <trkpt lat="45.91759" lon="4.73734">
        <ele>173</ele>
        <time>2018-07-19T11:03:21Z</time>
      </trkpt>
      <trkpt lat="45.91764" lon="4.73736">
        <ele>173</ele>
        <time>2018-07-19T11:03:22Z</time>
      </trkpt>
      <trkpt lat="45.91769" lon="4.73735">
        <ele>173</ele>
        <time>2018-07-19T11:03:23Z</time>
      </trkpt>
      <trkpt lat="45.91775" lon="4.73733">
        <ele>173</ele>
        <time>2018-07-19T11:03:24Z</time>
      </trkpt>
      <trkpt lat="45.9178" lon="4.73734">
        <ele>173</ele>
        <time>2018-07-19T11:03:25Z</time>
      </trkpt>
      <trkpt lat="45.91785" lon="4.73734">
        <ele>173</ele>
        <time>2018-07-19T11:03:26Z</time>
      </trkpt>
      <trkpt lat="45.91789" lon="4.73736">
        <ele>173</ele>
        <time>2018-07-19T11:03:27Z</time>
      </trkpt>
      <trkpt lat="45.91797" lon="4.73731">
        <ele>172</ele>
        <time>2018-07-19T11:03:28Z</time>
      </trkpt>
      <trkpt lat="45.91803" lon="4.7373">
        <ele>172</ele>
        <time>2018-07-19T11:03:29Z</time>
      </trkpt>
      <trkpt lat="45.91809" lon="4.7373">
        <ele>172</ele>
        <time>2018-07-19T11:03:30Z</time>
      </trkpt>
      <trkpt lat="45.91814" lon="4.7373">
        <ele>172</ele>
        <time>2018-07-19T11:03:31Z</time>
      </trkpt>
      <trkpt lat="45.91819" lon="4.7373">
        <ele>172</ele>
        <time>2018-07-19T11:03:32Z</time>
      </trkpt>
      <trkpt lat="45.91824" lon="4.7373">
        <ele>172</ele>
        <time>2018-07-19T11:03:33Z</time>
      </trkpt>
      <trkpt lat="45.91829" lon="4.73731">
        <ele>172</ele>
        <time>2018-07-19T11:03:34Z</time>
      </trkpt>
      <trkpt lat="45.91834" lon="4.73733">
        <ele>172</ele>
        <time>2018-07-19T11:03:35Z</time>
      </trkpt>
      <trkpt lat="45.9184" lon="4.73733">
        <ele>172</ele>
        <time>2018-07-19T11:03:36Z</time>
      </trkpt>
      <trkpt lat="45.91845" lon="4.73732">
        <ele>172</ele>
        <time>2018-07-19T11:03:37Z</time>
      </trkpt>
      <trkpt lat="45.91853" lon="4.73734">
        <ele>171</ele>
        <time>2018-07-19T11:03:38Z</time>
      </trkpt>
      <trkpt lat="45.91859" lon="4.73733">
        <ele>171</ele>
        <time>2018-07-19T11:03:39Z</time>
      </trkpt>
      <trkpt lat="45.91865" lon="4.73733">
        <ele>171</ele>
        <time>2018-07-19T11:03:40Z</time>
      </trkpt>
      <trkpt lat="45.91871" lon="4.73732">
        <ele>171</ele>
        <time>2018-07-19T11:03:41Z</time>
      </trkpt>
      <trkpt lat="45.91876" lon="4.73732">
        <ele>171</ele>
        <time>2018-07-19T11:03:42Z</time>
      </trkpt>
      <trkpt lat="45.91881" lon="4.73731">
        <ele>171</ele>
        <time>2018-07-19T11:03:43Z</time>
      </trkpt>
      <trkpt lat="45.91887" lon="4.73731">
        <ele>171</ele>
        <time>2018-07-19T11:03:44Z</time>
      </trkpt>
      <trkpt lat="45.91892" lon="4.73731">
        <ele>171</ele>
        <time>2018-07-19T11:03:45Z</time>
      </trkpt>
      <trkpt lat="45.91898" lon="4.73731">
        <ele>171</ele>
        <time>2018-07-19T11:03:46Z</time>
      </trkpt>
      <trkpt lat="45.91904" lon="4.73732">
        <ele>171</ele>
        <time>2018-07-19T11:03:47Z</time>
      </trkpt>
      <trkpt lat="45.9191" lon="4.73731">
        <ele>171</ele>
        <time>2018-07-19T11:03:48Z</time>
      </trkpt>
      <trkpt lat="45.91916" lon="4.73731">
        <ele>171</ele>
        <time>2018-07-19T11:03:49Z</time>
      </trkpt>
      <trkpt lat="45.91922" lon="4.7373">
        <ele>170</ele>
        <time>2018-07-19T11:03:50Z</time>
      </trkpt>
      <trkpt lat="45.91928" lon="4.7373">
        <ele>170</ele>
        <time>2018-07-19T11:03:51Z</time>
      </trkpt>
      <trkpt lat="45.91934" lon="4.73729">
        <ele>170</ele>
        <time>2018-07-19T11:03:52Z</time>
      </trkpt>
      <trkpt lat="45.91938" lon="4.7373">
        <ele>170</ele>
        <time>2018-07-19T11:03:53Z</time>
      </trkpt>
      <trkpt lat="45.91944" lon="4.7373">
        <ele>170</ele>
        <time>2018-07-19T11:03:54Z</time>
      </trkpt>
      <trkpt lat="45.91951" lon="4.73728">
        <ele>170</ele>
        <time>2018-07-19T11:03:56Z</time>
      </trkpt>
      <trkpt lat="45.91956" lon="4.73727">
        <ele>170</ele>
        <time>2018-07-19T11:03:57Z</time>
      </trkpt>
      <trkpt lat="45.9196" lon="4.73728">
        <ele>171</ele>
        <time>2018-07-19T11:03:58Z</time>
      </trkpt>
      <trkpt lat="45.91966" lon="4.73729">
        <ele>171</ele>
        <time>2018-07-19T11:03:59Z</time>
      </trkpt>
      <trkpt lat="45.9197" lon="4.73732">
        <ele>171</ele>
        <time>2018-07-19T11:04:00Z</time>
      </trkpt>
      <trkpt lat="45.91976" lon="4.73731">
        <ele>171</ele>
        <time>2018-07-19T11:04:01Z</time>
      </trkpt>
      <trkpt lat="45.91982" lon="4.73729">
        <ele>171</ele>
        <time>2018-07-19T11:04:02Z</time>
      </trkpt>
      <trkpt lat="45.91987" lon="4.73729">
        <ele>171</ele>
        <time>2018-07-19T11:04:03Z</time>
      </trkpt>
      <trkpt lat="45.91993" lon="4.73728">
        <ele>171</ele>
        <time>2018-07-19T11:04:04Z</time>
      </trkpt>
      <trkpt lat="45.91998" lon="4.73728">
        <ele>171</ele>
        <time>2018-07-19T11:04:05Z</time>
      </trkpt>
      <trkpt lat="45.92004" lon="4.73734">
        <ele>171</ele>
        <time>2018-07-19T11:04:07Z</time>
      </trkpt>
      <trkpt lat="45.92011" lon="4.73732">
        <ele>171</ele>
        <time>2018-07-19T11:04:08Z</time>
      </trkpt>
      <trkpt lat="45.92016" lon="4.73732">
        <ele>171</ele>
        <time>2018-07-19T11:04:09Z</time>
      </trkpt>
      <trkpt lat="45.92024" lon="4.7373">
        <ele>171</ele>
        <time>2018-07-19T11:04:10Z</time>
      </trkpt>
      <trkpt lat="45.9203" lon="4.7373">
        <ele>171</ele>
        <time>2018-07-19T11:04:11Z</time>
      </trkpt>
      <trkpt lat="45.92035" lon="4.7373">
        <ele>171</ele>
        <time>2018-07-19T11:04:12Z</time>
      </trkpt>
      <trkpt lat="45.92042" lon="4.73729">
        <ele>171</ele>
        <time>2018-07-19T11:04:14Z</time>
      </trkpt>
      <trkpt lat="45.92045" lon="4.73731">
        <ele>171</ele>
        <time>2018-07-19T11:04:15Z</time>
      </trkpt>
      <trkpt lat="45.9205" lon="4.73731">
        <ele>171</ele>
        <time>2018-07-19T11:04:16Z</time>
      </trkpt>
      <trkpt lat="45.92055" lon="4.73731">
        <ele>171</ele>
        <time>2018-07-19T11:04:17Z</time>
      </trkpt>
      <trkpt lat="45.92059" lon="4.73731">
        <ele>171</ele>
        <time>2018-07-19T11:04:18Z</time>
      </trkpt>
      <trkpt lat="45.92067" lon="4.73728">
        <ele>171</ele>
        <time>2018-07-19T11:04:19Z</time>
      </trkpt>
      <trkpt lat="45.92072" lon="4.73727">
        <ele>171</ele>
        <time>2018-07-19T11:04:20Z</time>
      </trkpt>
      <trkpt lat="45.92078" lon="4.73726">
        <ele>171</ele>
        <time>2018-07-19T11:04:21Z</time>
      </trkpt>
      <trkpt lat="45.92084" lon="4.73724">
        <ele>171</ele>
        <time>2018-07-19T11:04:22Z</time>
      </trkpt>
      <trkpt lat="45.9209" lon="4.73723">
        <ele>171</ele>
        <time>2018-07-19T11:04:23Z</time>
      </trkpt>
      <trkpt lat="45.92095" lon="4.73723">
        <ele>171</ele>
        <time>2018-07-19T11:04:24Z</time>
      </trkpt>
      <trkpt lat="45.92101" lon="4.73721">
        <ele>171</ele>
        <time>2018-07-19T11:04:25Z</time>
      </trkpt>
      <trkpt lat="45.92105" lon="4.73721">
        <ele>171</ele>
        <time>2018-07-19T11:04:26Z</time>
      </trkpt>
      <trkpt lat="45.92111" lon="4.7372">
        <ele>171</ele>
        <time>2018-07-19T11:04:27Z</time>
      </trkpt>
      <trkpt lat="45.92117" lon="4.73719">
        <ele>171</ele>
        <time>2018-07-19T11:04:28Z</time>
      </trkpt>
      <trkpt lat="45.92122" lon="4.73717">
        <ele>171</ele>
        <time>2018-07-19T11:04:29Z</time>
      </trkpt>
      <trkpt lat="45.92127" lon="4.73718">
        <ele>171</ele>
        <time>2018-07-19T11:04:30Z</time>
      </trkpt>
      <trkpt lat="45.92132" lon="4.73718">
        <ele>171</ele>
        <time>2018-07-19T11:04:31Z</time>
      </trkpt>
      <trkpt lat="45.92137" lon="4.73716">
        <ele>171</ele>
        <time>2018-07-19T11:04:32Z</time>
      </trkpt>
      <trkpt lat="45.92143" lon="4.73714">
        <ele>171</ele>
        <time>2018-07-19T11:04:33Z</time>
      </trkpt>
      <trkpt lat="45.9215" lon="4.73711">
        <ele>171</ele>
        <time>2018-07-19T11:04:35Z</time>
      </trkpt>
      <trkpt lat="45.92154" lon="4.73706">
        <ele>171</ele>
        <time>2018-07-19T11:04:36Z</time>
      </trkpt>
      <trkpt lat="45.92158" lon="4.73704">
        <ele>171</ele>
        <time>2018-07-19T11:04:37Z</time>
      </trkpt>
      <trkpt lat="45.92163" lon="4.73703">
        <ele>171</ele>
        <time>2018-07-19T11:04:38Z</time>
      </trkpt>
      <trkpt lat="45.92167" lon="4.73699">
        <ele>171</ele>
        <time>2018-07-19T11:04:39Z</time>
      </trkpt>
      <trkpt lat="45.92171" lon="4.73695">
        <ele>171</ele>
        <time>2018-07-19T11:04:40Z</time>
      </trkpt>
      <trkpt lat="45.92177" lon="4.7369">
        <ele>171</ele>
        <time>2018-07-19T11:04:41Z</time>
      </trkpt>
      <trkpt lat="45.92182" lon="4.73689">
        <ele>171</ele>
        <time>2018-07-19T11:04:42Z</time>
      </trkpt>
      <trkpt lat="45.92187" lon="4.73685">
        <ele>171</ele>
        <time>2018-07-19T11:04:43Z</time>
      </trkpt>
      <trkpt lat="45.92193" lon="4.73682">
        <ele>171</ele>
        <time>2018-07-19T11:04:44Z</time>
      </trkpt>
      <trkpt lat="45.92201" lon="4.7368">
        <ele>171</ele>
        <time>2018-07-19T11:04:46Z</time>
      </trkpt>
      <trkpt lat="45.92206" lon="4.73678">
        <ele>171</ele>
        <time>2018-07-19T11:04:47Z</time>
      </trkpt>
      <trkpt lat="45.9221" lon="4.73675">
        <ele>171</ele>
        <time>2018-07-19T11:04:48Z</time>
      </trkpt>
      <trkpt lat="45.92214" lon="4.73673">
        <ele>171</ele>
        <time>2018-07-19T11:04:49Z</time>
      </trkpt>
      <trkpt lat="45.92219" lon="4.7367">
        <ele>171</ele>
        <time>2018-07-19T11:04:50Z</time>
      </trkpt>
      <trkpt lat="45.92226" lon="4.73666">
        <ele>171</ele>
        <time>2018-07-19T11:04:51Z</time>
      </trkpt>
      <trkpt lat="45.92231" lon="4.73664">
        <ele>171</ele>
        <time>2018-07-19T11:04:52Z</time>
      </trkpt>
      <trkpt lat="45.92237" lon="4.73661">
        <ele>171</ele>
        <time>2018-07-19T11:04:53Z</time>
      </trkpt>
      <trkpt lat="45.92242" lon="4.73656">
        <ele>171</ele>
        <time>2018-07-19T11:04:54Z</time>
      </trkpt>
      <trkpt lat="45.92247" lon="4.73654">
        <ele>171</ele>
        <time>2018-07-19T11:04:55Z</time>
      </trkpt>
      <trkpt lat="45.92253" lon="4.73652">
        <ele>171</ele>
        <time>2018-07-19T11:04:56Z</time>
      </trkpt>
      <trkpt lat="45.92257" lon="4.7365">
        <ele>171</ele>
        <time>2018-07-19T11:04:57Z</time>
      </trkpt>
      <trkpt lat="45.92262" lon="4.73647">
        <ele>171</ele>
        <time>2018-07-19T11:04:58Z</time>
      </trkpt>
      <trkpt lat="45.92267" lon="4.73645">
        <ele>172</ele>
        <time>2018-07-19T11:04:59Z</time>
      </trkpt>
      <trkpt lat="45.92274" lon="4.73641">
        <ele>172</ele>
        <time>2018-07-19T11:05:00Z</time>
      </trkpt>
      <trkpt lat="45.92278" lon="4.73638">
        <ele>172</ele>
        <time>2018-07-19T11:05:01Z</time>
      </trkpt>
      <trkpt lat="45.92286" lon="4.73633">
        <ele>172</ele>
        <time>2018-07-19T11:05:03Z</time>
      </trkpt>
      <trkpt lat="45.92291" lon="4.73631">
        <ele>172</ele>
        <time>2018-07-19T11:05:04Z</time>
      </trkpt>
      <trkpt lat="45.92299" lon="4.73627">
        <ele>172</ele>
        <time>2018-07-19T11:05:06Z</time>
      </trkpt>
      <trkpt lat="45.92305" lon="4.73625">
        <ele>172</ele>
        <time>2018-07-19T11:05:07Z</time>
      </trkpt>
      <trkpt lat="45.9231" lon="4.73623">
        <ele>172</ele>
        <time>2018-07-19T11:05:08Z</time>
      </trkpt>
      <trkpt lat="45.92315" lon="4.7362">
        <ele>172</ele>
        <time>2018-07-19T11:05:09Z</time>
      </trkpt>
      <trkpt lat="45.92321" lon="4.73617">
        <ele>172</ele>
        <time>2018-07-19T11:05:10Z</time>
      </trkpt>
      <trkpt lat="45.92326" lon="4.73612">
        <ele>172</ele>
        <time>2018-07-19T11:05:11Z</time>
      </trkpt>
      <trkpt lat="45.92332" lon="4.73609">
        <ele>172</ele>
        <time>2018-07-19T11:05:12Z</time>
      </trkpt>
      <trkpt lat="45.92337" lon="4.73607">
        <ele>173</ele>
        <time>2018-07-19T11:05:13Z</time>
      </trkpt>
      <trkpt lat="45.92342" lon="4.73604">
        <ele>173</ele>
        <time>2018-07-19T11:05:14Z</time>
      </trkpt>
      <trkpt lat="45.92347" lon="4.73601">
        <ele>173</ele>
        <time>2018-07-19T11:05:15Z</time>
      </trkpt>
      <trkpt lat="45.92353" lon="4.73598">
        <ele>173</ele>
        <time>2018-07-19T11:05:16Z</time>
      </trkpt>
      <trkpt lat="45.92357" lon="4.73596">
        <ele>173</ele>
        <time>2018-07-19T11:05:17Z</time>
      </trkpt>
      <trkpt lat="45.92362" lon="4.73594">
        <ele>173</ele>
        <time>2018-07-19T11:05:18Z</time>
      </trkpt>
      <trkpt lat="45.92368" lon="4.73591">
        <ele>173</ele>
        <time>2018-07-19T11:05:19Z</time>
      </trkpt>
      <trkpt lat="45.92376" lon="4.73588">
        <ele>173</ele>
        <time>2018-07-19T11:05:21Z</time>
      </trkpt>
      <trkpt lat="45.92379" lon="4.73586">
        <ele>173</ele>
        <time>2018-07-19T11:05:22Z</time>
      </trkpt>
      <trkpt lat="45.92387" lon="4.73582">
        <ele>173</ele>
        <time>2018-07-19T11:05:24Z</time>
      </trkpt>
      <trkpt lat="45.92392" lon="4.7358">
        <ele>173</ele>
        <time>2018-07-19T11:05:25Z</time>
      </trkpt>
      <trkpt lat="45.92399" lon="4.73572">
        <ele>173</ele>
        <time>2018-07-19T11:05:27Z</time>
      </trkpt>
      <trkpt lat="45.92403" lon="4.7357">
        <ele>173</ele>
        <time>2018-07-19T11:05:28Z</time>
      </trkpt>
      <trkpt lat="45.92411" lon="4.73566">
        <ele>173</ele>
        <time>2018-07-19T11:05:30Z</time>
      </trkpt>
      <trkpt lat="45.92415" lon="4.73563">
        <ele>173</ele>
        <time>2018-07-19T11:05:31Z</time>
      </trkpt>
      <trkpt lat="45.92422" lon="4.73559">
        <ele>174</ele>
        <time>2018-07-19T11:05:33Z</time>
      </trkpt>
      <trkpt lat="45.92426" lon="4.73558">
        <ele>174</ele>
        <time>2018-07-19T11:05:34Z</time>
      </trkpt>
      <trkpt lat="45.92433" lon="4.73554">
        <ele>174</ele>
        <time>2018-07-19T11:05:36Z</time>
      </trkpt>
      <trkpt lat="45.92437" lon="4.73551">
        <ele>174</ele>
        <time>2018-07-19T11:05:37Z</time>
      </trkpt>
      <trkpt lat="45.92445" lon="4.73547">
        <ele>174</ele>
        <time>2018-07-19T11:05:39Z</time>
      </trkpt>
      <trkpt lat="45.9245" lon="4.73546">
        <ele>174</ele>
        <time>2018-07-19T11:05:40Z</time>
      </trkpt>
      <trkpt lat="45.92456" lon="4.73544">
        <ele>174</ele>
        <time>2018-07-19T11:05:41Z</time>
      </trkpt>
      <trkpt lat="45.92461" lon="4.73545">
        <ele>173</ele>
        <time>2018-07-19T11:05:42Z</time>
      </trkpt>
      <trkpt lat="45.92464" lon="4.73555">
        <ele>173</ele>
        <time>2018-07-19T11:05:44Z</time>
      </trkpt>
      <trkpt lat="45.92465" lon="4.73561">
        <ele>173</ele>
        <time>2018-07-19T11:05:45Z</time>
      </trkpt>
      <trkpt lat="45.92465" lon="4.73568">
        <ele>173</ele>
        <time>2018-07-19T11:05:46Z</time>
      </trkpt>
      <trkpt lat="45.92465" lon="4.73575">
        <ele>173</ele>
        <time>2018-07-19T11:05:47Z</time>
      </trkpt>
      <trkpt lat="45.92464" lon="4.73581">
        <ele>173</ele>
        <time>2018-07-19T11:05:48Z</time>
      </trkpt>
      <trkpt lat="45.92466" lon="4.73591">
        <ele>174</ele>
        <time>2018-07-19T11:05:49Z</time>
      </trkpt>
      <trkpt lat="45.92466" lon="4.73599">
        <ele>174</ele>
        <time>2018-07-19T11:05:50Z</time>
      </trkpt>
      <trkpt lat="45.92466" lon="4.73606">
        <ele>174</ele>
        <time>2018-07-19T11:05:51Z</time>
      </trkpt>
      <trkpt lat="45.92466" lon="4.73614">
        <ele>174</ele>
        <time>2018-07-19T11:05:52Z</time>
      </trkpt>
      <trkpt lat="45.92468" lon="4.73622">
        <ele>174</ele>
        <time>2018-07-19T11:05:53Z</time>
      </trkpt>
      <trkpt lat="45.92469" lon="4.7363">
        <ele>174</ele>
        <time>2018-07-19T11:05:54Z</time>
      </trkpt>
      <trkpt lat="45.92469" lon="4.73638">
        <ele>174</ele>
        <time>2018-07-19T11:05:55Z</time>
      </trkpt>
      <trkpt lat="45.92469" lon="4.73644">
        <ele>174</ele>
        <time>2018-07-19T11:05:56Z</time>
      </trkpt>
      <trkpt lat="45.9247" lon="4.73651">
        <ele>174</ele>
        <time>2018-07-19T11:05:57Z</time>
      </trkpt>
      <trkpt lat="45.92468" lon="4.73658">
        <ele>174</ele>
        <time>2018-07-19T11:05:58Z</time>
      </trkpt>
      <trkpt lat="45.92469" lon="4.73667">
        <ele>174</ele>
        <time>2018-07-19T11:05:59Z</time>
      </trkpt>
      <trkpt lat="45.92468" lon="4.73674">
        <ele>174</ele>
        <time>2018-07-19T11:06:00Z</time>
      </trkpt>
      <trkpt lat="45.92466" lon="4.73679">
        <ele>174</ele>
        <time>2018-07-19T11:06:01Z</time>
      </trkpt>
      <trkpt lat="45.92465" lon="4.73686">
        <ele>174</ele>
        <time>2018-07-19T11:06:02Z</time>
      </trkpt>
      <trkpt lat="45.92464" lon="4.73692">
        <ele>174</ele>
        <time>2018-07-19T11:06:03Z</time>
      </trkpt>
      <trkpt lat="45.92461" lon="4.73703">
        <ele>174</ele>
        <time>2018-07-19T11:06:07Z</time>
      </trkpt>
      <trkpt lat="45.92461" lon="4.73704">
        <ele>174</ele>
        <time>2018-07-19T11:06:08Z</time>
      </trkpt>
      <trkpt lat="45.92461" lon="4.73705">
        <ele>174</ele>
        <time>2018-07-19T11:06:09Z</time>
      </trkpt>
      <trkpt lat="45.92461" lon="4.73707">
        <ele>174</ele>
        <time>2018-07-19T11:06:15Z</time>
      </trkpt>
      <trkpt lat="45.92462" lon="4.73708">
        <ele>174</ele>
        <time>2018-07-19T11:06:16Z</time>
      </trkpt>
      <trkpt lat="45.92455" lon="4.73714">
        <ele>174</ele>
        <time>2018-07-19T11:07:11.588Z</time>
      </trkpt>
    </trkseg>
  </trk>
</gpx>